<?xml version="1.0" encoding="UTF-8" standalone="no" ?>
<gpx xmlns="http://www.topografix.com/GPX/1/1" xmlns:xsi="http://www.w3.org/2001/XMLSchema-instance" xsi:schemaLocation="http://www.topografix.com/GPX/1/1 http://www.topografix.com/GPX/1/1/gpx.xsd" version="1.1" creator="VisuGPX - https://www.visugpx.com">
  <metadata>
    <name>Edirne-Mostar</name>
  </metadata>
  <trk>
    <name><![CDATA[Tour d'Europe: étape 617]]></name>
    <extensions>
      <line xmlns="http://www.topografix.com/GPX/gpx_style/0/2">
        <color>00FFFF</color>
        <width>4</width>
      </line>
    </extensions>
    <trkseg>
      <trkpt lat="42.14748" lon="24.75414">
        <ele>237.94926</ele>
        <time>2022-03-07T06:57:35.630Z</time>
      </trkpt>
      <trkpt lat="42.14736" lon="24.75415">
        <ele>237.94926</ele>
        <time>2022-03-07T07:00:09.445Z</time>
      </trkpt>
      <trkpt lat="42.14734" lon="24.7543">
        <ele>237.94926</ele>
        <time>2022-03-07T07:01:24.460Z</time>
      </trkpt>
      <trkpt lat="42.14737" lon="24.75442">
        <ele>237.94926</ele>
        <time>2022-03-07T07:01:31.457Z</time>
      </trkpt>
      <trkpt lat="42.14736" lon="24.75455">
        <ele>237.94926</ele>
        <time>2022-03-07T07:01:41.450Z</time>
      </trkpt>
      <trkpt lat="42.14734" lon="24.75467">
        <ele>237.94926</ele>
        <time>2022-03-07T07:01:50.475Z</time>
      </trkpt>
      <trkpt lat="42.14734" lon="24.75479">
        <ele>237.94926</ele>
        <time>2022-03-07T07:02:02.447Z</time>
      </trkpt>
      <trkpt lat="42.14749" lon="24.75493">
        <ele>237.94926</ele>
        <time>2022-03-07T07:03:12.440Z</time>
      </trkpt>
      <trkpt lat="42.14759" lon="24.75496">
        <ele>237.94926</ele>
        <time>2022-03-07T07:03:16.462Z</time>
      </trkpt>
      <trkpt lat="42.14768" lon="24.75501">
        <ele>237.086961</ele>
        <time>2022-03-07T07:03:19.469Z</time>
      </trkpt>
      <trkpt lat="42.14777" lon="24.75504">
        <ele>236.260994</ele>
        <time>2022-03-07T07:03:22.462Z</time>
      </trkpt>
      <trkpt lat="42.14788" lon="24.75509">
        <ele>235.152252</ele>
        <time>2022-03-07T07:03:26.443Z</time>
      </trkpt>
      <trkpt lat="42.14798" lon="24.75513">
        <ele>234.255613</ele>
        <time>2022-03-07T07:03:29.455Z</time>
      </trkpt>
      <trkpt lat="42.14809" lon="24.75518">
        <ele>233.220494</ele>
        <time>2022-03-07T07:03:33.454Z</time>
      </trkpt>
      <trkpt lat="42.14819" lon="24.7552">
        <ele>232.23863</ele>
        <time>2022-03-07T07:03:37.464Z</time>
      </trkpt>
      <trkpt lat="42.14828" lon="24.75524">
        <ele>231.396942</ele>
        <time>2022-03-07T07:03:40.437Z</time>
      </trkpt>
      <trkpt lat="42.14839" lon="24.75531">
        <ele>230.312053</ele>
        <time>2022-03-07T07:03:44.444Z</time>
      </trkpt>
      <trkpt lat="42.14847" lon="24.75538">
        <ele>229.40566</ele>
        <time>2022-03-07T07:03:47.457Z</time>
      </trkpt>
      <trkpt lat="42.14857" lon="24.75543">
        <ele>228.498142</ele>
        <time>2022-03-07T07:03:50.456Z</time>
      </trkpt>
      <trkpt lat="42.14867" lon="24.75548">
        <ele>227.514598</ele>
        <time>2022-03-07T07:03:53.450Z</time>
      </trkpt>
      <trkpt lat="42.14877" lon="24.75553">
        <ele>226.548925</ele>
        <time>2022-03-07T07:03:56.433Z</time>
      </trkpt>
      <trkpt lat="42.14886" lon="24.75557">
        <ele>225.681809</ele>
        <time>2022-03-07T07:03:59.447Z</time>
      </trkpt>
      <trkpt lat="42.14894" lon="24.75564">
        <ele>224.804096</ele>
        <time>2022-03-07T07:04:02.456Z</time>
      </trkpt>
      <trkpt lat="42.14899" lon="24.75575">
        <ele>223.94316</ele>
        <time>2022-03-07T07:04:05.457Z</time>
      </trkpt>
      <trkpt lat="42.14906" lon="24.75584">
        <ele>223.029867</ele>
        <time>2022-03-07T07:04:08.451Z</time>
      </trkpt>
      <trkpt lat="42.14918" lon="24.75582">
        <ele>221.992105</ele>
        <time>2022-03-07T07:04:11.456Z</time>
      </trkpt>
      <trkpt lat="42.14928" lon="24.75573">
        <ele>221.405438</ele>
        <time>2022-03-07T07:04:14.434Z</time>
      </trkpt>
      <trkpt lat="42.14936" lon="24.75564">
        <ele>221.139659</ele>
        <time>2022-03-07T07:04:17.442Z</time>
      </trkpt>
      <trkpt lat="42.14944" lon="24.75555">
        <ele>220.898122</ele>
        <time>2022-03-07T07:04:20.441Z</time>
      </trkpt>
      <trkpt lat="42.14953" lon="24.75547">
        <ele>220.640837</ele>
        <time>2022-03-07T07:04:23.485Z</time>
      </trkpt>
      <trkpt lat="42.14962" lon="24.75539">
        <ele>220.364287</ele>
        <time>2022-03-07T07:04:26.458Z</time>
      </trkpt>
      <trkpt lat="42.14972" lon="24.75531">
        <ele>220.075708</ele>
        <time>2022-03-07T07:04:29.444Z</time>
      </trkpt>
      <trkpt lat="42.14983" lon="24.75521">
        <ele>219.764126</ele>
        <time>2022-03-07T07:04:32.450Z</time>
      </trkpt>
      <trkpt lat="42.14992" lon="24.75512">
        <ele>219.49059</ele>
        <time>2022-03-07T07:04:35.466Z</time>
      </trkpt>
      <trkpt lat="42.15001" lon="24.75504">
        <ele>219.228316</ele>
        <time>2022-03-07T07:04:38.475Z</time>
      </trkpt>
      <trkpt lat="42.15011" lon="24.75498">
        <ele>218.957054</ele>
        <time>2022-03-07T07:04:41.450Z</time>
      </trkpt>
      <trkpt lat="42.1502" lon="24.75489">
        <ele>218.705518</ele>
        <time>2022-03-07T07:04:44.486Z</time>
      </trkpt>
      <trkpt lat="42.15027" lon="24.75482">
        <ele>218.477413</ele>
        <time>2022-03-07T07:04:47.461Z</time>
      </trkpt>
      <trkpt lat="42.15036" lon="24.75476">
        <ele>218.251638</ele>
        <time>2022-03-07T07:04:50.453Z</time>
      </trkpt>
      <trkpt lat="42.15045" lon="24.7547">
        <ele>218.0063</ele>
        <time>2022-03-07T07:04:53.458Z</time>
      </trkpt>
      <trkpt lat="42.15055" lon="24.75462">
        <ele>217.715187</ele>
        <time>2022-03-07T07:04:56.494Z</time>
      </trkpt>
      <trkpt lat="42.15066" lon="24.75454">
        <ele>217.405828</ele>
        <time>2022-03-07T07:04:59.444Z</time>
      </trkpt>
      <trkpt lat="42.15076" lon="24.75447">
        <ele>217.123668</ele>
        <time>2022-03-07T07:05:02.443Z</time>
      </trkpt>
      <trkpt lat="42.15086" lon="24.75443">
        <ele>216.807687</ele>
        <time>2022-03-07T07:05:05.525Z</time>
      </trkpt>
      <trkpt lat="42.15098" lon="24.75441">
        <ele>216.437264</ele>
        <time>2022-03-07T07:05:08.444Z</time>
      </trkpt>
      <trkpt lat="42.15108" lon="24.7544">
        <ele>216.133682</ele>
        <time>2022-03-07T07:05:10.490Z</time>
      </trkpt>
      <trkpt lat="42.15121" lon="24.7544">
        <ele>215.770436</ele>
        <time>2022-03-07T07:05:13.454Z</time>
      </trkpt>
      <trkpt lat="42.1513" lon="24.75439">
        <ele>215.499532</ele>
        <time>2022-03-07T07:05:18.454Z</time>
      </trkpt>
      <trkpt lat="42.1514" lon="24.7544">
        <ele>215.199145</ele>
        <time>2022-03-07T07:05:25.472Z</time>
      </trkpt>
      <trkpt lat="42.15149" lon="24.75443">
        <ele>214.916517</ele>
        <time>2022-03-07T07:05:28.467Z</time>
      </trkpt>
      <trkpt lat="42.15158" lon="24.75446">
        <ele>214.622041</ele>
        <time>2022-03-07T07:05:31.444Z</time>
      </trkpt>
      <trkpt lat="42.15171" lon="24.75448">
        <ele>214.235727</ele>
        <time>2022-03-07T07:05:34.447Z</time>
      </trkpt>
      <trkpt lat="42.15184" lon="24.75449">
        <ele>213.854082</ele>
        <time>2022-03-07T07:05:37.466Z</time>
      </trkpt>
      <trkpt lat="42.15195" lon="24.75448">
        <ele>213.511811</ele>
        <time>2022-03-07T07:05:40.461Z</time>
      </trkpt>
      <trkpt lat="42.15206" lon="24.75447">
        <ele>213.186518</ele>
        <time>2022-03-07T07:05:43.450Z</time>
      </trkpt>
      <trkpt lat="42.15218" lon="24.75445">
        <ele>212.82979</ele>
        <time>2022-03-07T07:05:46.455Z</time>
      </trkpt>
      <trkpt lat="42.1523" lon="24.75447">
        <ele>212.474008</ele>
        <time>2022-03-07T07:05:49.482Z</time>
      </trkpt>
      <trkpt lat="42.15241" lon="24.75451">
        <ele>212.126783</ele>
        <time>2022-03-07T07:05:52.461Z</time>
      </trkpt>
      <trkpt lat="42.15252" lon="24.75455">
        <ele>211.880627</ele>
        <time>2022-03-07T07:05:55.464Z</time>
      </trkpt>
      <trkpt lat="42.15264" lon="24.75455">
        <ele>212.276281</ele>
        <time>2022-03-07T07:05:58.470Z</time>
      </trkpt>
      <trkpt lat="42.15276" lon="24.75455">
        <ele>212.655407</ele>
        <time>2022-03-07T07:06:01.446Z</time>
      </trkpt>
      <trkpt lat="42.15288" lon="24.75456">
        <ele>213.045675</ele>
        <time>2022-03-07T07:06:04.465Z</time>
      </trkpt>
      <trkpt lat="42.153" lon="24.75458">
        <ele>213.429705</ele>
        <time>2022-03-07T07:06:07.460Z</time>
      </trkpt>
      <trkpt lat="42.15311" lon="24.75462">
        <ele>213.808238</ele>
        <time>2022-03-07T07:06:10.455Z</time>
      </trkpt>
      <trkpt lat="42.15323" lon="24.75465">
        <ele>214.189699</ele>
        <time>2022-03-07T07:06:13.462Z</time>
      </trkpt>
      <trkpt lat="42.15334" lon="24.75468">
        <ele>214.566388</ele>
        <time>2022-03-07T07:06:16.461Z</time>
      </trkpt>
      <trkpt lat="42.15345" lon="24.75466">
        <ele>214.912861</ele>
        <time>2022-03-07T07:06:19.477Z</time>
      </trkpt>
      <trkpt lat="42.15349" lon="24.75453">
        <ele>215.24739</ele>
        <time>2022-03-07T07:06:24.444Z</time>
      </trkpt>
      <trkpt lat="42.1535" lon="24.7544">
        <ele>215.57673</ele>
        <time>2022-03-07T07:06:28.434Z</time>
      </trkpt>
      <trkpt lat="42.15349" lon="24.75427">
        <ele>215.884348</ele>
        <time>2022-03-07T07:06:31.493Z</time>
      </trkpt>
      <trkpt lat="42.1535" lon="24.75415">
        <ele>216.180673</ele>
        <time>2022-03-07T07:06:34.470Z</time>
      </trkpt>
      <trkpt lat="42.15351" lon="24.75402">
        <ele>216.473912</ele>
        <time>2022-03-07T07:06:37.452Z</time>
      </trkpt>
      <trkpt lat="42.15352" lon="24.75388">
        <ele>216.821325</ele>
        <time>2022-03-07T07:06:40.458Z</time>
      </trkpt>
      <trkpt lat="42.15352" lon="24.75374">
        <ele>217.15338</ele>
        <time>2022-03-07T07:06:43.461Z</time>
      </trkpt>
      <trkpt lat="42.1535" lon="24.75359">
        <ele>217.532851</ele>
        <time>2022-03-07T07:06:46.477Z</time>
      </trkpt>
      <trkpt lat="42.15347" lon="24.75346">
        <ele>217.265518</ele>
        <time>2022-03-07T07:06:49.480Z</time>
      </trkpt>
      <trkpt lat="42.15342" lon="24.75332">
        <ele>216.587963</ele>
        <time>2022-03-07T07:06:52.461Z</time>
      </trkpt>
      <trkpt lat="42.15348" lon="24.75321">
        <ele>215.967804</ele>
        <time>2022-03-07T07:06:56.466Z</time>
      </trkpt>
      <trkpt lat="42.15357" lon="24.75314">
        <ele>215.363576</ele>
        <time>2022-03-07T07:06:59.485Z</time>
      </trkpt>
      <trkpt lat="42.15366" lon="24.75308">
        <ele>214.758845</ele>
        <time>2022-03-07T07:07:02.439Z</time>
      </trkpt>
      <trkpt lat="42.15375" lon="24.75303">
        <ele>214.161447</ele>
        <time>2022-03-07T07:07:05.442Z</time>
      </trkpt>
      <trkpt lat="42.15384" lon="24.75299">
        <ele>213.585554</ele>
        <time>2022-03-07T07:07:08.500Z</time>
      </trkpt>
      <trkpt lat="42.15393" lon="24.75294">
        <ele>213.007526</ele>
        <time>2022-03-07T07:07:11.509Z</time>
      </trkpt>
      <trkpt lat="42.15404" lon="24.7529">
        <ele>212.376276</ele>
        <time>2022-03-07T07:07:15.452Z</time>
      </trkpt>
      <trkpt lat="42.15414" lon="24.75286">
        <ele>211.74656</ele>
        <time>2022-03-07T07:07:19.471Z</time>
      </trkpt>
      <trkpt lat="42.15418" lon="24.75275">
        <ele>211.191213</ele>
        <time>2022-03-07T07:07:24.438Z</time>
      </trkpt>
      <trkpt lat="42.15426" lon="24.75267">
        <ele>210.616079</ele>
        <time>2022-03-07T07:07:35.462Z</time>
      </trkpt>
      <trkpt lat="42.1543" lon="24.75254">
        <ele>209.990548</ele>
        <time>2022-03-07T07:07:39.475Z</time>
      </trkpt>
      <trkpt lat="42.15428" lon="24.75241">
        <ele>209.408763</ele>
        <time>2022-03-07T07:07:42.536Z</time>
      </trkpt>
      <trkpt lat="42.15427" lon="24.75228">
        <ele>208.804697</ele>
        <time>2022-03-07T07:07:45.474Z</time>
      </trkpt>
      <trkpt lat="42.15427" lon="24.75214">
        <ele>208.188515</ele>
        <time>2022-03-07T07:07:48.486Z</time>
      </trkpt>
      <trkpt lat="42.15425" lon="24.75201">
        <ele>207.593717</ele>
        <time>2022-03-07T07:07:51.493Z</time>
      </trkpt>
      <trkpt lat="42.15423" lon="24.75189">
        <ele>207.052092</ele>
        <time>2022-03-07T07:07:54.529Z</time>
      </trkpt>
      <trkpt lat="42.1542" lon="24.75174">
        <ele>206.692012</ele>
        <time>2022-03-07T07:07:57.463Z</time>
      </trkpt>
      <trkpt lat="42.15417" lon="24.75159">
        <ele>206.393831</ele>
        <time>2022-03-07T07:08:00.463Z</time>
      </trkpt>
      <trkpt lat="42.15416" lon="24.75144">
        <ele>206.114983</ele>
        <time>2022-03-07T07:08:03.469Z</time>
      </trkpt>
      <trkpt lat="42.15413" lon="24.75129">
        <ele>205.820755</ele>
        <time>2022-03-07T07:08:06.467Z</time>
      </trkpt>
      <trkpt lat="42.15411" lon="24.75113">
        <ele>205.528657</ele>
        <time>2022-03-07T07:08:09.435Z</time>
      </trkpt>
      <trkpt lat="42.1541" lon="24.75098">
        <ele>205.235981</ele>
        <time>2022-03-07T07:08:12.477Z</time>
      </trkpt>
      <trkpt lat="42.15408" lon="24.75083">
        <ele>204.952682</ele>
        <time>2022-03-07T07:08:15.458Z</time>
      </trkpt>
      <trkpt lat="42.15406" lon="24.75069">
        <ele>204.689515</ele>
        <time>2022-03-07T07:08:18.526Z</time>
      </trkpt>
      <trkpt lat="42.15403" lon="24.75055">
        <ele>204.427626</ele>
        <time>2022-03-07T07:08:21.474Z</time>
      </trkpt>
      <trkpt lat="42.15401" lon="24.75041">
        <ele>204.15189</ele>
        <time>2022-03-07T07:08:25.468Z</time>
      </trkpt>
      <trkpt lat="42.15395" lon="24.75029">
        <ele>203.889311</ele>
        <time>2022-03-07T07:08:31.532Z</time>
      </trkpt>
      <trkpt lat="42.15395" lon="24.75014">
        <ele>203.60215</ele>
        <time>2022-03-07T07:08:35.462Z</time>
      </trkpt>
      <trkpt lat="42.15397" lon="24.74998">
        <ele>203.313712</ele>
        <time>2022-03-07T07:08:38.508Z</time>
      </trkpt>
      <trkpt lat="42.15392" lon="24.74985">
        <ele>203.039951</ele>
        <time>2022-03-07T07:08:41.502Z</time>
      </trkpt>
      <trkpt lat="42.15385" lon="24.74973">
        <ele>202.755383</ele>
        <time>2022-03-07T07:08:44.472Z</time>
      </trkpt>
      <trkpt lat="42.15392" lon="24.74964">
        <ele>202.512895</ele>
        <time>2022-03-07T07:08:48.481Z</time>
      </trkpt>
      <trkpt lat="42.15392" lon="24.74948">
        <ele>202.325776</ele>
        <time>2022-03-07T07:08:52.466Z</time>
      </trkpt>
      <trkpt lat="42.15389" lon="24.74934">
        <ele>202.231864</ele>
        <time>2022-03-07T07:08:55.460Z</time>
      </trkpt>
      <trkpt lat="42.15387" lon="24.74918">
        <ele>202.12431</ele>
        <time>2022-03-07T07:08:58.471Z</time>
      </trkpt>
      <trkpt lat="42.15386" lon="24.749">
        <ele>202.010847</ele>
        <time>2022-03-07T07:09:01.485Z</time>
      </trkpt>
      <trkpt lat="42.15383" lon="24.74884">
        <ele>201.902274</ele>
        <time>2022-03-07T07:09:04.471Z</time>
      </trkpt>
      <trkpt lat="42.15381" lon="24.74869">
        <ele>201.801049</ele>
        <time>2022-03-07T07:09:07.487Z</time>
      </trkpt>
      <trkpt lat="42.15379" lon="24.74853">
        <ele>201.699011</ele>
        <time>2022-03-07T07:09:10.481Z</time>
      </trkpt>
      <trkpt lat="42.15377" lon="24.74839">
        <ele>201.603337</ele>
        <time>2022-03-07T07:09:13.479Z</time>
      </trkpt>
      <trkpt lat="42.15375" lon="24.74826">
        <ele>201.517106</ele>
        <time>2022-03-07T07:09:16.495Z</time>
      </trkpt>
      <trkpt lat="42.15372" lon="24.7481">
        <ele>201.414317</ele>
        <time>2022-03-07T07:09:19.471Z</time>
      </trkpt>
      <trkpt lat="42.1537" lon="24.74793">
        <ele>201.301918</ele>
        <time>2022-03-07T07:09:22.469Z</time>
      </trkpt>
      <trkpt lat="42.15367" lon="24.74776">
        <ele>201.182957</ele>
        <time>2022-03-07T07:09:25.470Z</time>
      </trkpt>
      <trkpt lat="42.15364" lon="24.74758">
        <ele>201.064172</ele>
        <time>2022-03-07T07:09:28.475Z</time>
      </trkpt>
      <trkpt lat="42.15363" lon="24.74745">
        <ele>200.982423</ele>
        <time>2022-03-07T07:09:30.473Z</time>
      </trkpt>
      <trkpt lat="42.15361" lon="24.74733">
        <ele>200.903541</ele>
        <time>2022-03-07T07:09:32.478Z</time>
      </trkpt>
      <trkpt lat="42.15359" lon="24.74718">
        <ele>200.80677</ele>
        <time>2022-03-07T07:09:35.478Z</time>
      </trkpt>
      <trkpt lat="42.15357" lon="24.74701">
        <ele>200.760059</ele>
        <time>2022-03-07T07:09:38.494Z</time>
      </trkpt>
      <trkpt lat="42.15354" lon="24.74684">
        <ele>200.71165</ele>
        <time>2022-03-07T07:09:41.493Z</time>
      </trkpt>
      <trkpt lat="42.15351" lon="24.74668">
        <ele>200.665955</ele>
        <time>2022-03-07T07:09:44.476Z</time>
      </trkpt>
      <trkpt lat="42.15348" lon="24.74653">
        <ele>200.622936</ele>
        <time>2022-03-07T07:09:47.493Z</time>
      </trkpt>
      <trkpt lat="42.15344" lon="24.74637">
        <ele>200.576779</ele>
        <time>2022-03-07T07:09:50.462Z</time>
      </trkpt>
      <trkpt lat="42.15336" lon="24.74622">
        <ele>200.527142</ele>
        <time>2022-03-07T07:09:53.493Z</time>
      </trkpt>
      <trkpt lat="42.15329" lon="24.74609">
        <ele>200.481062</ele>
        <time>2022-03-07T07:09:56.500Z</time>
      </trkpt>
      <trkpt lat="42.15324" lon="24.74595">
        <ele>200.440288</ele>
        <time>2022-03-07T07:09:59.464Z</time>
      </trkpt>
      <trkpt lat="42.1532" lon="24.74581">
        <ele>200.39759</ele>
        <time>2022-03-07T07:10:02.462Z</time>
      </trkpt>
      <trkpt lat="42.15317" lon="24.74569">
        <ele>200.362934</ele>
        <time>2022-03-07T07:10:05.475Z</time>
      </trkpt>
      <trkpt lat="42.15317" lon="24.74557">
        <ele>200.328737</ele>
        <time>2022-03-07T07:10:10.465Z</time>
      </trkpt>
      <trkpt lat="42.15313" lon="24.74545">
        <ele>200.29331</ele>
        <time>2022-03-07T07:10:14.475Z</time>
      </trkpt>
      <trkpt lat="42.1531" lon="24.74526">
        <ele>200.241779</ele>
        <time>2022-03-07T07:10:17.464Z</time>
      </trkpt>
      <trkpt lat="42.1531" lon="24.7451">
        <ele>200.195171</ele>
        <time>2022-03-07T07:10:20.449Z</time>
      </trkpt>
      <trkpt lat="42.15312" lon="24.7449">
        <ele>200.158691</ele>
        <time>2022-03-07T07:10:22.460Z</time>
      </trkpt>
      <trkpt lat="42.15312" lon="24.74477">
        <ele>200.575933</ele>
        <time>2022-03-07T07:10:24.501Z</time>
      </trkpt>
      <trkpt lat="42.1531" lon="24.7446">
        <ele>201.126041</ele>
        <time>2022-03-07T07:10:27.452Z</time>
      </trkpt>
      <trkpt lat="42.15307" lon="24.74443">
        <ele>201.680703</ele>
        <time>2022-03-07T07:10:30.451Z</time>
      </trkpt>
      <trkpt lat="42.15302" lon="24.74433">
        <ele>202.075207</ele>
        <time>2022-03-07T07:10:33.455Z</time>
      </trkpt>
      <trkpt lat="42.15298" lon="24.7442">
        <ele>202.527663</ele>
        <time>2022-03-07T07:10:38.471Z</time>
      </trkpt>
      <trkpt lat="42.15297" lon="24.74406">
        <ele>202.956818</ele>
        <time>2022-03-07T07:10:41.460Z</time>
      </trkpt>
      <trkpt lat="42.15293" lon="24.74392">
        <ele>203.43688</ele>
        <time>2022-03-07T07:10:44.456Z</time>
      </trkpt>
      <trkpt lat="42.15292" lon="24.74377">
        <ele>203.898419</ele>
        <time>2022-03-07T07:10:47.466Z</time>
      </trkpt>
      <trkpt lat="42.15291" lon="24.74363">
        <ele>204.376269</ele>
        <time>2022-03-07T07:10:50.464Z</time>
      </trkpt>
      <trkpt lat="42.1529" lon="24.74347">
        <ele>204.889417</ele>
        <time>2022-03-07T07:10:53.497Z</time>
      </trkpt>
      <trkpt lat="42.15288" lon="24.74331">
        <ele>205.399235</ele>
        <time>2022-03-07T07:10:56.466Z</time>
      </trkpt>
      <trkpt lat="42.15285" lon="24.74315">
        <ele>205.918338</ele>
        <time>2022-03-07T07:10:59.459Z</time>
      </trkpt>
      <trkpt lat="42.15284" lon="24.74299">
        <ele>206.438328</ele>
        <time>2022-03-07T07:11:02.458Z</time>
      </trkpt>
      <trkpt lat="42.15283" lon="24.74282">
        <ele>206.956095</ele>
        <time>2022-03-07T07:11:05.462Z</time>
      </trkpt>
      <trkpt lat="42.15283" lon="24.74267">
        <ele>207.446615</ele>
        <time>2022-03-07T07:11:08.455Z</time>
      </trkpt>
      <trkpt lat="42.15282" lon="24.7425">
        <ele>207.903762</ele>
        <time>2022-03-07T07:11:11.449Z</time>
      </trkpt>
      <trkpt lat="42.15281" lon="24.74238">
        <ele>208.022783</ele>
        <time>2022-03-07T07:11:13.463Z</time>
      </trkpt>
      <trkpt lat="42.15278" lon="24.74226">
        <ele>208.142332</ele>
        <time>2022-03-07T07:11:15.466Z</time>
      </trkpt>
      <trkpt lat="42.15276" lon="24.74214">
        <ele>208.26429</ele>
        <time>2022-03-07T07:11:17.472Z</time>
      </trkpt>
      <trkpt lat="42.15273" lon="24.74197">
        <ele>208.430273</ele>
        <time>2022-03-07T07:11:20.454Z</time>
      </trkpt>
      <trkpt lat="42.15273" lon="24.74184">
        <ele>208.553689</ele>
        <time>2022-03-07T07:11:22.463Z</time>
      </trkpt>
      <trkpt lat="42.15273" lon="24.7417">
        <ele>208.688525</ele>
        <time>2022-03-07T07:11:24.465Z</time>
      </trkpt>
      <trkpt lat="42.15273" lon="24.74155">
        <ele>208.823453</ele>
        <time>2022-03-07T07:11:26.484Z</time>
      </trkpt>
      <trkpt lat="42.15272" lon="24.74143">
        <ele>208.946184</ele>
        <time>2022-03-07T07:11:28.472Z</time>
      </trkpt>
      <trkpt lat="42.15271" lon="24.7413">
        <ele>209.063301</ele>
        <time>2022-03-07T07:11:30.443Z</time>
      </trkpt>
      <trkpt lat="42.15271" lon="24.74112">
        <ele>209.239292</ele>
        <time>2022-03-07T07:11:33.458Z</time>
      </trkpt>
      <trkpt lat="42.15272" lon="24.74096">
        <ele>209.391683</ele>
        <time>2022-03-07T07:11:36.452Z</time>
      </trkpt>
      <trkpt lat="42.15272" lon="24.74081">
        <ele>209.540862</ele>
        <time>2022-03-07T07:11:39.479Z</time>
      </trkpt>
      <trkpt lat="42.15271" lon="24.74068">
        <ele>209.656826</ele>
        <time>2022-03-07T07:11:41.462Z</time>
      </trkpt>
      <trkpt lat="42.15271" lon="24.74056">
        <ele>209.780349</ele>
        <time>2022-03-07T07:11:43.445Z</time>
      </trkpt>
      <trkpt lat="42.15269" lon="24.74043">
        <ele>209.902618</ele>
        <time>2022-03-07T07:11:45.474Z</time>
      </trkpt>
      <trkpt lat="42.15268" lon="24.7403">
        <ele>210.024094</ele>
        <time>2022-03-07T07:11:47.459Z</time>
      </trkpt>
      <trkpt lat="42.15268" lon="24.74013">
        <ele>210.184763</ele>
        <time>2022-03-07T07:11:50.437Z</time>
      </trkpt>
      <trkpt lat="42.15268" lon="24.73996">
        <ele>209.75897</ele>
        <time>2022-03-07T07:11:53.462Z</time>
      </trkpt>
      <trkpt lat="42.15267" lon="24.73984">
        <ele>209.43571</ele>
        <time>2022-03-07T07:11:55.515Z</time>
      </trkpt>
      <trkpt lat="42.15267" lon="24.73971">
        <ele>209.112831</ele>
        <time>2022-03-07T07:11:57.472Z</time>
      </trkpt>
      <trkpt lat="42.15267" lon="24.73954">
        <ele>208.654649</ele>
        <time>2022-03-07T07:12:00.466Z</time>
      </trkpt>
      <trkpt lat="42.15267" lon="24.73938">
        <ele>208.233207</ele>
        <time>2022-03-07T07:12:03.462Z</time>
      </trkpt>
      <trkpt lat="42.15267" lon="24.7392">
        <ele>207.783165</ele>
        <time>2022-03-07T07:12:06.508Z</time>
      </trkpt>
      <trkpt lat="42.15264" lon="24.73904">
        <ele>207.338521</ele>
        <time>2022-03-07T07:12:09.459Z</time>
      </trkpt>
      <trkpt lat="42.15262" lon="24.73892">
        <ele>207.021099</ele>
        <time>2022-03-07T07:12:11.464Z</time>
      </trkpt>
      <trkpt lat="42.15264" lon="24.73876">
        <ele>206.616038</ele>
        <time>2022-03-07T07:12:14.460Z</time>
      </trkpt>
      <trkpt lat="42.15265" lon="24.73862">
        <ele>206.246415</ele>
        <time>2022-03-07T07:12:18.453Z</time>
      </trkpt>
      <trkpt lat="42.15258" lon="24.73852">
        <ele>205.89533</ele>
        <time>2022-03-07T07:12:22.446Z</time>
      </trkpt>
      <trkpt lat="42.15256" lon="24.73834">
        <ele>205.419274</ele>
        <time>2022-03-07T07:12:25.469Z</time>
      </trkpt>
      <trkpt lat="42.15263" lon="24.7382">
        <ele>204.98768</ele>
        <time>2022-03-07T07:12:27.473Z</time>
      </trkpt>
      <trkpt lat="42.15269" lon="24.73807">
        <ele>204.566741</ele>
        <time>2022-03-07T07:12:30.462Z</time>
      </trkpt>
      <trkpt lat="42.15271" lon="24.73792">
        <ele>204.174071</ele>
        <time>2022-03-07T07:12:34.481Z</time>
      </trkpt>
      <trkpt lat="42.15272" lon="24.73776">
        <ele>203.935837</ele>
        <time>2022-03-07T07:12:38.469Z</time>
      </trkpt>
      <trkpt lat="42.15272" lon="24.73764">
        <ele>204.091506</ele>
        <time>2022-03-07T07:12:41.458Z</time>
      </trkpt>
      <trkpt lat="42.15271" lon="24.7375">
        <ele>204.263715</ele>
        <time>2022-03-07T07:12:44.473Z</time>
      </trkpt>
      <trkpt lat="42.15271" lon="24.73735">
        <ele>204.457437</ele>
        <time>2022-03-07T07:12:47.462Z</time>
      </trkpt>
      <trkpt lat="42.15271" lon="24.73719">
        <ele>204.665112</ele>
        <time>2022-03-07T07:12:50.471Z</time>
      </trkpt>
      <trkpt lat="42.1527" lon="24.73702">
        <ele>204.87423</ele>
        <time>2022-03-07T07:12:53.469Z</time>
      </trkpt>
      <trkpt lat="42.1527" lon="24.73687">
        <ele>205.071713</ele>
        <time>2022-03-07T07:12:56.455Z</time>
      </trkpt>
      <trkpt lat="42.15269" lon="24.73671">
        <ele>205.271203</ele>
        <time>2022-03-07T07:12:59.454Z</time>
      </trkpt>
      <trkpt lat="42.1527" lon="24.73656">
        <ele>205.470072</ele>
        <time>2022-03-07T07:13:02.462Z</time>
      </trkpt>
      <trkpt lat="42.15271" lon="24.7364">
        <ele>205.668152</ele>
        <time>2022-03-07T07:13:05.491Z</time>
      </trkpt>
      <trkpt lat="42.1527" lon="24.73624">
        <ele>205.873336</ele>
        <time>2022-03-07T07:13:08.517Z</time>
      </trkpt>
      <trkpt lat="42.1527" lon="24.73609">
        <ele>206.068634</ele>
        <time>2022-03-07T07:13:11.482Z</time>
      </trkpt>
      <trkpt lat="42.1527" lon="24.73595">
        <ele>206.249751</ele>
        <time>2022-03-07T07:13:14.452Z</time>
      </trkpt>
      <trkpt lat="42.15271" lon="24.73579">
        <ele>206.453369</ele>
        <time>2022-03-07T07:13:17.456Z</time>
      </trkpt>
      <trkpt lat="42.15272" lon="24.73562">
        <ele>206.668791</ele>
        <time>2022-03-07T07:13:20.469Z</time>
      </trkpt>
      <trkpt lat="42.15272" lon="24.73549">
        <ele>206.828045</ele>
        <time>2022-03-07T07:13:22.464Z</time>
      </trkpt>
      <trkpt lat="42.1527" lon="24.73537">
        <ele>206.980464</ele>
        <time>2022-03-07T07:13:24.467Z</time>
      </trkpt>
      <trkpt lat="42.15271" lon="24.73525">
        <ele>207.108679</ele>
        <time>2022-03-07T07:13:26.462Z</time>
      </trkpt>
      <trkpt lat="42.1527" lon="24.73507">
        <ele>207.290908</ele>
        <time>2022-03-07T07:13:29.507Z</time>
      </trkpt>
      <trkpt lat="42.15269" lon="24.7349">
        <ele>207.467041</ele>
        <time>2022-03-07T07:13:32.464Z</time>
      </trkpt>
      <trkpt lat="42.15268" lon="24.73473">
        <ele>207.646023</ele>
        <time>2022-03-07T07:13:35.443Z</time>
      </trkpt>
      <trkpt lat="42.15267" lon="24.73456">
        <ele>207.820228</ele>
        <time>2022-03-07T07:13:38.463Z</time>
      </trkpt>
      <trkpt lat="42.15266" lon="24.73441">
        <ele>207.976782</ele>
        <time>2022-03-07T07:13:41.466Z</time>
      </trkpt>
      <trkpt lat="42.15266" lon="24.73428">
        <ele>208.114577</ele>
        <time>2022-03-07T07:13:44.451Z</time>
      </trkpt>
      <trkpt lat="42.15266" lon="24.73412">
        <ele>208.27618</ele>
        <time>2022-03-07T07:13:47.457Z</time>
      </trkpt>
      <trkpt lat="42.15266" lon="24.73396">
        <ele>208.440551</ele>
        <time>2022-03-07T07:13:50.475Z</time>
      </trkpt>
      <trkpt lat="42.15267" lon="24.73383">
        <ele>208.582688</ele>
        <time>2022-03-07T07:13:52.458Z</time>
      </trkpt>
      <trkpt lat="42.15268" lon="24.73368">
        <ele>208.735377</ele>
        <time>2022-03-07T07:13:54.491Z</time>
      </trkpt>
      <trkpt lat="42.15269" lon="24.73355">
        <ele>208.866194</ele>
        <time>2022-03-07T07:13:56.467Z</time>
      </trkpt>
      <trkpt lat="42.1527" lon="24.73338">
        <ele>209.043463</ele>
        <time>2022-03-07T07:13:59.458Z</time>
      </trkpt>
      <trkpt lat="42.1527" lon="24.73321">
        <ele>209.227548</ele>
        <time>2022-03-07T07:14:02.485Z</time>
      </trkpt>
      <trkpt lat="42.1527" lon="24.73308">
        <ele>209.352603</ele>
        <time>2022-03-07T07:14:04.446Z</time>
      </trkpt>
      <trkpt lat="42.15271" lon="24.73296">
        <ele>209.476656</ele>
        <time>2022-03-07T07:14:06.454Z</time>
      </trkpt>
      <trkpt lat="42.15272" lon="24.73284">
        <ele>209.446185</ele>
        <time>2022-03-07T07:14:08.491Z</time>
      </trkpt>
      <trkpt lat="42.15272" lon="24.73271">
        <ele>209.415015</ele>
        <time>2022-03-07T07:14:10.463Z</time>
      </trkpt>
      <trkpt lat="42.15272" lon="24.73258">
        <ele>209.38409</ele>
        <time>2022-03-07T07:14:12.464Z</time>
      </trkpt>
      <trkpt lat="42.15272" lon="24.73246">
        <ele>209.353423</ele>
        <time>2022-03-07T07:14:14.467Z</time>
      </trkpt>
      <trkpt lat="42.15272" lon="24.73233">
        <ele>209.321518</ele>
        <time>2022-03-07T07:14:16.470Z</time>
      </trkpt>
      <trkpt lat="42.15273" lon="24.73219">
        <ele>209.288798</ele>
        <time>2022-03-07T07:14:18.464Z</time>
      </trkpt>
      <trkpt lat="42.15273" lon="24.73207">
        <ele>209.257654</ele>
        <time>2022-03-07T07:14:20.448Z</time>
      </trkpt>
      <trkpt lat="42.15273" lon="24.73194">
        <ele>209.226496</ele>
        <time>2022-03-07T07:14:22.463Z</time>
      </trkpt>
      <trkpt lat="42.15273" lon="24.73182">
        <ele>209.196045</ele>
        <time>2022-03-07T07:14:24.478Z</time>
      </trkpt>
      <trkpt lat="42.15272" lon="24.73169">
        <ele>209.165882</ele>
        <time>2022-03-07T07:14:26.530Z</time>
      </trkpt>
      <trkpt lat="42.15273" lon="24.73157">
        <ele>209.135474</ele>
        <time>2022-03-07T07:14:28.458Z</time>
      </trkpt>
      <trkpt lat="42.15273" lon="24.73144">
        <ele>209.104823</ele>
        <time>2022-03-07T07:14:30.454Z</time>
      </trkpt>
      <trkpt lat="42.15273" lon="24.73128">
        <ele>209.063377</ele>
        <time>2022-03-07T07:14:33.472Z</time>
      </trkpt>
      <trkpt lat="42.15273" lon="24.73115">
        <ele>209.031743</ele>
        <time>2022-03-07T07:14:36.463Z</time>
      </trkpt>
      <trkpt lat="42.15268" lon="24.731">
        <ele>208.991939</ele>
        <time>2022-03-07T07:14:39.472Z</time>
      </trkpt>
      <trkpt lat="42.15263" lon="24.73087">
        <ele>208.957167</ele>
        <time>2022-03-07T07:14:41.469Z</time>
      </trkpt>
      <trkpt lat="42.15261" lon="24.73075">
        <ele>208.926767</ele>
        <time>2022-03-07T07:14:43.465Z</time>
      </trkpt>
      <trkpt lat="42.15262" lon="24.73062">
        <ele>208.893378</ele>
        <time>2022-03-07T07:14:45.486Z</time>
      </trkpt>
      <trkpt lat="42.15263" lon="24.73048">
        <ele>208.914406</ele>
        <time>2022-03-07T07:14:47.463Z</time>
      </trkpt>
      <trkpt lat="42.15266" lon="24.73032">
        <ele>208.97318</ele>
        <time>2022-03-07T07:14:50.458Z</time>
      </trkpt>
      <trkpt lat="42.15268" lon="24.73015">
        <ele>209.029671</ele>
        <time>2022-03-07T07:14:53.450Z</time>
      </trkpt>
      <trkpt lat="42.15268" lon="24.72999">
        <ele>209.087552</ele>
        <time>2022-03-07T07:14:56.505Z</time>
      </trkpt>
      <trkpt lat="42.1527" lon="24.72986">
        <ele>209.130903</ele>
        <time>2022-03-07T07:14:59.469Z</time>
      </trkpt>
      <trkpt lat="42.15268" lon="24.72973">
        <ele>209.176149</ele>
        <time>2022-03-07T07:15:12.470Z</time>
      </trkpt>
      <trkpt lat="42.15265" lon="24.72959">
        <ele>209.226212</ele>
        <time>2022-03-07T07:15:16.460Z</time>
      </trkpt>
      <trkpt lat="42.15255" lon="24.72954">
        <ele>209.27438</ele>
        <time>2022-03-07T07:15:19.527Z</time>
      </trkpt>
      <trkpt lat="42.15244" lon="24.72951">
        <ele>209.326503</ele>
        <time>2022-03-07T07:15:22.455Z</time>
      </trkpt>
      <trkpt lat="42.15234" lon="24.72955">
        <ele>209.378107</ele>
        <time>2022-03-07T07:15:25.463Z</time>
      </trkpt>
      <trkpt lat="42.15226" lon="24.72963">
        <ele>209.423975</ele>
        <time>2022-03-07T07:15:28.454Z</time>
      </trkpt>
      <trkpt lat="42.15221" lon="24.72974">
        <ele>209.467406</ele>
        <time>2022-03-07T07:15:31.466Z</time>
      </trkpt>
      <trkpt lat="42.1522" lon="24.72986">
        <ele>209.509661</ele>
        <time>2022-03-07T07:15:34.534Z</time>
      </trkpt>
      <trkpt lat="42.15222" lon="24.73001">
        <ele>209.55928</ele>
        <time>2022-03-07T07:15:38.462Z</time>
      </trkpt>
      <trkpt lat="42.15222" lon="24.73014">
        <ele>209.605091</ele>
        <time>2022-03-07T07:15:42.448Z</time>
      </trkpt>
      <trkpt lat="42.15221" lon="24.73028">
        <ele>209.653111</ele>
        <time>2022-03-07T07:15:46.499Z</time>
      </trkpt>
      <trkpt lat="42.1522" lon="24.73042">
        <ele>209.703088</ele>
        <time>2022-03-07T07:15:50.463Z</time>
      </trkpt>
      <trkpt lat="42.15218" lon="24.73057">
        <ele>209.820457</ele>
        <time>2022-03-07T07:15:54.515Z</time>
      </trkpt>
      <trkpt lat="42.15218" lon="24.73069">
        <ele>209.935963</ele>
        <time>2022-03-07T07:15:57.466Z</time>
      </trkpt>
      <trkpt lat="42.15217" lon="24.73085">
        <ele>210.079404</ele>
        <time>2022-03-07T07:16:01.479Z</time>
      </trkpt>
      <trkpt lat="42.15221" lon="24.73097">
        <ele>210.205464</ele>
        <time>2022-03-07T07:16:05.480Z</time>
      </trkpt>
      <trkpt lat="42.15233" lon="24.73098">
        <ele>210.355931</ele>
        <time>2022-03-07T07:16:09.494Z</time>
      </trkpt>
      <trkpt lat="42.15243" lon="24.73099">
        <ele>210.489904</ele>
        <time>2022-03-07T07:16:13.468Z</time>
      </trkpt>
      <trkpt lat="42.15254" lon="24.731">
        <ele>210.626137</ele>
        <time>2022-03-07T07:16:18.494Z</time>
      </trkpt>
      <trkpt lat="42.15265" lon="24.731">
        <ele>210.766119</ele>
        <time>2022-03-07T07:16:22.456Z</time>
      </trkpt>
      <trkpt lat="42.15274" lon="24.731">
        <ele>210.885701</ele>
        <time>2022-03-07T07:16:25.518Z</time>
      </trkpt>
      <trkpt lat="42.15286" lon="24.73099">
        <ele>211.037225</ele>
        <time>2022-03-07T07:16:29.461Z</time>
      </trkpt>
      <trkpt lat="42.15295" lon="24.73099">
        <ele>211.155546</ele>
        <time>2022-03-07T07:16:32.477Z</time>
      </trkpt>
      <trkpt lat="42.15305" lon="24.73099">
        <ele>211.273856</ele>
        <time>2022-03-07T07:16:35.484Z</time>
      </trkpt>
      <trkpt lat="42.15314" lon="24.731">
        <ele>211.394838</ele>
        <time>2022-03-07T07:16:38.474Z</time>
      </trkpt>
      <trkpt lat="42.15324" lon="24.731">
        <ele>211.518247</ele>
        <time>2022-03-07T07:16:41.460Z</time>
      </trkpt>
      <trkpt lat="42.15333" lon="24.731">
        <ele>211.635466</ele>
        <time>2022-03-07T07:16:44.463Z</time>
      </trkpt>
      <trkpt lat="42.15343" lon="24.73101">
        <ele>211.758918</ele>
        <time>2022-03-07T07:16:47.499Z</time>
      </trkpt>
      <trkpt lat="42.15353" lon="24.73101">
        <ele>211.889949</ele>
        <time>2022-03-07T07:16:50.456Z</time>
      </trkpt>
      <trkpt lat="42.15363" lon="24.73101">
        <ele>212.002005</ele>
        <time>2022-03-07T07:16:53.473Z</time>
      </trkpt>
      <trkpt lat="42.15373" lon="24.73101">
        <ele>211.933404</ele>
        <time>2022-03-07T07:16:56.456Z</time>
      </trkpt>
      <trkpt lat="42.15383" lon="24.73101">
        <ele>211.865493</ele>
        <time>2022-03-07T07:16:59.489Z</time>
      </trkpt>
      <trkpt lat="42.15393" lon="24.73101">
        <ele>211.796196</ele>
        <time>2022-03-07T07:17:02.461Z</time>
      </trkpt>
      <trkpt lat="42.15403" lon="24.73101">
        <ele>211.72482</ele>
        <time>2022-03-07T07:17:05.457Z</time>
      </trkpt>
      <trkpt lat="42.15413" lon="24.73101">
        <ele>211.652708</ele>
        <time>2022-03-07T07:17:08.481Z</time>
      </trkpt>
      <trkpt lat="42.15424" lon="24.73101">
        <ele>211.581327</ele>
        <time>2022-03-07T07:17:11.481Z</time>
      </trkpt>
      <trkpt lat="42.15434" lon="24.73101">
        <ele>211.507153</ele>
        <time>2022-03-07T07:17:14.455Z</time>
      </trkpt>
      <trkpt lat="42.15445" lon="24.73102">
        <ele>211.433</ele>
        <time>2022-03-07T07:17:17.476Z</time>
      </trkpt>
      <trkpt lat="42.15457" lon="24.73102">
        <ele>211.351924</ele>
        <time>2022-03-07T07:17:20.463Z</time>
      </trkpt>
      <trkpt lat="42.15468" lon="24.73102">
        <ele>211.277057</ele>
        <time>2022-03-07T07:17:23.466Z</time>
      </trkpt>
      <trkpt lat="42.15479" lon="24.73102">
        <ele>211.198754</ele>
        <time>2022-03-07T07:17:26.465Z</time>
      </trkpt>
      <trkpt lat="42.15491" lon="24.73102">
        <ele>211.114214</ele>
        <time>2022-03-07T07:17:29.467Z</time>
      </trkpt>
      <trkpt lat="42.155" lon="24.73103">
        <ele>211.049639</ele>
        <time>2022-03-07T07:17:32.497Z</time>
      </trkpt>
      <trkpt lat="42.1551" lon="24.73102">
        <ele>210.985176</ele>
        <time>2022-03-07T07:17:35.437Z</time>
      </trkpt>
      <trkpt lat="42.15521" lon="24.73102">
        <ele>210.906098</ele>
        <time>2022-03-07T07:17:39.479Z</time>
      </trkpt>
      <trkpt lat="42.15531" lon="24.73102">
        <ele>210.839478</ele>
        <time>2022-03-07T07:17:42.492Z</time>
      </trkpt>
      <trkpt lat="42.15541" lon="24.73101">
        <ele>210.769862</ele>
        <time>2022-03-07T07:17:45.476Z</time>
      </trkpt>
      <trkpt lat="42.15551" lon="24.731">
        <ele>210.684776</ele>
        <time>2022-03-07T07:17:48.482Z</time>
      </trkpt>
      <trkpt lat="42.15559" lon="24.73095">
        <ele>210.60838</ele>
        <time>2022-03-07T07:17:51.473Z</time>
      </trkpt>
      <trkpt lat="42.15569" lon="24.73093">
        <ele>210.528697</ele>
        <time>2022-03-07T07:17:54.502Z</time>
      </trkpt>
      <trkpt lat="42.15581" lon="24.73093">
        <ele>210.427709</ele>
        <time>2022-03-07T07:17:57.496Z</time>
      </trkpt>
      <trkpt lat="42.15593" lon="24.73092">
        <ele>210.321526</ele>
        <time>2022-03-07T07:18:00.453Z</time>
      </trkpt>
      <trkpt lat="42.15603" lon="24.73091">
        <ele>210.238024</ele>
        <time>2022-03-07T07:18:02.463Z</time>
      </trkpt>
      <trkpt lat="42.15613" lon="24.7309">
        <ele>210.156201</ele>
        <time>2022-03-07T07:18:04.465Z</time>
      </trkpt>
      <trkpt lat="42.15623" lon="24.73089">
        <ele>210.071093</ele>
        <time>2022-03-07T07:18:06.473Z</time>
      </trkpt>
      <trkpt lat="42.15632" lon="24.73089">
        <ele>209.994388</ele>
        <time>2022-03-07T07:18:08.467Z</time>
      </trkpt>
      <trkpt lat="42.15642" lon="24.73088">
        <ele>209.907527</ele>
        <time>2022-03-07T07:18:12.465Z</time>
      </trkpt>
      <trkpt lat="42.15652" lon="24.73086">
        <ele>209.822921</ele>
        <time>2022-03-07T07:18:18.458Z</time>
      </trkpt>
      <trkpt lat="42.15662" lon="24.73088">
        <ele>209.743401</ele>
        <time>2022-03-07T07:18:22.488Z</time>
      </trkpt>
      <trkpt lat="42.15671" lon="24.73087">
        <ele>209.663298</ele>
        <time>2022-03-07T07:18:25.473Z</time>
      </trkpt>
      <trkpt lat="42.15682" lon="24.73085">
        <ele>209.57172</ele>
        <time>2022-03-07T07:18:28.512Z</time>
      </trkpt>
      <trkpt lat="42.15692" lon="24.73084">
        <ele>209.486578</ele>
        <time>2022-03-07T07:18:31.461Z</time>
      </trkpt>
      <trkpt lat="42.15704" lon="24.73083">
        <ele>209.387479</ele>
        <time>2022-03-07T07:18:34.474Z</time>
      </trkpt>
      <trkpt lat="42.15717" lon="24.73082">
        <ele>209.280486</ele>
        <time>2022-03-07T07:18:37.501Z</time>
      </trkpt>
      <trkpt lat="42.15726" lon="24.7308">
        <ele>209.236863</ele>
        <time>2022-03-07T07:18:39.498Z</time>
      </trkpt>
      <trkpt lat="42.15738" lon="24.7308">
        <ele>209.214567</ele>
        <time>2022-03-07T07:18:42.471Z</time>
      </trkpt>
      <trkpt lat="42.15748" lon="24.7308">
        <ele>209.195232</ele>
        <time>2022-03-07T07:18:45.472Z</time>
      </trkpt>
      <trkpt lat="42.1576" lon="24.73081">
        <ele>209.174591</ele>
        <time>2022-03-07T07:18:48.470Z</time>
      </trkpt>
      <trkpt lat="42.15771" lon="24.73081">
        <ele>209.153582</ele>
        <time>2022-03-07T07:18:52.473Z</time>
      </trkpt>
      <trkpt lat="42.15781" lon="24.73078">
        <ele>209.135125</ele>
        <time>2022-03-07T07:18:58.451Z</time>
      </trkpt>
      <trkpt lat="42.15803" lon="24.73059">
        <ele>209.087399</ele>
        <time>2022-03-07T07:19:31.474Z</time>
      </trkpt>
      <trkpt lat="42.15812" lon="24.73059">
        <ele>209.070089</ele>
        <time>2022-03-07T07:19:34.468Z</time>
      </trkpt>
      <trkpt lat="42.15822" lon="24.73062">
        <ele>209.05042</ele>
        <time>2022-03-07T07:19:37.471Z</time>
      </trkpt>
      <trkpt lat="42.15834" lon="24.7306">
        <ele>209.029503</ele>
        <time>2022-03-07T07:19:40.466Z</time>
      </trkpt>
      <trkpt lat="42.15846" lon="24.73057">
        <ele>209.005873</ele>
        <time>2022-03-07T07:19:43.462Z</time>
      </trkpt>
      <trkpt lat="42.15858" lon="24.73054">
        <ele>208.983922</ele>
        <time>2022-03-07T07:19:46.464Z</time>
      </trkpt>
      <trkpt lat="42.15871" lon="24.73051">
        <ele>208.959665</ele>
        <time>2022-03-07T07:19:49.473Z</time>
      </trkpt>
      <trkpt lat="42.15883" lon="24.73048">
        <ele>208.936758</ele>
        <time>2022-03-07T07:19:52.510Z</time>
      </trkpt>
      <trkpt lat="42.15893" lon="24.73045">
        <ele>208.919273</ele>
        <time>2022-03-07T07:19:54.463Z</time>
      </trkpt>
      <trkpt lat="42.15902" lon="24.73043">
        <ele>208.949047</ele>
        <time>2022-03-07T07:19:56.445Z</time>
      </trkpt>
      <trkpt lat="42.15912" lon="24.7304">
        <ele>208.992604</ele>
        <time>2022-03-07T07:19:58.475Z</time>
      </trkpt>
      <trkpt lat="42.15922" lon="24.73038">
        <ele>209.037726</ele>
        <time>2022-03-07T07:20:00.466Z</time>
      </trkpt>
      <trkpt lat="42.15935" lon="24.73035">
        <ele>209.095479</ele>
        <time>2022-03-07T07:20:03.494Z</time>
      </trkpt>
      <trkpt lat="42.15945" lon="24.73032">
        <ele>209.140125</ele>
        <time>2022-03-07T07:20:05.463Z</time>
      </trkpt>
      <trkpt lat="42.15957" lon="24.73027">
        <ele>209.198165</ele>
        <time>2022-03-07T07:20:08.479Z</time>
      </trkpt>
      <trkpt lat="42.15967" lon="24.73025">
        <ele>209.240392</ele>
        <time>2022-03-07T07:20:10.481Z</time>
      </trkpt>
      <trkpt lat="42.15979" lon="24.73021">
        <ele>209.298038</ele>
        <time>2022-03-07T07:20:13.473Z</time>
      </trkpt>
      <trkpt lat="42.15992" lon="24.73017">
        <ele>209.354467</ele>
        <time>2022-03-07T07:20:16.459Z</time>
      </trkpt>
      <trkpt lat="42.16003" lon="24.73013">
        <ele>209.407389</ele>
        <time>2022-03-07T07:20:19.472Z</time>
      </trkpt>
      <trkpt lat="42.16016" lon="24.73008">
        <ele>209.463933</ele>
        <time>2022-03-07T07:20:22.476Z</time>
      </trkpt>
      <trkpt lat="42.16028" lon="24.73003">
        <ele>209.520691</ele>
        <time>2022-03-07T07:20:25.463Z</time>
      </trkpt>
      <trkpt lat="42.16041" lon="24.72999">
        <ele>209.579487</ele>
        <time>2022-03-07T07:20:28.525Z</time>
      </trkpt>
      <trkpt lat="42.16053" lon="24.72997">
        <ele>209.633752</ele>
        <time>2022-03-07T07:20:31.468Z</time>
      </trkpt>
      <trkpt lat="42.16065" lon="24.72993">
        <ele>209.687518</ele>
        <time>2022-03-07T07:20:34.455Z</time>
      </trkpt>
      <trkpt lat="42.16076" lon="24.72989">
        <ele>209.715067</ele>
        <time>2022-03-07T07:20:37.519Z</time>
      </trkpt>
      <trkpt lat="42.16086" lon="24.72985">
        <ele>209.723</ele>
        <time>2022-03-07T07:20:40.460Z</time>
      </trkpt>
      <trkpt lat="42.16096" lon="24.72982">
        <ele>209.730818</ele>
        <time>2022-03-07T07:20:43.454Z</time>
      </trkpt>
      <trkpt lat="42.16107" lon="24.72977">
        <ele>209.739389</ele>
        <time>2022-03-07T07:20:46.477Z</time>
      </trkpt>
      <trkpt lat="42.16119" lon="24.72971">
        <ele>209.748626</ele>
        <time>2022-03-07T07:20:49.483Z</time>
      </trkpt>
      <trkpt lat="42.16127" lon="24.72963">
        <ele>209.756097</ele>
        <time>2022-03-07T07:20:52.452Z</time>
      </trkpt>
      <trkpt lat="42.16133" lon="24.72954">
        <ele>209.762898</ele>
        <time>2022-03-07T07:20:55.506Z</time>
      </trkpt>
      <trkpt lat="42.16138" lon="24.72943">
        <ele>209.769854</ele>
        <time>2022-03-07T07:20:59.473Z</time>
      </trkpt>
      <trkpt lat="42.16157" lon="24.72956">
        <ele>209.785678</ele>
        <time>2022-03-07T07:22:17.500Z</time>
      </trkpt>
      <trkpt lat="42.16168" lon="24.72956">
        <ele>209.794016</ele>
        <time>2022-03-07T07:22:20.469Z</time>
      </trkpt>
      <trkpt lat="42.16177" lon="24.72947">
        <ele>209.802539</ele>
        <time>2022-03-07T07:22:23.479Z</time>
      </trkpt>
      <trkpt lat="42.16186" lon="24.72934">
        <ele>209.812392</ele>
        <time>2022-03-07T07:22:26.463Z</time>
      </trkpt>
      <trkpt lat="42.16193" lon="24.72923">
        <ele>209.819903</ele>
        <time>2022-03-07T07:22:28.463Z</time>
      </trkpt>
      <trkpt lat="42.162" lon="24.72913">
        <ele>209.827986</ele>
        <time>2022-03-07T07:22:30.503Z</time>
      </trkpt>
      <trkpt lat="42.16209" lon="24.72902">
        <ele>209.836423</ele>
        <time>2022-03-07T07:22:32.475Z</time>
      </trkpt>
      <trkpt lat="42.16216" lon="24.72892">
        <ele>209.843056</ele>
        <time>2022-03-07T07:22:34.464Z</time>
      </trkpt>
      <trkpt lat="42.16223" lon="24.72881">
        <ele>209.743899</ele>
        <time>2022-03-07T07:22:36.486Z</time>
      </trkpt>
      <trkpt lat="42.16232" lon="24.72869">
        <ele>209.631695</ele>
        <time>2022-03-07T07:22:38.477Z</time>
      </trkpt>
      <trkpt lat="42.1624" lon="24.72857">
        <ele>209.520841</ele>
        <time>2022-03-07T07:22:40.503Z</time>
      </trkpt>
      <trkpt lat="42.16248" lon="24.72847">
        <ele>209.422039</ele>
        <time>2022-03-07T07:22:42.507Z</time>
      </trkpt>
      <trkpt lat="42.16255" lon="24.72837">
        <ele>209.329335</ele>
        <time>2022-03-07T07:22:44.477Z</time>
      </trkpt>
      <trkpt lat="42.16262" lon="24.72826">
        <ele>209.231165</ele>
        <time>2022-03-07T07:22:46.459Z</time>
      </trkpt>
      <trkpt lat="42.1627" lon="24.72816">
        <ele>209.133647</ele>
        <time>2022-03-07T07:22:48.469Z</time>
      </trkpt>
      <trkpt lat="42.16277" lon="24.72806">
        <ele>209.039822</ele>
        <time>2022-03-07T07:22:50.477Z</time>
      </trkpt>
      <trkpt lat="42.16285" lon="24.72796">
        <ele>208.938267</ele>
        <time>2022-03-07T07:22:52.474Z</time>
      </trkpt>
      <trkpt lat="42.16293" lon="24.72784">
        <ele>208.826291</ele>
        <time>2022-03-07T07:22:54.466Z</time>
      </trkpt>
      <trkpt lat="42.16301" lon="24.72773">
        <ele>208.727135</ele>
        <time>2022-03-07T07:22:56.471Z</time>
      </trkpt>
      <trkpt lat="42.16307" lon="24.72762">
        <ele>208.630667</ele>
        <time>2022-03-07T07:22:58.502Z</time>
      </trkpt>
      <trkpt lat="42.16315" lon="24.72751">
        <ele>208.530516</ele>
        <time>2022-03-07T07:23:00.483Z</time>
      </trkpt>
      <trkpt lat="42.16323" lon="24.7274">
        <ele>208.422081</ele>
        <time>2022-03-07T07:23:02.509Z</time>
      </trkpt>
      <trkpt lat="42.16332" lon="24.7273">
        <ele>208.316509</ele>
        <time>2022-03-07T07:23:04.470Z</time>
      </trkpt>
      <trkpt lat="42.16339" lon="24.72721">
        <ele>208.224069</ele>
        <time>2022-03-07T07:23:06.490Z</time>
      </trkpt>
      <trkpt lat="42.16348" lon="24.72709">
        <ele>208.499369</ele>
        <time>2022-03-07T07:23:09.503Z</time>
      </trkpt>
      <trkpt lat="42.16357" lon="24.72698">
        <ele>208.857918</ele>
        <time>2022-03-07T07:23:12.455Z</time>
      </trkpt>
      <trkpt lat="42.16365" lon="24.72687">
        <ele>209.209384</ele>
        <time>2022-03-07T07:23:15.460Z</time>
      </trkpt>
      <trkpt lat="42.16373" lon="24.72676">
        <ele>209.550153</ele>
        <time>2022-03-07T07:23:18.476Z</time>
      </trkpt>
      <trkpt lat="42.16381" lon="24.72663">
        <ele>209.940354</ele>
        <time>2022-03-07T07:23:21.475Z</time>
      </trkpt>
      <trkpt lat="42.16389" lon="24.72651">
        <ele>210.31363</ele>
        <time>2022-03-07T07:23:24.476Z</time>
      </trkpt>
      <trkpt lat="42.16397" lon="24.72641">
        <ele>210.627715</ele>
        <time>2022-03-07T07:23:27.474Z</time>
      </trkpt>
      <trkpt lat="42.16404" lon="24.7263">
        <ele>210.973312</ele>
        <time>2022-03-07T07:23:30.474Z</time>
      </trkpt>
      <trkpt lat="42.16411" lon="24.72619">
        <ele>211.282523</ele>
        <time>2022-03-07T07:23:33.477Z</time>
      </trkpt>
      <trkpt lat="42.16418" lon="24.7261">
        <ele>211.570337</ele>
        <time>2022-03-07T07:23:36.470Z</time>
      </trkpt>
      <trkpt lat="42.16425" lon="24.726">
        <ele>211.885274</ele>
        <time>2022-03-07T07:23:39.492Z</time>
      </trkpt>
      <trkpt lat="42.16432" lon="24.72589">
        <ele>212.232916</ele>
        <time>2022-03-07T07:23:42.511Z</time>
      </trkpt>
      <trkpt lat="42.1644" lon="24.72578">
        <ele>212.573155</ele>
        <time>2022-03-07T07:23:45.487Z</time>
      </trkpt>
      <trkpt lat="42.16448" lon="24.72567">
        <ele>212.915012</ele>
        <time>2022-03-07T07:23:48.478Z</time>
      </trkpt>
      <trkpt lat="42.16455" lon="24.72556">
        <ele>213.247298</ele>
        <time>2022-03-07T07:23:51.458Z</time>
      </trkpt>
      <trkpt lat="42.16464" lon="24.72545">
        <ele>213.614923</ele>
        <time>2022-03-07T07:23:54.493Z</time>
      </trkpt>
      <trkpt lat="42.16472" lon="24.72534">
        <ele>213.760937</ele>
        <time>2022-03-07T07:23:57.477Z</time>
      </trkpt>
      <trkpt lat="42.16481" lon="24.72524">
        <ele>213.870005</ele>
        <time>2022-03-07T07:24:00.474Z</time>
      </trkpt>
      <trkpt lat="42.16489" lon="24.72513">
        <ele>213.978205</ele>
        <time>2022-03-07T07:24:03.507Z</time>
      </trkpt>
      <trkpt lat="42.16497" lon="24.72503">
        <ele>214.081487</ele>
        <time>2022-03-07T07:24:06.465Z</time>
      </trkpt>
      <trkpt lat="42.16504" lon="24.72492">
        <ele>214.183406</ele>
        <time>2022-03-07T07:24:09.479Z</time>
      </trkpt>
      <trkpt lat="42.16513" lon="24.72484">
        <ele>214.280652</ele>
        <time>2022-03-07T07:24:12.503Z</time>
      </trkpt>
      <trkpt lat="42.1652" lon="24.72476">
        <ele>214.372114</ele>
        <time>2022-03-07T07:24:15.470Z</time>
      </trkpt>
      <trkpt lat="42.16528" lon="24.72466">
        <ele>214.471202</ele>
        <time>2022-03-07T07:24:18.477Z</time>
      </trkpt>
      <trkpt lat="42.16537" lon="24.72456">
        <ele>214.577481</ele>
        <time>2022-03-07T07:24:21.449Z</time>
      </trkpt>
      <trkpt lat="42.16545" lon="24.72446">
        <ele>214.67825</ele>
        <time>2022-03-07T07:24:24.475Z</time>
      </trkpt>
      <trkpt lat="42.16554" lon="24.72434">
        <ele>214.800106</ele>
        <time>2022-03-07T07:24:27.511Z</time>
      </trkpt>
      <trkpt lat="42.16565" lon="24.72423">
        <ele>214.928332</ele>
        <time>2022-03-07T07:24:30.473Z</time>
      </trkpt>
      <trkpt lat="42.16573" lon="24.72414">
        <ele>215.029122</ele>
        <time>2022-03-07T07:24:32.462Z</time>
      </trkpt>
      <trkpt lat="42.16581" lon="24.72406">
        <ele>215.120584</ele>
        <time>2022-03-07T07:24:34.516Z</time>
      </trkpt>
      <trkpt lat="42.16591" lon="24.72393">
        <ele>215.246865</ele>
        <time>2022-03-07T07:24:37.479Z</time>
      </trkpt>
      <trkpt lat="42.16599" lon="24.72384">
        <ele>215.347572</ele>
        <time>2022-03-07T07:24:39.483Z</time>
      </trkpt>
      <trkpt lat="42.16606" lon="24.72374">
        <ele>215.17483</ele>
        <time>2022-03-07T07:24:41.460Z</time>
      </trkpt>
      <trkpt lat="42.16616" lon="24.72362">
        <ele>214.888109</ele>
        <time>2022-03-07T07:24:44.470Z</time>
      </trkpt>
      <trkpt lat="42.16625" lon="24.7235">
        <ele>214.606173</ele>
        <time>2022-03-07T07:24:47.464Z</time>
      </trkpt>
      <trkpt lat="42.16635" lon="24.72339">
        <ele>214.326473</ele>
        <time>2022-03-07T07:24:50.463Z</time>
      </trkpt>
      <trkpt lat="42.16644" lon="24.72327">
        <ele>214.046773</ele>
        <time>2022-03-07T07:24:53.469Z</time>
      </trkpt>
      <trkpt lat="42.16654" lon="24.72316">
        <ele>213.759669</ele>
        <time>2022-03-07T07:24:56.531Z</time>
      </trkpt>
      <trkpt lat="42.16664" lon="24.72304">
        <ele>213.470731</ele>
        <time>2022-03-07T07:24:59.455Z</time>
      </trkpt>
      <trkpt lat="42.1667" lon="24.72295">
        <ele>213.273058</ele>
        <time>2022-03-07T07:25:01.455Z</time>
      </trkpt>
      <trkpt lat="42.16677" lon="24.72287">
        <ele>213.064014</ele>
        <time>2022-03-07T07:25:03.481Z</time>
      </trkpt>
      <trkpt lat="42.16684" lon="24.72278">
        <ele>212.864733</ele>
        <time>2022-03-07T07:25:05.472Z</time>
      </trkpt>
      <trkpt lat="42.16692" lon="24.7227">
        <ele>212.654255</ele>
        <time>2022-03-07T07:25:07.462Z</time>
      </trkpt>
      <trkpt lat="42.16699" lon="24.72263">
        <ele>212.449514</ele>
        <time>2022-03-07T07:25:09.458Z</time>
      </trkpt>
      <trkpt lat="42.16706" lon="24.72255">
        <ele>212.25061</ele>
        <time>2022-03-07T07:25:11.482Z</time>
      </trkpt>
      <trkpt lat="42.16713" lon="24.72247">
        <ele>212.047508</ele>
        <time>2022-03-07T07:25:13.507Z</time>
      </trkpt>
      <trkpt lat="42.16723" lon="24.72235">
        <ele>211.767172</ele>
        <time>2022-03-07T07:25:16.473Z</time>
      </trkpt>
      <trkpt lat="42.16732" lon="24.72225">
        <ele>211.495391</ele>
        <time>2022-03-07T07:25:19.461Z</time>
      </trkpt>
      <trkpt lat="42.16742" lon="24.72214">
        <ele>211.279338</ele>
        <time>2022-03-07T07:25:22.507Z</time>
      </trkpt>
      <trkpt lat="42.16751" lon="24.72202">
        <ele>211.084153</ele>
        <time>2022-03-07T07:25:25.465Z</time>
      </trkpt>
      <trkpt lat="42.16758" lon="24.72194">
        <ele>210.946624</ele>
        <time>2022-03-07T07:25:27.475Z</time>
      </trkpt>
      <trkpt lat="42.16765" lon="24.72186">
        <ele>210.809094</ele>
        <time>2022-03-07T07:25:29.476Z</time>
      </trkpt>
      <trkpt lat="42.16772" lon="24.72178">
        <ele>210.670121</ele>
        <time>2022-03-07T07:25:31.461Z</time>
      </trkpt>
      <trkpt lat="42.16779" lon="24.72169">
        <ele>210.530812</ele>
        <time>2022-03-07T07:25:33.473Z</time>
      </trkpt>
      <trkpt lat="42.16786" lon="24.72161">
        <ele>210.390757</ele>
        <time>2022-03-07T07:25:35.500Z</time>
      </trkpt>
      <trkpt lat="42.16796" lon="24.72149">
        <ele>210.194296</ele>
        <time>2022-03-07T07:25:38.477Z</time>
      </trkpt>
      <trkpt lat="42.16805" lon="24.72138">
        <ele>210.002306</ele>
        <time>2022-03-07T07:25:41.495Z</time>
      </trkpt>
      <trkpt lat="42.16815" lon="24.72127">
        <ele>209.814654</ele>
        <time>2022-03-07T07:25:44.463Z</time>
      </trkpt>
      <trkpt lat="42.16825" lon="24.72116">
        <ele>209.624125</ele>
        <time>2022-03-07T07:25:47.471Z</time>
      </trkpt>
      <trkpt lat="42.16834" lon="24.72104">
        <ele>209.429916</ele>
        <time>2022-03-07T07:25:50.478Z</time>
      </trkpt>
      <trkpt lat="42.16844" lon="24.72093">
        <ele>209.233093</ele>
        <time>2022-03-07T07:25:53.464Z</time>
      </trkpt>
      <trkpt lat="42.16851" lon="24.72085">
        <ele>209.092532</ele>
        <time>2022-03-07T07:25:55.471Z</time>
      </trkpt>
      <trkpt lat="42.16861" lon="24.72073">
        <ele>208.891921</ele>
        <time>2022-03-07T07:25:58.476Z</time>
      </trkpt>
      <trkpt lat="42.16869" lon="24.72065">
        <ele>208.748019</ele>
        <time>2022-03-07T07:26:00.478Z</time>
      </trkpt>
      <trkpt lat="42.16877" lon="24.72057">
        <ele>208.810029</ele>
        <time>2022-03-07T07:26:02.492Z</time>
      </trkpt>
      <trkpt lat="42.16884" lon="24.72049">
        <ele>208.9372</ele>
        <time>2022-03-07T07:26:04.484Z</time>
      </trkpt>
      <trkpt lat="42.16894" lon="24.72037">
        <ele>209.112039</ele>
        <time>2022-03-07T07:26:07.475Z</time>
      </trkpt>
      <trkpt lat="42.16903" lon="24.72027">
        <ele>209.274576</ele>
        <time>2022-03-07T07:26:10.476Z</time>
      </trkpt>
      <trkpt lat="42.16911" lon="24.72017">
        <ele>209.419905</ele>
        <time>2022-03-07T07:26:13.475Z</time>
      </trkpt>
      <trkpt lat="42.1692" lon="24.72006">
        <ele>209.576205</ele>
        <time>2022-03-07T07:26:16.475Z</time>
      </trkpt>
      <trkpt lat="42.16926" lon="24.71998">
        <ele>209.701604</ele>
        <time>2022-03-07T07:26:18.461Z</time>
      </trkpt>
      <trkpt lat="42.16936" lon="24.71986">
        <ele>209.874183</ele>
        <time>2022-03-07T07:26:21.471Z</time>
      </trkpt>
      <trkpt lat="42.16945" lon="24.71973">
        <ele>210.049992</ele>
        <time>2022-03-07T07:26:24.463Z</time>
      </trkpt>
      <trkpt lat="42.16951" lon="24.71965">
        <ele>210.170992</ele>
        <time>2022-03-07T07:26:26.454Z</time>
      </trkpt>
      <trkpt lat="42.16961" lon="24.71953">
        <ele>210.347147</ele>
        <time>2022-03-07T07:26:29.469Z</time>
      </trkpt>
      <trkpt lat="42.16968" lon="24.71945">
        <ele>210.469132</ele>
        <time>2022-03-07T07:26:31.491Z</time>
      </trkpt>
      <trkpt lat="42.16978" lon="24.71933">
        <ele>210.647297</ele>
        <time>2022-03-07T07:26:34.465Z</time>
      </trkpt>
      <trkpt lat="42.16985" lon="24.71925">
        <ele>210.768421</ele>
        <time>2022-03-07T07:26:36.493Z</time>
      </trkpt>
      <trkpt lat="42.16992" lon="24.71917">
        <ele>210.891635</ele>
        <time>2022-03-07T07:26:38.472Z</time>
      </trkpt>
      <trkpt lat="42.16999" lon="24.7191">
        <ele>211.0138</ele>
        <time>2022-03-07T07:26:40.477Z</time>
      </trkpt>
      <trkpt lat="42.17006" lon="24.71902">
        <ele>211.154694</ele>
        <time>2022-03-07T07:26:42.467Z</time>
      </trkpt>
      <trkpt lat="42.17016" lon="24.7189">
        <ele>211.629414</ele>
        <time>2022-03-07T07:26:45.483Z</time>
      </trkpt>
      <trkpt lat="42.17026" lon="24.71879">
        <ele>212.094904</ele>
        <time>2022-03-07T07:26:48.461Z</time>
      </trkpt>
      <trkpt lat="42.17036" lon="24.71868">
        <ele>212.562717</ele>
        <time>2022-03-07T07:26:51.473Z</time>
      </trkpt>
      <trkpt lat="42.17046" lon="24.71857">
        <ele>213.015991</ele>
        <time>2022-03-07T07:26:54.486Z</time>
      </trkpt>
      <trkpt lat="42.17054" lon="24.71846">
        <ele>213.421789</ele>
        <time>2022-03-07T07:26:57.475Z</time>
      </trkpt>
      <trkpt lat="42.17062" lon="24.71839">
        <ele>213.765423</ele>
        <time>2022-03-07T07:27:00.505Z</time>
      </trkpt>
      <trkpt lat="42.17072" lon="24.71827">
        <ele>214.228236</ele>
        <time>2022-03-07T07:28:51.458Z</time>
      </trkpt>
      <trkpt lat="42.17077" lon="24.71815">
        <ele>214.599051</ele>
        <time>2022-03-07T07:28:55.488Z</time>
      </trkpt>
      <trkpt lat="42.17083" lon="24.71801">
        <ele>215.018691</ele>
        <time>2022-03-07T07:28:59.457Z</time>
      </trkpt>
      <trkpt lat="42.1709" lon="24.71787">
        <ele>215.460049</ele>
        <time>2022-03-07T07:29:02.473Z</time>
      </trkpt>
      <trkpt lat="42.17096" lon="24.71777">
        <ele>215.813255</ele>
        <time>2022-03-07T07:29:04.486Z</time>
      </trkpt>
      <trkpt lat="42.17102" lon="24.71767">
        <ele>216.155676</ele>
        <time>2022-03-07T07:29:06.506Z</time>
      </trkpt>
      <trkpt lat="42.1711" lon="24.71754">
        <ele>216.611224</ele>
        <time>2022-03-07T07:29:09.469Z</time>
      </trkpt>
      <trkpt lat="42.17116" lon="24.71744">
        <ele>216.938954</ele>
        <time>2022-03-07T07:29:11.458Z</time>
      </trkpt>
      <trkpt lat="42.17123" lon="24.71731">
        <ele>217.379688</ele>
        <time>2022-03-07T07:29:14.472Z</time>
      </trkpt>
      <trkpt lat="42.17132" lon="24.71718">
        <ele>217.463773</ele>
        <time>2022-03-07T07:29:17.458Z</time>
      </trkpt>
      <trkpt lat="42.17141" lon="24.71706">
        <ele>217.317251</ele>
        <time>2022-03-07T07:29:20.455Z</time>
      </trkpt>
      <trkpt lat="42.17151" lon="24.71695">
        <ele>217.169665</ele>
        <time>2022-03-07T07:29:23.472Z</time>
      </trkpt>
      <trkpt lat="42.1716" lon="24.71682">
        <ele>217.0246</ele>
        <time>2022-03-07T07:29:26.461Z</time>
      </trkpt>
      <trkpt lat="42.17168" lon="24.71667">
        <ele>216.869331</ele>
        <time>2022-03-07T07:29:29.478Z</time>
      </trkpt>
      <trkpt lat="42.17173" lon="24.71657">
        <ele>216.758129</ele>
        <time>2022-03-07T07:29:31.475Z</time>
      </trkpt>
      <trkpt lat="42.1718" lon="24.71646">
        <ele>216.644175</ele>
        <time>2022-03-07T07:29:33.472Z</time>
      </trkpt>
      <trkpt lat="42.17186" lon="24.71636">
        <ele>216.532954</ele>
        <time>2022-03-07T07:29:35.477Z</time>
      </trkpt>
      <trkpt lat="42.17191" lon="24.71626">
        <ele>216.429217</ele>
        <time>2022-03-07T07:29:37.473Z</time>
      </trkpt>
      <trkpt lat="42.17197" lon="24.71616">
        <ele>216.324621</ele>
        <time>2022-03-07T07:29:39.511Z</time>
      </trkpt>
      <trkpt lat="42.17203" lon="24.71607">
        <ele>216.2201</ele>
        <time>2022-03-07T07:29:41.462Z</time>
      </trkpt>
      <trkpt lat="42.17212" lon="24.71594">
        <ele>216.072601</ele>
        <time>2022-03-07T07:29:44.482Z</time>
      </trkpt>
      <trkpt lat="42.1722" lon="24.71582">
        <ele>215.932522</ele>
        <time>2022-03-07T07:29:47.471Z</time>
      </trkpt>
      <trkpt lat="42.17226" lon="24.71573">
        <ele>215.827926</ele>
        <time>2022-03-07T07:29:49.475Z</time>
      </trkpt>
      <trkpt lat="42.17235" lon="24.71559">
        <ele>215.673099</ele>
        <time>2022-03-07T07:29:52.463Z</time>
      </trkpt>
      <trkpt lat="42.17241" lon="24.71549">
        <ele>215.567663</ele>
        <time>2022-03-07T07:29:54.449Z</time>
      </trkpt>
      <trkpt lat="42.17247" lon="24.7154">
        <ele>215.359452</ele>
        <time>2022-03-07T07:29:56.470Z</time>
      </trkpt>
      <trkpt lat="42.17253" lon="24.71531">
        <ele>214.965616</ele>
        <time>2022-03-07T07:29:58.475Z</time>
      </trkpt>
      <trkpt lat="42.1726" lon="24.71521">
        <ele>214.563854</ele>
        <time>2022-03-07T07:30:00.471Z</time>
      </trkpt>
      <trkpt lat="42.17267" lon="24.71512">
        <ele>214.16719</ele>
        <time>2022-03-07T07:30:02.469Z</time>
      </trkpt>
      <trkpt lat="42.17273" lon="24.71502">
        <ele>213.774307</ele>
        <time>2022-03-07T07:30:04.484Z</time>
      </trkpt>
      <trkpt lat="42.17279" lon="24.71493">
        <ele>213.394577</ele>
        <time>2022-03-07T07:30:06.540Z</time>
      </trkpt>
      <trkpt lat="42.17285" lon="24.71485">
        <ele>213.016365</ele>
        <time>2022-03-07T07:30:08.472Z</time>
      </trkpt>
      <trkpt lat="42.17292" lon="24.71475">
        <ele>212.628114</ele>
        <time>2022-03-07T07:30:10.462Z</time>
      </trkpt>
      <trkpt lat="42.17298" lon="24.71465">
        <ele>212.23325</ele>
        <time>2022-03-07T07:30:12.489Z</time>
      </trkpt>
      <trkpt lat="42.17304" lon="24.71456">
        <ele>211.84105</ele>
        <time>2022-03-07T07:30:14.474Z</time>
      </trkpt>
      <trkpt lat="42.1731" lon="24.71446">
        <ele>211.441145</ele>
        <time>2022-03-07T07:30:16.472Z</time>
      </trkpt>
      <trkpt lat="42.17316" lon="24.71436">
        <ele>211.045033</ele>
        <time>2022-03-07T07:30:18.490Z</time>
      </trkpt>
      <trkpt lat="42.17322" lon="24.71427">
        <ele>210.666922</ele>
        <time>2022-03-07T07:30:20.508Z</time>
      </trkpt>
      <trkpt lat="42.17328" lon="24.71418">
        <ele>210.281815</ele>
        <time>2022-03-07T07:30:22.470Z</time>
      </trkpt>
      <trkpt lat="42.17334" lon="24.71408">
        <ele>209.899394</ele>
        <time>2022-03-07T07:30:24.458Z</time>
      </trkpt>
      <trkpt lat="42.1734" lon="24.71399">
        <ele>209.514287</ele>
        <time>2022-03-07T07:30:26.458Z</time>
      </trkpt>
      <trkpt lat="42.17349" lon="24.71385">
        <ele>208.960341</ele>
        <time>2022-03-07T07:30:29.478Z</time>
      </trkpt>
      <trkpt lat="42.17357" lon="24.71371">
        <ele>208.407187</ele>
        <time>2022-03-07T07:30:32.486Z</time>
      </trkpt>
      <trkpt lat="42.17363" lon="24.71361">
        <ele>208.035245</ele>
        <time>2022-03-07T07:30:34.464Z</time>
      </trkpt>
      <trkpt lat="42.17369" lon="24.71352">
        <ele>208.071931</ele>
        <time>2022-03-07T07:30:36.450Z</time>
      </trkpt>
      <trkpt lat="42.17375" lon="24.71343">
        <ele>208.131019</ele>
        <time>2022-03-07T07:30:38.469Z</time>
      </trkpt>
      <trkpt lat="42.17381" lon="24.71333">
        <ele>208.189676</ele>
        <time>2022-03-07T07:30:40.479Z</time>
      </trkpt>
      <trkpt lat="42.17387" lon="24.71324">
        <ele>208.247908</ele>
        <time>2022-03-07T07:30:42.492Z</time>
      </trkpt>
      <trkpt lat="42.17393" lon="24.71315">
        <ele>208.305788</ele>
        <time>2022-03-07T07:30:44.466Z</time>
      </trkpt>
      <trkpt lat="42.17402" lon="24.71301">
        <ele>208.391308</ele>
        <time>2022-03-07T07:30:47.485Z</time>
      </trkpt>
      <trkpt lat="42.17411" lon="24.71288">
        <ele>208.47506</ele>
        <time>2022-03-07T07:30:50.475Z</time>
      </trkpt>
      <trkpt lat="42.17419" lon="24.71274">
        <ele>208.559664</ele>
        <time>2022-03-07T07:30:53.490Z</time>
      </trkpt>
      <trkpt lat="42.17428" lon="24.7126">
        <ele>208.644671</ele>
        <time>2022-03-07T07:30:56.467Z</time>
      </trkpt>
      <trkpt lat="42.17437" lon="24.71247">
        <ele>208.729062</ele>
        <time>2022-03-07T07:30:59.442Z</time>
      </trkpt>
      <trkpt lat="42.17443" lon="24.71237">
        <ele>208.788712</ele>
        <time>2022-03-07T07:31:01.479Z</time>
      </trkpt>
      <trkpt lat="42.17449" lon="24.71228">
        <ele>208.846819</ele>
        <time>2022-03-07T07:31:03.473Z</time>
      </trkpt>
      <trkpt lat="42.17457" lon="24.71214">
        <ele>208.931463</ele>
        <time>2022-03-07T07:31:06.471Z</time>
      </trkpt>
      <trkpt lat="42.17465" lon="24.712">
        <ele>209.014933</ele>
        <time>2022-03-07T07:31:09.471Z</time>
      </trkpt>
      <trkpt lat="42.17473" lon="24.71187">
        <ele>209.095703</ele>
        <time>2022-03-07T07:31:12.466Z</time>
      </trkpt>
      <trkpt lat="42.17481" lon="24.71174">
        <ele>209.202139</ele>
        <time>2022-03-07T07:31:15.470Z</time>
      </trkpt>
      <trkpt lat="42.1749" lon="24.71161">
        <ele>209.414652</ele>
        <time>2022-03-07T07:31:18.515Z</time>
      </trkpt>
      <trkpt lat="42.17498" lon="24.71147">
        <ele>209.631217</ele>
        <time>2022-03-07T07:31:21.454Z</time>
      </trkpt>
      <trkpt lat="42.17506" lon="24.71134">
        <ele>209.837549</ele>
        <time>2022-03-07T07:31:24.494Z</time>
      </trkpt>
      <trkpt lat="42.17514" lon="24.71121">
        <ele>210.046859</ele>
        <time>2022-03-07T07:31:27.474Z</time>
      </trkpt>
      <trkpt lat="42.17522" lon="24.71108">
        <ele>210.270452</ele>
        <time>2022-03-07T07:31:30.475Z</time>
      </trkpt>
      <trkpt lat="42.1753" lon="24.71093">
        <ele>210.493511</ele>
        <time>2022-03-07T07:31:33.475Z</time>
      </trkpt>
      <trkpt lat="42.17538" lon="24.71079">
        <ele>210.708581</ele>
        <time>2022-03-07T07:31:36.535Z</time>
      </trkpt>
      <trkpt lat="42.17546" lon="24.71066">
        <ele>210.922799</ele>
        <time>2022-03-07T07:31:39.482Z</time>
      </trkpt>
      <trkpt lat="42.17552" lon="24.71057">
        <ele>211.074677</ele>
        <time>2022-03-07T07:31:41.467Z</time>
      </trkpt>
      <trkpt lat="42.17558" lon="24.71047">
        <ele>211.230828</ele>
        <time>2022-03-07T07:31:43.500Z</time>
      </trkpt>
      <trkpt lat="42.17565" lon="24.71038">
        <ele>211.395976</ele>
        <time>2022-03-07T07:31:45.474Z</time>
      </trkpt>
      <trkpt lat="42.17572" lon="24.71029">
        <ele>211.553043</ele>
        <time>2022-03-07T07:31:47.510Z</time>
      </trkpt>
      <trkpt lat="42.17578" lon="24.71019">
        <ele>211.711032</ele>
        <time>2022-03-07T07:31:49.465Z</time>
      </trkpt>
      <trkpt lat="42.17584" lon="24.7101">
        <ele>211.861668</ele>
        <time>2022-03-07T07:31:51.461Z</time>
      </trkpt>
      <trkpt lat="42.1759" lon="24.71001">
        <ele>212.016906</ele>
        <time>2022-03-07T07:31:53.454Z</time>
      </trkpt>
      <trkpt lat="42.17596" lon="24.70992">
        <ele>212.167724</ele>
        <time>2022-03-07T07:31:55.454Z</time>
      </trkpt>
      <trkpt lat="42.17603" lon="24.70983">
        <ele>212.150954</ele>
        <time>2022-03-07T07:31:57.479Z</time>
      </trkpt>
      <trkpt lat="42.17609" lon="24.70973">
        <ele>212.134109</ele>
        <time>2022-03-07T07:31:59.474Z</time>
      </trkpt>
      <trkpt lat="42.17617" lon="24.7096">
        <ele>212.110151</ele>
        <time>2022-03-07T07:32:02.460Z</time>
      </trkpt>
      <trkpt lat="42.17626" lon="24.70947">
        <ele>212.087428</ele>
        <time>2022-03-07T07:32:05.478Z</time>
      </trkpt>
      <trkpt lat="42.17634" lon="24.70934">
        <ele>212.064684</ele>
        <time>2022-03-07T07:32:08.454Z</time>
      </trkpt>
      <trkpt lat="42.17642" lon="24.70921">
        <ele>212.041781</ele>
        <time>2022-03-07T07:32:11.459Z</time>
      </trkpt>
      <trkpt lat="42.17651" lon="24.70908">
        <ele>212.017891</ele>
        <time>2022-03-07T07:32:14.467Z</time>
      </trkpt>
      <trkpt lat="42.17657" lon="24.70899">
        <ele>212.001303</ele>
        <time>2022-03-07T07:32:16.483Z</time>
      </trkpt>
      <trkpt lat="42.17665" lon="24.70885">
        <ele>211.977873</ele>
        <time>2022-03-07T07:32:19.479Z</time>
      </trkpt>
      <trkpt lat="42.17674" lon="24.70872">
        <ele>211.953915</ele>
        <time>2022-03-07T07:32:22.470Z</time>
      </trkpt>
      <trkpt lat="42.17682" lon="24.70858">
        <ele>211.930096</ele>
        <time>2022-03-07T07:32:25.480Z</time>
      </trkpt>
      <trkpt lat="42.1769" lon="24.70844">
        <ele>211.905734</ele>
        <time>2022-03-07T07:32:28.463Z</time>
      </trkpt>
      <trkpt lat="42.17698" lon="24.7083">
        <ele>211.88202</ele>
        <time>2022-03-07T07:32:31.503Z</time>
      </trkpt>
      <trkpt lat="42.17706" lon="24.70817">
        <ele>211.859265</ele>
        <time>2022-03-07T07:32:34.474Z</time>
      </trkpt>
      <trkpt lat="42.17714" lon="24.70803">
        <ele>211.808144</ele>
        <time>2022-03-07T07:32:37.479Z</time>
      </trkpt>
      <trkpt lat="42.17722" lon="24.70791">
        <ele>211.662974</ele>
        <time>2022-03-07T07:32:40.463Z</time>
      </trkpt>
      <trkpt lat="42.1773" lon="24.70778">
        <ele>211.514906</ele>
        <time>2022-03-07T07:32:43.481Z</time>
      </trkpt>
      <trkpt lat="42.17739" lon="24.70766">
        <ele>211.363938</ele>
        <time>2022-03-07T07:32:46.487Z</time>
      </trkpt>
      <trkpt lat="42.17747" lon="24.70753">
        <ele>211.214139</ele>
        <time>2022-03-07T07:32:49.478Z</time>
      </trkpt>
      <trkpt lat="42.17756" lon="24.7074">
        <ele>211.057698</ele>
        <time>2022-03-07T07:32:52.482Z</time>
      </trkpt>
      <trkpt lat="42.17765" lon="24.70727">
        <ele>210.902505</ele>
        <time>2022-03-07T07:32:55.467Z</time>
      </trkpt>
      <trkpt lat="42.17773" lon="24.70713">
        <ele>210.748443</ele>
        <time>2022-03-07T07:32:58.460Z</time>
      </trkpt>
      <trkpt lat="42.17781" lon="24.707">
        <ele>210.599237</ele>
        <time>2022-03-07T07:33:01.478Z</time>
      </trkpt>
      <trkpt lat="42.17789" lon="24.70687">
        <ele>210.444707</ele>
        <time>2022-03-07T07:33:04.473Z</time>
      </trkpt>
      <trkpt lat="42.17798" lon="24.70674">
        <ele>210.291941</ele>
        <time>2022-03-07T07:33:07.475Z</time>
      </trkpt>
      <trkpt lat="42.17806" lon="24.70661">
        <ele>210.133055</ele>
        <time>2022-03-07T07:33:10.519Z</time>
      </trkpt>
      <trkpt lat="42.17813" lon="24.70652">
        <ele>210.023553</ele>
        <time>2022-03-07T07:33:12.458Z</time>
      </trkpt>
      <trkpt lat="42.17822" lon="24.70638">
        <ele>209.864915</ele>
        <time>2022-03-07T07:33:15.471Z</time>
      </trkpt>
      <trkpt lat="42.1783" lon="24.70625">
        <ele>209.711286</ele>
        <time>2022-03-07T07:33:18.459Z</time>
      </trkpt>
      <trkpt lat="42.17838" lon="24.70611">
        <ele>209.598846</ele>
        <time>2022-03-07T07:33:21.460Z</time>
      </trkpt>
      <trkpt lat="42.17844" lon="24.70602">
        <ele>209.521112</ele>
        <time>2022-03-07T07:33:23.498Z</time>
      </trkpt>
      <trkpt lat="42.17853" lon="24.70588">
        <ele>209.409541</ele>
        <time>2022-03-07T07:33:26.513Z</time>
      </trkpt>
      <trkpt lat="42.17862" lon="24.70575">
        <ele>209.300094</ele>
        <time>2022-03-07T07:33:29.458Z</time>
      </trkpt>
      <trkpt lat="42.17868" lon="24.70567">
        <ele>209.224724</ele>
        <time>2022-03-07T07:33:31.461Z</time>
      </trkpt>
      <trkpt lat="42.17875" lon="24.70558">
        <ele>209.148326</ele>
        <time>2022-03-07T07:33:33.479Z</time>
      </trkpt>
      <trkpt lat="42.17883" lon="24.70544">
        <ele>209.038367</ele>
        <time>2022-03-07T07:33:36.469Z</time>
      </trkpt>
      <trkpt lat="42.17889" lon="24.70535">
        <ele>208.963399</ele>
        <time>2022-03-07T07:33:38.469Z</time>
      </trkpt>
      <trkpt lat="42.17899" lon="24.70523">
        <ele>208.852554</ele>
        <time>2022-03-07T07:33:41.475Z</time>
      </trkpt>
      <trkpt lat="42.17911" lon="24.7052">
        <ele>208.751176</ele>
        <time>2022-03-07T07:33:44.463Z</time>
      </trkpt>
      <trkpt lat="42.17921" lon="24.70529">
        <ele>208.649446</ele>
        <time>2022-03-07T07:33:47.516Z</time>
      </trkpt>
      <trkpt lat="42.17932" lon="24.70535">
        <ele>208.548736</ele>
        <time>2022-03-07T07:33:50.480Z</time>
      </trkpt>
      <trkpt lat="42.17941" lon="24.70539">
        <ele>208.472979</ele>
        <time>2022-03-07T07:33:53.475Z</time>
      </trkpt>
      <trkpt lat="42.17953" lon="24.70545">
        <ele>208.370745</ele>
        <time>2022-03-07T07:33:57.478Z</time>
      </trkpt>
      <trkpt lat="42.17963" lon="24.70547">
        <ele>208.280425</ele>
        <time>2022-03-07T07:34:00.475Z</time>
      </trkpt>
      <trkpt lat="42.17973" lon="24.70541">
        <ele>208.197786</ele>
        <time>2022-03-07T07:34:03.479Z</time>
      </trkpt>
      <trkpt lat="42.1798" lon="24.70528">
        <ele>208.214739</ele>
        <time>2022-03-07T07:34:06.474Z</time>
      </trkpt>
      <trkpt lat="42.17984" lon="24.70517">
        <ele>208.227724</ele>
        <time>2022-03-07T07:34:08.470Z</time>
      </trkpt>
      <trkpt lat="42.17988" lon="24.70505">
        <ele>208.241365</ele>
        <time>2022-03-07T07:34:10.498Z</time>
      </trkpt>
      <trkpt lat="42.17993" lon="24.70493">
        <ele>208.254882</ele>
        <time>2022-03-07T07:34:12.481Z</time>
      </trkpt>
      <trkpt lat="42.17997" lon="24.70482">
        <ele>208.268457</ele>
        <time>2022-03-07T07:34:14.456Z</time>
      </trkpt>
      <trkpt lat="42.18001" lon="24.7047">
        <ele>208.281725</ele>
        <time>2022-03-07T07:34:16.491Z</time>
      </trkpt>
      <trkpt lat="42.18006" lon="24.7046">
        <ele>208.294536</ele>
        <time>2022-03-07T07:34:18.459Z</time>
      </trkpt>
      <trkpt lat="42.18013" lon="24.70444">
        <ele>208.312919</ele>
        <time>2022-03-07T07:34:21.489Z</time>
      </trkpt>
      <trkpt lat="42.18018" lon="24.70429">
        <ele>208.331216</ele>
        <time>2022-03-07T07:34:24.459Z</time>
      </trkpt>
      <trkpt lat="42.18024" lon="24.70413">
        <ele>208.349585</ele>
        <time>2022-03-07T07:34:27.455Z</time>
      </trkpt>
      <trkpt lat="42.1803" lon="24.70397">
        <ele>208.36767</ele>
        <time>2022-03-07T07:34:30.497Z</time>
      </trkpt>
      <trkpt lat="42.18034" lon="24.70387">
        <ele>208.38039</ele>
        <time>2022-03-07T07:34:32.494Z</time>
      </trkpt>
      <trkpt lat="42.18039" lon="24.70376">
        <ele>208.393569</ele>
        <time>2022-03-07T07:34:34.459Z</time>
      </trkpt>
      <trkpt lat="42.18044" lon="24.70365">
        <ele>208.406629</ele>
        <time>2022-03-07T07:34:36.485Z</time>
      </trkpt>
      <trkpt lat="42.18048" lon="24.70354">
        <ele>208.419647</ele>
        <time>2022-03-07T07:34:38.470Z</time>
      </trkpt>
      <trkpt lat="42.18053" lon="24.70343">
        <ele>208.432936</ele>
        <time>2022-03-07T07:34:40.473Z</time>
      </trkpt>
      <trkpt lat="42.18058" lon="24.70332">
        <ele>208.446134</ele>
        <time>2022-03-07T07:34:42.467Z</time>
      </trkpt>
      <trkpt lat="42.18063" lon="24.70316">
        <ele>208.524262</ele>
        <time>2022-03-07T07:34:45.470Z</time>
      </trkpt>
      <trkpt lat="42.18068" lon="24.703">
        <ele>208.612186</ele>
        <time>2022-03-07T07:34:48.511Z</time>
      </trkpt>
      <trkpt lat="42.18072" lon="24.70283">
        <ele>208.700018</ele>
        <time>2022-03-07T07:34:51.461Z</time>
      </trkpt>
      <trkpt lat="42.18073" lon="24.70271">
        <ele>208.762151</ele>
        <time>2022-03-07T07:34:53.473Z</time>
      </trkpt>
      <trkpt lat="42.18076" lon="24.70258">
        <ele>208.826556</ele>
        <time>2022-03-07T07:34:55.478Z</time>
      </trkpt>
      <trkpt lat="42.18078" lon="24.70247">
        <ele>208.888337</ele>
        <time>2022-03-07T07:34:57.487Z</time>
      </trkpt>
      <trkpt lat="42.18081" lon="24.70235">
        <ele>208.950091</ele>
        <time>2022-03-07T07:34:59.503Z</time>
      </trkpt>
      <trkpt lat="42.18087" lon="24.70221">
        <ele>209.035295</ele>
        <time>2022-03-07T07:35:02.474Z</time>
      </trkpt>
      <trkpt lat="42.18095" lon="24.70208">
        <ele>209.120033</ele>
        <time>2022-03-07T07:35:05.493Z</time>
      </trkpt>
      <trkpt lat="42.18104" lon="24.70195">
        <ele>209.209029</ele>
        <time>2022-03-07T07:35:08.474Z</time>
      </trkpt>
      <trkpt lat="42.1811" lon="24.70185">
        <ele>209.271019</ele>
        <time>2022-03-07T07:35:10.511Z</time>
      </trkpt>
      <trkpt lat="42.18118" lon="24.70172">
        <ele>209.359504</ele>
        <time>2022-03-07T07:35:13.476Z</time>
      </trkpt>
      <trkpt lat="42.18126" lon="24.70159">
        <ele>209.444989</ele>
        <time>2022-03-07T07:35:16.494Z</time>
      </trkpt>
      <trkpt lat="42.18134" lon="24.70145">
        <ele>209.531269</ele>
        <time>2022-03-07T07:35:19.486Z</time>
      </trkpt>
      <trkpt lat="42.18142" lon="24.70132">
        <ele>209.619263</ele>
        <time>2022-03-07T07:35:22.479Z</time>
      </trkpt>
      <trkpt lat="42.1815" lon="24.70118">
        <ele>209.777061</ele>
        <time>2022-03-07T07:35:25.453Z</time>
      </trkpt>
      <trkpt lat="42.18158" lon="24.70105">
        <ele>210.113291</ele>
        <time>2022-03-07T07:35:28.477Z</time>
      </trkpt>
      <trkpt lat="42.18167" lon="24.70093">
        <ele>210.428405</ele>
        <time>2022-03-07T07:35:31.503Z</time>
      </trkpt>
      <trkpt lat="42.18174" lon="24.70082">
        <ele>210.706436</ele>
        <time>2022-03-07T07:35:34.476Z</time>
      </trkpt>
      <trkpt lat="42.1818" lon="24.70072">
        <ele>210.935007</ele>
        <time>2022-03-07T07:35:37.481Z</time>
      </trkpt>
      <trkpt lat="42.18187" lon="24.70059">
        <ele>211.231212</ele>
        <time>2022-03-07T07:35:40.460Z</time>
      </trkpt>
      <trkpt lat="42.18194" lon="24.70046">
        <ele>211.548467</ele>
        <time>2022-03-07T07:35:43.467Z</time>
      </trkpt>
      <trkpt lat="42.18203" lon="24.70032">
        <ele>211.881234</ele>
        <time>2022-03-07T07:35:46.481Z</time>
      </trkpt>
      <trkpt lat="42.18209" lon="24.70023">
        <ele>212.110144</ele>
        <time>2022-03-07T07:35:48.480Z</time>
      </trkpt>
      <trkpt lat="42.18215" lon="24.70014">
        <ele>212.343577</ele>
        <time>2022-03-07T07:35:50.459Z</time>
      </trkpt>
      <trkpt lat="42.18221" lon="24.70005">
        <ele>212.573911</ele>
        <time>2022-03-07T07:35:52.497Z</time>
      </trkpt>
      <trkpt lat="42.18227" lon="24.69995">
        <ele>212.806085</ele>
        <time>2022-03-07T07:35:54.460Z</time>
      </trkpt>
      <trkpt lat="42.18233" lon="24.69986">
        <ele>213.034655</ele>
        <time>2022-03-07T07:35:56.459Z</time>
      </trkpt>
      <trkpt lat="42.18242" lon="24.69972">
        <ele>213.371408</ele>
        <time>2022-03-07T07:35:59.510Z</time>
      </trkpt>
      <trkpt lat="42.18248" lon="24.69963">
        <ele>213.604126</ele>
        <time>2022-03-07T07:36:01.461Z</time>
      </trkpt>
      <trkpt lat="42.18256" lon="24.6995">
        <ele>213.93305</ele>
        <time>2022-03-07T07:36:04.514Z</time>
      </trkpt>
      <trkpt lat="42.18264" lon="24.69938">
        <ele>214.217138</ele>
        <time>2022-03-07T07:36:07.470Z</time>
      </trkpt>
      <trkpt lat="42.18272" lon="24.69925">
        <ele>214.140049</ele>
        <time>2022-03-07T07:36:10.461Z</time>
      </trkpt>
      <trkpt lat="42.1828" lon="24.69911">
        <ele>214.050603</ele>
        <time>2022-03-07T07:36:13.480Z</time>
      </trkpt>
      <trkpt lat="42.18286" lon="24.69902">
        <ele>213.989453</ele>
        <time>2022-03-07T07:36:15.482Z</time>
      </trkpt>
      <trkpt lat="42.18292" lon="24.69892">
        <ele>213.929779</ele>
        <time>2022-03-07T07:36:17.472Z</time>
      </trkpt>
      <trkpt lat="42.18301" lon="24.6988">
        <ele>213.846961</ele>
        <time>2022-03-07T07:36:20.475Z</time>
      </trkpt>
      <trkpt lat="42.18307" lon="24.6987">
        <ele>213.785858</ele>
        <time>2022-03-07T07:36:22.506Z</time>
      </trkpt>
      <trkpt lat="42.18313" lon="24.6986">
        <ele>213.72396</ele>
        <time>2022-03-07T07:36:24.492Z</time>
      </trkpt>
      <trkpt lat="42.18319" lon="24.69851">
        <ele>213.663606</ele>
        <time>2022-03-07T07:36:26.477Z</time>
      </trkpt>
      <trkpt lat="42.18325" lon="24.69841">
        <ele>213.603496</ele>
        <time>2022-03-07T07:36:28.493Z</time>
      </trkpt>
      <trkpt lat="42.18331" lon="24.69832">
        <ele>213.542143</ele>
        <time>2022-03-07T07:36:30.469Z</time>
      </trkpt>
      <trkpt lat="42.1834" lon="24.69818">
        <ele>213.454293</ele>
        <time>2022-03-07T07:36:33.522Z</time>
      </trkpt>
      <trkpt lat="42.18348" lon="24.69805">
        <ele>213.366442</ele>
        <time>2022-03-07T07:36:36.480Z</time>
      </trkpt>
      <trkpt lat="42.18357" lon="24.69791">
        <ele>213.279759</ele>
        <time>2022-03-07T07:36:39.459Z</time>
      </trkpt>
      <trkpt lat="42.18365" lon="24.69778">
        <ele>213.197373</ele>
        <time>2022-03-07T07:36:42.469Z</time>
      </trkpt>
      <trkpt lat="42.18373" lon="24.69766">
        <ele>213.118176</ele>
        <time>2022-03-07T07:36:45.466Z</time>
      </trkpt>
      <trkpt lat="42.18382" lon="24.69753">
        <ele>213.052929</ele>
        <time>2022-03-07T07:36:48.477Z</time>
      </trkpt>
      <trkpt lat="42.1839" lon="24.6974">
        <ele>213.270774</ele>
        <time>2022-03-07T07:36:51.482Z</time>
      </trkpt>
      <trkpt lat="42.18398" lon="24.69728">
        <ele>213.475235</ele>
        <time>2022-03-07T07:36:54.478Z</time>
      </trkpt>
      <trkpt lat="42.18406" lon="24.69717">
        <ele>213.671584</ele>
        <time>2022-03-07T07:36:57.466Z</time>
      </trkpt>
      <trkpt lat="42.18413" lon="24.69705">
        <ele>213.865861</ele>
        <time>2022-03-07T07:37:00.513Z</time>
      </trkpt>
      <trkpt lat="42.1842" lon="24.69693">
        <ele>214.061697</ele>
        <time>2022-03-07T07:37:03.472Z</time>
      </trkpt>
      <trkpt lat="42.18428" lon="24.69679">
        <ele>214.280765</ele>
        <time>2022-03-07T07:37:06.455Z</time>
      </trkpt>
      <trkpt lat="42.18437" lon="24.69666">
        <ele>214.502134</ele>
        <time>2022-03-07T07:37:09.467Z</time>
      </trkpt>
      <trkpt lat="42.18445" lon="24.69653">
        <ele>214.718685</ele>
        <time>2022-03-07T07:37:12.478Z</time>
      </trkpt>
      <trkpt lat="42.18453" lon="24.69639">
        <ele>214.933644</ele>
        <time>2022-03-07T07:37:15.477Z</time>
      </trkpt>
      <trkpt lat="42.1846" lon="24.69625">
        <ele>215.150637</ele>
        <time>2022-03-07T07:37:18.471Z</time>
      </trkpt>
      <trkpt lat="42.18469" lon="24.69613">
        <ele>215.362447</ele>
        <time>2022-03-07T07:37:21.472Z</time>
      </trkpt>
      <trkpt lat="42.18478" lon="24.69599">
        <ele>215.591611</ele>
        <time>2022-03-07T07:37:24.466Z</time>
      </trkpt>
      <trkpt lat="42.18487" lon="24.69587">
        <ele>215.815462</ele>
        <time>2022-03-07T07:37:27.471Z</time>
      </trkpt>
      <trkpt lat="42.18495" lon="24.69574">
        <ele>216.034883</ele>
        <time>2022-03-07T07:37:30.469Z</time>
      </trkpt>
      <trkpt lat="42.18504" lon="24.69561">
        <ele>216.069947</ele>
        <time>2022-03-07T07:37:33.487Z</time>
      </trkpt>
      <trkpt lat="42.18511" lon="24.69547">
        <ele>216.024209</ele>
        <time>2022-03-07T07:37:36.468Z</time>
      </trkpt>
      <trkpt lat="42.18519" lon="24.69534">
        <ele>215.978904</ele>
        <time>2022-03-07T07:37:39.458Z</time>
      </trkpt>
      <trkpt lat="42.18527" lon="24.6952">
        <ele>215.930931</ele>
        <time>2022-03-07T07:37:42.466Z</time>
      </trkpt>
      <trkpt lat="42.18534" lon="24.69511">
        <ele>215.897083</ele>
        <time>2022-03-07T07:37:44.503Z</time>
      </trkpt>
      <trkpt lat="42.18542" lon="24.69497">
        <ele>215.848254</ele>
        <time>2022-03-07T07:37:47.480Z</time>
      </trkpt>
      <trkpt lat="42.18548" lon="24.69488">
        <ele>215.814504</ele>
        <time>2022-03-07T07:37:49.482Z</time>
      </trkpt>
      <trkpt lat="42.18557" lon="24.69474">
        <ele>215.766641</ele>
        <time>2022-03-07T07:37:52.491Z</time>
      </trkpt>
      <trkpt lat="42.18566" lon="24.69461">
        <ele>215.719138</ele>
        <time>2022-03-07T07:37:55.460Z</time>
      </trkpt>
      <trkpt lat="42.18574" lon="24.69448">
        <ele>215.673521</ele>
        <time>2022-03-07T07:37:58.458Z</time>
      </trkpt>
      <trkpt lat="42.18583" lon="24.69435">
        <ele>215.625618</ele>
        <time>2022-03-07T07:38:01.464Z</time>
      </trkpt>
      <trkpt lat="42.18591" lon="24.69422">
        <ele>215.578199</ele>
        <time>2022-03-07T07:38:04.481Z</time>
      </trkpt>
      <trkpt lat="42.186" lon="24.69409">
        <ele>215.530134</ele>
        <time>2022-03-07T07:38:07.509Z</time>
      </trkpt>
      <trkpt lat="42.18608" lon="24.69395">
        <ele>215.481929</ele>
        <time>2022-03-07T07:38:10.475Z</time>
      </trkpt>
      <trkpt lat="42.18615" lon="24.69386">
        <ele>215.44847</ele>
        <time>2022-03-07T07:38:12.473Z</time>
      </trkpt>
      <trkpt lat="42.18622" lon="24.69377">
        <ele>215.317917</ele>
        <time>2022-03-07T07:38:14.475Z</time>
      </trkpt>
      <trkpt lat="42.18628" lon="24.69368">
        <ele>215.182732</ele>
        <time>2022-03-07T07:38:16.480Z</time>
      </trkpt>
      <trkpt lat="42.18637" lon="24.69355">
        <ele>214.988367</ele>
        <time>2022-03-07T07:38:19.467Z</time>
      </trkpt>
      <trkpt lat="42.18643" lon="24.69346">
        <ele>214.856373</ele>
        <time>2022-03-07T07:38:21.475Z</time>
      </trkpt>
      <trkpt lat="42.18652" lon="24.69332">
        <ele>214.660536</ele>
        <time>2022-03-07T07:38:24.456Z</time>
      </trkpt>
      <trkpt lat="42.1866" lon="24.69319">
        <ele>214.4708</ele>
        <time>2022-03-07T07:38:27.481Z</time>
      </trkpt>
      <trkpt lat="42.18669" lon="24.69305">
        <ele>214.277665</ele>
        <time>2022-03-07T07:38:30.463Z</time>
      </trkpt>
      <trkpt lat="42.18677" lon="24.69291">
        <ele>214.085566</ele>
        <time>2022-03-07T07:38:33.463Z</time>
      </trkpt>
      <trkpt lat="42.18686" lon="24.69278">
        <ele>213.896646</ele>
        <time>2022-03-07T07:38:36.465Z</time>
      </trkpt>
      <trkpt lat="42.18694" lon="24.69265">
        <ele>213.709349</ele>
        <time>2022-03-07T07:38:39.482Z</time>
      </trkpt>
      <trkpt lat="42.18702" lon="24.69252">
        <ele>213.525922</ele>
        <time>2022-03-07T07:38:42.474Z</time>
      </trkpt>
      <trkpt lat="42.18711" lon="24.69239">
        <ele>213.337501</ele>
        <time>2022-03-07T07:38:45.471Z</time>
      </trkpt>
      <trkpt lat="42.18719" lon="24.69226">
        <ele>213.163362</ele>
        <time>2022-03-07T07:38:48.477Z</time>
      </trkpt>
      <trkpt lat="42.18727" lon="24.69214">
        <ele>212.981052</ele>
        <time>2022-03-07T07:38:51.470Z</time>
      </trkpt>
      <trkpt lat="42.18735" lon="24.69201">
        <ele>212.848846</ele>
        <time>2022-03-07T07:38:54.475Z</time>
      </trkpt>
      <trkpt lat="42.18743" lon="24.69188">
        <ele>212.907873</ele>
        <time>2022-03-07T07:38:57.464Z</time>
      </trkpt>
      <trkpt lat="42.18751" lon="24.69175">
        <ele>212.967205</ele>
        <time>2022-03-07T07:39:00.477Z</time>
      </trkpt>
      <trkpt lat="42.18759" lon="24.69162">
        <ele>213.026744</ele>
        <time>2022-03-07T07:39:03.513Z</time>
      </trkpt>
      <trkpt lat="42.18767" lon="24.6915">
        <ele>213.081917</ele>
        <time>2022-03-07T07:39:06.457Z</time>
      </trkpt>
      <trkpt lat="42.18775" lon="24.69136">
        <ele>213.143741</ele>
        <time>2022-03-07T07:39:09.464Z</time>
      </trkpt>
      <trkpt lat="42.18784" lon="24.69122">
        <ele>213.20644</ele>
        <time>2022-03-07T07:39:12.477Z</time>
      </trkpt>
      <trkpt lat="42.1879" lon="24.69113">
        <ele>213.250976</ele>
        <time>2022-03-07T07:39:14.522Z</time>
      </trkpt>
      <trkpt lat="42.18796" lon="24.69104">
        <ele>213.293981</ele>
        <time>2022-03-07T07:39:16.483Z</time>
      </trkpt>
      <trkpt lat="42.18805" lon="24.69091">
        <ele>213.356604</ele>
        <time>2022-03-07T07:39:19.482Z</time>
      </trkpt>
      <trkpt lat="42.18813" lon="24.69077">
        <ele>213.417784</ele>
        <time>2022-03-07T07:39:22.460Z</time>
      </trkpt>
      <trkpt lat="42.18821" lon="24.69063">
        <ele>213.479581</ele>
        <time>2022-03-07T07:39:25.471Z</time>
      </trkpt>
      <trkpt lat="42.18829" lon="24.6905">
        <ele>213.53984</ele>
        <time>2022-03-07T07:39:28.470Z</time>
      </trkpt>
      <trkpt lat="42.18836" lon="24.69041">
        <ele>213.583999</ele>
        <time>2022-03-07T07:39:30.503Z</time>
      </trkpt>
      <trkpt lat="42.18844" lon="24.69027">
        <ele>213.647043</ele>
        <time>2022-03-07T07:39:33.461Z</time>
      </trkpt>
      <trkpt lat="42.18852" lon="24.69014">
        <ele>213.714857</ele>
        <time>2022-03-07T07:39:36.525Z</time>
      </trkpt>
      <trkpt lat="42.18861" lon="24.69001">
        <ele>213.79479</ele>
        <time>2022-03-07T07:39:39.484Z</time>
      </trkpt>
      <trkpt lat="42.18869" lon="24.68988">
        <ele>213.876803</ele>
        <time>2022-03-07T07:39:42.456Z</time>
      </trkpt>
      <trkpt lat="42.18877" lon="24.68975">
        <ele>213.955925</ele>
        <time>2022-03-07T07:39:45.491Z</time>
      </trkpt>
      <trkpt lat="42.18885" lon="24.68962">
        <ele>214.035813</ele>
        <time>2022-03-07T07:39:48.477Z</time>
      </trkpt>
      <trkpt lat="42.18893" lon="24.68948">
        <ele>214.117163</ele>
        <time>2022-03-07T07:39:51.463Z</time>
      </trkpt>
      <trkpt lat="42.18902" lon="24.68934">
        <ele>214.201614</ele>
        <time>2022-03-07T07:39:54.476Z</time>
      </trkpt>
      <trkpt lat="42.1891" lon="24.68921">
        <ele>214.282079</ele>
        <time>2022-03-07T07:39:57.471Z</time>
      </trkpt>
      <trkpt lat="42.18917" lon="24.68908">
        <ele>214.36035</ele>
        <time>2022-03-07T07:40:00.459Z</time>
      </trkpt>
      <trkpt lat="42.18925" lon="24.68895">
        <ele>214.43599</ele>
        <time>2022-03-07T07:40:03.474Z</time>
      </trkpt>
      <trkpt lat="42.18933" lon="24.68882">
        <ele>214.516284</ele>
        <time>2022-03-07T07:40:06.497Z</time>
      </trkpt>
      <trkpt lat="42.18941" lon="24.6887">
        <ele>214.595272</ele>
        <time>2022-03-07T07:40:09.496Z</time>
      </trkpt>
      <trkpt lat="42.1895" lon="24.68858">
        <ele>214.676177</ele>
        <time>2022-03-07T07:40:12.474Z</time>
      </trkpt>
      <trkpt lat="42.18958" lon="24.68845">
        <ele>214.757768</ele>
        <time>2022-03-07T07:40:15.474Z</time>
      </trkpt>
      <trkpt lat="42.18967" lon="24.68832">
        <ele>214.834196</ele>
        <time>2022-03-07T07:40:18.476Z</time>
      </trkpt>
      <trkpt lat="42.18975" lon="24.68819">
        <ele>214.871799</ele>
        <time>2022-03-07T07:40:21.473Z</time>
      </trkpt>
      <trkpt lat="42.18983" lon="24.68806">
        <ele>214.909187</ele>
        <time>2022-03-07T07:40:24.480Z</time>
      </trkpt>
      <trkpt lat="42.18991" lon="24.68793">
        <ele>214.94775</ele>
        <time>2022-03-07T07:40:27.481Z</time>
      </trkpt>
      <trkpt lat="42.18999" lon="24.68781">
        <ele>214.984059</ele>
        <time>2022-03-07T07:40:30.475Z</time>
      </trkpt>
      <trkpt lat="42.19007" lon="24.68768">
        <ele>215.021123</ele>
        <time>2022-03-07T07:40:33.466Z</time>
      </trkpt>
      <trkpt lat="42.19015" lon="24.68755">
        <ele>215.060562</ele>
        <time>2022-03-07T07:40:36.482Z</time>
      </trkpt>
      <trkpt lat="42.19023" lon="24.68742">
        <ele>215.098682</ele>
        <time>2022-03-07T07:40:39.473Z</time>
      </trkpt>
      <trkpt lat="42.19032" lon="24.68729">
        <ele>215.137245</ele>
        <time>2022-03-07T07:40:42.496Z</time>
      </trkpt>
      <trkpt lat="42.1904" lon="24.68716">
        <ele>215.176685</ele>
        <time>2022-03-07T07:40:45.479Z</time>
      </trkpt>
      <trkpt lat="42.19047" lon="24.68707">
        <ele>215.204906</ele>
        <time>2022-03-07T07:40:47.468Z</time>
      </trkpt>
      <trkpt lat="42.19055" lon="24.68693">
        <ele>215.245082</ele>
        <time>2022-03-07T07:40:50.468Z</time>
      </trkpt>
      <trkpt lat="42.19061" lon="24.68684">
        <ele>215.272471</ele>
        <time>2022-03-07T07:40:52.473Z</time>
      </trkpt>
      <trkpt lat="42.1907" lon="24.68671">
        <ele>215.312713</ele>
        <time>2022-03-07T07:40:55.473Z</time>
      </trkpt>
      <trkpt lat="42.19076" lon="24.68662">
        <ele>215.340035</ele>
        <time>2022-03-07T07:40:57.470Z</time>
      </trkpt>
      <trkpt lat="42.19084" lon="24.68648">
        <ele>215.378544</ele>
        <time>2022-03-07T07:41:00.476Z</time>
      </trkpt>
      <trkpt lat="42.19093" lon="24.68635">
        <ele>215.403514</ele>
        <time>2022-03-07T07:41:03.485Z</time>
      </trkpt>
      <trkpt lat="42.19101" lon="24.68621">
        <ele>215.428664</ele>
        <time>2022-03-07T07:41:06.480Z</time>
      </trkpt>
      <trkpt lat="42.19108" lon="24.68612">
        <ele>215.446167</ele>
        <time>2022-03-07T07:41:08.470Z</time>
      </trkpt>
      <trkpt lat="42.19114" lon="24.68603">
        <ele>215.464548</ele>
        <time>2022-03-07T07:41:10.510Z</time>
      </trkpt>
      <trkpt lat="42.19123" lon="24.6859">
        <ele>215.490172</ele>
        <time>2022-03-07T07:41:13.472Z</time>
      </trkpt>
      <trkpt lat="42.19132" lon="24.68577">
        <ele>215.515828</ele>
        <time>2022-03-07T07:41:16.531Z</time>
      </trkpt>
      <trkpt lat="42.19141" lon="24.68563">
        <ele>215.540868</ele>
        <time>2022-03-07T07:41:19.467Z</time>
      </trkpt>
      <trkpt lat="42.19149" lon="24.6855">
        <ele>215.566224</ele>
        <time>2022-03-07T07:41:22.473Z</time>
      </trkpt>
      <trkpt lat="42.19157" lon="24.68537">
        <ele>215.589726</ele>
        <time>2022-03-07T07:41:25.482Z</time>
      </trkpt>
      <trkpt lat="42.19164" lon="24.68524">
        <ele>215.614142</ele>
        <time>2022-03-07T07:41:28.479Z</time>
      </trkpt>
      <trkpt lat="42.19172" lon="24.6851">
        <ele>215.638687</ele>
        <time>2022-03-07T07:41:31.479Z</time>
      </trkpt>
      <trkpt lat="42.1918" lon="24.68496">
        <ele>215.663438</ele>
        <time>2022-03-07T07:41:34.481Z</time>
      </trkpt>
      <trkpt lat="42.19188" lon="24.68484">
        <ele>215.686839</ele>
        <time>2022-03-07T07:41:37.479Z</time>
      </trkpt>
      <trkpt lat="42.19194" lon="24.68474">
        <ele>215.704382</ele>
        <time>2022-03-07T07:41:39.471Z</time>
      </trkpt>
      <trkpt lat="42.19202" lon="24.68461">
        <ele>215.758806</ele>
        <time>2022-03-07T07:41:42.476Z</time>
      </trkpt>
      <trkpt lat="42.19211" lon="24.68448">
        <ele>215.892544</ele>
        <time>2022-03-07T07:41:45.490Z</time>
      </trkpt>
      <trkpt lat="42.1922" lon="24.68435">
        <ele>216.030641</ele>
        <time>2022-03-07T07:41:48.478Z</time>
      </trkpt>
      <trkpt lat="42.19229" lon="24.68421">
        <ele>216.16978</ele>
        <time>2022-03-07T07:41:51.467Z</time>
      </trkpt>
      <trkpt lat="42.19235" lon="24.68412">
        <ele>216.263834</ele>
        <time>2022-03-07T07:41:53.457Z</time>
      </trkpt>
      <trkpt lat="42.19243" lon="24.68399">
        <ele>216.394179</ele>
        <time>2022-03-07T07:41:56.470Z</time>
      </trkpt>
      <trkpt lat="42.19251" lon="24.68386">
        <ele>216.523796</ele>
        <time>2022-03-07T07:41:59.465Z</time>
      </trkpt>
      <trkpt lat="42.19259" lon="24.68372">
        <ele>216.655807</ele>
        <time>2022-03-07T07:42:02.460Z</time>
      </trkpt>
      <trkpt lat="42.19266" lon="24.68359">
        <ele>216.78714</ele>
        <time>2022-03-07T07:42:05.458Z</time>
      </trkpt>
      <trkpt lat="42.19274" lon="24.68345">
        <ele>216.919197</ele>
        <time>2022-03-07T07:42:08.470Z</time>
      </trkpt>
      <trkpt lat="42.19283" lon="24.68332">
        <ele>217.05466</ele>
        <time>2022-03-07T07:42:11.486Z</time>
      </trkpt>
      <trkpt lat="42.1929" lon="24.68319">
        <ele>217.179339</ele>
        <time>2022-03-07T07:42:14.457Z</time>
      </trkpt>
      <trkpt lat="42.19298" lon="24.68307">
        <ele>217.305336</ele>
        <time>2022-03-07T07:42:17.516Z</time>
      </trkpt>
      <trkpt lat="42.19306" lon="24.68293">
        <ele>217.437451</ele>
        <time>2022-03-07T07:42:20.451Z</time>
      </trkpt>
      <trkpt lat="42.19315" lon="24.6828">
        <ele>217.573401</ele>
        <time>2022-03-07T07:42:23.471Z</time>
      </trkpt>
      <trkpt lat="42.19324" lon="24.68267">
        <ele>217.710981</ele>
        <time>2022-03-07T07:42:26.470Z</time>
      </trkpt>
      <trkpt lat="42.1933" lon="24.68258">
        <ele>217.808351</ele>
        <time>2022-03-07T07:42:28.505Z</time>
      </trkpt>
      <trkpt lat="42.19336" lon="24.68249">
        <ele>217.905325</ele>
        <time>2022-03-07T07:42:30.465Z</time>
      </trkpt>
      <trkpt lat="42.19344" lon="24.68237">
        <ele>218.033568</ele>
        <time>2022-03-07T07:42:33.470Z</time>
      </trkpt>
      <trkpt lat="42.19352" lon="24.68224">
        <ele>218.164061</ele>
        <time>2022-03-07T07:42:36.461Z</time>
      </trkpt>
      <trkpt lat="42.1936" lon="24.68212">
        <ele>218.294064</ele>
        <time>2022-03-07T07:42:39.502Z</time>
      </trkpt>
      <trkpt lat="42.19368" lon="24.682">
        <ele>218.419278</ele>
        <time>2022-03-07T07:42:42.475Z</time>
      </trkpt>
      <trkpt lat="42.19375" lon="24.68187">
        <ele>218.545769</ele>
        <time>2022-03-07T07:42:45.462Z</time>
      </trkpt>
      <trkpt lat="42.19384" lon="24.68175">
        <ele>218.675891</ele>
        <time>2022-03-07T07:42:48.486Z</time>
      </trkpt>
      <trkpt lat="42.19392" lon="24.68163">
        <ele>218.805304</ele>
        <time>2022-03-07T07:42:51.461Z</time>
      </trkpt>
      <trkpt lat="42.19399" lon="24.68149">
        <ele>218.937468</ele>
        <time>2022-03-07T07:42:54.493Z</time>
      </trkpt>
      <trkpt lat="42.19407" lon="24.68137">
        <ele>219.068477</ele>
        <time>2022-03-07T07:42:57.486Z</time>
      </trkpt>
      <trkpt lat="42.19416" lon="24.68124">
        <ele>219.202244</ele>
        <time>2022-03-07T07:43:00.475Z</time>
      </trkpt>
      <trkpt lat="42.19423" lon="24.68111">
        <ele>219.333184</ele>
        <time>2022-03-07T07:43:03.481Z</time>
      </trkpt>
      <trkpt lat="42.19432" lon="24.68099">
        <ele>219.463186</ele>
        <time>2022-03-07T07:43:06.482Z</time>
      </trkpt>
      <trkpt lat="42.1944" lon="24.68086">
        <ele>219.550846</ele>
        <time>2022-03-07T07:43:09.474Z</time>
      </trkpt>
      <trkpt lat="42.19448" lon="24.68072">
        <ele>219.627505</ele>
        <time>2022-03-07T07:43:12.514Z</time>
      </trkpt>
      <trkpt lat="42.19456" lon="24.68059">
        <ele>219.704314</ele>
        <time>2022-03-07T07:43:15.482Z</time>
      </trkpt>
      <trkpt lat="42.19465" lon="24.68046">
        <ele>219.782387</ele>
        <time>2022-03-07T07:43:18.503Z</time>
      </trkpt>
      <trkpt lat="42.19473" lon="24.68034">
        <ele>219.857416</ele>
        <time>2022-03-07T07:43:21.472Z</time>
      </trkpt>
      <trkpt lat="42.19481" lon="24.68021">
        <ele>219.931578</ele>
        <time>2022-03-07T07:43:24.476Z</time>
      </trkpt>
      <trkpt lat="42.19489" lon="24.68008">
        <ele>220.004048</ele>
        <time>2022-03-07T07:43:27.480Z</time>
      </trkpt>
      <trkpt lat="42.19497" lon="24.67995">
        <ele>220.079213</ele>
        <time>2022-03-07T07:43:30.461Z</time>
      </trkpt>
      <trkpt lat="42.19505" lon="24.67981">
        <ele>220.154776</ele>
        <time>2022-03-07T07:43:33.475Z</time>
      </trkpt>
      <trkpt lat="42.19511" lon="24.67972">
        <ele>220.20878</ele>
        <time>2022-03-07T07:43:35.465Z</time>
      </trkpt>
      <trkpt lat="42.1952" lon="24.67959">
        <ele>220.289039</ele>
        <time>2022-03-07T07:43:38.462Z</time>
      </trkpt>
      <trkpt lat="42.19526" lon="24.6795">
        <ele>220.343495</ele>
        <time>2022-03-07T07:43:40.500Z</time>
      </trkpt>
      <trkpt lat="42.19535" lon="24.67936">
        <ele>220.421492</ele>
        <time>2022-03-07T07:43:43.512Z</time>
      </trkpt>
      <trkpt lat="42.19543" lon="24.67924">
        <ele>220.497244</ele>
        <time>2022-03-07T07:43:46.494Z</time>
      </trkpt>
      <trkpt lat="42.19552" lon="24.67911">
        <ele>220.560186</ele>
        <time>2022-03-07T07:43:49.486Z</time>
      </trkpt>
      <trkpt lat="42.19561" lon="24.67898">
        <ele>220.503205</ele>
        <time>2022-03-07T07:43:52.514Z</time>
      </trkpt>
      <trkpt lat="42.19569" lon="24.67886">
        <ele>220.44779</ele>
        <time>2022-03-07T07:43:55.467Z</time>
      </trkpt>
      <trkpt lat="42.19578" lon="24.67872">
        <ele>220.391203</ele>
        <time>2022-03-07T07:43:58.473Z</time>
      </trkpt>
      <trkpt lat="42.19586" lon="24.67859">
        <ele>220.335374</ele>
        <time>2022-03-07T07:44:01.464Z</time>
      </trkpt>
      <trkpt lat="42.19594" lon="24.67847">
        <ele>220.282119</ele>
        <time>2022-03-07T07:44:04.463Z</time>
      </trkpt>
      <trkpt lat="42.19601" lon="24.67835">
        <ele>220.228689</ele>
        <time>2022-03-07T07:44:07.473Z</time>
      </trkpt>
      <trkpt lat="42.19609" lon="24.67822">
        <ele>220.174546</ele>
        <time>2022-03-07T07:44:10.468Z</time>
      </trkpt>
      <trkpt lat="42.19616" lon="24.6781">
        <ele>220.122369</ele>
        <time>2022-03-07T07:44:13.485Z</time>
      </trkpt>
      <trkpt lat="42.19624" lon="24.67798">
        <ele>220.070687</ele>
        <time>2022-03-07T07:44:16.461Z</time>
      </trkpt>
      <trkpt lat="42.19632" lon="24.67786">
        <ele>220.019685</ele>
        <time>2022-03-07T07:44:19.473Z</time>
      </trkpt>
      <trkpt lat="42.19639" lon="24.67775">
        <ele>219.970535</ele>
        <time>2022-03-07T07:44:22.468Z</time>
      </trkpt>
      <trkpt lat="42.19646" lon="24.67763">
        <ele>219.919885</ele>
        <time>2022-03-07T07:44:25.475Z</time>
      </trkpt>
      <trkpt lat="42.19654" lon="24.67751">
        <ele>219.865634</ele>
        <time>2022-03-07T07:44:28.525Z</time>
      </trkpt>
      <trkpt lat="42.19661" lon="24.67741">
        <ele>219.823188</ele>
        <time>2022-03-07T07:44:30.462Z</time>
      </trkpt>
      <trkpt lat="42.1967" lon="24.67728">
        <ele>219.753267</ele>
        <time>2022-03-07T07:44:33.508Z</time>
      </trkpt>
      <trkpt lat="42.19678" lon="24.67714">
        <ele>219.519387</ele>
        <time>2022-03-07T07:44:36.517Z</time>
      </trkpt>
      <trkpt lat="42.19686" lon="24.677">
        <ele>219.284166</ele>
        <time>2022-03-07T07:44:39.468Z</time>
      </trkpt>
      <trkpt lat="42.19692" lon="24.67683">
        <ele>219.05193</ele>
        <time>2022-03-07T07:44:42.475Z</time>
      </trkpt>
      <trkpt lat="42.19695" lon="24.67672">
        <ele>218.890315</ele>
        <time>2022-03-07T07:44:44.505Z</time>
      </trkpt>
      <trkpt lat="42.19696" lon="24.67654">
        <ele>218.663966</ele>
        <time>2022-03-07T07:44:47.493Z</time>
      </trkpt>
      <trkpt lat="42.19696" lon="24.67638">
        <ele>218.454379</ele>
        <time>2022-03-07T07:44:50.459Z</time>
      </trkpt>
      <trkpt lat="42.19697" lon="24.67621">
        <ele>218.235786</ele>
        <time>2022-03-07T07:44:53.516Z</time>
      </trkpt>
      <trkpt lat="42.19703" lon="24.67605">
        <ele>217.995154</ele>
        <time>2022-03-07T07:44:56.446Z</time>
      </trkpt>
      <trkpt lat="42.19711" lon="24.67598">
        <ele>217.836498</ele>
        <time>2022-03-07T07:44:58.515Z</time>
      </trkpt>
      <trkpt lat="42.19724" lon="24.67592">
        <ele>217.598183</ele>
        <time>2022-03-07T07:45:01.463Z</time>
      </trkpt>
      <trkpt lat="42.19735" lon="24.67585">
        <ele>217.368081</ele>
        <time>2022-03-07T07:45:04.485Z</time>
      </trkpt>
      <trkpt lat="42.19746" lon="24.67576">
        <ele>217.15576</ele>
        <time>2022-03-07T07:45:07.478Z</time>
      </trkpt>
      <trkpt lat="42.19756" lon="24.67567">
        <ele>216.938891</ele>
        <time>2022-03-07T07:45:10.465Z</time>
      </trkpt>
      <trkpt lat="42.19766" lon="24.67557">
        <ele>216.720515</ele>
        <time>2022-03-07T07:45:13.477Z</time>
      </trkpt>
      <trkpt lat="42.19776" lon="24.67547">
        <ele>216.652853</ele>
        <time>2022-03-07T07:45:16.457Z</time>
      </trkpt>
      <trkpt lat="42.19785" lon="24.67537">
        <ele>216.742156</ele>
        <time>2022-03-07T07:45:19.460Z</time>
      </trkpt>
      <trkpt lat="42.19794" lon="24.67527">
        <ele>216.828855</ele>
        <time>2022-03-07T07:45:22.446Z</time>
      </trkpt>
      <trkpt lat="42.19803" lon="24.67516">
        <ele>216.915466</ele>
        <time>2022-03-07T07:45:25.476Z</time>
      </trkpt>
      <trkpt lat="42.19812" lon="24.67504">
        <ele>217.004429</ele>
        <time>2022-03-07T07:45:28.463Z</time>
      </trkpt>
      <trkpt lat="42.1982" lon="24.67491">
        <ele>217.097652</ele>
        <time>2022-03-07T07:45:31.485Z</time>
      </trkpt>
      <trkpt lat="42.19828" lon="24.67478">
        <ele>217.191882</ele>
        <time>2022-03-07T07:45:34.478Z</time>
      </trkpt>
      <trkpt lat="42.19837" lon="24.67464">
        <ele>217.28617</ele>
        <time>2022-03-07T07:45:37.473Z</time>
      </trkpt>
      <trkpt lat="42.19845" lon="24.67451">
        <ele>217.380399</ele>
        <time>2022-03-07T07:45:40.474Z</time>
      </trkpt>
      <trkpt lat="42.19853" lon="24.67438">
        <ele>217.471158</ele>
        <time>2022-03-07T07:45:43.503Z</time>
      </trkpt>
      <trkpt lat="42.19862" lon="24.67425">
        <ele>217.56616</ele>
        <time>2022-03-07T07:45:46.472Z</time>
      </trkpt>
      <trkpt lat="42.19868" lon="24.67416">
        <ele>217.632285</ele>
        <time>2022-03-07T07:45:48.459Z</time>
      </trkpt>
      <trkpt lat="42.19876" lon="24.67402">
        <ele>217.724251</ele>
        <time>2022-03-07T07:45:51.486Z</time>
      </trkpt>
      <trkpt lat="42.19884" lon="24.6739">
        <ele>217.812834</ele>
        <time>2022-03-07T07:45:54.473Z</time>
      </trkpt>
      <trkpt lat="42.19892" lon="24.67377">
        <ele>217.905895</ele>
        <time>2022-03-07T07:45:57.463Z</time>
      </trkpt>
      <trkpt lat="42.199" lon="24.67363">
        <ele>217.906959</ele>
        <time>2022-03-07T07:46:00.491Z</time>
      </trkpt>
      <trkpt lat="42.19909" lon="24.6735">
        <ele>217.890896</ele>
        <time>2022-03-07T07:46:03.485Z</time>
      </trkpt>
      <trkpt lat="42.19918" lon="24.67337">
        <ele>217.875422</ele>
        <time>2022-03-07T07:46:06.516Z</time>
      </trkpt>
      <trkpt lat="42.19925" lon="24.67324">
        <ele>217.860118</ele>
        <time>2022-03-07T07:46:09.470Z</time>
      </trkpt>
      <trkpt lat="42.19934" lon="24.6731">
        <ele>217.844003</ele>
        <time>2022-03-07T07:46:12.503Z</time>
      </trkpt>
      <trkpt lat="42.19942" lon="24.67296">
        <ele>217.827781</ele>
        <time>2022-03-07T07:46:15.470Z</time>
      </trkpt>
      <trkpt lat="42.19948" lon="24.67287">
        <ele>217.816769</ele>
        <time>2022-03-07T07:46:17.472Z</time>
      </trkpt>
      <trkpt lat="42.19957" lon="24.67273">
        <ele>217.800332</ele>
        <time>2022-03-07T07:46:20.477Z</time>
      </trkpt>
      <trkpt lat="42.19963" lon="24.67264">
        <ele>217.789332</ele>
        <time>2022-03-07T07:46:22.487Z</time>
      </trkpt>
      <trkpt lat="42.19973" lon="24.67251">
        <ele>217.773077</ele>
        <time>2022-03-07T07:46:25.479Z</time>
      </trkpt>
      <trkpt lat="42.19981" lon="24.67237">
        <ele>217.75715</ele>
        <time>2022-03-07T07:46:28.484Z</time>
      </trkpt>
      <trkpt lat="42.19987" lon="24.67228">
        <ele>217.746218</ele>
        <time>2022-03-07T07:46:30.462Z</time>
      </trkpt>
      <trkpt lat="42.19996" lon="24.67215">
        <ele>217.730164</ele>
        <time>2022-03-07T07:46:33.477Z</time>
      </trkpt>
      <trkpt lat="42.20002" lon="24.67205">
        <ele>217.719165</ele>
        <time>2022-03-07T07:46:35.459Z</time>
      </trkpt>
      <trkpt lat="42.2001" lon="24.67192">
        <ele>217.703404</ele>
        <time>2022-03-07T07:46:38.482Z</time>
      </trkpt>
      <trkpt lat="42.20019" lon="24.67179">
        <ele>217.90905</ele>
        <time>2022-03-07T07:46:41.498Z</time>
      </trkpt>
      <trkpt lat="42.20025" lon="24.67169">
        <ele>218.065796</ele>
        <time>2022-03-07T07:46:43.459Z</time>
      </trkpt>
      <trkpt lat="42.20031" lon="24.6716">
        <ele>218.221276</ele>
        <time>2022-03-07T07:46:45.514Z</time>
      </trkpt>
      <trkpt lat="42.20039" lon="24.67146">
        <ele>218.446496</ele>
        <time>2022-03-07T07:46:48.456Z</time>
      </trkpt>
      <trkpt lat="42.20047" lon="24.67132">
        <ele>218.661565</ele>
        <time>2022-03-07T07:46:51.483Z</time>
      </trkpt>
      <trkpt lat="42.20055" lon="24.67119">
        <ele>218.87584</ele>
        <time>2022-03-07T07:46:54.479Z</time>
      </trkpt>
      <trkpt lat="42.20063" lon="24.67106">
        <ele>219.085339</ele>
        <time>2022-03-07T07:46:57.462Z</time>
      </trkpt>
      <trkpt lat="42.20072" lon="24.67094">
        <ele>219.297936</ele>
        <time>2022-03-07T07:47:00.483Z</time>
      </trkpt>
      <trkpt lat="42.2008" lon="24.67082">
        <ele>219.501294</ele>
        <time>2022-03-07T07:47:03.478Z</time>
      </trkpt>
      <trkpt lat="42.20087" lon="24.6707">
        <ele>219.689669</ele>
        <time>2022-03-07T07:47:06.473Z</time>
      </trkpt>
      <trkpt lat="42.20094" lon="24.6706">
        <ele>219.866469</ele>
        <time>2022-03-07T07:47:09.492Z</time>
      </trkpt>
      <trkpt lat="42.20101" lon="24.6705">
        <ele>220.027921</ele>
        <time>2022-03-07T07:47:12.455Z</time>
      </trkpt>
      <trkpt lat="42.20108" lon="24.67038">
        <ele>220.227191</ele>
        <time>2022-03-07T07:47:16.454Z</time>
      </trkpt>
      <trkpt lat="42.20116" lon="24.67026">
        <ele>220.418561</ele>
        <time>2022-03-07T07:47:20.496Z</time>
      </trkpt>
      <trkpt lat="42.20123" lon="24.67016">
        <ele>220.600641</ele>
        <time>2022-03-07T07:47:24.472Z</time>
      </trkpt>
      <trkpt lat="42.2013" lon="24.67005">
        <ele>220.803329</ele>
        <time>2022-03-07T07:47:28.486Z</time>
      </trkpt>
      <trkpt lat="42.20137" lon="24.66996">
        <ele>221.053016</ele>
        <time>2022-03-07T07:47:32.486Z</time>
      </trkpt>
      <trkpt lat="42.20144" lon="24.66986">
        <ele>221.308894</ele>
        <time>2022-03-07T07:47:36.476Z</time>
      </trkpt>
      <trkpt lat="42.20152" lon="24.66976">
        <ele>221.559999</ele>
        <time>2022-03-07T07:47:40.516Z</time>
      </trkpt>
      <trkpt lat="42.20158" lon="24.66966">
        <ele>221.810006</ele>
        <time>2022-03-07T07:47:44.476Z</time>
      </trkpt>
      <trkpt lat="42.20166" lon="24.66959">
        <ele>222.046317</ele>
        <time>2022-03-07T07:47:48.477Z</time>
      </trkpt>
      <trkpt lat="42.20174" lon="24.6695">
        <ele>222.305703</ele>
        <time>2022-03-07T07:47:52.497Z</time>
      </trkpt>
      <trkpt lat="42.20181" lon="24.66943">
        <ele>222.543139</ele>
        <time>2022-03-07T07:47:56.482Z</time>
      </trkpt>
      <trkpt lat="42.2019" lon="24.66933">
        <ele>222.829156</ele>
        <time>2022-03-07T07:48:00.455Z</time>
      </trkpt>
      <trkpt lat="42.20199" lon="24.66924">
        <ele>223.100875</ele>
        <time>2022-03-07T07:48:04.480Z</time>
      </trkpt>
      <trkpt lat="42.20205" lon="24.66916">
        <ele>223.326943</ele>
        <time>2022-03-07T07:48:07.477Z</time>
      </trkpt>
      <trkpt lat="42.20213" lon="24.66906">
        <ele>223.600418</ele>
        <time>2022-03-07T07:48:11.452Z</time>
      </trkpt>
      <trkpt lat="42.20222" lon="24.66897">
        <ele>223.879749</ele>
        <time>2022-03-07T07:48:15.492Z</time>
      </trkpt>
      <trkpt lat="42.20231" lon="24.66888">
        <ele>224.157083</ele>
        <time>2022-03-07T07:48:19.513Z</time>
      </trkpt>
      <trkpt lat="42.2024" lon="24.66878">
        <ele>224.455227</ele>
        <time>2022-03-07T07:48:23.476Z</time>
      </trkpt>
      <trkpt lat="42.20247" lon="24.66871">
        <ele>224.685138</ele>
        <time>2022-03-07T07:48:26.477Z</time>
      </trkpt>
      <trkpt lat="42.20255" lon="24.66863">
        <ele>224.921716</ele>
        <time>2022-03-07T07:48:29.470Z</time>
      </trkpt>
      <trkpt lat="42.20262" lon="24.66854">
        <ele>225.168048</ele>
        <time>2022-03-07T07:48:32.481Z</time>
      </trkpt>
      <trkpt lat="42.2027" lon="24.66845">
        <ele>225.12162</ele>
        <time>2022-03-07T07:48:35.464Z</time>
      </trkpt>
      <trkpt lat="42.20279" lon="24.66834">
        <ele>224.870029</ele>
        <time>2022-03-07T07:48:38.465Z</time>
      </trkpt>
      <trkpt lat="42.20288" lon="24.66822">
        <ele>224.604897</ele>
        <time>2022-03-07T07:48:41.523Z</time>
      </trkpt>
      <trkpt lat="42.20293" lon="24.66812">
        <ele>224.40905</ele>
        <time>2022-03-07T07:48:43.461Z</time>
      </trkpt>
      <trkpt lat="42.203" lon="24.66801">
        <ele>224.182523</ele>
        <time>2022-03-07T07:48:45.484Z</time>
      </trkpt>
      <trkpt lat="42.20306" lon="24.66788">
        <ele>223.941908</ele>
        <time>2022-03-07T07:48:47.516Z</time>
      </trkpt>
      <trkpt lat="42.20312" lon="24.66776">
        <ele>223.710376</ele>
        <time>2022-03-07T07:48:49.462Z</time>
      </trkpt>
      <trkpt lat="42.20317" lon="24.66762">
        <ele>223.452483</ele>
        <time>2022-03-07T07:48:51.475Z</time>
      </trkpt>
      <trkpt lat="42.20323" lon="24.66747">
        <ele>223.18202</ele>
        <time>2022-03-07T07:48:53.485Z</time>
      </trkpt>
      <trkpt lat="42.20329" lon="24.66732">
        <ele>222.913041</ele>
        <time>2022-03-07T07:48:55.479Z</time>
      </trkpt>
      <trkpt lat="42.20332" lon="24.66717">
        <ele>222.662088</ele>
        <time>2022-03-07T07:48:57.484Z</time>
      </trkpt>
      <trkpt lat="42.20336" lon="24.667">
        <ele>222.391823</ele>
        <time>2022-03-07T07:48:59.522Z</time>
      </trkpt>
      <trkpt lat="42.2034" lon="24.66683">
        <ele>222.109653</ele>
        <time>2022-03-07T07:49:01.474Z</time>
      </trkpt>
      <trkpt lat="42.20342" lon="24.66667">
        <ele>221.840082</ele>
        <time>2022-03-07T07:49:03.479Z</time>
      </trkpt>
      <trkpt lat="42.20345" lon="24.66649">
        <ele>221.555839</ele>
        <time>2022-03-07T07:49:05.473Z</time>
      </trkpt>
      <trkpt lat="42.20346" lon="24.66632">
        <ele>221.336739</ele>
        <time>2022-03-07T07:49:07.469Z</time>
      </trkpt>
      <trkpt lat="42.20347" lon="24.66616">
        <ele>221.191181</ele>
        <time>2022-03-07T07:49:09.505Z</time>
      </trkpt>
      <trkpt lat="42.20348" lon="24.666">
        <ele>221.052294</ele>
        <time>2022-03-07T07:49:11.484Z</time>
      </trkpt>
      <trkpt lat="42.20348" lon="24.66584">
        <ele>220.915096</ele>
        <time>2022-03-07T07:49:13.509Z</time>
      </trkpt>
      <trkpt lat="42.20349" lon="24.66571">
        <ele>220.798542</ele>
        <time>2022-03-07T07:49:15.471Z</time>
      </trkpt>
      <trkpt lat="42.2035" lon="24.66557">
        <ele>220.678696</ele>
        <time>2022-03-07T07:49:17.474Z</time>
      </trkpt>
      <trkpt lat="42.2035" lon="24.66544">
        <ele>220.565189</ele>
        <time>2022-03-07T07:49:19.463Z</time>
      </trkpt>
      <trkpt lat="42.2035" lon="24.66532">
        <ele>220.459564</ele>
        <time>2022-03-07T07:49:21.478Z</time>
      </trkpt>
      <trkpt lat="42.20351" lon="24.6652">
        <ele>220.353861</ele>
        <time>2022-03-07T07:49:23.474Z</time>
      </trkpt>
      <trkpt lat="42.20352" lon="24.66507">
        <ele>220.241262</ele>
        <time>2022-03-07T07:49:25.480Z</time>
      </trkpt>
      <trkpt lat="42.20353" lon="24.66494">
        <ele>220.130239</ele>
        <time>2022-03-07T07:49:27.453Z</time>
      </trkpt>
      <trkpt lat="42.20355" lon="24.66481">
        <ele>220.016092</ele>
        <time>2022-03-07T07:49:29.470Z</time>
      </trkpt>
      <trkpt lat="42.20357" lon="24.66469">
        <ele>219.905818</ele>
        <time>2022-03-07T07:49:31.481Z</time>
      </trkpt>
      <trkpt lat="42.20359" lon="24.66457">
        <ele>219.797932</ele>
        <time>2022-03-07T07:49:33.482Z</time>
      </trkpt>
      <trkpt lat="42.20361" lon="24.66445">
        <ele>219.692291</ele>
        <time>2022-03-07T07:49:35.485Z</time>
      </trkpt>
      <trkpt lat="42.20365" lon="24.66428">
        <ele>219.536978</ele>
        <time>2022-03-07T07:49:38.511Z</time>
      </trkpt>
      <trkpt lat="42.20368" lon="24.66417">
        <ele>219.430537</ele>
        <time>2022-03-07T07:49:40.483Z</time>
      </trkpt>
      <trkpt lat="42.20374" lon="24.66401">
        <ele>219.288787</ele>
        <time>2022-03-07T07:49:43.503Z</time>
      </trkpt>
      <trkpt lat="42.20377" lon="24.6639">
        <ele>219.370487</ele>
        <time>2022-03-07T07:49:45.459Z</time>
      </trkpt>
      <trkpt lat="42.2038" lon="24.66378">
        <ele>219.455083</ele>
        <time>2022-03-07T07:49:47.467Z</time>
      </trkpt>
      <trkpt lat="42.20384" lon="24.66367">
        <ele>219.537718</ele>
        <time>2022-03-07T07:49:49.516Z</time>
      </trkpt>
      <trkpt lat="42.20388" lon="24.66356">
        <ele>219.61959</ele>
        <time>2022-03-07T07:49:51.471Z</time>
      </trkpt>
      <trkpt lat="42.20394" lon="24.66339">
        <ele>219.74228</ele>
        <time>2022-03-07T07:49:54.474Z</time>
      </trkpt>
      <trkpt lat="42.20398" lon="24.66328">
        <ele>219.82792</ele>
        <time>2022-03-07T07:49:56.464Z</time>
      </trkpt>
      <trkpt lat="42.20403" lon="24.66317">
        <ele>219.913107</ele>
        <time>2022-03-07T07:49:58.496Z</time>
      </trkpt>
      <trkpt lat="42.20407" lon="24.66306">
        <ele>219.995424</ele>
        <time>2022-03-07T07:50:00.533Z</time>
      </trkpt>
      <trkpt lat="42.20413" lon="24.6629">
        <ele>220.114636</ele>
        <time>2022-03-07T07:50:03.484Z</time>
      </trkpt>
      <trkpt lat="42.20419" lon="24.66275">
        <ele>220.235329</ele>
        <time>2022-03-07T07:50:06.492Z</time>
      </trkpt>
      <trkpt lat="42.20426" lon="24.66259">
        <ele>220.35293</ele>
        <time>2022-03-07T07:50:09.490Z</time>
      </trkpt>
      <trkpt lat="42.20432" lon="24.66244">
        <ele>220.468779</ele>
        <time>2022-03-07T07:50:12.476Z</time>
      </trkpt>
      <trkpt lat="42.20438" lon="24.66229">
        <ele>220.585817</ele>
        <time>2022-03-07T07:50:15.472Z</time>
      </trkpt>
      <trkpt lat="42.20443" lon="24.66213">
        <ele>220.701418</ele>
        <time>2022-03-07T07:50:18.481Z</time>
      </trkpt>
      <trkpt lat="42.20449" lon="24.66198">
        <ele>220.815202</ele>
        <time>2022-03-07T07:50:21.485Z</time>
      </trkpt>
      <trkpt lat="42.20454" lon="24.66183">
        <ele>220.908094</ele>
        <time>2022-03-07T07:50:24.470Z</time>
      </trkpt>
      <trkpt lat="42.2046" lon="24.66168">
        <ele>220.796733</ele>
        <time>2022-03-07T07:50:27.473Z</time>
      </trkpt>
      <trkpt lat="42.20467" lon="24.66153">
        <ele>220.681418</ele>
        <time>2022-03-07T07:50:30.484Z</time>
      </trkpt>
      <trkpt lat="42.20473" lon="24.66138">
        <ele>220.571484</ele>
        <time>2022-03-07T07:50:33.502Z</time>
      </trkpt>
      <trkpt lat="42.20479" lon="24.66123">
        <ele>220.459544</ele>
        <time>2022-03-07T07:50:36.466Z</time>
      </trkpt>
      <trkpt lat="42.20485" lon="24.66108">
        <ele>220.348665</ele>
        <time>2022-03-07T07:50:39.472Z</time>
      </trkpt>
      <trkpt lat="42.20491" lon="24.66094">
        <ele>220.241752</ele>
        <time>2022-03-07T07:50:42.476Z</time>
      </trkpt>
      <trkpt lat="42.20497" lon="24.66079">
        <ele>220.133835</ele>
        <time>2022-03-07T07:50:45.456Z</time>
      </trkpt>
      <trkpt lat="42.20502" lon="24.66063">
        <ele>220.020388</ele>
        <time>2022-03-07T07:50:48.506Z</time>
      </trkpt>
      <trkpt lat="42.20507" lon="24.66047">
        <ele>219.902468</ele>
        <time>2022-03-07T07:50:51.476Z</time>
      </trkpt>
      <trkpt lat="42.20512" lon="24.66031">
        <ele>219.788546</ele>
        <time>2022-03-07T07:50:54.471Z</time>
      </trkpt>
      <trkpt lat="42.20518" lon="24.66016">
        <ele>219.677096</ele>
        <time>2022-03-07T07:50:57.479Z</time>
      </trkpt>
      <trkpt lat="42.20524" lon="24.66001">
        <ele>219.568045</ele>
        <time>2022-03-07T07:51:00.480Z</time>
      </trkpt>
      <trkpt lat="42.2053" lon="24.65986">
        <ele>219.457841</ele>
        <time>2022-03-07T07:51:03.466Z</time>
      </trkpt>
      <trkpt lat="42.20536" lon="24.65971">
        <ele>219.347957</ele>
        <time>2022-03-07T07:51:06.517Z</time>
      </trkpt>
      <trkpt lat="42.20542" lon="24.65956">
        <ele>219.336812</ele>
        <time>2022-03-07T07:51:09.480Z</time>
      </trkpt>
      <trkpt lat="42.20548" lon="24.65941">
        <ele>219.338061</ele>
        <time>2022-03-07T07:51:12.471Z</time>
      </trkpt>
      <trkpt lat="42.20554" lon="24.65926">
        <ele>219.339289</ele>
        <time>2022-03-07T07:51:15.478Z</time>
      </trkpt>
      <trkpt lat="42.20559" lon="24.65911">
        <ele>219.340482</ele>
        <time>2022-03-07T07:51:18.475Z</time>
      </trkpt>
      <trkpt lat="42.20565" lon="24.65896">
        <ele>219.341661</ele>
        <time>2022-03-07T07:51:21.477Z</time>
      </trkpt>
      <trkpt lat="42.20571" lon="24.65882">
        <ele>219.342829</ele>
        <time>2022-03-07T07:51:24.474Z</time>
      </trkpt>
      <trkpt lat="42.20576" lon="24.65867">
        <ele>219.343978</ele>
        <time>2022-03-07T07:51:27.475Z</time>
      </trkpt>
      <trkpt lat="42.20581" lon="24.65853">
        <ele>219.345126</ele>
        <time>2022-03-07T07:51:30.477Z</time>
      </trkpt>
      <trkpt lat="42.20586" lon="24.65839">
        <ele>219.346183</ele>
        <time>2022-03-07T07:51:33.482Z</time>
      </trkpt>
      <trkpt lat="42.20591" lon="24.65825">
        <ele>219.347303</ele>
        <time>2022-03-07T07:51:36.477Z</time>
      </trkpt>
      <trkpt lat="42.20596" lon="24.65811">
        <ele>219.348458</ele>
        <time>2022-03-07T07:51:39.499Z</time>
      </trkpt>
      <trkpt lat="42.20602" lon="24.65796">
        <ele>219.349654</ele>
        <time>2022-03-07T07:51:42.474Z</time>
      </trkpt>
      <trkpt lat="42.20608" lon="24.65781">
        <ele>219.350861</ele>
        <time>2022-03-07T07:51:45.511Z</time>
      </trkpt>
      <trkpt lat="42.20614" lon="24.65765">
        <ele>219.352133</ele>
        <time>2022-03-07T07:51:48.484Z</time>
      </trkpt>
      <trkpt lat="42.2062" lon="24.6575">
        <ele>219.40666</ele>
        <time>2022-03-07T07:51:51.472Z</time>
      </trkpt>
      <trkpt lat="42.20626" lon="24.65735">
        <ele>219.639861</ele>
        <time>2022-03-07T07:51:54.455Z</time>
      </trkpt>
      <trkpt lat="42.20632" lon="24.6572">
        <ele>219.867626</ele>
        <time>2022-03-07T07:51:57.510Z</time>
      </trkpt>
      <trkpt lat="42.20637" lon="24.65705">
        <ele>220.099547</ele>
        <time>2022-03-07T07:52:00.447Z</time>
      </trkpt>
      <trkpt lat="42.20643" lon="24.6569">
        <ele>220.340217</ele>
        <time>2022-03-07T07:52:03.476Z</time>
      </trkpt>
      <trkpt lat="42.20649" lon="24.65675">
        <ele>220.57463</ele>
        <time>2022-03-07T07:52:06.479Z</time>
      </trkpt>
      <trkpt lat="42.20655" lon="24.65659">
        <ele>220.80773</ele>
        <time>2022-03-07T07:52:09.473Z</time>
      </trkpt>
      <trkpt lat="42.20661" lon="24.65646">
        <ele>221.024352</ele>
        <time>2022-03-07T07:52:12.473Z</time>
      </trkpt>
      <trkpt lat="42.20667" lon="24.65632">
        <ele>221.253051</ele>
        <time>2022-03-07T07:52:15.488Z</time>
      </trkpt>
      <trkpt lat="42.20673" lon="24.65616">
        <ele>221.487801</ele>
        <time>2022-03-07T07:52:18.505Z</time>
      </trkpt>
      <trkpt lat="42.20678" lon="24.65601">
        <ele>221.715673</ele>
        <time>2022-03-07T07:52:21.461Z</time>
      </trkpt>
      <trkpt lat="42.20683" lon="24.65586">
        <ele>221.948553</ele>
        <time>2022-03-07T07:52:24.492Z</time>
      </trkpt>
      <trkpt lat="42.20687" lon="24.65571">
        <ele>222.170681</ele>
        <time>2022-03-07T07:52:27.480Z</time>
      </trkpt>
      <trkpt lat="42.20692" lon="24.65557">
        <ele>222.377217</ele>
        <time>2022-03-07T07:52:30.473Z</time>
      </trkpt>
      <trkpt lat="42.20697" lon="24.65543">
        <ele>222.588587</ele>
        <time>2022-03-07T07:52:33.481Z</time>
      </trkpt>
      <trkpt lat="42.20703" lon="24.65529">
        <ele>222.569487</ele>
        <time>2022-03-07T07:52:36.481Z</time>
      </trkpt>
      <trkpt lat="42.20709" lon="24.65515">
        <ele>222.345589</ele>
        <time>2022-03-07T07:52:39.464Z</time>
      </trkpt>
      <trkpt lat="42.20715" lon="24.655">
        <ele>222.119676</ele>
        <time>2022-03-07T07:52:42.484Z</time>
      </trkpt>
      <trkpt lat="42.2072" lon="24.65485">
        <ele>221.911623</ele>
        <time>2022-03-07T07:52:45.471Z</time>
      </trkpt>
      <trkpt lat="42.20724" lon="24.6547">
        <ele>221.699106</ele>
        <time>2022-03-07T07:52:48.472Z</time>
      </trkpt>
      <trkpt lat="42.20727" lon="24.65454">
        <ele>221.479101</ele>
        <time>2022-03-07T07:52:51.473Z</time>
      </trkpt>
      <trkpt lat="42.2073" lon="24.65438">
        <ele>221.259438</ele>
        <time>2022-03-07T07:52:54.513Z</time>
      </trkpt>
      <trkpt lat="42.20731" lon="24.6542">
        <ele>221.018971</ele>
        <time>2022-03-07T07:52:57.480Z</time>
      </trkpt>
      <trkpt lat="42.20731" lon="24.65403">
        <ele>220.789704</ele>
        <time>2022-03-07T07:53:00.478Z</time>
      </trkpt>
      <trkpt lat="42.20733" lon="24.65385">
        <ele>220.555809</ele>
        <time>2022-03-07T07:53:03.464Z</time>
      </trkpt>
      <trkpt lat="42.20735" lon="24.65373">
        <ele>220.390315</ele>
        <time>2022-03-07T07:53:05.514Z</time>
      </trkpt>
      <trkpt lat="42.20736" lon="24.65356">
        <ele>220.166277</ele>
        <time>2022-03-07T07:53:08.469Z</time>
      </trkpt>
      <trkpt lat="42.20737" lon="24.65339">
        <ele>219.937999</ele>
        <time>2022-03-07T07:53:11.507Z</time>
      </trkpt>
      <trkpt lat="42.20739" lon="24.65322">
        <ele>219.712786</ele>
        <time>2022-03-07T07:53:14.476Z</time>
      </trkpt>
      <trkpt lat="42.20742" lon="24.65305">
        <ele>219.481271</ele>
        <time>2022-03-07T07:53:17.526Z</time>
      </trkpt>
      <trkpt lat="42.20745" lon="24.65289">
        <ele>219.565499</ele>
        <time>2022-03-07T07:53:20.481Z</time>
      </trkpt>
      <trkpt lat="42.20748" lon="24.65273">
        <ele>219.664154</ele>
        <time>2022-03-07T07:53:23.499Z</time>
      </trkpt>
      <trkpt lat="42.20751" lon="24.65257">
        <ele>219.764955</ele>
        <time>2022-03-07T07:53:26.480Z</time>
      </trkpt>
      <trkpt lat="42.20754" lon="24.6524">
        <ele>219.868882</ele>
        <time>2022-03-07T07:53:29.471Z</time>
      </trkpt>
      <trkpt lat="42.20757" lon="24.65223">
        <ele>219.972241</ele>
        <time>2022-03-07T07:53:32.467Z</time>
      </trkpt>
      <trkpt lat="42.20761" lon="24.65208">
        <ele>220.070875</ele>
        <time>2022-03-07T07:53:35.482Z</time>
      </trkpt>
      <trkpt lat="42.20764" lon="24.65191">
        <ele>220.175209</ele>
        <time>2022-03-07T07:53:38.480Z</time>
      </trkpt>
      <trkpt lat="42.20767" lon="24.65174">
        <ele>220.279928</ele>
        <time>2022-03-07T07:53:41.467Z</time>
      </trkpt>
      <trkpt lat="42.20771" lon="24.65157">
        <ele>220.387119</ele>
        <time>2022-03-07T07:53:44.473Z</time>
      </trkpt>
      <trkpt lat="42.20775" lon="24.65141">
        <ele>220.493275</ele>
        <time>2022-03-07T07:53:47.476Z</time>
      </trkpt>
      <trkpt lat="42.20777" lon="24.65129">
        <ele>220.56656</ele>
        <time>2022-03-07T07:53:49.486Z</time>
      </trkpt>
      <trkpt lat="42.2078" lon="24.65112">
        <ele>220.669998</ele>
        <time>2022-03-07T07:53:52.467Z</time>
      </trkpt>
      <trkpt lat="42.20782" lon="24.65096">
        <ele>220.770755</ele>
        <time>2022-03-07T07:53:55.512Z</time>
      </trkpt>
      <trkpt lat="42.20785" lon="24.65078">
        <ele>220.879959</ele>
        <time>2022-03-07T07:53:58.473Z</time>
      </trkpt>
      <trkpt lat="42.20788" lon="24.65061">
        <ele>220.992321</ele>
        <time>2022-03-07T07:54:01.511Z</time>
      </trkpt>
      <trkpt lat="42.2079" lon="24.65049">
        <ele>221.080457</ele>
        <time>2022-03-07T07:54:03.482Z</time>
      </trkpt>
      <trkpt lat="42.20794" lon="24.65032">
        <ele>221.206917</ele>
        <time>2022-03-07T07:54:06.472Z</time>
      </trkpt>
      <trkpt lat="42.20798" lon="24.65016">
        <ele>221.325601</ele>
        <time>2022-03-07T07:54:09.476Z</time>
      </trkpt>
      <trkpt lat="42.20801" lon="24.65">
        <ele>221.446764</ele>
        <time>2022-03-07T07:54:12.523Z</time>
      </trkpt>
      <trkpt lat="42.20804" lon="24.64983">
        <ele>221.570232</ele>
        <time>2022-03-07T07:54:15.463Z</time>
      </trkpt>
      <trkpt lat="42.20808" lon="24.64967">
        <ele>221.690501</ele>
        <time>2022-03-07T07:54:18.500Z</time>
      </trkpt>
      <trkpt lat="42.20815" lon="24.64952">
        <ele>221.812728</ele>
        <time>2022-03-07T07:54:21.477Z</time>
      </trkpt>
      <trkpt lat="42.20821" lon="24.64938">
        <ele>221.933021</ele>
        <time>2022-03-07T07:54:24.473Z</time>
      </trkpt>
      <trkpt lat="42.20828" lon="24.64924">
        <ele>222.045256</ele>
        <time>2022-03-07T07:54:27.472Z</time>
      </trkpt>
      <trkpt lat="42.20834" lon="24.64911">
        <ele>222.161817</ele>
        <time>2022-03-07T07:54:30.475Z</time>
      </trkpt>
      <trkpt lat="42.20841" lon="24.64897">
        <ele>222.279462</ele>
        <time>2022-03-07T07:54:33.480Z</time>
      </trkpt>
      <trkpt lat="42.20849" lon="24.64884">
        <ele>222.399338</ele>
        <time>2022-03-07T07:54:36.468Z</time>
      </trkpt>
      <trkpt lat="42.20856" lon="24.6487">
        <ele>222.518794</ele>
        <time>2022-03-07T07:54:39.487Z</time>
      </trkpt>
      <trkpt lat="42.20863" lon="24.64856">
        <ele>222.639866</ele>
        <time>2022-03-07T07:54:42.482Z</time>
      </trkpt>
      <trkpt lat="42.2087" lon="24.64842">
        <ele>222.805618</ele>
        <time>2022-03-07T07:54:45.479Z</time>
      </trkpt>
      <trkpt lat="42.20877" lon="24.64827">
        <ele>222.986139</ele>
        <time>2022-03-07T07:54:48.457Z</time>
      </trkpt>
      <trkpt lat="42.20885" lon="24.64814">
        <ele>223.157736</ele>
        <time>2022-03-07T07:54:51.497Z</time>
      </trkpt>
      <trkpt lat="42.20894" lon="24.648">
        <ele>223.342525</ele>
        <time>2022-03-07T07:54:54.473Z</time>
      </trkpt>
      <trkpt lat="42.20902" lon="24.64787">
        <ele>223.518832</ele>
        <time>2022-03-07T07:54:57.483Z</time>
      </trkpt>
      <trkpt lat="42.20908" lon="24.64773">
        <ele>223.685427</ele>
        <time>2022-03-07T07:55:00.483Z</time>
      </trkpt>
      <trkpt lat="42.20916" lon="24.64758">
        <ele>223.87174</ele>
        <time>2022-03-07T07:55:03.502Z</time>
      </trkpt>
      <trkpt lat="42.20923" lon="24.64743">
        <ele>224.058052</ele>
        <time>2022-03-07T07:55:06.477Z</time>
      </trkpt>
      <trkpt lat="42.20931" lon="24.64728">
        <ele>224.238722</ele>
        <time>2022-03-07T07:55:09.473Z</time>
      </trkpt>
      <trkpt lat="42.20938" lon="24.64714">
        <ele>224.418325</ele>
        <time>2022-03-07T07:55:12.474Z</time>
      </trkpt>
      <trkpt lat="42.20946" lon="24.647">
        <ele>224.593813</ele>
        <time>2022-03-07T07:55:15.485Z</time>
      </trkpt>
      <trkpt lat="42.20954" lon="24.64686">
        <ele>224.774275</ele>
        <time>2022-03-07T07:55:18.485Z</time>
      </trkpt>
      <trkpt lat="42.20961" lon="24.64673">
        <ele>224.951399</ele>
        <time>2022-03-07T07:55:21.452Z</time>
      </trkpt>
      <trkpt lat="42.20969" lon="24.64659">
        <ele>225.126117</ele>
        <time>2022-03-07T07:55:24.472Z</time>
      </trkpt>
      <trkpt lat="42.20976" lon="24.64645">
        <ele>224.954765</ele>
        <time>2022-03-07T07:55:27.486Z</time>
      </trkpt>
      <trkpt lat="42.20983" lon="24.64632">
        <ele>224.743397</ele>
        <time>2022-03-07T07:55:30.490Z</time>
      </trkpt>
      <trkpt lat="42.2099" lon="24.64619">
        <ele>224.529854</ele>
        <time>2022-03-07T07:55:33.463Z</time>
      </trkpt>
      <trkpt lat="42.20998" lon="24.64606">
        <ele>224.30559</ele>
        <time>2022-03-07T07:55:36.502Z</time>
      </trkpt>
      <trkpt lat="42.21005" lon="24.64592">
        <ele>224.085694</ele>
        <time>2022-03-07T07:55:39.474Z</time>
      </trkpt>
      <trkpt lat="42.21012" lon="24.64579">
        <ele>223.866906</ele>
        <time>2022-03-07T07:55:42.474Z</time>
      </trkpt>
      <trkpt lat="42.2102" lon="24.64565">
        <ele>223.628902</ele>
        <time>2022-03-07T07:55:45.463Z</time>
      </trkpt>
      <trkpt lat="42.21028" lon="24.64552">
        <ele>223.414297</ele>
        <time>2022-03-07T07:55:48.491Z</time>
      </trkpt>
      <trkpt lat="42.21035" lon="24.64538">
        <ele>223.189027</ele>
        <time>2022-03-07T07:55:51.463Z</time>
      </trkpt>
      <trkpt lat="42.21042" lon="24.64524">
        <ele>222.95315</ele>
        <time>2022-03-07T07:55:54.480Z</time>
      </trkpt>
      <trkpt lat="42.2105" lon="24.6451">
        <ele>222.724762</ele>
        <time>2022-03-07T07:55:57.483Z</time>
      </trkpt>
      <trkpt lat="42.21058" lon="24.64496">
        <ele>222.495306</ele>
        <time>2022-03-07T07:56:00.466Z</time>
      </trkpt>
      <trkpt lat="42.21066" lon="24.64482">
        <ele>222.259417</ele>
        <time>2022-03-07T07:56:03.495Z</time>
      </trkpt>
      <trkpt lat="42.21073" lon="24.64468">
        <ele>222.033116</ele>
        <time>2022-03-07T07:56:06.477Z</time>
      </trkpt>
      <trkpt lat="42.21081" lon="24.64455">
        <ele>221.892746</ele>
        <time>2022-03-07T07:56:09.478Z</time>
      </trkpt>
      <trkpt lat="42.21088" lon="24.64441">
        <ele>221.833449</ele>
        <time>2022-03-07T07:56:12.483Z</time>
      </trkpt>
      <trkpt lat="42.21095" lon="24.64427">
        <ele>221.770962</ele>
        <time>2022-03-07T07:56:15.475Z</time>
      </trkpt>
      <trkpt lat="42.21103" lon="24.64413">
        <ele>221.709924</ele>
        <time>2022-03-07T07:56:18.484Z</time>
      </trkpt>
      <trkpt lat="42.21109" lon="24.64399">
        <ele>221.650552</ele>
        <time>2022-03-07T07:56:21.475Z</time>
      </trkpt>
      <trkpt lat="42.21117" lon="24.64385">
        <ele>221.588065</ele>
        <time>2022-03-07T07:56:24.479Z</time>
      </trkpt>
      <trkpt lat="42.21124" lon="24.64371">
        <ele>221.526752</ele>
        <time>2022-03-07T07:56:27.486Z</time>
      </trkpt>
      <trkpt lat="42.21131" lon="24.64358">
        <ele>221.466858</ele>
        <time>2022-03-07T07:56:30.479Z</time>
      </trkpt>
      <trkpt lat="42.21138" lon="24.64344">
        <ele>221.407216</ele>
        <time>2022-03-07T07:56:33.516Z</time>
      </trkpt>
      <trkpt lat="42.21146" lon="24.6433">
        <ele>221.346762</ele>
        <time>2022-03-07T07:56:36.493Z</time>
      </trkpt>
      <trkpt lat="42.21153" lon="24.64317">
        <ele>221.287466</ele>
        <time>2022-03-07T07:56:39.502Z</time>
      </trkpt>
      <trkpt lat="42.2116" lon="24.64303">
        <ele>221.227881</ele>
        <time>2022-03-07T07:56:42.464Z</time>
      </trkpt>
      <trkpt lat="42.21168" lon="24.6429">
        <ele>221.168837</ele>
        <time>2022-03-07T07:56:45.483Z</time>
      </trkpt>
      <trkpt lat="42.21175" lon="24.64277">
        <ele>221.109827</ele>
        <time>2022-03-07T07:56:48.505Z</time>
      </trkpt>
      <trkpt lat="42.21182" lon="24.64263">
        <ele>221.058764</ele>
        <time>2022-03-07T07:56:51.473Z</time>
      </trkpt>
      <trkpt lat="42.21189" lon="24.64248">
        <ele>221.092285</ele>
        <time>2022-03-07T07:56:54.482Z</time>
      </trkpt>
      <trkpt lat="42.21197" lon="24.64235">
        <ele>221.125273</ele>
        <time>2022-03-07T07:56:57.465Z</time>
      </trkpt>
      <trkpt lat="42.21204" lon="24.64222">
        <ele>221.157479</ele>
        <time>2022-03-07T07:57:00.473Z</time>
      </trkpt>
      <trkpt lat="42.21212" lon="24.64209">
        <ele>221.190339</ele>
        <time>2022-03-07T07:57:03.460Z</time>
      </trkpt>
      <trkpt lat="42.21219" lon="24.64196">
        <ele>221.222537</ele>
        <time>2022-03-07T07:57:06.471Z</time>
      </trkpt>
      <trkpt lat="42.21226" lon="24.64181">
        <ele>221.256326</ele>
        <time>2022-03-07T07:57:09.462Z</time>
      </trkpt>
      <trkpt lat="42.21234" lon="24.64168">
        <ele>221.289628</ele>
        <time>2022-03-07T07:57:12.512Z</time>
      </trkpt>
      <trkpt lat="42.21241" lon="24.64155">
        <ele>221.322148</ele>
        <time>2022-03-07T07:57:15.476Z</time>
      </trkpt>
      <trkpt lat="42.21249" lon="24.64141">
        <ele>221.355136</ele>
        <time>2022-03-07T07:57:18.490Z</time>
      </trkpt>
      <trkpt lat="42.21256" lon="24.64128">
        <ele>221.388284</ele>
        <time>2022-03-07T07:57:21.479Z</time>
      </trkpt>
      <trkpt lat="42.21264" lon="24.64114">
        <ele>221.422061</ele>
        <time>2022-03-07T07:57:24.485Z</time>
      </trkpt>
      <trkpt lat="42.21271" lon="24.64101">
        <ele>221.453159</ele>
        <time>2022-03-07T07:57:27.470Z</time>
      </trkpt>
      <trkpt lat="42.21278" lon="24.64088">
        <ele>221.4852</ele>
        <time>2022-03-07T07:57:30.469Z</time>
      </trkpt>
      <trkpt lat="42.21284" lon="24.64075">
        <ele>221.516298</ele>
        <time>2022-03-07T07:57:33.491Z</time>
      </trkpt>
      <trkpt lat="42.21292" lon="24.64061">
        <ele>221.542076</ele>
        <time>2022-03-07T07:57:36.478Z</time>
      </trkpt>
      <trkpt lat="42.21299" lon="24.64047">
        <ele>221.560977</ele>
        <time>2022-03-07T07:57:39.479Z</time>
      </trkpt>
      <trkpt lat="42.21307" lon="24.64033">
        <ele>221.580233</ele>
        <time>2022-03-07T07:57:42.459Z</time>
      </trkpt>
      <trkpt lat="42.21314" lon="24.6402">
        <ele>221.598326</ele>
        <time>2022-03-07T07:57:45.485Z</time>
      </trkpt>
      <trkpt lat="42.21321" lon="24.64007">
        <ele>221.616516</ele>
        <time>2022-03-07T07:57:48.469Z</time>
      </trkpt>
      <trkpt lat="42.21328" lon="24.63993">
        <ele>221.635686</ele>
        <time>2022-03-07T07:57:51.475Z</time>
      </trkpt>
      <trkpt lat="42.21335" lon="24.63978">
        <ele>221.654958</ele>
        <time>2022-03-07T07:57:54.477Z</time>
      </trkpt>
      <trkpt lat="42.21343" lon="24.63965">
        <ele>221.673412</ele>
        <time>2022-03-07T07:57:57.488Z</time>
      </trkpt>
      <trkpt lat="42.2135" lon="24.63953">
        <ele>221.690881</ele>
        <time>2022-03-07T07:58:00.479Z</time>
      </trkpt>
      <trkpt lat="42.21357" lon="24.6394">
        <ele>221.708438</ele>
        <time>2022-03-07T07:58:03.482Z</time>
      </trkpt>
      <trkpt lat="42.21364" lon="24.63927">
        <ele>221.726712</ele>
        <time>2022-03-07T07:58:06.474Z</time>
      </trkpt>
      <trkpt lat="42.21372" lon="24.63914">
        <ele>221.744996</ele>
        <time>2022-03-07T07:58:09.489Z</time>
      </trkpt>
      <trkpt lat="42.2138" lon="24.63902">
        <ele>221.763311</ele>
        <time>2022-03-07T07:58:12.471Z</time>
      </trkpt>
      <trkpt lat="42.21388" lon="24.63889">
        <ele>221.781939</ele>
        <time>2022-03-07T07:58:15.471Z</time>
      </trkpt>
      <trkpt lat="42.21397" lon="24.63878">
        <ele>221.800586</ele>
        <time>2022-03-07T07:58:18.502Z</time>
      </trkpt>
      <trkpt lat="42.21407" lon="24.63867">
        <ele>221.930061</ele>
        <time>2022-03-07T07:58:21.482Z</time>
      </trkpt>
      <trkpt lat="42.21417" lon="24.63856">
        <ele>222.070106</ele>
        <time>2022-03-07T07:58:24.504Z</time>
      </trkpt>
      <trkpt lat="42.21426" lon="24.63845">
        <ele>222.206836</ele>
        <time>2022-03-07T07:58:27.463Z</time>
      </trkpt>
      <trkpt lat="42.21436" lon="24.63833">
        <ele>222.345733</ele>
        <time>2022-03-07T07:58:30.480Z</time>
      </trkpt>
      <trkpt lat="42.21446" lon="24.63823">
        <ele>222.48596</ele>
        <time>2022-03-07T07:58:33.488Z</time>
      </trkpt>
      <trkpt lat="42.21457" lon="24.63812">
        <ele>222.622886</ele>
        <time>2022-03-07T07:58:36.545Z</time>
      </trkpt>
      <trkpt lat="42.21466" lon="24.63801">
        <ele>222.761266</ele>
        <time>2022-03-07T07:58:39.481Z</time>
      </trkpt>
      <trkpt lat="42.21476" lon="24.6379">
        <ele>222.894491</ele>
        <time>2022-03-07T07:58:42.474Z</time>
      </trkpt>
      <trkpt lat="42.21485" lon="24.6378">
        <ele>223.029832</ele>
        <time>2022-03-07T07:58:45.461Z</time>
      </trkpt>
      <trkpt lat="42.21495" lon="24.63769">
        <ele>223.158291</ele>
        <time>2022-03-07T07:58:48.475Z</time>
      </trkpt>
      <trkpt lat="42.21504" lon="24.6376">
        <ele>223.284075</ele>
        <time>2022-03-07T07:58:51.475Z</time>
      </trkpt>
      <trkpt lat="42.21513" lon="24.63749">
        <ele>223.421326</ele>
        <time>2022-03-07T07:58:54.472Z</time>
      </trkpt>
      <trkpt lat="42.21523" lon="24.63737">
        <ele>223.556674</ele>
        <time>2022-03-07T07:58:57.487Z</time>
      </trkpt>
      <trkpt lat="42.21531" lon="24.63726">
        <ele>223.684599</ele>
        <time>2022-03-07T07:59:00.467Z</time>
      </trkpt>
      <trkpt lat="42.2154" lon="24.63715">
        <ele>223.852819</ele>
        <time>2022-03-07T07:59:03.465Z</time>
      </trkpt>
      <trkpt lat="42.21549" lon="24.63704">
        <ele>224.076666</ele>
        <time>2022-03-07T07:59:06.511Z</time>
      </trkpt>
      <trkpt lat="42.21559" lon="24.63692">
        <ele>224.302694</ele>
        <time>2022-03-07T07:59:09.472Z</time>
      </trkpt>
      <trkpt lat="42.2157" lon="24.63682">
        <ele>224.53688</ele>
        <time>2022-03-07T07:59:12.459Z</time>
      </trkpt>
      <trkpt lat="42.2158" lon="24.63672">
        <ele>224.761973</ele>
        <time>2022-03-07T07:59:15.500Z</time>
      </trkpt>
      <trkpt lat="42.2159" lon="24.63661">
        <ele>224.978302</ele>
        <time>2022-03-07T07:59:18.477Z</time>
      </trkpt>
      <trkpt lat="42.21598" lon="24.63652">
        <ele>225.169059</ele>
        <time>2022-03-07T07:59:21.482Z</time>
      </trkpt>
      <trkpt lat="42.21607" lon="24.63641">
        <ele>225.378116</ele>
        <time>2022-03-07T07:59:24.478Z</time>
      </trkpt>
      <trkpt lat="42.21616" lon="24.6363">
        <ele>225.595906</ele>
        <time>2022-03-07T07:59:27.478Z</time>
      </trkpt>
      <trkpt lat="42.21626" lon="24.6362">
        <ele>225.813213</ele>
        <time>2022-03-07T07:59:30.471Z</time>
      </trkpt>
      <trkpt lat="42.21637" lon="24.63609">
        <ele>226.054579</ele>
        <time>2022-03-07T07:59:33.483Z</time>
      </trkpt>
      <trkpt lat="42.21644" lon="24.63601">
        <ele>226.217207</ele>
        <time>2022-03-07T07:59:35.476Z</time>
      </trkpt>
      <trkpt lat="42.21651" lon="24.63593">
        <ele>226.379453</ele>
        <time>2022-03-07T07:59:37.475Z</time>
      </trkpt>
      <trkpt lat="42.21661" lon="24.63582">
        <ele>226.606709</ele>
        <time>2022-03-07T07:59:40.478Z</time>
      </trkpt>
      <trkpt lat="42.2167" lon="24.63572">
        <ele>226.812398</ele>
        <time>2022-03-07T07:59:43.475Z</time>
      </trkpt>
      <trkpt lat="42.2168" lon="24.63562">
        <ele>226.852894</ele>
        <time>2022-03-07T07:59:46.483Z</time>
      </trkpt>
      <trkpt lat="42.21688" lon="24.63551">
        <ele>226.751291</ele>
        <time>2022-03-07T07:59:49.478Z</time>
      </trkpt>
      <trkpt lat="42.21697" lon="24.63539">
        <ele>226.640386</ele>
        <time>2022-03-07T07:59:52.483Z</time>
      </trkpt>
      <trkpt lat="42.21707" lon="24.63528">
        <ele>226.528198</ele>
        <time>2022-03-07T07:59:55.507Z</time>
      </trkpt>
      <trkpt lat="42.21716" lon="24.63517">
        <ele>226.422233</ele>
        <time>2022-03-07T07:59:58.500Z</time>
      </trkpt>
      <trkpt lat="42.21725" lon="24.63506">
        <ele>226.314591</ele>
        <time>2022-03-07T08:00:01.495Z</time>
      </trkpt>
      <trkpt lat="42.21734" lon="24.63496">
        <ele>226.208273</ele>
        <time>2022-03-07T08:00:04.493Z</time>
      </trkpt>
      <trkpt lat="42.21743" lon="24.63484">
        <ele>226.099571</ele>
        <time>2022-03-07T08:00:07.482Z</time>
      </trkpt>
      <trkpt lat="42.21754" lon="24.63474">
        <ele>225.986514</ele>
        <time>2022-03-07T08:00:10.468Z</time>
      </trkpt>
      <trkpt lat="42.21764" lon="24.63463">
        <ele>225.871468</ele>
        <time>2022-03-07T08:00:13.473Z</time>
      </trkpt>
      <trkpt lat="42.21774" lon="24.63453">
        <ele>225.761881</ele>
        <time>2022-03-07T08:00:16.473Z</time>
      </trkpt>
      <trkpt lat="42.21785" lon="24.63442">
        <ele>225.645743</ele>
        <time>2022-03-07T08:00:19.458Z</time>
      </trkpt>
      <trkpt lat="42.21795" lon="24.63432">
        <ele>225.534281</ele>
        <time>2022-03-07T08:00:22.492Z</time>
      </trkpt>
      <trkpt lat="42.21804" lon="24.63422">
        <ele>225.426393</ele>
        <time>2022-03-07T08:00:25.475Z</time>
      </trkpt>
      <trkpt lat="42.21813" lon="24.63412">
        <ele>225.32618</ele>
        <time>2022-03-07T08:00:28.464Z</time>
      </trkpt>
      <trkpt lat="42.21823" lon="24.63401">
        <ele>225.255989</ele>
        <time>2022-03-07T08:00:31.463Z</time>
      </trkpt>
      <trkpt lat="42.21833" lon="24.6339">
        <ele>225.180218</ele>
        <time>2022-03-07T08:00:34.466Z</time>
      </trkpt>
      <trkpt lat="42.21843" lon="24.63379">
        <ele>225.103278</ele>
        <time>2022-03-07T08:00:37.498Z</time>
      </trkpt>
      <trkpt lat="42.21853" lon="24.63368">
        <ele>225.031373</ele>
        <time>2022-03-07T08:00:40.472Z</time>
      </trkpt>
      <trkpt lat="42.21862" lon="24.63356">
        <ele>224.958217</ele>
        <time>2022-03-07T08:00:43.465Z</time>
      </trkpt>
      <trkpt lat="42.21872" lon="24.63345">
        <ele>224.883759</ele>
        <time>2022-03-07T08:00:46.464Z</time>
      </trkpt>
      <trkpt lat="42.21881" lon="24.63335">
        <ele>224.815007</ele>
        <time>2022-03-07T08:00:49.478Z</time>
      </trkpt>
      <trkpt lat="42.21891" lon="24.63324">
        <ele>224.743204</ele>
        <time>2022-03-07T08:00:52.481Z</time>
      </trkpt>
      <trkpt lat="42.219" lon="24.63313">
        <ele>224.671336</ele>
        <time>2022-03-07T08:00:55.495Z</time>
      </trkpt>
      <trkpt lat="42.2191" lon="24.63302">
        <ele>224.595116</ele>
        <time>2022-03-07T08:00:58.471Z</time>
      </trkpt>
      <trkpt lat="42.2192" lon="24.6329">
        <ele>224.51917</ele>
        <time>2022-03-07T08:01:01.484Z</time>
      </trkpt>
      <trkpt lat="42.2193" lon="24.63279">
        <ele>224.446431</ele>
        <time>2022-03-07T08:01:04.479Z</time>
      </trkpt>
      <trkpt lat="42.21939" lon="24.63268">
        <ele>224.373189</ele>
        <time>2022-03-07T08:01:07.473Z</time>
      </trkpt>
      <trkpt lat="42.21949" lon="24.63258">
        <ele>224.302445</ele>
        <time>2022-03-07T08:01:10.477Z</time>
      </trkpt>
      <trkpt lat="42.21958" lon="24.63247">
        <ele>224.431495</ele>
        <time>2022-03-07T08:01:13.471Z</time>
      </trkpt>
      <trkpt lat="42.21966" lon="24.63236">
        <ele>224.604071</ele>
        <time>2022-03-07T08:01:16.479Z</time>
      </trkpt>
      <trkpt lat="42.21976" lon="24.63225">
        <ele>224.780592</ele>
        <time>2022-03-07T08:01:19.481Z</time>
      </trkpt>
      <trkpt lat="42.21985" lon="24.63214">
        <ele>224.956389</ele>
        <time>2022-03-07T08:01:22.478Z</time>
      </trkpt>
      <trkpt lat="42.21994" lon="24.63203">
        <ele>225.134808</ele>
        <time>2022-03-07T08:01:25.479Z</time>
      </trkpt>
      <trkpt lat="42.22004" lon="24.63193">
        <ele>225.310522</ele>
        <time>2022-03-07T08:01:28.474Z</time>
      </trkpt>
      <trkpt lat="42.22012" lon="24.63182">
        <ele>225.483472</ele>
        <time>2022-03-07T08:01:31.472Z</time>
      </trkpt>
      <trkpt lat="42.22021" lon="24.63171">
        <ele>225.655336</ele>
        <time>2022-03-07T08:01:34.507Z</time>
      </trkpt>
      <trkpt lat="42.22031" lon="24.63161">
        <ele>225.832493</ele>
        <time>2022-03-07T08:01:37.470Z</time>
      </trkpt>
      <trkpt lat="42.22041" lon="24.63151">
        <ele>226.011793</ele>
        <time>2022-03-07T08:01:40.476Z</time>
      </trkpt>
      <trkpt lat="42.22049" lon="24.6314">
        <ele>226.177223</ele>
        <time>2022-03-07T08:01:43.471Z</time>
      </trkpt>
      <trkpt lat="42.22059" lon="24.6313">
        <ele>226.352489</ele>
        <time>2022-03-07T08:01:46.470Z</time>
      </trkpt>
      <trkpt lat="42.22068" lon="24.63119">
        <ele>226.531594</ele>
        <time>2022-03-07T08:01:49.483Z</time>
      </trkpt>
      <trkpt lat="42.22078" lon="24.63109">
        <ele>226.707978</ele>
        <time>2022-03-07T08:01:52.473Z</time>
      </trkpt>
      <trkpt lat="42.22087" lon="24.63099">
        <ele>226.876337</ele>
        <time>2022-03-07T08:01:55.462Z</time>
      </trkpt>
      <trkpt lat="42.22095" lon="24.63088">
        <ele>226.972679</ele>
        <time>2022-03-07T08:01:58.478Z</time>
      </trkpt>
      <trkpt lat="42.22104" lon="24.63077">
        <ele>227.071111</ele>
        <time>2022-03-07T08:02:01.483Z</time>
      </trkpt>
      <trkpt lat="42.22114" lon="24.63066">
        <ele>227.168565</ele>
        <time>2022-03-07T08:02:04.484Z</time>
      </trkpt>
      <trkpt lat="42.22123" lon="24.63055">
        <ele>227.270978</ele>
        <time>2022-03-07T08:02:07.533Z</time>
      </trkpt>
      <trkpt lat="42.22133" lon="24.63045">
        <ele>227.369064</ele>
        <time>2022-03-07T08:02:10.479Z</time>
      </trkpt>
      <trkpt lat="42.22143" lon="24.63036">
        <ele>227.468121</ele>
        <time>2022-03-07T08:02:13.474Z</time>
      </trkpt>
      <trkpt lat="42.22153" lon="24.63025">
        <ele>227.570487</ele>
        <time>2022-03-07T08:02:16.478Z</time>
      </trkpt>
      <trkpt lat="42.22163" lon="24.63015">
        <ele>227.663537</ele>
        <time>2022-03-07T08:02:19.481Z</time>
      </trkpt>
      <trkpt lat="42.22171" lon="24.63005">
        <ele>227.754872</ele>
        <time>2022-03-07T08:02:22.468Z</time>
      </trkpt>
      <trkpt lat="42.22182" lon="24.62995">
        <ele>227.858275</ele>
        <time>2022-03-07T08:02:25.480Z</time>
      </trkpt>
      <trkpt lat="42.22189" lon="24.62987">
        <ele>227.935583</ele>
        <time>2022-03-07T08:02:27.479Z</time>
      </trkpt>
      <trkpt lat="42.22199" lon="24.62975">
        <ele>228.039982</ele>
        <time>2022-03-07T08:02:30.510Z</time>
      </trkpt>
      <trkpt lat="42.22209" lon="24.62965">
        <ele>228.137635</ele>
        <time>2022-03-07T08:02:33.487Z</time>
      </trkpt>
      <trkpt lat="42.22217" lon="24.62954">
        <ele>228.230915</ele>
        <time>2022-03-07T08:02:36.522Z</time>
      </trkpt>
      <trkpt lat="42.22226" lon="24.62944">
        <ele>228.319651</ele>
        <time>2022-03-07T08:02:39.473Z</time>
      </trkpt>
      <trkpt lat="42.22235" lon="24.62934">
        <ele>228.191778</ele>
        <time>2022-03-07T08:02:42.470Z</time>
      </trkpt>
      <trkpt lat="42.22243" lon="24.62923">
        <ele>228.059189</ele>
        <time>2022-03-07T08:02:45.501Z</time>
      </trkpt>
      <trkpt lat="42.22253" lon="24.62913">
        <ele>227.922603</ele>
        <time>2022-03-07T08:02:48.465Z</time>
      </trkpt>
      <trkpt lat="42.22263" lon="24.62902">
        <ele>227.778091</ele>
        <time>2022-03-07T08:02:51.474Z</time>
      </trkpt>
      <trkpt lat="42.22272" lon="24.62892">
        <ele>227.640105</ele>
        <time>2022-03-07T08:02:54.475Z</time>
      </trkpt>
      <trkpt lat="42.22281" lon="24.6288">
        <ele>227.49998</ele>
        <time>2022-03-07T08:02:57.463Z</time>
      </trkpt>
      <trkpt lat="42.2229" lon="24.62869">
        <ele>227.359446</ele>
        <time>2022-03-07T08:03:00.485Z</time>
      </trkpt>
      <trkpt lat="42.223" lon="24.62857">
        <ele>227.2168</ele>
        <time>2022-03-07T08:03:03.478Z</time>
      </trkpt>
      <trkpt lat="42.2231" lon="24.62845">
        <ele>227.066546</ele>
        <time>2022-03-07T08:03:06.464Z</time>
      </trkpt>
      <trkpt lat="42.2232" lon="24.62835">
        <ele>226.924331</ele>
        <time>2022-03-07T08:03:09.522Z</time>
      </trkpt>
      <trkpt lat="42.2233" lon="24.62825">
        <ele>226.782115</ele>
        <time>2022-03-07T08:03:12.469Z</time>
      </trkpt>
      <trkpt lat="42.22339" lon="24.62814">
        <ele>226.6459</ele>
        <time>2022-03-07T08:03:15.460Z</time>
      </trkpt>
      <trkpt lat="42.22348" lon="24.62804">
        <ele>226.515232</ele>
        <time>2022-03-07T08:03:18.474Z</time>
      </trkpt>
      <trkpt lat="42.22357" lon="24.62793">
        <ele>226.37551</ele>
        <time>2022-03-07T08:03:21.459Z</time>
      </trkpt>
      <trkpt lat="42.22366" lon="24.62782">
        <ele>226.351044</ele>
        <time>2022-03-07T08:03:24.468Z</time>
      </trkpt>
      <trkpt lat="42.22375" lon="24.62772">
        <ele>226.490072</ele>
        <time>2022-03-07T08:03:27.471Z</time>
      </trkpt>
      <trkpt lat="42.22384" lon="24.62762">
        <ele>226.620449</ele>
        <time>2022-03-07T08:03:30.477Z</time>
      </trkpt>
      <trkpt lat="42.22392" lon="24.62751">
        <ele>226.75861</ele>
        <time>2022-03-07T08:03:33.473Z</time>
      </trkpt>
      <trkpt lat="42.22401" lon="24.62741">
        <ele>226.895742</ele>
        <time>2022-03-07T08:03:36.478Z</time>
      </trkpt>
      <trkpt lat="42.22411" lon="24.6273">
        <ele>227.036127</ele>
        <time>2022-03-07T08:03:39.479Z</time>
      </trkpt>
      <trkpt lat="42.2242" lon="24.6272">
        <ele>227.175806</ele>
        <time>2022-03-07T08:03:42.506Z</time>
      </trkpt>
      <trkpt lat="42.22428" lon="24.6271">
        <ele>227.302132</ele>
        <time>2022-03-07T08:03:45.480Z</time>
      </trkpt>
      <trkpt lat="42.22436" lon="24.627">
        <ele>227.433644</ele>
        <time>2022-03-07T08:03:48.466Z</time>
      </trkpt>
      <trkpt lat="42.22446" lon="24.62689">
        <ele>227.581662</ele>
        <time>2022-03-07T08:03:51.482Z</time>
      </trkpt>
      <trkpt lat="42.22455" lon="24.62678">
        <ele>227.717533</ele>
        <time>2022-03-07T08:03:54.472Z</time>
      </trkpt>
      <trkpt lat="42.22464" lon="24.62668">
        <ele>227.855765</ele>
        <time>2022-03-07T08:03:57.489Z</time>
      </trkpt>
      <trkpt lat="42.22471" lon="24.62656">
        <ele>227.99277</ele>
        <time>2022-03-07T08:04:00.482Z</time>
      </trkpt>
      <trkpt lat="42.22479" lon="24.62644">
        <ele>228.130309</ele>
        <time>2022-03-07T08:04:03.486Z</time>
      </trkpt>
      <trkpt lat="42.22487" lon="24.6263">
        <ele>228.280043</ele>
        <time>2022-03-07T08:04:06.475Z</time>
      </trkpt>
      <trkpt lat="42.22494" lon="24.62618">
        <ele>228.398039</ele>
        <time>2022-03-07T08:04:09.483Z</time>
      </trkpt>
      <trkpt lat="42.22501" lon="24.62605">
        <ele>228.455238</ele>
        <time>2022-03-07T08:04:12.491Z</time>
      </trkpt>
      <trkpt lat="42.22508" lon="24.62591">
        <ele>228.513625</ele>
        <time>2022-03-07T08:04:15.486Z</time>
      </trkpt>
      <trkpt lat="42.22515" lon="24.62579">
        <ele>228.570528</ele>
        <time>2022-03-07T08:04:18.500Z</time>
      </trkpt>
      <trkpt lat="42.22521" lon="24.62564">
        <ele>228.630284</ele>
        <time>2022-03-07T08:04:21.527Z</time>
      </trkpt>
      <trkpt lat="42.22528" lon="24.62549">
        <ele>228.693416</ele>
        <time>2022-03-07T08:04:24.465Z</time>
      </trkpt>
      <trkpt lat="42.22535" lon="24.62535">
        <ele>228.752867</ele>
        <time>2022-03-07T08:04:27.479Z</time>
      </trkpt>
      <trkpt lat="42.22541" lon="24.62522">
        <ele>228.807975</ele>
        <time>2022-03-07T08:04:30.522Z</time>
      </trkpt>
      <trkpt lat="42.22547" lon="24.62508">
        <ele>228.866362</ele>
        <time>2022-03-07T08:04:33.465Z</time>
      </trkpt>
      <trkpt lat="42.22554" lon="24.62494">
        <ele>228.924854</ele>
        <time>2022-03-07T08:04:36.523Z</time>
      </trkpt>
      <trkpt lat="42.22561" lon="24.62479">
        <ele>228.987534</ele>
        <time>2022-03-07T08:04:39.546Z</time>
      </trkpt>
      <trkpt lat="42.22568" lon="24.62465">
        <ele>229.048396</ele>
        <time>2022-03-07T08:04:42.465Z</time>
      </trkpt>
      <trkpt lat="42.22574" lon="24.62453">
        <ele>229.101316</ele>
        <time>2022-03-07T08:04:45.478Z</time>
      </trkpt>
      <trkpt lat="42.2258" lon="24.62441">
        <ele>229.152811</ele>
        <time>2022-03-07T08:04:48.475Z</time>
      </trkpt>
      <trkpt lat="42.22586" lon="24.62427">
        <ele>229.208571</ele>
        <time>2022-03-07T08:04:51.473Z</time>
      </trkpt>
      <trkpt lat="42.22592" lon="24.62413">
        <ele>229.238465</ele>
        <time>2022-03-07T08:04:54.474Z</time>
      </trkpt>
      <trkpt lat="42.22597" lon="24.62399">
        <ele>229.178209</ele>
        <time>2022-03-07T08:04:57.495Z</time>
      </trkpt>
      <trkpt lat="42.22603" lon="24.62386">
        <ele>229.120872</ele>
        <time>2022-03-07T08:05:00.465Z</time>
      </trkpt>
      <trkpt lat="42.22608" lon="24.62372">
        <ele>229.062702</ele>
        <time>2022-03-07T08:05:03.482Z</time>
      </trkpt>
      <trkpt lat="42.22614" lon="24.6236">
        <ele>229.007092</ele>
        <time>2022-03-07T08:05:06.477Z</time>
      </trkpt>
      <trkpt lat="42.2262" lon="24.62347">
        <ele>228.948995</ele>
        <time>2022-03-07T08:05:09.475Z</time>
      </trkpt>
      <trkpt lat="42.22625" lon="24.62333">
        <ele>228.89024</ele>
        <time>2022-03-07T08:05:12.480Z</time>
      </trkpt>
      <trkpt lat="42.22631" lon="24.62321">
        <ele>228.835715</ele>
        <time>2022-03-07T08:05:15.490Z</time>
      </trkpt>
      <trkpt lat="42.22637" lon="24.62309">
        <ele>228.780913</ele>
        <time>2022-03-07T08:05:18.452Z</time>
      </trkpt>
      <trkpt lat="42.22643" lon="24.62296">
        <ele>228.722158</ele>
        <time>2022-03-07T08:05:21.481Z</time>
      </trkpt>
      <trkpt lat="42.22649" lon="24.62283">
        <ele>228.664406</ele>
        <time>2022-03-07T08:05:24.482Z</time>
      </trkpt>
      <trkpt lat="42.22656" lon="24.6227">
        <ele>228.602957</ele>
        <time>2022-03-07T08:05:27.516Z</time>
      </trkpt>
      <trkpt lat="42.22663" lon="24.62256">
        <ele>228.540535</ele>
        <time>2022-03-07T08:05:30.475Z</time>
      </trkpt>
      <trkpt lat="42.22669" lon="24.62243">
        <ele>228.481699</ele>
        <time>2022-03-07T08:05:33.458Z</time>
      </trkpt>
      <trkpt lat="42.22674" lon="24.6223">
        <ele>228.424695</ele>
        <time>2022-03-07T08:05:36.473Z</time>
      </trkpt>
      <trkpt lat="42.22679" lon="24.62218">
        <ele>228.370922</ele>
        <time>2022-03-07T08:05:39.477Z</time>
      </trkpt>
      <trkpt lat="42.22684" lon="24.62205">
        <ele>228.332252</ele>
        <time>2022-03-07T08:05:42.484Z</time>
      </trkpt>
      <trkpt lat="42.2269" lon="24.62193">
        <ele>228.342947</ele>
        <time>2022-03-07T08:05:45.479Z</time>
      </trkpt>
      <trkpt lat="42.22695" lon="24.6218">
        <ele>228.353161</ele>
        <time>2022-03-07T08:05:48.471Z</time>
      </trkpt>
      <trkpt lat="42.22701" lon="24.62169">
        <ele>228.363227</ele>
        <time>2022-03-07T08:05:51.478Z</time>
      </trkpt>
      <trkpt lat="42.22707" lon="24.62155">
        <ele>228.374302</ele>
        <time>2022-03-07T08:05:54.516Z</time>
      </trkpt>
      <trkpt lat="42.22712" lon="24.62143">
        <ele>228.385242</ele>
        <time>2022-03-07T08:05:57.483Z</time>
      </trkpt>
      <trkpt lat="42.22718" lon="24.62129">
        <ele>228.396185</ele>
        <time>2022-03-07T08:06:00.465Z</time>
      </trkpt>
      <trkpt lat="42.22724" lon="24.62115">
        <ele>228.408247</ele>
        <time>2022-03-07T08:06:03.483Z</time>
      </trkpt>
      <trkpt lat="42.22731" lon="24.62102">
        <ele>228.419932</ele>
        <time>2022-03-07T08:06:06.473Z</time>
      </trkpt>
      <trkpt lat="42.22737" lon="24.62088">
        <ele>228.431502</ele>
        <time>2022-03-07T08:06:09.462Z</time>
      </trkpt>
      <trkpt lat="42.22743" lon="24.62075">
        <ele>228.443081</ele>
        <time>2022-03-07T08:06:12.475Z</time>
      </trkpt>
      <trkpt lat="42.22749" lon="24.62061">
        <ele>228.454443</ele>
        <time>2022-03-07T08:06:15.483Z</time>
      </trkpt>
      <trkpt lat="42.22756" lon="24.62048">
        <ele>228.465611</ele>
        <time>2022-03-07T08:06:18.462Z</time>
      </trkpt>
      <trkpt lat="42.22762" lon="24.62036">
        <ele>228.476709</ele>
        <time>2022-03-07T08:06:21.507Z</time>
      </trkpt>
      <trkpt lat="42.22768" lon="24.62023">
        <ele>228.487677</ele>
        <time>2022-03-07T08:06:24.484Z</time>
      </trkpt>
      <trkpt lat="42.22774" lon="24.62011">
        <ele>228.498144</ele>
        <time>2022-03-07T08:06:27.460Z</time>
      </trkpt>
      <trkpt lat="42.2278" lon="24.61997">
        <ele>228.474837</ele>
        <time>2022-03-07T08:06:30.478Z</time>
      </trkpt>
      <trkpt lat="42.22786" lon="24.61983">
        <ele>228.374627</ele>
        <time>2022-03-07T08:06:33.486Z</time>
      </trkpt>
      <trkpt lat="42.22792" lon="24.6197">
        <ele>228.278198</ele>
        <time>2022-03-07T08:06:36.475Z</time>
      </trkpt>
      <trkpt lat="42.22799" lon="24.61957">
        <ele>228.181946</ele>
        <time>2022-03-07T08:06:39.471Z</time>
      </trkpt>
      <trkpt lat="42.22805" lon="24.61943">
        <ele>228.088187</ele>
        <time>2022-03-07T08:06:42.483Z</time>
      </trkpt>
      <trkpt lat="42.22811" lon="24.6193">
        <ele>227.993802</ele>
        <time>2022-03-07T08:06:45.476Z</time>
      </trkpt>
      <trkpt lat="42.22816" lon="24.61917">
        <ele>227.902328</ele>
        <time>2022-03-07T08:06:48.469Z</time>
      </trkpt>
      <trkpt lat="42.22822" lon="24.61905">
        <ele>227.819094</ele>
        <time>2022-03-07T08:06:51.482Z</time>
      </trkpt>
      <trkpt lat="42.22828" lon="24.61893">
        <ele>227.732032</ele>
        <time>2022-03-07T08:06:54.511Z</time>
      </trkpt>
      <trkpt lat="42.22834" lon="24.61881">
        <ele>227.645816</ele>
        <time>2022-03-07T08:06:57.484Z</time>
      </trkpt>
      <trkpt lat="42.22839" lon="24.61868">
        <ele>227.555149</ele>
        <time>2022-03-07T08:07:00.471Z</time>
      </trkpt>
      <trkpt lat="42.22845" lon="24.61855">
        <ele>227.459933</ele>
        <time>2022-03-07T08:07:03.479Z</time>
      </trkpt>
      <trkpt lat="42.22851" lon="24.61842">
        <ele>227.367943</ele>
        <time>2022-03-07T08:07:06.482Z</time>
      </trkpt>
      <trkpt lat="42.22858" lon="24.61828">
        <ele>227.266693</ele>
        <time>2022-03-07T08:07:09.462Z</time>
      </trkpt>
      <trkpt lat="42.22864" lon="24.61815">
        <ele>227.173748</ele>
        <time>2022-03-07T08:07:12.475Z</time>
      </trkpt>
      <trkpt lat="42.22871" lon="24.61802">
        <ele>227.078779</ele>
        <time>2022-03-07T08:07:15.471Z</time>
      </trkpt>
      <trkpt lat="42.22877" lon="24.6179">
        <ele>227.045578</ele>
        <time>2022-03-07T08:07:18.484Z</time>
      </trkpt>
      <trkpt lat="42.22882" lon="24.61776">
        <ele>227.062683</ele>
        <time>2022-03-07T08:07:21.482Z</time>
      </trkpt>
      <trkpt lat="42.22888" lon="24.61763">
        <ele>227.079597</ele>
        <time>2022-03-07T08:07:24.479Z</time>
      </trkpt>
      <trkpt lat="42.22894" lon="24.61749">
        <ele>227.096677</ele>
        <time>2022-03-07T08:07:27.518Z</time>
      </trkpt>
      <trkpt lat="42.229" lon="24.61736">
        <ele>227.113173</ele>
        <time>2022-03-07T08:07:30.505Z</time>
      </trkpt>
      <trkpt lat="42.22906" lon="24.61724">
        <ele>227.128755</ele>
        <time>2022-03-07T08:07:33.475Z</time>
      </trkpt>
      <trkpt lat="42.22911" lon="24.61712">
        <ele>227.14445</ele>
        <time>2022-03-07T08:07:36.465Z</time>
      </trkpt>
      <trkpt lat="42.22916" lon="24.61699">
        <ele>227.160268</ele>
        <time>2022-03-07T08:07:39.487Z</time>
      </trkpt>
      <trkpt lat="42.22922" lon="24.61687">
        <ele>227.176424</ele>
        <time>2022-03-07T08:07:42.481Z</time>
      </trkpt>
      <trkpt lat="42.22927" lon="24.61674">
        <ele>227.192178</ele>
        <time>2022-03-07T08:07:45.469Z</time>
      </trkpt>
      <trkpt lat="42.22934" lon="24.61661">
        <ele>227.209251</ele>
        <time>2022-03-07T08:07:48.472Z</time>
      </trkpt>
      <trkpt lat="42.2294" lon="24.61649">
        <ele>227.225614</ele>
        <time>2022-03-07T08:07:51.486Z</time>
      </trkpt>
      <trkpt lat="42.22946" lon="24.61635">
        <ele>227.243652</ele>
        <time>2022-03-07T08:07:54.465Z</time>
      </trkpt>
      <trkpt lat="42.22952" lon="24.61622">
        <ele>227.260461</ele>
        <time>2022-03-07T08:07:57.476Z</time>
      </trkpt>
      <trkpt lat="42.22958" lon="24.61609">
        <ele>227.277007</ele>
        <time>2022-03-07T08:08:00.481Z</time>
      </trkpt>
      <trkpt lat="42.22964" lon="24.61595">
        <ele>227.294111</ele>
        <time>2022-03-07T08:08:03.474Z</time>
      </trkpt>
      <trkpt lat="42.22969" lon="24.61582">
        <ele>227.315194</ele>
        <time>2022-03-07T08:08:06.531Z</time>
      </trkpt>
      <trkpt lat="42.22975" lon="24.61569">
        <ele>227.338503</ele>
        <time>2022-03-07T08:08:09.481Z</time>
      </trkpt>
      <trkpt lat="42.2298" lon="24.61557">
        <ele>227.360896</ele>
        <time>2022-03-07T08:08:12.519Z</time>
      </trkpt>
      <trkpt lat="42.22986" lon="24.61545">
        <ele>227.384457</ele>
        <time>2022-03-07T08:08:15.490Z</time>
      </trkpt>
      <trkpt lat="42.22992" lon="24.61533">
        <ele>227.408344</ele>
        <time>2022-03-07T08:08:18.471Z</time>
      </trkpt>
      <trkpt lat="42.22998" lon="24.6152">
        <ele>227.432431</ele>
        <time>2022-03-07T08:08:21.470Z</time>
      </trkpt>
      <trkpt lat="42.23004" lon="24.61507">
        <ele>227.457512</ele>
        <time>2022-03-07T08:08:24.476Z</time>
      </trkpt>
      <trkpt lat="42.2301" lon="24.61495">
        <ele>227.480526</ele>
        <time>2022-03-07T08:08:27.491Z</time>
      </trkpt>
      <trkpt lat="42.23015" lon="24.61482">
        <ele>227.504277</ele>
        <time>2022-03-07T08:08:30.465Z</time>
      </trkpt>
      <trkpt lat="42.23021" lon="24.6147">
        <ele>227.52736</ele>
        <time>2022-03-07T08:08:33.486Z</time>
      </trkpt>
      <trkpt lat="42.23027" lon="24.61457">
        <ele>227.552205</ele>
        <time>2022-03-07T08:08:36.466Z</time>
      </trkpt>
      <trkpt lat="42.23034" lon="24.61444">
        <ele>227.577906</ele>
        <time>2022-03-07T08:08:39.489Z</time>
      </trkpt>
      <trkpt lat="42.2304" lon="24.61432">
        <ele>227.601779</ele>
        <time>2022-03-07T08:08:42.474Z</time>
      </trkpt>
      <trkpt lat="42.23046" lon="24.6142">
        <ele>227.625364</ele>
        <time>2022-03-07T08:08:45.505Z</time>
      </trkpt>
      <trkpt lat="42.23051" lon="24.61406">
        <ele>227.650141</ele>
        <time>2022-03-07T08:08:48.487Z</time>
      </trkpt>
      <trkpt lat="42.23057" lon="24.61393">
        <ele>227.67453</ele>
        <time>2022-03-07T08:08:51.504Z</time>
      </trkpt>
      <trkpt lat="42.23063" lon="24.6138">
        <ele>227.693263</ele>
        <time>2022-03-07T08:08:54.471Z</time>
      </trkpt>
      <trkpt lat="42.23069" lon="24.61367">
        <ele>227.686031</ele>
        <time>2022-03-07T08:08:57.479Z</time>
      </trkpt>
      <trkpt lat="42.23075" lon="24.61355">
        <ele>227.678918</ele>
        <time>2022-03-07T08:09:00.462Z</time>
      </trkpt>
      <trkpt lat="42.23081" lon="24.61342">
        <ele>227.671883</ele>
        <time>2022-03-07T08:09:03.473Z</time>
      </trkpt>
      <trkpt lat="42.23087" lon="24.6133">
        <ele>227.665156</ele>
        <time>2022-03-07T08:09:06.523Z</time>
      </trkpt>
      <trkpt lat="42.23092" lon="24.61317">
        <ele>227.657991</ele>
        <time>2022-03-07T08:09:09.466Z</time>
      </trkpt>
      <trkpt lat="42.23099" lon="24.61304">
        <ele>227.650799</ele>
        <time>2022-03-07T08:09:12.475Z</time>
      </trkpt>
      <trkpt lat="42.23105" lon="24.6129">
        <ele>227.64332</ele>
        <time>2022-03-07T08:09:15.465Z</time>
      </trkpt>
      <trkpt lat="42.23111" lon="24.61277">
        <ele>227.636088</ele>
        <time>2022-03-07T08:09:18.478Z</time>
      </trkpt>
      <trkpt lat="42.23117" lon="24.61264">
        <ele>227.628697</ele>
        <time>2022-03-07T08:09:21.473Z</time>
      </trkpt>
      <trkpt lat="42.23123" lon="24.61251">
        <ele>227.621283</ele>
        <time>2022-03-07T08:09:24.521Z</time>
      </trkpt>
      <trkpt lat="42.23129" lon="24.61237">
        <ele>227.614012</ele>
        <time>2022-03-07T08:09:27.487Z</time>
      </trkpt>
      <trkpt lat="42.23135" lon="24.61225">
        <ele>227.607026</ele>
        <time>2022-03-07T08:09:30.511Z</time>
      </trkpt>
      <trkpt lat="42.23141" lon="24.61212">
        <ele>227.600088</ele>
        <time>2022-03-07T08:09:33.479Z</time>
      </trkpt>
      <trkpt lat="42.23146" lon="24.61199">
        <ele>227.592948</ele>
        <time>2022-03-07T08:09:36.480Z</time>
      </trkpt>
      <trkpt lat="42.23152" lon="24.61185">
        <ele>227.585582</ele>
        <time>2022-03-07T08:09:39.460Z</time>
      </trkpt>
      <trkpt lat="42.23159" lon="24.61172">
        <ele>227.560061</ele>
        <time>2022-03-07T08:09:42.491Z</time>
      </trkpt>
      <trkpt lat="42.23165" lon="24.61159">
        <ele>227.495885</ele>
        <time>2022-03-07T08:09:45.480Z</time>
      </trkpt>
      <trkpt lat="42.2317" lon="24.61146">
        <ele>227.433044</ele>
        <time>2022-03-07T08:09:48.467Z</time>
      </trkpt>
      <trkpt lat="42.23176" lon="24.61134">
        <ele>227.371187</ele>
        <time>2022-03-07T08:09:51.485Z</time>
      </trkpt>
      <trkpt lat="42.23182" lon="24.61121">
        <ele>227.308978</ele>
        <time>2022-03-07T08:09:54.473Z</time>
      </trkpt>
      <trkpt lat="42.23188" lon="24.61108">
        <ele>227.245762</ele>
        <time>2022-03-07T08:09:57.467Z</time>
      </trkpt>
      <trkpt lat="42.23194" lon="24.61095">
        <ele>227.181186</ele>
        <time>2022-03-07T08:10:00.480Z</time>
      </trkpt>
      <trkpt lat="42.23201" lon="24.61082">
        <ele>227.11639</ele>
        <time>2022-03-07T08:10:03.529Z</time>
      </trkpt>
      <trkpt lat="42.23207" lon="24.61069">
        <ele>227.051461</ele>
        <time>2022-03-07T08:10:06.470Z</time>
      </trkpt>
      <trkpt lat="42.23212" lon="24.61056">
        <ele>226.986332</ele>
        <time>2022-03-07T08:10:09.532Z</time>
      </trkpt>
      <trkpt lat="42.23218" lon="24.61042">
        <ele>226.919837</ele>
        <time>2022-03-07T08:10:12.487Z</time>
      </trkpt>
      <trkpt lat="42.23224" lon="24.61029">
        <ele>226.854908</ele>
        <time>2022-03-07T08:10:15.474Z</time>
      </trkpt>
      <trkpt lat="42.2323" lon="24.61016">
        <ele>226.792346</ele>
        <time>2022-03-07T08:10:18.490Z</time>
      </trkpt>
      <trkpt lat="42.23236" lon="24.61003">
        <ele>226.731738</ele>
        <time>2022-03-07T08:10:21.465Z</time>
      </trkpt>
      <trkpt lat="42.23242" lon="24.6099">
        <ele>226.667613</ele>
        <time>2022-03-07T08:10:24.492Z</time>
      </trkpt>
      <trkpt lat="42.23248" lon="24.60977">
        <ele>226.601975</ele>
        <time>2022-03-07T08:10:27.479Z</time>
      </trkpt>
      <trkpt lat="42.23254" lon="24.60963">
        <ele>226.63081</ele>
        <time>2022-03-07T08:10:30.469Z</time>
      </trkpt>
      <trkpt lat="42.2326" lon="24.6095">
        <ele>226.768338</ele>
        <time>2022-03-07T08:10:33.481Z</time>
      </trkpt>
      <trkpt lat="42.23266" lon="24.60937">
        <ele>226.905115</ele>
        <time>2022-03-07T08:10:36.487Z</time>
      </trkpt>
      <trkpt lat="42.23272" lon="24.60924">
        <ele>227.043823</ele>
        <time>2022-03-07T08:10:39.494Z</time>
      </trkpt>
      <trkpt lat="42.23278" lon="24.6091">
        <ele>227.184372</ele>
        <time>2022-03-07T08:10:42.482Z</time>
      </trkpt>
      <trkpt lat="42.23284" lon="24.60897">
        <ele>227.324044</ele>
        <time>2022-03-07T08:10:45.481Z</time>
      </trkpt>
      <trkpt lat="42.2329" lon="24.60884">
        <ele>227.465858</ele>
        <time>2022-03-07T08:10:48.509Z</time>
      </trkpt>
      <trkpt lat="42.23297" lon="24.6087">
        <ele>227.609713</ele>
        <time>2022-03-07T08:10:51.490Z</time>
      </trkpt>
      <trkpt lat="42.23303" lon="24.60857">
        <ele>227.746887</ele>
        <time>2022-03-07T08:10:54.506Z</time>
      </trkpt>
      <trkpt lat="42.23308" lon="24.60844">
        <ele>227.881315</ele>
        <time>2022-03-07T08:10:57.477Z</time>
      </trkpt>
      <trkpt lat="42.23314" lon="24.60831">
        <ele>228.013803</ele>
        <time>2022-03-07T08:11:00.496Z</time>
      </trkpt>
      <trkpt lat="42.2332" lon="24.60818">
        <ele>228.145654</ele>
        <time>2022-03-07T08:11:03.477Z</time>
      </trkpt>
      <trkpt lat="42.23325" lon="24.60806">
        <ele>228.273498</ele>
        <time>2022-03-07T08:11:06.471Z</time>
      </trkpt>
      <trkpt lat="42.23331" lon="24.60793">
        <ele>228.401692</ele>
        <time>2022-03-07T08:11:09.490Z</time>
      </trkpt>
      <trkpt lat="42.23336" lon="24.6078">
        <ele>228.53612</ele>
        <time>2022-03-07T08:11:12.483Z</time>
      </trkpt>
      <trkpt lat="42.23342" lon="24.60767">
        <ele>228.673012</ele>
        <time>2022-03-07T08:11:15.459Z</time>
      </trkpt>
      <trkpt lat="42.23348" lon="24.60754">
        <ele>228.728476</ele>
        <time>2022-03-07T08:11:18.480Z</time>
      </trkpt>
      <trkpt lat="42.23354" lon="24.60741">
        <ele>228.733165</ele>
        <time>2022-03-07T08:11:21.517Z</time>
      </trkpt>
      <trkpt lat="42.23361" lon="24.6073">
        <ele>228.737644</ele>
        <time>2022-03-07T08:11:24.472Z</time>
      </trkpt>
      <trkpt lat="42.23367" lon="24.60717">
        <ele>228.742079</ele>
        <time>2022-03-07T08:11:27.487Z</time>
      </trkpt>
      <trkpt lat="42.23373" lon="24.60704">
        <ele>228.746872</ele>
        <time>2022-03-07T08:11:30.473Z</time>
      </trkpt>
      <trkpt lat="42.23379" lon="24.6069">
        <ele>228.751726</ele>
        <time>2022-03-07T08:11:33.486Z</time>
      </trkpt>
      <trkpt lat="42.23386" lon="24.60677">
        <ele>228.756636</ele>
        <time>2022-03-07T08:11:36.492Z</time>
      </trkpt>
      <trkpt lat="42.23391" lon="24.60663">
        <ele>228.761406</ele>
        <time>2022-03-07T08:11:39.480Z</time>
      </trkpt>
      <trkpt lat="42.23397" lon="24.6065">
        <ele>228.766143</ele>
        <time>2022-03-07T08:11:42.481Z</time>
      </trkpt>
      <trkpt lat="42.23403" lon="24.60637">
        <ele>228.770776</ele>
        <time>2022-03-07T08:11:45.477Z</time>
      </trkpt>
      <trkpt lat="42.2341" lon="24.60624">
        <ele>228.775461</ele>
        <time>2022-03-07T08:11:48.480Z</time>
      </trkpt>
      <trkpt lat="42.23415" lon="24.60612">
        <ele>228.779814</ele>
        <time>2022-03-07T08:11:51.477Z</time>
      </trkpt>
      <trkpt lat="42.23421" lon="24.60598">
        <ele>228.784723</ele>
        <time>2022-03-07T08:11:54.515Z</time>
      </trkpt>
      <trkpt lat="42.23427" lon="24.60585">
        <ele>228.789407</ele>
        <time>2022-03-07T08:11:57.469Z</time>
      </trkpt>
      <trkpt lat="42.23433" lon="24.60572">
        <ele>228.793846</ele>
        <time>2022-03-07T08:12:00.476Z</time>
      </trkpt>
      <trkpt lat="42.23439" lon="24.6056">
        <ele>228.798333</ele>
        <time>2022-03-07T08:12:03.485Z</time>
      </trkpt>
      <trkpt lat="42.23444" lon="24.60548">
        <ele>228.752494</ele>
        <time>2022-03-07T08:12:06.469Z</time>
      </trkpt>
      <trkpt lat="42.2345" lon="24.60535">
        <ele>228.685463</ele>
        <time>2022-03-07T08:12:09.491Z</time>
      </trkpt>
      <trkpt lat="42.23456" lon="24.60522">
        <ele>228.616834</ele>
        <time>2022-03-07T08:12:12.485Z</time>
      </trkpt>
      <trkpt lat="42.23462" lon="24.60509">
        <ele>228.548592</ele>
        <time>2022-03-07T08:12:15.487Z</time>
      </trkpt>
      <trkpt lat="42.23468" lon="24.60496">
        <ele>228.479011</ele>
        <time>2022-03-07T08:12:18.496Z</time>
      </trkpt>
      <trkpt lat="42.23474" lon="24.60482">
        <ele>228.408985</ele>
        <time>2022-03-07T08:12:21.474Z</time>
      </trkpt>
      <trkpt lat="42.2348" lon="24.60469">
        <ele>228.336854</ele>
        <time>2022-03-07T08:12:24.499Z</time>
      </trkpt>
      <trkpt lat="42.23486" lon="24.60455">
        <ele>228.263639</ele>
        <time>2022-03-07T08:12:27.518Z</time>
      </trkpt>
      <trkpt lat="42.23493" lon="24.60442">
        <ele>228.19253</ele>
        <time>2022-03-07T08:12:30.476Z</time>
      </trkpt>
      <trkpt lat="42.23499" lon="24.60428">
        <ele>228.122187</ele>
        <time>2022-03-07T08:12:33.492Z</time>
      </trkpt>
      <trkpt lat="42.23504" lon="24.60415">
        <ele>228.052398</ele>
        <time>2022-03-07T08:12:36.482Z</time>
      </trkpt>
      <trkpt lat="42.2351" lon="24.60402">
        <ele>227.984924</ele>
        <time>2022-03-07T08:12:39.518Z</time>
      </trkpt>
      <trkpt lat="42.23516" lon="24.60389">
        <ele>227.917765</ele>
        <time>2022-03-07T08:12:42.475Z</time>
      </trkpt>
      <trkpt lat="42.23522" lon="24.60376">
        <ele>227.849323</ele>
        <time>2022-03-07T08:12:45.484Z</time>
      </trkpt>
      <trkpt lat="42.23528" lon="24.60363">
        <ele>227.780616</ele>
        <time>2022-03-07T08:12:48.481Z</time>
      </trkpt>
      <trkpt lat="42.23534" lon="24.60351">
        <ele>227.713259</ele>
        <time>2022-03-07T08:12:51.484Z</time>
      </trkpt>
      <trkpt lat="42.2354" lon="24.60338">
        <ele>227.716434</ele>
        <time>2022-03-07T08:12:54.480Z</time>
      </trkpt>
      <trkpt lat="42.23546" lon="24.60325">
        <ele>227.726978</ele>
        <time>2022-03-07T08:12:57.486Z</time>
      </trkpt>
      <trkpt lat="42.23553" lon="24.60312">
        <ele>227.737233</ele>
        <time>2022-03-07T08:13:00.465Z</time>
      </trkpt>
      <trkpt lat="42.23559" lon="24.603">
        <ele>227.747245</ele>
        <time>2022-03-07T08:13:03.479Z</time>
      </trkpt>
      <trkpt lat="42.23565" lon="24.60287">
        <ele>227.757237</ele>
        <time>2022-03-07T08:13:06.487Z</time>
      </trkpt>
      <trkpt lat="42.23571" lon="24.60275">
        <ele>227.766758</ele>
        <time>2022-03-07T08:13:09.466Z</time>
      </trkpt>
      <trkpt lat="42.23576" lon="24.60263">
        <ele>227.776629</ele>
        <time>2022-03-07T08:13:12.477Z</time>
      </trkpt>
      <trkpt lat="42.23581" lon="24.6025">
        <ele>227.785926</ele>
        <time>2022-03-07T08:13:15.482Z</time>
      </trkpt>
      <trkpt lat="42.23587" lon="24.60238">
        <ele>227.795912</ele>
        <time>2022-03-07T08:13:18.477Z</time>
      </trkpt>
      <trkpt lat="42.23593" lon="24.60225">
        <ele>227.805991</ele>
        <time>2022-03-07T08:13:21.487Z</time>
      </trkpt>
      <trkpt lat="42.23598" lon="24.60212">
        <ele>227.816092</ele>
        <time>2022-03-07T08:13:24.515Z</time>
      </trkpt>
      <trkpt lat="42.23604" lon="24.602">
        <ele>227.825648</ele>
        <time>2022-03-07T08:13:27.475Z</time>
      </trkpt>
      <trkpt lat="42.2361" lon="24.60187">
        <ele>227.835955</ele>
        <time>2022-03-07T08:13:30.474Z</time>
      </trkpt>
      <trkpt lat="42.23616" lon="24.60173">
        <ele>227.846552</ele>
        <time>2022-03-07T08:13:33.473Z</time>
      </trkpt>
      <trkpt lat="42.23622" lon="24.6016">
        <ele>227.85699</ele>
        <time>2022-03-07T08:13:36.463Z</time>
      </trkpt>
      <trkpt lat="42.23628" lon="24.60147">
        <ele>227.866886</ele>
        <time>2022-03-07T08:13:39.484Z</time>
      </trkpt>
      <trkpt lat="42.23634" lon="24.60134">
        <ele>227.9099</ele>
        <time>2022-03-07T08:13:42.481Z</time>
      </trkpt>
      <trkpt lat="42.2364" lon="24.60121">
        <ele>227.964832</ele>
        <time>2022-03-07T08:13:45.489Z</time>
      </trkpt>
      <trkpt lat="42.23646" lon="24.60109">
        <ele>228.019764</ele>
        <time>2022-03-07T08:13:48.487Z</time>
      </trkpt>
      <trkpt lat="42.23652" lon="24.60096">
        <ele>228.074737</ele>
        <time>2022-03-07T08:13:51.499Z</time>
      </trkpt>
      <trkpt lat="42.23658" lon="24.60083">
        <ele>228.130123</ele>
        <time>2022-03-07T08:13:54.482Z</time>
      </trkpt>
      <trkpt lat="42.23663" lon="24.6007">
        <ele>228.184324</ele>
        <time>2022-03-07T08:13:57.511Z</time>
      </trkpt>
      <trkpt lat="42.23669" lon="24.60057">
        <ele>228.240896</ele>
        <time>2022-03-07T08:14:00.469Z</time>
      </trkpt>
      <trkpt lat="42.23675" lon="24.60044">
        <ele>228.295972</ele>
        <time>2022-03-07T08:14:03.527Z</time>
      </trkpt>
      <trkpt lat="42.23681" lon="24.60031">
        <ele>228.35182</ele>
        <time>2022-03-07T08:14:06.471Z</time>
      </trkpt>
      <trkpt lat="42.23687" lon="24.60018">
        <ele>228.405091</ele>
        <time>2022-03-07T08:14:09.474Z</time>
      </trkpt>
      <trkpt lat="42.23692" lon="24.60006">
        <ele>228.457118</ele>
        <time>2022-03-07T08:14:12.476Z</time>
      </trkpt>
      <trkpt lat="42.23699" lon="24.59992">
        <ele>228.515821</ele>
        <time>2022-03-07T08:14:15.473Z</time>
      </trkpt>
      <trkpt lat="42.23705" lon="24.59978">
        <ele>228.57465</ele>
        <time>2022-03-07T08:14:18.472Z</time>
      </trkpt>
      <trkpt lat="42.23711" lon="24.59966">
        <ele>228.629277</ele>
        <time>2022-03-07T08:14:21.482Z</time>
      </trkpt>
      <trkpt lat="42.23717" lon="24.59953">
        <ele>228.684663</ele>
        <time>2022-03-07T08:14:24.484Z</time>
      </trkpt>
      <trkpt lat="42.23723" lon="24.5994">
        <ele>228.738761</ele>
        <time>2022-03-07T08:14:27.455Z</time>
      </trkpt>
      <trkpt lat="42.23728" lon="24.59927">
        <ele>228.711148</ele>
        <time>2022-03-07T08:14:30.492Z</time>
      </trkpt>
      <trkpt lat="42.23734" lon="24.59914">
        <ele>228.655926</ele>
        <time>2022-03-07T08:14:33.506Z</time>
      </trkpt>
      <trkpt lat="42.2374" lon="24.59902">
        <ele>228.602395</ele>
        <time>2022-03-07T08:14:36.465Z</time>
      </trkpt>
      <trkpt lat="42.23746" lon="24.59889">
        <ele>228.547737</ele>
        <time>2022-03-07T08:14:39.481Z</time>
      </trkpt>
      <trkpt lat="42.23752" lon="24.59876">
        <ele>228.493079</ele>
        <time>2022-03-07T08:14:42.477Z</time>
      </trkpt>
      <trkpt lat="42.23758" lon="24.59863">
        <ele>228.438379</ele>
        <time>2022-03-07T08:14:45.472Z</time>
      </trkpt>
      <trkpt lat="42.23764" lon="24.5985">
        <ele>228.383678</ele>
        <time>2022-03-07T08:14:48.483Z</time>
      </trkpt>
      <trkpt lat="42.2377" lon="24.59837">
        <ele>228.328315</ele>
        <time>2022-03-07T08:14:51.515Z</time>
      </trkpt>
      <trkpt lat="42.23777" lon="24.59824">
        <ele>228.271017</ele>
        <time>2022-03-07T08:14:54.475Z</time>
      </trkpt>
      <trkpt lat="42.23783" lon="24.59811">
        <ele>228.21596</ele>
        <time>2022-03-07T08:14:57.486Z</time>
      </trkpt>
      <trkpt lat="42.23789" lon="24.59798">
        <ele>228.160134</ele>
        <time>2022-03-07T08:15:00.480Z</time>
      </trkpt>
      <trkpt lat="42.23795" lon="24.59784">
        <ele>228.104519</ele>
        <time>2022-03-07T08:15:03.476Z</time>
      </trkpt>
      <trkpt lat="42.23801" lon="24.59771">
        <ele>228.049769</ele>
        <time>2022-03-07T08:15:06.479Z</time>
      </trkpt>
      <trkpt lat="42.23807" lon="24.59758">
        <ele>227.993288</ele>
        <time>2022-03-07T08:15:09.474Z</time>
      </trkpt>
      <trkpt lat="42.23812" lon="24.59746">
        <ele>227.942867</ele>
        <time>2022-03-07T08:15:12.485Z</time>
      </trkpt>
      <trkpt lat="42.23818" lon="24.59732">
        <ele>227.884908</ele>
        <time>2022-03-07T08:15:15.493Z</time>
      </trkpt>
      <trkpt lat="42.23824" lon="24.59719">
        <ele>227.903899</ele>
        <time>2022-03-07T08:15:18.508Z</time>
      </trkpt>
      <trkpt lat="42.2383" lon="24.59707">
        <ele>227.931531</ele>
        <time>2022-03-07T08:15:21.480Z</time>
      </trkpt>
      <trkpt lat="42.23835" lon="24.59695">
        <ele>227.957745</ele>
        <time>2022-03-07T08:15:24.516Z</time>
      </trkpt>
      <trkpt lat="42.2384" lon="24.59684">
        <ele>227.982058</ele>
        <time>2022-03-07T08:15:27.494Z</time>
      </trkpt>
      <trkpt lat="42.23846" lon="24.59672">
        <ele>228.009829</ele>
        <time>2022-03-07T08:15:30.496Z</time>
      </trkpt>
      <trkpt lat="42.23852" lon="24.59659">
        <ele>228.038711</ele>
        <time>2022-03-07T08:15:33.494Z</time>
      </trkpt>
      <trkpt lat="42.23858" lon="24.59646">
        <ele>228.068004</ele>
        <time>2022-03-07T08:15:36.486Z</time>
      </trkpt>
      <trkpt lat="42.23864" lon="24.59633">
        <ele>228.096886</ele>
        <time>2022-03-07T08:15:39.493Z</time>
      </trkpt>
      <trkpt lat="42.2387" lon="24.59619">
        <ele>228.126223</ele>
        <time>2022-03-07T08:15:42.472Z</time>
      </trkpt>
      <trkpt lat="42.23877" lon="24.59606">
        <ele>228.15524</ele>
        <time>2022-03-07T08:15:45.474Z</time>
      </trkpt>
      <trkpt lat="42.23882" lon="24.59594">
        <ele>228.183079</ele>
        <time>2022-03-07T08:15:48.499Z</time>
      </trkpt>
      <trkpt lat="42.23888" lon="24.59581">
        <ele>228.211621</ele>
        <time>2022-03-07T08:15:51.492Z</time>
      </trkpt>
      <trkpt lat="42.23895" lon="24.59568">
        <ele>228.24123</ele>
        <time>2022-03-07T08:15:54.483Z</time>
      </trkpt>
      <trkpt lat="42.239" lon="24.59555">
        <ele>228.269846</ele>
        <time>2022-03-07T08:15:57.517Z</time>
      </trkpt>
      <trkpt lat="42.23906" lon="24.59542">
        <ele>228.297364</ele>
        <time>2022-03-07T08:16:00.478Z</time>
      </trkpt>
      <trkpt lat="42.23912" lon="24.5953">
        <ele>228.323972</ele>
        <time>2022-03-07T08:16:03.472Z</time>
      </trkpt>
      <trkpt lat="42.23917" lon="24.59518">
        <ele>228.37376</ele>
        <time>2022-03-07T08:16:06.493Z</time>
      </trkpt>
      <trkpt lat="42.23922" lon="24.59508">
        <ele>228.437634</ele>
        <time>2022-03-07T08:16:09.480Z</time>
      </trkpt>
      <trkpt lat="42.23928" lon="24.59495">
        <ele>228.516175</ele>
        <time>2022-03-07T08:16:12.468Z</time>
      </trkpt>
      <trkpt lat="42.23934" lon="24.59482">
        <ele>228.591391</ele>
        <time>2022-03-07T08:16:15.487Z</time>
      </trkpt>
      <trkpt lat="42.23939" lon="24.5947">
        <ele>228.665745</ele>
        <time>2022-03-07T08:16:18.476Z</time>
      </trkpt>
      <trkpt lat="42.23945" lon="24.59457">
        <ele>228.738656</ele>
        <time>2022-03-07T08:16:21.479Z</time>
      </trkpt>
      <trkpt lat="42.2395" lon="24.59446">
        <ele>228.809691</ele>
        <time>2022-03-07T08:16:24.480Z</time>
      </trkpt>
      <trkpt lat="42.23956" lon="24.59434">
        <ele>228.878832</ele>
        <time>2022-03-07T08:16:27.478Z</time>
      </trkpt>
      <trkpt lat="42.23961" lon="24.59422">
        <ele>228.952818</ele>
        <time>2022-03-07T08:16:30.465Z</time>
      </trkpt>
      <trkpt lat="42.23967" lon="24.59409">
        <ele>229.027311</ele>
        <time>2022-03-07T08:16:33.479Z</time>
      </trkpt>
      <trkpt lat="42.23972" lon="24.59397">
        <ele>229.097417</ele>
        <time>2022-03-07T08:16:36.479Z</time>
      </trkpt>
      <trkpt lat="42.23977" lon="24.59385">
        <ele>229.169296</ele>
        <time>2022-03-07T08:16:39.475Z</time>
      </trkpt>
      <trkpt lat="42.23982" lon="24.59373">
        <ele>229.239231</ele>
        <time>2022-03-07T08:16:42.515Z</time>
      </trkpt>
      <trkpt lat="42.23988" lon="24.59361">
        <ele>229.312419</ele>
        <time>2022-03-07T08:16:45.478Z</time>
      </trkpt>
      <trkpt lat="42.23994" lon="24.59348">
        <ele>229.390836</ele>
        <time>2022-03-07T08:16:48.473Z</time>
      </trkpt>
      <trkpt lat="42.24" lon="24.59336">
        <ele>229.464821</ele>
        <time>2022-03-07T08:16:51.487Z</time>
      </trkpt>
      <trkpt lat="42.24006" lon="24.59323">
        <ele>229.543665</ele>
        <time>2022-03-07T08:16:54.476Z</time>
      </trkpt>
      <trkpt lat="42.24012" lon="24.5931">
        <ele>229.52983</ele>
        <time>2022-03-07T08:16:57.486Z</time>
      </trkpt>
      <trkpt lat="42.24018" lon="24.59297">
        <ele>229.451211</ele>
        <time>2022-03-07T08:17:00.469Z</time>
      </trkpt>
      <trkpt lat="42.24024" lon="24.59284">
        <ele>229.370937</ele>
        <time>2022-03-07T08:17:03.474Z</time>
      </trkpt>
      <trkpt lat="42.2403" lon="24.59272">
        <ele>229.296531</ele>
        <time>2022-03-07T08:17:06.482Z</time>
      </trkpt>
      <trkpt lat="42.24037" lon="24.59259">
        <ele>229.219626</ele>
        <time>2022-03-07T08:17:09.476Z</time>
      </trkpt>
      <trkpt lat="42.24042" lon="24.59247">
        <ele>229.147062</ele>
        <time>2022-03-07T08:17:12.474Z</time>
      </trkpt>
      <trkpt lat="42.24048" lon="24.59234">
        <ele>229.071808</ele>
        <time>2022-03-07T08:17:15.493Z</time>
      </trkpt>
      <trkpt lat="42.24054" lon="24.59221">
        <ele>228.99408</ele>
        <time>2022-03-07T08:17:18.495Z</time>
      </trkpt>
      <trkpt lat="42.24059" lon="24.59209">
        <ele>228.919568</ele>
        <time>2022-03-07T08:17:21.475Z</time>
      </trkpt>
      <trkpt lat="42.24065" lon="24.59196">
        <ele>228.842605</ele>
        <time>2022-03-07T08:17:24.491Z</time>
      </trkpt>
      <trkpt lat="42.24071" lon="24.59183">
        <ele>228.766367</ele>
        <time>2022-03-07T08:17:27.518Z</time>
      </trkpt>
      <trkpt lat="42.24077" lon="24.5917">
        <ele>228.691274</ele>
        <time>2022-03-07T08:17:30.466Z</time>
      </trkpt>
      <trkpt lat="42.24083" lon="24.59157">
        <ele>228.610265</ele>
        <time>2022-03-07T08:17:33.529Z</time>
      </trkpt>
      <trkpt lat="42.24089" lon="24.59144">
        <ele>228.535172</ele>
        <time>2022-03-07T08:17:36.485Z</time>
      </trkpt>
      <trkpt lat="42.24094" lon="24.59132">
        <ele>228.460866</ele>
        <time>2022-03-07T08:17:39.511Z</time>
      </trkpt>
      <trkpt lat="42.241" lon="24.59119">
        <ele>228.386783</ele>
        <time>2022-03-07T08:17:42.487Z</time>
      </trkpt>
      <trkpt lat="42.24106" lon="24.59107">
        <ele>228.393676</ele>
        <time>2022-03-07T08:17:45.475Z</time>
      </trkpt>
      <trkpt lat="42.24111" lon="24.59094">
        <ele>228.532962</ele>
        <time>2022-03-07T08:17:48.464Z</time>
      </trkpt>
      <trkpt lat="42.24118" lon="24.5908">
        <ele>228.691902</ele>
        <time>2022-03-07T08:17:51.481Z</time>
      </trkpt>
      <trkpt lat="42.24125" lon="24.59066">
        <ele>228.853144</ele>
        <time>2022-03-07T08:17:54.479Z</time>
      </trkpt>
      <trkpt lat="42.24131" lon="24.59053">
        <ele>228.999067</ele>
        <time>2022-03-07T08:17:57.486Z</time>
      </trkpt>
      <trkpt lat="42.24137" lon="24.59041">
        <ele>229.141987</ele>
        <time>2022-03-07T08:18:00.487Z</time>
      </trkpt>
      <trkpt lat="42.24143" lon="24.59027">
        <ele>229.295721</ele>
        <time>2022-03-07T08:18:03.484Z</time>
      </trkpt>
      <trkpt lat="42.24149" lon="24.59013">
        <ele>229.447746</ele>
        <time>2022-03-07T08:18:06.466Z</time>
      </trkpt>
      <trkpt lat="42.24155" lon="24.59">
        <ele>229.594701</ele>
        <time>2022-03-07T08:18:09.480Z</time>
      </trkpt>
      <trkpt lat="42.24161" lon="24.58987">
        <ele>229.738369</ele>
        <time>2022-03-07T08:18:12.476Z</time>
      </trkpt>
      <trkpt lat="42.24166" lon="24.58974">
        <ele>229.875985</ele>
        <time>2022-03-07T08:18:15.484Z</time>
      </trkpt>
      <trkpt lat="42.24171" lon="24.58961">
        <ele>230.019023</ele>
        <time>2022-03-07T08:18:18.514Z</time>
      </trkpt>
      <trkpt lat="42.24177" lon="24.58948">
        <ele>230.164488</ele>
        <time>2022-03-07T08:18:21.496Z</time>
      </trkpt>
      <trkpt lat="42.24183" lon="24.58936">
        <ele>230.308908</ele>
        <time>2022-03-07T08:18:24.471Z</time>
      </trkpt>
      <trkpt lat="42.24189" lon="24.58923">
        <ele>230.453865</ele>
        <time>2022-03-07T08:18:27.480Z</time>
      </trkpt>
      <trkpt lat="42.24195" lon="24.5891">
        <ele>230.596362</ele>
        <time>2022-03-07T08:18:30.483Z</time>
      </trkpt>
      <trkpt lat="42.24201" lon="24.58896">
        <ele>230.701685</ele>
        <time>2022-03-07T08:18:33.511Z</time>
      </trkpt>
      <trkpt lat="42.24207" lon="24.58884">
        <ele>230.770981</ele>
        <time>2022-03-07T08:18:36.477Z</time>
      </trkpt>
      <trkpt lat="42.24213" lon="24.58871">
        <ele>230.843179</ele>
        <time>2022-03-07T08:18:39.478Z</time>
      </trkpt>
      <trkpt lat="42.24219" lon="24.58857">
        <ele>230.914122</ele>
        <time>2022-03-07T08:18:42.481Z</time>
      </trkpt>
      <trkpt lat="42.24224" lon="24.58845">
        <ele>230.981581</ele>
        <time>2022-03-07T08:18:45.504Z</time>
      </trkpt>
      <trkpt lat="42.2423" lon="24.58831">
        <ele>231.054922</ele>
        <time>2022-03-07T08:18:48.485Z</time>
      </trkpt>
      <trkpt lat="42.24236" lon="24.58818">
        <ele>231.125003</ele>
        <time>2022-03-07T08:18:51.532Z</time>
      </trkpt>
      <trkpt lat="42.24243" lon="24.58805">
        <ele>231.199044</ele>
        <time>2022-03-07T08:18:54.478Z</time>
      </trkpt>
      <trkpt lat="42.24249" lon="24.58792">
        <ele>231.268284</ele>
        <time>2022-03-07T08:18:57.471Z</time>
      </trkpt>
      <trkpt lat="42.24255" lon="24.5878">
        <ele>231.336409</ele>
        <time>2022-03-07T08:19:00.458Z</time>
      </trkpt>
      <trkpt lat="42.2426" lon="24.58767">
        <ele>231.404728</ele>
        <time>2022-03-07T08:19:03.506Z</time>
      </trkpt>
      <trkpt lat="42.24266" lon="24.58755">
        <ele>231.471933</ele>
        <time>2022-03-07T08:19:06.481Z</time>
      </trkpt>
      <trkpt lat="42.24271" lon="24.58742">
        <ele>231.541846</ele>
        <time>2022-03-07T08:19:09.473Z</time>
      </trkpt>
      <trkpt lat="42.24278" lon="24.58729">
        <ele>231.612117</ele>
        <time>2022-03-07T08:19:12.494Z</time>
      </trkpt>
      <trkpt lat="42.24283" lon="24.58716">
        <ele>231.682029</ele>
        <time>2022-03-07T08:19:15.487Z</time>
      </trkpt>
      <trkpt lat="42.2429" lon="24.58703">
        <ele>231.753007</ele>
        <time>2022-03-07T08:19:18.496Z</time>
      </trkpt>
      <trkpt lat="42.24295" lon="24.58691">
        <ele>231.788782</ele>
        <time>2022-03-07T08:19:21.497Z</time>
      </trkpt>
      <trkpt lat="42.24302" lon="24.58678">
        <ele>231.801745</ele>
        <time>2022-03-07T08:19:24.500Z</time>
      </trkpt>
      <trkpt lat="42.24308" lon="24.58665">
        <ele>231.815295</ele>
        <time>2022-03-07T08:19:27.485Z</time>
      </trkpt>
      <trkpt lat="42.24314" lon="24.58651">
        <ele>231.829294</ele>
        <time>2022-03-07T08:19:30.481Z</time>
      </trkpt>
      <trkpt lat="42.2432" lon="24.58637">
        <ele>231.842858</ele>
        <time>2022-03-07T08:19:33.463Z</time>
      </trkpt>
      <trkpt lat="42.24327" lon="24.58624">
        <ele>231.856786</ele>
        <time>2022-03-07T08:19:36.507Z</time>
      </trkpt>
      <trkpt lat="42.24334" lon="24.5861">
        <ele>231.870777</ele>
        <time>2022-03-07T08:19:39.559Z</time>
      </trkpt>
      <trkpt lat="42.2434" lon="24.58597">
        <ele>231.884556</ele>
        <time>2022-03-07T08:19:42.481Z</time>
      </trkpt>
      <trkpt lat="42.24347" lon="24.58584">
        <ele>231.897774</ele>
        <time>2022-03-07T08:19:45.484Z</time>
      </trkpt>
      <trkpt lat="42.24354" lon="24.58571">
        <ele>231.911267</ele>
        <time>2022-03-07T08:19:48.485Z</time>
      </trkpt>
      <trkpt lat="42.24362" lon="24.58559">
        <ele>231.924905</ele>
        <time>2022-03-07T08:19:51.481Z</time>
      </trkpt>
      <trkpt lat="42.24369" lon="24.58547">
        <ele>231.938287</ele>
        <time>2022-03-07T08:19:54.483Z</time>
      </trkpt>
      <trkpt lat="42.24376" lon="24.58536">
        <ele>231.950939</ele>
        <time>2022-03-07T08:19:57.491Z</time>
      </trkpt>
      <trkpt lat="42.24384" lon="24.58525">
        <ele>231.964183</ele>
        <time>2022-03-07T08:20:00.485Z</time>
      </trkpt>
      <trkpt lat="42.24392" lon="24.58513">
        <ele>231.977911</ele>
        <time>2022-03-07T08:20:03.484Z</time>
      </trkpt>
      <trkpt lat="42.24401" lon="24.58501">
        <ele>231.981795</ele>
        <time>2022-03-07T08:20:06.514Z</time>
      </trkpt>
      <trkpt lat="42.24409" lon="24.58489">
        <ele>231.945737</ele>
        <time>2022-03-07T08:20:09.505Z</time>
      </trkpt>
      <trkpt lat="42.24417" lon="24.58478">
        <ele>231.909798</ele>
        <time>2022-03-07T08:20:12.478Z</time>
      </trkpt>
      <trkpt lat="42.24425" lon="24.58466">
        <ele>231.87381</ele>
        <time>2022-03-07T08:20:15.527Z</time>
      </trkpt>
      <trkpt lat="42.24434" lon="24.58454">
        <ele>231.837128</ele>
        <time>2022-03-07T08:20:18.470Z</time>
      </trkpt>
      <trkpt lat="42.24442" lon="24.58443">
        <ele>231.800068</ele>
        <time>2022-03-07T08:20:21.461Z</time>
      </trkpt>
      <trkpt lat="42.2445" lon="24.58431">
        <ele>231.765049</ele>
        <time>2022-03-07T08:20:24.480Z</time>
      </trkpt>
      <trkpt lat="42.24457" lon="24.58419">
        <ele>231.730201</ele>
        <time>2022-03-07T08:20:27.486Z</time>
      </trkpt>
      <trkpt lat="42.24466" lon="24.58408">
        <ele>231.693573</ele>
        <time>2022-03-07T08:20:30.495Z</time>
      </trkpt>
      <trkpt lat="42.24474" lon="24.58396">
        <ele>231.658063</ele>
        <time>2022-03-07T08:20:33.489Z</time>
      </trkpt>
      <trkpt lat="42.24482" lon="24.58385">
        <ele>231.621799</ele>
        <time>2022-03-07T08:20:36.486Z</time>
      </trkpt>
      <trkpt lat="42.24491" lon="24.58372">
        <ele>231.584744</ele>
        <time>2022-03-07T08:20:39.488Z</time>
      </trkpt>
      <trkpt lat="42.24498" lon="24.58361">
        <ele>231.549261</ele>
        <time>2022-03-07T08:20:42.473Z</time>
      </trkpt>
      <trkpt lat="42.24506" lon="24.58348">
        <ele>231.513762</ele>
        <time>2022-03-07T08:20:45.483Z</time>
      </trkpt>
      <trkpt lat="42.24513" lon="24.58337">
        <ele>231.47922</ele>
        <time>2022-03-07T08:20:48.505Z</time>
      </trkpt>
      <trkpt lat="42.24522" lon="24.58324">
        <ele>231.450757</ele>
        <time>2022-03-07T08:20:51.477Z</time>
      </trkpt>
      <trkpt lat="42.24531" lon="24.58313">
        <ele>231.50632</ele>
        <time>2022-03-07T08:20:54.493Z</time>
      </trkpt>
      <trkpt lat="42.2454" lon="24.58301">
        <ele>231.56898</ele>
        <time>2022-03-07T08:20:57.493Z</time>
      </trkpt>
      <trkpt lat="42.24546" lon="24.58291">
        <ele>231.613845</ele>
        <time>2022-03-07T08:20:59.485Z</time>
      </trkpt>
      <trkpt lat="42.24553" lon="24.58282">
        <ele>231.657141</ele>
        <time>2022-03-07T08:21:01.478Z</time>
      </trkpt>
      <trkpt lat="42.24559" lon="24.58273">
        <ele>231.700375</ele>
        <time>2022-03-07T08:21:03.478Z</time>
      </trkpt>
      <trkpt lat="42.24565" lon="24.58264">
        <ele>231.744988</ele>
        <time>2022-03-07T08:21:05.484Z</time>
      </trkpt>
      <trkpt lat="42.24574" lon="24.58252">
        <ele>231.805229</ele>
        <time>2022-03-07T08:21:08.486Z</time>
      </trkpt>
      <trkpt lat="42.24583" lon="24.5824">
        <ele>231.866559</ele>
        <time>2022-03-07T08:21:11.491Z</time>
      </trkpt>
      <trkpt lat="42.24592" lon="24.58228">
        <ele>231.924562</ele>
        <time>2022-03-07T08:21:14.506Z</time>
      </trkpt>
      <trkpt lat="42.246" lon="24.58217">
        <ele>231.979881</ele>
        <time>2022-03-07T08:21:17.475Z</time>
      </trkpt>
      <trkpt lat="42.24607" lon="24.58205">
        <ele>232.033499</ele>
        <time>2022-03-07T08:21:20.483Z</time>
      </trkpt>
      <trkpt lat="42.24616" lon="24.58193">
        <ele>232.09258</ele>
        <time>2022-03-07T08:21:23.476Z</time>
      </trkpt>
      <trkpt lat="42.24624" lon="24.5818">
        <ele>232.153329</ele>
        <time>2022-03-07T08:21:26.484Z</time>
      </trkpt>
      <trkpt lat="42.24634" lon="24.58168">
        <ele>232.21574</ele>
        <time>2022-03-07T08:21:29.486Z</time>
      </trkpt>
      <trkpt lat="42.24642" lon="24.58155">
        <ele>232.275906</ele>
        <time>2022-03-07T08:21:32.518Z</time>
      </trkpt>
      <trkpt lat="42.24651" lon="24.58144">
        <ele>232.364943</ele>
        <time>2022-03-07T08:21:35.478Z</time>
      </trkpt>
      <trkpt lat="42.24659" lon="24.58132">
        <ele>232.486218</ele>
        <time>2022-03-07T08:21:38.478Z</time>
      </trkpt>
      <trkpt lat="42.24667" lon="24.5812">
        <ele>232.608569</ele>
        <time>2022-03-07T08:21:41.496Z</time>
      </trkpt>
      <trkpt lat="42.24675" lon="24.58108">
        <ele>232.726115</ele>
        <time>2022-03-07T08:21:44.480Z</time>
      </trkpt>
      <trkpt lat="42.24683" lon="24.58095">
        <ele>232.851696</ele>
        <time>2022-03-07T08:21:47.482Z</time>
      </trkpt>
      <trkpt lat="42.24692" lon="24.58082">
        <ele>232.980578</ele>
        <time>2022-03-07T08:21:50.486Z</time>
      </trkpt>
      <trkpt lat="42.24701" lon="24.5807">
        <ele>233.10537</ele>
        <time>2022-03-07T08:21:53.479Z</time>
      </trkpt>
      <trkpt lat="42.24709" lon="24.58058">
        <ele>233.228411</ele>
        <time>2022-03-07T08:21:56.478Z</time>
      </trkpt>
      <trkpt lat="42.24718" lon="24.58046">
        <ele>233.348479</ele>
        <time>2022-03-07T08:21:59.539Z</time>
      </trkpt>
      <trkpt lat="42.24725" lon="24.58035">
        <ele>233.462709</ele>
        <time>2022-03-07T08:22:02.489Z</time>
      </trkpt>
      <trkpt lat="42.24734" lon="24.58022">
        <ele>233.590814</ele>
        <time>2022-03-07T08:22:05.481Z</time>
      </trkpt>
      <trkpt lat="42.24744" lon="24.5801">
        <ele>233.72102</ele>
        <time>2022-03-07T08:22:08.515Z</time>
      </trkpt>
      <trkpt lat="42.24752" lon="24.57997">
        <ele>233.847412</ele>
        <time>2022-03-07T08:22:11.477Z</time>
      </trkpt>
      <trkpt lat="42.24761" lon="24.57985">
        <ele>233.971907</ele>
        <time>2022-03-07T08:22:14.491Z</time>
      </trkpt>
      <trkpt lat="42.24769" lon="24.57972">
        <ele>234.083832</ele>
        <time>2022-03-07T08:22:17.479Z</time>
      </trkpt>
      <trkpt lat="42.24778" lon="24.5796">
        <ele>233.952219</ele>
        <time>2022-03-07T08:22:20.481Z</time>
      </trkpt>
      <trkpt lat="42.24787" lon="24.57948">
        <ele>233.823313</ele>
        <time>2022-03-07T08:22:23.497Z</time>
      </trkpt>
      <trkpt lat="42.24795" lon="24.57936">
        <ele>233.700636</ele>
        <time>2022-03-07T08:22:26.482Z</time>
      </trkpt>
      <trkpt lat="42.24803" lon="24.57924">
        <ele>233.575147</ele>
        <time>2022-03-07T08:22:29.483Z</time>
      </trkpt>
      <trkpt lat="42.24811" lon="24.57913">
        <ele>233.460261</ele>
        <time>2022-03-07T08:22:32.480Z</time>
      </trkpt>
      <trkpt lat="42.2482" lon="24.57902">
        <ele>233.338736</ele>
        <time>2022-03-07T08:22:35.483Z</time>
      </trkpt>
      <trkpt lat="42.24828" lon="24.57889">
        <ele>233.211599</ele>
        <time>2022-03-07T08:22:38.510Z</time>
      </trkpt>
      <trkpt lat="42.24836" lon="24.57877">
        <ele>233.085163</ele>
        <time>2022-03-07T08:22:41.498Z</time>
      </trkpt>
      <trkpt lat="42.24845" lon="24.57866">
        <ele>232.963994</ele>
        <time>2022-03-07T08:22:44.468Z</time>
      </trkpt>
      <trkpt lat="42.24853" lon="24.57854">
        <ele>232.839367</ele>
        <time>2022-03-07T08:22:47.510Z</time>
      </trkpt>
      <trkpt lat="42.24862" lon="24.57841">
        <ele>232.705239</ele>
        <time>2022-03-07T08:22:50.496Z</time>
      </trkpt>
      <trkpt lat="42.24871" lon="24.57829">
        <ele>232.576847</ele>
        <time>2022-03-07T08:22:53.480Z</time>
      </trkpt>
      <trkpt lat="42.24879" lon="24.57817">
        <ele>232.450966</ele>
        <time>2022-03-07T08:22:56.496Z</time>
      </trkpt>
      <trkpt lat="42.24887" lon="24.57804">
        <ele>232.32354</ele>
        <time>2022-03-07T08:22:59.487Z</time>
      </trkpt>
      <trkpt lat="42.24895" lon="24.57793">
        <ele>232.273058</ele>
        <time>2022-03-07T08:23:02.479Z</time>
      </trkpt>
      <trkpt lat="42.24904" lon="24.57781">
        <ele>232.349347</ele>
        <time>2022-03-07T08:23:05.491Z</time>
      </trkpt>
      <trkpt lat="42.24912" lon="24.5777">
        <ele>232.423125</ele>
        <time>2022-03-07T08:23:08.488Z</time>
      </trkpt>
      <trkpt lat="42.24921" lon="24.57758">
        <ele>232.498887</ele>
        <time>2022-03-07T08:23:11.502Z</time>
      </trkpt>
      <trkpt lat="42.24929" lon="24.57746">
        <ele>232.577215</ele>
        <time>2022-03-07T08:23:14.497Z</time>
      </trkpt>
      <trkpt lat="42.24937" lon="24.57733">
        <ele>232.655888</ele>
        <time>2022-03-07T08:23:17.470Z</time>
      </trkpt>
      <trkpt lat="42.24946" lon="24.57721">
        <ele>232.733447</ele>
        <time>2022-03-07T08:23:20.471Z</time>
      </trkpt>
      <trkpt lat="42.24955" lon="24.57709">
        <ele>232.812606</ele>
        <time>2022-03-07T08:23:23.476Z</time>
      </trkpt>
      <trkpt lat="42.24963" lon="24.57697">
        <ele>232.889137</ele>
        <time>2022-03-07T08:23:26.492Z</time>
      </trkpt>
      <trkpt lat="42.24972" lon="24.57684">
        <ele>232.968752</ele>
        <time>2022-03-07T08:23:29.483Z</time>
      </trkpt>
      <trkpt lat="42.2498" lon="24.57672">
        <ele>233.046055</ele>
        <time>2022-03-07T08:23:32.502Z</time>
      </trkpt>
      <trkpt lat="42.24988" lon="24.5766">
        <ele>233.124726</ele>
        <time>2022-03-07T08:23:35.479Z</time>
      </trkpt>
      <trkpt lat="42.24997" lon="24.57647">
        <ele>233.203139</ele>
        <time>2022-03-07T08:23:38.516Z</time>
      </trkpt>
      <trkpt lat="42.25005" lon="24.57635">
        <ele>233.279671</ele>
        <time>2022-03-07T08:23:41.521Z</time>
      </trkpt>
      <trkpt lat="42.25013" lon="24.57624">
        <ele>233.354851</ele>
        <time>2022-03-07T08:23:44.478Z</time>
      </trkpt>
      <trkpt lat="42.25022" lon="24.57612">
        <ele>233.386971</ele>
        <time>2022-03-07T08:23:47.488Z</time>
      </trkpt>
      <trkpt lat="42.25029" lon="24.57601">
        <ele>233.397597</ele>
        <time>2022-03-07T08:23:50.499Z</time>
      </trkpt>
      <trkpt lat="42.25038" lon="24.57588">
        <ele>233.410822</ele>
        <time>2022-03-07T08:23:53.491Z</time>
      </trkpt>
      <trkpt lat="42.25047" lon="24.57575">
        <ele>233.423604</ele>
        <time>2022-03-07T08:23:56.487Z</time>
      </trkpt>
      <trkpt lat="42.25056" lon="24.57563">
        <ele>233.435915</ele>
        <time>2022-03-07T08:23:59.482Z</time>
      </trkpt>
      <trkpt lat="42.25064" lon="24.57551">
        <ele>233.448261</ele>
        <time>2022-03-07T08:24:02.464Z</time>
      </trkpt>
      <trkpt lat="42.25073" lon="24.5754">
        <ele>233.460018</ele>
        <time>2022-03-07T08:24:05.487Z</time>
      </trkpt>
      <trkpt lat="42.2508" lon="24.57528">
        <ele>233.471749</ele>
        <time>2022-03-07T08:24:08.481Z</time>
      </trkpt>
      <trkpt lat="42.25089" lon="24.57516">
        <ele>233.483939</ele>
        <time>2022-03-07T08:24:11.491Z</time>
      </trkpt>
      <trkpt lat="42.25098" lon="24.57504">
        <ele>233.496388</ele>
        <time>2022-03-07T08:24:14.491Z</time>
      </trkpt>
      <trkpt lat="42.25107" lon="24.57491">
        <ele>233.509325</ele>
        <time>2022-03-07T08:24:17.480Z</time>
      </trkpt>
      <trkpt lat="42.25116" lon="24.57478">
        <ele>233.522419</ele>
        <time>2022-03-07T08:24:20.476Z</time>
      </trkpt>
      <trkpt lat="42.25125" lon="24.57465">
        <ele>233.535294</ele>
        <time>2022-03-07T08:24:23.482Z</time>
      </trkpt>
      <trkpt lat="42.25133" lon="24.57453">
        <ele>233.547497</ele>
        <time>2022-03-07T08:24:26.475Z</time>
      </trkpt>
      <trkpt lat="42.25141" lon="24.57441">
        <ele>233.559916</ele>
        <time>2022-03-07T08:24:29.479Z</time>
      </trkpt>
      <trkpt lat="42.25149" lon="24.57429">
        <ele>233.57409</ele>
        <time>2022-03-07T08:24:32.498Z</time>
      </trkpt>
      <trkpt lat="42.25157" lon="24.57417">
        <ele>233.588724</ele>
        <time>2022-03-07T08:24:35.514Z</time>
      </trkpt>
      <trkpt lat="42.25166" lon="24.57405">
        <ele>233.604405</ele>
        <time>2022-03-07T08:24:38.489Z</time>
      </trkpt>
      <trkpt lat="42.25175" lon="24.57393">
        <ele>233.619865</ele>
        <time>2022-03-07T08:24:41.524Z</time>
      </trkpt>
      <trkpt lat="42.25184" lon="24.5738">
        <ele>233.635922</ele>
        <time>2022-03-07T08:24:44.487Z</time>
      </trkpt>
      <trkpt lat="42.25193" lon="24.57367">
        <ele>233.6514</ele>
        <time>2022-03-07T08:24:47.521Z</time>
      </trkpt>
      <trkpt lat="42.25202" lon="24.57355">
        <ele>233.667093</ele>
        <time>2022-03-07T08:24:50.469Z</time>
      </trkpt>
      <trkpt lat="42.2521" lon="24.57343">
        <ele>233.681726</ele>
        <time>2022-03-07T08:24:53.475Z</time>
      </trkpt>
      <trkpt lat="42.25218" lon="24.57331">
        <ele>233.695981</ele>
        <time>2022-03-07T08:24:56.477Z</time>
      </trkpt>
      <trkpt lat="42.25225" lon="24.5732">
        <ele>233.709672</ele>
        <time>2022-03-07T08:24:59.475Z</time>
      </trkpt>
      <trkpt lat="42.25233" lon="24.57309">
        <ele>233.723397</ele>
        <time>2022-03-07T08:25:02.486Z</time>
      </trkpt>
      <trkpt lat="42.25242" lon="24.57297">
        <ele>233.738127</ele>
        <time>2022-03-07T08:25:05.474Z</time>
      </trkpt>
      <trkpt lat="42.25251" lon="24.57285">
        <ele>233.753583</ele>
        <time>2022-03-07T08:25:08.492Z</time>
      </trkpt>
      <trkpt lat="42.25259" lon="24.57273">
        <ele>233.768334</ele>
        <time>2022-03-07T08:25:11.470Z</time>
      </trkpt>
      <trkpt lat="42.25267" lon="24.57261">
        <ele>233.811387</ele>
        <time>2022-03-07T08:25:14.471Z</time>
      </trkpt>
      <trkpt lat="42.25276" lon="24.57249">
        <ele>233.881709</ele>
        <time>2022-03-07T08:25:17.483Z</time>
      </trkpt>
      <trkpt lat="42.25285" lon="24.57237">
        <ele>233.954812</ele>
        <time>2022-03-07T08:25:20.483Z</time>
      </trkpt>
      <trkpt lat="42.25293" lon="24.57224">
        <ele>234.023424</ele>
        <time>2022-03-07T08:25:23.500Z</time>
      </trkpt>
      <trkpt lat="42.25302" lon="24.57213">
        <ele>234.092356</ele>
        <time>2022-03-07T08:25:26.479Z</time>
      </trkpt>
      <trkpt lat="42.2531" lon="24.572">
        <ele>234.160905</ele>
        <time>2022-03-07T08:25:29.492Z</time>
      </trkpt>
      <trkpt lat="42.25318" lon="24.57188">
        <ele>234.230206</ele>
        <time>2022-03-07T08:25:32.496Z</time>
      </trkpt>
      <trkpt lat="42.25326" lon="24.57176">
        <ele>234.296276</ele>
        <time>2022-03-07T08:25:35.526Z</time>
      </trkpt>
      <trkpt lat="42.25334" lon="24.57165">
        <ele>234.362346</ele>
        <time>2022-03-07T08:25:38.481Z</time>
      </trkpt>
      <trkpt lat="42.25342" lon="24.57153">
        <ele>234.431491</ele>
        <time>2022-03-07T08:25:41.481Z</time>
      </trkpt>
      <trkpt lat="42.25351" lon="24.57141">
        <ele>234.503502</ele>
        <time>2022-03-07T08:25:44.473Z</time>
      </trkpt>
      <trkpt lat="42.2536" lon="24.57128">
        <ele>234.574948</ele>
        <time>2022-03-07T08:25:47.483Z</time>
      </trkpt>
      <trkpt lat="42.25367" lon="24.57117">
        <ele>234.6388</ele>
        <time>2022-03-07T08:25:50.479Z</time>
      </trkpt>
      <trkpt lat="42.25376" lon="24.57105">
        <ele>234.70679</ele>
        <time>2022-03-07T08:25:53.484Z</time>
      </trkpt>
      <trkpt lat="42.25384" lon="24.57093">
        <ele>234.777321</ele>
        <time>2022-03-07T08:25:56.487Z</time>
      </trkpt>
      <trkpt lat="42.25393" lon="24.57081">
        <ele>234.872333</ele>
        <time>2022-03-07T08:25:59.492Z</time>
      </trkpt>
      <trkpt lat="42.25401" lon="24.57068">
        <ele>234.980222</ele>
        <time>2022-03-07T08:26:02.495Z</time>
      </trkpt>
      <trkpt lat="42.2541" lon="24.57056">
        <ele>235.089422</ele>
        <time>2022-03-07T08:26:05.504Z</time>
      </trkpt>
      <trkpt lat="42.25419" lon="24.57044">
        <ele>235.194902</ele>
        <time>2022-03-07T08:26:08.478Z</time>
      </trkpt>
      <trkpt lat="42.25427" lon="24.57031">
        <ele>235.30096</ele>
        <time>2022-03-07T08:26:11.492Z</time>
      </trkpt>
      <trkpt lat="42.25436" lon="24.57019">
        <ele>235.405853</ele>
        <time>2022-03-07T08:26:14.489Z</time>
      </trkpt>
      <trkpt lat="42.25444" lon="24.57007">
        <ele>235.512374</ele>
        <time>2022-03-07T08:26:17.496Z</time>
      </trkpt>
      <trkpt lat="42.25452" lon="24.56995">
        <ele>235.611954</ele>
        <time>2022-03-07T08:26:20.489Z</time>
      </trkpt>
      <trkpt lat="42.25461" lon="24.56983">
        <ele>235.717184</ele>
        <time>2022-03-07T08:26:23.490Z</time>
      </trkpt>
      <trkpt lat="42.2547" lon="24.56971">
        <ele>235.825936</ele>
        <time>2022-03-07T08:26:26.493Z</time>
      </trkpt>
      <trkpt lat="42.25479" lon="24.56958">
        <ele>235.935585</ele>
        <time>2022-03-07T08:26:29.478Z</time>
      </trkpt>
      <trkpt lat="42.25487" lon="24.56945">
        <ele>236.044513</ele>
        <time>2022-03-07T08:26:32.487Z</time>
      </trkpt>
      <trkpt lat="42.25496" lon="24.56933">
        <ele>236.148705</ele>
        <time>2022-03-07T08:26:35.487Z</time>
      </trkpt>
      <trkpt lat="42.25504" lon="24.56921">
        <ele>236.253826</ele>
        <time>2022-03-07T08:26:38.514Z</time>
      </trkpt>
      <trkpt lat="42.25512" lon="24.56909">
        <ele>236.339369</ele>
        <time>2022-03-07T08:26:41.483Z</time>
      </trkpt>
      <trkpt lat="42.2552" lon="24.56898">
        <ele>236.395279</ele>
        <time>2022-03-07T08:26:44.483Z</time>
      </trkpt>
      <trkpt lat="42.25529" lon="24.56885">
        <ele>236.45524</ele>
        <time>2022-03-07T08:26:47.482Z</time>
      </trkpt>
      <trkpt lat="42.25537" lon="24.56873">
        <ele>236.514825</ele>
        <time>2022-03-07T08:26:50.483Z</time>
      </trkpt>
      <trkpt lat="42.25546" lon="24.56861">
        <ele>236.573827</ele>
        <time>2022-03-07T08:26:53.470Z</time>
      </trkpt>
      <trkpt lat="42.25554" lon="24.56848">
        <ele>236.633338</ele>
        <time>2022-03-07T08:26:56.494Z</time>
      </trkpt>
      <trkpt lat="42.25563" lon="24.56836">
        <ele>236.691174</ele>
        <time>2022-03-07T08:26:59.478Z</time>
      </trkpt>
      <trkpt lat="42.25571" lon="24.56825">
        <ele>236.747845</ele>
        <time>2022-03-07T08:27:02.493Z</time>
      </trkpt>
      <trkpt lat="42.25579" lon="24.56813">
        <ele>236.805288</ele>
        <time>2022-03-07T08:27:05.488Z</time>
      </trkpt>
      <trkpt lat="42.25587" lon="24.56801">
        <ele>236.861249</ele>
        <time>2022-03-07T08:27:08.498Z</time>
      </trkpt>
      <trkpt lat="42.25595" lon="24.5679">
        <ele>236.917241</ele>
        <time>2022-03-07T08:27:11.486Z</time>
      </trkpt>
      <trkpt lat="42.25604" lon="24.56777">
        <ele>236.977489</ele>
        <time>2022-03-07T08:27:14.492Z</time>
      </trkpt>
      <trkpt lat="42.25613" lon="24.56765">
        <ele>237.036417</ele>
        <time>2022-03-07T08:27:17.483Z</time>
      </trkpt>
      <trkpt lat="42.25621" lon="24.56754">
        <ele>237.091669</ele>
        <time>2022-03-07T08:27:20.591Z</time>
      </trkpt>
      <trkpt lat="42.25629" lon="24.56743">
        <ele>237.147327</ele>
        <time>2022-03-07T08:27:23.488Z</time>
      </trkpt>
      <trkpt lat="42.25637" lon="24.56731">
        <ele>237.219309</ele>
        <time>2022-03-07T08:27:26.488Z</time>
      </trkpt>
      <trkpt lat="42.25646" lon="24.5672">
        <ele>237.310463</ele>
        <time>2022-03-07T08:27:29.496Z</time>
      </trkpt>
      <trkpt lat="42.25654" lon="24.56708">
        <ele>237.401045</ele>
        <time>2022-03-07T08:27:32.470Z</time>
      </trkpt>
      <trkpt lat="42.25662" lon="24.56697">
        <ele>237.491097</ele>
        <time>2022-03-07T08:27:35.510Z</time>
      </trkpt>
      <trkpt lat="42.2567" lon="24.56685">
        <ele>237.580333</ele>
        <time>2022-03-07T08:27:38.485Z</time>
      </trkpt>
      <trkpt lat="42.25677" lon="24.56674">
        <ele>237.666347</ele>
        <time>2022-03-07T08:27:41.486Z</time>
      </trkpt>
      <trkpt lat="42.25685" lon="24.56662">
        <ele>237.754148</ele>
        <time>2022-03-07T08:27:44.471Z</time>
      </trkpt>
      <trkpt lat="42.25693" lon="24.56651">
        <ele>237.844405</ele>
        <time>2022-03-07T08:27:47.493Z</time>
      </trkpt>
      <trkpt lat="42.257" lon="24.56639">
        <ele>237.93018</ele>
        <time>2022-03-07T08:27:50.472Z</time>
      </trkpt>
      <trkpt lat="42.25706" lon="24.5663">
        <ele>238.000398</ele>
        <time>2022-03-07T08:27:53.497Z</time>
      </trkpt>
      <trkpt lat="42.25714" lon="24.56617">
        <ele>238.098561</ele>
        <time>2022-03-07T08:27:56.488Z</time>
      </trkpt>
      <trkpt lat="42.25723" lon="24.56605">
        <ele>238.193983</ele>
        <time>2022-03-07T08:27:59.559Z</time>
      </trkpt>
      <trkpt lat="42.25732" lon="24.56594">
        <ele>238.285775</ele>
        <time>2022-03-07T08:28:02.524Z</time>
      </trkpt>
      <trkpt lat="42.2574" lon="24.56581">
        <ele>238.37988</ele>
        <time>2022-03-07T08:28:05.521Z</time>
      </trkpt>
      <trkpt lat="42.25748" lon="24.56569">
        <ele>238.472942</ele>
        <time>2022-03-07T08:28:08.497Z</time>
      </trkpt>
      <trkpt lat="42.25757" lon="24.56558">
        <ele>238.539737</ele>
        <time>2022-03-07T08:28:11.503Z</time>
      </trkpt>
      <trkpt lat="42.25765" lon="24.56547">
        <ele>238.433082</ele>
        <time>2022-03-07T08:28:14.477Z</time>
      </trkpt>
      <trkpt lat="42.25773" lon="24.56536">
        <ele>238.323727</ele>
        <time>2022-03-07T08:28:17.472Z</time>
      </trkpt>
      <trkpt lat="42.25781" lon="24.56525">
        <ele>238.212999</ele>
        <time>2022-03-07T08:28:20.493Z</time>
      </trkpt>
      <trkpt lat="42.25788" lon="24.56514">
        <ele>238.108973</ele>
        <time>2022-03-07T08:28:23.473Z</time>
      </trkpt>
      <trkpt lat="42.25796" lon="24.56503">
        <ele>237.998601</ele>
        <time>2022-03-07T08:28:26.490Z</time>
      </trkpt>
      <trkpt lat="42.25804" lon="24.56493">
        <ele>237.888864</ele>
        <time>2022-03-07T08:28:29.491Z</time>
      </trkpt>
      <trkpt lat="42.25812" lon="24.56482">
        <ele>237.780516</ele>
        <time>2022-03-07T08:28:32.495Z</time>
      </trkpt>
      <trkpt lat="42.25819" lon="24.56472">
        <ele>237.677549</ele>
        <time>2022-03-07T08:28:35.513Z</time>
      </trkpt>
      <trkpt lat="42.25826" lon="24.56461">
        <ele>237.574053</ele>
        <time>2022-03-07T08:28:38.479Z</time>
      </trkpt>
      <trkpt lat="42.25834" lon="24.5645">
        <ele>237.471086</ele>
        <time>2022-03-07T08:28:41.483Z</time>
      </trkpt>
      <trkpt lat="42.25841" lon="24.5644">
        <ele>237.368506</ele>
        <time>2022-03-07T08:28:44.479Z</time>
      </trkpt>
      <trkpt lat="42.25848" lon="24.5643">
        <ele>237.268294</ele>
        <time>2022-03-07T08:28:47.498Z</time>
      </trkpt>
      <trkpt lat="42.25855" lon="24.56419">
        <ele>237.161782</ele>
        <time>2022-03-07T08:28:50.484Z</time>
      </trkpt>
      <trkpt lat="42.25863" lon="24.56407">
        <ele>237.050146</ele>
        <time>2022-03-07T08:28:53.490Z</time>
      </trkpt>
      <trkpt lat="42.25871" lon="24.56396">
        <ele>236.944941</ele>
        <time>2022-03-07T08:28:56.473Z</time>
      </trkpt>
      <trkpt lat="42.25878" lon="24.56385">
        <ele>236.84166</ele>
        <time>2022-03-07T08:28:59.473Z</time>
      </trkpt>
      <trkpt lat="42.25885" lon="24.56375">
        <ele>236.879727</ele>
        <time>2022-03-07T08:29:02.499Z</time>
      </trkpt>
      <trkpt lat="42.25893" lon="24.56364">
        <ele>236.968669</ele>
        <time>2022-03-07T08:29:05.494Z</time>
      </trkpt>
      <trkpt lat="42.259" lon="24.56353">
        <ele>237.059597</ele>
        <time>2022-03-07T08:29:08.495Z</time>
      </trkpt>
      <trkpt lat="42.25908" lon="24.56343">
        <ele>237.150632</ele>
        <time>2022-03-07T08:29:11.493Z</time>
      </trkpt>
      <trkpt lat="42.25916" lon="24.56332">
        <ele>237.240514</ele>
        <time>2022-03-07T08:29:14.494Z</time>
      </trkpt>
      <trkpt lat="42.25923" lon="24.56322">
        <ele>237.325547</ele>
        <time>2022-03-07T08:29:17.543Z</time>
      </trkpt>
      <trkpt lat="42.25931" lon="24.56311">
        <ele>237.412061</ele>
        <time>2022-03-07T08:29:20.482Z</time>
      </trkpt>
      <trkpt lat="42.25938" lon="24.56301">
        <ele>237.497934</ele>
        <time>2022-03-07T08:29:23.480Z</time>
      </trkpt>
      <trkpt lat="42.25945" lon="24.56289">
        <ele>237.590739</ele>
        <time>2022-03-07T08:29:26.482Z</time>
      </trkpt>
      <trkpt lat="42.25953" lon="24.56278">
        <ele>237.682008</ele>
        <time>2022-03-07T08:29:29.489Z</time>
      </trkpt>
      <trkpt lat="42.2596" lon="24.56267">
        <ele>237.773641</ele>
        <time>2022-03-07T08:29:32.482Z</time>
      </trkpt>
      <trkpt lat="42.25968" lon="24.56255">
        <ele>237.868106</ele>
        <time>2022-03-07T08:29:35.492Z</time>
      </trkpt>
      <trkpt lat="42.25976" lon="24.56245">
        <ele>237.955421</ele>
        <time>2022-03-07T08:29:38.497Z</time>
      </trkpt>
      <trkpt lat="42.25984" lon="24.56234">
        <ele>238.047157</ele>
        <time>2022-03-07T08:29:41.495Z</time>
      </trkpt>
      <trkpt lat="42.25991" lon="24.56223">
        <ele>238.137466</ele>
        <time>2022-03-07T08:29:44.495Z</time>
      </trkpt>
      <trkpt lat="42.26" lon="24.56213">
        <ele>238.229844</ele>
        <time>2022-03-07T08:29:47.491Z</time>
      </trkpt>
      <trkpt lat="42.26008" lon="24.56201">
        <ele>238.302954</ele>
        <time>2022-03-07T08:29:50.487Z</time>
      </trkpt>
      <trkpt lat="42.26015" lon="24.56191">
        <ele>238.352463</ele>
        <time>2022-03-07T08:29:53.490Z</time>
      </trkpt>
      <trkpt lat="42.26023" lon="24.5618">
        <ele>238.404024</ele>
        <time>2022-03-07T08:29:56.497Z</time>
      </trkpt>
      <trkpt lat="42.2603" lon="24.56169">
        <ele>238.451563</ele>
        <time>2022-03-07T08:29:59.526Z</time>
      </trkpt>
      <trkpt lat="42.26037" lon="24.56158">
        <ele>238.50058</ele>
        <time>2022-03-07T08:30:02.504Z</time>
      </trkpt>
      <trkpt lat="42.26045" lon="24.56148">
        <ele>238.549427</ele>
        <time>2022-03-07T08:30:05.475Z</time>
      </trkpt>
      <trkpt lat="42.26052" lon="24.56137">
        <ele>238.599127</ele>
        <time>2022-03-07T08:30:08.501Z</time>
      </trkpt>
      <trkpt lat="42.2606" lon="24.56126">
        <ele>238.651353</ele>
        <time>2022-03-07T08:30:11.497Z</time>
      </trkpt>
      <trkpt lat="42.26067" lon="24.56115">
        <ele>238.700683</ele>
        <time>2022-03-07T08:30:14.485Z</time>
      </trkpt>
      <trkpt lat="42.26075" lon="24.56104">
        <ele>238.750192</ele>
        <time>2022-03-07T08:30:17.483Z</time>
      </trkpt>
      <trkpt lat="42.26082" lon="24.56093">
        <ele>238.800257</ele>
        <time>2022-03-07T08:30:20.495Z</time>
      </trkpt>
      <trkpt lat="42.2609" lon="24.56083">
        <ele>238.850145</ele>
        <time>2022-03-07T08:30:23.485Z</time>
      </trkpt>
      <trkpt lat="42.26098" lon="24.56072">
        <ele>238.901784</ele>
        <time>2022-03-07T08:30:26.490Z</time>
      </trkpt>
      <trkpt lat="42.26105" lon="24.56061">
        <ele>238.95063</ele>
        <time>2022-03-07T08:30:29.504Z</time>
      </trkpt>
      <trkpt lat="42.26113" lon="24.56051">
        <ele>238.998474</ele>
        <time>2022-03-07T08:30:32.484Z</time>
      </trkpt>
      <trkpt lat="42.2612" lon="24.5604">
        <ele>239.047675</ele>
        <time>2022-03-07T08:30:35.490Z</time>
      </trkpt>
      <trkpt lat="42.26127" lon="24.5603">
        <ele>239.093994</ele>
        <time>2022-03-07T08:30:38.519Z</time>
      </trkpt>
      <trkpt lat="42.26135" lon="24.56019">
        <ele>239.09641</ele>
        <time>2022-03-07T08:30:41.491Z</time>
      </trkpt>
      <trkpt lat="42.26142" lon="24.56008">
        <ele>239.098787</ele>
        <time>2022-03-07T08:30:44.490Z</time>
      </trkpt>
      <trkpt lat="42.26149" lon="24.55999">
        <ele>239.101002</ele>
        <time>2022-03-07T08:30:47.493Z</time>
      </trkpt>
      <trkpt lat="42.26156" lon="24.55988">
        <ele>239.103283</ele>
        <time>2022-03-07T08:30:50.486Z</time>
      </trkpt>
      <trkpt lat="42.26163" lon="24.55977">
        <ele>239.105697</ele>
        <time>2022-03-07T08:30:53.482Z</time>
      </trkpt>
      <trkpt lat="42.2617" lon="24.55966">
        <ele>239.108066</ele>
        <time>2022-03-07T08:30:56.482Z</time>
      </trkpt>
      <trkpt lat="42.26177" lon="24.55956">
        <ele>239.110427</ele>
        <time>2022-03-07T08:30:59.481Z</time>
      </trkpt>
      <trkpt lat="42.26185" lon="24.55946">
        <ele>239.112766</ele>
        <time>2022-03-07T08:31:02.493Z</time>
      </trkpt>
      <trkpt lat="42.26193" lon="24.55936">
        <ele>239.115139</ele>
        <time>2022-03-07T08:31:05.503Z</time>
      </trkpt>
      <trkpt lat="42.262" lon="24.55925">
        <ele>239.117522</ele>
        <time>2022-03-07T08:31:08.497Z</time>
      </trkpt>
      <trkpt lat="42.26207" lon="24.55915">
        <ele>239.119857</ele>
        <time>2022-03-07T08:31:11.514Z</time>
      </trkpt>
      <trkpt lat="42.26214" lon="24.55904">
        <ele>239.122243</ele>
        <time>2022-03-07T08:31:14.472Z</time>
      </trkpt>
      <trkpt lat="42.26222" lon="24.55894">
        <ele>239.12473</ele>
        <time>2022-03-07T08:31:17.522Z</time>
      </trkpt>
      <trkpt lat="42.2623" lon="24.55883">
        <ele>239.127165</ele>
        <time>2022-03-07T08:31:20.517Z</time>
      </trkpt>
      <trkpt lat="42.26238" lon="24.55872">
        <ele>239.129593</ele>
        <time>2022-03-07T08:31:23.494Z</time>
      </trkpt>
      <trkpt lat="42.26245" lon="24.55861">
        <ele>239.132021</ele>
        <time>2022-03-07T08:31:26.495Z</time>
      </trkpt>
      <trkpt lat="42.26252" lon="24.55851">
        <ele>239.14538</ele>
        <time>2022-03-07T08:31:29.503Z</time>
      </trkpt>
      <trkpt lat="42.2626" lon="24.55841">
        <ele>239.188639</ele>
        <time>2022-03-07T08:31:32.492Z</time>
      </trkpt>
      <trkpt lat="42.26267" lon="24.5583">
        <ele>239.23291</ele>
        <time>2022-03-07T08:31:35.482Z</time>
      </trkpt>
      <trkpt lat="42.26274" lon="24.55819">
        <ele>239.277016</ele>
        <time>2022-03-07T08:31:38.522Z</time>
      </trkpt>
      <trkpt lat="42.26281" lon="24.55809">
        <ele>239.320442</ele>
        <time>2022-03-07T08:31:41.474Z</time>
      </trkpt>
      <trkpt lat="42.26289" lon="24.55798">
        <ele>239.365945</ele>
        <time>2022-03-07T08:31:44.491Z</time>
      </trkpt>
      <trkpt lat="42.26296" lon="24.55787">
        <ele>239.410721</ele>
        <time>2022-03-07T08:31:47.467Z</time>
      </trkpt>
      <trkpt lat="42.26304" lon="24.55776">
        <ele>239.457116</ele>
        <time>2022-03-07T08:31:50.489Z</time>
      </trkpt>
      <trkpt lat="42.26311" lon="24.55765">
        <ele>239.50041</ele>
        <time>2022-03-07T08:31:53.488Z</time>
      </trkpt>
      <trkpt lat="42.26318" lon="24.55754">
        <ele>239.54759</ele>
        <time>2022-03-07T08:31:56.483Z</time>
      </trkpt>
      <trkpt lat="42.26327" lon="24.55743">
        <ele>239.594324</ele>
        <time>2022-03-07T08:31:59.484Z</time>
      </trkpt>
      <trkpt lat="42.26334" lon="24.55733">
        <ele>239.640181</ele>
        <time>2022-03-07T08:32:02.504Z</time>
      </trkpt>
      <trkpt lat="42.26342" lon="24.55722">
        <ele>239.684881</ele>
        <time>2022-03-07T08:32:05.482Z</time>
      </trkpt>
      <trkpt lat="42.2635" lon="24.55711">
        <ele>239.732188</ele>
        <time>2022-03-07T08:32:08.501Z</time>
      </trkpt>
      <trkpt lat="42.26358" lon="24.557">
        <ele>239.779428</ele>
        <time>2022-03-07T08:32:11.514Z</time>
      </trkpt>
      <trkpt lat="42.26366" lon="24.55689">
        <ele>239.824931</ele>
        <time>2022-03-07T08:32:14.490Z</time>
      </trkpt>
      <trkpt lat="42.26372" lon="24.55679">
        <ele>239.867124</ele>
        <time>2022-03-07T08:32:17.526Z</time>
      </trkpt>
      <trkpt lat="42.26379" lon="24.55669">
        <ele>239.954106</ele>
        <time>2022-03-07T08:32:20.492Z</time>
      </trkpt>
      <trkpt lat="42.26386" lon="24.55657">
        <ele>240.068212</ele>
        <time>2022-03-07T08:32:23.513Z</time>
      </trkpt>
      <trkpt lat="42.26393" lon="24.55648">
        <ele>240.169813</ele>
        <time>2022-03-07T08:32:26.488Z</time>
      </trkpt>
      <trkpt lat="42.26399" lon="24.55638">
        <ele>240.272282</ele>
        <time>2022-03-07T08:32:29.535Z</time>
      </trkpt>
      <trkpt lat="42.26407" lon="24.55627">
        <ele>240.387804</ele>
        <time>2022-03-07T08:32:32.494Z</time>
      </trkpt>
      <trkpt lat="42.26415" lon="24.55616">
        <ele>240.509296</ele>
        <time>2022-03-07T08:32:35.486Z</time>
      </trkpt>
      <trkpt lat="42.26423" lon="24.55605">
        <ele>240.623122</ele>
        <time>2022-03-07T08:32:38.475Z</time>
      </trkpt>
      <trkpt lat="42.2643" lon="24.55594">
        <ele>240.733043</ele>
        <time>2022-03-07T08:32:41.500Z</time>
      </trkpt>
      <trkpt lat="42.26438" lon="24.55583">
        <ele>240.852</ele>
        <time>2022-03-07T08:32:44.498Z</time>
      </trkpt>
      <trkpt lat="42.26447" lon="24.55573">
        <ele>240.968017</ele>
        <time>2022-03-07T08:32:47.475Z</time>
      </trkpt>
      <trkpt lat="42.26455" lon="24.55562">
        <ele>241.082099</ele>
        <time>2022-03-07T08:32:50.491Z</time>
      </trkpt>
      <trkpt lat="42.26462" lon="24.55552">
        <ele>241.189344</ele>
        <time>2022-03-07T08:32:53.496Z</time>
      </trkpt>
      <trkpt lat="42.26469" lon="24.55541">
        <ele>241.305451</ele>
        <time>2022-03-07T08:32:56.475Z</time>
      </trkpt>
      <trkpt lat="42.26476" lon="24.55529">
        <ele>241.418143</ele>
        <time>2022-03-07T08:32:59.480Z</time>
      </trkpt>
      <trkpt lat="42.26484" lon="24.55518">
        <ele>241.534762</ele>
        <time>2022-03-07T08:33:02.519Z</time>
      </trkpt>
      <trkpt lat="42.26492" lon="24.55507">
        <ele>241.65879</ele>
        <time>2022-03-07T08:33:05.485Z</time>
      </trkpt>
      <trkpt lat="42.26501" lon="24.55495">
        <ele>241.706893</ele>
        <time>2022-03-07T08:33:08.486Z</time>
      </trkpt>
      <trkpt lat="42.26509" lon="24.55483">
        <ele>241.663227</ele>
        <time>2022-03-07T08:33:11.495Z</time>
      </trkpt>
      <trkpt lat="42.26517" lon="24.55473">
        <ele>241.620022</ele>
        <time>2022-03-07T08:33:14.483Z</time>
      </trkpt>
      <trkpt lat="42.26525" lon="24.55462">
        <ele>241.577818</ele>
        <time>2022-03-07T08:33:17.481Z</time>
      </trkpt>
      <trkpt lat="42.26533" lon="24.5545">
        <ele>241.533594</ele>
        <time>2022-03-07T08:33:20.493Z</time>
      </trkpt>
      <trkpt lat="42.26541" lon="24.55439">
        <ele>241.488675</ele>
        <time>2022-03-07T08:33:23.475Z</time>
      </trkpt>
      <trkpt lat="42.26549" lon="24.55426">
        <ele>241.442831</ele>
        <time>2022-03-07T08:33:26.487Z</time>
      </trkpt>
      <trkpt lat="42.26557" lon="24.55414">
        <ele>241.396506</ele>
        <time>2022-03-07T08:33:29.470Z</time>
      </trkpt>
      <trkpt lat="42.26565" lon="24.55404">
        <ele>241.356821</ele>
        <time>2022-03-07T08:33:32.489Z</time>
      </trkpt>
      <trkpt lat="42.26572" lon="24.55392">
        <ele>241.312719</ele>
        <time>2022-03-07T08:33:35.480Z</time>
      </trkpt>
      <trkpt lat="42.2658" lon="24.5538">
        <ele>241.269459</ele>
        <time>2022-03-07T08:33:38.513Z</time>
      </trkpt>
      <trkpt lat="42.26587" lon="24.55369">
        <ele>241.227439</ele>
        <time>2022-03-07T08:33:41.478Z</time>
      </trkpt>
      <trkpt lat="42.26596" lon="24.55358">
        <ele>241.181652</ele>
        <time>2022-03-07T08:33:44.505Z</time>
      </trkpt>
      <trkpt lat="42.26605" lon="24.55348">
        <ele>241.13697</ele>
        <time>2022-03-07T08:33:47.485Z</time>
      </trkpt>
      <trkpt lat="42.26613" lon="24.55338">
        <ele>241.098341</ele>
        <time>2022-03-07T08:33:50.495Z</time>
      </trkpt>
      <trkpt lat="42.26621" lon="24.55327">
        <ele>241.055012</ele>
        <time>2022-03-07T08:33:53.496Z</time>
      </trkpt>
      <trkpt lat="42.26629" lon="24.55316">
        <ele>241.186269</ele>
        <time>2022-03-07T08:33:56.483Z</time>
      </trkpt>
      <trkpt lat="42.26637" lon="24.55306">
        <ele>241.338901</ele>
        <time>2022-03-07T08:33:59.485Z</time>
      </trkpt>
      <trkpt lat="42.26645" lon="24.55295">
        <ele>241.494915</ele>
        <time>2022-03-07T08:34:02.502Z</time>
      </trkpt>
      <trkpt lat="42.26651" lon="24.55284">
        <ele>241.642541</ele>
        <time>2022-03-07T08:34:05.487Z</time>
      </trkpt>
      <trkpt lat="42.26658" lon="24.55273">
        <ele>241.792999</ele>
        <time>2022-03-07T08:34:08.534Z</time>
      </trkpt>
      <trkpt lat="42.26666" lon="24.55262">
        <ele>241.942078</ele>
        <time>2022-03-07T08:34:11.501Z</time>
      </trkpt>
      <trkpt lat="42.26672" lon="24.55252">
        <ele>242.085414</ele>
        <time>2022-03-07T08:34:14.493Z</time>
      </trkpt>
      <trkpt lat="42.26681" lon="24.55243">
        <ele>242.236155</ele>
        <time>2022-03-07T08:34:17.500Z</time>
      </trkpt>
      <trkpt lat="42.26688" lon="24.55234">
        <ele>242.370468</ele>
        <time>2022-03-07T08:34:20.464Z</time>
      </trkpt>
      <trkpt lat="42.26695" lon="24.55224">
        <ele>242.512281</ele>
        <time>2022-03-07T08:34:23.472Z</time>
      </trkpt>
      <trkpt lat="42.26702" lon="24.55214">
        <ele>242.658082</ele>
        <time>2022-03-07T08:34:26.501Z</time>
      </trkpt>
      <trkpt lat="42.26709" lon="24.55203">
        <ele>242.810688</ele>
        <time>2022-03-07T08:34:29.483Z</time>
      </trkpt>
      <trkpt lat="42.26716" lon="24.55191">
        <ele>242.960148</ele>
        <time>2022-03-07T08:34:32.491Z</time>
      </trkpt>
      <trkpt lat="42.26723" lon="24.5518">
        <ele>243.115679</ele>
        <time>2022-03-07T08:34:35.494Z</time>
      </trkpt>
      <trkpt lat="42.26732" lon="24.55169">
        <ele>243.278955</ele>
        <time>2022-03-07T08:34:38.484Z</time>
      </trkpt>
      <trkpt lat="42.26739" lon="24.55158">
        <ele>243.431461</ele>
        <time>2022-03-07T08:34:41.534Z</time>
      </trkpt>
      <trkpt lat="42.26747" lon="24.55148">
        <ele>243.565876</ele>
        <time>2022-03-07T08:34:44.503Z</time>
      </trkpt>
      <trkpt lat="42.26755" lon="24.55137">
        <ele>243.621317</ele>
        <time>2022-03-07T08:34:47.493Z</time>
      </trkpt>
      <trkpt lat="42.26762" lon="24.55126">
        <ele>243.676274</ele>
        <time>2022-03-07T08:34:50.482Z</time>
      </trkpt>
      <trkpt lat="42.2677" lon="24.55117">
        <ele>243.727881</ele>
        <time>2022-03-07T08:34:53.492Z</time>
      </trkpt>
      <trkpt lat="42.26778" lon="24.55108">
        <ele>243.780888</ele>
        <time>2022-03-07T08:34:56.495Z</time>
      </trkpt>
      <trkpt lat="42.26787" lon="24.55099">
        <ele>243.836362</ele>
        <time>2022-03-07T08:34:59.493Z</time>
      </trkpt>
      <trkpt lat="42.26797" lon="24.55091">
        <ele>243.894369</ele>
        <time>2022-03-07T08:35:02.503Z</time>
      </trkpt>
      <trkpt lat="42.26806" lon="24.55082">
        <ele>243.952568</ele>
        <time>2022-03-07T08:35:05.486Z</time>
      </trkpt>
      <trkpt lat="42.26815" lon="24.55072">
        <ele>244.009393</ele>
        <time>2022-03-07T08:35:08.499Z</time>
      </trkpt>
      <trkpt lat="42.26824" lon="24.55064">
        <ele>244.064034</ele>
        <time>2022-03-07T08:35:11.481Z</time>
      </trkpt>
      <trkpt lat="42.26832" lon="24.55056">
        <ele>244.112173</ele>
        <time>2022-03-07T08:35:14.541Z</time>
      </trkpt>
      <trkpt lat="42.2684" lon="24.55047">
        <ele>244.163171</ele>
        <time>2022-03-07T08:35:17.487Z</time>
      </trkpt>
      <trkpt lat="42.26848" lon="24.55038">
        <ele>244.216802</ele>
        <time>2022-03-07T08:35:20.483Z</time>
      </trkpt>
      <trkpt lat="42.26856" lon="24.55029">
        <ele>244.267661</ele>
        <time>2022-03-07T08:35:23.505Z</time>
      </trkpt>
      <trkpt lat="42.26865" lon="24.55021">
        <ele>244.321681</ele>
        <time>2022-03-07T08:35:26.500Z</time>
      </trkpt>
      <trkpt lat="42.26874" lon="24.55013">
        <ele>244.375094</ele>
        <time>2022-03-07T08:35:29.487Z</time>
      </trkpt>
      <trkpt lat="42.26882" lon="24.55004">
        <ele>244.428585</ele>
        <time>2022-03-07T08:35:32.503Z</time>
      </trkpt>
      <trkpt lat="42.26891" lon="24.54997">
        <ele>244.508955</ele>
        <time>2022-03-07T08:35:35.496Z</time>
      </trkpt>
      <trkpt lat="42.26899" lon="24.54988">
        <ele>244.624466</ele>
        <time>2022-03-07T08:35:38.491Z</time>
      </trkpt>
      <trkpt lat="42.26907" lon="24.54979">
        <ele>244.731845</ele>
        <time>2022-03-07T08:35:41.530Z</time>
      </trkpt>
      <trkpt lat="42.26915" lon="24.54971">
        <ele>244.844023</ele>
        <time>2022-03-07T08:35:44.503Z</time>
      </trkpt>
      <trkpt lat="42.26923" lon="24.54964">
        <ele>244.948409</ele>
        <time>2022-03-07T08:35:47.527Z</time>
      </trkpt>
      <trkpt lat="42.26932" lon="24.54955">
        <ele>245.070951</ele>
        <time>2022-03-07T08:35:50.499Z</time>
      </trkpt>
      <trkpt lat="42.2694" lon="24.54946">
        <ele>245.186462</ele>
        <time>2022-03-07T08:35:53.493Z</time>
      </trkpt>
      <trkpt lat="42.26949" lon="24.54938">
        <ele>245.302099</ele>
        <time>2022-03-07T08:35:56.482Z</time>
      </trkpt>
      <trkpt lat="42.26958" lon="24.5493">
        <ele>245.415922</ele>
        <time>2022-03-07T08:35:59.494Z</time>
      </trkpt>
      <trkpt lat="42.26967" lon="24.54921">
        <ele>245.53808</ele>
        <time>2022-03-07T08:36:02.475Z</time>
      </trkpt>
      <trkpt lat="42.26975" lon="24.54912">
        <ele>245.656004</ele>
        <time>2022-03-07T08:36:05.490Z</time>
      </trkpt>
      <trkpt lat="42.26983" lon="24.54904">
        <ele>245.764113</ele>
        <time>2022-03-07T08:36:08.493Z</time>
      </trkpt>
      <trkpt lat="42.26991" lon="24.54895">
        <ele>245.87708</ele>
        <time>2022-03-07T08:36:11.490Z</time>
      </trkpt>
      <trkpt lat="42.26999" lon="24.54888">
        <ele>245.978796</ele>
        <time>2022-03-07T08:36:14.491Z</time>
      </trkpt>
      <trkpt lat="42.27007" lon="24.54881">
        <ele>246.083924</ele>
        <time>2022-03-07T08:36:17.488Z</time>
      </trkpt>
      <trkpt lat="42.27015" lon="24.54874">
        <ele>246.186519</ele>
        <time>2022-03-07T08:36:20.489Z</time>
      </trkpt>
      <trkpt lat="42.27022" lon="24.54865">
        <ele>246.295595</ele>
        <time>2022-03-07T08:36:23.496Z</time>
      </trkpt>
      <trkpt lat="42.27031" lon="24.54854">
        <ele>246.414775</ele>
        <time>2022-03-07T08:36:27.490Z</time>
      </trkpt>
      <trkpt lat="42.2704" lon="24.54846">
        <ele>246.397171</ele>
        <time>2022-03-07T08:36:30.502Z</time>
      </trkpt>
      <trkpt lat="42.27047" lon="24.54836">
        <ele>246.380912</ele>
        <time>2022-03-07T08:36:33.482Z</time>
      </trkpt>
      <trkpt lat="42.27056" lon="24.54827">
        <ele>246.362089</ele>
        <time>2022-03-07T08:36:37.508Z</time>
      </trkpt>
      <trkpt lat="42.27063" lon="24.54819">
        <ele>246.346174</ele>
        <time>2022-03-07T08:36:43.541Z</time>
      </trkpt>
      <trkpt lat="42.27072" lon="24.54813">
        <ele>246.329408</ele>
        <time>2022-03-07T08:36:47.521Z</time>
      </trkpt>
      <trkpt lat="42.27081" lon="24.54807">
        <ele>246.313378</ele>
        <time>2022-03-07T08:36:50.493Z</time>
      </trkpt>
      <trkpt lat="42.27088" lon="24.54799">
        <ele>246.297988</ele>
        <time>2022-03-07T08:36:53.494Z</time>
      </trkpt>
      <trkpt lat="42.27095" lon="24.5479">
        <ele>246.281376</ele>
        <time>2022-03-07T08:36:56.526Z</time>
      </trkpt>
      <trkpt lat="42.27104" lon="24.54781">
        <ele>246.262948</ele>
        <time>2022-03-07T08:36:59.519Z</time>
      </trkpt>
      <trkpt lat="42.27114" lon="24.54772">
        <ele>246.243661</ele>
        <time>2022-03-07T08:37:02.480Z</time>
      </trkpt>
      <trkpt lat="42.27122" lon="24.54764">
        <ele>246.22685</ele>
        <time>2022-03-07T08:37:05.522Z</time>
      </trkpt>
      <trkpt lat="42.2713" lon="24.54757">
        <ele>246.211342</ele>
        <time>2022-03-07T08:37:08.539Z</time>
      </trkpt>
      <trkpt lat="42.27138" lon="24.54751">
        <ele>246.196369</ele>
        <time>2022-03-07T08:37:11.502Z</time>
      </trkpt>
      <trkpt lat="42.27146" lon="24.54745">
        <ele>246.180745</ele>
        <time>2022-03-07T08:37:15.474Z</time>
      </trkpt>
      <trkpt lat="42.27151" lon="24.54734">
        <ele>246.165454</ele>
        <time>2022-03-07T08:37:19.514Z</time>
      </trkpt>
      <trkpt lat="42.27148" lon="24.54723">
        <ele>246.150167</ele>
        <time>2022-03-07T08:37:23.530Z</time>
      </trkpt>
      <trkpt lat="42.2715" lon="24.54708">
        <ele>246.131512</ele>
        <time>2022-03-07T08:37:27.477Z</time>
      </trkpt>
      <trkpt lat="42.27155" lon="24.54696">
        <ele>246.162649</ele>
        <time>2022-03-07T08:37:30.480Z</time>
      </trkpt>
      <trkpt lat="42.27163" lon="24.54686">
        <ele>246.456802</ele>
        <time>2022-03-07T08:37:34.485Z</time>
      </trkpt>
      <trkpt lat="42.27171" lon="24.54693">
        <ele>246.72615</ele>
        <time>2022-03-07T08:37:39.466Z</time>
      </trkpt>
      <trkpt lat="42.2718" lon="24.54689">
        <ele>246.986765</ele>
        <time>2022-03-07T08:37:45.456Z</time>
      </trkpt>
      <trkpt lat="42.27167" lon="24.54681">
        <ele>247.399797</ele>
        <time>2022-03-07T08:58:20.485Z</time>
      </trkpt>
      <trkpt lat="42.27156" lon="24.54688">
        <ele>247.734252</ele>
        <time>2022-03-07T08:58:23.487Z</time>
      </trkpt>
      <trkpt lat="42.2715" lon="24.54699">
        <ele>248.016387</ele>
        <time>2022-03-07T08:58:26.557Z</time>
      </trkpt>
      <trkpt lat="42.27144" lon="24.54711">
        <ele>248.287472</ele>
        <time>2022-03-07T08:58:29.496Z</time>
      </trkpt>
      <trkpt lat="42.27139" lon="24.54722">
        <ele>248.56342</ele>
        <time>2022-03-07T08:58:32.576Z</time>
      </trkpt>
      <trkpt lat="42.27133" lon="24.54733">
        <ele>248.840566</ele>
        <time>2022-03-07T08:58:36.494Z</time>
      </trkpt>
      <trkpt lat="42.27121" lon="24.54732">
        <ele>249.148554</ele>
        <time>2022-03-07T08:58:41.498Z</time>
      </trkpt>
      <trkpt lat="42.27111" lon="24.54727">
        <ele>249.441626</ele>
        <time>2022-03-07T08:58:45.495Z</time>
      </trkpt>
      <trkpt lat="42.27101" lon="24.5472">
        <ele>249.752019</ele>
        <time>2022-03-07T08:58:49.474Z</time>
      </trkpt>
      <trkpt lat="42.27092" lon="24.54715">
        <ele>250.019391</ele>
        <time>2022-03-07T08:58:52.479Z</time>
      </trkpt>
      <trkpt lat="42.27083" lon="24.5471">
        <ele>250.284511</ele>
        <time>2022-03-07T08:58:55.503Z</time>
      </trkpt>
      <trkpt lat="42.27073" lon="24.54705">
        <ele>250.569462</ele>
        <time>2022-03-07T08:58:58.506Z</time>
      </trkpt>
      <trkpt lat="42.27063" lon="24.547">
        <ele>250.859157</ele>
        <time>2022-03-07T08:59:01.487Z</time>
      </trkpt>
      <trkpt lat="42.27052" lon="24.54695">
        <ele>251.151962</ele>
        <time>2022-03-07T08:59:04.499Z</time>
      </trkpt>
      <trkpt lat="42.27042" lon="24.54689">
        <ele>251.407436</ele>
        <time>2022-03-07T08:59:07.492Z</time>
      </trkpt>
      <trkpt lat="42.27031" lon="24.54683">
        <ele>251.671537</ele>
        <time>2022-03-07T08:59:10.477Z</time>
      </trkpt>
      <trkpt lat="42.27019" lon="24.54678">
        <ele>251.942367</ele>
        <time>2022-03-07T08:59:13.480Z</time>
      </trkpt>
      <trkpt lat="42.27008" lon="24.54672">
        <ele>252.217468</ele>
        <time>2022-03-07T08:59:16.517Z</time>
      </trkpt>
      <trkpt lat="42.26996" lon="24.54667">
        <ele>252.497414</ele>
        <time>2022-03-07T08:59:19.483Z</time>
      </trkpt>
      <trkpt lat="42.26984" lon="24.54663">
        <ele>252.777944</ele>
        <time>2022-03-07T08:59:22.475Z</time>
      </trkpt>
      <trkpt lat="42.26972" lon="24.5466">
        <ele>253.048958</ele>
        <time>2022-03-07T08:59:25.488Z</time>
      </trkpt>
      <trkpt lat="42.26961" lon="24.5466">
        <ele>253.302062</ele>
        <time>2022-03-07T08:59:28.498Z</time>
      </trkpt>
      <trkpt lat="42.26948" lon="24.54662">
        <ele>253.599778</ele>
        <time>2022-03-07T08:59:31.508Z</time>
      </trkpt>
      <trkpt lat="42.26935" lon="24.54666">
        <ele>253.894232</ele>
        <time>2022-03-07T08:59:34.492Z</time>
      </trkpt>
      <trkpt lat="42.26922" lon="24.54667">
        <ele>254.196109</ele>
        <time>2022-03-07T08:59:37.508Z</time>
      </trkpt>
      <trkpt lat="42.26913" lon="24.54668">
        <ele>254.402715</ele>
        <time>2022-03-07T08:59:39.495Z</time>
      </trkpt>
      <trkpt lat="42.26904" lon="24.54669">
        <ele>254.606771</ele>
        <time>2022-03-07T08:59:41.506Z</time>
      </trkpt>
      <trkpt lat="42.26891" lon="24.54671">
        <ele>254.903584</ele>
        <time>2022-03-07T08:59:44.475Z</time>
      </trkpt>
      <trkpt lat="42.26878" lon="24.54673">
        <ele>255.099321</ele>
        <time>2022-03-07T08:59:47.522Z</time>
      </trkpt>
      <trkpt lat="42.26868" lon="24.54675">
        <ele>255.134056</ele>
        <time>2022-03-07T08:59:49.527Z</time>
      </trkpt>
      <trkpt lat="42.26859" lon="24.54677">
        <ele>255.166148</ele>
        <time>2022-03-07T08:59:51.486Z</time>
      </trkpt>
      <trkpt lat="42.26846" lon="24.54679">
        <ele>255.212833</ele>
        <time>2022-03-07T08:59:54.480Z</time>
      </trkpt>
      <trkpt lat="42.26834" lon="24.54681">
        <ele>255.256496</ele>
        <time>2022-03-07T08:59:57.504Z</time>
      </trkpt>
      <trkpt lat="42.26821" lon="24.54683">
        <ele>255.299836</ele>
        <time>2022-03-07T09:00:00.538Z</time>
      </trkpt>
      <trkpt lat="42.26812" lon="24.54683">
        <ele>255.334813</ele>
        <time>2022-03-07T09:00:03.493Z</time>
      </trkpt>
      <trkpt lat="42.268" lon="24.54682">
        <ele>255.377219</ele>
        <time>2022-03-07T09:00:07.492Z</time>
      </trkpt>
      <trkpt lat="42.26789" lon="24.54682">
        <ele>255.413669</ele>
        <time>2022-03-07T09:00:10.494Z</time>
      </trkpt>
      <trkpt lat="42.26778" lon="24.54681">
        <ele>255.451809</ele>
        <time>2022-03-07T09:00:13.486Z</time>
      </trkpt>
      <trkpt lat="42.26767" lon="24.54682">
        <ele>255.490663</ele>
        <time>2022-03-07T09:00:16.489Z</time>
      </trkpt>
      <trkpt lat="42.26756" lon="24.54682">
        <ele>255.52951</ele>
        <time>2022-03-07T09:00:19.498Z</time>
      </trkpt>
      <trkpt lat="42.26745" lon="24.54682">
        <ele>255.570835</ele>
        <time>2022-03-07T09:00:22.497Z</time>
      </trkpt>
      <trkpt lat="42.26732" lon="24.54683">
        <ele>255.614322</ele>
        <time>2022-03-07T09:00:25.477Z</time>
      </trkpt>
      <trkpt lat="42.2672" lon="24.54683">
        <ele>255.656703</ele>
        <time>2022-03-07T09:00:28.495Z</time>
      </trkpt>
      <trkpt lat="42.26709" lon="24.54683">
        <ele>255.697675</ele>
        <time>2022-03-07T09:00:31.501Z</time>
      </trkpt>
      <trkpt lat="42.26698" lon="24.54683">
        <ele>255.642676</ele>
        <time>2022-03-07T09:00:34.489Z</time>
      </trkpt>
      <trkpt lat="42.26688" lon="24.5468">
        <ele>255.519934</ele>
        <time>2022-03-07T09:00:37.506Z</time>
      </trkpt>
      <trkpt lat="42.26679" lon="24.54675">
        <ele>255.38838</ele>
        <time>2022-03-07T09:00:40.497Z</time>
      </trkpt>
      <trkpt lat="42.26668" lon="24.5467">
        <ele>255.250412</ele>
        <time>2022-03-07T09:00:43.480Z</time>
      </trkpt>
      <trkpt lat="42.26657" lon="24.54664">
        <ele>255.102848</ele>
        <time>2022-03-07T09:00:46.492Z</time>
      </trkpt>
      <trkpt lat="42.26647" lon="24.54657">
        <ele>254.955396</ele>
        <time>2022-03-07T09:00:49.511Z</time>
      </trkpt>
      <trkpt lat="42.26636" lon="24.5465">
        <ele>254.801296</ele>
        <time>2022-03-07T09:00:52.496Z</time>
      </trkpt>
      <trkpt lat="42.26624" lon="24.54643">
        <ele>254.637816</ele>
        <time>2022-03-07T09:00:55.483Z</time>
      </trkpt>
      <trkpt lat="42.26612" lon="24.54637">
        <ele>254.477689</ele>
        <time>2022-03-07T09:00:58.519Z</time>
      </trkpt>
      <trkpt lat="42.26603" lon="24.54631">
        <ele>254.346384</ele>
        <time>2022-03-07T09:01:01.495Z</time>
      </trkpt>
      <trkpt lat="42.26594" lon="24.54627">
        <ele>254.227152</ele>
        <time>2022-03-07T09:01:05.497Z</time>
      </trkpt>
      <trkpt lat="42.26585" lon="24.54623">
        <ele>254.110533</ele>
        <time>2022-03-07T09:01:08.500Z</time>
      </trkpt>
      <trkpt lat="42.26575" lon="24.54618">
        <ele>253.980867</ele>
        <time>2022-03-07T09:01:11.528Z</time>
      </trkpt>
      <trkpt lat="42.26566" lon="24.5461">
        <ele>253.848322</ele>
        <time>2022-03-07T09:01:14.494Z</time>
      </trkpt>
      <trkpt lat="42.26558" lon="24.54602">
        <ele>253.714727</ele>
        <time>2022-03-07T09:01:17.501Z</time>
      </trkpt>
      <trkpt lat="42.26548" lon="24.54595">
        <ele>253.576966</ele>
        <time>2022-03-07T09:01:20.485Z</time>
      </trkpt>
      <trkpt lat="42.26537" lon="24.54588">
        <ele>253.459859</ele>
        <time>2022-03-07T09:01:23.493Z</time>
      </trkpt>
      <trkpt lat="42.26526" lon="24.5458">
        <ele>253.498773</ele>
        <time>2022-03-07T09:01:26.491Z</time>
      </trkpt>
      <trkpt lat="42.26515" lon="24.54573">
        <ele>253.538904</ele>
        <time>2022-03-07T09:01:29.487Z</time>
      </trkpt>
      <trkpt lat="42.26503" lon="24.54564">
        <ele>253.581051</ele>
        <time>2022-03-07T09:01:32.511Z</time>
      </trkpt>
      <trkpt lat="42.26492" lon="24.54556">
        <ele>253.62067</ele>
        <time>2022-03-07T09:01:35.514Z</time>
      </trkpt>
      <trkpt lat="42.26481" lon="24.54548">
        <ele>253.658587</ele>
        <time>2022-03-07T09:01:38.494Z</time>
      </trkpt>
      <trkpt lat="42.2647" lon="24.5454">
        <ele>253.698153</ele>
        <time>2022-03-07T09:01:41.493Z</time>
      </trkpt>
      <trkpt lat="42.26459" lon="24.54532">
        <ele>253.737113</ele>
        <time>2022-03-07T09:01:44.528Z</time>
      </trkpt>
      <trkpt lat="42.26447" lon="24.54524">
        <ele>253.777348</ele>
        <time>2022-03-07T09:01:47.495Z</time>
      </trkpt>
      <trkpt lat="42.26436" lon="24.54515">
        <ele>253.816483</ele>
        <time>2022-03-07T09:01:50.493Z</time>
      </trkpt>
      <trkpt lat="42.26425" lon="24.54507">
        <ele>253.855503</ele>
        <time>2022-03-07T09:01:53.475Z</time>
      </trkpt>
      <trkpt lat="42.26416" lon="24.54498">
        <ele>253.892363</ele>
        <time>2022-03-07T09:01:56.498Z</time>
      </trkpt>
      <trkpt lat="42.26408" lon="24.54487">
        <ele>253.9284</ele>
        <time>2022-03-07T09:01:59.493Z</time>
      </trkpt>
      <trkpt lat="42.26399" lon="24.54476">
        <ele>253.965167</ele>
        <time>2022-03-07T09:02:02.506Z</time>
      </trkpt>
      <trkpt lat="42.2639" lon="24.54466">
        <ele>254.001395</ele>
        <time>2022-03-07T09:02:05.492Z</time>
      </trkpt>
      <trkpt lat="42.26383" lon="24.54454">
        <ele>253.938133</ele>
        <time>2022-03-07T09:02:08.498Z</time>
      </trkpt>
      <trkpt lat="42.26375" lon="24.54444">
        <ele>253.822673</ele>
        <time>2022-03-07T09:02:11.526Z</time>
      </trkpt>
      <trkpt lat="42.26365" lon="24.54434">
        <ele>253.694766</ele>
        <time>2022-03-07T09:02:14.485Z</time>
      </trkpt>
      <trkpt lat="42.26355" lon="24.54424">
        <ele>253.565532</ele>
        <time>2022-03-07T09:02:17.502Z</time>
      </trkpt>
      <trkpt lat="42.26346" lon="24.54412">
        <ele>253.434549</ele>
        <time>2022-03-07T09:02:20.500Z</time>
      </trkpt>
      <trkpt lat="42.26336" lon="24.544">
        <ele>253.296773</ele>
        <time>2022-03-07T09:02:23.491Z</time>
      </trkpt>
      <trkpt lat="42.26326" lon="24.54388">
        <ele>253.161301</ele>
        <time>2022-03-07T09:02:26.483Z</time>
      </trkpt>
      <trkpt lat="42.26317" lon="24.54376">
        <ele>253.025301</ele>
        <time>2022-03-07T09:02:29.494Z</time>
      </trkpt>
      <trkpt lat="42.2631" lon="24.54367">
        <ele>252.930523</ele>
        <time>2022-03-07T09:02:31.480Z</time>
      </trkpt>
      <trkpt lat="42.26303" lon="24.54359">
        <ele>252.833765</ele>
        <time>2022-03-07T09:02:33.484Z</time>
      </trkpt>
      <trkpt lat="42.26296" lon="24.54351">
        <ele>252.737503</ele>
        <time>2022-03-07T09:02:35.475Z</time>
      </trkpt>
      <trkpt lat="42.26286" lon="24.54339">
        <ele>252.599981</ele>
        <time>2022-03-07T09:02:38.499Z</time>
      </trkpt>
      <trkpt lat="42.26276" lon="24.54326">
        <ele>252.460593</ele>
        <time>2022-03-07T09:02:41.488Z</time>
      </trkpt>
      <trkpt lat="42.2627" lon="24.54318">
        <ele>252.366176</ele>
        <time>2022-03-07T09:02:43.494Z</time>
      </trkpt>
      <trkpt lat="42.2626" lon="24.54307">
        <ele>252.231924</ele>
        <time>2022-03-07T09:02:46.492Z</time>
      </trkpt>
      <trkpt lat="42.26251" lon="24.54296">
        <ele>252.105957</ele>
        <time>2022-03-07T09:02:49.485Z</time>
      </trkpt>
      <trkpt lat="42.26242" lon="24.54285">
        <ele>251.978106</ele>
        <time>2022-03-07T09:02:52.496Z</time>
      </trkpt>
      <trkpt lat="42.26233" lon="24.54274">
        <ele>251.853121</ele>
        <time>2022-03-07T09:02:55.492Z</time>
      </trkpt>
      <trkpt lat="42.26226" lon="24.54266">
        <ele>251.75546</ele>
        <time>2022-03-07T09:02:58.491Z</time>
      </trkpt>
      <trkpt lat="42.26217" lon="24.54256">
        <ele>251.633919</ele>
        <time>2022-03-07T09:03:02.481Z</time>
      </trkpt>
      <trkpt lat="42.2621" lon="24.54247">
        <ele>251.52757</ele>
        <time>2022-03-07T09:03:05.497Z</time>
      </trkpt>
      <trkpt lat="42.26202" lon="24.54236">
        <ele>251.40707</ele>
        <time>2022-03-07T09:03:08.494Z</time>
      </trkpt>
      <trkpt lat="42.26194" lon="24.54228">
        <ele>251.298043</ele>
        <time>2022-03-07T09:03:11.523Z</time>
      </trkpt>
      <trkpt lat="42.26186" lon="24.54218">
        <ele>251.18669</ele>
        <time>2022-03-07T09:03:15.486Z</time>
      </trkpt>
      <trkpt lat="42.26177" lon="24.54209">
        <ele>251.066592</ele>
        <time>2022-03-07T09:03:19.498Z</time>
      </trkpt>
      <trkpt lat="42.2617" lon="24.542">
        <ele>250.964996</ele>
        <time>2022-03-07T09:03:22.494Z</time>
      </trkpt>
      <trkpt lat="42.26162" lon="24.54192">
        <ele>250.862087</ele>
        <time>2022-03-07T09:03:25.488Z</time>
      </trkpt>
      <trkpt lat="42.26156" lon="24.54182">
        <ele>250.760086</ele>
        <time>2022-03-07T09:03:28.519Z</time>
      </trkpt>
      <trkpt lat="42.26148" lon="24.54174">
        <ele>250.656625</ele>
        <time>2022-03-07T09:03:31.495Z</time>
      </trkpt>
      <trkpt lat="42.26138" lon="24.54166">
        <ele>250.53526</ele>
        <time>2022-03-07T09:03:34.487Z</time>
      </trkpt>
      <trkpt lat="42.26127" lon="24.54159">
        <ele>250.400915</ele>
        <time>2022-03-07T09:03:37.477Z</time>
      </trkpt>
      <trkpt lat="42.26116" lon="24.54152">
        <ele>250.273966</ele>
        <time>2022-03-07T09:03:40.497Z</time>
      </trkpt>
      <trkpt lat="42.26104" lon="24.54147">
        <ele>250.602118</ele>
        <time>2022-03-07T09:03:43.496Z</time>
      </trkpt>
      <trkpt lat="42.26092" lon="24.54142">
        <ele>251.0663</ele>
        <time>2022-03-07T09:03:46.495Z</time>
      </trkpt>
      <trkpt lat="42.26079" lon="24.54138">
        <ele>251.540929</ele>
        <time>2022-03-07T09:03:49.490Z</time>
      </trkpt>
      <trkpt lat="42.26066" lon="24.54134">
        <ele>252.017217</ele>
        <time>2022-03-07T09:03:52.490Z</time>
      </trkpt>
      <trkpt lat="42.26054" lon="24.5413">
        <ele>252.482797</ele>
        <time>2022-03-07T09:03:55.491Z</time>
      </trkpt>
      <trkpt lat="42.26042" lon="24.54126">
        <ele>252.944019</ele>
        <time>2022-03-07T09:03:58.493Z</time>
      </trkpt>
      <trkpt lat="42.2603" lon="24.54122">
        <ele>253.367217</ele>
        <time>2022-03-07T09:04:01.519Z</time>
      </trkpt>
      <trkpt lat="42.26021" lon="24.54118">
        <ele>253.742562</ele>
        <time>2022-03-07T09:04:04.510Z</time>
      </trkpt>
      <trkpt lat="42.2601" lon="24.54112">
        <ele>254.154257</ele>
        <time>2022-03-07T09:04:07.491Z</time>
      </trkpt>
      <trkpt lat="42.26" lon="24.54107">
        <ele>254.561569</ele>
        <time>2022-03-07T09:04:10.479Z</time>
      </trkpt>
      <trkpt lat="42.25989" lon="24.54101">
        <ele>254.967503</ele>
        <time>2022-03-07T09:04:13.487Z</time>
      </trkpt>
      <trkpt lat="42.25979" lon="24.54094">
        <ele>255.381489</ele>
        <time>2022-03-07T09:04:16.492Z</time>
      </trkpt>
      <trkpt lat="42.25969" lon="24.54086">
        <ele>255.798095</ele>
        <time>2022-03-07T09:04:19.486Z</time>
      </trkpt>
      <trkpt lat="42.25959" lon="24.54078">
        <ele>256.236581</ele>
        <time>2022-03-07T09:04:22.478Z</time>
      </trkpt>
      <trkpt lat="42.25949" lon="24.54069">
        <ele>256.694604</ele>
        <time>2022-03-07T09:04:25.493Z</time>
      </trkpt>
      <trkpt lat="42.25939" lon="24.5406">
        <ele>256.825573</ele>
        <time>2022-03-07T09:04:28.475Z</time>
      </trkpt>
      <trkpt lat="42.25928" lon="24.54053">
        <ele>256.8563</ele>
        <time>2022-03-07T09:04:31.527Z</time>
      </trkpt>
      <trkpt lat="42.25918" lon="24.54045">
        <ele>256.88625</ele>
        <time>2022-03-07T09:04:34.520Z</time>
      </trkpt>
      <trkpt lat="42.25909" lon="24.54037">
        <ele>256.915031</ele>
        <time>2022-03-07T09:04:37.484Z</time>
      </trkpt>
      <trkpt lat="42.25899" lon="24.54027">
        <ele>256.945201</ele>
        <time>2022-03-07T09:04:40.525Z</time>
      </trkpt>
      <trkpt lat="42.25891" lon="24.54019">
        <ele>256.972102</ele>
        <time>2022-03-07T09:04:43.482Z</time>
      </trkpt>
      <trkpt lat="42.25883" lon="24.54012">
        <ele>256.996472</ele>
        <time>2022-03-07T09:04:46.523Z</time>
      </trkpt>
      <trkpt lat="42.25873" lon="24.54005">
        <ele>257.023985</ele>
        <time>2022-03-07T09:04:49.477Z</time>
      </trkpt>
      <trkpt lat="42.25863" lon="24.53997">
        <ele>257.054486</ele>
        <time>2022-03-07T09:04:52.536Z</time>
      </trkpt>
      <trkpt lat="42.25853" lon="24.53988">
        <ele>257.084122</ele>
        <time>2022-03-07T09:04:55.486Z</time>
      </trkpt>
      <trkpt lat="42.25842" lon="24.5398">
        <ele>257.116145</ele>
        <time>2022-03-07T09:04:58.484Z</time>
      </trkpt>
      <trkpt lat="42.25832" lon="24.53973">
        <ele>257.146412</ele>
        <time>2022-03-07T09:05:01.489Z</time>
      </trkpt>
      <trkpt lat="42.25822" lon="24.53964">
        <ele>257.176595</ele>
        <time>2022-03-07T09:05:04.494Z</time>
      </trkpt>
      <trkpt lat="42.25813" lon="24.53955">
        <ele>257.206018</ele>
        <time>2022-03-07T09:05:07.513Z</time>
      </trkpt>
      <trkpt lat="42.25803" lon="24.53946">
        <ele>257.236633</ele>
        <time>2022-03-07T09:05:10.490Z</time>
      </trkpt>
      <trkpt lat="42.25793" lon="24.53936">
        <ele>257.194865</ele>
        <time>2022-03-07T09:05:13.481Z</time>
      </trkpt>
      <trkpt lat="42.25784" lon="24.53927">
        <ele>256.345287</ele>
        <time>2022-03-07T09:05:16.494Z</time>
      </trkpt>
      <trkpt lat="42.25774" lon="24.53917">
        <ele>255.443437</ele>
        <time>2022-03-07T09:05:19.483Z</time>
      </trkpt>
      <trkpt lat="42.25764" lon="24.53907">
        <ele>254.499142</ele>
        <time>2022-03-07T09:05:22.487Z</time>
      </trkpt>
      <trkpt lat="42.25753" lon="24.53899">
        <ele>253.604606</ele>
        <time>2022-03-07T09:05:25.486Z</time>
      </trkpt>
      <trkpt lat="42.25744" lon="24.53894">
        <ele>252.871127</ele>
        <time>2022-03-07T09:05:28.484Z</time>
      </trkpt>
      <trkpt lat="42.25734" lon="24.53888">
        <ele>252.037026</ele>
        <time>2022-03-07T09:05:32.490Z</time>
      </trkpt>
      <trkpt lat="42.25725" lon="24.53879">
        <ele>251.22794</ele>
        <time>2022-03-07T09:05:35.505Z</time>
      </trkpt>
      <trkpt lat="42.25718" lon="24.53866">
        <ele>250.381047</ele>
        <time>2022-03-07T09:05:38.506Z</time>
      </trkpt>
      <trkpt lat="42.25712" lon="24.53852">
        <ele>249.472553</ele>
        <time>2022-03-07T09:05:41.541Z</time>
      </trkpt>
      <trkpt lat="42.25707" lon="24.53837">
        <ele>248.559504</ele>
        <time>2022-03-07T09:05:44.488Z</time>
      </trkpt>
      <trkpt lat="42.25702" lon="24.53822">
        <ele>247.680314</ele>
        <time>2022-03-07T09:05:47.487Z</time>
      </trkpt>
      <trkpt lat="42.25696" lon="24.53807">
        <ele>246.7495</ele>
        <time>2022-03-07T09:05:50.491Z</time>
      </trkpt>
      <trkpt lat="42.2569" lon="24.53792">
        <ele>245.844906</ele>
        <time>2022-03-07T09:05:53.488Z</time>
      </trkpt>
      <trkpt lat="42.25685" lon="24.53778">
        <ele>244.965297</ele>
        <time>2022-03-07T09:05:56.498Z</time>
      </trkpt>
      <trkpt lat="42.25681" lon="24.53763">
        <ele>244.097315</ele>
        <time>2022-03-07T09:05:59.511Z</time>
      </trkpt>
      <trkpt lat="42.25676" lon="24.53748">
        <ele>244.046182</ele>
        <time>2022-03-07T09:06:02.505Z</time>
      </trkpt>
      <trkpt lat="42.25671" lon="24.53734">
        <ele>244.098131</ele>
        <time>2022-03-07T09:06:05.492Z</time>
      </trkpt>
      <trkpt lat="42.25666" lon="24.53719">
        <ele>244.152579</ele>
        <time>2022-03-07T09:06:08.493Z</time>
      </trkpt>
      <trkpt lat="42.25662" lon="24.53703">
        <ele>244.207623</ele>
        <time>2022-03-07T09:06:11.501Z</time>
      </trkpt>
      <trkpt lat="42.25658" lon="24.53688">
        <ele>244.263907</ele>
        <time>2022-03-07T09:06:14.478Z</time>
      </trkpt>
      <trkpt lat="42.25653" lon="24.53671">
        <ele>244.322837</ele>
        <time>2022-03-07T09:06:17.486Z</time>
      </trkpt>
      <trkpt lat="42.25648" lon="24.53655">
        <ele>244.379605</ele>
        <time>2022-03-07T09:06:20.522Z</time>
      </trkpt>
      <trkpt lat="42.25643" lon="24.5364">
        <ele>244.436301</ele>
        <time>2022-03-07T09:06:23.492Z</time>
      </trkpt>
      <trkpt lat="42.25637" lon="24.53625">
        <ele>244.491522</ele>
        <time>2022-03-07T09:06:26.497Z</time>
      </trkpt>
      <trkpt lat="42.25632" lon="24.53609">
        <ele>244.548135</ele>
        <time>2022-03-07T09:06:29.490Z</time>
      </trkpt>
      <trkpt lat="42.25627" lon="24.53594">
        <ele>244.604259</ele>
        <time>2022-03-07T09:06:32.470Z</time>
      </trkpt>
      <trkpt lat="42.25622" lon="24.53578">
        <ele>244.66072</ele>
        <time>2022-03-07T09:06:35.491Z</time>
      </trkpt>
      <trkpt lat="42.25618" lon="24.53563">
        <ele>244.714985</ele>
        <time>2022-03-07T09:06:38.506Z</time>
      </trkpt>
      <trkpt lat="42.25613" lon="24.53547">
        <ele>244.770664</ele>
        <time>2022-03-07T09:06:41.502Z</time>
      </trkpt>
      <trkpt lat="42.25608" lon="24.53531">
        <ele>244.869754</ele>
        <time>2022-03-07T09:06:44.471Z</time>
      </trkpt>
      <trkpt lat="42.25604" lon="24.53516">
        <ele>245.034188</ele>
        <time>2022-03-07T09:06:47.503Z</time>
      </trkpt>
      <trkpt lat="42.25598" lon="24.535">
        <ele>245.206413</ele>
        <time>2022-03-07T09:06:50.488Z</time>
      </trkpt>
      <trkpt lat="42.25593" lon="24.53484">
        <ele>245.373146</ele>
        <time>2022-03-07T09:06:53.535Z</time>
      </trkpt>
      <trkpt lat="42.25589" lon="24.53468">
        <ele>245.537969</ele>
        <time>2022-03-07T09:06:56.499Z</time>
      </trkpt>
      <trkpt lat="42.25584" lon="24.53452">
        <ele>245.701397</ele>
        <time>2022-03-07T09:06:59.484Z</time>
      </trkpt>
      <trkpt lat="42.25579" lon="24.53437">
        <ele>245.860341</ele>
        <time>2022-03-07T09:07:02.492Z</time>
      </trkpt>
      <trkpt lat="42.25574" lon="24.53423">
        <ele>246.021032</ele>
        <time>2022-03-07T09:07:05.508Z</time>
      </trkpt>
      <trkpt lat="42.25568" lon="24.53407">
        <ele>246.186649</ele>
        <time>2022-03-07T09:07:08.495Z</time>
      </trkpt>
      <trkpt lat="42.25562" lon="24.53391">
        <ele>246.358072</ele>
        <time>2022-03-07T09:07:11.476Z</time>
      </trkpt>
      <trkpt lat="42.25557" lon="24.53375">
        <ele>246.52878</ele>
        <time>2022-03-07T09:07:14.498Z</time>
      </trkpt>
      <trkpt lat="42.25553" lon="24.53359">
        <ele>246.692142</ele>
        <time>2022-03-07T09:07:17.495Z</time>
      </trkpt>
      <trkpt lat="42.25548" lon="24.53344">
        <ele>246.854299</ele>
        <time>2022-03-07T09:07:20.483Z</time>
      </trkpt>
      <trkpt lat="42.25542" lon="24.5333">
        <ele>247.010934</ele>
        <time>2022-03-07T09:07:23.501Z</time>
      </trkpt>
      <trkpt lat="42.25537" lon="24.53315">
        <ele>247.164298</ele>
        <time>2022-03-07T09:07:26.502Z</time>
      </trkpt>
      <trkpt lat="42.25532" lon="24.53299">
        <ele>247.196572</ele>
        <time>2022-03-07T09:07:29.486Z</time>
      </trkpt>
      <trkpt lat="42.25527" lon="24.53284">
        <ele>247.228463</ele>
        <time>2022-03-07T09:07:32.553Z</time>
      </trkpt>
      <trkpt lat="42.25522" lon="24.5327">
        <ele>247.259054</ele>
        <time>2022-03-07T09:07:35.499Z</time>
      </trkpt>
      <trkpt lat="42.25517" lon="24.53255">
        <ele>247.290207</ele>
        <time>2022-03-07T09:07:38.481Z</time>
      </trkpt>
      <trkpt lat="42.25512" lon="24.5324">
        <ele>247.321359</ele>
        <time>2022-03-07T09:07:41.498Z</time>
      </trkpt>
      <trkpt lat="42.25507" lon="24.53225">
        <ele>247.351951</ele>
        <time>2022-03-07T09:07:44.480Z</time>
      </trkpt>
      <trkpt lat="42.25503" lon="24.53211">
        <ele>247.38204</ele>
        <time>2022-03-07T09:07:47.487Z</time>
      </trkpt>
      <trkpt lat="42.25498" lon="24.53196">
        <ele>247.413891</ele>
        <time>2022-03-07T09:07:50.499Z</time>
      </trkpt>
      <trkpt lat="42.25493" lon="24.5318">
        <ele>247.446898</ele>
        <time>2022-03-07T09:07:53.507Z</time>
      </trkpt>
      <trkpt lat="42.25488" lon="24.53164">
        <ele>247.479683</ele>
        <time>2022-03-07T09:07:56.478Z</time>
      </trkpt>
      <trkpt lat="42.25483" lon="24.53148">
        <ele>247.511743</ele>
        <time>2022-03-07T09:07:59.493Z</time>
      </trkpt>
      <trkpt lat="42.25479" lon="24.53133">
        <ele>247.543842</ele>
        <time>2022-03-07T09:08:02.490Z</time>
      </trkpt>
      <trkpt lat="42.25474" lon="24.53118">
        <ele>247.575033</ele>
        <time>2022-03-07T09:08:05.511Z</time>
      </trkpt>
      <trkpt lat="42.25468" lon="24.53102">
        <ele>247.608358</ele>
        <time>2022-03-07T09:08:08.499Z</time>
      </trkpt>
      <trkpt lat="42.25463" lon="24.53086">
        <ele>247.658196</ele>
        <time>2022-03-07T09:08:11.534Z</time>
      </trkpt>
      <trkpt lat="42.25458" lon="24.53071">
        <ele>247.724801</ele>
        <time>2022-03-07T09:08:14.495Z</time>
      </trkpt>
      <trkpt lat="42.25453" lon="24.53055">
        <ele>247.789457</ele>
        <time>2022-03-07T09:08:17.530Z</time>
      </trkpt>
      <trkpt lat="42.25448" lon="24.53041">
        <ele>247.852335</ele>
        <time>2022-03-07T09:08:20.490Z</time>
      </trkpt>
      <trkpt lat="42.25443" lon="24.53026">
        <ele>247.91642</ele>
        <time>2022-03-07T09:08:23.506Z</time>
      </trkpt>
      <trkpt lat="42.25438" lon="24.5301">
        <ele>247.982298</ele>
        <time>2022-03-07T09:08:26.530Z</time>
      </trkpt>
      <trkpt lat="42.25433" lon="24.52995">
        <ele>248.047184</ele>
        <time>2022-03-07T09:08:29.492Z</time>
      </trkpt>
      <trkpt lat="42.25428" lon="24.5298">
        <ele>248.112555</ele>
        <time>2022-03-07T09:08:32.496Z</time>
      </trkpt>
      <trkpt lat="42.25424" lon="24.52964">
        <ele>248.178725</ele>
        <time>2022-03-07T09:08:35.496Z</time>
      </trkpt>
      <trkpt lat="42.25418" lon="24.52948">
        <ele>248.247102</ele>
        <time>2022-03-07T09:08:38.496Z</time>
      </trkpt>
      <trkpt lat="42.25413" lon="24.52933">
        <ele>248.312422</ele>
        <time>2022-03-07T09:08:41.501Z</time>
      </trkpt>
      <trkpt lat="42.25408" lon="24.52918">
        <ele>248.376941</ele>
        <time>2022-03-07T09:08:44.488Z</time>
      </trkpt>
      <trkpt lat="42.25403" lon="24.52903">
        <ele>248.440623</ele>
        <time>2022-03-07T09:08:47.497Z</time>
      </trkpt>
      <trkpt lat="42.25398" lon="24.52888">
        <ele>248.50537</ele>
        <time>2022-03-07T09:08:50.485Z</time>
      </trkpt>
      <trkpt lat="42.25394" lon="24.52872">
        <ele>248.571369</ele>
        <time>2022-03-07T09:08:53.492Z</time>
      </trkpt>
      <trkpt lat="42.25389" lon="24.52857">
        <ele>248.836784</ele>
        <time>2022-03-07T09:08:56.503Z</time>
      </trkpt>
      <trkpt lat="42.25384" lon="24.52842">
        <ele>249.106592</ele>
        <time>2022-03-07T09:08:59.496Z</time>
      </trkpt>
      <trkpt lat="42.25378" lon="24.52828">
        <ele>249.380008</ele>
        <time>2022-03-07T09:09:02.503Z</time>
      </trkpt>
      <trkpt lat="42.25373" lon="24.52813">
        <ele>249.668648</ele>
        <time>2022-03-07T09:09:05.490Z</time>
      </trkpt>
      <trkpt lat="42.25368" lon="24.52798">
        <ele>249.953975</ele>
        <time>2022-03-07T09:09:08.546Z</time>
      </trkpt>
      <trkpt lat="42.25363" lon="24.52783">
        <ele>250.224357</ele>
        <time>2022-03-07T09:09:11.493Z</time>
      </trkpt>
      <trkpt lat="42.25358" lon="24.52769">
        <ele>250.492089</ele>
        <time>2022-03-07T09:09:14.478Z</time>
      </trkpt>
      <trkpt lat="42.25353" lon="24.52755">
        <ele>250.758289</ele>
        <time>2022-03-07T09:09:17.494Z</time>
      </trkpt>
      <trkpt lat="42.25348" lon="24.5274">
        <ele>251.031122</ele>
        <time>2022-03-07T09:09:20.499Z</time>
      </trkpt>
      <trkpt lat="42.25344" lon="24.52726">
        <ele>251.301635</ele>
        <time>2022-03-07T09:09:23.481Z</time>
      </trkpt>
      <trkpt lat="42.2534" lon="24.5271">
        <ele>251.57765</ele>
        <time>2022-03-07T09:09:26.489Z</time>
      </trkpt>
      <trkpt lat="42.25336" lon="24.52695">
        <ele>251.849222</ele>
        <time>2022-03-07T09:09:29.497Z</time>
      </trkpt>
      <trkpt lat="42.25333" lon="24.5268">
        <ele>252.112059</ele>
        <time>2022-03-07T09:09:32.487Z</time>
      </trkpt>
      <trkpt lat="42.2533" lon="24.52666">
        <ele>252.368303</ele>
        <time>2022-03-07T09:09:35.515Z</time>
      </trkpt>
      <trkpt lat="42.25328" lon="24.52651">
        <ele>252.624488</ele>
        <time>2022-03-07T09:09:38.510Z</time>
      </trkpt>
      <trkpt lat="42.25326" lon="24.52636">
        <ele>252.862641</ele>
        <time>2022-03-07T09:09:41.511Z</time>
      </trkpt>
      <trkpt lat="42.25326" lon="24.52619">
        <ele>253.087606</ele>
        <time>2022-03-07T09:09:44.492Z</time>
      </trkpt>
      <trkpt lat="42.25324" lon="24.52603">
        <ele>253.315941</ele>
        <time>2022-03-07T09:09:47.495Z</time>
      </trkpt>
      <trkpt lat="42.25323" lon="24.52587">
        <ele>253.544454</ele>
        <time>2022-03-07T09:09:50.491Z</time>
      </trkpt>
      <trkpt lat="42.25322" lon="24.52571">
        <ele>253.7702</ele>
        <time>2022-03-07T09:09:53.498Z</time>
      </trkpt>
      <trkpt lat="42.25321" lon="24.52554">
        <ele>253.997492</ele>
        <time>2022-03-07T09:09:56.478Z</time>
      </trkpt>
      <trkpt lat="42.2532" lon="24.52538">
        <ele>254.225859</ele>
        <time>2022-03-07T09:09:59.493Z</time>
      </trkpt>
      <trkpt lat="42.2532" lon="24.52522">
        <ele>254.448245</ele>
        <time>2022-03-07T09:10:02.485Z</time>
      </trkpt>
      <trkpt lat="42.25318" lon="24.52505">
        <ele>254.683015</ele>
        <time>2022-03-07T09:10:05.493Z</time>
      </trkpt>
      <trkpt lat="42.25317" lon="24.52489">
        <ele>254.904324</ele>
        <time>2022-03-07T09:10:08.499Z</time>
      </trkpt>
      <trkpt lat="42.25316" lon="24.52473">
        <ele>255.124154</ele>
        <time>2022-03-07T09:10:11.485Z</time>
      </trkpt>
      <trkpt lat="42.25315" lon="24.52457">
        <ele>255.353906</ele>
        <time>2022-03-07T09:10:14.485Z</time>
      </trkpt>
      <trkpt lat="42.25314" lon="24.52441">
        <ele>255.576482</ele>
        <time>2022-03-07T09:10:17.509Z</time>
      </trkpt>
      <trkpt lat="42.25313" lon="24.52424">
        <ele>255.810389</ele>
        <time>2022-03-07T09:10:20.523Z</time>
      </trkpt>
      <trkpt lat="42.25312" lon="24.52408">
        <ele>256.036477</ele>
        <time>2022-03-07T09:10:23.494Z</time>
      </trkpt>
      <trkpt lat="42.2531" lon="24.52391">
        <ele>255.836343</ele>
        <time>2022-03-07T09:10:26.512Z</time>
      </trkpt>
      <trkpt lat="42.25309" lon="24.52374">
        <ele>255.481397</ele>
        <time>2022-03-07T09:10:29.496Z</time>
      </trkpt>
      <trkpt lat="42.25308" lon="24.52356">
        <ele>255.132057</ele>
        <time>2022-03-07T09:10:32.483Z</time>
      </trkpt>
      <trkpt lat="42.25307" lon="24.5234">
        <ele>254.795357</ele>
        <time>2022-03-07T09:10:35.509Z</time>
      </trkpt>
      <trkpt lat="42.25306" lon="24.52323">
        <ele>254.455562</ele>
        <time>2022-03-07T09:10:38.497Z</time>
      </trkpt>
      <trkpt lat="42.25305" lon="24.52306">
        <ele>254.10725</ele>
        <time>2022-03-07T09:10:41.485Z</time>
      </trkpt>
      <trkpt lat="42.25304" lon="24.52289">
        <ele>253.756563</ele>
        <time>2022-03-07T09:10:44.499Z</time>
      </trkpt>
      <trkpt lat="42.25303" lon="24.52272">
        <ele>253.405199</ele>
        <time>2022-03-07T09:10:47.494Z</time>
      </trkpt>
      <trkpt lat="42.25302" lon="24.52255">
        <ele>253.058918</ele>
        <time>2022-03-07T09:10:50.490Z</time>
      </trkpt>
      <trkpt lat="42.25301" lon="24.52238">
        <ele>252.72019</ele>
        <time>2022-03-07T09:10:53.502Z</time>
      </trkpt>
      <trkpt lat="42.25299" lon="24.52222">
        <ele>252.389034</ele>
        <time>2022-03-07T09:10:56.492Z</time>
      </trkpt>
      <trkpt lat="42.25298" lon="24.52206">
        <ele>252.059339</ele>
        <time>2022-03-07T09:10:59.505Z</time>
      </trkpt>
      <trkpt lat="42.25298" lon="24.5219">
        <ele>251.72575</ele>
        <time>2022-03-07T09:11:02.499Z</time>
      </trkpt>
      <trkpt lat="42.25298" lon="24.52174">
        <ele>251.398204</ele>
        <time>2022-03-07T09:11:05.521Z</time>
      </trkpt>
      <trkpt lat="42.25297" lon="24.52157">
        <ele>251.027403</ele>
        <time>2022-03-07T09:11:08.483Z</time>
      </trkpt>
      <trkpt lat="42.25295" lon="24.5214">
        <ele>250.578511</ele>
        <time>2022-03-07T09:11:11.502Z</time>
      </trkpt>
      <trkpt lat="42.25294" lon="24.52122">
        <ele>250.107868</ele>
        <time>2022-03-07T09:11:14.485Z</time>
      </trkpt>
      <trkpt lat="42.25293" lon="24.52105">
        <ele>249.642286</ele>
        <time>2022-03-07T09:11:17.483Z</time>
      </trkpt>
      <trkpt lat="42.25292" lon="24.52088">
        <ele>249.189897</ele>
        <time>2022-03-07T09:11:20.489Z</time>
      </trkpt>
      <trkpt lat="42.2529" lon="24.52072">
        <ele>248.752359</ele>
        <time>2022-03-07T09:11:23.489Z</time>
      </trkpt>
      <trkpt lat="42.25289" lon="24.52056">
        <ele>248.332866</ele>
        <time>2022-03-07T09:11:26.496Z</time>
      </trkpt>
      <trkpt lat="42.25288" lon="24.5204">
        <ele>247.923071</ele>
        <time>2022-03-07T09:11:29.490Z</time>
      </trkpt>
      <trkpt lat="42.25287" lon="24.52024">
        <ele>247.492117</ele>
        <time>2022-03-07T09:11:32.486Z</time>
      </trkpt>
      <trkpt lat="42.25286" lon="24.52008">
        <ele>247.060567</ele>
        <time>2022-03-07T09:11:35.506Z</time>
      </trkpt>
      <trkpt lat="42.25285" lon="24.51991">
        <ele>246.618449</ele>
        <time>2022-03-07T09:11:38.534Z</time>
      </trkpt>
      <trkpt lat="42.25283" lon="24.51975">
        <ele>246.180089</ele>
        <time>2022-03-07T09:11:41.490Z</time>
      </trkpt>
      <trkpt lat="42.25283" lon="24.51958">
        <ele>245.728424</ele>
        <time>2022-03-07T09:11:44.489Z</time>
      </trkpt>
      <trkpt lat="42.25282" lon="24.51941">
        <ele>245.281596</ele>
        <time>2022-03-07T09:11:47.495Z</time>
      </trkpt>
      <trkpt lat="42.25281" lon="24.51924">
        <ele>244.82683</ele>
        <time>2022-03-07T09:11:50.496Z</time>
      </trkpt>
      <trkpt lat="42.2528" lon="24.51907">
        <ele>244.91322</ele>
        <time>2022-03-07T09:11:53.507Z</time>
      </trkpt>
      <trkpt lat="42.25279" lon="24.5189">
        <ele>245.188498</ele>
        <time>2022-03-07T09:11:56.496Z</time>
      </trkpt>
      <trkpt lat="42.25278" lon="24.51874">
        <ele>245.458722</ele>
        <time>2022-03-07T09:11:59.486Z</time>
      </trkpt>
      <trkpt lat="42.25278" lon="24.51857">
        <ele>245.730171</ele>
        <time>2022-03-07T09:12:02.492Z</time>
      </trkpt>
      <trkpt lat="42.25277" lon="24.51841">
        <ele>245.998358</ele>
        <time>2022-03-07T09:12:05.522Z</time>
      </trkpt>
      <trkpt lat="42.25276" lon="24.51825">
        <ele>246.261651</ele>
        <time>2022-03-07T09:12:08.487Z</time>
      </trkpt>
      <trkpt lat="42.25276" lon="24.51808">
        <ele>246.542889</ele>
        <time>2022-03-07T09:12:11.524Z</time>
      </trkpt>
      <trkpt lat="42.25275" lon="24.51791">
        <ele>246.823052</ele>
        <time>2022-03-07T09:12:14.487Z</time>
      </trkpt>
      <trkpt lat="42.25274" lon="24.51774">
        <ele>247.098517</ele>
        <time>2022-03-07T09:12:17.532Z</time>
      </trkpt>
      <trkpt lat="42.25273" lon="24.51758">
        <ele>247.357519</ele>
        <time>2022-03-07T09:12:20.502Z</time>
      </trkpt>
      <trkpt lat="42.25272" lon="24.51742">
        <ele>247.616342</ele>
        <time>2022-03-07T09:12:23.495Z</time>
      </trkpt>
      <trkpt lat="42.25271" lon="24.51726">
        <ele>247.881524</ele>
        <time>2022-03-07T09:12:26.477Z</time>
      </trkpt>
      <trkpt lat="42.2527" lon="24.5171">
        <ele>248.150689</ele>
        <time>2022-03-07T09:12:29.508Z</time>
      </trkpt>
      <trkpt lat="42.25269" lon="24.51693">
        <ele>248.423106</ele>
        <time>2022-03-07T09:12:32.510Z</time>
      </trkpt>
      <trkpt lat="42.25267" lon="24.51676">
        <ele>248.688912</ele>
        <time>2022-03-07T09:12:35.482Z</time>
      </trkpt>
      <trkpt lat="42.25267" lon="24.5166">
        <ele>248.844241</ele>
        <time>2022-03-07T09:12:38.499Z</time>
      </trkpt>
      <trkpt lat="42.25266" lon="24.51644">
        <ele>248.998391</ele>
        <time>2022-03-07T09:12:41.500Z</time>
      </trkpt>
      <trkpt lat="42.25265" lon="24.51627">
        <ele>249.153553</ele>
        <time>2022-03-07T09:12:44.495Z</time>
      </trkpt>
      <trkpt lat="42.25264" lon="24.51611">
        <ele>249.308793</ele>
        <time>2022-03-07T09:12:47.486Z</time>
      </trkpt>
      <trkpt lat="42.25263" lon="24.51594">
        <ele>249.463392</ele>
        <time>2022-03-07T09:12:50.547Z</time>
      </trkpt>
      <trkpt lat="42.25262" lon="24.51578">
        <ele>249.618931</ele>
        <time>2022-03-07T09:12:53.490Z</time>
      </trkpt>
      <trkpt lat="42.25261" lon="24.51562">
        <ele>249.773318</ele>
        <time>2022-03-07T09:12:56.481Z</time>
      </trkpt>
      <trkpt lat="42.2526" lon="24.51545">
        <ele>249.928038</ele>
        <time>2022-03-07T09:12:59.488Z</time>
      </trkpt>
      <trkpt lat="42.25259" lon="24.51529">
        <ele>250.086399</ele>
        <time>2022-03-07T09:13:02.493Z</time>
      </trkpt>
      <trkpt lat="42.25258" lon="24.51512">
        <ele>250.244467</ele>
        <time>2022-03-07T09:13:05.497Z</time>
      </trkpt>
      <trkpt lat="42.25257" lon="24.51495">
        <ele>250.402623</ele>
        <time>2022-03-07T09:13:08.482Z</time>
      </trkpt>
      <trkpt lat="42.25256" lon="24.51479">
        <ele>250.560876</ele>
        <time>2022-03-07T09:13:11.503Z</time>
      </trkpt>
      <trkpt lat="42.25255" lon="24.51461">
        <ele>250.724057</ele>
        <time>2022-03-07T09:13:14.479Z</time>
      </trkpt>
      <trkpt lat="42.25254" lon="24.51445">
        <ele>250.884544</ele>
        <time>2022-03-07T09:13:17.490Z</time>
      </trkpt>
      <trkpt lat="42.25254" lon="24.51428">
        <ele>250.991596</ele>
        <time>2022-03-07T09:13:20.487Z</time>
      </trkpt>
      <trkpt lat="42.25252" lon="24.51411">
        <ele>251.032552</ele>
        <time>2022-03-07T09:13:23.512Z</time>
      </trkpt>
      <trkpt lat="42.25252" lon="24.51394">
        <ele>251.073379</ele>
        <time>2022-03-07T09:13:26.479Z</time>
      </trkpt>
      <trkpt lat="42.25251" lon="24.51378">
        <ele>251.114717</ele>
        <time>2022-03-07T09:13:29.501Z</time>
      </trkpt>
      <trkpt lat="42.2525" lon="24.51361">
        <ele>251.155183</ele>
        <time>2022-03-07T09:13:32.515Z</time>
      </trkpt>
      <trkpt lat="42.25249" lon="24.51345">
        <ele>251.194806</ele>
        <time>2022-03-07T09:13:35.509Z</time>
      </trkpt>
      <trkpt lat="42.25248" lon="24.5133">
        <ele>251.231054</ele>
        <time>2022-03-07T09:13:38.499Z</time>
      </trkpt>
      <trkpt lat="42.25247" lon="24.51314">
        <ele>251.2707</ele>
        <time>2022-03-07T09:13:41.514Z</time>
      </trkpt>
      <trkpt lat="42.25246" lon="24.51296">
        <ele>251.314805</ele>
        <time>2022-03-07T09:13:44.501Z</time>
      </trkpt>
      <trkpt lat="42.25245" lon="24.51279">
        <ele>251.356632</ele>
        <time>2022-03-07T09:13:47.494Z</time>
      </trkpt>
      <trkpt lat="42.25244" lon="24.51263">
        <ele>251.398291</ele>
        <time>2022-03-07T09:13:50.514Z</time>
      </trkpt>
      <trkpt lat="42.25243" lon="24.51246">
        <ele>251.439873</ele>
        <time>2022-03-07T09:13:53.501Z</time>
      </trkpt>
      <trkpt lat="42.25242" lon="24.51228">
        <ele>251.482172</ele>
        <time>2022-03-07T09:13:56.478Z</time>
      </trkpt>
      <trkpt lat="42.25241" lon="24.51212">
        <ele>251.522394</ele>
        <time>2022-03-07T09:13:59.506Z</time>
      </trkpt>
      <trkpt lat="42.2524" lon="24.51196">
        <ele>251.562483</ele>
        <time>2022-03-07T09:14:02.499Z</time>
      </trkpt>
      <trkpt lat="42.25239" lon="24.51179">
        <ele>251.351876</ele>
        <time>2022-03-07T09:14:05.502Z</time>
      </trkpt>
      <trkpt lat="42.25238" lon="24.51162">
        <ele>251.085553</ele>
        <time>2022-03-07T09:14:08.499Z</time>
      </trkpt>
      <trkpt lat="42.25237" lon="24.51145">
        <ele>250.832048</ele>
        <time>2022-03-07T09:14:11.522Z</time>
      </trkpt>
      <trkpt lat="42.25236" lon="24.51129">
        <ele>250.589034</ele>
        <time>2022-03-07T09:14:14.477Z</time>
      </trkpt>
      <trkpt lat="42.25235" lon="24.51113">
        <ele>250.334532</ele>
        <time>2022-03-07T09:14:17.540Z</time>
      </trkpt>
      <trkpt lat="42.25234" lon="24.51096">
        <ele>250.074034</ele>
        <time>2022-03-07T09:14:20.517Z</time>
      </trkpt>
      <trkpt lat="42.25233" lon="24.51079">
        <ele>249.813972</ele>
        <time>2022-03-07T09:14:23.481Z</time>
      </trkpt>
      <trkpt lat="42.25232" lon="24.51062">
        <ele>249.553002</ele>
        <time>2022-03-07T09:14:26.500Z</time>
      </trkpt>
      <trkpt lat="42.25231" lon="24.51045">
        <ele>249.289663</ele>
        <time>2022-03-07T09:14:29.486Z</time>
      </trkpt>
      <trkpt lat="42.2523" lon="24.51029">
        <ele>249.034006</ele>
        <time>2022-03-07T09:14:32.492Z</time>
      </trkpt>
      <trkpt lat="42.2523" lon="24.51012">
        <ele>248.77797</ele>
        <time>2022-03-07T09:14:35.486Z</time>
      </trkpt>
      <trkpt lat="42.25229" lon="24.50996">
        <ele>248.529751</ele>
        <time>2022-03-07T09:14:38.499Z</time>
      </trkpt>
      <trkpt lat="42.25228" lon="24.50979">
        <ele>248.267421</ele>
        <time>2022-03-07T09:14:41.497Z</time>
      </trkpt>
      <trkpt lat="42.25227" lon="24.50963">
        <ele>248.020423</ele>
        <time>2022-03-07T09:14:44.487Z</time>
      </trkpt>
      <trkpt lat="42.25226" lon="24.50947">
        <ele>247.838483</ele>
        <time>2022-03-07T09:14:47.501Z</time>
      </trkpt>
      <trkpt lat="42.25225" lon="24.5093">
        <ele>247.867271</ele>
        <time>2022-03-07T09:14:50.524Z</time>
      </trkpt>
      <trkpt lat="42.25224" lon="24.50912">
        <ele>247.896346</ele>
        <time>2022-03-07T09:14:53.495Z</time>
      </trkpt>
      <trkpt lat="42.25223" lon="24.50895">
        <ele>247.92536</ele>
        <time>2022-03-07T09:14:56.494Z</time>
      </trkpt>
      <trkpt lat="42.25222" lon="24.50877">
        <ele>247.95454</ele>
        <time>2022-03-07T09:14:59.492Z</time>
      </trkpt>
      <trkpt lat="42.2522" lon="24.50861">
        <ele>247.982535</ele>
        <time>2022-03-07T09:15:02.504Z</time>
      </trkpt>
      <trkpt lat="42.2522" lon="24.50844">
        <ele>248.010444</ele>
        <time>2022-03-07T09:15:05.490Z</time>
      </trkpt>
      <trkpt lat="42.25219" lon="24.50827">
        <ele>248.038716</ele>
        <time>2022-03-07T09:15:08.507Z</time>
      </trkpt>
      <trkpt lat="42.25218" lon="24.5081">
        <ele>248.067004</ele>
        <time>2022-03-07T09:15:11.498Z</time>
      </trkpt>
      <trkpt lat="42.25217" lon="24.50793">
        <ele>248.096308</ele>
        <time>2022-03-07T09:15:14.486Z</time>
      </trkpt>
      <trkpt lat="42.25215" lon="24.50775">
        <ele>248.125322</ele>
        <time>2022-03-07T09:15:17.544Z</time>
      </trkpt>
      <trkpt lat="42.25215" lon="24.50758">
        <ele>248.154093</ele>
        <time>2022-03-07T09:15:20.491Z</time>
      </trkpt>
      <trkpt lat="42.25214" lon="24.50741">
        <ele>248.18288</ele>
        <time>2022-03-07T09:15:23.486Z</time>
      </trkpt>
      <trkpt lat="42.25212" lon="24.50724">
        <ele>248.211728</ele>
        <time>2022-03-07T09:15:26.492Z</time>
      </trkpt>
      <trkpt lat="42.25211" lon="24.50708">
        <ele>248.251751</ele>
        <time>2022-03-07T09:15:29.485Z</time>
      </trkpt>
      <trkpt lat="42.2521" lon="24.50691">
        <ele>248.473749</ele>
        <time>2022-03-07T09:15:32.489Z</time>
      </trkpt>
      <trkpt lat="42.25209" lon="24.50675">
        <ele>248.697748</ele>
        <time>2022-03-07T09:15:35.498Z</time>
      </trkpt>
      <trkpt lat="42.25208" lon="24.50658">
        <ele>248.922202</ele>
        <time>2022-03-07T09:15:38.490Z</time>
      </trkpt>
      <trkpt lat="42.25207" lon="24.50642">
        <ele>249.136272</ele>
        <time>2022-03-07T09:15:41.481Z</time>
      </trkpt>
      <trkpt lat="42.25206" lon="24.50626">
        <ele>249.351086</ele>
        <time>2022-03-07T09:15:44.513Z</time>
      </trkpt>
      <trkpt lat="42.25205" lon="24.50613">
        <ele>249.536755</ele>
        <time>2022-03-07T09:15:47.492Z</time>
      </trkpt>
      <trkpt lat="42.25204" lon="24.50597">
        <ele>249.75159</ele>
        <time>2022-03-07T09:15:51.492Z</time>
      </trkpt>
      <trkpt lat="42.25204" lon="24.50581">
        <ele>249.971638</ele>
        <time>2022-03-07T09:15:55.521Z</time>
      </trkpt>
      <trkpt lat="42.25204" lon="24.50565">
        <ele>250.180888</ele>
        <time>2022-03-07T09:15:58.494Z</time>
      </trkpt>
      <trkpt lat="42.25203" lon="24.50552">
        <ele>250.357166</ele>
        <time>2022-03-07T09:16:00.508Z</time>
      </trkpt>
      <trkpt lat="42.25201" lon="24.50534">
        <ele>250.597106</ele>
        <time>2022-03-07T09:16:03.476Z</time>
      </trkpt>
      <trkpt lat="42.25201" lon="24.50521">
        <ele>250.773205</ele>
        <time>2022-03-07T09:16:05.555Z</time>
      </trkpt>
      <trkpt lat="42.252" lon="24.50508">
        <ele>250.960388</ele>
        <time>2022-03-07T09:16:07.486Z</time>
      </trkpt>
      <trkpt lat="42.25199" lon="24.50494">
        <ele>251.139177</ele>
        <time>2022-03-07T09:16:09.495Z</time>
      </trkpt>
      <trkpt lat="42.25198" lon="24.50479">
        <ele>251.347716</ele>
        <time>2022-03-07T09:16:12.497Z</time>
      </trkpt>
      <trkpt lat="42.25198" lon="24.50464">
        <ele>251.53452</ele>
        <time>2022-03-07T09:16:15.500Z</time>
      </trkpt>
      <trkpt lat="42.25197" lon="24.50445">
        <ele>251.644144</ele>
        <time>2022-03-07T09:16:18.491Z</time>
      </trkpt>
      <trkpt lat="42.25196" lon="24.50433">
        <ele>251.718565</ele>
        <time>2022-03-07T09:16:20.486Z</time>
      </trkpt>
      <trkpt lat="42.25194" lon="24.50416">
        <ele>251.821143</ele>
        <time>2022-03-07T09:16:23.491Z</time>
      </trkpt>
      <trkpt lat="42.25194" lon="24.50401">
        <ele>251.913337</ele>
        <time>2022-03-07T09:16:26.473Z</time>
      </trkpt>
      <trkpt lat="42.25192" lon="24.50383">
        <ele>252.020629</ele>
        <time>2022-03-07T09:16:29.474Z</time>
      </trkpt>
      <trkpt lat="42.25191" lon="24.50367">
        <ele>252.116481</ele>
        <time>2022-03-07T09:16:32.505Z</time>
      </trkpt>
      <trkpt lat="42.2519" lon="24.5035">
        <ele>252.22138</ele>
        <time>2022-03-07T09:16:35.495Z</time>
      </trkpt>
      <trkpt lat="42.2519" lon="24.50333">
        <ele>252.320012</ele>
        <time>2022-03-07T09:16:38.496Z</time>
      </trkpt>
      <trkpt lat="42.25189" lon="24.50317">
        <ele>252.420354</ele>
        <time>2022-03-07T09:16:41.508Z</time>
      </trkpt>
      <trkpt lat="42.25189" lon="24.503">
        <ele>252.521386</ele>
        <time>2022-03-07T09:16:44.523Z</time>
      </trkpt>
      <trkpt lat="42.25188" lon="24.50283">
        <ele>252.621151</ele>
        <time>2022-03-07T09:16:47.495Z</time>
      </trkpt>
      <trkpt lat="42.25187" lon="24.50266">
        <ele>252.724494</ele>
        <time>2022-03-07T09:16:50.494Z</time>
      </trkpt>
      <trkpt lat="42.25186" lon="24.50254">
        <ele>252.798737</ele>
        <time>2022-03-07T09:16:52.497Z</time>
      </trkpt>
      <trkpt lat="42.25185" lon="24.50241">
        <ele>252.875454</ele>
        <time>2022-03-07T09:16:54.534Z</time>
      </trkpt>
      <trkpt lat="42.25184" lon="24.50229">
        <ele>252.949555</ele>
        <time>2022-03-07T09:16:56.490Z</time>
      </trkpt>
      <trkpt lat="42.25184" lon="24.50217">
        <ele>252.805847</ele>
        <time>2022-03-07T09:16:58.491Z</time>
      </trkpt>
      <trkpt lat="42.25183" lon="24.50204">
        <ele>252.519303</ele>
        <time>2022-03-07T09:17:00.515Z</time>
      </trkpt>
      <trkpt lat="42.25182" lon="24.50192">
        <ele>252.231331</ele>
        <time>2022-03-07T09:17:02.510Z</time>
      </trkpt>
      <trkpt lat="42.25181" lon="24.50179">
        <ele>251.952449</ele>
        <time>2022-03-07T09:17:04.496Z</time>
      </trkpt>
      <trkpt lat="42.25181" lon="24.50167">
        <ele>251.675839</ele>
        <time>2022-03-07T09:17:06.525Z</time>
      </trkpt>
      <trkpt lat="42.2518" lon="24.5015">
        <ele>251.268484</ele>
        <time>2022-03-07T09:17:09.488Z</time>
      </trkpt>
      <trkpt lat="42.25178" lon="24.50132">
        <ele>250.858569</ele>
        <time>2022-03-07T09:17:12.495Z</time>
      </trkpt>
      <trkpt lat="42.25177" lon="24.50114">
        <ele>250.457065</ele>
        <time>2022-03-07T09:17:15.499Z</time>
      </trkpt>
      <trkpt lat="42.25176" lon="24.50097">
        <ele>250.061056</ele>
        <time>2022-03-07T09:17:18.491Z</time>
      </trkpt>
      <trkpt lat="42.25174" lon="24.50081">
        <ele>249.690001</ele>
        <time>2022-03-07T09:17:21.498Z</time>
      </trkpt>
      <trkpt lat="42.25173" lon="24.50065">
        <ele>249.320892</ele>
        <time>2022-03-07T09:17:24.510Z</time>
      </trkpt>
      <trkpt lat="42.25172" lon="24.50048">
        <ele>248.946666</ele>
        <time>2022-03-07T09:17:27.507Z</time>
      </trkpt>
      <trkpt lat="42.25171" lon="24.50031">
        <ele>248.557744</ele>
        <time>2022-03-07T09:17:30.494Z</time>
      </trkpt>
      <trkpt lat="42.2517" lon="24.50013">
        <ele>248.1509</ele>
        <time>2022-03-07T09:17:33.491Z</time>
      </trkpt>
      <trkpt lat="42.25169" lon="24.49996">
        <ele>247.761978</ele>
        <time>2022-03-07T09:17:36.503Z</time>
      </trkpt>
      <trkpt lat="42.25168" lon="24.49979">
        <ele>247.457284</ele>
        <time>2022-03-07T09:17:39.532Z</time>
      </trkpt>
      <trkpt lat="42.25167" lon="24.49961">
        <ele>247.564915</ele>
        <time>2022-03-07T09:17:42.520Z</time>
      </trkpt>
      <trkpt lat="42.25167" lon="24.49944">
        <ele>247.671896</ele>
        <time>2022-03-07T09:17:45.493Z</time>
      </trkpt>
      <trkpt lat="42.25166" lon="24.49926">
        <ele>247.776515</ele>
        <time>2022-03-07T09:17:48.498Z</time>
      </trkpt>
      <trkpt lat="42.25165" lon="24.4991">
        <ele>247.877707</ele>
        <time>2022-03-07T09:17:51.500Z</time>
      </trkpt>
      <trkpt lat="42.25164" lon="24.49893">
        <ele>247.976252</ele>
        <time>2022-03-07T09:17:54.506Z</time>
      </trkpt>
      <trkpt lat="42.25163" lon="24.49877">
        <ele>248.07837</ele>
        <time>2022-03-07T09:17:57.481Z</time>
      </trkpt>
      <trkpt lat="42.25162" lon="24.4986">
        <ele>248.179903</ele>
        <time>2022-03-07T09:18:00.503Z</time>
      </trkpt>
      <trkpt lat="42.25161" lon="24.49842">
        <ele>248.285237</ele>
        <time>2022-03-07T09:18:03.496Z</time>
      </trkpt>
      <trkpt lat="42.2516" lon="24.49826">
        <ele>248.386192</ele>
        <time>2022-03-07T09:18:06.534Z</time>
      </trkpt>
      <trkpt lat="42.2516" lon="24.49809">
        <ele>248.486502</ele>
        <time>2022-03-07T09:18:09.495Z</time>
      </trkpt>
      <trkpt lat="42.25158" lon="24.49792">
        <ele>248.589572</ele>
        <time>2022-03-07T09:18:12.495Z</time>
      </trkpt>
      <trkpt lat="42.25157" lon="24.49775">
        <ele>248.694907</ele>
        <time>2022-03-07T09:18:15.486Z</time>
      </trkpt>
      <trkpt lat="42.25157" lon="24.49758">
        <ele>248.796464</ele>
        <time>2022-03-07T09:18:18.499Z</time>
      </trkpt>
      <trkpt lat="42.25156" lon="24.49741">
        <ele>248.897469</ele>
        <time>2022-03-07T09:18:21.498Z</time>
      </trkpt>
      <trkpt lat="42.25155" lon="24.49723">
        <ele>249.070065</ele>
        <time>2022-03-07T09:18:24.496Z</time>
      </trkpt>
      <trkpt lat="42.25154" lon="24.49706">
        <ele>249.239789</ele>
        <time>2022-03-07T09:18:27.505Z</time>
      </trkpt>
      <trkpt lat="42.25154" lon="24.49689">
        <ele>249.408535</ele>
        <time>2022-03-07T09:18:30.501Z</time>
      </trkpt>
      <trkpt lat="42.25153" lon="24.49671">
        <ele>249.582403</ele>
        <time>2022-03-07T09:18:33.500Z</time>
      </trkpt>
      <trkpt lat="42.25152" lon="24.49653">
        <ele>249.755495</ele>
        <time>2022-03-07T09:18:36.499Z</time>
      </trkpt>
      <trkpt lat="42.25151" lon="24.49637">
        <ele>249.920267</ele>
        <time>2022-03-07T09:18:39.535Z</time>
      </trkpt>
      <trkpt lat="42.2515" lon="24.49619">
        <ele>250.088868</ele>
        <time>2022-03-07T09:18:42.495Z</time>
      </trkpt>
      <trkpt lat="42.25149" lon="24.49602">
        <ele>250.261855</ele>
        <time>2022-03-07T09:18:45.517Z</time>
      </trkpt>
      <trkpt lat="42.25148" lon="24.49585">
        <ele>250.43129</ele>
        <time>2022-03-07T09:18:48.504Z</time>
      </trkpt>
      <trkpt lat="42.25146" lon="24.49568">
        <ele>250.595852</ele>
        <time>2022-03-07T09:18:51.495Z</time>
      </trkpt>
      <trkpt lat="42.25145" lon="24.49551">
        <ele>250.761999</ele>
        <time>2022-03-07T09:18:54.487Z</time>
      </trkpt>
      <trkpt lat="42.25145" lon="24.49534">
        <ele>250.928856</ele>
        <time>2022-03-07T09:18:57.494Z</time>
      </trkpt>
      <trkpt lat="42.25143" lon="24.49518">
        <ele>251.09064</ele>
        <time>2022-03-07T09:19:00.486Z</time>
      </trkpt>
      <trkpt lat="42.25142" lon="24.49501">
        <ele>251.253755</ele>
        <time>2022-03-07T09:19:03.499Z</time>
      </trkpt>
      <trkpt lat="42.25142" lon="24.49484">
        <ele>251.372805</ele>
        <time>2022-03-07T09:19:06.495Z</time>
      </trkpt>
      <trkpt lat="42.25141" lon="24.49467">
        <ele>251.484333</ele>
        <time>2022-03-07T09:19:09.492Z</time>
      </trkpt>
      <trkpt lat="42.2514" lon="24.4945">
        <ele>251.595295</ele>
        <time>2022-03-07T09:19:12.501Z</time>
      </trkpt>
      <trkpt lat="42.25138" lon="24.49432">
        <ele>251.707145</ele>
        <time>2022-03-07T09:19:15.489Z</time>
      </trkpt>
      <trkpt lat="42.25137" lon="24.49415">
        <ele>251.817521</ele>
        <time>2022-03-07T09:19:18.492Z</time>
      </trkpt>
      <trkpt lat="42.25135" lon="24.49398">
        <ele>251.927563</ele>
        <time>2022-03-07T09:19:21.497Z</time>
      </trkpt>
      <trkpt lat="42.25134" lon="24.4938">
        <ele>252.039666</ele>
        <time>2022-03-07T09:19:24.532Z</time>
      </trkpt>
      <trkpt lat="42.25133" lon="24.49363">
        <ele>252.151024</ele>
        <time>2022-03-07T09:19:27.489Z</time>
      </trkpt>
      <trkpt lat="42.25133" lon="24.49346">
        <ele>252.261106</ele>
        <time>2022-03-07T09:19:30.496Z</time>
      </trkpt>
      <trkpt lat="42.25132" lon="24.49329">
        <ele>252.369867</ele>
        <time>2022-03-07T09:19:33.492Z</time>
      </trkpt>
      <trkpt lat="42.25131" lon="24.49313">
        <ele>252.472192</ele>
        <time>2022-03-07T09:19:36.493Z</time>
      </trkpt>
      <trkpt lat="42.2513" lon="24.49297">
        <ele>252.573607</ele>
        <time>2022-03-07T09:19:39.508Z</time>
      </trkpt>
      <trkpt lat="42.25129" lon="24.49281">
        <ele>252.678639</ele>
        <time>2022-03-07T09:19:42.497Z</time>
      </trkpt>
      <trkpt lat="42.25128" lon="24.49264">
        <ele>252.78373</ele>
        <time>2022-03-07T09:19:45.497Z</time>
      </trkpt>
      <trkpt lat="42.25128" lon="24.49248">
        <ele>252.98336</ele>
        <time>2022-03-07T09:19:48.489Z</time>
      </trkpt>
      <trkpt lat="42.25127" lon="24.49232">
        <ele>253.322592</ele>
        <time>2022-03-07T09:19:51.543Z</time>
      </trkpt>
      <trkpt lat="42.25126" lon="24.49215">
        <ele>253.653366</ele>
        <time>2022-03-07T09:19:54.493Z</time>
      </trkpt>
      <trkpt lat="42.25124" lon="24.492">
        <ele>253.956402</ele>
        <time>2022-03-07T09:19:57.514Z</time>
      </trkpt>
      <trkpt lat="42.25124" lon="24.49184">
        <ele>254.281797</ele>
        <time>2022-03-07T09:20:00.495Z</time>
      </trkpt>
      <trkpt lat="42.25123" lon="24.49167">
        <ele>254.633918</ele>
        <time>2022-03-07T09:20:03.492Z</time>
      </trkpt>
      <trkpt lat="42.25122" lon="24.4915">
        <ele>254.982485</ele>
        <time>2022-03-07T09:20:06.480Z</time>
      </trkpt>
      <trkpt lat="42.25121" lon="24.49133">
        <ele>255.314494</ele>
        <time>2022-03-07T09:20:09.501Z</time>
      </trkpt>
      <trkpt lat="42.2512" lon="24.49116">
        <ele>255.659549</ele>
        <time>2022-03-07T09:20:12.498Z</time>
      </trkpt>
      <trkpt lat="42.2512" lon="24.49099">
        <ele>256.001059</ele>
        <time>2022-03-07T09:20:15.509Z</time>
      </trkpt>
      <trkpt lat="42.25119" lon="24.49083">
        <ele>256.340904</ele>
        <time>2022-03-07T09:20:18.490Z</time>
      </trkpt>
      <trkpt lat="42.25118" lon="24.49065">
        <ele>256.689472</ele>
        <time>2022-03-07T09:20:21.493Z</time>
      </trkpt>
      <trkpt lat="42.25117" lon="24.49048">
        <ele>257.043227</ele>
        <time>2022-03-07T09:20:24.530Z</time>
      </trkpt>
      <trkpt lat="42.25116" lon="24.4903">
        <ele>257.401383</ele>
        <time>2022-03-07T09:20:27.505Z</time>
      </trkpt>
      <trkpt lat="42.25115" lon="24.49013">
        <ele>257.737426</ele>
        <time>2022-03-07T09:20:30.514Z</time>
      </trkpt>
      <trkpt lat="42.25114" lon="24.49">
        <ele>257.631973</ele>
        <time>2022-03-07T09:20:32.515Z</time>
      </trkpt>
      <trkpt lat="42.25113" lon="24.48983">
        <ele>257.477972</ele>
        <time>2022-03-07T09:20:35.510Z</time>
      </trkpt>
      <trkpt lat="42.25112" lon="24.48965">
        <ele>257.323971</ele>
        <time>2022-03-07T09:20:38.502Z</time>
      </trkpt>
      <trkpt lat="42.25111" lon="24.48953">
        <ele>257.218154</ele>
        <time>2022-03-07T09:20:40.501Z</time>
      </trkpt>
      <trkpt lat="42.2511" lon="24.48941">
        <ele>257.113449</ele>
        <time>2022-03-07T09:20:42.489Z</time>
      </trkpt>
      <trkpt lat="42.25109" lon="24.48928">
        <ele>257.007631</ele>
        <time>2022-03-07T09:20:44.494Z</time>
      </trkpt>
      <trkpt lat="42.25108" lon="24.48916">
        <ele>256.902927</ele>
        <time>2022-03-07T09:20:46.479Z</time>
      </trkpt>
      <trkpt lat="42.25107" lon="24.48899">
        <ele>256.750946</ele>
        <time>2022-03-07T09:20:49.491Z</time>
      </trkpt>
      <trkpt lat="42.25106" lon="24.48881">
        <ele>256.602199</ele>
        <time>2022-03-07T09:20:52.487Z</time>
      </trkpt>
      <trkpt lat="42.25105" lon="24.48865">
        <ele>256.456574</ele>
        <time>2022-03-07T09:20:55.476Z</time>
      </trkpt>
      <trkpt lat="42.25105" lon="24.48847">
        <ele>256.302347</ele>
        <time>2022-03-07T09:20:58.514Z</time>
      </trkpt>
      <trkpt lat="42.25104" lon="24.48834">
        <ele>256.191747</ele>
        <time>2022-03-07T09:21:00.491Z</time>
      </trkpt>
      <trkpt lat="42.25103" lon="24.48822">
        <ele>256.085685</ele>
        <time>2022-03-07T09:21:02.493Z</time>
      </trkpt>
      <trkpt lat="42.25102" lon="24.48804">
        <ele>255.931212</ele>
        <time>2022-03-07T09:21:05.505Z</time>
      </trkpt>
      <trkpt lat="42.25102" lon="24.48787">
        <ele>255.783757</ele>
        <time>2022-03-07T09:21:08.488Z</time>
      </trkpt>
      <trkpt lat="42.25103" lon="24.4877">
        <ele>255.646371</ele>
        <time>2022-03-07T09:21:11.497Z</time>
      </trkpt>
      <trkpt lat="42.25104" lon="24.48752">
        <ele>255.572009</ele>
        <time>2022-03-07T09:21:14.494Z</time>
      </trkpt>
      <trkpt lat="42.25104" lon="24.48739">
        <ele>255.51771</ele>
        <time>2022-03-07T09:21:16.502Z</time>
      </trkpt>
      <trkpt lat="42.25104" lon="24.48727">
        <ele>255.467481</ele>
        <time>2022-03-07T09:21:18.479Z</time>
      </trkpt>
      <trkpt lat="42.25105" lon="24.48715">
        <ele>255.416037</ele>
        <time>2022-03-07T09:21:20.525Z</time>
      </trkpt>
      <trkpt lat="42.25105" lon="24.48697">
        <ele>255.342598</ele>
        <time>2022-03-07T09:21:23.490Z</time>
      </trkpt>
      <trkpt lat="42.25106" lon="24.4868">
        <ele>255.271703</ele>
        <time>2022-03-07T09:21:26.520Z</time>
      </trkpt>
      <trkpt lat="42.25106" lon="24.48663">
        <ele>255.201637</ele>
        <time>2022-03-07T09:21:29.497Z</time>
      </trkpt>
      <trkpt lat="42.25106" lon="24.48645">
        <ele>255.128655</ele>
        <time>2022-03-07T09:21:32.546Z</time>
      </trkpt>
      <trkpt lat="42.25106" lon="24.48628">
        <ele>255.055293</ele>
        <time>2022-03-07T09:21:35.502Z</time>
      </trkpt>
      <trkpt lat="42.25106" lon="24.48615">
        <ele>255.004727</ele>
        <time>2022-03-07T09:21:37.487Z</time>
      </trkpt>
      <trkpt lat="42.25106" lon="24.48603">
        <ele>254.954576</ele>
        <time>2022-03-07T09:21:39.482Z</time>
      </trkpt>
      <trkpt lat="42.25106" lon="24.48586">
        <ele>254.880798</ele>
        <time>2022-03-07T09:21:42.487Z</time>
      </trkpt>
      <trkpt lat="42.25106" lon="24.48568">
        <ele>254.807019</ele>
        <time>2022-03-07T09:21:45.499Z</time>
      </trkpt>
      <trkpt lat="42.25107" lon="24.48556">
        <ele>254.756342</ele>
        <time>2022-03-07T09:21:47.477Z</time>
      </trkpt>
      <trkpt lat="42.25108" lon="24.48538">
        <ele>254.682903</ele>
        <time>2022-03-07T09:21:50.489Z</time>
      </trkpt>
      <trkpt lat="42.25108" lon="24.48521">
        <ele>254.655911</ele>
        <time>2022-03-07T09:21:53.505Z</time>
      </trkpt>
      <trkpt lat="42.25109" lon="24.48503">
        <ele>254.684066</ele>
        <time>2022-03-07T09:21:56.509Z</time>
      </trkpt>
      <trkpt lat="42.25109" lon="24.48486">
        <ele>254.712533</ele>
        <time>2022-03-07T09:21:59.494Z</time>
      </trkpt>
      <trkpt lat="42.2511" lon="24.48468">
        <ele>254.741191</ele>
        <time>2022-03-07T09:22:02.505Z</time>
      </trkpt>
      <trkpt lat="42.2511" lon="24.4845">
        <ele>254.769826</ele>
        <time>2022-03-07T09:22:05.522Z</time>
      </trkpt>
      <trkpt lat="42.2511" lon="24.48432">
        <ele>254.798453</ele>
        <time>2022-03-07T09:22:08.494Z</time>
      </trkpt>
      <trkpt lat="42.25111" lon="24.48415">
        <ele>254.82696</ele>
        <time>2022-03-07T09:22:11.523Z</time>
      </trkpt>
      <trkpt lat="42.25111" lon="24.48398">
        <ele>254.854164</ele>
        <time>2022-03-07T09:22:14.498Z</time>
      </trkpt>
      <trkpt lat="42.25112" lon="24.48382">
        <ele>254.880711</ele>
        <time>2022-03-07T09:22:17.481Z</time>
      </trkpt>
      <trkpt lat="42.25112" lon="24.48364">
        <ele>254.909501</ele>
        <time>2022-03-07T09:22:20.549Z</time>
      </trkpt>
      <trkpt lat="42.25112" lon="24.48351">
        <ele>254.929729</ele>
        <time>2022-03-07T09:22:22.493Z</time>
      </trkpt>
      <trkpt lat="42.25112" lon="24.48333">
        <ele>254.959007</ele>
        <time>2022-03-07T09:22:25.520Z</time>
      </trkpt>
      <trkpt lat="42.25112" lon="24.48315">
        <ele>254.987797</ele>
        <time>2022-03-07T09:22:28.486Z</time>
      </trkpt>
      <trkpt lat="42.25113" lon="24.48298">
        <ele>255.016454</ele>
        <time>2022-03-07T09:22:31.503Z</time>
      </trkpt>
      <trkpt lat="42.25113" lon="24.4828">
        <ele>255.050338</ele>
        <time>2022-03-07T09:22:34.499Z</time>
      </trkpt>
      <trkpt lat="42.25114" lon="24.48263">
        <ele>255.097142</ele>
        <time>2022-03-07T09:22:37.481Z</time>
      </trkpt>
      <trkpt lat="42.25114" lon="24.48246">
        <ele>255.143386</ele>
        <time>2022-03-07T09:22:40.526Z</time>
      </trkpt>
      <trkpt lat="42.25115" lon="24.48229">
        <ele>255.189701</ele>
        <time>2022-03-07T09:22:43.498Z</time>
      </trkpt>
      <trkpt lat="42.25116" lon="24.48213">
        <ele>255.236099</ele>
        <time>2022-03-07T09:22:46.489Z</time>
      </trkpt>
      <trkpt lat="42.25117" lon="24.48195">
        <ele>255.283506</ele>
        <time>2022-03-07T09:22:49.494Z</time>
      </trkpt>
      <trkpt lat="42.25117" lon="24.48178">
        <ele>255.331107</ele>
        <time>2022-03-07T09:22:52.496Z</time>
      </trkpt>
      <trkpt lat="42.25117" lon="24.4816">
        <ele>255.380337</ele>
        <time>2022-03-07T09:22:55.480Z</time>
      </trkpt>
      <trkpt lat="42.25117" lon="24.48143">
        <ele>255.427128</ele>
        <time>2022-03-07T09:22:58.500Z</time>
      </trkpt>
      <trkpt lat="42.25118" lon="24.48126">
        <ele>255.472534</ele>
        <time>2022-03-07T09:23:01.497Z</time>
      </trkpt>
      <trkpt lat="42.25118" lon="24.48109">
        <ele>255.519871</ele>
        <time>2022-03-07T09:23:04.490Z</time>
      </trkpt>
      <trkpt lat="42.25118" lon="24.48092">
        <ele>255.565277</ele>
        <time>2022-03-07T09:23:07.499Z</time>
      </trkpt>
      <trkpt lat="42.25118" lon="24.48076">
        <ele>255.610143</ele>
        <time>2022-03-07T09:23:10.532Z</time>
      </trkpt>
      <trkpt lat="42.25119" lon="24.4806">
        <ele>255.654488</ele>
        <time>2022-03-07T09:23:13.509Z</time>
      </trkpt>
      <trkpt lat="42.25119" lon="24.48043">
        <ele>255.70071</ele>
        <time>2022-03-07T09:23:16.499Z</time>
      </trkpt>
      <trkpt lat="42.25119" lon="24.48026">
        <ele>255.783126</ele>
        <time>2022-03-07T09:23:19.498Z</time>
      </trkpt>
      <trkpt lat="42.2512" lon="24.48009">
        <ele>255.865664</ele>
        <time>2022-03-07T09:23:22.479Z</time>
      </trkpt>
      <trkpt lat="42.2512" lon="24.47991">
        <ele>255.95016</ele>
        <time>2022-03-07T09:23:25.498Z</time>
      </trkpt>
      <trkpt lat="42.25121" lon="24.47975">
        <ele>256.031833</ele>
        <time>2022-03-07T09:23:28.495Z</time>
      </trkpt>
      <trkpt lat="42.25121" lon="24.47958">
        <ele>256.114441</ele>
        <time>2022-03-07T09:23:31.499Z</time>
      </trkpt>
      <trkpt lat="42.25122" lon="24.47941">
        <ele>256.196997</ele>
        <time>2022-03-07T09:23:34.494Z</time>
      </trkpt>
      <trkpt lat="42.25122" lon="24.47924">
        <ele>256.276696</ele>
        <time>2022-03-07T09:23:37.499Z</time>
      </trkpt>
      <trkpt lat="42.25123" lon="24.47908">
        <ele>256.35688</ele>
        <time>2022-03-07T09:23:40.502Z</time>
      </trkpt>
      <trkpt lat="42.25124" lon="24.47891">
        <ele>256.439561</ele>
        <time>2022-03-07T09:23:43.497Z</time>
      </trkpt>
      <trkpt lat="42.25124" lon="24.47873">
        <ele>256.524997</ele>
        <time>2022-03-07T09:23:46.490Z</time>
      </trkpt>
      <trkpt lat="42.25125" lon="24.47855">
        <ele>256.610487</ele>
        <time>2022-03-07T09:23:49.501Z</time>
      </trkpt>
      <trkpt lat="42.25125" lon="24.47843">
        <ele>256.669794</ele>
        <time>2022-03-07T09:23:51.489Z</time>
      </trkpt>
      <trkpt lat="42.25125" lon="24.47831">
        <ele>256.729068</ele>
        <time>2022-03-07T09:23:53.494Z</time>
      </trkpt>
      <trkpt lat="42.25126" lon="24.47813">
        <ele>256.81599</ele>
        <time>2022-03-07T09:23:56.507Z</time>
      </trkpt>
      <trkpt lat="42.25126" lon="24.47795">
        <ele>256.896701</ele>
        <time>2022-03-07T09:23:59.491Z</time>
      </trkpt>
      <trkpt lat="42.25127" lon="24.47777">
        <ele>256.961305</ele>
        <time>2022-03-07T09:24:02.492Z</time>
      </trkpt>
      <trkpt lat="42.25127" lon="24.4776">
        <ele>257.024145</ele>
        <time>2022-03-07T09:24:05.502Z</time>
      </trkpt>
      <trkpt lat="42.25128" lon="24.47742">
        <ele>257.086955</ele>
        <time>2022-03-07T09:24:08.508Z</time>
      </trkpt>
      <trkpt lat="42.25127" lon="24.47725">
        <ele>257.150473</ele>
        <time>2022-03-07T09:24:11.499Z</time>
      </trkpt>
      <trkpt lat="42.25128" lon="24.47707">
        <ele>257.213274</ele>
        <time>2022-03-07T09:24:14.507Z</time>
      </trkpt>
      <trkpt lat="42.25128" lon="24.4769">
        <ele>257.27468</ele>
        <time>2022-03-07T09:24:17.494Z</time>
      </trkpt>
      <trkpt lat="42.25128" lon="24.47673">
        <ele>257.336758</ele>
        <time>2022-03-07T09:24:20.501Z</time>
      </trkpt>
      <trkpt lat="42.25129" lon="24.47656">
        <ele>257.398146</ele>
        <time>2022-03-07T09:24:23.497Z</time>
      </trkpt>
      <trkpt lat="42.2513" lon="24.47638">
        <ele>257.460451</ele>
        <time>2022-03-07T09:24:26.530Z</time>
      </trkpt>
      <trkpt lat="42.2513" lon="24.47621">
        <ele>257.523633</ele>
        <time>2022-03-07T09:24:29.500Z</time>
      </trkpt>
      <trkpt lat="42.25131" lon="24.47605">
        <ele>257.581453</ele>
        <time>2022-03-07T09:24:32.491Z</time>
      </trkpt>
      <trkpt lat="42.25131" lon="24.47588">
        <ele>257.6396</ele>
        <time>2022-03-07T09:24:35.491Z</time>
      </trkpt>
      <trkpt lat="42.25131" lon="24.47571">
        <ele>257.700989</ele>
        <time>2022-03-07T09:24:38.490Z</time>
      </trkpt>
      <trkpt lat="42.25132" lon="24.47555">
        <ele>257.768658</ele>
        <time>2022-03-07T09:24:41.494Z</time>
      </trkpt>
      <trkpt lat="42.25132" lon="24.47539">
        <ele>257.912904</ele>
        <time>2022-03-07T09:24:44.487Z</time>
      </trkpt>
      <trkpt lat="42.25133" lon="24.47523">
        <ele>258.060647</ele>
        <time>2022-03-07T09:24:47.515Z</time>
      </trkpt>
      <trkpt lat="42.25133" lon="24.47506">
        <ele>258.213732</ele>
        <time>2022-03-07T09:24:50.480Z</time>
      </trkpt>
      <trkpt lat="42.25133" lon="24.47489">
        <ele>258.36324</ele>
        <time>2022-03-07T09:24:53.497Z</time>
      </trkpt>
      <trkpt lat="42.25133" lon="24.47473">
        <ele>258.510923</ele>
        <time>2022-03-07T09:24:56.508Z</time>
      </trkpt>
      <trkpt lat="42.25133" lon="24.47456">
        <ele>258.660511</ele>
        <time>2022-03-07T09:24:59.553Z</time>
      </trkpt>
      <trkpt lat="42.25134" lon="24.47439">
        <ele>258.811898</ele>
        <time>2022-03-07T09:25:02.490Z</time>
      </trkpt>
      <trkpt lat="42.25134" lon="24.47422">
        <ele>258.967683</ele>
        <time>2022-03-07T09:25:05.499Z</time>
      </trkpt>
      <trkpt lat="42.25134" lon="24.47404">
        <ele>259.129825</ele>
        <time>2022-03-07T09:25:08.517Z</time>
      </trkpt>
      <trkpt lat="42.25135" lon="24.47386">
        <ele>259.292009</ele>
        <time>2022-03-07T09:25:11.544Z</time>
      </trkpt>
      <trkpt lat="42.25136" lon="24.47369">
        <ele>259.446209</ele>
        <time>2022-03-07T09:25:14.500Z</time>
      </trkpt>
      <trkpt lat="42.25136" lon="24.47352">
        <ele>259.598452</ele>
        <time>2022-03-07T09:25:17.505Z</time>
      </trkpt>
      <trkpt lat="42.25136" lon="24.47336">
        <ele>259.742519</ele>
        <time>2022-03-07T09:25:20.518Z</time>
      </trkpt>
      <trkpt lat="42.25137" lon="24.47319">
        <ele>259.895077</ele>
        <time>2022-03-07T09:25:23.507Z</time>
      </trkpt>
      <trkpt lat="42.25137" lon="24.47302">
        <ele>259.974942</ele>
        <time>2022-03-07T09:25:26.496Z</time>
      </trkpt>
      <trkpt lat="42.25138" lon="24.47289">
        <ele>260.009201</ele>
        <time>2022-03-07T09:25:28.531Z</time>
      </trkpt>
      <trkpt lat="42.25138" lon="24.47277">
        <ele>260.043176</ele>
        <time>2022-03-07T09:25:30.500Z</time>
      </trkpt>
      <trkpt lat="42.25138" lon="24.47264">
        <ele>260.077722</ele>
        <time>2022-03-07T09:25:32.478Z</time>
      </trkpt>
      <trkpt lat="42.25138" lon="24.47246">
        <ele>260.127443</ele>
        <time>2022-03-07T09:25:35.492Z</time>
      </trkpt>
      <trkpt lat="42.25138" lon="24.47234">
        <ele>260.161451</ele>
        <time>2022-03-07T09:25:37.481Z</time>
      </trkpt>
      <trkpt lat="42.25138" lon="24.47222">
        <ele>260.194876</ele>
        <time>2022-03-07T09:25:39.486Z</time>
      </trkpt>
      <trkpt lat="42.25139" lon="24.4721">
        <ele>260.22916</ele>
        <time>2022-03-07T09:25:41.501Z</time>
      </trkpt>
      <trkpt lat="42.25139" lon="24.47197">
        <ele>260.263695</ele>
        <time>2022-03-07T09:25:43.491Z</time>
      </trkpt>
      <trkpt lat="42.2514" lon="24.47185">
        <ele>260.297997</ele>
        <time>2022-03-07T09:25:45.513Z</time>
      </trkpt>
      <trkpt lat="42.2514" lon="24.47173">
        <ele>260.331748</ele>
        <time>2022-03-07T09:25:47.485Z</time>
      </trkpt>
      <trkpt lat="42.2514" lon="24.47155">
        <ele>260.381214</ele>
        <time>2022-03-07T09:25:50.515Z</time>
      </trkpt>
      <trkpt lat="42.25141" lon="24.47142">
        <ele>260.415565</ele>
        <time>2022-03-07T09:25:52.507Z</time>
      </trkpt>
      <trkpt lat="42.25142" lon="24.4713">
        <ele>260.450742</ele>
        <time>2022-03-07T09:25:54.511Z</time>
      </trkpt>
      <trkpt lat="42.25143" lon="24.47117">
        <ele>260.485368</ele>
        <time>2022-03-07T09:25:56.490Z</time>
      </trkpt>
      <trkpt lat="42.25143" lon="24.47099">
        <ele>260.534847</ele>
        <time>2022-03-07T09:25:59.506Z</time>
      </trkpt>
      <trkpt lat="42.25143" lon="24.47082">
        <ele>260.583198</ele>
        <time>2022-03-07T09:26:02.496Z</time>
      </trkpt>
      <trkpt lat="42.25144" lon="24.47064">
        <ele>260.506895</ele>
        <time>2022-03-07T09:26:05.517Z</time>
      </trkpt>
      <trkpt lat="42.25144" lon="24.47048">
        <ele>260.26338</ele>
        <time>2022-03-07T09:26:08.495Z</time>
      </trkpt>
      <trkpt lat="42.25145" lon="24.47031">
        <ele>260.010642</ele>
        <time>2022-03-07T09:26:11.481Z</time>
      </trkpt>
      <trkpt lat="42.25145" lon="24.47014">
        <ele>259.750842</ele>
        <time>2022-03-07T09:26:14.507Z</time>
      </trkpt>
      <trkpt lat="42.25145" lon="24.46996">
        <ele>259.485135</ele>
        <time>2022-03-07T09:26:17.552Z</time>
      </trkpt>
      <trkpt lat="42.25145" lon="24.46978">
        <ele>259.226842</ele>
        <time>2022-03-07T09:26:20.497Z</time>
      </trkpt>
      <trkpt lat="42.25145" lon="24.46961">
        <ele>258.977455</ele>
        <time>2022-03-07T09:26:23.519Z</time>
      </trkpt>
      <trkpt lat="42.25145" lon="24.46945">
        <ele>258.738467</ele>
        <time>2022-03-07T09:26:26.484Z</time>
      </trkpt>
      <trkpt lat="42.25145" lon="24.46929">
        <ele>258.497995</ele>
        <time>2022-03-07T09:26:29.492Z</time>
      </trkpt>
      <trkpt lat="42.25146" lon="24.46912">
        <ele>258.246739</ele>
        <time>2022-03-07T09:26:32.491Z</time>
      </trkpt>
      <trkpt lat="42.25146" lon="24.46896">
        <ele>258.000297</ele>
        <time>2022-03-07T09:26:35.502Z</time>
      </trkpt>
      <trkpt lat="42.25146" lon="24.46879">
        <ele>257.747822</ele>
        <time>2022-03-07T09:26:38.490Z</time>
      </trkpt>
      <trkpt lat="42.25147" lon="24.46861">
        <ele>257.484893</ele>
        <time>2022-03-07T09:26:41.501Z</time>
      </trkpt>
      <trkpt lat="42.25147" lon="24.46843">
        <ele>257.225115</ele>
        <time>2022-03-07T09:26:44.496Z</time>
      </trkpt>
      <trkpt lat="42.25147" lon="24.46831">
        <ele>257.045324</ele>
        <time>2022-03-07T09:26:46.499Z</time>
      </trkpt>
      <trkpt lat="42.25148" lon="24.46813">
        <ele>257.122621</ele>
        <time>2022-03-07T09:26:49.499Z</time>
      </trkpt>
      <trkpt lat="42.25148" lon="24.46796">
        <ele>257.255154</ele>
        <time>2022-03-07T09:26:52.503Z</time>
      </trkpt>
      <trkpt lat="42.25148" lon="24.4678">
        <ele>257.383069</ele>
        <time>2022-03-07T09:26:55.509Z</time>
      </trkpt>
      <trkpt lat="42.25149" lon="24.46764">
        <ele>257.504937</ele>
        <time>2022-03-07T09:26:58.491Z</time>
      </trkpt>
      <trkpt lat="42.2515" lon="24.46748">
        <ele>257.62695</ele>
        <time>2022-03-07T09:27:01.501Z</time>
      </trkpt>
      <trkpt lat="42.25151" lon="24.4673">
        <ele>257.76667</ele>
        <time>2022-03-07T09:27:04.492Z</time>
      </trkpt>
      <trkpt lat="42.25151" lon="24.46718">
        <ele>257.861343</ele>
        <time>2022-03-07T09:27:06.495Z</time>
      </trkpt>
      <trkpt lat="42.25152" lon="24.46706">
        <ele>257.959173</ele>
        <time>2022-03-07T09:27:08.487Z</time>
      </trkpt>
      <trkpt lat="42.25152" lon="24.46693">
        <ele>258.056824</ele>
        <time>2022-03-07T09:27:10.499Z</time>
      </trkpt>
      <trkpt lat="42.25152" lon="24.4668">
        <ele>258.155583</ele>
        <time>2022-03-07T09:27:12.509Z</time>
      </trkpt>
      <trkpt lat="42.25153" lon="24.46668">
        <ele>258.250204</ele>
        <time>2022-03-07T09:27:14.500Z</time>
      </trkpt>
      <trkpt lat="42.25153" lon="24.46651">
        <ele>258.385815</ele>
        <time>2022-03-07T09:27:17.509Z</time>
      </trkpt>
      <trkpt lat="42.25153" lon="24.46634">
        <ele>258.517553</ele>
        <time>2022-03-07T09:27:20.497Z</time>
      </trkpt>
      <trkpt lat="42.25154" lon="24.46617">
        <ele>258.645438</ele>
        <time>2022-03-07T09:27:23.495Z</time>
      </trkpt>
      <trkpt lat="42.25154" lon="24.46601">
        <ele>258.769626</ele>
        <time>2022-03-07T09:27:26.496Z</time>
      </trkpt>
      <trkpt lat="42.25154" lon="24.46585">
        <ele>258.886641</ele>
        <time>2022-03-07T09:27:29.495Z</time>
      </trkpt>
      <trkpt lat="42.25155" lon="24.46568">
        <ele>258.879342</ele>
        <time>2022-03-07T09:27:32.497Z</time>
      </trkpt>
      <trkpt lat="42.25155" lon="24.4655">
        <ele>258.871567</ele>
        <time>2022-03-07T09:27:35.492Z</time>
      </trkpt>
      <trkpt lat="42.25155" lon="24.46533">
        <ele>258.863973</ele>
        <time>2022-03-07T09:27:38.488Z</time>
      </trkpt>
      <trkpt lat="42.25155" lon="24.46516">
        <ele>258.85655</ele>
        <time>2022-03-07T09:27:41.493Z</time>
      </trkpt>
      <trkpt lat="42.25155" lon="24.46498">
        <ele>258.849085</ele>
        <time>2022-03-07T09:27:44.511Z</time>
      </trkpt>
      <trkpt lat="42.25155" lon="24.46481">
        <ele>258.841618</ele>
        <time>2022-03-07T09:27:47.496Z</time>
      </trkpt>
      <trkpt lat="42.25156" lon="24.46464">
        <ele>258.834139</ele>
        <time>2022-03-07T09:27:50.495Z</time>
      </trkpt>
      <trkpt lat="42.25157" lon="24.46447">
        <ele>258.826787</ele>
        <time>2022-03-07T09:27:53.494Z</time>
      </trkpt>
      <trkpt lat="42.25158" lon="24.4643">
        <ele>258.81923</ele>
        <time>2022-03-07T09:27:56.503Z</time>
      </trkpt>
      <trkpt lat="42.25158" lon="24.46413">
        <ele>258.811847</ele>
        <time>2022-03-07T09:27:59.504Z</time>
      </trkpt>
      <trkpt lat="42.25158" lon="24.46396">
        <ele>258.8046</ele>
        <time>2022-03-07T09:28:02.494Z</time>
      </trkpt>
      <trkpt lat="42.25159" lon="24.46379">
        <ele>258.797176</ele>
        <time>2022-03-07T09:28:05.487Z</time>
      </trkpt>
      <trkpt lat="42.25158" lon="24.46362">
        <ele>258.789797</ele>
        <time>2022-03-07T09:28:08.527Z</time>
      </trkpt>
      <trkpt lat="42.25158" lon="24.46345">
        <ele>258.782332</ele>
        <time>2022-03-07T09:28:11.483Z</time>
      </trkpt>
      <trkpt lat="42.25158" lon="24.46328">
        <ele>258.956083</ele>
        <time>2022-03-07T09:28:14.495Z</time>
      </trkpt>
      <trkpt lat="42.25159" lon="24.46311">
        <ele>259.152146</ele>
        <time>2022-03-07T09:28:17.511Z</time>
      </trkpt>
      <trkpt lat="42.2516" lon="24.46293">
        <ele>259.349446</ele>
        <time>2022-03-07T09:28:20.499Z</time>
      </trkpt>
      <trkpt lat="42.25161" lon="24.46281">
        <ele>259.489513</ele>
        <time>2022-03-07T09:28:22.495Z</time>
      </trkpt>
      <trkpt lat="42.25161" lon="24.46264">
        <ele>259.679899</ele>
        <time>2022-03-07T09:28:25.498Z</time>
      </trkpt>
      <trkpt lat="42.25162" lon="24.46248">
        <ele>259.869943</ele>
        <time>2022-03-07T09:28:28.512Z</time>
      </trkpt>
      <trkpt lat="42.25162" lon="24.46231">
        <ele>260.061223</ele>
        <time>2022-03-07T09:28:31.507Z</time>
      </trkpt>
      <trkpt lat="42.25163" lon="24.46214">
        <ele>260.24682</ele>
        <time>2022-03-07T09:28:34.495Z</time>
      </trkpt>
      <trkpt lat="42.25163" lon="24.46197">
        <ele>260.442648</ele>
        <time>2022-03-07T09:28:37.514Z</time>
      </trkpt>
      <trkpt lat="42.25163" lon="24.4618">
        <ele>260.638379</ele>
        <time>2022-03-07T09:28:40.492Z</time>
      </trkpt>
      <trkpt lat="42.25164" lon="24.46163">
        <ele>260.828392</ele>
        <time>2022-03-07T09:28:43.494Z</time>
      </trkpt>
      <trkpt lat="42.25164" lon="24.46146">
        <ele>261.023028</ele>
        <time>2022-03-07T09:28:46.510Z</time>
      </trkpt>
      <trkpt lat="42.25164" lon="24.46129">
        <ele>261.219939</ele>
        <time>2022-03-07T09:28:49.494Z</time>
      </trkpt>
      <trkpt lat="42.25165" lon="24.46112">
        <ele>261.414696</ele>
        <time>2022-03-07T09:28:52.495Z</time>
      </trkpt>
      <trkpt lat="42.25166" lon="24.46096">
        <ele>261.529767</ele>
        <time>2022-03-07T09:28:55.506Z</time>
      </trkpt>
      <trkpt lat="42.25166" lon="24.46078">
        <ele>261.460107</ele>
        <time>2022-03-07T09:28:58.539Z</time>
      </trkpt>
      <trkpt lat="42.25166" lon="24.4606">
        <ele>261.390056</ele>
        <time>2022-03-07T09:29:01.493Z</time>
      </trkpt>
      <trkpt lat="42.25167" lon="24.46043">
        <ele>261.322728</ele>
        <time>2022-03-07T09:29:04.500Z</time>
      </trkpt>
      <trkpt lat="42.25167" lon="24.46026">
        <ele>261.256607</ele>
        <time>2022-03-07T09:29:07.492Z</time>
      </trkpt>
      <trkpt lat="42.25167" lon="24.46009">
        <ele>261.189651</ele>
        <time>2022-03-07T09:29:10.486Z</time>
      </trkpt>
      <trkpt lat="42.25168" lon="24.45992">
        <ele>261.123063</ele>
        <time>2022-03-07T09:29:13.499Z</time>
      </trkpt>
      <trkpt lat="42.25168" lon="24.45976">
        <ele>261.057706</ele>
        <time>2022-03-07T09:29:16.500Z</time>
      </trkpt>
      <trkpt lat="42.25168" lon="24.45959">
        <ele>260.993115</ele>
        <time>2022-03-07T09:29:19.493Z</time>
      </trkpt>
      <trkpt lat="42.25169" lon="24.45942">
        <ele>260.926859</ele>
        <time>2022-03-07T09:29:22.501Z</time>
      </trkpt>
      <trkpt lat="42.2517" lon="24.45925">
        <ele>260.85787</ele>
        <time>2022-03-07T09:29:25.494Z</time>
      </trkpt>
      <trkpt lat="42.2517" lon="24.45907">
        <ele>260.790182</ele>
        <time>2022-03-07T09:29:28.485Z</time>
      </trkpt>
      <trkpt lat="42.2517" lon="24.4589">
        <ele>260.720913</ele>
        <time>2022-03-07T09:29:31.507Z</time>
      </trkpt>
      <trkpt lat="42.25171" lon="24.45872">
        <ele>260.652021</ele>
        <time>2022-03-07T09:29:34.493Z</time>
      </trkpt>
      <trkpt lat="42.25171" lon="24.45855">
        <ele>260.596607</ele>
        <time>2022-03-07T09:29:37.486Z</time>
      </trkpt>
      <trkpt lat="42.25171" lon="24.45838">
        <ele>260.604682</ele>
        <time>2022-03-07T09:29:40.498Z</time>
      </trkpt>
      <trkpt lat="42.25172" lon="24.45821">
        <ele>260.612662</ele>
        <time>2022-03-07T09:29:43.490Z</time>
      </trkpt>
      <trkpt lat="42.25172" lon="24.45804">
        <ele>260.620548</ele>
        <time>2022-03-07T09:29:46.492Z</time>
      </trkpt>
      <trkpt lat="42.25173" lon="24.45787">
        <ele>260.628399</ele>
        <time>2022-03-07T09:29:49.495Z</time>
      </trkpt>
      <trkpt lat="42.25173" lon="24.4577">
        <ele>260.636468</ele>
        <time>2022-03-07T09:29:52.549Z</time>
      </trkpt>
      <trkpt lat="42.25173" lon="24.45753">
        <ele>260.644445</ele>
        <time>2022-03-07T09:29:55.507Z</time>
      </trkpt>
      <trkpt lat="42.25174" lon="24.45736">
        <ele>260.652376</ele>
        <time>2022-03-07T09:29:58.524Z</time>
      </trkpt>
      <trkpt lat="42.25174" lon="24.45719">
        <ele>260.660414</ele>
        <time>2022-03-07T09:30:01.512Z</time>
      </trkpt>
      <trkpt lat="42.25175" lon="24.45702">
        <ele>260.668345</ele>
        <time>2022-03-07T09:30:04.503Z</time>
      </trkpt>
      <trkpt lat="42.25175" lon="24.45685">
        <ele>260.676133</ele>
        <time>2022-03-07T09:30:07.496Z</time>
      </trkpt>
      <trkpt lat="42.25175" lon="24.45669">
        <ele>260.68374</ele>
        <time>2022-03-07T09:30:10.501Z</time>
      </trkpt>
      <trkpt lat="42.25176" lon="24.45653">
        <ele>260.69132</ele>
        <time>2022-03-07T09:30:13.504Z</time>
      </trkpt>
      <trkpt lat="42.25176" lon="24.45637">
        <ele>260.698873</ele>
        <time>2022-03-07T09:30:16.492Z</time>
      </trkpt>
      <trkpt lat="42.25177" lon="24.45621">
        <ele>260.706537</ele>
        <time>2022-03-07T09:30:19.503Z</time>
      </trkpt>
      <trkpt lat="42.25178" lon="24.45604">
        <ele>260.859168</ele>
        <time>2022-03-07T09:30:22.509Z</time>
      </trkpt>
      <trkpt lat="42.25178" lon="24.45587">
        <ele>261.094019</ele>
        <time>2022-03-07T09:30:25.495Z</time>
      </trkpt>
      <trkpt lat="42.25179" lon="24.45571">
        <ele>261.320374</ele>
        <time>2022-03-07T09:30:28.497Z</time>
      </trkpt>
      <trkpt lat="42.25179" lon="24.45555">
        <ele>261.5468</ele>
        <time>2022-03-07T09:30:31.493Z</time>
      </trkpt>
      <trkpt lat="42.25179" lon="24.45539">
        <ele>261.774441</ele>
        <time>2022-03-07T09:30:34.510Z</time>
      </trkpt>
      <trkpt lat="42.25179" lon="24.45523">
        <ele>261.999463</ele>
        <time>2022-03-07T09:30:37.546Z</time>
      </trkpt>
      <trkpt lat="42.2518" lon="24.45507">
        <ele>262.227167</ele>
        <time>2022-03-07T09:30:40.510Z</time>
      </trkpt>
      <trkpt lat="42.2518" lon="24.4549">
        <ele>262.466109</ele>
        <time>2022-03-07T09:30:43.512Z</time>
      </trkpt>
      <trkpt lat="42.2518" lon="24.45473">
        <ele>262.705103</ele>
        <time>2022-03-07T09:30:46.491Z</time>
      </trkpt>
      <trkpt lat="42.25181" lon="24.45456">
        <ele>262.937448</ele>
        <time>2022-03-07T09:30:49.510Z</time>
      </trkpt>
      <trkpt lat="42.25182" lon="24.4544">
        <ele>263.166989</ele>
        <time>2022-03-07T09:30:52.507Z</time>
      </trkpt>
      <trkpt lat="42.25182" lon="24.45424">
        <ele>263.394693</ele>
        <time>2022-03-07T09:30:55.487Z</time>
      </trkpt>
      <trkpt lat="42.25183" lon="24.45408">
        <ele>263.621119</ele>
        <time>2022-03-07T09:30:58.496Z</time>
      </trkpt>
      <trkpt lat="42.25183" lon="24.45391">
        <ele>263.850227</ele>
        <time>2022-03-07T09:31:01.493Z</time>
      </trkpt>
      <trkpt lat="42.25184" lon="24.45375">
        <ele>264.0785</ele>
        <time>2022-03-07T09:31:04.496Z</time>
      </trkpt>
      <trkpt lat="42.25184" lon="24.45359">
        <ele>264.147826</ele>
        <time>2022-03-07T09:31:07.505Z</time>
      </trkpt>
      <trkpt lat="42.25185" lon="24.45343">
        <ele>264.178578</ele>
        <time>2022-03-07T09:31:10.543Z</time>
      </trkpt>
      <trkpt lat="42.25186" lon="24.45326">
        <ele>264.210843</ele>
        <time>2022-03-07T09:31:13.498Z</time>
      </trkpt>
      <trkpt lat="42.25187" lon="24.45309">
        <ele>264.243107</ele>
        <time>2022-03-07T09:31:16.505Z</time>
      </trkpt>
      <trkpt lat="42.25187" lon="24.45293">
        <ele>264.272848</ele>
        <time>2022-03-07T09:31:19.506Z</time>
      </trkpt>
      <trkpt lat="42.25187" lon="24.45278">
        <ele>264.301259</ele>
        <time>2022-03-07T09:31:22.511Z</time>
      </trkpt>
      <trkpt lat="42.25187" lon="24.45263">
        <ele>264.330811</ele>
        <time>2022-03-07T09:31:25.498Z</time>
      </trkpt>
      <trkpt lat="42.25187" lon="24.45247">
        <ele>264.360398</ele>
        <time>2022-03-07T09:31:28.501Z</time>
      </trkpt>
      <trkpt lat="42.25187" lon="24.45232">
        <ele>264.388246</ele>
        <time>2022-03-07T09:31:31.506Z</time>
      </trkpt>
      <trkpt lat="42.25188" lon="24.45218">
        <ele>264.415342</ele>
        <time>2022-03-07T09:31:34.492Z</time>
      </trkpt>
      <trkpt lat="42.25188" lon="24.45204">
        <ele>264.442238</ele>
        <time>2022-03-07T09:31:37.497Z</time>
      </trkpt>
      <trkpt lat="42.25188" lon="24.45189">
        <ele>264.470459</ele>
        <time>2022-03-07T09:31:40.508Z</time>
      </trkpt>
      <trkpt lat="42.25188" lon="24.45174">
        <ele>264.499249</ele>
        <time>2022-03-07T09:31:43.535Z</time>
      </trkpt>
      <trkpt lat="42.25188" lon="24.45158">
        <ele>264.528807</ele>
        <time>2022-03-07T09:31:46.499Z</time>
      </trkpt>
      <trkpt lat="42.25188" lon="24.45143">
        <ele>264.557804</ele>
        <time>2022-03-07T09:31:49.508Z</time>
      </trkpt>
      <trkpt lat="42.25189" lon="24.45127">
        <ele>264.560235</ele>
        <time>2022-03-07T09:31:52.510Z</time>
      </trkpt>
      <trkpt lat="42.2519" lon="24.45112">
        <ele>264.352975</ele>
        <time>2022-03-07T09:31:55.489Z</time>
      </trkpt>
      <trkpt lat="42.2519" lon="24.45096">
        <ele>264.1419</ele>
        <time>2022-03-07T09:31:58.503Z</time>
      </trkpt>
      <trkpt lat="42.25191" lon="24.4508">
        <ele>263.926242</ele>
        <time>2022-03-07T09:32:01.503Z</time>
      </trkpt>
      <trkpt lat="42.25192" lon="24.45064">
        <ele>263.708767</ele>
        <time>2022-03-07T09:32:04.494Z</time>
      </trkpt>
      <trkpt lat="42.25193" lon="24.45048">
        <ele>263.49579</ele>
        <time>2022-03-07T09:32:07.519Z</time>
      </trkpt>
      <trkpt lat="42.25193" lon="24.45032">
        <ele>263.282066</ele>
        <time>2022-03-07T09:32:10.496Z</time>
      </trkpt>
      <trkpt lat="42.25193" lon="24.45017">
        <ele>263.075061</ele>
        <time>2022-03-07T09:32:13.487Z</time>
      </trkpt>
      <trkpt lat="42.25194" lon="24.45002">
        <ele>262.874405</ele>
        <time>2022-03-07T09:32:16.530Z</time>
      </trkpt>
      <trkpt lat="42.25195" lon="24.44987">
        <ele>262.675198</ele>
        <time>2022-03-07T09:32:19.510Z</time>
      </trkpt>
      <trkpt lat="42.25195" lon="24.44972">
        <ele>262.464067</ele>
        <time>2022-03-07T09:32:22.527Z</time>
      </trkpt>
      <trkpt lat="42.25195" lon="24.44956">
        <ele>262.25421</ele>
        <time>2022-03-07T09:32:25.503Z</time>
      </trkpt>
      <trkpt lat="42.25196" lon="24.4494">
        <ele>262.041791</ele>
        <time>2022-03-07T09:32:28.505Z</time>
      </trkpt>
      <trkpt lat="42.25196" lon="24.44924">
        <ele>261.829318</ele>
        <time>2022-03-07T09:32:31.495Z</time>
      </trkpt>
      <trkpt lat="42.25197" lon="24.44909">
        <ele>261.627516</ele>
        <time>2022-03-07T09:32:34.504Z</time>
      </trkpt>
      <trkpt lat="42.25198" lon="24.44895">
        <ele>261.42778</ele>
        <time>2022-03-07T09:32:37.501Z</time>
      </trkpt>
      <trkpt lat="42.25198" lon="24.44879">
        <ele>261.429489</ele>
        <time>2022-03-07T09:32:40.495Z</time>
      </trkpt>
      <trkpt lat="42.25199" lon="24.44864">
        <ele>261.671322</ele>
        <time>2022-03-07T09:32:43.513Z</time>
      </trkpt>
      <trkpt lat="42.25199" lon="24.44848">
        <ele>261.918227</ele>
        <time>2022-03-07T09:32:46.503Z</time>
      </trkpt>
      <trkpt lat="42.252" lon="24.44833">
        <ele>262.163703</ele>
        <time>2022-03-07T09:32:49.488Z</time>
      </trkpt>
      <trkpt lat="42.252" lon="24.44817">
        <ele>262.41645</ele>
        <time>2022-03-07T09:32:52.502Z</time>
      </trkpt>
      <trkpt lat="42.25201" lon="24.44801">
        <ele>262.660222</ele>
        <time>2022-03-07T09:32:55.558Z</time>
      </trkpt>
      <trkpt lat="42.25202" lon="24.44786">
        <ele>262.903772</ele>
        <time>2022-03-07T09:32:58.499Z</time>
      </trkpt>
      <trkpt lat="42.25202" lon="24.44769">
        <ele>263.159728</ele>
        <time>2022-03-07T09:33:01.500Z</time>
      </trkpt>
      <trkpt lat="42.25202" lon="24.44753">
        <ele>263.414116</ele>
        <time>2022-03-07T09:33:04.496Z</time>
      </trkpt>
      <trkpt lat="42.25203" lon="24.44737">
        <ele>263.672269</ele>
        <time>2022-03-07T09:33:07.486Z</time>
      </trkpt>
      <trkpt lat="42.25204" lon="24.44721">
        <ele>263.926895</ele>
        <time>2022-03-07T09:33:10.494Z</time>
      </trkpt>
      <trkpt lat="42.25204" lon="24.44704">
        <ele>264.191167</ele>
        <time>2022-03-07T09:33:13.503Z</time>
      </trkpt>
      <trkpt lat="42.25205" lon="24.44686">
        <ele>264.47393</ele>
        <time>2022-03-07T09:33:16.516Z</time>
      </trkpt>
      <trkpt lat="42.25206" lon="24.44668">
        <ele>264.750735</ele>
        <time>2022-03-07T09:33:19.497Z</time>
      </trkpt>
      <trkpt lat="42.25206" lon="24.44651">
        <ele>265.016243</ele>
        <time>2022-03-07T09:33:22.530Z</time>
      </trkpt>
      <trkpt lat="42.25207" lon="24.44634">
        <ele>265.135476</ele>
        <time>2022-03-07T09:33:25.503Z</time>
      </trkpt>
      <trkpt lat="42.25208" lon="24.44617">
        <ele>265.140302</ele>
        <time>2022-03-07T09:33:28.547Z</time>
      </trkpt>
      <trkpt lat="42.25208" lon="24.44601">
        <ele>265.144986</ele>
        <time>2022-03-07T09:33:31.503Z</time>
      </trkpt>
      <trkpt lat="42.25209" lon="24.44583">
        <ele>265.149927</ele>
        <time>2022-03-07T09:33:34.509Z</time>
      </trkpt>
      <trkpt lat="42.2521" lon="24.44567">
        <ele>265.154583</ele>
        <time>2022-03-07T09:33:37.490Z</time>
      </trkpt>
      <trkpt lat="42.2521" lon="24.4455">
        <ele>265.159288</ele>
        <time>2022-03-07T09:33:40.506Z</time>
      </trkpt>
      <trkpt lat="42.2521" lon="24.44534">
        <ele>265.163998</ele>
        <time>2022-03-07T09:33:43.515Z</time>
      </trkpt>
      <trkpt lat="42.25211" lon="24.44517">
        <ele>265.168801</ele>
        <time>2022-03-07T09:33:46.493Z</time>
      </trkpt>
      <trkpt lat="42.25212" lon="24.44501">
        <ele>265.173366</ele>
        <time>2022-03-07T09:33:49.489Z</time>
      </trkpt>
      <trkpt lat="42.25213" lon="24.44485">
        <ele>265.177971</ele>
        <time>2022-03-07T09:33:52.517Z</time>
      </trkpt>
      <trkpt lat="42.25213" lon="24.44469">
        <ele>265.182534</ele>
        <time>2022-03-07T09:33:55.505Z</time>
      </trkpt>
      <trkpt lat="42.25212" lon="24.44453">
        <ele>265.186986</ele>
        <time>2022-03-07T09:33:58.494Z</time>
      </trkpt>
      <trkpt lat="42.25212" lon="24.44437">
        <ele>265.191467</ele>
        <time>2022-03-07T09:34:01.530Z</time>
      </trkpt>
      <trkpt lat="42.25212" lon="24.44421">
        <ele>265.19606</ele>
        <time>2022-03-07T09:34:04.505Z</time>
      </trkpt>
      <trkpt lat="42.25212" lon="24.44405">
        <ele>265.200651</ele>
        <time>2022-03-07T09:34:07.494Z</time>
      </trkpt>
      <trkpt lat="42.25213" lon="24.44388">
        <ele>265.528157</ele>
        <time>2022-03-07T09:34:10.504Z</time>
      </trkpt>
      <trkpt lat="42.25212" lon="24.44372">
        <ele>265.945626</ele>
        <time>2022-03-07T09:34:13.495Z</time>
      </trkpt>
      <trkpt lat="42.25211" lon="24.44356">
        <ele>266.351523</ele>
        <time>2022-03-07T09:34:16.501Z</time>
      </trkpt>
      <trkpt lat="42.2521" lon="24.4434">
        <ele>266.768306</ele>
        <time>2022-03-07T09:34:19.510Z</time>
      </trkpt>
      <trkpt lat="42.2521" lon="24.44324">
        <ele>267.177908</ele>
        <time>2022-03-07T09:34:22.496Z</time>
      </trkpt>
      <trkpt lat="42.25209" lon="24.44307">
        <ele>267.60792</ele>
        <time>2022-03-07T09:34:25.492Z</time>
      </trkpt>
      <trkpt lat="42.25209" lon="24.44292">
        <ele>268.004166</ele>
        <time>2022-03-07T09:34:28.544Z</time>
      </trkpt>
      <trkpt lat="42.25208" lon="24.44276">
        <ele>268.404324</ele>
        <time>2022-03-07T09:34:31.507Z</time>
      </trkpt>
      <trkpt lat="42.25206" lon="24.44261">
        <ele>268.784448</ele>
        <time>2022-03-07T09:34:34.505Z</time>
      </trkpt>
      <trkpt lat="42.25206" lon="24.44245">
        <ele>269.198577</ele>
        <time>2022-03-07T09:34:37.505Z</time>
      </trkpt>
      <trkpt lat="42.25206" lon="24.44229">
        <ele>269.617915</ele>
        <time>2022-03-07T09:34:40.500Z</time>
      </trkpt>
      <trkpt lat="42.25205" lon="24.44211">
        <ele>270.060887</ele>
        <time>2022-03-07T09:34:43.507Z</time>
      </trkpt>
      <trkpt lat="42.25204" lon="24.44194">
        <ele>270.49899</ele>
        <time>2022-03-07T09:34:46.501Z</time>
      </trkpt>
      <trkpt lat="42.25203" lon="24.44177">
        <ele>270.934804</ele>
        <time>2022-03-07T09:34:49.504Z</time>
      </trkpt>
      <trkpt lat="42.25202" lon="24.44161">
        <ele>271.349494</ele>
        <time>2022-03-07T09:34:52.494Z</time>
      </trkpt>
      <trkpt lat="42.25201" lon="24.44145">
        <ele>271.364277</ele>
        <time>2022-03-07T09:34:55.517Z</time>
      </trkpt>
      <trkpt lat="42.252" lon="24.44129">
        <ele>271.308429</ele>
        <time>2022-03-07T09:34:58.510Z</time>
      </trkpt>
      <trkpt lat="42.25199" lon="24.44112">
        <ele>271.250619</ele>
        <time>2022-03-07T09:35:01.534Z</time>
      </trkpt>
      <trkpt lat="42.25199" lon="24.44096">
        <ele>271.192946</ele>
        <time>2022-03-07T09:35:04.505Z</time>
      </trkpt>
      <trkpt lat="42.25198" lon="24.44079">
        <ele>271.13452</ele>
        <time>2022-03-07T09:35:07.523Z</time>
      </trkpt>
      <trkpt lat="42.25197" lon="24.44062">
        <ele>271.076364</ele>
        <time>2022-03-07T09:35:10.522Z</time>
      </trkpt>
      <trkpt lat="42.25196" lon="24.44044">
        <ele>271.01344</ele>
        <time>2022-03-07T09:35:13.497Z</time>
      </trkpt>
      <trkpt lat="42.25195" lon="24.44032">
        <ele>270.969531</ele>
        <time>2022-03-07T09:35:15.507Z</time>
      </trkpt>
      <trkpt lat="42.25194" lon="24.44019">
        <ele>270.92507</ele>
        <time>2022-03-07T09:35:17.504Z</time>
      </trkpt>
      <trkpt lat="42.25194" lon="24.44006">
        <ele>270.879512</ele>
        <time>2022-03-07T09:35:19.500Z</time>
      </trkpt>
      <trkpt lat="42.25193" lon="24.43988">
        <ele>270.81721</ele>
        <time>2022-03-07T09:35:22.528Z</time>
      </trkpt>
      <trkpt lat="42.25193" lon="24.43976">
        <ele>270.774545</ele>
        <time>2022-03-07T09:35:24.509Z</time>
      </trkpt>
      <trkpt lat="42.25192" lon="24.43958">
        <ele>270.714124</ele>
        <time>2022-03-07T09:35:27.500Z</time>
      </trkpt>
      <trkpt lat="42.25192" lon="24.4394">
        <ele>270.652375</ele>
        <time>2022-03-07T09:35:30.504Z</time>
      </trkpt>
      <trkpt lat="42.25192" lon="24.43922">
        <ele>270.589937</ele>
        <time>2022-03-07T09:35:33.614Z</time>
      </trkpt>
      <trkpt lat="42.25191" lon="24.43909">
        <ele>270.405329</ele>
        <time>2022-03-07T09:35:35.510Z</time>
      </trkpt>
      <trkpt lat="42.25189" lon="24.43894">
        <ele>270.08203</ele>
        <time>2022-03-07T09:35:37.493Z</time>
      </trkpt>
      <trkpt lat="42.25188" lon="24.43879">
        <ele>269.734393</ele>
        <time>2022-03-07T09:35:39.505Z</time>
      </trkpt>
      <trkpt lat="42.25186" lon="24.43863">
        <ele>269.396351</ele>
        <time>2022-03-07T09:35:41.511Z</time>
      </trkpt>
      <trkpt lat="42.25184" lon="24.43849">
        <ele>269.067578</ele>
        <time>2022-03-07T09:35:43.485Z</time>
      </trkpt>
      <trkpt lat="42.25182" lon="24.43834">
        <ele>268.748526</ele>
        <time>2022-03-07T09:35:45.495Z</time>
      </trkpt>
      <trkpt lat="42.2518" lon="24.43821">
        <ele>268.454789</ele>
        <time>2022-03-07T09:35:47.503Z</time>
      </trkpt>
      <trkpt lat="42.25179" lon="24.43808">
        <ele>268.152379</ele>
        <time>2022-03-07T09:35:49.519Z</time>
      </trkpt>
      <trkpt lat="42.25178" lon="24.43794">
        <ele>267.863173</ele>
        <time>2022-03-07T09:35:51.499Z</time>
      </trkpt>
      <trkpt lat="42.25177" lon="24.43782">
        <ele>267.593619</ele>
        <time>2022-03-07T09:35:53.503Z</time>
      </trkpt>
      <trkpt lat="42.25174" lon="24.43765">
        <ele>267.216268</ele>
        <time>2022-03-07T09:35:56.486Z</time>
      </trkpt>
      <trkpt lat="42.25173" lon="24.43749">
        <ele>266.858094</ele>
        <time>2022-03-07T09:35:59.516Z</time>
      </trkpt>
      <trkpt lat="42.25171" lon="24.43735">
        <ele>266.552535</ele>
        <time>2022-03-07T09:36:02.500Z</time>
      </trkpt>
      <trkpt lat="42.2517" lon="24.43722">
        <ele>266.264839</ele>
        <time>2022-03-07T09:36:05.512Z</time>
      </trkpt>
      <trkpt lat="42.25168" lon="24.43706">
        <ele>265.902473</ele>
        <time>2022-03-07T09:36:08.515Z</time>
      </trkpt>
      <trkpt lat="42.25167" lon="24.4369">
        <ele>265.534853</ele>
        <time>2022-03-07T09:36:11.502Z</time>
      </trkpt>
      <trkpt lat="42.25165" lon="24.43674">
        <ele>265.281622</ele>
        <time>2022-03-07T09:36:14.497Z</time>
      </trkpt>
      <trkpt lat="42.25163" lon="24.43661">
        <ele>265.635063</ele>
        <time>2022-03-07T09:36:17.519Z</time>
      </trkpt>
      <trkpt lat="42.25162" lon="24.43647">
        <ele>265.997226</ele>
        <time>2022-03-07T09:36:20.504Z</time>
      </trkpt>
      <trkpt lat="42.25161" lon="24.43633">
        <ele>266.346785</ele>
        <time>2022-03-07T09:36:23.509Z</time>
      </trkpt>
      <trkpt lat="42.25159" lon="24.43619">
        <ele>266.715639</ele>
        <time>2022-03-07T09:36:26.513Z</time>
      </trkpt>
      <trkpt lat="42.25157" lon="24.43605">
        <ele>267.091087</ele>
        <time>2022-03-07T09:36:29.510Z</time>
      </trkpt>
      <trkpt lat="42.25157" lon="24.43592">
        <ele>267.431027</ele>
        <time>2022-03-07T09:36:32.488Z</time>
      </trkpt>
      <trkpt lat="42.25156" lon="24.43578">
        <ele>267.794621</ele>
        <time>2022-03-07T09:36:35.543Z</time>
      </trkpt>
      <trkpt lat="42.25155" lon="24.43564">
        <ele>268.166443</ele>
        <time>2022-03-07T09:36:38.514Z</time>
      </trkpt>
      <trkpt lat="42.25155" lon="24.4355">
        <ele>268.528213</ele>
        <time>2022-03-07T09:36:41.489Z</time>
      </trkpt>
      <trkpt lat="42.25153" lon="24.43535">
        <ele>268.901764</ele>
        <time>2022-03-07T09:36:44.508Z</time>
      </trkpt>
      <trkpt lat="42.25152" lon="24.4352">
        <ele>269.296858</ele>
        <time>2022-03-07T09:36:47.510Z</time>
      </trkpt>
      <trkpt lat="42.25151" lon="24.43505">
        <ele>269.69749</ele>
        <time>2022-03-07T09:36:50.489Z</time>
      </trkpt>
      <trkpt lat="42.2515" lon="24.4349">
        <ele>270.090561</ele>
        <time>2022-03-07T09:36:53.506Z</time>
      </trkpt>
      <trkpt lat="42.25149" lon="24.43474">
        <ele>270.490092</ele>
        <time>2022-03-07T09:36:56.534Z</time>
      </trkpt>
      <trkpt lat="42.25149" lon="24.43458">
        <ele>270.912945</ele>
        <time>2022-03-07T09:36:59.485Z</time>
      </trkpt>
      <trkpt lat="42.25149" lon="24.43443">
        <ele>271.312476</ele>
        <time>2022-03-07T09:37:02.576Z</time>
      </trkpt>
      <trkpt lat="42.25148" lon="24.43426">
        <ele>271.488644</ele>
        <time>2022-03-07T09:37:05.497Z</time>
      </trkpt>
      <trkpt lat="42.25146" lon="24.43409">
        <ele>271.395094</ele>
        <time>2022-03-07T09:37:08.500Z</time>
      </trkpt>
      <trkpt lat="42.25146" lon="24.43393">
        <ele>271.308084</ele>
        <time>2022-03-07T09:37:11.505Z</time>
      </trkpt>
      <trkpt lat="42.25145" lon="24.43376">
        <ele>271.215466</ele>
        <time>2022-03-07T09:37:14.506Z</time>
      </trkpt>
      <trkpt lat="42.25144" lon="24.43361">
        <ele>271.131462</ele>
        <time>2022-03-07T09:37:17.498Z</time>
      </trkpt>
      <trkpt lat="42.25145" lon="24.43349">
        <ele>271.062452</ele>
        <time>2022-03-07T09:37:19.491Z</time>
      </trkpt>
      <trkpt lat="42.25144" lon="24.43331">
        <ele>270.967763</ele>
        <time>2022-03-07T09:37:22.502Z</time>
      </trkpt>
      <trkpt lat="42.25146" lon="24.43314">
        <ele>270.874129</ele>
        <time>2022-03-07T09:37:25.506Z</time>
      </trkpt>
      <trkpt lat="42.25146" lon="24.433">
        <ele>270.798564</ele>
        <time>2022-03-07T09:37:27.509Z</time>
      </trkpt>
      <trkpt lat="42.25147" lon="24.43287">
        <ele>270.722912</ele>
        <time>2022-03-07T09:37:29.543Z</time>
      </trkpt>
      <trkpt lat="42.25147" lon="24.43274">
        <ele>270.654447</ele>
        <time>2022-03-07T09:37:31.505Z</time>
      </trkpt>
      <trkpt lat="42.25148" lon="24.43262">
        <ele>270.586433</ele>
        <time>2022-03-07T09:37:33.504Z</time>
      </trkpt>
      <trkpt lat="42.25148" lon="24.43244">
        <ele>270.489056</ele>
        <time>2022-03-07T09:37:36.508Z</time>
      </trkpt>
      <trkpt lat="42.2515" lon="24.43232">
        <ele>270.421204</ele>
        <time>2022-03-07T09:37:38.497Z</time>
      </trkpt>
      <trkpt lat="42.25151" lon="24.43216">
        <ele>270.333249</ele>
        <time>2022-03-07T09:37:41.494Z</time>
      </trkpt>
      <trkpt lat="42.25153" lon="24.43201">
        <ele>270.25014</ele>
        <time>2022-03-07T09:37:44.509Z</time>
      </trkpt>
      <trkpt lat="42.25154" lon="24.43185">
        <ele>270.174711</ele>
        <time>2022-03-07T09:37:47.506Z</time>
      </trkpt>
      <trkpt lat="42.25154" lon="24.43169">
        <ele>270.107862</ele>
        <time>2022-03-07T09:37:50.505Z</time>
      </trkpt>
      <trkpt lat="42.25155" lon="24.43152">
        <ele>270.038788</ele>
        <time>2022-03-07T09:37:53.505Z</time>
      </trkpt>
      <trkpt lat="42.25156" lon="24.43136">
        <ele>269.974327</ele>
        <time>2022-03-07T09:37:56.505Z</time>
      </trkpt>
      <trkpt lat="42.25158" lon="24.43119">
        <ele>269.90715</ele>
        <time>2022-03-07T09:37:59.506Z</time>
      </trkpt>
      <trkpt lat="42.2516" lon="24.43102">
        <ele>269.837125</ele>
        <time>2022-03-07T09:38:02.485Z</time>
      </trkpt>
      <trkpt lat="42.25161" lon="24.43084">
        <ele>269.76492</ele>
        <time>2022-03-07T09:38:05.511Z</time>
      </trkpt>
      <trkpt lat="42.25162" lon="24.43067">
        <ele>269.695538</ele>
        <time>2022-03-07T09:38:08.535Z</time>
      </trkpt>
      <trkpt lat="42.25162" lon="24.4305">
        <ele>269.624678</ele>
        <time>2022-03-07T09:38:11.514Z</time>
      </trkpt>
      <trkpt lat="42.25163" lon="24.43032">
        <ele>269.553319</ele>
        <time>2022-03-07T09:38:14.540Z</time>
      </trkpt>
      <trkpt lat="42.25162" lon="24.43015">
        <ele>269.484341</ele>
        <time>2022-03-07T09:38:17.493Z</time>
      </trkpt>
      <trkpt lat="42.2516" lon="24.42998">
        <ele>269.416129</ele>
        <time>2022-03-07T09:38:20.506Z</time>
      </trkpt>
      <trkpt lat="42.25158" lon="24.42982">
        <ele>269.346524</ele>
        <time>2022-03-07T09:38:23.501Z</time>
      </trkpt>
      <trkpt lat="42.25155" lon="24.42964">
        <ele>269.275406</ele>
        <time>2022-03-07T09:38:26.491Z</time>
      </trkpt>
      <trkpt lat="42.25152" lon="24.42947">
        <ele>269.155214</ele>
        <time>2022-03-07T09:38:29.501Z</time>
      </trkpt>
      <trkpt lat="42.2515" lon="24.42929">
        <ele>268.874038</ele>
        <time>2022-03-07T09:38:32.510Z</time>
      </trkpt>
      <trkpt lat="42.25148" lon="24.42912">
        <ele>268.600034</ele>
        <time>2022-03-07T09:38:35.495Z</time>
      </trkpt>
      <trkpt lat="42.25146" lon="24.429">
        <ele>268.408619</ele>
        <time>2022-03-07T09:38:37.492Z</time>
      </trkpt>
      <trkpt lat="42.25144" lon="24.42888">
        <ele>268.214935</ele>
        <time>2022-03-07T09:38:39.500Z</time>
      </trkpt>
      <trkpt lat="42.25142" lon="24.42876">
        <ele>268.015162</ele>
        <time>2022-03-07T09:38:41.513Z</time>
      </trkpt>
      <trkpt lat="42.25139" lon="24.42864">
        <ele>267.825025</ele>
        <time>2022-03-07T09:38:43.537Z</time>
      </trkpt>
      <trkpt lat="42.25136" lon="24.42847">
        <ele>267.544132</ele>
        <time>2022-03-07T09:38:46.507Z</time>
      </trkpt>
      <trkpt lat="42.25132" lon="24.4283">
        <ele>267.264661</ele>
        <time>2022-03-07T09:38:49.510Z</time>
      </trkpt>
      <trkpt lat="42.25129" lon="24.42813">
        <ele>266.991554</ele>
        <time>2022-03-07T09:38:52.507Z</time>
      </trkpt>
      <trkpt lat="42.25127" lon="24.42797">
        <ele>266.741102</ele>
        <time>2022-03-07T09:38:55.508Z</time>
      </trkpt>
      <trkpt lat="42.25125" lon="24.42785">
        <ele>266.548147</ele>
        <time>2022-03-07T09:38:57.504Z</time>
      </trkpt>
      <trkpt lat="42.25123" lon="24.42768">
        <ele>266.28276</ele>
        <time>2022-03-07T09:39:00.523Z</time>
      </trkpt>
      <trkpt lat="42.25121" lon="24.42756">
        <ele>266.091344</ele>
        <time>2022-03-07T09:39:02.541Z</time>
      </trkpt>
      <trkpt lat="42.25119" lon="24.4274">
        <ele>265.826633</ele>
        <time>2022-03-07T09:39:05.507Z</time>
      </trkpt>
      <trkpt lat="42.25117" lon="24.42722">
        <ele>265.549527</ele>
        <time>2022-03-07T09:39:08.492Z</time>
      </trkpt>
      <trkpt lat="42.25115" lon="24.42705">
        <ele>265.552944</ele>
        <time>2022-03-07T09:39:11.500Z</time>
      </trkpt>
      <trkpt lat="42.25112" lon="24.42687">
        <ele>265.823661</ele>
        <time>2022-03-07T09:39:14.502Z</time>
      </trkpt>
      <trkpt lat="42.25109" lon="24.42669">
        <ele>266.102097</ele>
        <time>2022-03-07T09:39:17.505Z</time>
      </trkpt>
      <trkpt lat="42.25107" lon="24.42657">
        <ele>266.292072</ele>
        <time>2022-03-07T09:39:19.503Z</time>
      </trkpt>
      <trkpt lat="42.25104" lon="24.42639">
        <ele>266.570654</ele>
        <time>2022-03-07T09:39:22.549Z</time>
      </trkpt>
      <trkpt lat="42.25103" lon="24.42627">
        <ele>266.759853</ele>
        <time>2022-03-07T09:39:24.515Z</time>
      </trkpt>
      <trkpt lat="42.25101" lon="24.42609">
        <ele>267.028223</ele>
        <time>2022-03-07T09:39:27.513Z</time>
      </trkpt>
      <trkpt lat="42.25099" lon="24.42597">
        <ele>267.21479</ele>
        <time>2022-03-07T09:39:29.498Z</time>
      </trkpt>
      <trkpt lat="42.25097" lon="24.42585">
        <ele>267.402035</ele>
        <time>2022-03-07T09:39:31.498Z</time>
      </trkpt>
      <trkpt lat="42.25098" lon="24.42568">
        <ele>267.667084</ele>
        <time>2022-03-07T09:39:34.512Z</time>
      </trkpt>
      <trkpt lat="42.25103" lon="24.42553">
        <ele>267.914421</ele>
        <time>2022-03-07T09:39:37.501Z</time>
      </trkpt>
      <trkpt lat="42.25109" lon="24.42539">
        <ele>268.155022</ele>
        <time>2022-03-07T09:39:40.508Z</time>
      </trkpt>
      <trkpt lat="42.25114" lon="24.42525">
        <ele>268.399638</ele>
        <time>2022-03-07T09:39:43.510Z</time>
      </trkpt>
      <trkpt lat="42.25121" lon="24.4251">
        <ele>268.667624</ele>
        <time>2022-03-07T09:39:46.503Z</time>
      </trkpt>
      <trkpt lat="42.25127" lon="24.42501">
        <ele>268.854601</ele>
        <time>2022-03-07T09:39:48.495Z</time>
      </trkpt>
      <trkpt lat="42.25135" lon="24.42487">
        <ele>269.148034</ele>
        <time>2022-03-07T09:39:51.510Z</time>
      </trkpt>
      <trkpt lat="42.25141" lon="24.42477">
        <ele>269.5607</ele>
        <time>2022-03-07T09:39:53.502Z</time>
      </trkpt>
      <trkpt lat="42.25147" lon="24.42468">
        <ele>269.971222</ele>
        <time>2022-03-07T09:39:55.509Z</time>
      </trkpt>
      <trkpt lat="42.25153" lon="24.42459">
        <ele>270.389202</ele>
        <time>2022-03-07T09:39:57.536Z</time>
      </trkpt>
      <trkpt lat="42.25162" lon="24.42445">
        <ele>270.994032</ele>
        <time>2022-03-07T09:40:00.498Z</time>
      </trkpt>
      <trkpt lat="42.25169" lon="24.42431">
        <ele>271.568662</ele>
        <time>2022-03-07T09:40:03.499Z</time>
      </trkpt>
      <trkpt lat="42.25176" lon="24.42417">
        <ele>272.151068</ele>
        <time>2022-03-07T09:40:06.495Z</time>
      </trkpt>
      <trkpt lat="42.25184" lon="24.42403">
        <ele>272.703868</ele>
        <time>2022-03-07T09:40:09.509Z</time>
      </trkpt>
      <trkpt lat="42.25191" lon="24.4239">
        <ele>273.254423</ele>
        <time>2022-03-07T09:40:12.500Z</time>
      </trkpt>
      <trkpt lat="42.25199" lon="24.42376">
        <ele>273.850509</ele>
        <time>2022-03-07T09:40:15.494Z</time>
      </trkpt>
      <trkpt lat="42.25207" lon="24.42364">
        <ele>274.391749</ele>
        <time>2022-03-07T09:40:18.512Z</time>
      </trkpt>
      <trkpt lat="42.25214" lon="24.42352">
        <ele>274.910216</ele>
        <time>2022-03-07T09:40:21.514Z</time>
      </trkpt>
      <trkpt lat="42.25221" lon="24.4234">
        <ele>275.420625</ele>
        <time>2022-03-07T09:40:24.500Z</time>
      </trkpt>
      <trkpt lat="42.25229" lon="24.42329">
        <ele>275.927855</ele>
        <time>2022-03-07T09:40:27.502Z</time>
      </trkpt>
      <trkpt lat="42.25236" lon="24.42318">
        <ele>276.434031</ele>
        <time>2022-03-07T09:40:30.525Z</time>
      </trkpt>
      <trkpt lat="42.25245" lon="24.42307">
        <ele>276.969794</ele>
        <time>2022-03-07T09:40:33.510Z</time>
      </trkpt>
      <trkpt lat="42.25253" lon="24.42296">
        <ele>277.24039</ele>
        <time>2022-03-07T09:40:36.524Z</time>
      </trkpt>
      <trkpt lat="42.2526" lon="24.42286">
        <ele>277.198995</ele>
        <time>2022-03-07T09:40:39.499Z</time>
      </trkpt>
      <trkpt lat="42.25268" lon="24.42277">
        <ele>277.157275</ele>
        <time>2022-03-07T09:40:42.538Z</time>
      </trkpt>
      <trkpt lat="42.25275" lon="24.42267">
        <ele>277.114942</ele>
        <time>2022-03-07T09:40:45.492Z</time>
      </trkpt>
      <trkpt lat="42.25283" lon="24.42256">
        <ele>277.070991</ele>
        <time>2022-03-07T09:40:48.491Z</time>
      </trkpt>
      <trkpt lat="42.25292" lon="24.42247">
        <ele>277.025472</ele>
        <time>2022-03-07T09:40:51.500Z</time>
      </trkpt>
      <trkpt lat="42.25301" lon="24.42237">
        <ele>276.978766</ele>
        <time>2022-03-07T09:40:54.504Z</time>
      </trkpt>
      <trkpt lat="42.2531" lon="24.42227">
        <ele>276.929851</ele>
        <time>2022-03-07T09:40:57.495Z</time>
      </trkpt>
      <trkpt lat="42.25319" lon="24.42216">
        <ele>276.880131</ele>
        <time>2022-03-07T09:41:00.511Z</time>
      </trkpt>
      <trkpt lat="42.25328" lon="24.42205">
        <ele>276.831229</ele>
        <time>2022-03-07T09:41:03.500Z</time>
      </trkpt>
      <trkpt lat="42.25338" lon="24.42194">
        <ele>276.779925</ele>
        <time>2022-03-07T09:41:06.508Z</time>
      </trkpt>
      <trkpt lat="42.25347" lon="24.42181">
        <ele>276.726906</ele>
        <time>2022-03-07T09:41:09.510Z</time>
      </trkpt>
      <trkpt lat="42.25357" lon="24.4217">
        <ele>276.675904</ele>
        <time>2022-03-07T09:41:12.495Z</time>
      </trkpt>
      <trkpt lat="42.25366" lon="24.42158">
        <ele>276.624583</ele>
        <time>2022-03-07T09:41:15.497Z</time>
      </trkpt>
      <trkpt lat="42.25375" lon="24.42146">
        <ele>276.57405</ele>
        <time>2022-03-07T09:41:18.506Z</time>
      </trkpt>
      <trkpt lat="42.25384" lon="24.42134">
        <ele>276.481821</ele>
        <time>2022-03-07T09:41:21.497Z</time>
      </trkpt>
      <trkpt lat="42.25393" lon="24.42122">
        <ele>276.274993</ele>
        <time>2022-03-07T09:41:24.515Z</time>
      </trkpt>
      <trkpt lat="42.25402" lon="24.4211">
        <ele>276.060304</ele>
        <time>2022-03-07T09:41:27.511Z</time>
      </trkpt>
      <trkpt lat="42.25412" lon="24.42097">
        <ele>275.84043</ele>
        <time>2022-03-07T09:41:30.499Z</time>
      </trkpt>
      <trkpt lat="42.25421" lon="24.42086">
        <ele>275.628739</ele>
        <time>2022-03-07T09:41:33.497Z</time>
      </trkpt>
      <trkpt lat="42.25431" lon="24.42075">
        <ele>275.412249</ele>
        <time>2022-03-07T09:41:36.505Z</time>
      </trkpt>
      <trkpt lat="42.25441" lon="24.42062">
        <ele>275.18983</ele>
        <time>2022-03-07T09:41:39.562Z</time>
      </trkpt>
      <trkpt lat="42.2545" lon="24.4205">
        <ele>274.968199</ele>
        <time>2022-03-07T09:41:42.485Z</time>
      </trkpt>
      <trkpt lat="42.2546" lon="24.42038">
        <ele>274.748276</ele>
        <time>2022-03-07T09:41:45.519Z</time>
      </trkpt>
      <trkpt lat="42.25467" lon="24.4203">
        <ele>274.597088</ele>
        <time>2022-03-07T09:41:47.494Z</time>
      </trkpt>
      <trkpt lat="42.25474" lon="24.42021">
        <ele>274.448372</ele>
        <time>2022-03-07T09:41:49.509Z</time>
      </trkpt>
      <trkpt lat="42.25483" lon="24.42009">
        <ele>274.228378</ele>
        <time>2022-03-07T09:41:52.514Z</time>
      </trkpt>
      <trkpt lat="42.25493" lon="24.41997">
        <ele>274.013338</ele>
        <time>2022-03-07T09:41:55.509Z</time>
      </trkpt>
      <trkpt lat="42.25502" lon="24.41985">
        <ele>273.800351</ele>
        <time>2022-03-07T09:41:58.510Z</time>
      </trkpt>
      <trkpt lat="42.25511" lon="24.41973">
        <ele>273.586517</ele>
        <time>2022-03-07T09:42:01.504Z</time>
      </trkpt>
      <trkpt lat="42.2552" lon="24.41961">
        <ele>273.527231</ele>
        <time>2022-03-07T09:42:04.514Z</time>
      </trkpt>
      <trkpt lat="42.2553" lon="24.41949">
        <ele>273.506389</ele>
        <time>2022-03-07T09:42:07.494Z</time>
      </trkpt>
      <trkpt lat="42.25539" lon="24.41938">
        <ele>273.485548</ele>
        <time>2022-03-07T09:42:10.493Z</time>
      </trkpt>
      <trkpt lat="42.25549" lon="24.41926">
        <ele>273.464292</ele>
        <time>2022-03-07T09:42:13.524Z</time>
      </trkpt>
      <trkpt lat="42.25558" lon="24.41914">
        <ele>273.443086</ele>
        <time>2022-03-07T09:42:16.501Z</time>
      </trkpt>
      <trkpt lat="42.25567" lon="24.41903">
        <ele>273.422806</ele>
        <time>2022-03-07T09:42:19.540Z</time>
      </trkpt>
      <trkpt lat="42.25576" lon="24.41892">
        <ele>273.402735</ele>
        <time>2022-03-07T09:42:22.487Z</time>
      </trkpt>
      <trkpt lat="42.25585" lon="24.41881">
        <ele>273.38387</ele>
        <time>2022-03-07T09:42:25.506Z</time>
      </trkpt>
      <trkpt lat="42.25594" lon="24.4187">
        <ele>273.364407</ele>
        <time>2022-03-07T09:42:28.497Z</time>
      </trkpt>
      <trkpt lat="42.25602" lon="24.41858">
        <ele>273.344163</ele>
        <time>2022-03-07T09:42:31.504Z</time>
      </trkpt>
      <trkpt lat="42.25612" lon="24.41847">
        <ele>273.323764</ele>
        <time>2022-03-07T09:42:34.499Z</time>
      </trkpt>
      <trkpt lat="42.25621" lon="24.41836">
        <ele>273.303187</ele>
        <time>2022-03-07T09:42:37.512Z</time>
      </trkpt>
      <trkpt lat="42.25631" lon="24.41825">
        <ele>273.282749</ele>
        <time>2022-03-07T09:42:40.504Z</time>
      </trkpt>
      <trkpt lat="42.2564" lon="24.41814">
        <ele>273.26215</ele>
        <time>2022-03-07T09:42:43.505Z</time>
      </trkpt>
      <trkpt lat="42.25649" lon="24.41802">
        <ele>273.339109</ele>
        <time>2022-03-07T09:42:46.506Z</time>
      </trkpt>
      <trkpt lat="42.25658" lon="24.41792">
        <ele>273.578431</ele>
        <time>2022-03-07T09:42:49.502Z</time>
      </trkpt>
      <trkpt lat="42.25667" lon="24.41781">
        <ele>273.814343</ele>
        <time>2022-03-07T09:42:52.546Z</time>
      </trkpt>
      <trkpt lat="42.25676" lon="24.4177">
        <ele>274.038255</ele>
        <time>2022-03-07T09:42:55.509Z</time>
      </trkpt>
      <trkpt lat="42.25684" lon="24.4176">
        <ele>274.262669</ele>
        <time>2022-03-07T09:42:58.508Z</time>
      </trkpt>
      <trkpt lat="42.25693" lon="24.41748">
        <ele>274.495861</ele>
        <time>2022-03-07T09:43:01.487Z</time>
      </trkpt>
      <trkpt lat="42.25702" lon="24.41737">
        <ele>274.730058</ele>
        <time>2022-03-07T09:43:04.502Z</time>
      </trkpt>
      <trkpt lat="42.2571" lon="24.41725">
        <ele>274.968672</ele>
        <time>2022-03-07T09:43:07.498Z</time>
      </trkpt>
      <trkpt lat="42.25719" lon="24.41714">
        <ele>275.208058</ele>
        <time>2022-03-07T09:43:10.515Z</time>
      </trkpt>
      <trkpt lat="42.25728" lon="24.41703">
        <ele>275.439639</ele>
        <time>2022-03-07T09:43:13.496Z</time>
      </trkpt>
      <trkpt lat="42.25737" lon="24.41692">
        <ele>275.676517</ele>
        <time>2022-03-07T09:43:16.507Z</time>
      </trkpt>
      <trkpt lat="42.25746" lon="24.41681">
        <ele>275.918688</ele>
        <time>2022-03-07T09:43:19.517Z</time>
      </trkpt>
      <trkpt lat="42.25756" lon="24.41669">
        <ele>276.164227</ele>
        <time>2022-03-07T09:43:22.496Z</time>
      </trkpt>
      <trkpt lat="42.25765" lon="24.41658">
        <ele>276.408412</ele>
        <time>2022-03-07T09:43:25.507Z</time>
      </trkpt>
      <trkpt lat="42.25774" lon="24.41647">
        <ele>276.645289</ele>
        <time>2022-03-07T09:43:28.495Z</time>
      </trkpt>
      <trkpt lat="42.25783" lon="24.41635">
        <ele>276.612776</ele>
        <time>2022-03-07T09:43:31.512Z</time>
      </trkpt>
      <trkpt lat="42.25792" lon="24.41623">
        <ele>276.381287</ele>
        <time>2022-03-07T09:43:34.499Z</time>
      </trkpt>
      <trkpt lat="42.25801" lon="24.41611">
        <ele>276.153517</ele>
        <time>2022-03-07T09:43:37.509Z</time>
      </trkpt>
      <trkpt lat="42.2581" lon="24.416">
        <ele>275.926326</ele>
        <time>2022-03-07T09:43:40.520Z</time>
      </trkpt>
      <trkpt lat="42.25819" lon="24.41587">
        <ele>275.692278</ele>
        <time>2022-03-07T09:43:43.505Z</time>
      </trkpt>
      <trkpt lat="42.25828" lon="24.41575">
        <ele>275.458535</ele>
        <time>2022-03-07T09:43:46.528Z</time>
      </trkpt>
      <trkpt lat="42.25837" lon="24.41564">
        <ele>275.230872</ele>
        <time>2022-03-07T09:43:49.502Z</time>
      </trkpt>
      <trkpt lat="42.25846" lon="24.41553">
        <ele>275.003682</ele>
        <time>2022-03-07T09:43:52.514Z</time>
      </trkpt>
      <trkpt lat="42.25855" lon="24.41541">
        <ele>274.778957</ele>
        <time>2022-03-07T09:43:55.496Z</time>
      </trkpt>
      <trkpt lat="42.25864" lon="24.4153">
        <ele>274.549024</ele>
        <time>2022-03-07T09:43:58.515Z</time>
      </trkpt>
      <trkpt lat="42.25874" lon="24.41518">
        <ele>274.316791</ele>
        <time>2022-03-07T09:44:01.526Z</time>
      </trkpt>
      <trkpt lat="42.25883" lon="24.41507">
        <ele>274.087337</ele>
        <time>2022-03-07T09:44:04.502Z</time>
      </trkpt>
      <trkpt lat="42.25892" lon="24.41496">
        <ele>273.859675</ele>
        <time>2022-03-07T09:44:07.504Z</time>
      </trkpt>
      <trkpt lat="42.25901" lon="24.41484">
        <ele>273.63432</ele>
        <time>2022-03-07T09:44:10.503Z</time>
      </trkpt>
      <trkpt lat="42.2591" lon="24.41473">
        <ele>273.465018</ele>
        <time>2022-03-07T09:44:13.533Z</time>
      </trkpt>
      <trkpt lat="42.25919" lon="24.41461">
        <ele>273.528049</ele>
        <time>2022-03-07T09:44:16.501Z</time>
      </trkpt>
      <trkpt lat="42.25929" lon="24.41449">
        <ele>273.591423</ele>
        <time>2022-03-07T09:44:19.513Z</time>
      </trkpt>
      <trkpt lat="42.25939" lon="24.41438">
        <ele>273.656556</ele>
        <time>2022-03-07T09:44:22.504Z</time>
      </trkpt>
      <trkpt lat="42.25948" lon="24.41426">
        <ele>273.720828</ele>
        <time>2022-03-07T09:44:25.519Z</time>
      </trkpt>
      <trkpt lat="42.25957" lon="24.41414">
        <ele>273.78322</ele>
        <time>2022-03-07T09:44:28.510Z</time>
      </trkpt>
      <trkpt lat="42.25966" lon="24.41403">
        <ele>273.84315</ele>
        <time>2022-03-07T09:44:31.495Z</time>
      </trkpt>
      <trkpt lat="42.25975" lon="24.41392">
        <ele>273.902455</ele>
        <time>2022-03-07T09:44:34.503Z</time>
      </trkpt>
      <trkpt lat="42.25984" lon="24.41382">
        <ele>273.962751</ele>
        <time>2022-03-07T09:44:37.490Z</time>
      </trkpt>
      <trkpt lat="42.25993" lon="24.4137">
        <ele>274.024768</ele>
        <time>2022-03-07T09:44:40.527Z</time>
      </trkpt>
      <trkpt lat="42.26003" lon="24.4136">
        <ele>274.085792</ele>
        <time>2022-03-07T09:44:43.513Z</time>
      </trkpt>
      <trkpt lat="42.26012" lon="24.4135">
        <ele>274.146308</ele>
        <time>2022-03-07T09:44:46.492Z</time>
      </trkpt>
      <trkpt lat="42.26022" lon="24.4134">
        <ele>274.207723</ele>
        <time>2022-03-07T09:44:49.508Z</time>
      </trkpt>
      <trkpt lat="42.26032" lon="24.4133">
        <ele>274.268292</ele>
        <time>2022-03-07T09:44:52.505Z</time>
      </trkpt>
      <trkpt lat="42.26041" lon="24.4132">
        <ele>274.326222</ele>
        <time>2022-03-07T09:44:55.496Z</time>
      </trkpt>
      <trkpt lat="42.26051" lon="24.41311">
        <ele>274.455991</ele>
        <time>2022-03-07T09:44:58.512Z</time>
      </trkpt>
      <trkpt lat="42.2606" lon="24.41302">
        <ele>274.608231</ele>
        <time>2022-03-07T09:45:01.494Z</time>
      </trkpt>
      <trkpt lat="42.26069" lon="24.41292">
        <ele>274.771382</ele>
        <time>2022-03-07T09:45:04.505Z</time>
      </trkpt>
      <trkpt lat="42.26079" lon="24.41283">
        <ele>274.937967</ele>
        <time>2022-03-07T09:45:07.529Z</time>
      </trkpt>
      <trkpt lat="42.26089" lon="24.41274">
        <ele>275.102706</ele>
        <time>2022-03-07T09:45:10.519Z</time>
      </trkpt>
      <trkpt lat="42.26099" lon="24.41264">
        <ele>275.276019</ele>
        <time>2022-03-07T09:45:13.532Z</time>
      </trkpt>
      <trkpt lat="42.26109" lon="24.41255">
        <ele>275.440799</ele>
        <time>2022-03-07T09:45:16.507Z</time>
      </trkpt>
      <trkpt lat="42.26119" lon="24.41244">
        <ele>275.618198</ele>
        <time>2022-03-07T09:45:19.504Z</time>
      </trkpt>
      <trkpt lat="42.2613" lon="24.41234">
        <ele>275.801956</ele>
        <time>2022-03-07T09:45:22.494Z</time>
      </trkpt>
      <trkpt lat="42.26141" lon="24.41223">
        <ele>275.988174</ele>
        <time>2022-03-07T09:45:25.497Z</time>
      </trkpt>
      <trkpt lat="42.26152" lon="24.41212">
        <ele>276.173155</ele>
        <time>2022-03-07T09:45:28.513Z</time>
      </trkpt>
      <trkpt lat="42.26162" lon="24.41201">
        <ele>276.353601</ele>
        <time>2022-03-07T09:45:31.510Z</time>
      </trkpt>
      <trkpt lat="42.26172" lon="24.41191">
        <ele>276.529382</ele>
        <time>2022-03-07T09:45:34.513Z</time>
      </trkpt>
      <trkpt lat="42.26183" lon="24.41181">
        <ele>276.709552</ele>
        <time>2022-03-07T09:45:37.502Z</time>
      </trkpt>
      <trkpt lat="42.26194" lon="24.41172">
        <ele>276.936859</ele>
        <time>2022-03-07T09:45:40.516Z</time>
      </trkpt>
      <trkpt lat="42.26203" lon="24.41161">
        <ele>277.290414</ele>
        <time>2022-03-07T09:45:43.514Z</time>
      </trkpt>
      <trkpt lat="42.26212" lon="24.4115">
        <ele>277.644359</ele>
        <time>2022-03-07T09:45:46.499Z</time>
      </trkpt>
      <trkpt lat="42.26221" lon="24.41136">
        <ele>278.020724</ele>
        <time>2022-03-07T09:45:49.500Z</time>
      </trkpt>
      <trkpt lat="42.26229" lon="24.41122">
        <ele>278.39573</ele>
        <time>2022-03-07T09:45:52.546Z</time>
      </trkpt>
      <trkpt lat="42.26237" lon="24.41108">
        <ele>278.771161</ele>
        <time>2022-03-07T09:45:55.494Z</time>
      </trkpt>
      <trkpt lat="42.26245" lon="24.41093">
        <ele>279.132999</ele>
        <time>2022-03-07T09:45:58.498Z</time>
      </trkpt>
      <trkpt lat="42.26252" lon="24.41079">
        <ele>279.499885</ele>
        <time>2022-03-07T09:46:01.510Z</time>
      </trkpt>
      <trkpt lat="42.26257" lon="24.41069">
        <ele>279.756304</ele>
        <time>2022-03-07T09:46:03.538Z</time>
      </trkpt>
      <trkpt lat="42.26261" lon="24.41058">
        <ele>280.016614</ele>
        <time>2022-03-07T09:46:05.509Z</time>
      </trkpt>
      <trkpt lat="42.26269" lon="24.41044">
        <ele>280.376535</ele>
        <time>2022-03-07T09:46:08.499Z</time>
      </trkpt>
      <trkpt lat="42.26276" lon="24.41029">
        <ele>280.756987</ele>
        <time>2022-03-07T09:46:11.494Z</time>
      </trkpt>
      <trkpt lat="42.26284" lon="24.41016">
        <ele>281.100052</ele>
        <time>2022-03-07T09:46:14.511Z</time>
      </trkpt>
      <trkpt lat="42.26291" lon="24.41002">
        <ele>281.45511</ele>
        <time>2022-03-07T09:46:17.509Z</time>
      </trkpt>
      <trkpt lat="42.26297" lon="24.40988">
        <ele>281.800864</ele>
        <time>2022-03-07T09:46:20.510Z</time>
      </trkpt>
      <trkpt lat="42.26304" lon="24.40974">
        <ele>282.096578</ele>
        <time>2022-03-07T09:46:23.515Z</time>
      </trkpt>
      <trkpt lat="42.26311" lon="24.40962">
        <ele>282.356211</ele>
        <time>2022-03-07T09:46:26.499Z</time>
      </trkpt>
      <trkpt lat="42.26318" lon="24.40949">
        <ele>282.621267</ele>
        <time>2022-03-07T09:46:29.519Z</time>
      </trkpt>
      <trkpt lat="42.26325" lon="24.40937">
        <ele>282.88145</ele>
        <time>2022-03-07T09:46:32.537Z</time>
      </trkpt>
      <trkpt lat="42.26334" lon="24.40925">
        <ele>283.159309</ele>
        <time>2022-03-07T09:46:35.506Z</time>
      </trkpt>
      <trkpt lat="42.26343" lon="24.40912">
        <ele>283.459997</ele>
        <time>2022-03-07T09:46:38.505Z</time>
      </trkpt>
      <trkpt lat="42.26349" lon="24.40903">
        <ele>283.671175</ele>
        <time>2022-03-07T09:46:40.534Z</time>
      </trkpt>
      <trkpt lat="42.26358" lon="24.4089">
        <ele>283.973755</ele>
        <time>2022-03-07T09:46:43.507Z</time>
      </trkpt>
      <trkpt lat="42.26364" lon="24.40881">
        <ele>284.179365</ele>
        <time>2022-03-07T09:46:45.520Z</time>
      </trkpt>
      <trkpt lat="42.26373" lon="24.40869">
        <ele>284.473588</ele>
        <time>2022-03-07T09:46:48.490Z</time>
      </trkpt>
      <trkpt lat="42.26381" lon="24.40857">
        <ele>284.736307</ele>
        <time>2022-03-07T09:46:51.507Z</time>
      </trkpt>
      <trkpt lat="42.2639" lon="24.40846">
        <ele>285.011328</ele>
        <time>2022-03-07T09:46:54.505Z</time>
      </trkpt>
      <trkpt lat="42.26396" lon="24.40837">
        <ele>285.219079</ele>
        <time>2022-03-07T09:46:56.503Z</time>
      </trkpt>
      <trkpt lat="42.26406" lon="24.40825">
        <ele>285.51353</ele>
        <time>2022-03-07T09:46:59.506Z</time>
      </trkpt>
      <trkpt lat="42.26415" lon="24.40813">
        <ele>285.809128</ele>
        <time>2022-03-07T09:47:02.481Z</time>
      </trkpt>
      <trkpt lat="42.26425" lon="24.40801">
        <ele>285.830495</ele>
        <time>2022-03-07T09:47:05.509Z</time>
      </trkpt>
      <trkpt lat="42.26434" lon="24.40789">
        <ele>285.341301</ele>
        <time>2022-03-07T09:47:08.551Z</time>
      </trkpt>
      <trkpt lat="42.26443" lon="24.40777">
        <ele>284.85557</ele>
        <time>2022-03-07T09:47:11.518Z</time>
      </trkpt>
      <trkpt lat="42.26452" lon="24.40766">
        <ele>284.376212</ele>
        <time>2022-03-07T09:47:14.494Z</time>
      </trkpt>
      <trkpt lat="42.26461" lon="24.40754">
        <ele>283.887019</ele>
        <time>2022-03-07T09:47:17.498Z</time>
      </trkpt>
      <trkpt lat="42.2647" lon="24.40742">
        <ele>283.396206</ele>
        <time>2022-03-07T09:47:20.520Z</time>
      </trkpt>
      <trkpt lat="42.2648" lon="24.4073">
        <ele>282.902624</ele>
        <time>2022-03-07T09:47:23.506Z</time>
      </trkpt>
      <trkpt lat="42.26487" lon="24.40722">
        <ele>282.550077</ele>
        <time>2022-03-07T09:47:25.514Z</time>
      </trkpt>
      <trkpt lat="42.26496" lon="24.40711">
        <ele>282.084106</ele>
        <time>2022-03-07T09:47:28.502Z</time>
      </trkpt>
      <trkpt lat="42.26505" lon="24.40699">
        <ele>281.586184</ele>
        <time>2022-03-07T09:47:31.544Z</time>
      </trkpt>
      <trkpt lat="42.26514" lon="24.40687">
        <ele>281.109215</ele>
        <time>2022-03-07T09:47:34.515Z</time>
      </trkpt>
      <trkpt lat="42.26524" lon="24.40675">
        <ele>280.599384</ele>
        <time>2022-03-07T09:47:37.499Z</time>
      </trkpt>
      <trkpt lat="42.26533" lon="24.40664">
        <ele>280.129537</ele>
        <time>2022-03-07T09:47:40.510Z</time>
      </trkpt>
      <trkpt lat="42.26542" lon="24.40651">
        <ele>279.624176</ele>
        <time>2022-03-07T09:47:43.503Z</time>
      </trkpt>
      <trkpt lat="42.2655" lon="24.40639">
        <ele>279.147208</ele>
        <time>2022-03-07T09:47:46.538Z</time>
      </trkpt>
      <trkpt lat="42.26559" lon="24.40627">
        <ele>279.081057</ele>
        <time>2022-03-07T09:47:49.513Z</time>
      </trkpt>
      <trkpt lat="42.26568" lon="24.40614">
        <ele>279.077071</ele>
        <time>2022-03-07T09:47:52.521Z</time>
      </trkpt>
      <trkpt lat="42.26578" lon="24.40603">
        <ele>279.073162</ele>
        <time>2022-03-07T09:47:55.497Z</time>
      </trkpt>
      <trkpt lat="42.26587" lon="24.40592">
        <ele>279.069397</ele>
        <time>2022-03-07T09:47:58.547Z</time>
      </trkpt>
      <trkpt lat="42.26598" lon="24.40581">
        <ele>279.065333</ele>
        <time>2022-03-07T09:48:01.509Z</time>
      </trkpt>
      <trkpt lat="42.26609" lon="24.40571">
        <ele>279.061345</ele>
        <time>2022-03-07T09:48:04.537Z</time>
      </trkpt>
      <trkpt lat="42.26621" lon="24.40563">
        <ele>279.057447</ele>
        <time>2022-03-07T09:48:07.514Z</time>
      </trkpt>
      <trkpt lat="42.26633" lon="24.40555">
        <ele>279.053373</ele>
        <time>2022-03-07T09:48:10.500Z</time>
      </trkpt>
      <trkpt lat="42.26644" lon="24.40547">
        <ele>279.049453</ele>
        <time>2022-03-07T09:48:13.528Z</time>
      </trkpt>
      <trkpt lat="42.26655" lon="24.40538">
        <ele>279.045672</ele>
        <time>2022-03-07T09:48:16.512Z</time>
      </trkpt>
      <trkpt lat="42.26665" lon="24.4053">
        <ele>279.041908</ele>
        <time>2022-03-07T09:48:19.494Z</time>
      </trkpt>
      <trkpt lat="42.26676" lon="24.40522">
        <ele>279.038128</ele>
        <time>2022-03-07T09:48:22.518Z</time>
      </trkpt>
      <trkpt lat="42.26687" lon="24.40513">
        <ele>279.034425</ele>
        <time>2022-03-07T09:48:25.507Z</time>
      </trkpt>
      <trkpt lat="42.26697" lon="24.40504">
        <ele>279.030663</ele>
        <time>2022-03-07T09:48:28.516Z</time>
      </trkpt>
      <trkpt lat="42.26708" lon="24.40497">
        <ele>278.955079</ele>
        <time>2022-03-07T09:48:31.513Z</time>
      </trkpt>
      <trkpt lat="42.2672" lon="24.40489">
        <ele>278.851845</ele>
        <time>2022-03-07T09:48:34.514Z</time>
      </trkpt>
      <trkpt lat="42.26731" lon="24.4048">
        <ele>278.751292</ele>
        <time>2022-03-07T09:48:37.530Z</time>
      </trkpt>
      <trkpt lat="42.26741" lon="24.40471">
        <ele>278.650386</ele>
        <time>2022-03-07T09:48:40.511Z</time>
      </trkpt>
      <trkpt lat="42.26752" lon="24.40462">
        <ele>278.547856</ele>
        <time>2022-03-07T09:48:43.505Z</time>
      </trkpt>
      <trkpt lat="42.26763" lon="24.40454">
        <ele>278.45124</ele>
        <time>2022-03-07T09:48:46.510Z</time>
      </trkpt>
      <trkpt lat="42.26773" lon="24.40446">
        <ele>278.354338</ele>
        <time>2022-03-07T09:48:49.522Z</time>
      </trkpt>
      <trkpt lat="42.26784" lon="24.40438">
        <ele>278.254769</ele>
        <time>2022-03-07T09:48:52.511Z</time>
      </trkpt>
      <trkpt lat="42.26795" lon="24.4043">
        <ele>278.155524</ele>
        <time>2022-03-07T09:48:55.506Z</time>
      </trkpt>
      <trkpt lat="42.26806" lon="24.40424">
        <ele>278.062835</ele>
        <time>2022-03-07T09:48:58.513Z</time>
      </trkpt>
      <trkpt lat="42.26816" lon="24.40419">
        <ele>277.979229</ele>
        <time>2022-03-07T09:49:01.504Z</time>
      </trkpt>
      <trkpt lat="42.26827" lon="24.40414">
        <ele>277.884319</ele>
        <time>2022-03-07T09:49:04.509Z</time>
      </trkpt>
      <trkpt lat="42.26838" lon="24.40408">
        <ele>277.791661</ele>
        <time>2022-03-07T09:49:07.514Z</time>
      </trkpt>
      <trkpt lat="42.2685" lon="24.40403">
        <ele>277.687498</ele>
        <time>2022-03-07T09:49:10.535Z</time>
      </trkpt>
      <trkpt lat="42.26863" lon="24.40397">
        <ele>277.627234</ele>
        <time>2022-03-07T09:49:13.514Z</time>
      </trkpt>
      <trkpt lat="42.26875" lon="24.4039">
        <ele>277.917433</ele>
        <time>2022-03-07T09:49:16.509Z</time>
      </trkpt>
      <trkpt lat="42.26887" lon="24.40384">
        <ele>278.201996</ele>
        <time>2022-03-07T09:49:19.509Z</time>
      </trkpt>
      <trkpt lat="42.26898" lon="24.40378">
        <ele>278.475069</ele>
        <time>2022-03-07T09:49:22.492Z</time>
      </trkpt>
      <trkpt lat="42.26909" lon="24.40369">
        <ele>278.747529</ele>
        <time>2022-03-07T09:49:25.527Z</time>
      </trkpt>
      <trkpt lat="42.26919" lon="24.40361">
        <ele>279.013025</ele>
        <time>2022-03-07T09:49:28.514Z</time>
      </trkpt>
      <trkpt lat="42.26928" lon="24.40352">
        <ele>279.271942</ele>
        <time>2022-03-07T09:49:31.528Z</time>
      </trkpt>
      <trkpt lat="42.26938" lon="24.40342">
        <ele>279.540172</ele>
        <time>2022-03-07T09:49:34.523Z</time>
      </trkpt>
      <trkpt lat="42.26948" lon="24.40334">
        <ele>279.802808</ele>
        <time>2022-03-07T09:49:37.491Z</time>
      </trkpt>
      <trkpt lat="42.26958" lon="24.40324">
        <ele>280.06467</ele>
        <time>2022-03-07T09:49:40.490Z</time>
      </trkpt>
      <trkpt lat="42.26968" lon="24.40315">
        <ele>280.332817</ele>
        <time>2022-03-07T09:49:43.515Z</time>
      </trkpt>
      <trkpt lat="42.26978" lon="24.40306">
        <ele>280.601879</ele>
        <time>2022-03-07T09:49:46.529Z</time>
      </trkpt>
      <trkpt lat="42.26988" lon="24.40297">
        <ele>280.874614</ele>
        <time>2022-03-07T09:49:49.545Z</time>
      </trkpt>
      <trkpt lat="42.26997" lon="24.40288">
        <ele>281.131778</ele>
        <time>2022-03-07T09:49:52.511Z</time>
      </trkpt>
      <trkpt lat="42.27007" lon="24.40278">
        <ele>281.409269</ele>
        <time>2022-03-07T09:49:55.513Z</time>
      </trkpt>
      <trkpt lat="42.27018" lon="24.40267">
        <ele>281.752797</ele>
        <time>2022-03-07T09:49:58.496Z</time>
      </trkpt>
      <trkpt lat="42.27028" lon="24.40257">
        <ele>282.19087</ele>
        <time>2022-03-07T09:50:01.494Z</time>
      </trkpt>
      <trkpt lat="42.27039" lon="24.40247">
        <ele>282.644276</ele>
        <time>2022-03-07T09:50:04.497Z</time>
      </trkpt>
      <trkpt lat="42.2705" lon="24.40238">
        <ele>283.096772</ele>
        <time>2022-03-07T09:50:07.500Z</time>
      </trkpt>
      <trkpt lat="42.27061" lon="24.40229">
        <ele>283.539397</ele>
        <time>2022-03-07T09:50:10.498Z</time>
      </trkpt>
      <trkpt lat="42.27071" lon="24.4022">
        <ele>283.948832</ele>
        <time>2022-03-07T09:50:13.499Z</time>
      </trkpt>
      <trkpt lat="42.27081" lon="24.40211">
        <ele>284.353607</ele>
        <time>2022-03-07T09:50:16.513Z</time>
      </trkpt>
      <trkpt lat="42.2709" lon="24.40202">
        <ele>284.763139</ele>
        <time>2022-03-07T09:50:19.507Z</time>
      </trkpt>
      <trkpt lat="42.271" lon="24.40192">
        <ele>285.188326</ele>
        <time>2022-03-07T09:50:22.598Z</time>
      </trkpt>
      <trkpt lat="42.2711" lon="24.40183">
        <ele>285.613123</ele>
        <time>2022-03-07T09:50:25.511Z</time>
      </trkpt>
      <trkpt lat="42.2712" lon="24.40173">
        <ele>286.029374</ele>
        <time>2022-03-07T09:50:28.513Z</time>
      </trkpt>
      <trkpt lat="42.2713" lon="24.40164">
        <ele>286.436147</ele>
        <time>2022-03-07T09:50:31.501Z</time>
      </trkpt>
      <trkpt lat="42.27139" lon="24.40155">
        <ele>286.845241</ele>
        <time>2022-03-07T09:50:34.516Z</time>
      </trkpt>
      <trkpt lat="42.27149" lon="24.40145">
        <ele>287.267657</ele>
        <time>2022-03-07T09:50:37.508Z</time>
      </trkpt>
      <trkpt lat="42.2716" lon="24.40136">
        <ele>287.698194</ele>
        <time>2022-03-07T09:50:40.518Z</time>
      </trkpt>
      <trkpt lat="42.27169" lon="24.40126">
        <ele>287.566075</ele>
        <time>2022-03-07T09:50:43.480Z</time>
      </trkpt>
      <trkpt lat="42.27179" lon="24.40116">
        <ele>287.261446</ele>
        <time>2022-03-07T09:50:46.531Z</time>
      </trkpt>
      <trkpt lat="42.27187" lon="24.40107">
        <ele>286.973181</ele>
        <time>2022-03-07T09:50:49.510Z</time>
      </trkpt>
      <trkpt lat="42.27196" lon="24.40099">
        <ele>286.681022</ele>
        <time>2022-03-07T09:50:52.479Z</time>
      </trkpt>
      <trkpt lat="42.27205" lon="24.40089">
        <ele>286.390008</ele>
        <time>2022-03-07T09:50:55.545Z</time>
      </trkpt>
      <trkpt lat="42.27214" lon="24.40081">
        <ele>286.097849</ele>
        <time>2022-03-07T09:50:58.549Z</time>
      </trkpt>
      <trkpt lat="42.27224" lon="24.40074">
        <ele>285.799734</ele>
        <time>2022-03-07T09:51:01.508Z</time>
      </trkpt>
      <trkpt lat="42.27235" lon="24.40069">
        <ele>285.512436</ele>
        <time>2022-03-07T09:51:04.490Z</time>
      </trkpt>
      <trkpt lat="42.27245" lon="24.40076">
        <ele>285.216133</ele>
        <time>2022-03-07T09:51:07.505Z</time>
      </trkpt>
      <trkpt lat="42.2725" lon="24.40089">
        <ele>284.937343</ele>
        <time>2022-03-07T09:51:10.545Z</time>
      </trkpt>
      <trkpt lat="42.27255" lon="24.40101">
        <ele>284.652539</ele>
        <time>2022-03-07T09:51:13.511Z</time>
      </trkpt>
      <trkpt lat="42.27261" lon="24.40115">
        <ele>284.345252</ele>
        <time>2022-03-07T09:51:16.504Z</time>
      </trkpt>
      <trkpt lat="42.27268" lon="24.40129">
        <ele>284.022077</ele>
        <time>2022-03-07T09:51:19.521Z</time>
      </trkpt>
      <trkpt lat="42.27275" lon="24.40142">
        <ele>283.696557</ele>
        <time>2022-03-07T09:51:22.511Z</time>
      </trkpt>
      <trkpt lat="42.27282" lon="24.40157">
        <ele>283.364197</ele>
        <time>2022-03-07T09:51:25.555Z</time>
      </trkpt>
      <trkpt lat="42.27289" lon="24.4017">
        <ele>283.057957</ele>
        <time>2022-03-07T09:51:28.534Z</time>
      </trkpt>
      <trkpt lat="42.27296" lon="24.40184">
        <ele>282.928621</ele>
        <time>2022-03-07T09:51:31.508Z</time>
      </trkpt>
      <trkpt lat="42.27303" lon="24.40197">
        <ele>282.798138</ele>
        <time>2022-03-07T09:51:34.508Z</time>
      </trkpt>
      <trkpt lat="42.27316" lon="24.40203">
        <ele>282.651786</ele>
        <time>2022-03-07T09:51:37.495Z</time>
      </trkpt>
      <trkpt lat="42.27328" lon="24.40198">
        <ele>282.507759</ele>
        <time>2022-03-07T09:51:40.502Z</time>
      </trkpt>
      <trkpt lat="42.2734" lon="24.40199">
        <ele>282.378242</ele>
        <time>2022-03-07T09:51:43.515Z</time>
      </trkpt>
      <trkpt lat="42.27352" lon="24.40201">
        <ele>282.249299</ele>
        <time>2022-03-07T09:51:46.513Z</time>
      </trkpt>
      <trkpt lat="42.27365" lon="24.402">
        <ele>282.107626</ele>
        <time>2022-03-07T09:51:49.507Z</time>
      </trkpt>
      <trkpt lat="42.27378" lon="24.402">
        <ele>281.964295</ele>
        <time>2022-03-07T09:51:52.513Z</time>
      </trkpt>
      <trkpt lat="42.27391" lon="24.40199">
        <ele>281.821968</ele>
        <time>2022-03-07T09:51:55.526Z</time>
      </trkpt>
      <trkpt lat="42.27404" lon="24.40197">
        <ele>281.681861</ele>
        <time>2022-03-07T09:51:58.517Z</time>
      </trkpt>
      <trkpt lat="42.27416" lon="24.40196">
        <ele>281.554655</ele>
        <time>2022-03-07T09:52:01.523Z</time>
      </trkpt>
      <trkpt lat="42.27427" lon="24.40194">
        <ele>281.4308</ele>
        <time>2022-03-07T09:52:04.531Z</time>
      </trkpt>
      <trkpt lat="42.27439" lon="24.40192">
        <ele>281.301945</ele>
        <time>2022-03-07T09:52:07.526Z</time>
      </trkpt>
      <trkpt lat="42.27452" lon="24.40191">
        <ele>281.161593</ele>
        <time>2022-03-07T09:52:10.510Z</time>
      </trkpt>
      <trkpt lat="42.27464" lon="24.40191">
        <ele>281.456186</ele>
        <time>2022-03-07T09:52:13.517Z</time>
      </trkpt>
      <trkpt lat="42.27475" lon="24.40193">
        <ele>281.891137</ele>
        <time>2022-03-07T09:52:16.506Z</time>
      </trkpt>
      <trkpt lat="42.27486" lon="24.40197">
        <ele>282.339141</ele>
        <time>2022-03-07T09:52:19.531Z</time>
      </trkpt>
      <trkpt lat="42.27496" lon="24.40202">
        <ele>282.76671</ele>
        <time>2022-03-07T09:52:22.557Z</time>
      </trkpt>
      <trkpt lat="42.27505" lon="24.40205">
        <ele>283.14456</ele>
        <time>2022-03-07T09:52:25.551Z</time>
      </trkpt>
      <trkpt lat="42.27517" lon="24.40209">
        <ele>283.63546</ele>
        <time>2022-03-07T09:52:29.527Z</time>
      </trkpt>
      <trkpt lat="42.27527" lon="24.40212">
        <ele>284.043395</ele>
        <time>2022-03-07T09:52:32.508Z</time>
      </trkpt>
      <trkpt lat="42.27536" lon="24.40216">
        <ele>284.422781</ele>
        <time>2022-03-07T09:52:35.514Z</time>
      </trkpt>
      <trkpt lat="42.27545" lon="24.40219">
        <ele>284.804622</ele>
        <time>2022-03-07T09:52:38.560Z</time>
      </trkpt>
      <trkpt lat="42.27556" lon="24.40217">
        <ele>285.237913</ele>
        <time>2022-03-07T09:52:41.499Z</time>
      </trkpt>
      <trkpt lat="42.27563" lon="24.40209">
        <ele>285.621657</ele>
        <time>2022-03-07T09:52:44.485Z</time>
      </trkpt>
      <trkpt lat="42.27569" lon="24.40199">
        <ele>285.990181</ele>
        <time>2022-03-07T09:52:47.491Z</time>
      </trkpt>
      <trkpt lat="42.27575" lon="24.40188">
        <ele>286.379877</ele>
        <time>2022-03-07T09:52:50.520Z</time>
      </trkpt>
      <trkpt lat="42.2758" lon="24.40176">
        <ele>286.807592</ele>
        <time>2022-03-07T09:52:53.502Z</time>
      </trkpt>
      <trkpt lat="42.27587" lon="24.40163">
        <ele>287.254509</ele>
        <time>2022-03-07T09:52:56.516Z</time>
      </trkpt>
      <trkpt lat="42.27594" lon="24.40152">
        <ele>287.704857</ele>
        <time>2022-03-07T09:52:59.520Z</time>
      </trkpt>
      <trkpt lat="42.276" lon="24.40139">
        <ele>288.142979</ele>
        <time>2022-03-07T09:53:02.521Z</time>
      </trkpt>
      <trkpt lat="42.27606" lon="24.40127">
        <ele>288.604422</ele>
        <time>2022-03-07T09:53:05.515Z</time>
      </trkpt>
      <trkpt lat="42.27613" lon="24.40116">
        <ele>289.080082</ele>
        <time>2022-03-07T09:53:08.521Z</time>
      </trkpt>
      <trkpt lat="42.27619" lon="24.40103">
        <ele>289.571521</ele>
        <time>2022-03-07T09:53:11.512Z</time>
      </trkpt>
      <trkpt lat="42.27626" lon="24.40092">
        <ele>290.03411</ele>
        <time>2022-03-07T09:53:14.530Z</time>
      </trkpt>
      <trkpt lat="42.27632" lon="24.40081">
        <ele>290.486244</ele>
        <time>2022-03-07T09:53:17.502Z</time>
      </trkpt>
      <trkpt lat="42.27639" lon="24.40069">
        <ele>290.980336</ele>
        <time>2022-03-07T09:53:20.524Z</time>
      </trkpt>
      <trkpt lat="42.27645" lon="24.40056">
        <ele>291.498094</ele>
        <time>2022-03-07T09:53:23.514Z</time>
      </trkpt>
      <trkpt lat="42.27652" lon="24.40045">
        <ele>291.963224</ele>
        <time>2022-03-07T09:53:26.494Z</time>
      </trkpt>
      <trkpt lat="42.27658" lon="24.40033">
        <ele>292.45462</ele>
        <time>2022-03-07T09:53:29.512Z</time>
      </trkpt>
      <trkpt lat="42.27665" lon="24.4002">
        <ele>292.95941</ele>
        <time>2022-03-07T09:53:32.509Z</time>
      </trkpt>
      <trkpt lat="42.2767" lon="24.40008">
        <ele>293.412531</ele>
        <time>2022-03-07T09:53:35.552Z</time>
      </trkpt>
      <trkpt lat="42.27676" lon="24.39998">
        <ele>293.83842</ele>
        <time>2022-03-07T09:53:38.511Z</time>
      </trkpt>
      <trkpt lat="42.27679" lon="24.39985">
        <ele>294.281429</ele>
        <time>2022-03-07T09:53:41.534Z</time>
      </trkpt>
      <trkpt lat="42.27683" lon="24.39973">
        <ele>294.723617</ele>
        <time>2022-03-07T09:53:44.516Z</time>
      </trkpt>
      <trkpt lat="42.27689" lon="24.3996">
        <ele>295.20747</ele>
        <time>2022-03-07T09:53:47.497Z</time>
      </trkpt>
      <trkpt lat="42.27694" lon="24.39947">
        <ele>295.694247</ele>
        <time>2022-03-07T09:53:50.510Z</time>
      </trkpt>
      <trkpt lat="42.27699" lon="24.39932">
        <ele>296.205738</ele>
        <time>2022-03-07T09:53:53.494Z</time>
      </trkpt>
      <trkpt lat="42.27705" lon="24.39921">
        <ele>296.527014</ele>
        <time>2022-03-07T09:53:56.533Z</time>
      </trkpt>
      <trkpt lat="42.2771" lon="24.39907">
        <ele>296.849634</ele>
        <time>2022-03-07T09:53:59.514Z</time>
      </trkpt>
      <trkpt lat="42.27715" lon="24.39892">
        <ele>297.182878</ele>
        <time>2022-03-07T09:54:02.508Z</time>
      </trkpt>
      <trkpt lat="42.2772" lon="24.39879">
        <ele>297.504909</ele>
        <time>2022-03-07T09:54:05.507Z</time>
      </trkpt>
      <trkpt lat="42.27727" lon="24.39865">
        <ele>297.835191</ele>
        <time>2022-03-07T09:54:08.517Z</time>
      </trkpt>
      <trkpt lat="42.27735" lon="24.39854">
        <ele>298.159767</ele>
        <time>2022-03-07T09:54:11.506Z</time>
      </trkpt>
      <trkpt lat="42.27742" lon="24.39845">
        <ele>298.452388</ele>
        <time>2022-03-07T09:54:14.527Z</time>
      </trkpt>
      <trkpt lat="42.27752" lon="24.39835">
        <ele>298.778696</ele>
        <time>2022-03-07T09:54:17.510Z</time>
      </trkpt>
      <trkpt lat="42.27759" lon="24.39826">
        <ele>299.071548</ele>
        <time>2022-03-07T09:54:20.527Z</time>
      </trkpt>
      <trkpt lat="42.27766" lon="24.39816">
        <ele>299.361876</ele>
        <time>2022-03-07T09:54:23.519Z</time>
      </trkpt>
      <trkpt lat="42.27776" lon="24.39808">
        <ele>299.670428</ele>
        <time>2022-03-07T09:54:26.507Z</time>
      </trkpt>
      <trkpt lat="42.27784" lon="24.39799">
        <ele>299.984387</ele>
        <time>2022-03-07T09:54:29.506Z</time>
      </trkpt>
      <trkpt lat="42.27792" lon="24.39789">
        <ele>300.285629</ele>
        <time>2022-03-07T09:54:32.527Z</time>
      </trkpt>
      <trkpt lat="42.27801" lon="24.3978">
        <ele>300.592563</ele>
        <time>2022-03-07T09:54:35.514Z</time>
      </trkpt>
      <trkpt lat="42.27809" lon="24.3977">
        <ele>300.893594</ele>
        <time>2022-03-07T09:54:38.498Z</time>
      </trkpt>
      <trkpt lat="42.27817" lon="24.3976">
        <ele>301.205109</ele>
        <time>2022-03-07T09:54:41.521Z</time>
      </trkpt>
      <trkpt lat="42.27824" lon="24.39751">
        <ele>301.070253</ele>
        <time>2022-03-07T09:54:44.511Z</time>
      </trkpt>
      <trkpt lat="42.27832" lon="24.39742">
        <ele>300.571731</ele>
        <time>2022-03-07T09:54:47.514Z</time>
      </trkpt>
      <trkpt lat="42.27839" lon="24.39732">
        <ele>300.081369</ele>
        <time>2022-03-07T09:54:50.540Z</time>
      </trkpt>
      <trkpt lat="42.27848" lon="24.39723">
        <ele>299.543033</ele>
        <time>2022-03-07T09:54:53.511Z</time>
      </trkpt>
      <trkpt lat="42.27856" lon="24.39713">
        <ele>299.027833</ele>
        <time>2022-03-07T09:54:56.497Z</time>
      </trkpt>
      <trkpt lat="42.27864" lon="24.39704">
        <ele>298.518577</ele>
        <time>2022-03-07T09:54:59.500Z</time>
      </trkpt>
      <trkpt lat="42.2787" lon="24.39693">
        <ele>298.022987</ele>
        <time>2022-03-07T09:55:02.541Z</time>
      </trkpt>
      <trkpt lat="42.27877" lon="24.39681">
        <ele>297.508357</ele>
        <time>2022-03-07T09:55:05.501Z</time>
      </trkpt>
      <trkpt lat="42.27882" lon="24.39669">
        <ele>296.994965</ele>
        <time>2022-03-07T09:55:08.506Z</time>
      </trkpt>
      <trkpt lat="42.27889" lon="24.39656">
        <ele>296.44914</ele>
        <time>2022-03-07T09:55:11.506Z</time>
      </trkpt>
      <trkpt lat="42.27896" lon="24.39643">
        <ele>295.880103</ele>
        <time>2022-03-07T09:55:14.493Z</time>
      </trkpt>
      <trkpt lat="42.27902" lon="24.39632">
        <ele>295.374204</ele>
        <time>2022-03-07T09:55:17.495Z</time>
      </trkpt>
      <trkpt lat="42.27907" lon="24.39619">
        <ele>294.866772</ele>
        <time>2022-03-07T09:55:20.549Z</time>
      </trkpt>
      <trkpt lat="42.27912" lon="24.39606">
        <ele>294.320395</ele>
        <time>2022-03-07T09:55:23.516Z</time>
      </trkpt>
      <trkpt lat="42.27919" lon="24.3959">
        <ele>293.689408</ele>
        <time>2022-03-07T09:55:26.510Z</time>
      </trkpt>
      <trkpt lat="42.27924" lon="24.39576">
        <ele>293.109174</ele>
        <time>2022-03-07T09:55:29.553Z</time>
      </trkpt>
      <trkpt lat="42.2793" lon="24.3956">
        <ele>292.54486</ele>
        <time>2022-03-07T09:55:32.504Z</time>
      </trkpt>
      <trkpt lat="42.27934" lon="24.39545">
        <ele>292.098182</ele>
        <time>2022-03-07T09:55:35.509Z</time>
      </trkpt>
      <trkpt lat="42.2794" lon="24.39533">
        <ele>291.715024</ele>
        <time>2022-03-07T09:55:38.512Z</time>
      </trkpt>
      <trkpt lat="42.27946" lon="24.39521">
        <ele>291.300895</ele>
        <time>2022-03-07T09:55:41.515Z</time>
      </trkpt>
      <trkpt lat="42.2795" lon="24.39507">
        <ele>290.890096</ele>
        <time>2022-03-07T09:55:44.510Z</time>
      </trkpt>
      <trkpt lat="42.27956" lon="24.39495">
        <ele>290.49581</ele>
        <time>2022-03-07T09:55:47.509Z</time>
      </trkpt>
      <trkpt lat="42.27967" lon="24.39492">
        <ele>290.06258</ele>
        <time>2022-03-07T09:55:50.513Z</time>
      </trkpt>
      <trkpt lat="42.27979" lon="24.39493">
        <ele>289.634664</ele>
        <time>2022-03-07T09:55:53.499Z</time>
      </trkpt>
      <trkpt lat="42.27991" lon="24.39494">
        <ele>289.179487</ele>
        <time>2022-03-07T09:55:56.506Z</time>
      </trkpt>
      <trkpt lat="42.28003" lon="24.39494">
        <ele>288.754099</ele>
        <time>2022-03-07T09:55:59.527Z</time>
      </trkpt>
      <trkpt lat="42.28014" lon="24.39494">
        <ele>288.343506</ele>
        <time>2022-03-07T09:56:02.553Z</time>
      </trkpt>
      <trkpt lat="42.28026" lon="24.39491">
        <ele>287.886659</ele>
        <time>2022-03-07T09:56:05.507Z</time>
      </trkpt>
      <trkpt lat="42.28038" lon="24.3949">
        <ele>287.438075</ele>
        <time>2022-03-07T09:56:08.511Z</time>
      </trkpt>
      <trkpt lat="42.28051" lon="24.3949">
        <ele>286.956931</ele>
        <time>2022-03-07T09:56:11.519Z</time>
      </trkpt>
      <trkpt lat="42.28064" lon="24.39489">
        <ele>286.47236</ele>
        <time>2022-03-07T09:56:14.504Z</time>
      </trkpt>
      <trkpt lat="42.28077" lon="24.39489">
        <ele>286.025503</ele>
        <time>2022-03-07T09:56:17.516Z</time>
      </trkpt>
      <trkpt lat="42.28089" lon="24.39489">
        <ele>285.882799</ele>
        <time>2022-03-07T09:56:20.513Z</time>
      </trkpt>
      <trkpt lat="42.28101" lon="24.39488">
        <ele>285.745914</ele>
        <time>2022-03-07T09:56:23.495Z</time>
      </trkpt>
      <trkpt lat="42.28114" lon="24.39488">
        <ele>285.600879</ele>
        <time>2022-03-07T09:56:26.521Z</time>
      </trkpt>
      <trkpt lat="42.28126" lon="24.39488">
        <ele>285.460566</ele>
        <time>2022-03-07T09:56:29.484Z</time>
      </trkpt>
      <trkpt lat="42.28139" lon="24.39487">
        <ele>285.313331</ele>
        <time>2022-03-07T09:56:32.492Z</time>
      </trkpt>
      <trkpt lat="42.28152" lon="24.39487">
        <ele>285.161432</ele>
        <time>2022-03-07T09:56:35.546Z</time>
      </trkpt>
      <trkpt lat="42.28165" lon="24.39486">
        <ele>285.015211</ele>
        <time>2022-03-07T09:56:38.511Z</time>
      </trkpt>
      <trkpt lat="42.28176" lon="24.39485">
        <ele>284.879049</ele>
        <time>2022-03-07T09:56:41.499Z</time>
      </trkpt>
      <trkpt lat="42.28188" lon="24.39484">
        <ele>284.746457</ele>
        <time>2022-03-07T09:56:44.510Z</time>
      </trkpt>
      <trkpt lat="42.28199" lon="24.39483">
        <ele>284.614097</ele>
        <time>2022-03-07T09:56:47.510Z</time>
      </trkpt>
      <trkpt lat="42.28212" lon="24.39483">
        <ele>284.474924</ele>
        <time>2022-03-07T09:56:50.495Z</time>
      </trkpt>
      <trkpt lat="42.28224" lon="24.39483">
        <ele>284.333439</ele>
        <time>2022-03-07T09:56:53.529Z</time>
      </trkpt>
      <trkpt lat="42.28236" lon="24.39482">
        <ele>284.189674</ele>
        <time>2022-03-07T09:56:56.506Z</time>
      </trkpt>
      <trkpt lat="42.28249" lon="24.39482">
        <ele>284.045788</ele>
        <time>2022-03-07T09:56:59.492Z</time>
      </trkpt>
      <trkpt lat="42.28261" lon="24.39482">
        <ele>283.963424</ele>
        <time>2022-03-07T09:57:02.558Z</time>
      </trkpt>
      <trkpt lat="42.28274" lon="24.39482">
        <ele>283.951582</ele>
        <time>2022-03-07T09:57:05.496Z</time>
      </trkpt>
      <trkpt lat="42.28287" lon="24.39481">
        <ele>283.938962</ele>
        <time>2022-03-07T09:57:08.499Z</time>
      </trkpt>
      <trkpt lat="42.28301" lon="24.39479">
        <ele>283.926386</ele>
        <time>2022-03-07T09:57:11.517Z</time>
      </trkpt>
      <trkpt lat="42.28313" lon="24.39477">
        <ele>283.914511</ele>
        <time>2022-03-07T09:57:14.508Z</time>
      </trkpt>
      <trkpt lat="42.28326" lon="24.39476">
        <ele>283.90236</ele>
        <time>2022-03-07T09:57:17.508Z</time>
      </trkpt>
      <trkpt lat="42.28339" lon="24.39475">
        <ele>283.89018</ele>
        <time>2022-03-07T09:57:20.507Z</time>
      </trkpt>
      <trkpt lat="42.28351" lon="24.39474">
        <ele>283.878796</ele>
        <time>2022-03-07T09:57:23.513Z</time>
      </trkpt>
      <trkpt lat="42.28363" lon="24.39473">
        <ele>283.867508</ele>
        <time>2022-03-07T09:57:26.513Z</time>
      </trkpt>
      <trkpt lat="42.28375" lon="24.39473">
        <ele>283.856232</ele>
        <time>2022-03-07T09:57:29.540Z</time>
      </trkpt>
      <trkpt lat="42.28387" lon="24.39473">
        <ele>283.844858</ele>
        <time>2022-03-07T09:57:32.513Z</time>
      </trkpt>
      <trkpt lat="42.28399" lon="24.39473">
        <ele>283.833581</ele>
        <time>2022-03-07T09:57:35.530Z</time>
      </trkpt>
      <trkpt lat="42.28411" lon="24.39473">
        <ele>283.822586</ele>
        <time>2022-03-07T09:57:38.538Z</time>
      </trkpt>
      <trkpt lat="42.28422" lon="24.39474">
        <ele>283.812319</ele>
        <time>2022-03-07T09:57:41.515Z</time>
      </trkpt>
      <trkpt lat="42.28434" lon="24.39475">
        <ele>283.800458</ele>
        <time>2022-03-07T09:57:44.502Z</time>
      </trkpt>
      <trkpt lat="42.28448" lon="24.39475">
        <ele>283.966011</ele>
        <time>2022-03-07T09:57:47.519Z</time>
      </trkpt>
      <trkpt lat="42.2846" lon="24.39476">
        <ele>284.13153</ele>
        <time>2022-03-07T09:57:50.495Z</time>
      </trkpt>
      <trkpt lat="42.28472" lon="24.39478">
        <ele>284.285928</ele>
        <time>2022-03-07T09:57:53.505Z</time>
      </trkpt>
      <trkpt lat="42.28483" lon="24.39479">
        <ele>284.43879</ele>
        <time>2022-03-07T09:57:56.519Z</time>
      </trkpt>
      <trkpt lat="42.28495" lon="24.39481">
        <ele>284.594279</ele>
        <time>2022-03-07T09:57:59.559Z</time>
      </trkpt>
      <trkpt lat="42.28507" lon="24.39482">
        <ele>284.754461</ele>
        <time>2022-03-07T09:58:02.497Z</time>
      </trkpt>
      <trkpt lat="42.2852" lon="24.39483">
        <ele>284.920046</ele>
        <time>2022-03-07T09:58:05.515Z</time>
      </trkpt>
      <trkpt lat="42.28531" lon="24.39484">
        <ele>285.076161</ele>
        <time>2022-03-07T09:58:08.520Z</time>
      </trkpt>
      <trkpt lat="42.28543" lon="24.39484">
        <ele>285.236072</ele>
        <time>2022-03-07T09:58:11.497Z</time>
      </trkpt>
      <trkpt lat="42.28556" lon="24.39483">
        <ele>285.400025</ele>
        <time>2022-03-07T09:58:14.512Z</time>
      </trkpt>
      <trkpt lat="42.28568" lon="24.39482">
        <ele>285.554996</ele>
        <time>2022-03-07T09:58:17.516Z</time>
      </trkpt>
      <trkpt lat="42.2858" lon="24.39482">
        <ele>285.722819</ele>
        <time>2022-03-07T09:58:20.493Z</time>
      </trkpt>
      <trkpt lat="42.2859" lon="24.39482">
        <ele>285.847061</ele>
        <time>2022-03-07T09:58:22.496Z</time>
      </trkpt>
      <trkpt lat="42.28599" lon="24.39481">
        <ele>285.9691</ele>
        <time>2022-03-07T09:58:24.511Z</time>
      </trkpt>
      <trkpt lat="42.2861" lon="24.39481">
        <ele>286.12239</ele>
        <time>2022-03-07T09:58:27.526Z</time>
      </trkpt>
      <trkpt lat="42.28623" lon="24.3948">
        <ele>286.197006</ele>
        <time>2022-03-07T09:58:30.525Z</time>
      </trkpt>
      <trkpt lat="42.28635" lon="24.3948">
        <ele>286.228273</ele>
        <time>2022-03-07T09:58:33.507Z</time>
      </trkpt>
      <trkpt lat="42.28646" lon="24.3948">
        <ele>286.256698</ele>
        <time>2022-03-07T09:58:36.524Z</time>
      </trkpt>
      <trkpt lat="42.28658" lon="24.39483">
        <ele>286.287758</ele>
        <time>2022-03-07T09:58:39.510Z</time>
      </trkpt>
      <trkpt lat="42.28669" lon="24.39486">
        <ele>286.316915</ele>
        <time>2022-03-07T09:58:42.513Z</time>
      </trkpt>
      <trkpt lat="42.2868" lon="24.39488">
        <ele>286.345607</ele>
        <time>2022-03-07T09:58:45.527Z</time>
      </trkpt>
      <trkpt lat="42.28692" lon="24.39492">
        <ele>286.378129</ele>
        <time>2022-03-07T09:58:48.514Z</time>
      </trkpt>
      <trkpt lat="42.28705" lon="24.39497">
        <ele>286.411396</ele>
        <time>2022-03-07T09:58:51.507Z</time>
      </trkpt>
      <trkpt lat="42.28718" lon="24.39502">
        <ele>286.445012</ele>
        <time>2022-03-07T09:58:54.530Z</time>
      </trkpt>
      <trkpt lat="42.2873" lon="24.39507">
        <ele>286.478479</ele>
        <time>2022-03-07T09:58:57.515Z</time>
      </trkpt>
      <trkpt lat="42.28741" lon="24.39512">
        <ele>286.509346</ele>
        <time>2022-03-07T09:59:00.546Z</time>
      </trkpt>
      <trkpt lat="42.28753" lon="24.39517">
        <ele>286.539449</ele>
        <time>2022-03-07T09:59:03.525Z</time>
      </trkpt>
      <trkpt lat="42.28764" lon="24.39521">
        <ele>286.568659</ele>
        <time>2022-03-07T09:59:06.509Z</time>
      </trkpt>
      <trkpt lat="42.28773" lon="24.39524">
        <ele>286.592729</ele>
        <time>2022-03-07T09:59:09.531Z</time>
      </trkpt>
      <trkpt lat="42.28782" lon="24.39527">
        <ele>286.616257</ele>
        <time>2022-03-07T09:59:12.519Z</time>
      </trkpt>
      <trkpt lat="42.28792" lon="24.39531">
        <ele>286.69372</ele>
        <time>2022-03-07T09:59:15.502Z</time>
      </trkpt>
      <trkpt lat="42.28804" lon="24.39535">
        <ele>286.908993</ele>
        <time>2022-03-07T09:59:18.501Z</time>
      </trkpt>
      <trkpt lat="42.28816" lon="24.39538">
        <ele>287.141341</ele>
        <time>2022-03-07T09:59:21.497Z</time>
      </trkpt>
      <trkpt lat="42.28828" lon="24.39539">
        <ele>287.370912</ele>
        <time>2022-03-07T09:59:24.508Z</time>
      </trkpt>
      <trkpt lat="42.28837" lon="24.39538">
        <ele>287.545955</ele>
        <time>2022-03-07T09:59:26.509Z</time>
      </trkpt>
      <trkpt lat="42.28846" lon="24.39536">
        <ele>287.720003</ele>
        <time>2022-03-07T09:59:28.556Z</time>
      </trkpt>
      <trkpt lat="42.28859" lon="24.39534">
        <ele>287.963547</ele>
        <time>2022-03-07T09:59:31.505Z</time>
      </trkpt>
      <trkpt lat="42.28872" lon="24.39533">
        <ele>288.205095</ele>
        <time>2022-03-07T09:59:34.518Z</time>
      </trkpt>
      <trkpt lat="42.28884" lon="24.39532">
        <ele>288.431046</ele>
        <time>2022-03-07T09:59:37.514Z</time>
      </trkpt>
      <trkpt lat="42.28895" lon="24.39531">
        <ele>288.647894</ele>
        <time>2022-03-07T09:59:40.516Z</time>
      </trkpt>
      <trkpt lat="42.28908" lon="24.39529">
        <ele>288.881154</ele>
        <time>2022-03-07T09:59:43.517Z</time>
      </trkpt>
      <trkpt lat="42.28919" lon="24.39527">
        <ele>289.099877</ele>
        <time>2022-03-07T09:59:46.510Z</time>
      </trkpt>
      <trkpt lat="42.28932" lon="24.39526">
        <ele>289.332327</ele>
        <time>2022-03-07T09:59:49.512Z</time>
      </trkpt>
      <trkpt lat="42.28945" lon="24.39524">
        <ele>289.581255</ele>
        <time>2022-03-07T09:59:52.518Z</time>
      </trkpt>
      <trkpt lat="42.28954" lon="24.39523">
        <ele>289.758765</ele>
        <time>2022-03-07T09:59:54.505Z</time>
      </trkpt>
      <trkpt lat="42.28966" lon="24.39523">
        <ele>289.984374</ele>
        <time>2022-03-07T09:59:57.508Z</time>
      </trkpt>
      <trkpt lat="42.28978" lon="24.39523">
        <ele>290.143182</ele>
        <time>2022-03-07T10:00:00.502Z</time>
      </trkpt>
      <trkpt lat="42.2899" lon="24.39523">
        <ele>290.288693</ele>
        <time>2022-03-07T10:00:03.498Z</time>
      </trkpt>
      <trkpt lat="42.29002" lon="24.39524">
        <ele>290.428406</ele>
        <time>2022-03-07T10:00:06.528Z</time>
      </trkpt>
      <trkpt lat="42.29014" lon="24.39526">
        <ele>290.575436</ele>
        <time>2022-03-07T10:00:09.506Z</time>
      </trkpt>
      <trkpt lat="42.29023" lon="24.39526">
        <ele>290.685778</ele>
        <time>2022-03-07T10:00:11.529Z</time>
      </trkpt>
      <trkpt lat="42.29032" lon="24.39526">
        <ele>290.794984</ele>
        <time>2022-03-07T10:00:13.504Z</time>
      </trkpt>
      <trkpt lat="42.29045" lon="24.39526">
        <ele>290.94896</ele>
        <time>2022-03-07T10:00:16.497Z</time>
      </trkpt>
      <trkpt lat="42.29057" lon="24.39527">
        <ele>291.098151</ele>
        <time>2022-03-07T10:00:19.518Z</time>
      </trkpt>
      <trkpt lat="42.2907" lon="24.39526">
        <ele>291.254641</ele>
        <time>2022-03-07T10:00:22.516Z</time>
      </trkpt>
      <trkpt lat="42.29083" lon="24.39522">
        <ele>291.41669</ele>
        <time>2022-03-07T10:00:25.496Z</time>
      </trkpt>
      <trkpt lat="42.29094" lon="24.39512">
        <ele>291.574892</ele>
        <time>2022-03-07T10:00:28.544Z</time>
      </trkpt>
      <trkpt lat="42.29102" lon="24.395">
        <ele>291.721763</ele>
        <time>2022-03-07T10:00:31.585Z</time>
      </trkpt>
      <trkpt lat="42.2911" lon="24.39487">
        <ele>291.87534</ele>
        <time>2022-03-07T10:00:34.530Z</time>
      </trkpt>
      <trkpt lat="42.29117" lon="24.39472">
        <ele>292.033257</ele>
        <time>2022-03-07T10:00:37.511Z</time>
      </trkpt>
      <trkpt lat="42.29125" lon="24.39459">
        <ele>292.186119</ele>
        <time>2022-03-07T10:00:40.494Z</time>
      </trkpt>
      <trkpt lat="42.29132" lon="24.39448">
        <ele>292.247262</ele>
        <time>2022-03-07T10:00:43.516Z</time>
      </trkpt>
      <trkpt lat="42.29138" lon="24.39435">
        <ele>292.302055</ele>
        <time>2022-03-07T10:00:46.512Z</time>
      </trkpt>
      <trkpt lat="42.29145" lon="24.39422">
        <ele>292.359442</ele>
        <time>2022-03-07T10:00:49.505Z</time>
      </trkpt>
      <trkpt lat="42.29152" lon="24.39408">
        <ele>292.422008</ele>
        <time>2022-03-07T10:00:52.500Z</time>
      </trkpt>
      <trkpt lat="42.2916" lon="24.39394">
        <ele>292.486045</ele>
        <time>2022-03-07T10:00:55.521Z</time>
      </trkpt>
      <trkpt lat="42.29166" lon="24.39384">
        <ele>292.531369</ele>
        <time>2022-03-07T10:00:57.504Z</time>
      </trkpt>
      <trkpt lat="42.29173" lon="24.3937">
        <ele>292.596265</ele>
        <time>2022-03-07T10:01:00.495Z</time>
      </trkpt>
      <trkpt lat="42.29181" lon="24.39355">
        <ele>292.662074</ele>
        <time>2022-03-07T10:01:03.504Z</time>
      </trkpt>
      <trkpt lat="42.29186" lon="24.39344">
        <ele>292.70954</ele>
        <time>2022-03-07T10:01:05.487Z</time>
      </trkpt>
      <trkpt lat="42.29192" lon="24.39334">
        <ele>292.757196</ele>
        <time>2022-03-07T10:01:07.515Z</time>
      </trkpt>
      <trkpt lat="42.29198" lon="24.39324">
        <ele>292.801924</ele>
        <time>2022-03-07T10:01:09.506Z</time>
      </trkpt>
      <trkpt lat="42.29206" lon="24.3931">
        <ele>292.865979</ele>
        <time>2022-03-07T10:01:12.546Z</time>
      </trkpt>
      <trkpt lat="42.29214" lon="24.39296">
        <ele>292.928854</ele>
        <time>2022-03-07T10:01:15.511Z</time>
      </trkpt>
      <trkpt lat="42.2922" lon="24.39286">
        <ele>292.976935</ele>
        <time>2022-03-07T10:01:17.516Z</time>
      </trkpt>
      <trkpt lat="42.29226" lon="24.39272">
        <ele>293.037203</ele>
        <time>2022-03-07T10:01:20.514Z</time>
      </trkpt>
      <trkpt lat="42.29233" lon="24.39259">
        <ele>293.053894</ele>
        <time>2022-03-07T10:01:23.527Z</time>
      </trkpt>
      <trkpt lat="42.2924" lon="24.39246">
        <ele>292.904663</ele>
        <time>2022-03-07T10:01:26.503Z</time>
      </trkpt>
      <trkpt lat="42.29247" lon="24.39232">
        <ele>292.745727</ele>
        <time>2022-03-07T10:01:29.521Z</time>
      </trkpt>
      <trkpt lat="42.29255" lon="24.39218">
        <ele>292.592811</ele>
        <time>2022-03-07T10:01:32.521Z</time>
      </trkpt>
      <trkpt lat="42.29262" lon="24.39205">
        <ele>292.443548</ele>
        <time>2022-03-07T10:01:35.529Z</time>
      </trkpt>
      <trkpt lat="42.29269" lon="24.39193">
        <ele>292.30098</ele>
        <time>2022-03-07T10:01:38.507Z</time>
      </trkpt>
      <trkpt lat="42.29276" lon="24.3918">
        <ele>292.149504</ele>
        <time>2022-03-07T10:01:41.512Z</time>
      </trkpt>
      <trkpt lat="42.29283" lon="24.39168">
        <ele>292.006187</ele>
        <time>2022-03-07T10:01:44.512Z</time>
      </trkpt>
      <trkpt lat="42.2929" lon="24.39154">
        <ele>291.859635</ele>
        <time>2022-03-07T10:01:47.492Z</time>
      </trkpt>
      <trkpt lat="42.29297" lon="24.39139">
        <ele>291.691581</ele>
        <time>2022-03-07T10:01:50.512Z</time>
      </trkpt>
      <trkpt lat="42.29305" lon="24.39124">
        <ele>291.523152</ele>
        <time>2022-03-07T10:01:53.539Z</time>
      </trkpt>
      <trkpt lat="42.2931" lon="24.39114">
        <ele>291.409272</ele>
        <time>2022-03-07T10:01:55.511Z</time>
      </trkpt>
      <trkpt lat="42.29316" lon="24.39104">
        <ele>291.293991</ele>
        <time>2022-03-07T10:01:57.495Z</time>
      </trkpt>
      <trkpt lat="42.29324" lon="24.39089">
        <ele>291.127708</ele>
        <time>2022-03-07T10:02:00.519Z</time>
      </trkpt>
      <trkpt lat="42.29329" lon="24.3908">
        <ele>291.016166</ele>
        <time>2022-03-07T10:02:02.491Z</time>
      </trkpt>
      <trkpt lat="42.29335" lon="24.3907">
        <ele>290.903883</ele>
        <time>2022-03-07T10:02:04.514Z</time>
      </trkpt>
      <trkpt lat="42.29342" lon="24.39055">
        <ele>290.995115</ele>
        <time>2022-03-07T10:02:07.517Z</time>
      </trkpt>
      <trkpt lat="42.2935" lon="24.39042">
        <ele>291.208179</ele>
        <time>2022-03-07T10:02:10.505Z</time>
      </trkpt>
      <trkpt lat="42.29357" lon="24.39029">
        <ele>291.41129</ele>
        <time>2022-03-07T10:02:13.512Z</time>
      </trkpt>
      <trkpt lat="42.29365" lon="24.39016">
        <ele>291.621694</ele>
        <time>2022-03-07T10:02:16.499Z</time>
      </trkpt>
      <trkpt lat="42.29373" lon="24.39003">
        <ele>291.828035</ele>
        <time>2022-03-07T10:02:19.518Z</time>
      </trkpt>
      <trkpt lat="42.2938" lon="24.38991">
        <ele>292.017289</ele>
        <time>2022-03-07T10:02:22.516Z</time>
      </trkpt>
      <trkpt lat="42.29388" lon="24.38979">
        <ele>292.214942</ele>
        <time>2022-03-07T10:02:25.497Z</time>
      </trkpt>
      <trkpt lat="42.29396" lon="24.38967">
        <ele>292.414637</ele>
        <time>2022-03-07T10:02:28.510Z</time>
      </trkpt>
      <trkpt lat="42.29403" lon="24.38955">
        <ele>292.61451</ele>
        <time>2022-03-07T10:02:31.508Z</time>
      </trkpt>
      <trkpt lat="42.29411" lon="24.38943">
        <ele>292.817034</ele>
        <time>2022-03-07T10:02:34.496Z</time>
      </trkpt>
      <trkpt lat="42.29419" lon="24.3893">
        <ele>293.017669</ele>
        <time>2022-03-07T10:02:37.504Z</time>
      </trkpt>
      <trkpt lat="42.29427" lon="24.38919">
        <ele>293.214564</ele>
        <time>2022-03-07T10:02:40.539Z</time>
      </trkpt>
      <trkpt lat="42.29434" lon="24.38906">
        <ele>293.411936</ele>
        <time>2022-03-07T10:02:43.511Z</time>
      </trkpt>
      <trkpt lat="42.29443" lon="24.38895">
        <ele>293.612455</ele>
        <time>2022-03-07T10:02:46.521Z</time>
      </trkpt>
      <trkpt lat="42.2945" lon="24.38884">
        <ele>293.801559</ele>
        <time>2022-03-07T10:02:49.517Z</time>
      </trkpt>
      <trkpt lat="42.29458" lon="24.38872">
        <ele>293.869308</ele>
        <time>2022-03-07T10:02:52.496Z</time>
      </trkpt>
      <trkpt lat="42.29465" lon="24.38863">
        <ele>293.862944</ele>
        <time>2022-03-07T10:02:54.499Z</time>
      </trkpt>
      <trkpt lat="42.29474" lon="24.38851">
        <ele>293.853666</ele>
        <time>2022-03-07T10:02:57.495Z</time>
      </trkpt>
      <trkpt lat="42.29483" lon="24.38838">
        <ele>293.844537</ele>
        <time>2022-03-07T10:03:00.517Z</time>
      </trkpt>
      <trkpt lat="42.29492" lon="24.38825">
        <ele>293.835611</ele>
        <time>2022-03-07T10:03:03.505Z</time>
      </trkpt>
      <trkpt lat="42.29501" lon="24.38814">
        <ele>293.827264</ele>
        <time>2022-03-07T10:03:06.520Z</time>
      </trkpt>
      <trkpt lat="42.29509" lon="24.38803">
        <ele>293.818867</ele>
        <time>2022-03-07T10:03:09.520Z</time>
      </trkpt>
      <trkpt lat="42.29518" lon="24.3879">
        <ele>293.809818</ele>
        <time>2022-03-07T10:03:12.501Z</time>
      </trkpt>
      <trkpt lat="42.29527" lon="24.38777">
        <ele>293.800684</ele>
        <time>2022-03-07T10:03:15.509Z</time>
      </trkpt>
      <trkpt lat="42.29535" lon="24.38764">
        <ele>293.791898</ele>
        <time>2022-03-07T10:03:18.502Z</time>
      </trkpt>
      <trkpt lat="42.29545" lon="24.38751">
        <ele>293.782548</ele>
        <time>2022-03-07T10:03:21.509Z</time>
      </trkpt>
      <trkpt lat="42.29554" lon="24.38738">
        <ele>293.773366</ele>
        <time>2022-03-07T10:03:24.499Z</time>
      </trkpt>
      <trkpt lat="42.29563" lon="24.38725">
        <ele>293.764151</ele>
        <time>2022-03-07T10:03:27.507Z</time>
      </trkpt>
      <trkpt lat="42.29572" lon="24.38713">
        <ele>293.755156</ele>
        <time>2022-03-07T10:03:30.507Z</time>
      </trkpt>
      <trkpt lat="42.29581" lon="24.38701">
        <ele>293.686748</ele>
        <time>2022-03-07T10:03:33.510Z</time>
      </trkpt>
      <trkpt lat="42.2959" lon="24.38689">
        <ele>293.465161</ele>
        <time>2022-03-07T10:03:36.514Z</time>
      </trkpt>
      <trkpt lat="42.29599" lon="24.38676">
        <ele>293.243596</ele>
        <time>2022-03-07T10:03:39.505Z</time>
      </trkpt>
      <trkpt lat="42.29607" lon="24.38665">
        <ele>293.031801</ele>
        <time>2022-03-07T10:03:42.506Z</time>
      </trkpt>
      <trkpt lat="42.29617" lon="24.38653">
        <ele>292.804532</ele>
        <time>2022-03-07T10:03:45.501Z</time>
      </trkpt>
      <trkpt lat="42.29626" lon="24.3864">
        <ele>292.581529</ele>
        <time>2022-03-07T10:03:48.519Z</time>
      </trkpt>
      <trkpt lat="42.29634" lon="24.38628">
        <ele>292.369783</ele>
        <time>2022-03-07T10:03:51.504Z</time>
      </trkpt>
      <trkpt lat="42.29642" lon="24.38616">
        <ele>292.16837</ele>
        <time>2022-03-07T10:03:54.520Z</time>
      </trkpt>
      <trkpt lat="42.2965" lon="24.38605">
        <ele>291.96208</ele>
        <time>2022-03-07T10:03:57.514Z</time>
      </trkpt>
      <trkpt lat="42.29658" lon="24.38593">
        <ele>291.757603</ele>
        <time>2022-03-07T10:04:00.526Z</time>
      </trkpt>
      <trkpt lat="42.29666" lon="24.38581">
        <ele>291.55272</ele>
        <time>2022-03-07T10:04:03.538Z</time>
      </trkpt>
      <trkpt lat="42.29675" lon="24.38569">
        <ele>291.333685</ele>
        <time>2022-03-07T10:04:06.503Z</time>
      </trkpt>
      <trkpt lat="42.29683" lon="24.38557">
        <ele>291.120576</ele>
        <time>2022-03-07T10:04:09.499Z</time>
      </trkpt>
      <trkpt lat="42.29692" lon="24.38544">
        <ele>290.904182</ele>
        <time>2022-03-07T10:04:12.509Z</time>
      </trkpt>
      <trkpt lat="42.29699" lon="24.38531">
        <ele>290.698364</ele>
        <time>2022-03-07T10:04:15.513Z</time>
      </trkpt>
      <trkpt lat="42.29707" lon="24.38517">
        <ele>290.62291</ele>
        <time>2022-03-07T10:04:18.514Z</time>
      </trkpt>
      <trkpt lat="42.29713" lon="24.38502">
        <ele>290.603888</ele>
        <time>2022-03-07T10:04:21.514Z</time>
      </trkpt>
      <trkpt lat="42.29719" lon="24.38485">
        <ele>290.583732</ele>
        <time>2022-03-07T10:04:24.508Z</time>
      </trkpt>
      <trkpt lat="42.29723" lon="24.38474">
        <ele>290.569989</ele>
        <time>2022-03-07T10:04:26.518Z</time>
      </trkpt>
      <trkpt lat="42.29727" lon="24.38462">
        <ele>290.555721</ele>
        <time>2022-03-07T10:04:28.512Z</time>
      </trkpt>
      <trkpt lat="42.29731" lon="24.38451">
        <ele>290.542255</ele>
        <time>2022-03-07T10:04:30.528Z</time>
      </trkpt>
      <trkpt lat="42.29735" lon="24.3844">
        <ele>290.528742</ele>
        <time>2022-03-07T10:04:32.502Z</time>
      </trkpt>
      <trkpt lat="42.29738" lon="24.38429">
        <ele>290.515194</ele>
        <time>2022-03-07T10:04:34.552Z</time>
      </trkpt>
      <trkpt lat="42.29742" lon="24.38418">
        <ele>290.501843</ele>
        <time>2022-03-07T10:04:36.496Z</time>
      </trkpt>
      <trkpt lat="42.29747" lon="24.38401">
        <ele>290.482574</ele>
        <time>2022-03-07T10:04:39.512Z</time>
      </trkpt>
      <trkpt lat="42.29751" lon="24.3839">
        <ele>290.469088</ele>
        <time>2022-03-07T10:04:41.540Z</time>
      </trkpt>
      <trkpt lat="42.29755" lon="24.38379">
        <ele>290.455304</ele>
        <time>2022-03-07T10:04:43.512Z</time>
      </trkpt>
      <trkpt lat="42.2976" lon="24.38362">
        <ele>290.435675</ele>
        <time>2022-03-07T10:04:46.519Z</time>
      </trkpt>
      <trkpt lat="42.29763" lon="24.38351">
        <ele>290.422379</ele>
        <time>2022-03-07T10:04:48.510Z</time>
      </trkpt>
      <trkpt lat="42.29767" lon="24.3834">
        <ele>290.408794</ele>
        <time>2022-03-07T10:04:50.508Z</time>
      </trkpt>
      <trkpt lat="42.29772" lon="24.38324">
        <ele>290.389807</ele>
        <time>2022-03-07T10:04:53.518Z</time>
      </trkpt>
      <trkpt lat="42.29778" lon="24.38308">
        <ele>290.370577</ele>
        <time>2022-03-07T10:04:56.510Z</time>
      </trkpt>
      <trkpt lat="42.29782" lon="24.38292">
        <ele>290.49366</ele>
        <time>2022-03-07T10:04:59.511Z</time>
      </trkpt>
      <trkpt lat="42.29786" lon="24.38279">
        <ele>290.599808</ele>
        <time>2022-03-07T10:05:02.520Z</time>
      </trkpt>
      <trkpt lat="42.29791" lon="24.38264">
        <ele>290.718342</ele>
        <time>2022-03-07T10:05:06.536Z</time>
      </trkpt>
      <trkpt lat="42.29796" lon="24.38251">
        <ele>290.829964</ele>
        <time>2022-03-07T10:05:10.510Z</time>
      </trkpt>
      <trkpt lat="42.298" lon="24.3824">
        <ele>290.921609</ele>
        <time>2022-03-07T10:05:13.513Z</time>
      </trkpt>
      <trkpt lat="42.29805" lon="24.38229">
        <ele>291.014889</ele>
        <time>2022-03-07T10:05:16.499Z</time>
      </trkpt>
      <trkpt lat="42.29812" lon="24.38217">
        <ele>291.129628</ele>
        <time>2022-03-07T10:05:20.547Z</time>
      </trkpt>
      <trkpt lat="42.29818" lon="24.38207">
        <ele>291.224511</ele>
        <time>2022-03-07T10:05:23.518Z</time>
      </trkpt>
      <trkpt lat="42.29827" lon="24.38197">
        <ele>291.339843</ele>
        <time>2022-03-07T10:05:26.521Z</time>
      </trkpt>
      <trkpt lat="42.29834" lon="24.38187">
        <ele>291.442859</ele>
        <time>2022-03-07T10:05:29.507Z</time>
      </trkpt>
      <trkpt lat="42.29842" lon="24.38175">
        <ele>291.559369</ele>
        <time>2022-03-07T10:05:32.514Z</time>
      </trkpt>
      <trkpt lat="42.29852" lon="24.38163">
        <ele>291.689613</ele>
        <time>2022-03-07T10:05:35.511Z</time>
      </trkpt>
      <trkpt lat="42.29862" lon="24.38152">
        <ele>291.820652</ele>
        <time>2022-03-07T10:05:38.548Z</time>
      </trkpt>
      <trkpt lat="42.29872" lon="24.38141">
        <ele>291.945638</ele>
        <time>2022-03-07T10:05:41.530Z</time>
      </trkpt>
      <trkpt lat="42.29882" lon="24.38132">
        <ele>292.071531</ele>
        <time>2022-03-07T10:05:44.512Z</time>
      </trkpt>
      <trkpt lat="42.29891" lon="24.38124">
        <ele>292.157192</ele>
        <time>2022-03-07T10:05:47.552Z</time>
      </trkpt>
      <trkpt lat="42.29901" lon="24.38116">
        <ele>292.078505</ele>
        <time>2022-03-07T10:05:50.510Z</time>
      </trkpt>
      <trkpt lat="42.29911" lon="24.38111">
        <ele>292.004362</ele>
        <time>2022-03-07T10:05:53.520Z</time>
      </trkpt>
      <trkpt lat="42.2992" lon="24.38106">
        <ele>291.933624</ele>
        <time>2022-03-07T10:05:56.519Z</time>
      </trkpt>
      <trkpt lat="42.2993" lon="24.38102">
        <ele>291.862011</ele>
        <time>2022-03-07T10:05:59.515Z</time>
      </trkpt>
      <trkpt lat="42.29941" lon="24.38098">
        <ele>291.783374</ele>
        <time>2022-03-07T10:06:02.517Z</time>
      </trkpt>
      <trkpt lat="42.29952" lon="24.38094">
        <ele>291.701308</ele>
        <time>2022-03-07T10:06:05.510Z</time>
      </trkpt>
      <trkpt lat="42.29964" lon="24.38091">
        <ele>291.621368</ele>
        <time>2022-03-07T10:06:08.518Z</time>
      </trkpt>
      <trkpt lat="42.29975" lon="24.38088">
        <ele>291.539954</ele>
        <time>2022-03-07T10:06:11.514Z</time>
      </trkpt>
      <trkpt lat="42.29986" lon="24.38085">
        <ele>291.459126</ele>
        <time>2022-03-07T10:06:14.514Z</time>
      </trkpt>
      <trkpt lat="42.29998" lon="24.38083">
        <ele>291.37955</ele>
        <time>2022-03-07T10:06:17.507Z</time>
      </trkpt>
      <trkpt lat="42.30008" lon="24.38079">
        <ele>291.302378</ele>
        <time>2022-03-07T10:06:20.549Z</time>
      </trkpt>
      <trkpt lat="42.30018" lon="24.38076">
        <ele>291.230774</ele>
        <time>2022-03-07T10:06:23.506Z</time>
      </trkpt>
      <trkpt lat="42.30027" lon="24.38071">
        <ele>291.162849</ele>
        <time>2022-03-07T10:06:26.535Z</time>
      </trkpt>
      <trkpt lat="42.30036" lon="24.38066">
        <ele>291.094034</ele>
        <time>2022-03-07T10:06:29.505Z</time>
      </trkpt>
      <trkpt lat="42.30045" lon="24.38059">
        <ele>291.023328</ele>
        <time>2022-03-07T10:06:32.514Z</time>
      </trkpt>
      <trkpt lat="42.30053" lon="24.38051">
        <ele>290.953341</ele>
        <time>2022-03-07T10:06:35.509Z</time>
      </trkpt>
      <trkpt lat="42.30061" lon="24.38044">
        <ele>290.94178</ele>
        <time>2022-03-07T10:06:38.515Z</time>
      </trkpt>
      <trkpt lat="42.30069" lon="24.38036">
        <ele>291.042838</ele>
        <time>2022-03-07T10:06:41.518Z</time>
      </trkpt>
      <trkpt lat="42.30076" lon="24.38028">
        <ele>291.144591</ele>
        <time>2022-03-07T10:06:44.518Z</time>
      </trkpt>
      <trkpt lat="42.30084" lon="24.38019">
        <ele>291.254411</ele>
        <time>2022-03-07T10:06:47.519Z</time>
      </trkpt>
      <trkpt lat="42.30093" lon="24.3801">
        <ele>291.374327</ele>
        <time>2022-03-07T10:06:50.513Z</time>
      </trkpt>
      <trkpt lat="42.30102" lon="24.38002">
        <ele>291.48981</ele>
        <time>2022-03-07T10:06:53.512Z</time>
      </trkpt>
      <trkpt lat="42.30111" lon="24.37993">
        <ele>291.599711</ele>
        <time>2022-03-07T10:06:56.504Z</time>
      </trkpt>
      <trkpt lat="42.3012" lon="24.37987">
        <ele>291.713092</ele>
        <time>2022-03-07T10:06:59.517Z</time>
      </trkpt>
      <trkpt lat="42.3013" lon="24.37979">
        <ele>291.832628</ele>
        <time>2022-03-07T10:07:02.509Z</time>
      </trkpt>
      <trkpt lat="42.3014" lon="24.37972">
        <ele>291.949753</ele>
        <time>2022-03-07T10:07:05.550Z</time>
      </trkpt>
      <trkpt lat="42.3015" lon="24.37966">
        <ele>292.069268</ele>
        <time>2022-03-07T10:07:08.525Z</time>
      </trkpt>
      <trkpt lat="42.3016" lon="24.37961">
        <ele>292.184755</ele>
        <time>2022-03-07T10:07:11.497Z</time>
      </trkpt>
      <trkpt lat="42.30171" lon="24.37956">
        <ele>292.305513</ele>
        <time>2022-03-07T10:07:14.516Z</time>
      </trkpt>
      <trkpt lat="42.30183" lon="24.37951">
        <ele>292.438853</ele>
        <time>2022-03-07T10:07:17.517Z</time>
      </trkpt>
      <trkpt lat="42.30194" lon="24.37946">
        <ele>292.563881</ele>
        <time>2022-03-07T10:07:20.499Z</time>
      </trkpt>
      <trkpt lat="42.30206" lon="24.3794">
        <ele>292.693558</ele>
        <time>2022-03-07T10:07:23.506Z</time>
      </trkpt>
      <trkpt lat="42.30217" lon="24.37935">
        <ele>292.817306</ele>
        <time>2022-03-07T10:07:26.520Z</time>
      </trkpt>
      <trkpt lat="42.30228" lon="24.37929">
        <ele>292.882565</ele>
        <time>2022-03-07T10:07:29.507Z</time>
      </trkpt>
      <trkpt lat="42.30239" lon="24.37924">
        <ele>292.949022</ele>
        <time>2022-03-07T10:07:32.509Z</time>
      </trkpt>
      <trkpt lat="42.30251" lon="24.37918">
        <ele>293.018125</ele>
        <time>2022-03-07T10:07:35.511Z</time>
      </trkpt>
      <trkpt lat="42.30262" lon="24.37913">
        <ele>293.084873</ele>
        <time>2022-03-07T10:07:38.509Z</time>
      </trkpt>
      <trkpt lat="42.30274" lon="24.37907">
        <ele>293.158102</ele>
        <time>2022-03-07T10:07:41.506Z</time>
      </trkpt>
      <trkpt lat="42.30286" lon="24.37901">
        <ele>293.227873</ele>
        <time>2022-03-07T10:07:44.549Z</time>
      </trkpt>
      <trkpt lat="42.30297" lon="24.37895">
        <ele>293.295387</ele>
        <time>2022-03-07T10:07:47.515Z</time>
      </trkpt>
      <trkpt lat="42.30308" lon="24.37889">
        <ele>293.365661</ele>
        <time>2022-03-07T10:07:50.516Z</time>
      </trkpt>
      <trkpt lat="42.3032" lon="24.37881">
        <ele>293.437298</ele>
        <time>2022-03-07T10:07:53.498Z</time>
      </trkpt>
      <trkpt lat="42.30328" lon="24.37875">
        <ele>293.488928</ele>
        <time>2022-03-07T10:07:55.567Z</time>
      </trkpt>
      <trkpt lat="42.3034" lon="24.37866">
        <ele>293.56666</ele>
        <time>2022-03-07T10:07:58.510Z</time>
      </trkpt>
      <trkpt lat="42.30351" lon="24.37855">
        <ele>293.64308</ele>
        <time>2022-03-07T10:08:01.519Z</time>
      </trkpt>
      <trkpt lat="42.30358" lon="24.37848">
        <ele>293.69437</ele>
        <time>2022-03-07T10:08:03.510Z</time>
      </trkpt>
      <trkpt lat="42.30366" lon="24.37841">
        <ele>293.745133</ele>
        <time>2022-03-07T10:08:05.510Z</time>
      </trkpt>
      <trkpt lat="42.30373" lon="24.37834">
        <ele>293.796226</ele>
        <time>2022-03-07T10:08:07.509Z</time>
      </trkpt>
      <trkpt lat="42.30383" lon="24.37822">
        <ele>293.735964</ele>
        <time>2022-03-07T10:08:10.547Z</time>
      </trkpt>
      <trkpt lat="42.3039" lon="24.37814">
        <ele>293.633161</ele>
        <time>2022-03-07T10:08:12.506Z</time>
      </trkpt>
      <trkpt lat="42.30399" lon="24.37803">
        <ele>293.495622</ele>
        <time>2022-03-07T10:08:15.510Z</time>
      </trkpt>
      <trkpt lat="42.3041" lon="24.37793">
        <ele>293.354103</ele>
        <time>2022-03-07T10:08:18.511Z</time>
      </trkpt>
      <trkpt lat="42.3042" lon="24.37784">
        <ele>293.215401</ele>
        <time>2022-03-07T10:08:21.507Z</time>
      </trkpt>
      <trkpt lat="42.30429" lon="24.37773">
        <ele>293.078417</ele>
        <time>2022-03-07T10:08:24.503Z</time>
      </trkpt>
      <trkpt lat="42.30439" lon="24.37763">
        <ele>292.940426</ele>
        <time>2022-03-07T10:08:27.511Z</time>
      </trkpt>
      <trkpt lat="42.30449" lon="24.37753">
        <ele>292.801542</ele>
        <time>2022-03-07T10:08:30.506Z</time>
      </trkpt>
      <trkpt lat="42.30457" lon="24.37744">
        <ele>292.677979</ele>
        <time>2022-03-07T10:08:33.501Z</time>
      </trkpt>
      <trkpt lat="42.30467" lon="24.37734">
        <ele>292.545164</ele>
        <time>2022-03-07T10:08:36.521Z</time>
      </trkpt>
      <trkpt lat="42.30478" lon="24.37725">
        <ele>292.403527</ele>
        <time>2022-03-07T10:08:39.576Z</time>
      </trkpt>
      <trkpt lat="42.30489" lon="24.37717">
        <ele>292.260073</ele>
        <time>2022-03-07T10:08:42.515Z</time>
      </trkpt>
      <trkpt lat="42.30501" lon="24.37712">
        <ele>292.119767</ele>
        <time>2022-03-07T10:08:45.510Z</time>
      </trkpt>
      <trkpt lat="42.30514" lon="24.37708">
        <ele>291.97629</ele>
        <time>2022-03-07T10:08:48.520Z</time>
      </trkpt>
      <trkpt lat="42.30526" lon="24.37705">
        <ele>291.833295</ele>
        <time>2022-03-07T10:08:51.510Z</time>
      </trkpt>
      <trkpt lat="42.30539" lon="24.37703">
        <ele>292.218597</ele>
        <time>2022-03-07T10:08:54.506Z</time>
      </trkpt>
      <trkpt lat="42.30551" lon="24.377">
        <ele>292.700229</ele>
        <time>2022-03-07T10:08:57.520Z</time>
      </trkpt>
      <trkpt lat="42.30564" lon="24.37697">
        <ele>293.178112</ele>
        <time>2022-03-07T10:09:00.494Z</time>
      </trkpt>
      <trkpt lat="42.30575" lon="24.37695">
        <ele>293.632132</ele>
        <time>2022-03-07T10:09:03.507Z</time>
      </trkpt>
      <trkpt lat="42.30587" lon="24.37692">
        <ele>294.074714</ele>
        <time>2022-03-07T10:09:06.554Z</time>
      </trkpt>
      <trkpt lat="42.30597" lon="24.37689">
        <ele>294.470351</ele>
        <time>2022-03-07T10:09:09.509Z</time>
      </trkpt>
      <trkpt lat="42.30607" lon="24.37687">
        <ele>294.870064</ele>
        <time>2022-03-07T10:09:12.509Z</time>
      </trkpt>
      <trkpt lat="42.30618" lon="24.37684">
        <ele>295.280084</ele>
        <time>2022-03-07T10:09:15.533Z</time>
      </trkpt>
      <trkpt lat="42.30628" lon="24.37682">
        <ele>295.666973</ele>
        <time>2022-03-07T10:09:18.551Z</time>
      </trkpt>
      <trkpt lat="42.30637" lon="24.37681">
        <ele>296.014266</ele>
        <time>2022-03-07T10:09:21.506Z</time>
      </trkpt>
      <trkpt lat="42.30648" lon="24.3768">
        <ele>296.426961</ele>
        <time>2022-03-07T10:09:25.511Z</time>
      </trkpt>
      <trkpt lat="42.30659" lon="24.37679">
        <ele>296.831078</ele>
        <time>2022-03-07T10:09:29.524Z</time>
      </trkpt>
      <trkpt lat="42.30668" lon="24.37678">
        <ele>297.182417</ele>
        <time>2022-03-07T10:09:32.515Z</time>
      </trkpt>
      <trkpt lat="42.30677" lon="24.37675">
        <ele>297.533816</ele>
        <time>2022-03-07T10:09:35.506Z</time>
      </trkpt>
      <trkpt lat="42.30686" lon="24.37673">
        <ele>297.877734</ele>
        <time>2022-03-07T10:09:38.515Z</time>
      </trkpt>
      <trkpt lat="42.30695" lon="24.37671">
        <ele>298.223991</ele>
        <time>2022-03-07T10:09:41.513Z</time>
      </trkpt>
      <trkpt lat="42.30705" lon="24.37669">
        <ele>298.602083</ele>
        <time>2022-03-07T10:09:44.538Z</time>
      </trkpt>
      <trkpt lat="42.30715" lon="24.37667">
        <ele>298.735289</ele>
        <time>2022-03-07T10:09:47.495Z</time>
      </trkpt>
      <trkpt lat="42.30725" lon="24.37665">
        <ele>298.831082</ele>
        <time>2022-03-07T10:09:50.521Z</time>
      </trkpt>
      <trkpt lat="42.30737" lon="24.37663">
        <ele>298.939091</ele>
        <time>2022-03-07T10:09:53.507Z</time>
      </trkpt>
      <trkpt lat="42.30747" lon="24.37661">
        <ele>299.037072</ele>
        <time>2022-03-07T10:09:56.514Z</time>
      </trkpt>
      <trkpt lat="42.30759" lon="24.3766">
        <ele>299.144231</ele>
        <time>2022-03-07T10:09:59.508Z</time>
      </trkpt>
      <trkpt lat="42.30769" lon="24.37656">
        <ele>299.247607</ele>
        <time>2022-03-07T10:10:02.502Z</time>
      </trkpt>
      <trkpt lat="42.3078" lon="24.37653">
        <ele>299.351601</ele>
        <time>2022-03-07T10:10:05.517Z</time>
      </trkpt>
      <trkpt lat="42.30791" lon="24.37649">
        <ele>299.45444</ele>
        <time>2022-03-07T10:10:08.525Z</time>
      </trkpt>
      <trkpt lat="42.30801" lon="24.37644">
        <ele>299.557727</ele>
        <time>2022-03-07T10:10:11.543Z</time>
      </trkpt>
      <trkpt lat="42.3081" lon="24.37637">
        <ele>299.653176</ele>
        <time>2022-03-07T10:10:14.515Z</time>
      </trkpt>
      <trkpt lat="42.30819" lon="24.37629">
        <ele>299.755275</ele>
        <time>2022-03-07T10:10:17.541Z</time>
      </trkpt>
      <trkpt lat="42.30829" lon="24.37621">
        <ele>299.86163</ele>
        <time>2022-03-07T10:10:20.523Z</time>
      </trkpt>
      <trkpt lat="42.30839" lon="24.3761">
        <ele>299.980156</ele>
        <time>2022-03-07T10:10:23.521Z</time>
      </trkpt>
      <trkpt lat="42.30849" lon="24.376">
        <ele>300.096467</ele>
        <time>2022-03-07T10:10:26.514Z</time>
      </trkpt>
      <trkpt lat="42.30858" lon="24.37589">
        <ele>300.209862</ele>
        <time>2022-03-07T10:10:29.513Z</time>
      </trkpt>
      <trkpt lat="42.30867" lon="24.37579">
        <ele>300.317183</ele>
        <time>2022-03-07T10:10:32.506Z</time>
      </trkpt>
      <trkpt lat="42.30876" lon="24.3757">
        <ele>300.300362</ele>
        <time>2022-03-07T10:10:35.521Z</time>
      </trkpt>
      <trkpt lat="42.30884" lon="24.3756">
        <ele>300.272133</ele>
        <time>2022-03-07T10:10:38.507Z</time>
      </trkpt>
      <trkpt lat="42.30892" lon="24.3755">
        <ele>300.243429</ele>
        <time>2022-03-07T10:10:41.520Z</time>
      </trkpt>
      <trkpt lat="42.309" lon="24.37541">
        <ele>300.216155</ele>
        <time>2022-03-07T10:10:44.504Z</time>
      </trkpt>
      <trkpt lat="42.30907" lon="24.37532">
        <ele>300.189557</ele>
        <time>2022-03-07T10:10:47.515Z</time>
      </trkpt>
      <trkpt lat="42.30915" lon="24.37524">
        <ele>300.163426</ele>
        <time>2022-03-07T10:10:50.535Z</time>
      </trkpt>
      <trkpt lat="42.30924" lon="24.37514">
        <ele>300.132881</ele>
        <time>2022-03-07T10:10:54.525Z</time>
      </trkpt>
      <trkpt lat="42.30933" lon="24.37503">
        <ele>300.101784</ele>
        <time>2022-03-07T10:10:58.499Z</time>
      </trkpt>
      <trkpt lat="42.30941" lon="24.37495">
        <ele>300.075859</ele>
        <time>2022-03-07T10:11:01.546Z</time>
      </trkpt>
      <trkpt lat="42.30948" lon="24.37487">
        <ele>300.051276</ele>
        <time>2022-03-07T10:11:04.501Z</time>
      </trkpt>
      <trkpt lat="42.30957" lon="24.37477">
        <ele>300.020321</ele>
        <time>2022-03-07T10:11:08.511Z</time>
      </trkpt>
      <trkpt lat="42.30965" lon="24.37467">
        <ele>299.991345</ele>
        <time>2022-03-07T10:11:12.551Z</time>
      </trkpt>
      <trkpt lat="42.30973" lon="24.37457">
        <ele>299.961879</ele>
        <time>2022-03-07T10:11:16.523Z</time>
      </trkpt>
      <trkpt lat="42.30981" lon="24.37449">
        <ele>299.936849</ele>
        <time>2022-03-07T10:11:19.507Z</time>
      </trkpt>
      <trkpt lat="42.30989" lon="24.37442">
        <ele>299.911983</ele>
        <time>2022-03-07T10:11:22.520Z</time>
      </trkpt>
      <trkpt lat="42.30997" lon="24.37434">
        <ele>299.886574</ele>
        <time>2022-03-07T10:11:25.514Z</time>
      </trkpt>
      <trkpt lat="42.31006" lon="24.37428">
        <ele>299.859569</ele>
        <time>2022-03-07T10:11:28.536Z</time>
      </trkpt>
      <trkpt lat="42.31016" lon="24.37423">
        <ele>299.943371</ele>
        <time>2022-03-07T10:11:31.512Z</time>
      </trkpt>
      <trkpt lat="42.31027" lon="24.37417">
        <ele>300.072671</ele>
        <time>2022-03-07T10:11:34.546Z</time>
      </trkpt>
      <trkpt lat="42.31036" lon="24.37412">
        <ele>300.170354</ele>
        <time>2022-03-07T10:11:36.510Z</time>
      </trkpt>
      <trkpt lat="42.31045" lon="24.37408">
        <ele>300.268151</ele>
        <time>2022-03-07T10:11:38.510Z</time>
      </trkpt>
      <trkpt lat="42.31056" lon="24.37402">
        <ele>300.395712</ele>
        <time>2022-03-07T10:11:41.528Z</time>
      </trkpt>
      <trkpt lat="42.31067" lon="24.37398">
        <ele>300.516522</ele>
        <time>2022-03-07T10:11:44.510Z</time>
      </trkpt>
      <trkpt lat="42.31077" lon="24.37395">
        <ele>300.62335</ele>
        <time>2022-03-07T10:11:47.520Z</time>
      </trkpt>
      <trkpt lat="42.31087" lon="24.3739">
        <ele>300.734759</ele>
        <time>2022-03-07T10:11:50.512Z</time>
      </trkpt>
      <trkpt lat="42.31098" lon="24.37384">
        <ele>300.856676</ele>
        <time>2022-03-07T10:11:53.516Z</time>
      </trkpt>
      <trkpt lat="42.31107" lon="24.3738">
        <ele>300.955454</ele>
        <time>2022-03-07T10:11:56.551Z</time>
      </trkpt>
      <trkpt lat="42.31117" lon="24.37376">
        <ele>301.067756</ele>
        <time>2022-03-07T10:11:59.513Z</time>
      </trkpt>
      <trkpt lat="42.31129" lon="24.3737">
        <ele>301.197061</ele>
        <time>2022-03-07T10:12:02.522Z</time>
      </trkpt>
      <trkpt lat="42.3114" lon="24.37365">
        <ele>301.32638</ele>
        <time>2022-03-07T10:12:05.539Z</time>
      </trkpt>
      <trkpt lat="42.31151" lon="24.3736">
        <ele>301.442263</ele>
        <time>2022-03-07T10:12:08.502Z</time>
      </trkpt>
      <trkpt lat="42.31161" lon="24.37355">
        <ele>301.555654</ele>
        <time>2022-03-07T10:12:11.531Z</time>
      </trkpt>
      <trkpt lat="42.3117" lon="24.37351">
        <ele>301.66233</ele>
        <time>2022-03-07T10:12:14.530Z</time>
      </trkpt>
      <trkpt lat="42.3118" lon="24.37347">
        <ele>301.795227</ele>
        <time>2022-03-07T10:12:17.517Z</time>
      </trkpt>
      <trkpt lat="42.3119" lon="24.37342">
        <ele>302.029502</ele>
        <time>2022-03-07T10:12:20.510Z</time>
      </trkpt>
      <trkpt lat="42.31199" lon="24.37337">
        <ele>302.252058</ele>
        <time>2022-03-07T10:12:23.507Z</time>
      </trkpt>
      <trkpt lat="42.31209" lon="24.37333">
        <ele>302.462316</ele>
        <time>2022-03-07T10:12:26.511Z</time>
      </trkpt>
      <trkpt lat="42.3122" lon="24.37328">
        <ele>302.715804</ele>
        <time>2022-03-07T10:12:30.570Z</time>
      </trkpt>
      <trkpt lat="42.31231" lon="24.37324">
        <ele>302.968807</ele>
        <time>2022-03-07T10:12:34.499Z</time>
      </trkpt>
      <trkpt lat="42.31241" lon="24.37319">
        <ele>303.219643</ele>
        <time>2022-03-07T10:12:38.511Z</time>
      </trkpt>
      <trkpt lat="42.31253" lon="24.37313">
        <ele>303.485229</ele>
        <time>2022-03-07T10:12:42.513Z</time>
      </trkpt>
      <trkpt lat="42.31264" lon="24.37308">
        <ele>303.746484</ele>
        <time>2022-03-07T10:12:46.501Z</time>
      </trkpt>
      <trkpt lat="42.31275" lon="24.37303">
        <ele>304.011374</ele>
        <time>2022-03-07T10:12:50.503Z</time>
      </trkpt>
      <trkpt lat="42.31284" lon="24.37298">
        <ele>304.217975</ele>
        <time>2022-03-07T10:12:53.515Z</time>
      </trkpt>
      <trkpt lat="42.31295" lon="24.37294">
        <ele>304.465691</ele>
        <time>2022-03-07T10:12:57.504Z</time>
      </trkpt>
      <trkpt lat="42.31305" lon="24.37289">
        <ele>304.696245</ele>
        <time>2022-03-07T10:13:01.515Z</time>
      </trkpt>
      <trkpt lat="42.31313" lon="24.37284">
        <ele>304.90259</ele>
        <time>2022-03-07T10:13:05.535Z</time>
      </trkpt>
      <trkpt lat="42.31323" lon="24.37279">
        <ele>305.11909</ele>
        <time>2022-03-07T10:13:09.508Z</time>
      </trkpt>
      <trkpt lat="42.31333" lon="24.37274">
        <ele>305.357146</ele>
        <time>2022-03-07T10:13:13.511Z</time>
      </trkpt>
      <trkpt lat="42.31342" lon="24.37267">
        <ele>305.587528</ele>
        <time>2022-03-07T10:13:17.499Z</time>
      </trkpt>
      <trkpt lat="42.31351" lon="24.3726">
        <ele>305.80218</ele>
        <time>2022-03-07T10:13:21.527Z</time>
      </trkpt>
      <trkpt lat="42.31359" lon="24.3725">
        <ele>305.999167</ele>
        <time>2022-03-07T10:13:25.502Z</time>
      </trkpt>
      <trkpt lat="42.31367" lon="24.37242">
        <ele>306.188234</ele>
        <time>2022-03-07T10:13:29.506Z</time>
      </trkpt>
      <trkpt lat="42.31374" lon="24.37233">
        <ele>306.375894</ele>
        <time>2022-03-07T10:13:33.508Z</time>
      </trkpt>
      <trkpt lat="42.31381" lon="24.37222">
        <ele>306.578896</ele>
        <time>2022-03-07T10:13:37.512Z</time>
      </trkpt>
      <trkpt lat="42.31387" lon="24.37213">
        <ele>306.757024</ele>
        <time>2022-03-07T10:13:41.506Z</time>
      </trkpt>
      <trkpt lat="42.31394" lon="24.37202">
        <ele>306.94827</ele>
        <time>2022-03-07T10:13:45.516Z</time>
      </trkpt>
      <trkpt lat="42.31402" lon="24.37192">
        <ele>307.154307</ele>
        <time>2022-03-07T10:13:49.511Z</time>
      </trkpt>
      <trkpt lat="42.31408" lon="24.37182">
        <ele>307.336554</ele>
        <time>2022-03-07T10:13:53.519Z</time>
      </trkpt>
      <trkpt lat="42.31414" lon="24.37171">
        <ele>307.527631</ele>
        <time>2022-03-07T10:13:57.509Z</time>
      </trkpt>
      <trkpt lat="42.31422" lon="24.37159">
        <ele>307.749052</ele>
        <time>2022-03-07T10:14:01.511Z</time>
      </trkpt>
      <trkpt lat="42.3143" lon="24.37147">
        <ele>307.972021</ele>
        <time>2022-03-07T10:14:05.529Z</time>
      </trkpt>
      <trkpt lat="42.31435" lon="24.37138">
        <ele>308.14282</ele>
        <time>2022-03-07T10:14:08.512Z</time>
      </trkpt>
      <trkpt lat="42.31441" lon="24.37128">
        <ele>308.319554</ele>
        <time>2022-03-07T10:14:11.512Z</time>
      </trkpt>
      <trkpt lat="42.31447" lon="24.37118">
        <ele>308.502741</ele>
        <time>2022-03-07T10:14:14.529Z</time>
      </trkpt>
      <trkpt lat="42.31452" lon="24.37107">
        <ele>308.685053</ele>
        <time>2022-03-07T10:14:17.511Z</time>
      </trkpt>
      <trkpt lat="42.31457" lon="24.37095">
        <ele>308.871489</ele>
        <time>2022-03-07T10:14:20.519Z</time>
      </trkpt>
      <trkpt lat="42.31462" lon="24.37082">
        <ele>309.073796</ele>
        <time>2022-03-07T10:14:23.512Z</time>
      </trkpt>
      <trkpt lat="42.31466" lon="24.37068">
        <ele>308.867004</ele>
        <time>2022-03-07T10:14:26.515Z</time>
      </trkpt>
      <trkpt lat="42.3147" lon="24.37051">
        <ele>308.593472</ele>
        <time>2022-03-07T10:14:29.511Z</time>
      </trkpt>
      <trkpt lat="42.31474" lon="24.37039">
        <ele>308.384908</ele>
        <time>2022-03-07T10:14:31.508Z</time>
      </trkpt>
      <trkpt lat="42.31476" lon="24.37026">
        <ele>308.1661</ele>
        <time>2022-03-07T10:14:33.508Z</time>
      </trkpt>
      <trkpt lat="42.3148" lon="24.37013">
        <ele>307.946274</ele>
        <time>2022-03-07T10:14:35.516Z</time>
      </trkpt>
      <trkpt lat="42.31482" lon="24.36999">
        <ele>307.719886</ele>
        <time>2022-03-07T10:14:37.513Z</time>
      </trkpt>
      <trkpt lat="42.31486" lon="24.36984">
        <ele>307.469445</ele>
        <time>2022-03-07T10:14:39.510Z</time>
      </trkpt>
      <trkpt lat="42.3149" lon="24.36969">
        <ele>307.215295</ele>
        <time>2022-03-07T10:14:41.499Z</time>
      </trkpt>
      <trkpt lat="42.31493" lon="24.36954">
        <ele>306.96495</ele>
        <time>2022-03-07T10:14:43.511Z</time>
      </trkpt>
      <trkpt lat="42.31498" lon="24.36939">
        <ele>306.712919</ele>
        <time>2022-03-07T10:14:45.538Z</time>
      </trkpt>
      <trkpt lat="42.31502" lon="24.36924">
        <ele>306.449701</ele>
        <time>2022-03-07T10:14:47.535Z</time>
      </trkpt>
      <trkpt lat="42.31506" lon="24.36908">
        <ele>306.177566</ele>
        <time>2022-03-07T10:14:49.523Z</time>
      </trkpt>
      <trkpt lat="42.3151" lon="24.36891">
        <ele>305.90762</ele>
        <time>2022-03-07T10:14:51.504Z</time>
      </trkpt>
      <trkpt lat="42.31513" lon="24.36875">
        <ele>305.63682</ele>
        <time>2022-03-07T10:14:53.505Z</time>
      </trkpt>
      <trkpt lat="42.31518" lon="24.36859">
        <ele>305.367008</ele>
        <time>2022-03-07T10:14:55.514Z</time>
      </trkpt>
      <trkpt lat="42.31521" lon="24.36844">
        <ele>305.197727</ele>
        <time>2022-03-07T10:14:57.530Z</time>
      </trkpt>
      <trkpt lat="42.31523" lon="24.36828">
        <ele>305.149343</ele>
        <time>2022-03-07T10:14:59.511Z</time>
      </trkpt>
      <trkpt lat="42.31526" lon="24.36812">
        <ele>305.102072</ele>
        <time>2022-03-07T10:15:01.500Z</time>
      </trkpt>
      <trkpt lat="42.31529" lon="24.36797">
        <ele>305.056585</ele>
        <time>2022-03-07T10:15:03.523Z</time>
      </trkpt>
      <trkpt lat="42.31531" lon="24.36783">
        <ele>305.013448</ele>
        <time>2022-03-07T10:15:05.550Z</time>
      </trkpt>
      <trkpt lat="42.31534" lon="24.36769">
        <ele>304.970587</ele>
        <time>2022-03-07T10:15:07.507Z</time>
      </trkpt>
      <trkpt lat="42.31536" lon="24.36756">
        <ele>304.930421</ele>
        <time>2022-03-07T10:15:09.546Z</time>
      </trkpt>
      <trkpt lat="42.31538" lon="24.36744">
        <ele>304.893411</ele>
        <time>2022-03-07T10:15:11.516Z</time>
      </trkpt>
      <trkpt lat="42.3154" lon="24.36727">
        <ele>304.841216</ele>
        <time>2022-03-07T10:15:14.531Z</time>
      </trkpt>
      <trkpt lat="42.31542" lon="24.36711">
        <ele>304.793731</ele>
        <time>2022-03-07T10:15:17.540Z</time>
      </trkpt>
      <trkpt lat="42.31542" lon="24.36696">
        <ele>304.750345</ele>
        <time>2022-03-07T10:15:20.515Z</time>
      </trkpt>
      <trkpt lat="42.31546" lon="24.36683">
        <ele>304.708983</ele>
        <time>2022-03-07T10:15:23.506Z</time>
      </trkpt>
      <trkpt lat="42.31548" lon="24.36669">
        <ele>304.665645</ele>
        <time>2022-03-07T10:15:26.529Z</time>
      </trkpt>
      <trkpt lat="42.31549" lon="24.36654">
        <ele>304.621825</ele>
        <time>2022-03-07T10:15:29.515Z</time>
      </trkpt>
      <trkpt lat="42.31551" lon="24.36639">
        <ele>304.575544</ele>
        <time>2022-03-07T10:15:32.509Z</time>
      </trkpt>
      <trkpt lat="42.31552" lon="24.36623">
        <ele>304.528829</ele>
        <time>2022-03-07T10:15:35.510Z</time>
      </trkpt>
      <trkpt lat="42.31554" lon="24.36607">
        <ele>304.505485</ele>
        <time>2022-03-07T10:15:38.515Z</time>
      </trkpt>
      <trkpt lat="42.31557" lon="24.36596">
        <ele>304.529992</ele>
        <time>2022-03-07T10:15:42.562Z</time>
      </trkpt>
      <trkpt lat="42.31558" lon="24.36583">
        <ele>304.554741</ele>
        <time>2022-03-07T10:15:45.520Z</time>
      </trkpt>
      <trkpt lat="42.3156" lon="24.36568">
        <ele>304.584287</ele>
        <time>2022-03-07T10:15:48.506Z</time>
      </trkpt>
      <trkpt lat="42.31562" lon="24.36552">
        <ele>304.617339</ele>
        <time>2022-03-07T10:15:51.507Z</time>
      </trkpt>
      <trkpt lat="42.31567" lon="24.36536">
        <ele>304.650472</ele>
        <time>2022-03-07T10:15:54.513Z</time>
      </trkpt>
      <trkpt lat="42.31573" lon="24.3652">
        <ele>304.684834</ele>
        <time>2022-03-07T10:15:57.517Z</time>
      </trkpt>
      <trkpt lat="42.31578" lon="24.3651">
        <ele>304.708784</ele>
        <time>2022-03-07T10:15:59.510Z</time>
      </trkpt>
      <trkpt lat="42.31586" lon="24.36496">
        <ele>304.743572</ele>
        <time>2022-03-07T10:16:02.518Z</time>
      </trkpt>
      <trkpt lat="42.31594" lon="24.36484">
        <ele>304.775548</ele>
        <time>2022-03-07T10:16:05.539Z</time>
      </trkpt>
      <trkpt lat="42.31602" lon="24.36472">
        <ele>304.806598</ele>
        <time>2022-03-07T10:16:08.515Z</time>
      </trkpt>
      <trkpt lat="42.3161" lon="24.36459">
        <ele>304.839226</ele>
        <time>2022-03-07T10:16:11.496Z</time>
      </trkpt>
      <trkpt lat="42.31618" lon="24.36447">
        <ele>304.872396</ele>
        <time>2022-03-07T10:16:14.572Z</time>
      </trkpt>
      <trkpt lat="42.31626" lon="24.36433">
        <ele>304.906135</ele>
        <time>2022-03-07T10:16:17.527Z</time>
      </trkpt>
      <trkpt lat="42.31634" lon="24.36421">
        <ele>304.937056</ele>
        <time>2022-03-07T10:16:20.511Z</time>
      </trkpt>
      <trkpt lat="42.31643" lon="24.36407">
        <ele>304.974614</ele>
        <time>2022-03-07T10:16:23.504Z</time>
      </trkpt>
      <trkpt lat="42.31651" lon="24.36396">
        <ele>305.110071</ele>
        <time>2022-03-07T10:16:26.507Z</time>
      </trkpt>
      <trkpt lat="42.31659" lon="24.36385">
        <ele>305.236575</ele>
        <time>2022-03-07T10:16:29.507Z</time>
      </trkpt>
      <trkpt lat="42.31666" lon="24.36373">
        <ele>305.364402</ele>
        <time>2022-03-07T10:16:32.514Z</time>
      </trkpt>
      <trkpt lat="42.31672" lon="24.36361">
        <ele>305.489909</ele>
        <time>2022-03-07T10:16:35.516Z</time>
      </trkpt>
      <trkpt lat="42.31679" lon="24.36351">
        <ele>305.606932</ele>
        <time>2022-03-07T10:16:38.521Z</time>
      </trkpt>
      <trkpt lat="42.31686" lon="24.3634">
        <ele>305.72896</ele>
        <time>2022-03-07T10:16:41.503Z</time>
      </trkpt>
      <trkpt lat="42.31694" lon="24.3633">
        <ele>305.851745</ele>
        <time>2022-03-07T10:16:44.518Z</time>
      </trkpt>
      <trkpt lat="42.31704" lon="24.36323">
        <ele>305.973528</ele>
        <time>2022-03-07T10:16:47.554Z</time>
      </trkpt>
      <trkpt lat="42.31713" lon="24.36317">
        <ele>306.092722</ele>
        <time>2022-03-07T10:16:50.530Z</time>
      </trkpt>
      <trkpt lat="42.31722" lon="24.36312">
        <ele>306.196543</ele>
        <time>2022-03-07T10:16:53.509Z</time>
      </trkpt>
      <trkpt lat="42.31732" lon="24.36304">
        <ele>306.329911</ele>
        <time>2022-03-07T10:16:57.511Z</time>
      </trkpt>
      <trkpt lat="42.31742" lon="24.36298">
        <ele>306.451378</ele>
        <time>2022-03-07T10:17:01.530Z</time>
      </trkpt>
      <trkpt lat="42.31752" lon="24.36293">
        <ele>306.575088</ele>
        <time>2022-03-07T10:17:05.521Z</time>
      </trkpt>
      <trkpt lat="42.31761" lon="24.36288">
        <ele>306.684786</ele>
        <time>2022-03-07T10:17:09.561Z</time>
      </trkpt>
      <trkpt lat="42.31769" lon="24.36282">
        <ele>306.79552</ele>
        <time>2022-03-07T10:17:13.510Z</time>
      </trkpt>
      <trkpt lat="42.31778" lon="24.36275">
        <ele>306.90557</ele>
        <time>2022-03-07T10:17:17.525Z</time>
      </trkpt>
      <trkpt lat="42.31788" lon="24.36269">
        <ele>307.049646</ele>
        <time>2022-03-07T10:17:22.525Z</time>
      </trkpt>
      <trkpt lat="42.31797" lon="24.36263">
        <ele>307.263314</ele>
        <time>2022-03-07T10:17:26.514Z</time>
      </trkpt>
      <trkpt lat="42.31807" lon="24.36257">
        <ele>307.49199</ele>
        <time>2022-03-07T10:17:31.509Z</time>
      </trkpt>
      <trkpt lat="42.31816" lon="24.36249">
        <ele>307.715126</ele>
        <time>2022-03-07T10:17:36.554Z</time>
      </trkpt>
      <trkpt lat="42.31823" lon="24.3624">
        <ele>307.912693</ele>
        <time>2022-03-07T10:17:40.515Z</time>
      </trkpt>
      <trkpt lat="42.31831" lon="24.3623">
        <ele>308.132752</ele>
        <time>2022-03-07T10:17:44.521Z</time>
      </trkpt>
      <trkpt lat="42.31839" lon="24.36219">
        <ele>308.36625</ele>
        <time>2022-03-07T10:17:48.520Z</time>
      </trkpt>
      <trkpt lat="42.31846" lon="24.36207">
        <ele>308.597938</ele>
        <time>2022-03-07T10:17:52.506Z</time>
      </trkpt>
      <trkpt lat="42.31853" lon="24.36194">
        <ele>308.840715</ele>
        <time>2022-03-07T10:17:56.514Z</time>
      </trkpt>
      <trkpt lat="42.31858" lon="24.36184">
        <ele>309.036595</ele>
        <time>2022-03-07T10:17:59.517Z</time>
      </trkpt>
      <trkpt lat="42.31864" lon="24.36174">
        <ele>309.23252</ele>
        <time>2022-03-07T10:18:02.508Z</time>
      </trkpt>
      <trkpt lat="42.3187" lon="24.36163">
        <ele>309.44079</ele>
        <time>2022-03-07T10:18:05.503Z</time>
      </trkpt>
      <trkpt lat="42.31877" lon="24.36153">
        <ele>309.646769</ele>
        <time>2022-03-07T10:18:08.546Z</time>
      </trkpt>
      <trkpt lat="42.31883" lon="24.36142">
        <ele>309.86112</ele>
        <time>2022-03-07T10:18:11.529Z</time>
      </trkpt>
      <trkpt lat="42.31888" lon="24.3613">
        <ele>310.073364</ele>
        <time>2022-03-07T10:18:14.533Z</time>
      </trkpt>
      <trkpt lat="42.31895" lon="24.36119">
        <ele>310.292248</ele>
        <time>2022-03-07T10:18:17.514Z</time>
      </trkpt>
      <trkpt lat="42.31904" lon="24.3611">
        <ele>310.514295</ele>
        <time>2022-03-07T10:18:20.546Z</time>
      </trkpt>
      <trkpt lat="42.3191" lon="24.361">
        <ele>310.727943</ele>
        <time>2022-03-07T10:18:23.551Z</time>
      </trkpt>
      <trkpt lat="42.31917" lon="24.36088">
        <ele>310.854306</ele>
        <time>2022-03-07T10:18:26.550Z</time>
      </trkpt>
      <trkpt lat="42.31923" lon="24.36075">
        <ele>310.978352</ele>
        <time>2022-03-07T10:18:29.528Z</time>
      </trkpt>
      <trkpt lat="42.31929" lon="24.36063">
        <ele>311.097203</ele>
        <time>2022-03-07T10:18:32.507Z</time>
      </trkpt>
      <trkpt lat="42.31934" lon="24.36051">
        <ele>311.213797</ele>
        <time>2022-03-07T10:18:35.521Z</time>
      </trkpt>
      <trkpt lat="42.31939" lon="24.3604">
        <ele>311.323757</ele>
        <time>2022-03-07T10:18:38.525Z</time>
      </trkpt>
      <trkpt lat="42.31945" lon="24.36028">
        <ele>311.439335</ele>
        <time>2022-03-07T10:18:42.555Z</time>
      </trkpt>
      <trkpt lat="42.3195" lon="24.36017">
        <ele>311.542282</ele>
        <time>2022-03-07T10:18:45.499Z</time>
      </trkpt>
      <trkpt lat="42.31957" lon="24.36007">
        <ele>311.657883</ele>
        <time>2022-03-07T10:18:48.516Z</time>
      </trkpt>
      <trkpt lat="42.31964" lon="24.35997">
        <ele>311.768296</ele>
        <time>2022-03-07T10:18:51.509Z</time>
      </trkpt>
      <trkpt lat="42.31972" lon="24.35988">
        <ele>311.885808</ele>
        <time>2022-03-07T10:18:54.516Z</time>
      </trkpt>
      <trkpt lat="42.31979" lon="24.35976">
        <ele>312.013402</ele>
        <time>2022-03-07T10:18:57.519Z</time>
      </trkpt>
      <trkpt lat="42.31985" lon="24.35964">
        <ele>312.131569</ele>
        <time>2022-03-07T10:19:00.525Z</time>
      </trkpt>
      <trkpt lat="42.31991" lon="24.3595">
        <ele>312.258872</ele>
        <time>2022-03-07T10:19:03.515Z</time>
      </trkpt>
      <trkpt lat="42.31997" lon="24.35936">
        <ele>312.390852</ele>
        <time>2022-03-07T10:19:06.503Z</time>
      </trkpt>
      <trkpt lat="42.32002" lon="24.35923">
        <ele>312.516196</ele>
        <time>2022-03-07T10:19:09.524Z</time>
      </trkpt>
      <trkpt lat="42.32008" lon="24.35909">
        <ele>312.648332</ele>
        <time>2022-03-07T10:19:12.524Z</time>
      </trkpt>
      <trkpt lat="42.32015" lon="24.35895">
        <ele>312.675802</ele>
        <time>2022-03-07T10:19:15.538Z</time>
      </trkpt>
      <trkpt lat="42.32021" lon="24.3588">
        <ele>312.512648</ele>
        <time>2022-03-07T10:19:18.511Z</time>
      </trkpt>
      <trkpt lat="42.32027" lon="24.35865">
        <ele>312.347745</ele>
        <time>2022-03-07T10:19:21.506Z</time>
      </trkpt>
      <trkpt lat="42.32033" lon="24.35851">
        <ele>312.194643</ele>
        <time>2022-03-07T10:19:24.518Z</time>
      </trkpt>
      <trkpt lat="42.3204" lon="24.35837">
        <ele>312.035589</ele>
        <time>2022-03-07T10:19:27.512Z</time>
      </trkpt>
      <trkpt lat="42.32045" lon="24.35823">
        <ele>311.881647</ele>
        <time>2022-03-07T10:19:30.511Z</time>
      </trkpt>
      <trkpt lat="42.32051" lon="24.35808">
        <ele>311.724563</ele>
        <time>2022-03-07T10:19:33.500Z</time>
      </trkpt>
      <trkpt lat="42.32057" lon="24.35794">
        <ele>311.562873</ele>
        <time>2022-03-07T10:19:36.532Z</time>
      </trkpt>
      <trkpt lat="42.32063" lon="24.35779">
        <ele>311.400109</ele>
        <time>2022-03-07T10:19:39.512Z</time>
      </trkpt>
      <trkpt lat="42.3207" lon="24.35765">
        <ele>311.245266</ele>
        <time>2022-03-07T10:19:42.531Z</time>
      </trkpt>
      <trkpt lat="42.32077" lon="24.35752">
        <ele>311.088096</ele>
        <time>2022-03-07T10:19:45.514Z</time>
      </trkpt>
      <trkpt lat="42.32083" lon="24.35738">
        <ele>310.934719</ele>
        <time>2022-03-07T10:19:48.517Z</time>
      </trkpt>
      <trkpt lat="42.3209" lon="24.35726">
        <ele>310.786057</ele>
        <time>2022-03-07T10:19:51.555Z</time>
      </trkpt>
      <trkpt lat="42.32097" lon="24.35714">
        <ele>310.64344</ele>
        <time>2022-03-07T10:19:54.527Z</time>
      </trkpt>
      <trkpt lat="42.32105" lon="24.35704">
        <ele>310.498341</ele>
        <time>2022-03-07T10:19:57.510Z</time>
      </trkpt>
      <trkpt lat="42.32114" lon="24.35695">
        <ele>310.420329</ele>
        <time>2022-03-07T10:20:00.514Z</time>
      </trkpt>
      <trkpt lat="42.32125" lon="24.35687">
        <ele>310.468801</ele>
        <time>2022-03-07T10:20:03.521Z</time>
      </trkpt>
      <trkpt lat="42.32135" lon="24.3568">
        <ele>310.516211</ele>
        <time>2022-03-07T10:20:06.504Z</time>
      </trkpt>
      <trkpt lat="42.32144" lon="24.35673">
        <ele>310.56007</ele>
        <time>2022-03-07T10:20:09.513Z</time>
      </trkpt>
      <trkpt lat="42.32154" lon="24.35666">
        <ele>310.602068</ele>
        <time>2022-03-07T10:20:12.510Z</time>
      </trkpt>
      <trkpt lat="42.32162" lon="24.3566">
        <ele>310.641583</ele>
        <time>2022-03-07T10:20:15.512Z</time>
      </trkpt>
      <trkpt lat="42.3217" lon="24.35653">
        <ele>310.679291</ele>
        <time>2022-03-07T10:20:18.507Z</time>
      </trkpt>
      <trkpt lat="42.3218" lon="24.35646">
        <ele>310.723636</ele>
        <time>2022-03-07T10:20:21.510Z</time>
      </trkpt>
      <trkpt lat="42.3219" lon="24.3564">
        <ele>310.768272</ele>
        <time>2022-03-07T10:20:24.514Z</time>
      </trkpt>
      <trkpt lat="42.322" lon="24.35634">
        <ele>310.814628</ele>
        <time>2022-03-07T10:20:27.487Z</time>
      </trkpt>
      <trkpt lat="42.32211" lon="24.35628">
        <ele>310.860634</ele>
        <time>2022-03-07T10:20:30.535Z</time>
      </trkpt>
      <trkpt lat="42.32221" lon="24.35621">
        <ele>310.908629</ele>
        <time>2022-03-07T10:20:33.519Z</time>
      </trkpt>
      <trkpt lat="42.32233" lon="24.35613">
        <ele>310.960955</ele>
        <time>2022-03-07T10:20:36.502Z</time>
      </trkpt>
      <trkpt lat="42.32244" lon="24.35605">
        <ele>311.012723</ele>
        <time>2022-03-07T10:20:39.516Z</time>
      </trkpt>
      <trkpt lat="42.32257" lon="24.35598">
        <ele>311.067198</ele>
        <time>2022-03-07T10:20:42.512Z</time>
      </trkpt>
      <trkpt lat="42.32265" lon="24.35592">
        <ele>311.104595</ele>
        <time>2022-03-07T10:20:44.517Z</time>
      </trkpt>
      <trkpt lat="42.32277" lon="24.35584">
        <ele>311.139734</ele>
        <time>2022-03-07T10:20:47.496Z</time>
      </trkpt>
      <trkpt lat="42.32285" lon="24.35578">
        <ele>311.150021</ele>
        <time>2022-03-07T10:20:49.508Z</time>
      </trkpt>
      <trkpt lat="42.32296" lon="24.35569">
        <ele>311.164903</ele>
        <time>2022-03-07T10:20:52.534Z</time>
      </trkpt>
      <trkpt lat="42.32306" lon="24.35562">
        <ele>311.178241</ele>
        <time>2022-03-07T10:20:55.511Z</time>
      </trkpt>
      <trkpt lat="42.32316" lon="24.35556">
        <ele>311.190908</ele>
        <time>2022-03-07T10:20:58.507Z</time>
      </trkpt>
      <trkpt lat="42.32327" lon="24.35549">
        <ele>311.204751</ele>
        <time>2022-03-07T10:21:01.515Z</time>
      </trkpt>
      <trkpt lat="42.32339" lon="24.35543">
        <ele>311.219066</ele>
        <time>2022-03-07T10:21:04.506Z</time>
      </trkpt>
      <trkpt lat="42.32351" lon="24.35535">
        <ele>311.234201</ele>
        <time>2022-03-07T10:21:07.510Z</time>
      </trkpt>
      <trkpt lat="42.32362" lon="24.35527">
        <ele>311.247977</ele>
        <time>2022-03-07T10:21:10.513Z</time>
      </trkpt>
      <trkpt lat="42.32372" lon="24.35519">
        <ele>311.261815</ele>
        <time>2022-03-07T10:21:13.518Z</time>
      </trkpt>
      <trkpt lat="42.32384" lon="24.35511">
        <ele>311.276376</ele>
        <time>2022-03-07T10:21:16.520Z</time>
      </trkpt>
      <trkpt lat="42.32395" lon="24.35504">
        <ele>311.290618</ele>
        <time>2022-03-07T10:21:19.546Z</time>
      </trkpt>
      <trkpt lat="42.32406" lon="24.35496">
        <ele>311.304657</ele>
        <time>2022-03-07T10:21:22.509Z</time>
      </trkpt>
      <trkpt lat="42.32417" lon="24.35488">
        <ele>311.31918</ele>
        <time>2022-03-07T10:21:25.509Z</time>
      </trkpt>
      <trkpt lat="42.32428" lon="24.35481">
        <ele>311.332964</ele>
        <time>2022-03-07T10:21:28.520Z</time>
      </trkpt>
      <trkpt lat="42.32438" lon="24.35474">
        <ele>311.367038</ele>
        <time>2022-03-07T10:21:31.521Z</time>
      </trkpt>
      <trkpt lat="42.3245" lon="24.35467">
        <ele>311.415795</ele>
        <time>2022-03-07T10:21:34.521Z</time>
      </trkpt>
      <trkpt lat="42.32461" lon="24.35459">
        <ele>311.465288</ele>
        <time>2022-03-07T10:21:37.509Z</time>
      </trkpt>
      <trkpt lat="42.32472" lon="24.35451">
        <ele>311.515448</ele>
        <time>2022-03-07T10:21:40.507Z</time>
      </trkpt>
      <trkpt lat="42.32481" lon="24.35447">
        <ele>311.551383</ele>
        <time>2022-03-07T10:21:42.517Z</time>
      </trkpt>
      <trkpt lat="42.3249" lon="24.35441">
        <ele>311.588727</ele>
        <time>2022-03-07T10:21:44.514Z</time>
      </trkpt>
      <trkpt lat="42.32499" lon="24.35435">
        <ele>311.628699</ele>
        <time>2022-03-07T10:21:46.519Z</time>
      </trkpt>
      <trkpt lat="42.32508" lon="24.35429">
        <ele>311.667116</ele>
        <time>2022-03-07T10:21:48.526Z</time>
      </trkpt>
      <trkpt lat="42.32516" lon="24.35423">
        <ele>311.705753</ele>
        <time>2022-03-07T10:21:50.517Z</time>
      </trkpt>
      <trkpt lat="42.32526" lon="24.35415">
        <ele>311.750306</ele>
        <time>2022-03-07T10:21:52.516Z</time>
      </trkpt>
      <trkpt lat="42.32535" lon="24.35409">
        <ele>311.79032</ele>
        <time>2022-03-07T10:21:54.518Z</time>
      </trkpt>
      <trkpt lat="42.32545" lon="24.35403">
        <ele>311.830748</ele>
        <time>2022-03-07T10:21:56.508Z</time>
      </trkpt>
      <trkpt lat="42.32554" lon="24.35397">
        <ele>311.870347</ele>
        <time>2022-03-07T10:21:58.530Z</time>
      </trkpt>
      <trkpt lat="42.32562" lon="24.35392">
        <ele>311.906631</ele>
        <time>2022-03-07T10:22:00.518Z</time>
      </trkpt>
      <trkpt lat="42.32571" lon="24.35387">
        <ele>311.944212</ele>
        <time>2022-03-07T10:22:02.527Z</time>
      </trkpt>
      <trkpt lat="42.32581" lon="24.35382">
        <ele>311.983045</ele>
        <time>2022-03-07T10:22:04.510Z</time>
      </trkpt>
      <trkpt lat="42.3259" lon="24.35378">
        <ele>312.023438</ele>
        <time>2022-03-07T10:22:06.517Z</time>
      </trkpt>
      <trkpt lat="42.32601" lon="24.35374">
        <ele>312.240086</ele>
        <time>2022-03-07T10:22:08.520Z</time>
      </trkpt>
      <trkpt lat="42.3261" lon="24.35372">
        <ele>312.547693</ele>
        <time>2022-03-07T10:22:10.558Z</time>
      </trkpt>
      <trkpt lat="42.32623" lon="24.3537">
        <ele>312.948176</ele>
        <time>2022-03-07T10:22:13.512Z</time>
      </trkpt>
      <trkpt lat="42.32636" lon="24.35367">
        <ele>313.352328</ele>
        <time>2022-03-07T10:22:16.514Z</time>
      </trkpt>
      <trkpt lat="42.32648" lon="24.35366">
        <ele>313.729402</ele>
        <time>2022-03-07T10:22:19.524Z</time>
      </trkpt>
      <trkpt lat="42.32659" lon="24.35364">
        <ele>314.092576</ele>
        <time>2022-03-07T10:22:22.533Z</time>
      </trkpt>
      <trkpt lat="42.32669" lon="24.35362">
        <ele>314.401765</ele>
        <time>2022-03-07T10:22:25.514Z</time>
      </trkpt>
      <trkpt lat="42.32681" lon="24.35361">
        <ele>314.781474</ele>
        <time>2022-03-07T10:22:29.515Z</time>
      </trkpt>
      <trkpt lat="42.32691" lon="24.35361">
        <ele>315.08274</ele>
        <time>2022-03-07T10:22:32.565Z</time>
      </trkpt>
      <trkpt lat="42.327" lon="24.35359">
        <ele>315.372993</ele>
        <time>2022-03-07T10:22:35.517Z</time>
      </trkpt>
      <trkpt lat="42.32709" lon="24.35358">
        <ele>315.660137</ele>
        <time>2022-03-07T10:22:38.512Z</time>
      </trkpt>
      <trkpt lat="42.32719" lon="24.35356">
        <ele>315.966505</ele>
        <time>2022-03-07T10:22:41.512Z</time>
      </trkpt>
      <trkpt lat="42.32728" lon="24.35355">
        <ele>316.250266</ele>
        <time>2022-03-07T10:22:44.517Z</time>
      </trkpt>
      <trkpt lat="42.32739" lon="24.35353">
        <ele>316.602367</ele>
        <time>2022-03-07T10:22:48.519Z</time>
      </trkpt>
      <trkpt lat="42.3275" lon="24.35353">
        <ele>316.934676</ele>
        <time>2022-03-07T10:22:52.499Z</time>
      </trkpt>
      <trkpt lat="42.32759" lon="24.35351">
        <ele>317.238918</ele>
        <time>2022-03-07T10:22:56.513Z</time>
      </trkpt>
      <trkpt lat="42.3277" lon="24.3535">
        <ele>317.568326</ele>
        <time>2022-03-07T10:23:01.520Z</time>
      </trkpt>
      <trkpt lat="42.32779" lon="24.35348">
        <ele>317.937994</ele>
        <time>2022-03-07T10:23:06.518Z</time>
      </trkpt>
      <trkpt lat="42.3279" lon="24.35347">
        <ele>318.38877</ele>
        <time>2022-03-07T10:23:11.506Z</time>
      </trkpt>
      <trkpt lat="42.32801" lon="24.35346">
        <ele>318.834981</ele>
        <time>2022-03-07T10:23:16.521Z</time>
      </trkpt>
      <trkpt lat="42.32811" lon="24.35345">
        <ele>319.237078</ele>
        <time>2022-03-07T10:23:20.505Z</time>
      </trkpt>
      <trkpt lat="42.32821" lon="24.35344">
        <ele>319.650632</ele>
        <time>2022-03-07T10:23:25.526Z</time>
      </trkpt>
      <trkpt lat="42.3283" lon="24.35342">
        <ele>320.048631</ele>
        <time>2022-03-07T10:23:30.521Z</time>
      </trkpt>
      <trkpt lat="42.3284" lon="24.35341">
        <ele>320.463027</ele>
        <time>2022-03-07T10:23:35.515Z</time>
      </trkpt>
      <trkpt lat="42.3285" lon="24.3534">
        <ele>320.855368</ele>
        <time>2022-03-07T10:23:40.514Z</time>
      </trkpt>
      <trkpt lat="42.32859" lon="24.3534">
        <ele>321.238902</ele>
        <time>2022-03-07T10:23:44.552Z</time>
      </trkpt>
      <trkpt lat="42.32869" lon="24.3534">
        <ele>321.642863</ele>
        <time>2022-03-07T10:23:48.517Z</time>
      </trkpt>
      <trkpt lat="42.32879" lon="24.35341">
        <ele>322.047226</ele>
        <time>2022-03-07T10:23:52.522Z</time>
      </trkpt>
      <trkpt lat="42.32888" lon="24.35342">
        <ele>322.441469</ele>
        <time>2022-03-07T10:23:56.521Z</time>
      </trkpt>
      <trkpt lat="42.32898" lon="24.35343">
        <ele>322.825788</ele>
        <time>2022-03-07T10:24:00.496Z</time>
      </trkpt>
      <trkpt lat="42.32909" lon="24.35345">
        <ele>323.285308</ele>
        <time>2022-03-07T10:24:05.513Z</time>
      </trkpt>
      <trkpt lat="42.3292" lon="24.35346">
        <ele>323.746119</ele>
        <time>2022-03-07T10:24:09.533Z</time>
      </trkpt>
      <trkpt lat="42.32931" lon="24.3535">
        <ele>324.209899</ele>
        <time>2022-03-07T10:24:13.504Z</time>
      </trkpt>
      <trkpt lat="42.32942" lon="24.35352">
        <ele>324.675172</ele>
        <time>2022-03-07T10:24:17.550Z</time>
      </trkpt>
      <trkpt lat="42.32953" lon="24.35354">
        <ele>325.128353</ele>
        <time>2022-03-07T10:24:21.518Z</time>
      </trkpt>
      <trkpt lat="42.32964" lon="24.35357">
        <ele>325.423984</ele>
        <time>2022-03-07T10:24:25.510Z</time>
      </trkpt>
      <trkpt lat="42.32974" lon="24.35359">
        <ele>325.720102</ele>
        <time>2022-03-07T10:24:29.520Z</time>
      </trkpt>
      <trkpt lat="42.32984" lon="24.35361">
        <ele>326.0128</ele>
        <time>2022-03-07T10:24:33.502Z</time>
      </trkpt>
      <trkpt lat="42.32995" lon="24.35365">
        <ele>326.330334</ele>
        <time>2022-03-07T10:24:37.506Z</time>
      </trkpt>
      <trkpt lat="42.33005" lon="24.35367">
        <ele>326.616873</ele>
        <time>2022-03-07T10:24:41.516Z</time>
      </trkpt>
      <trkpt lat="42.33014" lon="24.35369">
        <ele>326.873868</ele>
        <time>2022-03-07T10:24:45.548Z</time>
      </trkpt>
      <trkpt lat="42.33024" lon="24.35371">
        <ele>327.150241</ele>
        <time>2022-03-07T10:24:49.516Z</time>
      </trkpt>
      <trkpt lat="42.33035" lon="24.35373">
        <ele>327.449724</ele>
        <time>2022-03-07T10:24:53.512Z</time>
      </trkpt>
      <trkpt lat="42.33045" lon="24.35373">
        <ele>327.736372</ele>
        <time>2022-03-07T10:24:57.530Z</time>
      </trkpt>
      <trkpt lat="42.33054" lon="24.35375">
        <ele>328.003443</ele>
        <time>2022-03-07T10:25:01.541Z</time>
      </trkpt>
      <trkpt lat="42.33063" lon="24.35377">
        <ele>328.262845</ele>
        <time>2022-03-07T10:25:05.522Z</time>
      </trkpt>
      <trkpt lat="42.33074" lon="24.35381">
        <ele>328.568271</ele>
        <time>2022-03-07T10:25:09.505Z</time>
      </trkpt>
      <trkpt lat="42.33084" lon="24.35383">
        <ele>328.843987</ele>
        <time>2022-03-07T10:25:13.519Z</time>
      </trkpt>
      <trkpt lat="42.33094" lon="24.35385">
        <ele>329.14876</ele>
        <time>2022-03-07T10:25:18.564Z</time>
      </trkpt>
      <trkpt lat="42.33104" lon="24.35387">
        <ele>329.418034</ele>
        <time>2022-03-07T10:25:22.504Z</time>
      </trkpt>
      <trkpt lat="42.33113" lon="24.35389">
        <ele>329.682024</ele>
        <time>2022-03-07T10:25:26.523Z</time>
      </trkpt>
      <trkpt lat="42.33123" lon="24.3539">
        <ele>329.960986</ele>
        <time>2022-03-07T10:25:30.506Z</time>
      </trkpt>
      <trkpt lat="42.33132" lon="24.35392">
        <ele>330.274403</ele>
        <time>2022-03-07T10:25:34.516Z</time>
      </trkpt>
      <trkpt lat="42.33141" lon="24.35394">
        <ele>330.748496</ele>
        <time>2022-03-07T10:25:38.521Z</time>
      </trkpt>
      <trkpt lat="42.33152" lon="24.35396">
        <ele>331.301824</ele>
        <time>2022-03-07T10:25:43.513Z</time>
      </trkpt>
      <trkpt lat="42.33162" lon="24.35399">
        <ele>331.805701</ele>
        <time>2022-03-07T10:25:48.518Z</time>
      </trkpt>
      <trkpt lat="42.33172" lon="24.35401">
        <ele>332.281351</ele>
        <time>2022-03-07T10:25:53.514Z</time>
      </trkpt>
      <trkpt lat="42.33181" lon="24.35404">
        <ele>332.755444</ele>
        <time>2022-03-07T10:25:58.527Z</time>
      </trkpt>
      <trkpt lat="42.33192" lon="24.35404">
        <ele>333.280252</ele>
        <time>2022-03-07T10:26:03.518Z</time>
      </trkpt>
      <trkpt lat="42.33202" lon="24.35407">
        <ele>333.797334</ele>
        <time>2022-03-07T10:26:08.521Z</time>
      </trkpt>
      <trkpt lat="42.33211" lon="24.3541">
        <ele>334.261937</ele>
        <time>2022-03-07T10:26:13.555Z</time>
      </trkpt>
      <trkpt lat="42.33221" lon="24.35412">
        <ele>334.744365</ele>
        <time>2022-03-07T10:26:18.516Z</time>
      </trkpt>
      <trkpt lat="42.3323" lon="24.35413">
        <ele>335.208082</ele>
        <time>2022-03-07T10:26:22.506Z</time>
      </trkpt>
      <trkpt lat="42.3324" lon="24.35416">
        <ele>335.681457</ele>
        <time>2022-03-07T10:26:27.544Z</time>
      </trkpt>
      <trkpt lat="42.3325" lon="24.3542">
        <ele>336.197785</ele>
        <time>2022-03-07T10:26:32.519Z</time>
      </trkpt>
      <trkpt lat="42.3326" lon="24.35422">
        <ele>336.69627</ele>
        <time>2022-03-07T10:26:37.533Z</time>
      </trkpt>
      <trkpt lat="42.3327" lon="24.35424">
        <ele>337.198116</ele>
        <time>2022-03-07T10:26:42.509Z</time>
      </trkpt>
      <trkpt lat="42.3328" lon="24.35426">
        <ele>337.691704</ele>
        <time>2022-03-07T10:26:47.522Z</time>
      </trkpt>
      <trkpt lat="42.3329" lon="24.35428">
        <ele>338.228555</ele>
        <time>2022-03-07T10:26:53.501Z</time>
      </trkpt>
      <trkpt lat="42.333" lon="24.35427">
        <ele>338.722806</ele>
        <time>2022-03-07T10:26:59.520Z</time>
      </trkpt>
      <trkpt lat="42.3331" lon="24.35428">
        <ele>339.107819</ele>
        <time>2022-03-07T10:27:04.528Z</time>
      </trkpt>
      <trkpt lat="42.33321" lon="24.35427">
        <ele>339.322303</ele>
        <time>2022-03-07T10:27:09.509Z</time>
      </trkpt>
      <trkpt lat="42.33331" lon="24.35426">
        <ele>339.526776</ele>
        <time>2022-03-07T10:27:14.510Z</time>
      </trkpt>
      <trkpt lat="42.3334" lon="24.35425">
        <ele>339.72702</ele>
        <time>2022-03-07T10:27:19.514Z</time>
      </trkpt>
      <trkpt lat="42.3335" lon="24.35424">
        <ele>339.914966</ele>
        <time>2022-03-07T10:27:25.507Z</time>
      </trkpt>
      <trkpt lat="42.33359" lon="24.35419">
        <ele>340.115698</ele>
        <time>2022-03-07T10:27:29.511Z</time>
      </trkpt>
      <trkpt lat="42.33367" lon="24.35414">
        <ele>340.311155</ele>
        <time>2022-03-07T10:27:33.528Z</time>
      </trkpt>
      <trkpt lat="42.33376" lon="24.3541">
        <ele>340.496255</ele>
        <time>2022-03-07T10:27:37.521Z</time>
      </trkpt>
      <trkpt lat="42.33385" lon="24.35404">
        <ele>340.704508</ele>
        <time>2022-03-07T10:27:42.511Z</time>
      </trkpt>
      <trkpt lat="42.33394" lon="24.35399">
        <ele>340.910379</ele>
        <time>2022-03-07T10:27:47.526Z</time>
      </trkpt>
      <trkpt lat="42.33403" lon="24.35394">
        <ele>341.09986</ele>
        <time>2022-03-07T10:27:52.551Z</time>
      </trkpt>
      <trkpt lat="42.33412" lon="24.35389">
        <ele>341.300241</ele>
        <time>2022-03-07T10:27:57.501Z</time>
      </trkpt>
      <trkpt lat="42.33422" lon="24.35384">
        <ele>341.522309</ele>
        <time>2022-03-07T10:28:03.548Z</time>
      </trkpt>
      <trkpt lat="42.33431" lon="24.35379">
        <ele>341.717766</ele>
        <time>2022-03-07T10:28:08.509Z</time>
      </trkpt>
      <trkpt lat="42.33441" lon="24.35373">
        <ele>341.942894</ele>
        <time>2022-03-07T10:28:13.508Z</time>
      </trkpt>
      <trkpt lat="42.3345" lon="24.35367">
        <ele>342.150662</ele>
        <time>2022-03-07T10:28:18.499Z</time>
      </trkpt>
      <trkpt lat="42.33458" lon="24.35363">
        <ele>342.335761</ele>
        <time>2022-03-07T10:28:23.520Z</time>
      </trkpt>
      <trkpt lat="42.33467" lon="24.35357">
        <ele>342.542676</ele>
        <time>2022-03-07T10:28:28.530Z</time>
      </trkpt>
      <trkpt lat="42.33477" lon="24.35351">
        <ele>342.757515</ele>
        <time>2022-03-07T10:28:33.505Z</time>
      </trkpt>
      <trkpt lat="42.33486" lon="24.35345">
        <ele>342.956131</ele>
        <time>2022-03-07T10:28:38.549Z</time>
      </trkpt>
      <trkpt lat="42.33493" lon="24.35339">
        <ele>343.141111</ele>
        <time>2022-03-07T10:28:43.520Z</time>
      </trkpt>
      <trkpt lat="42.33503" lon="24.35337">
        <ele>343.339897</ele>
        <time>2022-03-07T10:28:48.513Z</time>
      </trkpt>
      <trkpt lat="42.33512" lon="24.35331">
        <ele>343.547213</ele>
        <time>2022-03-07T10:28:53.515Z</time>
      </trkpt>
      <trkpt lat="42.33521" lon="24.35326">
        <ele>343.741497</ele>
        <time>2022-03-07T10:28:58.566Z</time>
      </trkpt>
      <trkpt lat="42.3353" lon="24.3532">
        <ele>343.940184</ele>
        <time>2022-03-07T10:29:03.504Z</time>
      </trkpt>
      <trkpt lat="42.33538" lon="24.35315">
        <ele>344.131995</ele>
        <time>2022-03-07T10:29:08.516Z</time>
      </trkpt>
      <trkpt lat="42.33547" lon="24.3531">
        <ele>344.324469</ele>
        <time>2022-03-07T10:29:13.550Z</time>
      </trkpt>
      <trkpt lat="42.33556" lon="24.35304">
        <ele>344.536253</ele>
        <time>2022-03-07T10:29:18.509Z</time>
      </trkpt>
      <trkpt lat="42.33566" lon="24.35298">
        <ele>344.756059</ele>
        <time>2022-03-07T10:29:22.523Z</time>
      </trkpt>
      <trkpt lat="42.33576" lon="24.35293">
        <ele>344.968515</ele>
        <time>2022-03-07T10:29:26.511Z</time>
      </trkpt>
      <trkpt lat="42.33585" lon="24.35288">
        <ele>345.170964</ele>
        <time>2022-03-07T10:29:30.499Z</time>
      </trkpt>
      <trkpt lat="42.33595" lon="24.35282">
        <ele>345.385668</ele>
        <time>2022-03-07T10:29:34.515Z</time>
      </trkpt>
      <trkpt lat="42.33604" lon="24.35276">
        <ele>345.598518</ele>
        <time>2022-03-07T10:29:38.524Z</time>
      </trkpt>
      <trkpt lat="42.33614" lon="24.35269">
        <ele>345.831046</ele>
        <time>2022-03-07T10:29:43.528Z</time>
      </trkpt>
      <trkpt lat="42.33624" lon="24.35263">
        <ele>346.043329</ele>
        <time>2022-03-07T10:29:47.536Z</time>
      </trkpt>
      <trkpt lat="42.33634" lon="24.35258">
        <ele>346.252257</ele>
        <time>2022-03-07T10:29:51.509Z</time>
      </trkpt>
      <trkpt lat="42.33644" lon="24.35251">
        <ele>346.45438</ele>
        <time>2022-03-07T10:29:55.530Z</time>
      </trkpt>
      <trkpt lat="42.33654" lon="24.35247">
        <ele>346.61741</ele>
        <time>2022-03-07T10:30:00.507Z</time>
      </trkpt>
      <trkpt lat="42.33663" lon="24.35243">
        <ele>346.755386</ele>
        <time>2022-03-07T10:30:04.540Z</time>
      </trkpt>
      <trkpt lat="42.33673" lon="24.35238">
        <ele>346.906496</ele>
        <time>2022-03-07T10:30:08.518Z</time>
      </trkpt>
      <trkpt lat="42.33682" lon="24.35231">
        <ele>347.054587</ele>
        <time>2022-03-07T10:30:12.518Z</time>
      </trkpt>
      <trkpt lat="42.33691" lon="24.35226">
        <ele>347.196961</ele>
        <time>2022-03-07T10:30:16.525Z</time>
      </trkpt>
      <trkpt lat="42.337" lon="24.35221">
        <ele>347.333557</ele>
        <time>2022-03-07T10:30:20.517Z</time>
      </trkpt>
      <trkpt lat="42.33709" lon="24.35217">
        <ele>347.477329</ele>
        <time>2022-03-07T10:30:24.521Z</time>
      </trkpt>
      <trkpt lat="42.33719" lon="24.3521">
        <ele>347.630131</ele>
        <time>2022-03-07T10:30:29.515Z</time>
      </trkpt>
      <trkpt lat="42.33728" lon="24.35205">
        <ele>347.77117</ele>
        <time>2022-03-07T10:30:33.513Z</time>
      </trkpt>
      <trkpt lat="42.33738" lon="24.35199">
        <ele>347.931096</ele>
        <time>2022-03-07T10:30:37.507Z</time>
      </trkpt>
      <trkpt lat="42.33748" lon="24.35194">
        <ele>348.085194</ele>
        <time>2022-03-07T10:30:41.512Z</time>
      </trkpt>
      <trkpt lat="42.33758" lon="24.35187">
        <ele>348.248623</ele>
        <time>2022-03-07T10:30:45.523Z</time>
      </trkpt>
      <trkpt lat="42.33768" lon="24.35182">
        <ele>348.406804</ele>
        <time>2022-03-07T10:30:49.503Z</time>
      </trkpt>
      <trkpt lat="42.33778" lon="24.35176">
        <ele>348.569322</ele>
        <time>2022-03-07T10:30:53.568Z</time>
      </trkpt>
      <trkpt lat="42.33789" lon="24.3517">
        <ele>348.733255</ele>
        <time>2022-03-07T10:30:57.518Z</time>
      </trkpt>
      <trkpt lat="42.33799" lon="24.35165">
        <ele>348.893454</ele>
        <time>2022-03-07T10:31:01.509Z</time>
      </trkpt>
      <trkpt lat="42.33808" lon="24.35162">
        <ele>349.008384</ele>
        <time>2022-03-07T10:31:04.554Z</time>
      </trkpt>
      <trkpt lat="42.33819" lon="24.35157">
        <ele>349.096159</ele>
        <time>2022-03-07T10:31:08.527Z</time>
      </trkpt>
      <trkpt lat="42.3383" lon="24.35152">
        <ele>349.179791</ele>
        <time>2022-03-07T10:31:12.519Z</time>
      </trkpt>
      <trkpt lat="42.33841" lon="24.35148">
        <ele>349.263914</ele>
        <time>2022-03-07T10:31:16.516Z</time>
      </trkpt>
      <trkpt lat="42.33852" lon="24.35145">
        <ele>349.350799</ele>
        <time>2022-03-07T10:31:20.531Z</time>
      </trkpt>
      <trkpt lat="42.33863" lon="24.35141">
        <ele>349.438383</ele>
        <time>2022-03-07T10:31:24.503Z</time>
      </trkpt>
      <trkpt lat="42.33875" lon="24.35137">
        <ele>349.529045</ele>
        <time>2022-03-07T10:31:28.527Z</time>
      </trkpt>
      <trkpt lat="42.33887" lon="24.35133">
        <ele>349.618534</ele>
        <time>2022-03-07T10:31:32.506Z</time>
      </trkpt>
      <trkpt lat="42.33896" lon="24.3513">
        <ele>349.694681</ele>
        <time>2022-03-07T10:31:35.515Z</time>
      </trkpt>
      <trkpt lat="42.33907" lon="24.35125">
        <ele>349.776785</ele>
        <time>2022-03-07T10:31:38.529Z</time>
      </trkpt>
      <trkpt lat="42.33918" lon="24.35122">
        <ele>349.861349</ele>
        <time>2022-03-07T10:31:41.519Z</time>
      </trkpt>
      <trkpt lat="42.33928" lon="24.35118">
        <ele>349.938084</ele>
        <time>2022-03-07T10:31:44.506Z</time>
      </trkpt>
      <trkpt lat="42.33938" lon="24.35115">
        <ele>350.016695</ele>
        <time>2022-03-07T10:31:47.575Z</time>
      </trkpt>
      <trkpt lat="42.33948" lon="24.3511">
        <ele>350.098077</ele>
        <time>2022-03-07T10:31:50.511Z</time>
      </trkpt>
      <trkpt lat="42.3396" lon="24.35106">
        <ele>350.187283</ele>
        <time>2022-03-07T10:31:53.520Z</time>
      </trkpt>
      <trkpt lat="42.3397" lon="24.35103">
        <ele>350.270716</ele>
        <time>2022-03-07T10:31:56.513Z</time>
      </trkpt>
      <trkpt lat="42.3398" lon="24.351">
        <ele>350.34752</ele>
        <time>2022-03-07T10:31:59.516Z</time>
      </trkpt>
      <trkpt lat="42.33991" lon="24.35096">
        <ele>350.425235</ele>
        <time>2022-03-07T10:32:02.514Z</time>
      </trkpt>
      <trkpt lat="42.34002" lon="24.35092">
        <ele>350.507778</ele>
        <time>2022-03-07T10:32:05.530Z</time>
      </trkpt>
      <trkpt lat="42.34014" lon="24.35087">
        <ele>350.598039</ele>
        <time>2022-03-07T10:32:08.527Z</time>
      </trkpt>
      <trkpt lat="42.34026" lon="24.35081">
        <ele>350.687973</ele>
        <time>2022-03-07T10:32:11.521Z</time>
      </trkpt>
      <trkpt lat="42.34037" lon="24.35077">
        <ele>350.766402</ele>
        <time>2022-03-07T10:32:14.531Z</time>
      </trkpt>
      <trkpt lat="42.34047" lon="24.35072">
        <ele>350.84607</ele>
        <time>2022-03-07T10:32:18.515Z</time>
      </trkpt>
      <trkpt lat="42.34058" lon="24.3507">
        <ele>350.922958</ele>
        <time>2022-03-07T10:32:22.551Z</time>
      </trkpt>
      <trkpt lat="42.34068" lon="24.35067">
        <ele>350.994041</ele>
        <time>2022-03-07T10:32:25.552Z</time>
      </trkpt>
      <trkpt lat="42.34079" lon="24.35064">
        <ele>351.07507</ele>
        <time>2022-03-07T10:32:28.517Z</time>
      </trkpt>
      <trkpt lat="42.3409" lon="24.3506">
        <ele>351.154908</ele>
        <time>2022-03-07T10:32:31.502Z</time>
      </trkpt>
      <trkpt lat="42.34099" lon="24.35058">
        <ele>351.226186</ele>
        <time>2022-03-07T10:32:34.520Z</time>
      </trkpt>
      <trkpt lat="42.3411" lon="24.35054">
        <ele>351.306024</ele>
        <time>2022-03-07T10:32:37.519Z</time>
      </trkpt>
      <trkpt lat="42.3412" lon="24.3505">
        <ele>351.376679</ele>
        <time>2022-03-07T10:32:40.547Z</time>
      </trkpt>
      <trkpt lat="42.3413" lon="24.35046">
        <ele>351.454828</ele>
        <time>2022-03-07T10:32:44.526Z</time>
      </trkpt>
      <trkpt lat="42.34139" lon="24.35042">
        <ele>351.521086</ele>
        <time>2022-03-07T10:32:47.571Z</time>
      </trkpt>
      <trkpt lat="42.3415" lon="24.35038">
        <ele>351.60129</ele>
        <time>2022-03-07T10:32:51.522Z</time>
      </trkpt>
      <trkpt lat="42.34161" lon="24.35034">
        <ele>351.746744</ele>
        <time>2022-03-07T10:32:55.524Z</time>
      </trkpt>
      <trkpt lat="42.34172" lon="24.3503">
        <ele>351.918114</ele>
        <time>2022-03-07T10:32:59.532Z</time>
      </trkpt>
      <trkpt lat="42.34183" lon="24.35026">
        <ele>352.091138</ele>
        <time>2022-03-07T10:33:03.517Z</time>
      </trkpt>
      <trkpt lat="42.34192" lon="24.35023">
        <ele>352.247343</ele>
        <time>2022-03-07T10:33:07.534Z</time>
      </trkpt>
      <trkpt lat="42.34203" lon="24.35019">
        <ele>352.41329</ele>
        <time>2022-03-07T10:33:11.523Z</time>
      </trkpt>
      <trkpt lat="42.34212" lon="24.35016">
        <ele>352.562743</ele>
        <time>2022-03-07T10:33:15.515Z</time>
      </trkpt>
      <trkpt lat="42.34222" lon="24.35013">
        <ele>352.717461</ele>
        <time>2022-03-07T10:33:19.511Z</time>
      </trkpt>
      <trkpt lat="42.34231" lon="24.35009">
        <ele>352.865856</ele>
        <time>2022-03-07T10:33:23.506Z</time>
      </trkpt>
      <trkpt lat="42.34241" lon="24.35005">
        <ele>353.02661</ele>
        <time>2022-03-07T10:33:27.520Z</time>
      </trkpt>
      <trkpt lat="42.34251" lon="24.35002">
        <ele>353.181058</ele>
        <time>2022-03-07T10:33:31.521Z</time>
      </trkpt>
      <trkpt lat="42.3426" lon="24.34998">
        <ele>353.325393</ele>
        <time>2022-03-07T10:33:35.518Z</time>
      </trkpt>
      <trkpt lat="42.34269" lon="24.34995">
        <ele>353.469727</ele>
        <time>2022-03-07T10:33:39.512Z</time>
      </trkpt>
      <trkpt lat="42.34279" lon="24.34992">
        <ele>353.618217</ele>
        <time>2022-03-07T10:33:43.521Z</time>
      </trkpt>
      <trkpt lat="42.34288" lon="24.34989">
        <ele>353.762937</ele>
        <time>2022-03-07T10:33:47.525Z</time>
      </trkpt>
      <trkpt lat="42.34297" lon="24.34985">
        <ele>353.900811</ele>
        <time>2022-03-07T10:33:51.523Z</time>
      </trkpt>
      <trkpt lat="42.34307" lon="24.34982">
        <ele>354.070436</ele>
        <time>2022-03-07T10:33:56.515Z</time>
      </trkpt>
      <trkpt lat="42.34316" lon="24.34978">
        <ele>354.213414</ele>
        <time>2022-03-07T10:34:00.517Z</time>
      </trkpt>
      <trkpt lat="42.34326" lon="24.34975">
        <ele>354.367346</ele>
        <time>2022-03-07T10:34:04.560Z</time>
      </trkpt>
      <trkpt lat="42.34336" lon="24.34973">
        <ele>354.615749</ele>
        <time>2022-03-07T10:34:08.520Z</time>
      </trkpt>
      <trkpt lat="42.34345" lon="24.34969">
        <ele>354.867899</ele>
        <time>2022-03-07T10:34:12.507Z</time>
      </trkpt>
      <trkpt lat="42.34354" lon="24.34967">
        <ele>355.118943</ele>
        <time>2022-03-07T10:34:16.530Z</time>
      </trkpt>
      <trkpt lat="42.34363" lon="24.34964">
        <ele>355.366031</ele>
        <time>2022-03-07T10:34:20.508Z</time>
      </trkpt>
      <trkpt lat="42.34374" lon="24.3496">
        <ele>355.660471</ele>
        <time>2022-03-07T10:34:25.513Z</time>
      </trkpt>
      <trkpt lat="42.34383" lon="24.34952">
        <ele>355.955709</ele>
        <time>2022-03-07T10:34:30.521Z</time>
      </trkpt>
      <trkpt lat="42.34394" lon="24.34947">
        <ele>356.246783</ele>
        <time>2022-03-07T10:34:35.527Z</time>
      </trkpt>
      <trkpt lat="42.34404" lon="24.34942">
        <ele>356.53922</ele>
        <time>2022-03-07T10:34:40.526Z</time>
      </trkpt>
      <trkpt lat="42.34415" lon="24.34938">
        <ele>356.828033</ele>
        <time>2022-03-07T10:34:45.526Z</time>
      </trkpt>
      <trkpt lat="42.34426" lon="24.34934">
        <ele>357.12666</ele>
        <time>2022-03-07T10:34:50.521Z</time>
      </trkpt>
      <trkpt lat="42.34435" lon="24.34932">
        <ele>357.372777</ele>
        <time>2022-03-07T10:34:54.527Z</time>
      </trkpt>
      <trkpt lat="42.34444" lon="24.34929">
        <ele>357.613089</ele>
        <time>2022-03-07T10:34:58.518Z</time>
      </trkpt>
      <trkpt lat="42.34453" lon="24.34927">
        <ele>357.865709</ele>
        <time>2022-03-07T10:35:02.504Z</time>
      </trkpt>
      <trkpt lat="42.34463" lon="24.34927">
        <ele>358.130827</ele>
        <time>2022-03-07T10:35:06.500Z</time>
      </trkpt>
      <trkpt lat="42.34472" lon="24.34924">
        <ele>358.384468</ele>
        <time>2022-03-07T10:35:10.518Z</time>
      </trkpt>
      <trkpt lat="42.34482" lon="24.34922">
        <ele>358.641484</ele>
        <time>2022-03-07T10:35:14.510Z</time>
      </trkpt>
      <trkpt lat="42.34491" lon="24.34919">
        <ele>358.888144</ele>
        <time>2022-03-07T10:35:18.541Z</time>
      </trkpt>
      <trkpt lat="42.345" lon="24.34915">
        <ele>359.132128</ele>
        <time>2022-03-07T10:35:22.510Z</time>
      </trkpt>
      <trkpt lat="42.34509" lon="24.34912">
        <ele>359.322486</ele>
        <time>2022-03-07T10:35:26.552Z</time>
      </trkpt>
      <trkpt lat="42.34519" lon="24.34909">
        <ele>359.522837</ele>
        <time>2022-03-07T10:35:30.531Z</time>
      </trkpt>
      <trkpt lat="42.34529" lon="24.34905">
        <ele>359.724083</ele>
        <time>2022-03-07T10:35:34.501Z</time>
      </trkpt>
      <trkpt lat="42.34538" lon="24.34901">
        <ele>359.91677</ele>
        <time>2022-03-07T10:35:38.524Z</time>
      </trkpt>
      <trkpt lat="42.34547" lon="24.34898">
        <ele>360.10963</ele>
        <time>2022-03-07T10:35:42.546Z</time>
      </trkpt>
      <trkpt lat="42.34557" lon="24.34895">
        <ele>360.309209</ele>
        <time>2022-03-07T10:35:46.525Z</time>
      </trkpt>
      <trkpt lat="42.34566" lon="24.34892">
        <ele>360.498541</ele>
        <time>2022-03-07T10:35:50.511Z</time>
      </trkpt>
      <trkpt lat="42.34576" lon="24.34888">
        <ele>360.701678</ele>
        <time>2022-03-07T10:35:54.519Z</time>
      </trkpt>
      <trkpt lat="42.34586" lon="24.34884">
        <ele>360.899397</ele>
        <time>2022-03-07T10:35:58.524Z</time>
      </trkpt>
      <trkpt lat="42.34596" lon="24.3488">
        <ele>361.111606</ele>
        <time>2022-03-07T10:36:02.523Z</time>
      </trkpt>
      <trkpt lat="42.34606" lon="24.34876">
        <ele>361.313744</ele>
        <time>2022-03-07T10:36:06.527Z</time>
      </trkpt>
      <trkpt lat="42.34616" lon="24.34872">
        <ele>361.526361</ele>
        <time>2022-03-07T10:36:10.535Z</time>
      </trkpt>
      <trkpt lat="42.34626" lon="24.34868">
        <ele>361.730912</ele>
        <time>2022-03-07T10:36:14.550Z</time>
      </trkpt>
      <trkpt lat="42.34636" lon="24.34864">
        <ele>361.931727</ele>
        <time>2022-03-07T10:36:18.511Z</time>
      </trkpt>
      <trkpt lat="42.34646" lon="24.34861">
        <ele>362.137421</ele>
        <time>2022-03-07T10:36:22.525Z</time>
      </trkpt>
      <trkpt lat="42.34656" lon="24.34858">
        <ele>362.338805</ele>
        <time>2022-03-07T10:36:26.555Z</time>
      </trkpt>
      <trkpt lat="42.34666" lon="24.34854">
        <ele>362.539198</ele>
        <time>2022-03-07T10:36:30.518Z</time>
      </trkpt>
      <trkpt lat="42.34675" lon="24.34852">
        <ele>362.743064</ele>
        <time>2022-03-07T10:36:34.524Z</time>
      </trkpt>
      <trkpt lat="42.34684" lon="24.34848">
        <ele>363.04978</ele>
        <time>2022-03-07T10:36:38.522Z</time>
      </trkpt>
      <trkpt lat="42.34693" lon="24.34844">
        <ele>363.372233</ele>
        <time>2022-03-07T10:36:42.546Z</time>
      </trkpt>
      <trkpt lat="42.34702" lon="24.34841">
        <ele>363.694395</ele>
        <time>2022-03-07T10:36:46.518Z</time>
      </trkpt>
      <trkpt lat="42.34711" lon="24.34838">
        <ele>364.016764</ele>
        <time>2022-03-07T10:36:50.527Z</time>
      </trkpt>
      <trkpt lat="42.34721" lon="24.34834">
        <ele>364.360224</ele>
        <time>2022-03-07T10:36:54.521Z</time>
      </trkpt>
      <trkpt lat="42.34729" lon="24.3483">
        <ele>364.665878</ele>
        <time>2022-03-07T10:36:58.534Z</time>
      </trkpt>
      <trkpt lat="42.34739" lon="24.34826">
        <ele>365.01331</ele>
        <time>2022-03-07T10:37:02.526Z</time>
      </trkpt>
      <trkpt lat="42.3475" lon="24.34821">
        <ele>365.39112</ele>
        <time>2022-03-07T10:37:06.519Z</time>
      </trkpt>
      <trkpt lat="42.34759" lon="24.34818">
        <ele>365.72332</ele>
        <time>2022-03-07T10:37:10.560Z</time>
      </trkpt>
      <trkpt lat="42.34769" lon="24.34815">
        <ele>366.060901</ele>
        <time>2022-03-07T10:37:14.514Z</time>
      </trkpt>
      <trkpt lat="42.34779" lon="24.34812">
        <ele>366.406848</ele>
        <time>2022-03-07T10:37:18.509Z</time>
      </trkpt>
      <trkpt lat="42.34788" lon="24.34808">
        <ele>366.726601</ele>
        <time>2022-03-07T10:37:22.520Z</time>
      </trkpt>
      <trkpt lat="42.34799" lon="24.34803">
        <ele>367.114282</ele>
        <time>2022-03-07T10:37:27.510Z</time>
      </trkpt>
      <trkpt lat="42.34808" lon="24.34799">
        <ele>367.432719</ele>
        <time>2022-03-07T10:37:31.530Z</time>
      </trkpt>
      <trkpt lat="42.34818" lon="24.34794">
        <ele>367.800323</ele>
        <time>2022-03-07T10:37:36.517Z</time>
      </trkpt>
      <trkpt lat="42.34828" lon="24.34791">
        <ele>368.135154</ele>
        <time>2022-03-07T10:37:40.516Z</time>
      </trkpt>
      <trkpt lat="42.34838" lon="24.34787">
        <ele>368.507424</ele>
        <time>2022-03-07T10:37:45.507Z</time>
      </trkpt>
      <trkpt lat="42.34848" lon="24.34783">
        <ele>368.823524</ele>
        <time>2022-03-07T10:37:50.513Z</time>
      </trkpt>
      <trkpt lat="42.34857" lon="24.3478">
        <ele>368.996796</ele>
        <time>2022-03-07T10:37:55.525Z</time>
      </trkpt>
      <trkpt lat="42.34867" lon="24.34777">
        <ele>369.166359</ele>
        <time>2022-03-07T10:37:59.499Z</time>
      </trkpt>
      <trkpt lat="42.34876" lon="24.34774">
        <ele>369.328798</ele>
        <time>2022-03-07T10:38:03.519Z</time>
      </trkpt>
      <trkpt lat="42.34885" lon="24.34772">
        <ele>369.488563</ele>
        <time>2022-03-07T10:38:07.511Z</time>
      </trkpt>
      <trkpt lat="42.34895" lon="24.3477">
        <ele>369.675294</ele>
        <time>2022-03-07T10:38:12.527Z</time>
      </trkpt>
      <trkpt lat="42.34904" lon="24.34766">
        <ele>369.838107</ele>
        <time>2022-03-07T10:38:16.527Z</time>
      </trkpt>
      <trkpt lat="42.34914" lon="24.34763">
        <ele>370.009634</ele>
        <time>2022-03-07T10:38:20.518Z</time>
      </trkpt>
      <trkpt lat="42.34923" lon="24.3476">
        <ele>370.178694</ele>
        <time>2022-03-07T10:38:24.530Z</time>
      </trkpt>
      <trkpt lat="42.34934" lon="24.34758">
        <ele>370.363705</ele>
        <time>2022-03-07T10:38:28.581Z</time>
      </trkpt>
      <trkpt lat="42.34943" lon="24.34755">
        <ele>370.531807</ele>
        <time>2022-03-07T10:38:32.518Z</time>
      </trkpt>
      <trkpt lat="42.34953" lon="24.34752">
        <ele>370.70371</ele>
        <time>2022-03-07T10:38:36.530Z</time>
      </trkpt>
      <trkpt lat="42.34963" lon="24.34748">
        <ele>370.893207</ele>
        <time>2022-03-07T10:38:40.518Z</time>
      </trkpt>
      <trkpt lat="42.34974" lon="24.34744">
        <ele>371.085713</ele>
        <time>2022-03-07T10:38:44.575Z</time>
      </trkpt>
      <trkpt lat="42.34985" lon="24.3474">
        <ele>371.28835</ele>
        <time>2022-03-07T10:38:48.521Z</time>
      </trkpt>
      <trkpt lat="42.34996" lon="24.34736">
        <ele>371.493134</ele>
        <time>2022-03-07T10:38:52.521Z</time>
      </trkpt>
      <trkpt lat="42.35008" lon="24.34732">
        <ele>371.698522</ele>
        <time>2022-03-07T10:38:56.529Z</time>
      </trkpt>
      <trkpt lat="42.35018" lon="24.34729">
        <ele>371.892208</ele>
        <time>2022-03-07T10:39:00.508Z</time>
      </trkpt>
      <trkpt lat="42.3503" lon="24.34725">
        <ele>371.983988</ele>
        <time>2022-03-07T10:39:04.544Z</time>
      </trkpt>
      <trkpt lat="42.35041" lon="24.34722">
        <ele>372.035423</ele>
        <time>2022-03-07T10:39:08.523Z</time>
      </trkpt>
      <trkpt lat="42.35053" lon="24.34719">
        <ele>372.088356</ele>
        <time>2022-03-07T10:39:12.516Z</time>
      </trkpt>
      <trkpt lat="42.35064" lon="24.34715">
        <ele>372.14025</ele>
        <time>2022-03-07T10:39:16.527Z</time>
      </trkpt>
      <trkpt lat="42.35073" lon="24.34711">
        <ele>372.181933</ele>
        <time>2022-03-07T10:39:19.518Z</time>
      </trkpt>
      <trkpt lat="42.35085" lon="24.34708">
        <ele>372.236577</ele>
        <time>2022-03-07T10:39:23.517Z</time>
      </trkpt>
      <trkpt lat="42.35094" lon="24.34705">
        <ele>372.278016</ele>
        <time>2022-03-07T10:39:26.521Z</time>
      </trkpt>
      <trkpt lat="42.35105" lon="24.34704">
        <ele>372.330722</ele>
        <time>2022-03-07T10:39:30.523Z</time>
      </trkpt>
      <trkpt lat="42.35117" lon="24.34704">
        <ele>372.3828</ele>
        <time>2022-03-07T10:39:34.519Z</time>
      </trkpt>
      <trkpt lat="42.35127" lon="24.34706">
        <ele>372.42688</ele>
        <time>2022-03-07T10:39:37.521Z</time>
      </trkpt>
      <trkpt lat="42.35137" lon="24.34709">
        <ele>372.472404</ele>
        <time>2022-03-07T10:39:40.523Z</time>
      </trkpt>
      <trkpt lat="42.35146" lon="24.34713">
        <ele>372.518058</ele>
        <time>2022-03-07T10:39:43.524Z</time>
      </trkpt>
      <trkpt lat="42.35156" lon="24.34717">
        <ele>372.562375</ele>
        <time>2022-03-07T10:39:46.513Z</time>
      </trkpt>
      <trkpt lat="42.35165" lon="24.34721">
        <ele>372.603937</ele>
        <time>2022-03-07T10:39:49.527Z</time>
      </trkpt>
      <trkpt lat="42.35176" lon="24.34727">
        <ele>372.65733</ele>
        <time>2022-03-07T10:39:53.531Z</time>
      </trkpt>
      <trkpt lat="42.35184" lon="24.34731">
        <ele>372.697822</ele>
        <time>2022-03-07T10:39:56.519Z</time>
      </trkpt>
      <trkpt lat="42.35194" lon="24.34736">
        <ele>372.747038</ele>
        <time>2022-03-07T10:40:00.526Z</time>
      </trkpt>
      <trkpt lat="42.35204" lon="24.34742">
        <ele>373.262829</ele>
        <time>2022-03-07T10:40:04.532Z</time>
      </trkpt>
      <trkpt lat="42.35213" lon="24.34747">
        <ele>373.810799</ele>
        <time>2022-03-07T10:40:08.506Z</time>
      </trkpt>
      <trkpt lat="42.35223" lon="24.34752">
        <ele>374.37556</ele>
        <time>2022-03-07T10:40:13.523Z</time>
      </trkpt>
      <trkpt lat="42.35233" lon="24.34757">
        <ele>374.929784</ele>
        <time>2022-03-07T10:40:18.523Z</time>
      </trkpt>
      <trkpt lat="42.35243" lon="24.34759">
        <ele>375.481431</ele>
        <time>2022-03-07T10:40:23.516Z</time>
      </trkpt>
      <trkpt lat="42.35253" lon="24.34764">
        <ele>376.049862</ele>
        <time>2022-03-07T10:40:29.528Z</time>
      </trkpt>
      <trkpt lat="42.35262" lon="24.34765">
        <ele>376.555266</ele>
        <time>2022-03-07T10:40:34.513Z</time>
      </trkpt>
      <trkpt lat="42.35271" lon="24.34766">
        <ele>377.066759</ele>
        <time>2022-03-07T10:40:39.515Z</time>
      </trkpt>
      <trkpt lat="42.35281" lon="24.34767">
        <ele>377.584452</ele>
        <time>2022-03-07T10:40:44.554Z</time>
      </trkpt>
      <trkpt lat="42.35292" lon="24.34769">
        <ele>378.167213</ele>
        <time>2022-03-07T10:40:50.523Z</time>
      </trkpt>
      <trkpt lat="42.35301" lon="24.34766">
        <ele>378.697595</ele>
        <time>2022-03-07T10:40:55.506Z</time>
      </trkpt>
      <trkpt lat="42.35311" lon="24.34764">
        <ele>379.217835</ele>
        <time>2022-03-07T10:41:00.567Z</time>
      </trkpt>
      <trkpt lat="42.3532" lon="24.34763">
        <ele>379.741358</ele>
        <time>2022-03-07T10:41:05.521Z</time>
      </trkpt>
      <trkpt lat="42.3533" lon="24.34761">
        <ele>380.242898</ele>
        <time>2022-03-07T10:41:10.514Z</time>
      </trkpt>
      <trkpt lat="42.35339" lon="24.34761">
        <ele>380.742083</ele>
        <time>2022-03-07T10:41:16.506Z</time>
      </trkpt>
      <trkpt lat="42.35349" lon="24.34758">
        <ele>381.307556</ele>
        <time>2022-03-07T10:41:22.556Z</time>
      </trkpt>
      <trkpt lat="42.35358" lon="24.34756">
        <ele>381.799308</ele>
        <time>2022-03-07T10:41:27.559Z</time>
      </trkpt>
      <trkpt lat="42.35369" lon="24.34755">
        <ele>382.375903</ele>
        <time>2022-03-07T10:41:33.514Z</time>
      </trkpt>
      <trkpt lat="42.35378" lon="24.34753">
        <ele>382.866682</ele>
        <time>2022-03-07T10:41:38.520Z</time>
      </trkpt>
      <trkpt lat="42.35388" lon="24.34751">
        <ele>383.374642</ele>
        <time>2022-03-07T10:41:43.564Z</time>
      </trkpt>
      <trkpt lat="42.35397" lon="24.3475">
        <ele>383.85327</ele>
        <time>2022-03-07T10:41:48.531Z</time>
      </trkpt>
      <trkpt lat="42.35407" lon="24.34748">
        <ele>384.36474</ele>
        <time>2022-03-07T10:41:53.523Z</time>
      </trkpt>
      <trkpt lat="42.35417" lon="24.34747">
        <ele>384.866413</ele>
        <time>2022-03-07T10:41:58.532Z</time>
      </trkpt>
      <trkpt lat="42.35427" lon="24.34746">
        <ele>385.362331</ele>
        <time>2022-03-07T10:42:03.515Z</time>
      </trkpt>
      <trkpt lat="42.35436" lon="24.34746">
        <ele>385.851422</ele>
        <time>2022-03-07T10:42:08.517Z</time>
      </trkpt>
      <trkpt lat="42.35446" lon="24.34745">
        <ele>386.337522</ele>
        <time>2022-03-07T10:42:13.517Z</time>
      </trkpt>
      <trkpt lat="42.35457" lon="24.34743">
        <ele>386.897926</ele>
        <time>2022-03-07T10:42:19.534Z</time>
      </trkpt>
      <trkpt lat="42.35466" lon="24.34741">
        <ele>387.359914</ele>
        <time>2022-03-07T10:42:24.515Z</time>
      </trkpt>
      <trkpt lat="42.35475" lon="24.34739">
        <ele>387.85447</ele>
        <time>2022-03-07T10:42:29.528Z</time>
      </trkpt>
      <trkpt lat="42.35485" lon="24.34737">
        <ele>388.33669</ele>
        <time>2022-03-07T10:42:34.535Z</time>
      </trkpt>
      <trkpt lat="42.35495" lon="24.34735">
        <ele>388.857293</ele>
        <time>2022-03-07T10:42:39.526Z</time>
      </trkpt>
      <trkpt lat="42.35505" lon="24.34731">
        <ele>389.40711</ele>
        <time>2022-03-07T10:42:44.558Z</time>
      </trkpt>
      <trkpt lat="42.35515" lon="24.34727">
        <ele>389.951017</ele>
        <time>2022-03-07T10:42:49.540Z</time>
      </trkpt>
      <trkpt lat="42.35525" lon="24.34723">
        <ele>390.456795</ele>
        <time>2022-03-07T10:42:54.531Z</time>
      </trkpt>
      <trkpt lat="42.35535" lon="24.34721">
        <ele>390.997028</ele>
        <time>2022-03-07T10:42:59.536Z</time>
      </trkpt>
      <trkpt lat="42.35544" lon="24.34716">
        <ele>391.480413</ele>
        <time>2022-03-07T10:43:03.517Z</time>
      </trkpt>
      <trkpt lat="42.35554" lon="24.34712">
        <ele>391.811938</ele>
        <time>2022-03-07T10:43:07.517Z</time>
      </trkpt>
      <trkpt lat="42.35564" lon="24.34708">
        <ele>392.042057</ele>
        <time>2022-03-07T10:43:11.550Z</time>
      </trkpt>
      <trkpt lat="42.35573" lon="24.34704">
        <ele>392.260128</ele>
        <time>2022-03-07T10:43:15.515Z</time>
      </trkpt>
      <trkpt lat="42.35583" lon="24.34699">
        <ele>392.487039</ele>
        <time>2022-03-07T10:43:19.525Z</time>
      </trkpt>
      <trkpt lat="42.35592" lon="24.34695">
        <ele>392.705595</ele>
        <time>2022-03-07T10:43:23.530Z</time>
      </trkpt>
      <trkpt lat="42.35602" lon="24.34692">
        <ele>392.92699</ele>
        <time>2022-03-07T10:43:28.525Z</time>
      </trkpt>
      <trkpt lat="42.35611" lon="24.34687">
        <ele>393.13889</ele>
        <time>2022-03-07T10:43:32.531Z</time>
      </trkpt>
      <trkpt lat="42.3562" lon="24.34683">
        <ele>393.34168</ele>
        <time>2022-03-07T10:43:36.520Z</time>
      </trkpt>
      <trkpt lat="42.35629" lon="24.34676">
        <ele>393.57434</ele>
        <time>2022-03-07T10:43:41.527Z</time>
      </trkpt>
      <trkpt lat="42.35639" lon="24.34672">
        <ele>393.81863</ele>
        <time>2022-03-07T10:43:46.502Z</time>
      </trkpt>
      <trkpt lat="42.35649" lon="24.34667">
        <ele>394.047981</ele>
        <time>2022-03-07T10:43:50.560Z</time>
      </trkpt>
      <trkpt lat="42.35658" lon="24.34661">
        <ele>394.275797</ele>
        <time>2022-03-07T10:43:54.531Z</time>
      </trkpt>
      <trkpt lat="42.35667" lon="24.34656">
        <ele>394.480308</ele>
        <time>2022-03-07T10:43:58.538Z</time>
      </trkpt>
      <trkpt lat="42.35675" lon="24.34651">
        <ele>394.684511</ele>
        <time>2022-03-07T10:44:02.527Z</time>
      </trkpt>
      <trkpt lat="42.35684" lon="24.34647">
        <ele>394.887279</ele>
        <time>2022-03-07T10:44:06.520Z</time>
      </trkpt>
      <trkpt lat="42.35693" lon="24.34643">
        <ele>395.092386</ele>
        <time>2022-03-07T10:44:10.548Z</time>
      </trkpt>
      <trkpt lat="42.35702" lon="24.34636">
        <ele>395.32652</ele>
        <time>2022-03-07T10:44:14.538Z</time>
      </trkpt>
      <trkpt lat="42.35711" lon="24.34631">
        <ele>395.535492</ele>
        <time>2022-03-07T10:44:18.518Z</time>
      </trkpt>
      <trkpt lat="42.35719" lon="24.34625">
        <ele>395.830647</ele>
        <time>2022-03-07T10:44:22.530Z</time>
      </trkpt>
      <trkpt lat="42.35729" lon="24.34619">
        <ele>396.251187</ele>
        <time>2022-03-07T10:44:26.515Z</time>
      </trkpt>
      <trkpt lat="42.35738" lon="24.34611">
        <ele>396.684164</ele>
        <time>2022-03-07T10:44:30.516Z</time>
      </trkpt>
      <trkpt lat="42.35742" lon="24.34599">
        <ele>397.094885</ele>
        <time>2022-03-07T10:44:34.567Z</time>
      </trkpt>
      <trkpt lat="42.35745" lon="24.34587">
        <ele>397.455307</ele>
        <time>2022-03-07T10:44:38.539Z</time>
      </trkpt>
      <trkpt lat="42.35749" lon="24.34576">
        <ele>397.823855</ele>
        <time>2022-03-07T10:44:42.558Z</time>
      </trkpt>
      <trkpt lat="42.35754" lon="24.34563">
        <ele>398.256976</ele>
        <time>2022-03-07T10:44:47.517Z</time>
      </trkpt>
      <trkpt lat="42.35759" lon="24.34551">
        <ele>398.648646</ele>
        <time>2022-03-07T10:44:51.560Z</time>
      </trkpt>
      <trkpt lat="42.35764" lon="24.34541">
        <ele>399.022201</ele>
        <time>2022-03-07T10:44:55.525Z</time>
      </trkpt>
      <trkpt lat="42.35769" lon="24.3453">
        <ele>399.410611</ele>
        <time>2022-03-07T10:44:59.520Z</time>
      </trkpt>
      <trkpt lat="42.35774" lon="24.34519">
        <ele>399.775944</ele>
        <time>2022-03-07T10:45:03.519Z</time>
      </trkpt>
      <trkpt lat="42.35778" lon="24.34508">
        <ele>400.140915</ele>
        <time>2022-03-07T10:45:07.523Z</time>
      </trkpt>
      <trkpt lat="42.35783" lon="24.34495">
        <ele>400.580386</ele>
        <time>2022-03-07T10:45:12.537Z</time>
      </trkpt>
      <trkpt lat="42.35787" lon="24.34484">
        <ele>400.948157</ele>
        <time>2022-03-07T10:45:16.537Z</time>
      </trkpt>
      <trkpt lat="42.35793" lon="24.34473">
        <ele>401.342791</ele>
        <time>2022-03-07T10:45:20.537Z</time>
      </trkpt>
      <trkpt lat="42.35798" lon="24.34462">
        <ele>401.722151</ele>
        <time>2022-03-07T10:45:24.533Z</time>
      </trkpt>
      <trkpt lat="42.35803" lon="24.3445">
        <ele>402.125647</ele>
        <time>2022-03-07T10:45:29.571Z</time>
      </trkpt>
      <trkpt lat="42.35808" lon="24.34439">
        <ele>402.510306</ele>
        <time>2022-03-07T10:45:34.527Z</time>
      </trkpt>
      <trkpt lat="42.35813" lon="24.34426">
        <ele>402.938537</ele>
        <time>2022-03-07T10:45:39.514Z</time>
      </trkpt>
      <trkpt lat="42.35819" lon="24.34416">
        <ele>403.308493</ele>
        <time>2022-03-07T10:45:43.536Z</time>
      </trkpt>
      <trkpt lat="42.35824" lon="24.34405">
        <ele>403.681478</ele>
        <time>2022-03-07T10:45:47.529Z</time>
      </trkpt>
      <trkpt lat="42.35829" lon="24.34395">
        <ele>404.047739</ele>
        <time>2022-03-07T10:45:51.531Z</time>
      </trkpt>
      <trkpt lat="42.35835" lon="24.34382">
        <ele>404.491179</ele>
        <time>2022-03-07T10:45:56.549Z</time>
      </trkpt>
      <trkpt lat="42.3584" lon="24.3437">
        <ele>404.917341</ele>
        <time>2022-03-07T10:46:01.524Z</time>
      </trkpt>
      <trkpt lat="42.35845" lon="24.34357">
        <ele>405.333712</ele>
        <time>2022-03-07T10:46:06.528Z</time>
      </trkpt>
      <trkpt lat="42.35849" lon="24.34345">
        <ele>405.720021</ele>
        <time>2022-03-07T10:46:11.524Z</time>
      </trkpt>
      <trkpt lat="42.35855" lon="24.34333">
        <ele>406.132588</ele>
        <time>2022-03-07T10:46:16.515Z</time>
      </trkpt>
      <trkpt lat="42.35859" lon="24.34321">
        <ele>406.520622</ele>
        <time>2022-03-07T10:46:21.528Z</time>
      </trkpt>
      <trkpt lat="42.35864" lon="24.34309">
        <ele>406.91457</ele>
        <time>2022-03-07T10:46:26.528Z</time>
      </trkpt>
      <trkpt lat="42.35867" lon="24.34297">
        <ele>407.307625</ele>
        <time>2022-03-07T10:46:31.533Z</time>
      </trkpt>
      <trkpt lat="42.3587" lon="24.34285">
        <ele>407.678632</ele>
        <time>2022-03-07T10:46:36.527Z</time>
      </trkpt>
      <trkpt lat="42.35874" lon="24.34272">
        <ele>408.078516</ele>
        <time>2022-03-07T10:46:41.527Z</time>
      </trkpt>
      <trkpt lat="42.35876" lon="24.34259">
        <ele>408.481842</ele>
        <time>2022-03-07T10:46:46.586Z</time>
      </trkpt>
      <trkpt lat="42.35878" lon="24.34245">
        <ele>408.886567</ele>
        <time>2022-03-07T10:46:52.535Z</time>
      </trkpt>
      <trkpt lat="42.3588" lon="24.3423">
        <ele>409.324413</ele>
        <time>2022-03-07T10:46:58.533Z</time>
      </trkpt>
      <trkpt lat="42.3588" lon="24.34216">
        <ele>409.729608</ele>
        <time>2022-03-07T10:47:04.516Z</time>
      </trkpt>
      <trkpt lat="42.3588" lon="24.34204">
        <ele>409.993553</ele>
        <time>2022-03-07T10:47:09.539Z</time>
      </trkpt>
      <trkpt lat="42.3588" lon="24.34192">
        <ele>410.063341</ele>
        <time>2022-03-07T10:47:14.517Z</time>
      </trkpt>
      <trkpt lat="42.35877" lon="24.34179">
        <ele>410.142897</ele>
        <time>2022-03-07T10:47:20.527Z</time>
      </trkpt>
      <trkpt lat="42.35873" lon="24.34168">
        <ele>410.211948</ele>
        <time>2022-03-07T10:47:25.522Z</time>
      </trkpt>
      <trkpt lat="42.35869" lon="24.34155">
        <ele>410.288312</ele>
        <time>2022-03-07T10:47:30.562Z</time>
      </trkpt>
      <trkpt lat="42.35865" lon="24.34142">
        <ele>410.372991</ele>
        <time>2022-03-07T10:47:35.522Z</time>
      </trkpt>
      <trkpt lat="42.35862" lon="24.34128">
        <ele>410.452891</ele>
        <time>2022-03-07T10:47:39.506Z</time>
      </trkpt>
      <trkpt lat="42.35859" lon="24.34113">
        <ele>410.541412</ele>
        <time>2022-03-07T10:47:43.531Z</time>
      </trkpt>
      <trkpt lat="42.35856" lon="24.34101">
        <ele>410.613046</ele>
        <time>2022-03-07T10:47:46.509Z</time>
      </trkpt>
      <trkpt lat="42.35853" lon="24.34089">
        <ele>410.68576</ele>
        <time>2022-03-07T10:47:49.527Z</time>
      </trkpt>
      <trkpt lat="42.3585" lon="24.34076">
        <ele>410.761879</ele>
        <time>2022-03-07T10:47:52.556Z</time>
      </trkpt>
      <trkpt lat="42.35846" lon="24.34064">
        <ele>410.838261</ele>
        <time>2022-03-07T10:47:55.537Z</time>
      </trkpt>
      <trkpt lat="42.35842" lon="24.34051">
        <ele>410.918556</ele>
        <time>2022-03-07T10:47:58.555Z</time>
      </trkpt>
      <trkpt lat="42.35839" lon="24.34037">
        <ele>411.00295</ele>
        <time>2022-03-07T10:48:01.518Z</time>
      </trkpt>
      <trkpt lat="42.35836" lon="24.34023">
        <ele>411.081915</ele>
        <time>2022-03-07T10:48:04.521Z</time>
      </trkpt>
      <trkpt lat="42.35833" lon="24.34008">
        <ele>411.171166</ele>
        <time>2022-03-07T10:48:08.515Z</time>
      </trkpt>
      <trkpt lat="42.3583" lon="24.33993">
        <ele>411.261498</ele>
        <time>2022-03-07T10:48:12.546Z</time>
      </trkpt>
      <trkpt lat="42.35827" lon="24.33981">
        <ele>411.333348</ele>
        <time>2022-03-07T10:48:15.550Z</time>
      </trkpt>
      <trkpt lat="42.35824" lon="24.33969">
        <ele>411.637978</ele>
        <time>2022-03-07T10:48:18.528Z</time>
      </trkpt>
      <trkpt lat="42.3582" lon="24.33956">
        <ele>412.051309</ele>
        <time>2022-03-07T10:48:21.537Z</time>
      </trkpt>
      <trkpt lat="42.35817" lon="24.33944">
        <ele>412.451681</ele>
        <time>2022-03-07T10:48:24.536Z</time>
      </trkpt>
      <trkpt lat="42.35813" lon="24.33932">
        <ele>412.839094</ele>
        <time>2022-03-07T10:48:27.544Z</time>
      </trkpt>
      <trkpt lat="42.35811" lon="24.33918">
        <ele>413.293346</ele>
        <time>2022-03-07T10:48:31.550Z</time>
      </trkpt>
      <trkpt lat="42.35807" lon="24.33905">
        <ele>413.721083</ele>
        <time>2022-03-07T10:48:35.575Z</time>
      </trkpt>
      <trkpt lat="42.35803" lon="24.33892">
        <ele>414.156749</ele>
        <time>2022-03-07T10:48:39.530Z</time>
      </trkpt>
      <trkpt lat="42.35799" lon="24.33879">
        <ele>414.566584</ele>
        <time>2022-03-07T10:48:43.534Z</time>
      </trkpt>
      <trkpt lat="42.35795" lon="24.33866">
        <ele>415.024624</ele>
        <time>2022-03-07T10:48:48.528Z</time>
      </trkpt>
      <trkpt lat="42.35792" lon="24.33852">
        <ele>415.473398</ele>
        <time>2022-03-07T10:48:53.549Z</time>
      </trkpt>
      <trkpt lat="42.35789" lon="24.33839">
        <ele>415.876963</ele>
        <time>2022-03-07T10:48:58.534Z</time>
      </trkpt>
      <trkpt lat="42.35786" lon="24.33827">
        <ele>416.278922</ele>
        <time>2022-03-07T10:49:03.534Z</time>
      </trkpt>
      <trkpt lat="42.35782" lon="24.33814">
        <ele>416.680733</ele>
        <time>2022-03-07T10:49:08.529Z</time>
      </trkpt>
      <trkpt lat="42.3578" lon="24.33803">
        <ele>417.061291</ele>
        <time>2022-03-07T10:49:13.556Z</time>
      </trkpt>
      <trkpt lat="42.35777" lon="24.33789">
        <ele>417.488288</ele>
        <time>2022-03-07T10:49:19.527Z</time>
      </trkpt>
      <trkpt lat="42.35773" lon="24.33777">
        <ele>417.897294</ele>
        <time>2022-03-07T10:49:25.527Z</time>
      </trkpt>
      <trkpt lat="42.3577" lon="24.33764">
        <ele>418.314974</ele>
        <time>2022-03-07T10:49:31.525Z</time>
      </trkpt>
      <trkpt lat="42.35767" lon="24.33752">
        <ele>418.705607</ele>
        <time>2022-03-07T10:49:37.532Z</time>
      </trkpt>
      <trkpt lat="42.35764" lon="24.3374">
        <ele>418.858328</ele>
        <time>2022-03-07T10:49:43.522Z</time>
      </trkpt>
      <trkpt lat="42.35761" lon="24.33728">
        <ele>418.907111</ele>
        <time>2022-03-07T10:49:49.547Z</time>
      </trkpt>
      <trkpt lat="42.35757" lon="24.33715">
        <ele>418.960004</ele>
        <time>2022-03-07T10:49:56.534Z</time>
      </trkpt>
      <trkpt lat="42.35753" lon="24.33702">
        <ele>419.011233</ele>
        <time>2022-03-07T10:50:03.528Z</time>
      </trkpt>
      <trkpt lat="42.35751" lon="24.3369">
        <ele>419.057435</ele>
        <time>2022-03-07T10:50:09.538Z</time>
      </trkpt>
      <trkpt lat="42.35747" lon="24.33679">
        <ele>419.10272</ele>
        <time>2022-03-07T10:50:15.555Z</time>
      </trkpt>
      <trkpt lat="42.35745" lon="24.33667">
        <ele>419.148124</ele>
        <time>2022-03-07T10:50:21.531Z</time>
      </trkpt>
      <trkpt lat="42.35742" lon="24.33654">
        <ele>419.19739</ele>
        <time>2022-03-07T10:50:27.548Z</time>
      </trkpt>
      <trkpt lat="42.35738" lon="24.33643">
        <ele>419.245212</ele>
        <time>2022-03-07T10:50:33.565Z</time>
      </trkpt>
      <trkpt lat="42.35735" lon="24.33631">
        <ele>419.290508</ele>
        <time>2022-03-07T10:50:38.539Z</time>
      </trkpt>
      <trkpt lat="42.35731" lon="24.33617">
        <ele>419.345252</ele>
        <time>2022-03-07T10:50:43.535Z</time>
      </trkpt>
      <trkpt lat="42.35728" lon="24.33602">
        <ele>419.405267</ele>
        <time>2022-03-07T10:50:47.647Z</time>
      </trkpt>
      <trkpt lat="42.35724" lon="24.33588">
        <ele>419.462645</ele>
        <time>2022-03-07T10:50:50.535Z</time>
      </trkpt>
      <trkpt lat="42.35721" lon="24.3357">
        <ele>419.530022</ele>
        <time>2022-03-07T10:50:53.538Z</time>
      </trkpt>
      <trkpt lat="42.35719" lon="24.33557">
        <ele>419.578174</ele>
        <time>2022-03-07T10:50:55.614Z</time>
      </trkpt>
      <trkpt lat="42.35717" lon="24.33545">
        <ele>419.623925</ele>
        <time>2022-03-07T10:50:57.538Z</time>
      </trkpt>
      <trkpt lat="42.35716" lon="24.33528">
        <ele>419.687878</ele>
        <time>2022-03-07T10:51:00.650Z</time>
      </trkpt>
      <trkpt lat="42.35713" lon="24.33513">
        <ele>419.556858</ele>
        <time>2022-03-07T10:51:03.531Z</time>
      </trkpt>
      <trkpt lat="42.35711" lon="24.335">
        <ele>418.819444</ele>
        <time>2022-03-07T10:51:06.520Z</time>
      </trkpt>
      <trkpt lat="42.35708" lon="24.33488">
        <ele>418.1265</ele>
        <time>2022-03-07T10:51:10.514Z</time>
      </trkpt>
      <trkpt lat="42.35707" lon="24.33475">
        <ele>417.401371</ele>
        <time>2022-03-07T10:51:16.531Z</time>
      </trkpt>
      <trkpt lat="42.35703" lon="24.3346">
        <ele>416.48731</ele>
        <time>2022-03-07T10:51:20.589Z</time>
      </trkpt>
      <trkpt lat="42.35696" lon="24.3345">
        <ele>415.716038</ele>
        <time>2022-03-07T10:51:23.528Z</time>
      </trkpt>
      <trkpt lat="42.35685" lon="24.33444">
        <ele>414.849797</ele>
        <time>2022-03-07T10:51:27.535Z</time>
      </trkpt>
      <trkpt lat="42.35675" lon="24.33447">
        <ele>414.048498</ele>
        <time>2022-03-07T10:51:32.528Z</time>
      </trkpt>
      <trkpt lat="42.35669" lon="24.33459">
        <ele>413.274761</ele>
        <time>2022-03-07T10:51:37.518Z</time>
      </trkpt>
      <trkpt lat="42.35664" lon="24.33469">
        <ele>412.560407</ele>
        <time>2022-03-07T10:51:41.537Z</time>
      </trkpt>
      <trkpt lat="42.35657" lon="24.33479">
        <ele>411.764772</ele>
        <time>2022-03-07T10:51:47.524Z</time>
      </trkpt>
      <trkpt lat="42.35648" lon="24.33487">
        <ele>410.991216</ele>
        <time>2022-03-07T10:51:52.534Z</time>
      </trkpt>
      <trkpt lat="42.3564" lon="24.33495">
        <ele>410.227321</ele>
        <time>2022-03-07T10:51:57.534Z</time>
      </trkpt>
      <trkpt lat="42.35631" lon="24.33504">
        <ele>409.409446</ele>
        <time>2022-03-07T10:52:01.534Z</time>
      </trkpt>
      <trkpt lat="42.35624" lon="24.33512">
        <ele>408.693716</ele>
        <time>2022-03-07T10:52:05.516Z</time>
      </trkpt>
      <trkpt lat="42.35616" lon="24.33522">
        <ele>407.842712</ele>
        <time>2022-03-07T10:52:11.574Z</time>
      </trkpt>
      <trkpt lat="42.35607" lon="24.33532">
        <ele>407.013985</ele>
        <time>2022-03-07T10:52:16.513Z</time>
      </trkpt>
      <trkpt lat="42.35599" lon="24.33539">
        <ele>406.306471</ele>
        <time>2022-03-07T10:52:20.526Z</time>
      </trkpt>
      <trkpt lat="42.35591" lon="24.33547">
        <ele>405.296564</ele>
        <time>2022-03-07T10:52:24.538Z</time>
      </trkpt>
      <trkpt lat="42.35583" lon="24.33556">
        <ele>404.219777</ele>
        <time>2022-03-07T10:52:28.528Z</time>
      </trkpt>
      <trkpt lat="42.35576" lon="24.33564">
        <ele>403.278614</ele>
        <time>2022-03-07T10:52:32.511Z</time>
      </trkpt>
      <trkpt lat="42.35567" lon="24.33572">
        <ele>402.177768</ele>
        <time>2022-03-07T10:52:37.522Z</time>
      </trkpt>
      <trkpt lat="42.35559" lon="24.3358">
        <ele>401.111671</ele>
        <time>2022-03-07T10:52:41.529Z</time>
      </trkpt>
      <trkpt lat="42.3555" lon="24.33588">
        <ele>400.006318</ele>
        <time>2022-03-07T10:52:45.508Z</time>
      </trkpt>
      <trkpt lat="42.35541" lon="24.33595">
        <ele>398.92364</ele>
        <time>2022-03-07T10:52:50.520Z</time>
      </trkpt>
      <trkpt lat="42.35533" lon="24.33602">
        <ele>397.960596</ele>
        <time>2022-03-07T10:52:54.530Z</time>
      </trkpt>
      <trkpt lat="42.35524" lon="24.33611">
        <ele>396.75008</ele>
        <time>2022-03-07T10:52:58.517Z</time>
      </trkpt>
      <trkpt lat="42.35517" lon="24.33623">
        <ele>395.587274</ele>
        <time>2022-03-07T10:53:03.520Z</time>
      </trkpt>
      <trkpt lat="42.3551" lon="24.33631">
        <ele>394.631635</ele>
        <time>2022-03-07T10:53:07.527Z</time>
      </trkpt>
      <trkpt lat="42.35502" lon="24.33641">
        <ele>393.531958</ele>
        <time>2022-03-07T10:53:12.515Z</time>
      </trkpt>
      <trkpt lat="42.35495" lon="24.33651">
        <ele>392.47947</ele>
        <time>2022-03-07T10:53:16.510Z</time>
      </trkpt>
      <trkpt lat="42.35487" lon="24.33657">
        <ele>391.490004</ele>
        <time>2022-03-07T10:53:20.527Z</time>
      </trkpt>
      <trkpt lat="42.35479" lon="24.33664">
        <ele>390.466713</ele>
        <time>2022-03-07T10:53:24.520Z</time>
      </trkpt>
      <trkpt lat="42.35472" lon="24.33674">
        <ele>389.470425</ele>
        <time>2022-03-07T10:53:28.505Z</time>
      </trkpt>
      <trkpt lat="42.35464" lon="24.33683">
        <ele>388.359601</ele>
        <time>2022-03-07T10:53:33.510Z</time>
      </trkpt>
      <trkpt lat="42.35455" lon="24.33688">
        <ele>387.424482</ele>
        <time>2022-03-07T10:53:37.561Z</time>
      </trkpt>
      <trkpt lat="42.35446" lon="24.33696">
        <ele>386.888328</ele>
        <time>2022-03-07T10:53:41.530Z</time>
      </trkpt>
      <trkpt lat="42.35437" lon="24.33706">
        <ele>386.343188</ele>
        <time>2022-03-07T10:53:45.520Z</time>
      </trkpt>
      <trkpt lat="42.35431" lon="24.33718">
        <ele>385.80412</ele>
        <time>2022-03-07T10:53:49.622Z</time>
      </trkpt>
      <trkpt lat="42.35423" lon="24.33727">
        <ele>385.311356</ele>
        <time>2022-03-07T10:53:53.576Z</time>
      </trkpt>
      <trkpt lat="42.35413" lon="24.3373">
        <ele>384.785954</ele>
        <time>2022-03-07T10:53:57.532Z</time>
      </trkpt>
      <trkpt lat="42.35402" lon="24.33732">
        <ele>384.268084</ele>
        <time>2022-03-07T10:54:02.510Z</time>
      </trkpt>
      <trkpt lat="42.35391" lon="24.33729">
        <ele>383.690967</ele>
        <time>2022-03-07T10:54:07.549Z</time>
      </trkpt>
      <trkpt lat="42.35381" lon="24.33723">
        <ele>383.18427</ele>
        <time>2022-03-07T10:54:11.538Z</time>
      </trkpt>
      <trkpt lat="42.35373" lon="24.33712">
        <ele>382.622442</ele>
        <time>2022-03-07T10:54:16.537Z</time>
      </trkpt>
      <trkpt lat="42.35366" lon="24.33703">
        <ele>382.144027</ele>
        <time>2022-03-07T10:54:20.542Z</time>
      </trkpt>
      <trkpt lat="42.3536" lon="24.33691">
        <ele>381.602052</ele>
        <time>2022-03-07T10:54:25.553Z</time>
      </trkpt>
      <trkpt lat="42.35355" lon="24.33679">
        <ele>381.121095</ele>
        <time>2022-03-07T10:54:29.531Z</time>
      </trkpt>
      <trkpt lat="42.35349" lon="24.33667">
        <ele>380.595074</ele>
        <time>2022-03-07T10:54:33.533Z</time>
      </trkpt>
      <trkpt lat="42.35344" lon="24.33656">
        <ele>380.122333</ele>
        <time>2022-03-07T10:54:37.529Z</time>
      </trkpt>
      <trkpt lat="42.35337" lon="24.33646">
        <ele>379.643466</ele>
        <time>2022-03-07T10:54:41.526Z</time>
      </trkpt>
      <trkpt lat="42.35332" lon="24.33635">
        <ele>379.16262</ele>
        <time>2022-03-07T10:54:45.601Z</time>
      </trkpt>
      <trkpt lat="42.35327" lon="24.33625">
        <ele>378.716629</ele>
        <time>2022-03-07T10:54:49.510Z</time>
      </trkpt>
      <trkpt lat="42.3532" lon="24.33614">
        <ele>377.862025</ele>
        <time>2022-03-07T10:54:54.517Z</time>
      </trkpt>
      <trkpt lat="42.35312" lon="24.33604">
        <ele>376.948171</ele>
        <time>2022-03-07T10:54:59.539Z</time>
      </trkpt>
      <trkpt lat="42.35305" lon="24.33596">
        <ele>376.176003</ele>
        <time>2022-03-07T10:55:04.523Z</time>
      </trkpt>
      <trkpt lat="42.35295" lon="24.33588">
        <ele>375.20746</ele>
        <time>2022-03-07T10:55:09.528Z</time>
      </trkpt>
      <trkpt lat="42.35286" lon="24.3358">
        <ele>374.306975</ele>
        <time>2022-03-07T10:55:14.536Z</time>
      </trkpt>
      <trkpt lat="42.35277" lon="24.33572">
        <ele>373.380239</ele>
        <time>2022-03-07T10:55:19.566Z</time>
      </trkpt>
      <trkpt lat="42.35269" lon="24.33566">
        <ele>372.581911</ele>
        <time>2022-03-07T10:55:23.555Z</time>
      </trkpt>
      <trkpt lat="42.35259" lon="24.33559">
        <ele>371.655529</ele>
        <time>2022-03-07T10:55:27.536Z</time>
      </trkpt>
      <trkpt lat="42.3525" lon="24.33553">
        <ele>370.847642</ele>
        <time>2022-03-07T10:55:31.540Z</time>
      </trkpt>
      <trkpt lat="42.35241" lon="24.33546">
        <ele>369.944713</ele>
        <time>2022-03-07T10:55:36.539Z</time>
      </trkpt>
      <trkpt lat="42.35232" lon="24.33539">
        <ele>369.073738</ele>
        <time>2022-03-07T10:55:41.559Z</time>
      </trkpt>
      <trkpt lat="42.35224" lon="24.33532">
        <ele>368.262252</ele>
        <time>2022-03-07T10:55:45.511Z</time>
      </trkpt>
      <trkpt lat="42.35216" lon="24.33526">
        <ele>367.458484</ele>
        <time>2022-03-07T10:55:49.515Z</time>
      </trkpt>
      <trkpt lat="42.35206" lon="24.33519">
        <ele>366.529394</ele>
        <time>2022-03-07T10:55:54.529Z</time>
      </trkpt>
      <trkpt lat="42.35197" lon="24.33514">
        <ele>365.74351</ele>
        <time>2022-03-07T10:55:58.516Z</time>
      </trkpt>
      <trkpt lat="42.35189" lon="24.33507">
        <ele>364.948381</ele>
        <time>2022-03-07T10:56:02.534Z</time>
      </trkpt>
      <trkpt lat="42.35181" lon="24.33499">
        <ele>364.112171</ele>
        <time>2022-03-07T10:56:06.534Z</time>
      </trkpt>
      <trkpt lat="42.35173" lon="24.33493">
        <ele>363.281779</ele>
        <time>2022-03-07T10:56:11.523Z</time>
      </trkpt>
      <trkpt lat="42.35163" lon="24.33486">
        <ele>362.338722</ele>
        <time>2022-03-07T10:56:16.520Z</time>
      </trkpt>
      <trkpt lat="42.35153" lon="24.33479">
        <ele>361.380993</ele>
        <time>2022-03-07T10:56:21.526Z</time>
      </trkpt>
      <trkpt lat="42.35145" lon="24.3347">
        <ele>360.50967</ele>
        <time>2022-03-07T10:56:24.539Z</time>
      </trkpt>
      <trkpt lat="42.35138" lon="24.33459">
        <ele>359.615052</ele>
        <time>2022-03-07T10:56:27.523Z</time>
      </trkpt>
      <trkpt lat="42.35132" lon="24.33447">
        <ele>358.740828</ele>
        <time>2022-03-07T10:56:30.586Z</time>
      </trkpt>
      <trkpt lat="42.35128" lon="24.33434">
        <ele>357.819295</ele>
        <time>2022-03-07T10:56:33.536Z</time>
      </trkpt>
      <trkpt lat="42.35123" lon="24.33422">
        <ele>356.96847</ele>
        <time>2022-03-07T10:56:36.536Z</time>
      </trkpt>
      <trkpt lat="42.35123" lon="24.33408">
        <ele>356.087454</ele>
        <time>2022-03-07T10:56:40.534Z</time>
      </trkpt>
      <trkpt lat="42.35123" lon="24.33394">
        <ele>355.230742</ele>
        <time>2022-03-07T10:56:43.562Z</time>
      </trkpt>
      <trkpt lat="42.35124" lon="24.33381">
        <ele>354.403535</ele>
        <time>2022-03-07T10:56:46.523Z</time>
      </trkpt>
      <trkpt lat="42.35124" lon="24.33368">
        <ele>353.578013</ele>
        <time>2022-03-07T10:56:52.562Z</time>
      </trkpt>
      <trkpt lat="42.35123" lon="24.33337">
        <ele>351.678382</ele>
        <time>2022-03-07T10:59:21.538Z</time>
      </trkpt>
      <trkpt lat="42.35122" lon="24.33324">
        <ele>350.816724</ele>
        <time>2022-03-07T10:59:26.533Z</time>
      </trkpt>
      <trkpt lat="42.35122" lon="24.33307">
        <ele>349.790713</ele>
        <time>2022-03-07T10:59:30.516Z</time>
      </trkpt>
      <trkpt lat="42.3512" lon="24.33293">
        <ele>348.856773</ele>
        <time>2022-03-07T10:59:34.521Z</time>
      </trkpt>
      <trkpt lat="42.35115" lon="24.33279">
        <ele>348.185794</ele>
        <time>2022-03-07T10:59:38.530Z</time>
      </trkpt>
      <trkpt lat="42.35114" lon="24.33266">
        <ele>347.998287</ele>
        <time>2022-03-07T10:59:42.531Z</time>
      </trkpt>
      <trkpt lat="42.35117" lon="24.33252">
        <ele>347.804354</ele>
        <time>2022-03-07T10:59:46.526Z</time>
      </trkpt>
      <trkpt lat="42.35122" lon="24.33239">
        <ele>347.593482</ele>
        <time>2022-03-07T10:59:50.552Z</time>
      </trkpt>
      <trkpt lat="42.35127" lon="24.33225">
        <ele>347.381843</ele>
        <time>2022-03-07T10:59:54.537Z</time>
      </trkpt>
      <trkpt lat="42.35132" lon="24.33213">
        <ele>347.18175</ele>
        <time>2022-03-07T10:59:59.531Z</time>
      </trkpt>
      <trkpt lat="42.35137" lon="24.33202">
        <ele>346.995268</ele>
        <time>2022-03-07T11:00:04.519Z</time>
      </trkpt>
      <trkpt lat="42.35143" lon="24.3319">
        <ele>346.801322</ele>
        <time>2022-03-07T11:00:09.521Z</time>
      </trkpt>
      <trkpt lat="42.35148" lon="24.33179">
        <ele>346.614159</ele>
        <time>2022-03-07T11:00:13.561Z</time>
      </trkpt>
      <trkpt lat="42.35153" lon="24.33168">
        <ele>346.423927</ele>
        <time>2022-03-07T11:00:17.524Z</time>
      </trkpt>
      <trkpt lat="42.35157" lon="24.33155">
        <ele>346.231265</ele>
        <time>2022-03-07T11:00:22.528Z</time>
      </trkpt>
      <trkpt lat="42.35162" lon="24.33143">
        <ele>346.039426</ele>
        <time>2022-03-07T11:00:28.529Z</time>
      </trkpt>
      <trkpt lat="42.35165" lon="24.33129">
        <ele>345.830672</ele>
        <time>2022-03-07T11:00:33.528Z</time>
      </trkpt>
      <trkpt lat="42.35169" lon="24.33115">
        <ele>345.620068</ele>
        <time>2022-03-07T11:00:37.524Z</time>
      </trkpt>
      <trkpt lat="42.35173" lon="24.331">
        <ele>345.389957</ele>
        <time>2022-03-07T11:00:41.539Z</time>
      </trkpt>
      <trkpt lat="42.35176" lon="24.33086">
        <ele>345.189555</ele>
        <time>2022-03-07T11:00:44.519Z</time>
      </trkpt>
      <trkpt lat="42.35179" lon="24.33071">
        <ele>344.963655</ele>
        <time>2022-03-07T11:00:47.527Z</time>
      </trkpt>
      <trkpt lat="42.35181" lon="24.33053">
        <ele>344.722515</ele>
        <time>2022-03-07T11:00:50.535Z</time>
      </trkpt>
      <trkpt lat="42.35181" lon="24.33039">
        <ele>344.538479</ele>
        <time>2022-03-07T11:00:52.566Z</time>
      </trkpt>
      <trkpt lat="42.35181" lon="24.33025">
        <ele>344.344</ele>
        <time>2022-03-07T11:00:54.536Z</time>
      </trkpt>
      <trkpt lat="42.35181" lon="24.33012">
        <ele>344.177024</ele>
        <time>2022-03-07T11:00:56.514Z</time>
      </trkpt>
      <trkpt lat="42.35181" lon="24.32997">
        <ele>343.975894</ele>
        <time>2022-03-07T11:00:59.552Z</time>
      </trkpt>
      <trkpt lat="42.35184" lon="24.32979">
        <ele>343.731247</ele>
        <time>2022-03-07T11:01:02.531Z</time>
      </trkpt>
      <trkpt lat="42.35186" lon="24.32966">
        <ele>343.555075</ele>
        <time>2022-03-07T11:01:04.527Z</time>
      </trkpt>
      <trkpt lat="42.35186" lon="24.3295">
        <ele>343.332516</ele>
        <time>2022-03-07T11:01:07.531Z</time>
      </trkpt>
      <trkpt lat="42.35185" lon="24.32934">
        <ele>343.130022</ele>
        <time>2022-03-07T11:01:10.521Z</time>
      </trkpt>
      <trkpt lat="42.35187" lon="24.32917">
        <ele>342.897074</ele>
        <time>2022-03-07T11:01:13.518Z</time>
      </trkpt>
      <trkpt lat="42.35188" lon="24.32901">
        <ele>342.685512</ele>
        <time>2022-03-07T11:01:16.531Z</time>
      </trkpt>
      <trkpt lat="42.35191" lon="24.32886">
        <ele>342.48073</ele>
        <time>2022-03-07T11:01:19.520Z</time>
      </trkpt>
      <trkpt lat="42.35194" lon="24.32873">
        <ele>342.293156</ele>
        <time>2022-03-07T11:01:22.517Z</time>
      </trkpt>
      <trkpt lat="42.35198" lon="24.3286">
        <ele>342.101173</ele>
        <time>2022-03-07T11:01:25.517Z</time>
      </trkpt>
      <trkpt lat="42.35204" lon="24.32848">
        <ele>341.905853</ele>
        <time>2022-03-07T11:01:28.508Z</time>
      </trkpt>
      <trkpt lat="42.35212" lon="24.32838">
        <ele>341.718938</ele>
        <time>2022-03-07T11:01:31.553Z</time>
      </trkpt>
      <trkpt lat="42.35218" lon="24.32829">
        <ele>341.576433</ele>
        <time>2022-03-07T11:01:34.511Z</time>
      </trkpt>
      <trkpt lat="42.35224" lon="24.32818">
        <ele>341.502568</ele>
        <time>2022-03-07T11:01:37.513Z</time>
      </trkpt>
      <trkpt lat="42.3523" lon="24.32807">
        <ele>341.425012</ele>
        <time>2022-03-07T11:01:40.516Z</time>
      </trkpt>
      <trkpt lat="42.35236" lon="24.32795">
        <ele>341.346562</ele>
        <time>2022-03-07T11:01:43.513Z</time>
      </trkpt>
      <trkpt lat="42.35242" lon="24.32782">
        <ele>341.260269</ele>
        <time>2022-03-07T11:01:46.509Z</time>
      </trkpt>
      <trkpt lat="42.35246" lon="24.32769">
        <ele>341.179055</ele>
        <time>2022-03-07T11:01:49.507Z</time>
      </trkpt>
      <trkpt lat="42.35251" lon="24.32758">
        <ele>341.101642</ele>
        <time>2022-03-07T11:01:52.519Z</time>
      </trkpt>
      <trkpt lat="42.35259" lon="24.32746">
        <ele>341.016339</ele>
        <time>2022-03-07T11:01:55.516Z</time>
      </trkpt>
      <trkpt lat="42.35266" lon="24.32732">
        <ele>340.921593</ele>
        <time>2022-03-07T11:01:58.505Z</time>
      </trkpt>
      <trkpt lat="42.35271" lon="24.3272">
        <ele>340.839788</ele>
        <time>2022-03-07T11:02:01.511Z</time>
      </trkpt>
      <trkpt lat="42.35279" lon="24.32708">
        <ele>340.751835</ele>
        <time>2022-03-07T11:02:05.530Z</time>
      </trkpt>
      <trkpt lat="42.35285" lon="24.32698">
        <ele>340.678406</ele>
        <time>2022-03-07T11:02:08.518Z</time>
      </trkpt>
      <trkpt lat="42.35291" lon="24.32688">
        <ele>340.608538</ele>
        <time>2022-03-07T11:02:11.534Z</time>
      </trkpt>
      <trkpt lat="42.35298" lon="24.3268">
        <ele>340.535373</ele>
        <time>2022-03-07T11:02:15.565Z</time>
      </trkpt>
      <trkpt lat="42.35307" lon="24.32673">
        <ele>340.457322</ele>
        <time>2022-03-07T11:02:20.529Z</time>
      </trkpt>
      <trkpt lat="42.35314" lon="24.32665">
        <ele>340.388249</ele>
        <time>2022-03-07T11:02:24.523Z</time>
      </trkpt>
      <trkpt lat="42.35317" lon="24.32653">
        <ele>340.313706</ele>
        <time>2022-03-07T11:02:29.527Z</time>
      </trkpt>
      <trkpt lat="42.35317" lon="24.32638">
        <ele>340.233691</ele>
        <time>2022-03-07T11:02:34.545Z</time>
      </trkpt>
      <trkpt lat="42.35321" lon="24.32627">
        <ele>340.576445</ele>
        <time>2022-03-07T11:02:38.537Z</time>
      </trkpt>
      <trkpt lat="42.35328" lon="24.32616">
        <ele>341.019075</ele>
        <time>2022-03-07T11:02:42.522Z</time>
      </trkpt>
      <trkpt lat="42.35335" lon="24.32606">
        <ele>341.45814</ele>
        <time>2022-03-07T11:02:46.507Z</time>
      </trkpt>
      <trkpt lat="42.35341" lon="24.32595">
        <ele>341.920764</ele>
        <time>2022-03-07T11:02:50.537Z</time>
      </trkpt>
      <trkpt lat="42.35348" lon="24.32584">
        <ele>342.376367</ele>
        <time>2022-03-07T11:02:54.554Z</time>
      </trkpt>
      <trkpt lat="42.35354" lon="24.32574">
        <ele>342.801092</ele>
        <time>2022-03-07T11:02:58.522Z</time>
      </trkpt>
      <trkpt lat="42.3536" lon="24.32564">
        <ele>343.228278</ele>
        <time>2022-03-07T11:03:02.527Z</time>
      </trkpt>
      <trkpt lat="42.35366" lon="24.32552">
        <ele>343.670212</ele>
        <time>2022-03-07T11:03:06.556Z</time>
      </trkpt>
      <trkpt lat="42.35372" lon="24.32542">
        <ele>344.083722</ele>
        <time>2022-03-07T11:03:10.517Z</time>
      </trkpt>
      <trkpt lat="42.35378" lon="24.32532">
        <ele>344.484321</ele>
        <time>2022-03-07T11:03:14.535Z</time>
      </trkpt>
      <trkpt lat="42.35382" lon="24.3252">
        <ele>344.910198</ele>
        <time>2022-03-07T11:03:19.510Z</time>
      </trkpt>
      <trkpt lat="42.35388" lon="24.32509">
        <ele>345.354762</ele>
        <time>2022-03-07T11:03:24.539Z</time>
      </trkpt>
      <trkpt lat="42.35394" lon="24.32498">
        <ele>345.815043</ele>
        <time>2022-03-07T11:03:29.525Z</time>
      </trkpt>
      <trkpt lat="42.35401" lon="24.32486">
        <ele>346.272484</ele>
        <time>2022-03-07T11:03:34.547Z</time>
      </trkpt>
      <trkpt lat="42.35409" lon="24.32476">
        <ele>346.754002</ele>
        <time>2022-03-07T11:03:39.517Z</time>
      </trkpt>
      <trkpt lat="42.35415" lon="24.32463">
        <ele>347.235111</ele>
        <time>2022-03-07T11:03:44.519Z</time>
      </trkpt>
      <trkpt lat="42.35421" lon="24.32451">
        <ele>347.712135</ele>
        <time>2022-03-07T11:03:49.517Z</time>
      </trkpt>
      <trkpt lat="42.35427" lon="24.32438">
        <ele>348.144081</ele>
        <time>2022-03-07T11:03:54.530Z</time>
      </trkpt>
      <trkpt lat="42.35433" lon="24.3243">
        <ele>348.40784</ele>
        <time>2022-03-07T11:03:58.515Z</time>
      </trkpt>
      <trkpt lat="42.35439" lon="24.3242">
        <ele>348.671088</ele>
        <time>2022-03-07T11:04:02.528Z</time>
      </trkpt>
      <trkpt lat="42.35444" lon="24.32409">
        <ele>348.955635</ele>
        <time>2022-03-07T11:04:07.519Z</time>
      </trkpt>
      <trkpt lat="42.3545" lon="24.324">
        <ele>349.216892</ele>
        <time>2022-03-07T11:04:12.552Z</time>
      </trkpt>
      <trkpt lat="42.35456" lon="24.32389">
        <ele>349.506183</ele>
        <time>2022-03-07T11:04:17.537Z</time>
      </trkpt>
      <trkpt lat="42.35462" lon="24.32377">
        <ele>349.809953</ele>
        <time>2022-03-07T11:04:22.518Z</time>
      </trkpt>
      <trkpt lat="42.35466" lon="24.32365">
        <ele>350.103282</ele>
        <time>2022-03-07T11:04:27.542Z</time>
      </trkpt>
      <trkpt lat="42.35471" lon="24.32354">
        <ele>350.390967</ele>
        <time>2022-03-07T11:04:32.531Z</time>
      </trkpt>
      <trkpt lat="42.35478" lon="24.32343">
        <ele>350.692452</ele>
        <time>2022-03-07T11:04:37.551Z</time>
      </trkpt>
      <trkpt lat="42.35484" lon="24.32331">
        <ele>350.997766</ele>
        <time>2022-03-07T11:04:42.528Z</time>
      </trkpt>
      <trkpt lat="42.35489" lon="24.32319">
        <ele>351.297887</ele>
        <time>2022-03-07T11:04:47.530Z</time>
      </trkpt>
      <trkpt lat="42.35496" lon="24.32309">
        <ele>351.596321</ele>
        <time>2022-03-07T11:04:52.523Z</time>
      </trkpt>
      <trkpt lat="42.35501" lon="24.32298">
        <ele>351.873618</ele>
        <time>2022-03-07T11:04:57.531Z</time>
      </trkpt>
      <trkpt lat="42.35506" lon="24.32286">
        <ele>352.163647</ele>
        <time>2022-03-07T11:05:02.579Z</time>
      </trkpt>
      <trkpt lat="42.35512" lon="24.32276">
        <ele>352.44915</ele>
        <time>2022-03-07T11:05:07.529Z</time>
      </trkpt>
      <trkpt lat="42.35518" lon="24.32266">
        <ele>352.717572</ele>
        <time>2022-03-07T11:05:12.533Z</time>
      </trkpt>
      <trkpt lat="42.35524" lon="24.32257">
        <ele>352.985424</ele>
        <time>2022-03-07T11:05:17.525Z</time>
      </trkpt>
      <trkpt lat="42.3553" lon="24.32245">
        <ele>353.292763</ele>
        <time>2022-03-07T11:05:22.530Z</time>
      </trkpt>
      <trkpt lat="42.35536" lon="24.32232">
        <ele>353.509009</ele>
        <time>2022-03-07T11:05:26.535Z</time>
      </trkpt>
      <trkpt lat="42.35542" lon="24.3222">
        <ele>353.719198</ele>
        <time>2022-03-07T11:05:30.535Z</time>
      </trkpt>
      <trkpt lat="42.35548" lon="24.32209">
        <ele>353.914244</ele>
        <time>2022-03-07T11:05:34.539Z</time>
      </trkpt>
      <trkpt lat="42.35554" lon="24.32198">
        <ele>354.10583</ele>
        <time>2022-03-07T11:05:38.518Z</time>
      </trkpt>
      <trkpt lat="42.35559" lon="24.32188">
        <ele>354.284811</ele>
        <time>2022-03-07T11:05:42.540Z</time>
      </trkpt>
      <trkpt lat="42.35565" lon="24.32176">
        <ele>354.496181</ele>
        <time>2022-03-07T11:05:47.531Z</time>
      </trkpt>
      <trkpt lat="42.35571" lon="24.32165">
        <ele>354.697029</ele>
        <time>2022-03-07T11:05:51.527Z</time>
      </trkpt>
      <trkpt lat="42.35578" lon="24.32152">
        <ele>354.926902</ele>
        <time>2022-03-07T11:05:55.537Z</time>
      </trkpt>
      <trkpt lat="42.35585" lon="24.3214">
        <ele>355.148734</ele>
        <time>2022-03-07T11:05:59.532Z</time>
      </trkpt>
      <trkpt lat="42.35591" lon="24.32129">
        <ele>355.34736</ele>
        <time>2022-03-07T11:06:03.577Z</time>
      </trkpt>
      <trkpt lat="42.35597" lon="24.32119">
        <ele>355.534432</ele>
        <time>2022-03-07T11:06:07.530Z</time>
      </trkpt>
      <trkpt lat="42.35602" lon="24.32108">
        <ele>355.719631</ele>
        <time>2022-03-07T11:06:11.525Z</time>
      </trkpt>
      <trkpt lat="42.35609" lon="24.32096">
        <ele>355.934448</ele>
        <time>2022-03-07T11:06:16.549Z</time>
      </trkpt>
      <trkpt lat="42.35615" lon="24.32086">
        <ele>356.117904</ele>
        <time>2022-03-07T11:06:20.555Z</time>
      </trkpt>
      <trkpt lat="42.35621" lon="24.32077">
        <ele>356.294197</ele>
        <time>2022-03-07T11:06:25.544Z</time>
      </trkpt>
      <trkpt lat="42.35627" lon="24.32065">
        <ele>356.517111</ele>
        <time>2022-03-07T11:06:30.528Z</time>
      </trkpt>
      <trkpt lat="42.35634" lon="24.32053">
        <ele>356.72609</ele>
        <time>2022-03-07T11:06:34.518Z</time>
      </trkpt>
      <trkpt lat="42.3564" lon="24.32041">
        <ele>356.974006</ele>
        <time>2022-03-07T11:06:38.543Z</time>
      </trkpt>
      <trkpt lat="42.35646" lon="24.3203">
        <ele>357.21282</ele>
        <time>2022-03-07T11:06:42.570Z</time>
      </trkpt>
      <trkpt lat="42.35652" lon="24.32018">
        <ele>357.464509</ele>
        <time>2022-03-07T11:06:46.535Z</time>
      </trkpt>
      <trkpt lat="42.35659" lon="24.32007">
        <ele>357.717376</ele>
        <time>2022-03-07T11:06:50.526Z</time>
      </trkpt>
      <trkpt lat="42.35665" lon="24.31996">
        <ele>357.956123</ele>
        <time>2022-03-07T11:06:54.531Z</time>
      </trkpt>
      <trkpt lat="42.35671" lon="24.31984">
        <ele>358.208965</ele>
        <time>2022-03-07T11:06:58.548Z</time>
      </trkpt>
      <trkpt lat="42.35677" lon="24.31974">
        <ele>358.437805</ele>
        <time>2022-03-07T11:07:02.533Z</time>
      </trkpt>
      <trkpt lat="42.35683" lon="24.31963">
        <ele>358.672388</ele>
        <time>2022-03-07T11:07:06.533Z</time>
      </trkpt>
      <trkpt lat="42.35689" lon="24.31952">
        <ele>358.92105</ele>
        <time>2022-03-07T11:07:10.528Z</time>
      </trkpt>
      <trkpt lat="42.35695" lon="24.31942">
        <ele>359.152724</ele>
        <time>2022-03-07T11:07:14.516Z</time>
      </trkpt>
      <trkpt lat="42.357" lon="24.3193">
        <ele>359.388019</ele>
        <time>2022-03-07T11:07:18.546Z</time>
      </trkpt>
      <trkpt lat="42.35705" lon="24.31919">
        <ele>359.610006</ele>
        <time>2022-03-07T11:07:22.540Z</time>
      </trkpt>
      <trkpt lat="42.35711" lon="24.31909">
        <ele>359.836013</ele>
        <time>2022-03-07T11:07:26.573Z</time>
      </trkpt>
      <trkpt lat="42.35717" lon="24.31897">
        <ele>360.098788</ele>
        <time>2022-03-07T11:07:31.562Z</time>
      </trkpt>
      <trkpt lat="42.35722" lon="24.31886">
        <ele>360.323894</ele>
        <time>2022-03-07T11:07:35.541Z</time>
      </trkpt>
      <trkpt lat="42.35728" lon="24.31875">
        <ele>360.565437</ele>
        <time>2022-03-07T11:07:40.533Z</time>
      </trkpt>
      <trkpt lat="42.35735" lon="24.31863">
        <ele>360.825338</ele>
        <time>2022-03-07T11:07:46.541Z</time>
      </trkpt>
      <trkpt lat="42.3574" lon="24.31852">
        <ele>361.054362</ele>
        <time>2022-03-07T11:07:50.532Z</time>
      </trkpt>
      <trkpt lat="42.35746" lon="24.31841">
        <ele>361.322778</ele>
        <time>2022-03-07T11:07:54.539Z</time>
      </trkpt>
      <trkpt lat="42.35751" lon="24.3183">
        <ele>361.585879</ele>
        <time>2022-03-07T11:07:58.540Z</time>
      </trkpt>
      <trkpt lat="42.35755" lon="24.31817">
        <ele>361.863103</ele>
        <time>2022-03-07T11:08:03.524Z</time>
      </trkpt>
      <trkpt lat="42.35761" lon="24.31805">
        <ele>362.133282</ele>
        <time>2022-03-07T11:08:08.544Z</time>
      </trkpt>
      <trkpt lat="42.35765" lon="24.31793">
        <ele>362.398882</ele>
        <time>2022-03-07T11:08:13.538Z</time>
      </trkpt>
      <trkpt lat="42.35769" lon="24.31782">
        <ele>362.645914</ele>
        <time>2022-03-07T11:08:18.542Z</time>
      </trkpt>
      <trkpt lat="42.35771" lon="24.3177">
        <ele>362.894626</ele>
        <time>2022-03-07T11:08:23.537Z</time>
      </trkpt>
      <trkpt lat="42.35775" lon="24.31756">
        <ele>363.182913</ele>
        <time>2022-03-07T11:08:28.531Z</time>
      </trkpt>
      <trkpt lat="42.35779" lon="24.31743">
        <ele>363.450054</ele>
        <time>2022-03-07T11:08:33.533Z</time>
      </trkpt>
      <trkpt lat="42.35782" lon="24.31729">
        <ele>363.74111</ele>
        <time>2022-03-07T11:08:38.570Z</time>
      </trkpt>
      <trkpt lat="42.35784" lon="24.31717">
        <ele>363.98258</ele>
        <time>2022-03-07T11:08:42.530Z</time>
      </trkpt>
      <trkpt lat="42.35787" lon="24.31705">
        <ele>364.240456</ele>
        <time>2022-03-07T11:08:46.534Z</time>
      </trkpt>
      <trkpt lat="42.3579" lon="24.31693">
        <ele>364.484252</ele>
        <time>2022-03-07T11:08:50.532Z</time>
      </trkpt>
      <trkpt lat="42.35793" lon="24.31682">
        <ele>364.726864</ele>
        <time>2022-03-07T11:08:54.526Z</time>
      </trkpt>
      <trkpt lat="42.35795" lon="24.31668">
        <ele>364.999527</ele>
        <time>2022-03-07T11:08:58.521Z</time>
      </trkpt>
      <trkpt lat="42.35799" lon="24.31655">
        <ele>365.278551</ele>
        <time>2022-03-07T11:09:02.535Z</time>
      </trkpt>
      <trkpt lat="42.358" lon="24.31641">
        <ele>365.546825</ele>
        <time>2022-03-07T11:09:06.534Z</time>
      </trkpt>
      <trkpt lat="42.35804" lon="24.31629">
        <ele>365.824364</ele>
        <time>2022-03-07T11:09:10.525Z</time>
      </trkpt>
      <trkpt lat="42.35809" lon="24.31616">
        <ele>365.857983</ele>
        <time>2022-03-07T11:09:14.524Z</time>
      </trkpt>
      <trkpt lat="42.35813" lon="24.31602">
        <ele>365.829601</ele>
        <time>2022-03-07T11:09:18.528Z</time>
      </trkpt>
      <trkpt lat="42.35816" lon="24.31587">
        <ele>365.798978</ele>
        <time>2022-03-07T11:09:22.567Z</time>
      </trkpt>
      <trkpt lat="42.35819" lon="24.31572">
        <ele>365.769163</ele>
        <time>2022-03-07T11:09:26.538Z</time>
      </trkpt>
      <trkpt lat="42.35822" lon="24.3156">
        <ele>365.745497</ele>
        <time>2022-03-07T11:09:29.544Z</time>
      </trkpt>
      <trkpt lat="42.35823" lon="24.31547">
        <ele>365.721576</ele>
        <time>2022-03-07T11:09:32.528Z</time>
      </trkpt>
      <trkpt lat="42.35826" lon="24.31532">
        <ele>365.691642</ele>
        <time>2022-03-07T11:09:36.534Z</time>
      </trkpt>
      <trkpt lat="42.35829" lon="24.3152">
        <ele>365.667548</ele>
        <time>2022-03-07T11:09:39.523Z</time>
      </trkpt>
      <trkpt lat="42.35831" lon="24.31508">
        <ele>365.642888</ele>
        <time>2022-03-07T11:09:42.570Z</time>
      </trkpt>
      <trkpt lat="42.35834" lon="24.31496">
        <ele>365.618561</ele>
        <time>2022-03-07T11:09:45.526Z</time>
      </trkpt>
      <trkpt lat="42.35836" lon="24.31484">
        <ele>365.595079</ele>
        <time>2022-03-07T11:09:48.575Z</time>
      </trkpt>
      <trkpt lat="42.35839" lon="24.31472">
        <ele>365.571598</ele>
        <time>2022-03-07T11:09:51.538Z</time>
      </trkpt>
      <trkpt lat="42.35842" lon="24.31456">
        <ele>365.540536</ele>
        <time>2022-03-07T11:09:55.566Z</time>
      </trkpt>
      <trkpt lat="42.35845" lon="24.31445">
        <ele>365.516859</ele>
        <time>2022-03-07T11:09:58.521Z</time>
      </trkpt>
      <trkpt lat="42.35848" lon="24.31433">
        <ele>365.49219</ele>
        <time>2022-03-07T11:10:01.543Z</time>
      </trkpt>
      <trkpt lat="42.35851" lon="24.3142">
        <ele>365.46768</ele>
        <time>2022-03-07T11:10:04.536Z</time>
      </trkpt>
      <trkpt lat="42.35853" lon="24.31408">
        <ele>365.443773</ele>
        <time>2022-03-07T11:10:07.526Z</time>
      </trkpt>
      <trkpt lat="42.35856" lon="24.31396">
        <ele>365.419812</ele>
        <time>2022-03-07T11:10:10.530Z</time>
      </trkpt>
      <trkpt lat="42.35859" lon="24.31383">
        <ele>365.64626</ele>
        <time>2022-03-07T11:10:13.538Z</time>
      </trkpt>
      <trkpt lat="42.35863" lon="24.31371">
        <ele>365.944267</ele>
        <time>2022-03-07T11:10:16.530Z</time>
      </trkpt>
      <trkpt lat="42.35865" lon="24.31357">
        <ele>366.246498</ele>
        <time>2022-03-07T11:10:19.536Z</time>
      </trkpt>
      <trkpt lat="42.35868" lon="24.31345">
        <ele>366.520204</ele>
        <time>2022-03-07T11:10:22.550Z</time>
      </trkpt>
      <trkpt lat="42.35871" lon="24.3133">
        <ele>366.878777</ele>
        <time>2022-03-07T11:10:26.560Z</time>
      </trkpt>
      <trkpt lat="42.35874" lon="24.31318">
        <ele>367.153774</ele>
        <time>2022-03-07T11:10:29.574Z</time>
      </trkpt>
      <trkpt lat="42.35878" lon="24.31307">
        <ele>367.433712</ele>
        <time>2022-03-07T11:10:32.538Z</time>
      </trkpt>
      <trkpt lat="42.35881" lon="24.31294">
        <ele>367.730336</ele>
        <time>2022-03-07T11:10:35.519Z</time>
      </trkpt>
      <trkpt lat="42.35884" lon="24.31282">
        <ele>368.011578</ele>
        <time>2022-03-07T11:10:38.535Z</time>
      </trkpt>
      <trkpt lat="42.35888" lon="24.31271">
        <ele>368.282999</ele>
        <time>2022-03-07T11:10:41.539Z</time>
      </trkpt>
      <trkpt lat="42.35892" lon="24.31257">
        <ele>368.612669</ele>
        <time>2022-03-07T11:10:45.551Z</time>
      </trkpt>
      <trkpt lat="42.35897" lon="24.31244">
        <ele>368.942211</ele>
        <time>2022-03-07T11:10:49.543Z</time>
      </trkpt>
      <trkpt lat="42.35902" lon="24.31233">
        <ele>369.216755</ele>
        <time>2022-03-07T11:10:52.547Z</time>
      </trkpt>
      <trkpt lat="42.35905" lon="24.3122">
        <ele>369.51769</ele>
        <time>2022-03-07T11:10:55.516Z</time>
      </trkpt>
      <trkpt lat="42.35909" lon="24.31209">
        <ele>369.790257</ele>
        <time>2022-03-07T11:10:58.527Z</time>
      </trkpt>
      <trkpt lat="42.35915" lon="24.31195">
        <ele>370.141608</ele>
        <time>2022-03-07T11:11:02.542Z</time>
      </trkpt>
      <trkpt lat="42.35919" lon="24.31184">
        <ele>370.428487</ele>
        <time>2022-03-07T11:11:05.532Z</time>
      </trkpt>
      <trkpt lat="42.35924" lon="24.31172">
        <ele>370.718337</ele>
        <time>2022-03-07T11:11:08.535Z</time>
      </trkpt>
      <trkpt lat="42.35929" lon="24.31158">
        <ele>371.555058</ele>
        <time>2022-03-07T11:11:12.537Z</time>
      </trkpt>
      <trkpt lat="42.35935" lon="24.31146">
        <ele>372.437737</ele>
        <time>2022-03-07T11:11:16.534Z</time>
      </trkpt>
      <trkpt lat="42.35939" lon="24.31132">
        <ele>373.391337</ele>
        <time>2022-03-07T11:11:20.555Z</time>
      </trkpt>
      <trkpt lat="42.35944" lon="24.31118">
        <ele>374.363022</ele>
        <time>2022-03-07T11:11:24.520Z</time>
      </trkpt>
      <trkpt lat="42.35949" lon="24.31106">
        <ele>375.259843</ele>
        <time>2022-03-07T11:11:28.540Z</time>
      </trkpt>
      <trkpt lat="42.35954" lon="24.31094">
        <ele>376.074788</ele>
        <time>2022-03-07T11:11:32.564Z</time>
      </trkpt>
      <trkpt lat="42.35959" lon="24.31083">
        <ele>376.878984</ele>
        <time>2022-03-07T11:11:36.541Z</time>
      </trkpt>
      <trkpt lat="42.35963" lon="24.31073">
        <ele>377.654062</ele>
        <time>2022-03-07T11:11:40.516Z</time>
      </trkpt>
      <trkpt lat="42.35968" lon="24.31062">
        <ele>378.433227</ele>
        <time>2022-03-07T11:11:44.519Z</time>
      </trkpt>
      <trkpt lat="42.35973" lon="24.3105">
        <ele>379.26762</ele>
        <time>2022-03-07T11:11:49.578Z</time>
      </trkpt>
      <trkpt lat="42.35977" lon="24.31035">
        <ele>380.274861</ele>
        <time>2022-03-07T11:11:54.567Z</time>
      </trkpt>
      <trkpt lat="42.35976" lon="24.31021">
        <ele>381.164953</ele>
        <time>2022-03-07T11:11:57.538Z</time>
      </trkpt>
      <trkpt lat="42.35978" lon="24.31008">
        <ele>381.98258</ele>
        <time>2022-03-07T11:12:01.558Z</time>
      </trkpt>
      <trkpt lat="42.35981" lon="24.30995">
        <ele>382.816021</ele>
        <time>2022-03-07T11:12:05.572Z</time>
      </trkpt>
      <trkpt lat="42.35986" lon="24.30985">
        <ele>383.587632</ele>
        <time>2022-03-07T11:12:09.538Z</time>
      </trkpt>
      <trkpt lat="42.35991" lon="24.30975">
        <ele>384.373487</ele>
        <time>2022-03-07T11:12:13.528Z</time>
      </trkpt>
      <trkpt lat="42.35996" lon="24.30963">
        <ele>385.262115</ele>
        <time>2022-03-07T11:12:18.531Z</time>
      </trkpt>
      <trkpt lat="42.36002" lon="24.30951">
        <ele>386.084426</ele>
        <time>2022-03-07T11:12:23.517Z</time>
      </trkpt>
      <trkpt lat="42.36006" lon="24.30939">
        <ele>386.54549</ele>
        <time>2022-03-07T11:12:28.546Z</time>
      </trkpt>
      <trkpt lat="42.36009" lon="24.30926">
        <ele>387.014672</ele>
        <time>2022-03-07T11:12:33.525Z</time>
      </trkpt>
      <trkpt lat="42.36013" lon="24.30914">
        <ele>387.443094</ele>
        <time>2022-03-07T11:12:38.585Z</time>
      </trkpt>
      <trkpt lat="42.36018" lon="24.30901">
        <ele>387.959956</ele>
        <time>2022-03-07T11:12:43.532Z</time>
      </trkpt>
      <trkpt lat="42.36025" lon="24.30891">
        <ele>388.399313</ele>
        <time>2022-03-07T11:12:47.537Z</time>
      </trkpt>
      <trkpt lat="42.3603" lon="24.30881">
        <ele>388.818958</ele>
        <time>2022-03-07T11:12:52.526Z</time>
      </trkpt>
      <trkpt lat="42.36034" lon="24.30868">
        <ele>389.30145</ele>
        <time>2022-03-07T11:12:58.513Z</time>
      </trkpt>
      <trkpt lat="42.36039" lon="24.30857">
        <ele>389.750259</ele>
        <time>2022-03-07T11:13:04.531Z</time>
      </trkpt>
      <trkpt lat="42.36043" lon="24.30845">
        <ele>390.217365</ele>
        <time>2022-03-07T11:13:10.569Z</time>
      </trkpt>
      <trkpt lat="42.36047" lon="24.30833">
        <ele>390.664207</ele>
        <time>2022-03-07T11:13:16.532Z</time>
      </trkpt>
      <trkpt lat="42.36053" lon="24.3082">
        <ele>391.168824</ele>
        <time>2022-03-07T11:13:22.537Z</time>
      </trkpt>
      <trkpt lat="42.36058" lon="24.30807">
        <ele>391.681351</ele>
        <time>2022-03-07T11:13:27.521Z</time>
      </trkpt>
      <trkpt lat="42.36062" lon="24.30795">
        <ele>392.140932</ele>
        <time>2022-03-07T11:13:31.538Z</time>
      </trkpt>
      <trkpt lat="42.36066" lon="24.30782">
        <ele>392.61666</ele>
        <time>2022-03-07T11:13:36.541Z</time>
      </trkpt>
      <trkpt lat="42.36069" lon="24.30768">
        <ele>393.116337</ele>
        <time>2022-03-07T11:13:41.531Z</time>
      </trkpt>
      <trkpt lat="42.36073" lon="24.30755">
        <ele>393.608017</ele>
        <time>2022-03-07T11:13:46.537Z</time>
      </trkpt>
      <trkpt lat="42.36077" lon="24.30743">
        <ele>394.067138</ele>
        <time>2022-03-07T11:13:52.526Z</time>
      </trkpt>
      <trkpt lat="42.36082" lon="24.3073">
        <ele>394.578554</ele>
        <time>2022-03-07T11:13:58.539Z</time>
      </trkpt>
      <trkpt lat="42.36084" lon="24.30717">
        <ele>395.12474</ele>
        <time>2022-03-07T11:14:03.534Z</time>
      </trkpt>
      <trkpt lat="42.36088" lon="24.30704">
        <ele>395.705579</ele>
        <time>2022-03-07T11:14:08.577Z</time>
      </trkpt>
      <trkpt lat="42.36093" lon="24.30691">
        <ele>396.277951</ele>
        <time>2022-03-07T11:14:13.548Z</time>
      </trkpt>
      <trkpt lat="42.36097" lon="24.30678">
        <ele>396.831401</ele>
        <time>2022-03-07T11:14:18.532Z</time>
      </trkpt>
      <trkpt lat="42.361" lon="24.30667">
        <ele>397.322987</ele>
        <time>2022-03-07T11:14:23.539Z</time>
      </trkpt>
      <trkpt lat="42.36105" lon="24.30656">
        <ele>397.846949</ele>
        <time>2022-03-07T11:14:28.528Z</time>
      </trkpt>
      <trkpt lat="42.36109" lon="24.30643">
        <ele>398.413284</ele>
        <time>2022-03-07T11:14:34.534Z</time>
      </trkpt>
      <trkpt lat="42.36113" lon="24.3063">
        <ele>398.980814</ele>
        <time>2022-03-07T11:14:39.528Z</time>
      </trkpt>
      <trkpt lat="42.36115" lon="24.30618">
        <ele>399.486877</ele>
        <time>2022-03-07T11:14:44.547Z</time>
      </trkpt>
      <trkpt lat="42.36122" lon="24.30607">
        <ele>400.071294</ele>
        <time>2022-03-07T11:14:50.527Z</time>
      </trkpt>
      <trkpt lat="42.36128" lon="24.30595">
        <ele>400.648593</ele>
        <time>2022-03-07T11:14:55.530Z</time>
      </trkpt>
      <trkpt lat="42.36131" lon="24.30584">
        <ele>401.151906</ele>
        <time>2022-03-07T11:14:59.534Z</time>
      </trkpt>
      <trkpt lat="42.36133" lon="24.3057">
        <ele>401.694136</ele>
        <time>2022-03-07T11:15:03.530Z</time>
      </trkpt>
      <trkpt lat="42.36136" lon="24.30557">
        <ele>402.269572</ele>
        <time>2022-03-07T11:15:09.535Z</time>
      </trkpt>
      <trkpt lat="42.3614" lon="24.30545">
        <ele>402.809701</ele>
        <time>2022-03-07T11:15:14.527Z</time>
      </trkpt>
      <trkpt lat="42.36146" lon="24.30532">
        <ele>403.382415</ele>
        <time>2022-03-07T11:15:19.570Z</time>
      </trkpt>
      <trkpt lat="42.36149" lon="24.3052">
        <ele>403.934733</ele>
        <time>2022-03-07T11:15:24.538Z</time>
      </trkpt>
      <trkpt lat="42.36153" lon="24.30507">
        <ele>404.336186</ele>
        <time>2022-03-07T11:15:28.536Z</time>
      </trkpt>
      <trkpt lat="42.36157" lon="24.30496">
        <ele>404.562495</ele>
        <time>2022-03-07T11:15:32.534Z</time>
      </trkpt>
      <trkpt lat="42.3616" lon="24.30483">
        <ele>404.815637</ele>
        <time>2022-03-07T11:15:37.539Z</time>
      </trkpt>
      <trkpt lat="42.36164" lon="24.30471">
        <ele>405.043922</ele>
        <time>2022-03-07T11:15:41.527Z</time>
      </trkpt>
      <trkpt lat="42.36167" lon="24.30459">
        <ele>405.280003</ele>
        <time>2022-03-07T11:15:46.536Z</time>
      </trkpt>
      <trkpt lat="42.36173" lon="24.30449">
        <ele>405.518973</ele>
        <time>2022-03-07T11:15:51.528Z</time>
      </trkpt>
      <trkpt lat="42.36178" lon="24.30436">
        <ele>405.781282</ele>
        <time>2022-03-07T11:15:57.543Z</time>
      </trkpt>
      <trkpt lat="42.36181" lon="24.30425">
        <ele>406.008758</ele>
        <time>2022-03-07T11:16:02.539Z</time>
      </trkpt>
      <trkpt lat="42.36185" lon="24.30413">
        <ele>406.238389</ele>
        <time>2022-03-07T11:16:06.541Z</time>
      </trkpt>
      <trkpt lat="42.36188" lon="24.30401">
        <ele>406.470937</ele>
        <time>2022-03-07T11:16:10.536Z</time>
      </trkpt>
      <trkpt lat="42.36192" lon="24.30387">
        <ele>406.735111</ele>
        <time>2022-03-07T11:16:15.520Z</time>
      </trkpt>
      <trkpt lat="42.36195" lon="24.30374">
        <ele>406.984113</ele>
        <time>2022-03-07T11:16:20.535Z</time>
      </trkpt>
      <trkpt lat="42.362" lon="24.30362">
        <ele>407.246421</ele>
        <time>2022-03-07T11:16:25.527Z</time>
      </trkpt>
      <trkpt lat="42.36204" lon="24.30349">
        <ele>407.502953</ele>
        <time>2022-03-07T11:16:30.565Z</time>
      </trkpt>
      <trkpt lat="42.36208" lon="24.30337">
        <ele>407.737888</ele>
        <time>2022-03-07T11:16:35.537Z</time>
      </trkpt>
      <trkpt lat="42.36214" lon="24.30326">
        <ele>407.985649</ele>
        <time>2022-03-07T11:16:40.536Z</time>
      </trkpt>
      <trkpt lat="42.36218" lon="24.30312">
        <ele>408.25851</ele>
        <time>2022-03-07T11:16:45.530Z</time>
      </trkpt>
      <trkpt lat="42.36221" lon="24.303">
        <ele>408.483361</ele>
        <time>2022-03-07T11:16:49.536Z</time>
      </trkpt>
      <trkpt lat="42.36225" lon="24.30288">
        <ele>408.639124</ele>
        <time>2022-03-07T11:16:54.523Z</time>
      </trkpt>
      <trkpt lat="42.36229" lon="24.30275">
        <ele>408.537553</ele>
        <time>2022-03-07T11:16:59.534Z</time>
      </trkpt>
      <trkpt lat="42.36232" lon="24.30264">
        <ele>408.448421</ele>
        <time>2022-03-07T11:17:04.538Z</time>
      </trkpt>
      <trkpt lat="42.36236" lon="24.30251">
        <ele>408.343476</ele>
        <time>2022-03-07T11:17:10.541Z</time>
      </trkpt>
      <trkpt lat="42.36239" lon="24.30239">
        <ele>408.251949</ele>
        <time>2022-03-07T11:17:15.538Z</time>
      </trkpt>
      <trkpt lat="42.36244" lon="24.30227">
        <ele>408.154697</ele>
        <time>2022-03-07T11:17:20.563Z</time>
      </trkpt>
      <trkpt lat="42.36247" lon="24.30213">
        <ele>408.045499</ele>
        <time>2022-03-07T11:17:25.512Z</time>
      </trkpt>
      <trkpt lat="42.36251" lon="24.302">
        <ele>407.945659</ele>
        <time>2022-03-07T11:17:30.544Z</time>
      </trkpt>
      <trkpt lat="42.36255" lon="24.30188">
        <ele>407.844467</ele>
        <time>2022-03-07T11:17:36.530Z</time>
      </trkpt>
      <trkpt lat="42.36259" lon="24.30175">
        <ele>407.746921</ele>
        <time>2022-03-07T11:17:41.529Z</time>
      </trkpt>
      <trkpt lat="42.36262" lon="24.30162">
        <ele>407.642589</ele>
        <time>2022-03-07T11:17:46.522Z</time>
      </trkpt>
      <trkpt lat="42.36266" lon="24.30149">
        <ele>407.539651</ele>
        <time>2022-03-07T11:17:51.539Z</time>
      </trkpt>
      <trkpt lat="42.3627" lon="24.30135">
        <ele>407.430987</ele>
        <time>2022-03-07T11:17:56.542Z</time>
      </trkpt>
      <trkpt lat="42.36275" lon="24.30122">
        <ele>407.32739</ele>
        <time>2022-03-07T11:18:01.534Z</time>
      </trkpt>
      <trkpt lat="42.36278" lon="24.30109">
        <ele>407.22214</ele>
        <time>2022-03-07T11:18:06.537Z</time>
      </trkpt>
      <trkpt lat="42.36282" lon="24.30097">
        <ele>407.133266</ele>
        <time>2022-03-07T11:18:10.539Z</time>
      </trkpt>
      <trkpt lat="42.36285" lon="24.30085">
        <ele>407.035893</ele>
        <time>2022-03-07T11:18:15.534Z</time>
      </trkpt>
      <trkpt lat="42.36289" lon="24.30072">
        <ele>406.932956</ele>
        <time>2022-03-07T11:18:20.540Z</time>
      </trkpt>
      <trkpt lat="42.36293" lon="24.30061">
        <ele>406.850582</ele>
        <time>2022-03-07T11:18:24.538Z</time>
      </trkpt>
      <trkpt lat="42.36297" lon="24.30048">
        <ele>406.765189</ele>
        <time>2022-03-07T11:18:29.527Z</time>
      </trkpt>
      <trkpt lat="42.363" lon="24.30036">
        <ele>406.689277</ele>
        <time>2022-03-07T11:18:34.560Z</time>
      </trkpt>
      <trkpt lat="42.36303" lon="24.30023">
        <ele>406.607628</ele>
        <time>2022-03-07T11:18:39.525Z</time>
      </trkpt>
      <trkpt lat="42.36306" lon="24.30009">
        <ele>406.519264</ele>
        <time>2022-03-07T11:18:44.574Z</time>
      </trkpt>
      <trkpt lat="42.3631" lon="24.29995">
        <ele>406.430182</ele>
        <time>2022-03-07T11:18:49.521Z</time>
      </trkpt>
      <trkpt lat="42.36315" lon="24.29982">
        <ele>406.340428</ele>
        <time>2022-03-07T11:18:54.535Z</time>
      </trkpt>
      <trkpt lat="42.36319" lon="24.29969">
        <ele>406.255195</ele>
        <time>2022-03-07T11:18:59.532Z</time>
      </trkpt>
      <trkpt lat="42.36323" lon="24.29957">
        <ele>406.176815</ele>
        <time>2022-03-07T11:19:04.537Z</time>
      </trkpt>
      <trkpt lat="42.36327" lon="24.29945">
        <ele>406.098086</ele>
        <time>2022-03-07T11:19:09.538Z</time>
      </trkpt>
      <trkpt lat="42.36331" lon="24.29933">
        <ele>406.016952</ele>
        <time>2022-03-07T11:19:14.548Z</time>
      </trkpt>
      <trkpt lat="42.36335" lon="24.29919">
        <ele>405.929628</ele>
        <time>2022-03-07T11:19:20.521Z</time>
      </trkpt>
      <trkpt lat="42.36339" lon="24.29908">
        <ele>405.850357</ele>
        <time>2022-03-07T11:19:25.524Z</time>
      </trkpt>
      <trkpt lat="42.36343" lon="24.29896">
        <ele>405.773267</ele>
        <time>2022-03-07T11:19:30.543Z</time>
      </trkpt>
      <trkpt lat="42.36347" lon="24.29884">
        <ele>405.6965</ele>
        <time>2022-03-07T11:19:35.526Z</time>
      </trkpt>
      <trkpt lat="42.3635" lon="24.29872">
        <ele>405.616924</ele>
        <time>2022-03-07T11:19:40.535Z</time>
      </trkpt>
      <trkpt lat="42.36354" lon="24.29859">
        <ele>405.529829</ele>
        <time>2022-03-07T11:19:46.538Z</time>
      </trkpt>
      <trkpt lat="42.36359" lon="24.29846">
        <ele>405.442795</ele>
        <time>2022-03-07T11:19:52.542Z</time>
      </trkpt>
      <trkpt lat="42.36363" lon="24.29833">
        <ele>405.79992</ele>
        <time>2022-03-07T11:19:58.535Z</time>
      </trkpt>
      <trkpt lat="42.36367" lon="24.29821">
        <ele>406.355136</ele>
        <time>2022-03-07T11:20:04.539Z</time>
      </trkpt>
      <trkpt lat="42.36371" lon="24.29809">
        <ele>406.909341</ele>
        <time>2022-03-07T11:20:10.515Z</time>
      </trkpt>
      <trkpt lat="42.36375" lon="24.29796">
        <ele>407.477219</ele>
        <time>2022-03-07T11:20:16.519Z</time>
      </trkpt>
      <trkpt lat="42.36378" lon="24.29784">
        <ele>408.006149</ele>
        <time>2022-03-07T11:20:22.533Z</time>
      </trkpt>
      <trkpt lat="42.36383" lon="24.29773">
        <ele>408.551957</ele>
        <time>2022-03-07T11:20:28.528Z</time>
      </trkpt>
      <trkpt lat="42.36386" lon="24.2976">
        <ele>409.125898</ele>
        <time>2022-03-07T11:20:34.533Z</time>
      </trkpt>
      <trkpt lat="42.3639" lon="24.29748">
        <ele>409.661348</ele>
        <time>2022-03-07T11:20:40.574Z</time>
      </trkpt>
      <trkpt lat="42.36392" lon="24.29735">
        <ele>410.210524</ele>
        <time>2022-03-07T11:20:46.580Z</time>
      </trkpt>
      <trkpt lat="42.36394" lon="24.29722">
        <ele>410.783272</ele>
        <time>2022-03-07T11:20:52.530Z</time>
      </trkpt>
      <trkpt lat="42.36396" lon="24.29709">
        <ele>411.311454</ele>
        <time>2022-03-07T11:20:58.541Z</time>
      </trkpt>
      <trkpt lat="42.36398" lon="24.29696">
        <ele>411.867885</ele>
        <time>2022-03-07T11:21:04.527Z</time>
      </trkpt>
      <trkpt lat="42.36398" lon="24.29682">
        <ele>412.443286</ele>
        <time>2022-03-07T11:21:11.532Z</time>
      </trkpt>
      <trkpt lat="42.36398" lon="24.2967">
        <ele>412.972059</ele>
        <time>2022-03-07T11:21:17.537Z</time>
      </trkpt>
      <trkpt lat="42.36398" lon="24.29657">
        <ele>413.492519</ele>
        <time>2022-03-07T11:21:23.536Z</time>
      </trkpt>
      <trkpt lat="42.36397" lon="24.29645">
        <ele>414.015531</ele>
        <time>2022-03-07T11:21:29.533Z</time>
      </trkpt>
      <trkpt lat="42.36396" lon="24.29633">
        <ele>414.524158</ele>
        <time>2022-03-07T11:21:35.538Z</time>
      </trkpt>
      <trkpt lat="42.36394" lon="24.2962">
        <ele>415.043992</ele>
        <time>2022-03-07T11:21:41.549Z</time>
      </trkpt>
      <trkpt lat="42.36393" lon="24.29607">
        <ele>415.604079</ele>
        <time>2022-03-07T11:21:47.518Z</time>
      </trkpt>
      <trkpt lat="42.3639" lon="24.29595">
        <ele>416.196662</ele>
        <time>2022-03-07T11:21:53.518Z</time>
      </trkpt>
      <trkpt lat="42.36387" lon="24.29582">
        <ele>416.806378</ele>
        <time>2022-03-07T11:21:59.547Z</time>
      </trkpt>
      <trkpt lat="42.36385" lon="24.2957">
        <ele>417.364088</ele>
        <time>2022-03-07T11:22:05.587Z</time>
      </trkpt>
      <trkpt lat="42.36383" lon="24.29557">
        <ele>417.988812</ele>
        <time>2022-03-07T11:22:12.517Z</time>
      </trkpt>
      <trkpt lat="42.36381" lon="24.29543">
        <ele>418.634729</ele>
        <time>2022-03-07T11:22:19.566Z</time>
      </trkpt>
      <trkpt lat="42.36378" lon="24.2953">
        <ele>419.244624</ele>
        <time>2022-03-07T11:22:25.530Z</time>
      </trkpt>
      <trkpt lat="42.36376" lon="24.29518">
        <ele>419.808566</ele>
        <time>2022-03-07T11:22:31.543Z</time>
      </trkpt>
      <trkpt lat="42.36373" lon="24.29507">
        <ele>420.361475</ele>
        <time>2022-03-07T11:22:37.544Z</time>
      </trkpt>
      <trkpt lat="42.3637" lon="24.29493">
        <ele>421.002735</ele>
        <time>2022-03-07T11:22:44.541Z</time>
      </trkpt>
      <trkpt lat="42.36367" lon="24.29481">
        <ele>421.604146</ele>
        <time>2022-03-07T11:22:50.522Z</time>
      </trkpt>
      <trkpt lat="42.36364" lon="24.29468">
        <ele>422.227908</ele>
        <time>2022-03-07T11:22:56.532Z</time>
      </trkpt>
      <trkpt lat="42.36362" lon="24.29455">
        <ele>422.814469</ele>
        <time>2022-03-07T11:23:02.540Z</time>
      </trkpt>
      <trkpt lat="42.3636" lon="24.29443">
        <ele>423.400738</ele>
        <time>2022-03-07T11:23:08.569Z</time>
      </trkpt>
      <trkpt lat="42.36358" lon="24.2943">
        <ele>423.989826</ele>
        <time>2022-03-07T11:23:14.559Z</time>
      </trkpt>
      <trkpt lat="42.36355" lon="24.29417">
        <ele>424.601014</ele>
        <time>2022-03-07T11:23:20.565Z</time>
      </trkpt>
      <trkpt lat="42.36354" lon="24.29403">
        <ele>425.249929</ele>
        <time>2022-03-07T11:23:26.590Z</time>
      </trkpt>
      <trkpt lat="42.36353" lon="24.29389">
        <ele>425.896018</ele>
        <time>2022-03-07T11:23:32.530Z</time>
      </trkpt>
      <trkpt lat="42.36353" lon="24.29377">
        <ele>426.44879</ele>
        <time>2022-03-07T11:23:37.558Z</time>
      </trkpt>
      <trkpt lat="42.36354" lon="24.29364">
        <ele>426.926182</ele>
        <time>2022-03-07T11:23:42.557Z</time>
      </trkpt>
      <trkpt lat="42.36355" lon="24.29351">
        <ele>427.352386</ele>
        <time>2022-03-07T11:23:47.531Z</time>
      </trkpt>
      <trkpt lat="42.36359" lon="24.29338">
        <ele>427.790149</ele>
        <time>2022-03-07T11:23:52.518Z</time>
      </trkpt>
      <trkpt lat="42.36362" lon="24.29325">
        <ele>428.232216</ele>
        <time>2022-03-07T11:23:57.574Z</time>
      </trkpt>
      <trkpt lat="42.36366" lon="24.29311">
        <ele>428.687904</ele>
        <time>2022-03-07T11:24:02.523Z</time>
      </trkpt>
      <trkpt lat="42.36369" lon="24.29298">
        <ele>429.122352</ele>
        <time>2022-03-07T11:24:07.537Z</time>
      </trkpt>
      <trkpt lat="42.36371" lon="24.29286">
        <ele>429.538277</ele>
        <time>2022-03-07T11:24:12.596Z</time>
      </trkpt>
      <trkpt lat="42.36374" lon="24.29274">
        <ele>429.950326</ele>
        <time>2022-03-07T11:24:17.556Z</time>
      </trkpt>
      <trkpt lat="42.36378" lon="24.29261">
        <ele>430.369678</ele>
        <time>2022-03-07T11:24:22.538Z</time>
      </trkpt>
      <trkpt lat="42.36381" lon="24.29249">
        <ele>430.802838</ele>
        <time>2022-03-07T11:24:27.545Z</time>
      </trkpt>
      <trkpt lat="42.36384" lon="24.29237">
        <ele>431.210964</ele>
        <time>2022-03-07T11:24:32.529Z</time>
      </trkpt>
      <trkpt lat="42.36386" lon="24.29224">
        <ele>431.619635</ele>
        <time>2022-03-07T11:24:37.519Z</time>
      </trkpt>
      <trkpt lat="42.36389" lon="24.29212">
        <ele>432.028644</ele>
        <time>2022-03-07T11:24:42.546Z</time>
      </trkpt>
      <trkpt lat="42.36392" lon="24.29201">
        <ele>432.419715</ele>
        <time>2022-03-07T11:24:47.542Z</time>
      </trkpt>
      <trkpt lat="42.36395" lon="24.29187">
        <ele>432.866635</ele>
        <time>2022-03-07T11:24:53.544Z</time>
      </trkpt>
      <trkpt lat="42.36398" lon="24.29175">
        <ele>433.273538</ele>
        <time>2022-03-07T11:24:59.533Z</time>
      </trkpt>
      <trkpt lat="42.36401" lon="24.29163">
        <ele>433.693042</ele>
        <time>2022-03-07T11:25:05.538Z</time>
      </trkpt>
      <trkpt lat="42.36404" lon="24.29149">
        <ele>434.136221</ele>
        <time>2022-03-07T11:25:12.544Z</time>
      </trkpt>
      <trkpt lat="42.36407" lon="24.29136">
        <ele>434.639496</ele>
        <time>2022-03-07T11:25:19.539Z</time>
      </trkpt>
      <trkpt lat="42.3641" lon="24.29123">
        <ele>435.205365</ele>
        <time>2022-03-07T11:25:25.546Z</time>
      </trkpt>
      <trkpt lat="42.36413" lon="24.29111">
        <ele>435.7824</ele>
        <time>2022-03-07T11:25:32.566Z</time>
      </trkpt>
      <trkpt lat="42.36416" lon="24.29099">
        <ele>436.348954</ele>
        <time>2022-03-07T11:25:39.539Z</time>
      </trkpt>
      <trkpt lat="42.36419" lon="24.29087">
        <ele>436.889293</ele>
        <time>2022-03-07T11:25:46.573Z</time>
      </trkpt>
      <trkpt lat="42.36422" lon="24.29074">
        <ele>437.462206</ele>
        <time>2022-03-07T11:25:53.531Z</time>
      </trkpt>
      <trkpt lat="42.36424" lon="24.29062">
        <ele>438.025229</ele>
        <time>2022-03-07T11:25:59.530Z</time>
      </trkpt>
      <trkpt lat="42.36427" lon="24.29049">
        <ele>438.606959</ele>
        <time>2022-03-07T11:26:05.534Z</time>
      </trkpt>
      <trkpt lat="42.3643" lon="24.29036">
        <ele>439.212234</ele>
        <time>2022-03-07T11:26:12.538Z</time>
      </trkpt>
      <trkpt lat="42.36432" lon="24.29022">
        <ele>439.81257</ele>
        <time>2022-03-07T11:26:20.532Z</time>
      </trkpt>
      <trkpt lat="42.36436" lon="24.29009">
        <ele>440.421115</ele>
        <time>2022-03-07T11:26:26.532Z</time>
      </trkpt>
      <trkpt lat="42.3644" lon="24.28996">
        <ele>441.044766</ele>
        <time>2022-03-07T11:26:33.544Z</time>
      </trkpt>
      <trkpt lat="42.36443" lon="24.28983">
        <ele>441.65666</ele>
        <time>2022-03-07T11:26:39.530Z</time>
      </trkpt>
      <trkpt lat="42.36447" lon="24.2897">
        <ele>442.243802</ele>
        <time>2022-03-07T11:26:45.536Z</time>
      </trkpt>
      <trkpt lat="42.3645" lon="24.28958">
        <ele>442.815075</ele>
        <time>2022-03-07T11:26:51.533Z</time>
      </trkpt>
      <trkpt lat="42.36453" lon="24.28946">
        <ele>443.366009</ele>
        <time>2022-03-07T11:26:57.534Z</time>
      </trkpt>
      <trkpt lat="42.36456" lon="24.28933">
        <ele>443.924692</ele>
        <time>2022-03-07T11:27:03.535Z</time>
      </trkpt>
      <trkpt lat="42.36459" lon="24.28921">
        <ele>444.496395</ele>
        <time>2022-03-07T11:27:09.569Z</time>
      </trkpt>
      <trkpt lat="42.36462" lon="24.28907">
        <ele>445.081346</ele>
        <time>2022-03-07T11:27:15.541Z</time>
      </trkpt>
      <trkpt lat="42.36465" lon="24.28894">
        <ele>445.512551</ele>
        <time>2022-03-07T11:27:21.544Z</time>
      </trkpt>
      <trkpt lat="42.36467" lon="24.28882">
        <ele>445.916419</ele>
        <time>2022-03-07T11:27:27.529Z</time>
      </trkpt>
      <trkpt lat="42.36467" lon="24.28868">
        <ele>446.352307</ele>
        <time>2022-03-07T11:27:34.523Z</time>
      </trkpt>
      <trkpt lat="42.36466" lon="24.28855">
        <ele>446.762275</ele>
        <time>2022-03-07T11:27:40.534Z</time>
      </trkpt>
      <trkpt lat="42.36464" lon="24.28842">
        <ele>447.197035</ele>
        <time>2022-03-07T11:27:47.547Z</time>
      </trkpt>
      <trkpt lat="42.36459" lon="24.28829">
        <ele>447.633622</ele>
        <time>2022-03-07T11:27:54.571Z</time>
      </trkpt>
      <trkpt lat="42.36455" lon="24.28816">
        <ele>448.078768</ele>
        <time>2022-03-07T11:28:01.540Z</time>
      </trkpt>
      <trkpt lat="42.36451" lon="24.28804">
        <ele>448.488772</ele>
        <time>2022-03-07T11:28:07.524Z</time>
      </trkpt>
      <trkpt lat="42.36447" lon="24.28792">
        <ele>448.917892</ele>
        <time>2022-03-07T11:28:14.532Z</time>
      </trkpt>
      <trkpt lat="42.36442" lon="24.28782">
        <ele>449.301029</ele>
        <time>2022-03-07T11:28:20.549Z</time>
      </trkpt>
      <trkpt lat="42.36437" lon="24.2877">
        <ele>449.730335</ele>
        <time>2022-03-07T11:28:26.538Z</time>
      </trkpt>
      <trkpt lat="42.3643" lon="24.28759">
        <ele>450.171679</ele>
        <time>2022-03-07T11:28:32.541Z</time>
      </trkpt>
      <trkpt lat="42.36424" lon="24.28749">
        <ele>450.586055</ele>
        <time>2022-03-07T11:28:37.538Z</time>
      </trkpt>
      <trkpt lat="42.36418" lon="24.28739">
        <ele>450.976849</ele>
        <time>2022-03-07T11:28:42.527Z</time>
      </trkpt>
      <trkpt lat="42.36412" lon="24.2873">
        <ele>451.373709</ele>
        <time>2022-03-07T11:28:47.515Z</time>
      </trkpt>
      <trkpt lat="42.36406" lon="24.28718">
        <ele>451.835315</ele>
        <time>2022-03-07T11:28:52.530Z</time>
      </trkpt>
      <trkpt lat="42.364" lon="24.28708">
        <ele>452.243955</ele>
        <time>2022-03-07T11:28:56.543Z</time>
      </trkpt>
      <trkpt lat="42.36393" lon="24.28697">
        <ele>452.688085</ele>
        <time>2022-03-07T11:29:00.533Z</time>
      </trkpt>
      <trkpt lat="42.36386" lon="24.28684">
        <ele>452.368198</ele>
        <time>2022-03-07T11:29:04.536Z</time>
      </trkpt>
      <trkpt lat="42.3638" lon="24.28675">
        <ele>452.097211</ele>
        <time>2022-03-07T11:29:07.534Z</time>
      </trkpt>
      <trkpt lat="42.36374" lon="24.28663">
        <ele>451.792032</ele>
        <time>2022-03-07T11:29:10.528Z</time>
      </trkpt>
      <trkpt lat="42.36366" lon="24.28651">
        <ele>451.442403</ele>
        <time>2022-03-07T11:29:13.537Z</time>
      </trkpt>
      <trkpt lat="42.36358" lon="24.28638">
        <ele>451.08054</ele>
        <time>2022-03-07T11:29:16.546Z</time>
      </trkpt>
      <trkpt lat="42.36352" lon="24.28628">
        <ele>450.820113</ele>
        <time>2022-03-07T11:29:18.540Z</time>
      </trkpt>
      <trkpt lat="42.36346" lon="24.28618">
        <ele>450.542163</ele>
        <time>2022-03-07T11:29:20.527Z</time>
      </trkpt>
      <trkpt lat="42.36339" lon="24.28608">
        <ele>450.251227</ele>
        <time>2022-03-07T11:29:22.540Z</time>
      </trkpt>
      <trkpt lat="42.36332" lon="24.28598">
        <ele>449.948375</ele>
        <time>2022-03-07T11:29:24.545Z</time>
      </trkpt>
      <trkpt lat="42.36324" lon="24.28587">
        <ele>449.634345</ele>
        <time>2022-03-07T11:29:26.539Z</time>
      </trkpt>
      <trkpt lat="42.36317" lon="24.28576">
        <ele>449.313144</ele>
        <time>2022-03-07T11:29:28.553Z</time>
      </trkpt>
      <trkpt lat="42.3631" lon="24.28564">
        <ele>448.994056</ele>
        <time>2022-03-07T11:29:30.530Z</time>
      </trkpt>
      <trkpt lat="42.36302" lon="24.28553">
        <ele>448.658155</ele>
        <time>2022-03-07T11:29:32.530Z</time>
      </trkpt>
      <trkpt lat="42.36294" lon="24.28541">
        <ele>448.327715</ele>
        <time>2022-03-07T11:29:34.525Z</time>
      </trkpt>
      <trkpt lat="42.36287" lon="24.28529">
        <ele>447.996015</ele>
        <time>2022-03-07T11:29:36.529Z</time>
      </trkpt>
      <trkpt lat="42.3628" lon="24.28517">
        <ele>447.655223</ele>
        <time>2022-03-07T11:29:38.538Z</time>
      </trkpt>
      <trkpt lat="42.36272" lon="24.28504">
        <ele>447.529696</ele>
        <time>2022-03-07T11:29:40.532Z</time>
      </trkpt>
      <trkpt lat="42.36265" lon="24.28492">
        <ele>447.551307</ele>
        <time>2022-03-07T11:29:42.535Z</time>
      </trkpt>
      <trkpt lat="42.36259" lon="24.28479">
        <ele>447.573369</ele>
        <time>2022-03-07T11:29:44.566Z</time>
      </trkpt>
      <trkpt lat="42.36252" lon="24.28466">
        <ele>447.595215</ele>
        <time>2022-03-07T11:29:46.551Z</time>
      </trkpt>
      <trkpt lat="42.36246" lon="24.28453">
        <ele>447.617099</ele>
        <time>2022-03-07T11:29:48.530Z</time>
      </trkpt>
      <trkpt lat="42.3624" lon="24.2844">
        <ele>447.638645</ele>
        <time>2022-03-07T11:29:50.540Z</time>
      </trkpt>
      <trkpt lat="42.36234" lon="24.28427">
        <ele>447.659511</ele>
        <time>2022-03-07T11:29:52.537Z</time>
      </trkpt>
      <trkpt lat="42.3623" lon="24.28414">
        <ele>447.679761</ele>
        <time>2022-03-07T11:29:54.536Z</time>
      </trkpt>
      <trkpt lat="42.36225" lon="24.28402">
        <ele>447.698964</ele>
        <time>2022-03-07T11:29:56.533Z</time>
      </trkpt>
      <trkpt lat="42.36221" lon="24.28389">
        <ele>447.718084</ele>
        <time>2022-03-07T11:29:58.530Z</time>
      </trkpt>
      <trkpt lat="42.36216" lon="24.28378">
        <ele>447.736168</ele>
        <time>2022-03-07T11:30:00.535Z</time>
      </trkpt>
      <trkpt lat="42.36213" lon="24.28367">
        <ele>447.753284</ele>
        <time>2022-03-07T11:30:02.545Z</time>
      </trkpt>
      <trkpt lat="42.36208" lon="24.28352">
        <ele>447.775847</ele>
        <time>2022-03-07T11:30:05.537Z</time>
      </trkpt>
      <trkpt lat="42.36203" lon="24.28338">
        <ele>447.796748</ele>
        <time>2022-03-07T11:30:08.524Z</time>
      </trkpt>
      <trkpt lat="42.36201" lon="24.28324">
        <ele>447.817081</ele>
        <time>2022-03-07T11:30:11.584Z</time>
      </trkpt>
      <trkpt lat="42.36198" lon="24.28312">
        <ele>447.835132</ele>
        <time>2022-03-07T11:30:14.535Z</time>
      </trkpt>
      <trkpt lat="42.36194" lon="24.28301">
        <ele>447.852963</ele>
        <time>2022-03-07T11:30:17.532Z</time>
      </trkpt>
      <trkpt lat="42.36191" lon="24.28289">
        <ele>447.996723</ele>
        <time>2022-03-07T11:30:20.579Z</time>
      </trkpt>
      <trkpt lat="42.36187" lon="24.28277">
        <ele>448.175858</ele>
        <time>2022-03-07T11:30:23.536Z</time>
      </trkpt>
      <trkpt lat="42.36181" lon="24.28263">
        <ele>448.407884</ele>
        <time>2022-03-07T11:30:27.530Z</time>
      </trkpt>
      <trkpt lat="42.36176" lon="24.28252">
        <ele>448.597087</ele>
        <time>2022-03-07T11:30:30.526Z</time>
      </trkpt>
      <trkpt lat="42.36171" lon="24.28241">
        <ele>448.783264</ele>
        <time>2022-03-07T11:30:33.546Z</time>
      </trkpt>
      <trkpt lat="42.36166" lon="24.28226">
        <ele>449.007924</ele>
        <time>2022-03-07T11:30:37.528Z</time>
      </trkpt>
      <trkpt lat="42.36162" lon="24.28213">
        <ele>449.205237</ele>
        <time>2022-03-07T11:30:42.574Z</time>
      </trkpt>
      <trkpt lat="42.36159" lon="24.28201">
        <ele>449.39049</ele>
        <time>2022-03-07T11:30:46.515Z</time>
      </trkpt>
      <trkpt lat="42.36154" lon="24.28186">
        <ele>449.62354</ele>
        <time>2022-03-07T11:30:50.528Z</time>
      </trkpt>
      <trkpt lat="42.36151" lon="24.28175">
        <ele>449.796933</ele>
        <time>2022-03-07T11:30:53.595Z</time>
      </trkpt>
      <trkpt lat="42.36148" lon="24.28163">
        <ele>449.986505</ele>
        <time>2022-03-07T11:30:56.541Z</time>
      </trkpt>
      <trkpt lat="42.36145" lon="24.2815">
        <ele>450.180194</ele>
        <time>2022-03-07T11:30:59.533Z</time>
      </trkpt>
      <trkpt lat="42.36142" lon="24.28136">
        <ele>450.380655</ele>
        <time>2022-03-07T11:31:02.547Z</time>
      </trkpt>
      <trkpt lat="42.36139" lon="24.28123">
        <ele>450.579367</ele>
        <time>2022-03-07T11:31:05.530Z</time>
      </trkpt>
      <trkpt lat="42.36135" lon="24.2811">
        <ele>450.777086</ele>
        <time>2022-03-07T11:31:08.541Z</time>
      </trkpt>
      <trkpt lat="42.36132" lon="24.28098">
        <ele>450.960234</ele>
        <time>2022-03-07T11:31:11.545Z</time>
      </trkpt>
      <trkpt lat="42.3613" lon="24.28085">
        <ele>451.157976</ele>
        <time>2022-03-07T11:31:14.558Z</time>
      </trkpt>
      <trkpt lat="42.36127" lon="24.28071">
        <ele>451.354149</ele>
        <time>2022-03-07T11:31:17.533Z</time>
      </trkpt>
      <trkpt lat="42.36126" lon="24.28059">
        <ele>451.49277</ele>
        <time>2022-03-07T11:31:20.534Z</time>
      </trkpt>
      <trkpt lat="42.36123" lon="24.28046">
        <ele>451.642551</ele>
        <time>2022-03-07T11:31:23.541Z</time>
      </trkpt>
      <trkpt lat="42.3612" lon="24.28034">
        <ele>451.779715</ele>
        <time>2022-03-07T11:31:26.559Z</time>
      </trkpt>
      <trkpt lat="42.36116" lon="24.28019">
        <ele>451.958632</ele>
        <time>2022-03-07T11:31:30.531Z</time>
      </trkpt>
      <trkpt lat="42.36113" lon="24.28004">
        <ele>452.132239</ele>
        <time>2022-03-07T11:31:34.531Z</time>
      </trkpt>
      <trkpt lat="42.3611" lon="24.27992">
        <ele>452.274291</ele>
        <time>2022-03-07T11:31:37.516Z</time>
      </trkpt>
      <trkpt lat="42.36107" lon="24.2798">
        <ele>452.409526</ele>
        <time>2022-03-07T11:31:40.539Z</time>
      </trkpt>
      <trkpt lat="42.36104" lon="24.27968">
        <ele>452.547513</ele>
        <time>2022-03-07T11:31:43.573Z</time>
      </trkpt>
      <trkpt lat="42.36101" lon="24.27953">
        <ele>452.723943</ele>
        <time>2022-03-07T11:31:47.541Z</time>
      </trkpt>
      <trkpt lat="42.36097" lon="24.27938">
        <ele>452.901431</ele>
        <time>2022-03-07T11:31:51.548Z</time>
      </trkpt>
      <trkpt lat="42.36093" lon="24.27923">
        <ele>453.078755</ele>
        <time>2022-03-07T11:31:55.516Z</time>
      </trkpt>
      <trkpt lat="42.36089" lon="24.27908">
        <ele>453.258212</ele>
        <time>2022-03-07T11:31:59.586Z</time>
      </trkpt>
      <trkpt lat="42.36086" lon="24.27896">
        <ele>453.400132</ele>
        <time>2022-03-07T11:32:02.535Z</time>
      </trkpt>
      <trkpt lat="42.36084" lon="24.27884">
        <ele>453.537613</ele>
        <time>2022-03-07T11:32:05.538Z</time>
      </trkpt>
      <trkpt lat="42.36081" lon="24.27872">
        <ele>453.674777</ele>
        <time>2022-03-07T11:32:08.541Z</time>
      </trkpt>
      <trkpt lat="42.36078" lon="24.27858">
        <ele>453.842206</ele>
        <time>2022-03-07T11:32:12.527Z</time>
      </trkpt>
      <trkpt lat="42.36074" lon="24.27845">
        <ele>453.991903</ele>
        <time>2022-03-07T11:32:16.546Z</time>
      </trkpt>
      <trkpt lat="42.36071" lon="24.27831">
        <ele>454.155054</ele>
        <time>2022-03-07T11:32:20.549Z</time>
      </trkpt>
      <trkpt lat="42.36068" lon="24.27817">
        <ele>454.320878</ele>
        <time>2022-03-07T11:32:24.570Z</time>
      </trkpt>
      <trkpt lat="42.36066" lon="24.27802">
        <ele>454.484743</ele>
        <time>2022-03-07T11:32:28.526Z</time>
      </trkpt>
      <trkpt lat="42.36068" lon="24.27789">
        <ele>454.635595</ele>
        <time>2022-03-07T11:32:32.541Z</time>
      </trkpt>
      <trkpt lat="42.36075" lon="24.27779">
        <ele>454.781032</ele>
        <time>2022-03-07T11:32:36.531Z</time>
      </trkpt>
      <trkpt lat="42.36085" lon="24.27776">
        <ele>454.931524</ele>
        <time>2022-03-07T11:32:40.532Z</time>
      </trkpt>
      <trkpt lat="42.36094" lon="24.27775">
        <ele>455.073876</ele>
        <time>2022-03-07T11:32:44.538Z</time>
      </trkpt>
      <trkpt lat="42.36105" lon="24.27773">
        <ele>455.236974</ele>
        <time>2022-03-07T11:32:49.531Z</time>
      </trkpt>
      <trkpt lat="42.36116" lon="24.27771">
        <ele>455.402893</ele>
        <time>2022-03-07T11:32:54.544Z</time>
      </trkpt>
      <trkpt lat="42.36126" lon="24.2777">
        <ele>455.559269</ele>
        <time>2022-03-07T11:33:00.533Z</time>
      </trkpt>
      <trkpt lat="42.36145" lon="24.27772">
        <ele>455.840215</ele>
        <time>2022-03-07T12:03:39.575Z</time>
      </trkpt>
      <trkpt lat="42.36156" lon="24.2777">
        <ele>456.002318</ele>
        <time>2022-03-07T12:03:43.534Z</time>
      </trkpt>
      <trkpt lat="42.36166" lon="24.27768">
        <ele>456.156086</ele>
        <time>2022-03-07T12:03:47.537Z</time>
      </trkpt>
      <trkpt lat="42.36177" lon="24.27767">
        <ele>456.321119</ele>
        <time>2022-03-07T12:03:51.530Z</time>
      </trkpt>
      <trkpt lat="42.36188" lon="24.27766">
        <ele>456.48633</ele>
        <time>2022-03-07T12:03:56.555Z</time>
      </trkpt>
      <trkpt lat="42.36198" lon="24.27764">
        <ele>456.633895</ele>
        <time>2022-03-07T12:04:00.540Z</time>
      </trkpt>
      <trkpt lat="42.36207" lon="24.27762">
        <ele>456.81734</ele>
        <time>2022-03-07T12:04:04.543Z</time>
      </trkpt>
      <trkpt lat="42.36217" lon="24.27761">
        <ele>457.125697</ele>
        <time>2022-03-07T12:04:08.555Z</time>
      </trkpt>
      <trkpt lat="42.36226" lon="24.27761">
        <ele>457.41117</ele>
        <time>2022-03-07T12:04:12.544Z</time>
      </trkpt>
      <trkpt lat="42.36235" lon="24.27761">
        <ele>457.703182</ele>
        <time>2022-03-07T12:04:16.546Z</time>
      </trkpt>
      <trkpt lat="42.36244" lon="24.27761">
        <ele>457.99814</ele>
        <time>2022-03-07T12:04:20.537Z</time>
      </trkpt>
      <trkpt lat="42.36255" lon="24.27759">
        <ele>458.338653</ele>
        <time>2022-03-07T12:04:25.535Z</time>
      </trkpt>
      <trkpt lat="42.36264" lon="24.2776">
        <ele>458.627867</ele>
        <time>2022-03-07T12:04:29.551Z</time>
      </trkpt>
      <trkpt lat="42.36274" lon="24.2776">
        <ele>458.958002</ele>
        <time>2022-03-07T12:04:34.540Z</time>
      </trkpt>
      <trkpt lat="42.36283" lon="24.27757">
        <ele>459.24848</ele>
        <time>2022-03-07T12:04:39.544Z</time>
      </trkpt>
      <trkpt lat="42.36294" lon="24.27757">
        <ele>459.581561</ele>
        <time>2022-03-07T12:04:44.569Z</time>
      </trkpt>
      <trkpt lat="42.36303" lon="24.27755">
        <ele>459.878597</ele>
        <time>2022-03-07T12:04:48.596Z</time>
      </trkpt>
      <trkpt lat="42.36313" lon="24.27755">
        <ele>460.186375</ele>
        <time>2022-03-07T12:04:52.530Z</time>
      </trkpt>
      <trkpt lat="42.36323" lon="24.27754">
        <ele>460.501409</ele>
        <time>2022-03-07T12:04:56.536Z</time>
      </trkpt>
      <trkpt lat="42.36332" lon="24.27752">
        <ele>460.789295</ele>
        <time>2022-03-07T12:05:00.546Z</time>
      </trkpt>
      <trkpt lat="42.36342" lon="24.27749">
        <ele>461.127547</ele>
        <time>2022-03-07T12:05:05.539Z</time>
      </trkpt>
      <trkpt lat="42.36351" lon="24.27747">
        <ele>461.419411</ele>
        <time>2022-03-07T12:05:09.537Z</time>
      </trkpt>
      <trkpt lat="42.3636" lon="24.27744">
        <ele>461.706112</ele>
        <time>2022-03-07T12:05:13.533Z</time>
      </trkpt>
      <trkpt lat="42.36369" lon="24.27741">
        <ele>462.000645</ele>
        <time>2022-03-07T12:05:17.525Z</time>
      </trkpt>
      <trkpt lat="42.36379" lon="24.27737">
        <ele>462.31785</ele>
        <time>2022-03-07T12:05:22.544Z</time>
      </trkpt>
      <trkpt lat="42.36389" lon="24.27734">
        <ele>462.579935</ele>
        <time>2022-03-07T12:05:27.546Z</time>
      </trkpt>
      <trkpt lat="42.36399" lon="24.2773">
        <ele>462.79274</ele>
        <time>2022-03-07T12:05:32.571Z</time>
      </trkpt>
      <trkpt lat="42.36409" lon="24.27727">
        <ele>463.020954</ele>
        <time>2022-03-07T12:05:37.541Z</time>
      </trkpt>
      <trkpt lat="42.36418" lon="24.27723">
        <ele>463.2128</ele>
        <time>2022-03-07T12:05:41.537Z</time>
      </trkpt>
      <trkpt lat="42.36427" lon="24.2772">
        <ele>463.404646</ele>
        <time>2022-03-07T12:05:45.533Z</time>
      </trkpt>
      <trkpt lat="42.36436" lon="24.27716">
        <ele>463.607239</ele>
        <time>2022-03-07T12:05:49.536Z</time>
      </trkpt>
      <trkpt lat="42.36446" lon="24.27711">
        <ele>463.834692</ele>
        <time>2022-03-07T12:05:54.583Z</time>
      </trkpt>
      <trkpt lat="42.36457" lon="24.27707">
        <ele>464.058612</ele>
        <time>2022-03-07T12:05:59.524Z</time>
      </trkpt>
      <trkpt lat="42.36467" lon="24.27701">
        <ele>464.284971</ele>
        <time>2022-03-07T12:06:04.537Z</time>
      </trkpt>
      <trkpt lat="42.36475" lon="24.27695">
        <ele>464.49038</ele>
        <time>2022-03-07T12:06:08.541Z</time>
      </trkpt>
      <trkpt lat="42.36484" lon="24.27689">
        <ele>464.692753</ele>
        <time>2022-03-07T12:06:12.542Z</time>
      </trkpt>
      <trkpt lat="42.36493" lon="24.27684">
        <ele>464.90314</ele>
        <time>2022-03-07T12:06:16.527Z</time>
      </trkpt>
      <trkpt lat="42.36502" lon="24.27677">
        <ele>465.10253</ele>
        <time>2022-03-07T12:06:20.535Z</time>
      </trkpt>
      <trkpt lat="42.3651" lon="24.27671">
        <ele>465.311137</ele>
        <time>2022-03-07T12:06:24.534Z</time>
      </trkpt>
      <trkpt lat="42.36519" lon="24.27664">
        <ele>465.525242</ele>
        <time>2022-03-07T12:06:28.542Z</time>
      </trkpt>
      <trkpt lat="42.36527" lon="24.27657">
        <ele>465.724007</ele>
        <time>2022-03-07T12:06:32.547Z</time>
      </trkpt>
      <trkpt lat="42.36535" lon="24.27651">
        <ele>465.921995</ele>
        <time>2022-03-07T12:06:36.542Z</time>
      </trkpt>
      <trkpt lat="42.36544" lon="24.27644">
        <ele>466.123142</ele>
        <time>2022-03-07T12:06:40.542Z</time>
      </trkpt>
      <trkpt lat="42.36551" lon="24.27636">
        <ele>466.289417</ele>
        <time>2022-03-07T12:06:43.542Z</time>
      </trkpt>
      <trkpt lat="42.36559" lon="24.27629">
        <ele>466.447281</ele>
        <time>2022-03-07T12:06:47.546Z</time>
      </trkpt>
      <trkpt lat="42.36568" lon="24.27622">
        <ele>466.619153</ele>
        <time>2022-03-07T12:06:51.548Z</time>
      </trkpt>
      <trkpt lat="42.36577" lon="24.27615">
        <ele>466.787891</ele>
        <time>2022-03-07T12:06:55.537Z</time>
      </trkpt>
      <trkpt lat="42.36587" lon="24.27609">
        <ele>466.955729</ele>
        <time>2022-03-07T12:06:59.537Z</time>
      </trkpt>
      <trkpt lat="42.36597" lon="24.27603">
        <ele>467.137315</ele>
        <time>2022-03-07T12:07:03.547Z</time>
      </trkpt>
      <trkpt lat="42.36607" lon="24.27595">
        <ele>467.327542</ele>
        <time>2022-03-07T12:07:07.537Z</time>
      </trkpt>
      <trkpt lat="42.36617" lon="24.27587">
        <ele>467.510563</ele>
        <time>2022-03-07T12:07:11.546Z</time>
      </trkpt>
      <trkpt lat="42.36627" lon="24.27578">
        <ele>467.703288</ele>
        <time>2022-03-07T12:07:15.554Z</time>
      </trkpt>
      <trkpt lat="42.36638" lon="24.27571">
        <ele>467.900782</ele>
        <time>2022-03-07T12:07:19.540Z</time>
      </trkpt>
      <trkpt lat="42.36647" lon="24.27565">
        <ele>468.071647</ele>
        <time>2022-03-07T12:07:22.541Z</time>
      </trkpt>
      <trkpt lat="42.36657" lon="24.27559">
        <ele>468.235068</ele>
        <time>2022-03-07T12:07:25.539Z</time>
      </trkpt>
      <trkpt lat="42.36666" lon="24.27554">
        <ele>468.396096</ele>
        <time>2022-03-07T12:07:28.544Z</time>
      </trkpt>
      <trkpt lat="42.36676" lon="24.27548">
        <ele>468.565956</ele>
        <time>2022-03-07T12:07:31.559Z</time>
      </trkpt>
      <trkpt lat="42.36685" lon="24.27544">
        <ele>468.728129</ele>
        <time>2022-03-07T12:07:34.574Z</time>
      </trkpt>
      <trkpt lat="42.36695" lon="24.2754">
        <ele>468.887149</ele>
        <time>2022-03-07T12:07:37.553Z</time>
      </trkpt>
      <trkpt lat="42.36704" lon="24.27537">
        <ele>469.046281</ele>
        <time>2022-03-07T12:07:40.531Z</time>
      </trkpt>
      <trkpt lat="42.36714" lon="24.27535">
        <ele>469.295947</ele>
        <time>2022-03-07T12:07:43.552Z</time>
      </trkpt>
      <trkpt lat="42.36723" lon="24.27532">
        <ele>469.601591</ele>
        <time>2022-03-07T12:07:46.518Z</time>
      </trkpt>
      <trkpt lat="42.36733" lon="24.27529">
        <ele>469.892243</ele>
        <time>2022-03-07T12:07:49.543Z</time>
      </trkpt>
      <trkpt lat="42.36742" lon="24.27527">
        <ele>470.187308</ele>
        <time>2022-03-07T12:07:52.547Z</time>
      </trkpt>
      <trkpt lat="42.36751" lon="24.27524">
        <ele>470.487443</ele>
        <time>2022-03-07T12:07:55.552Z</time>
      </trkpt>
      <trkpt lat="42.36761" lon="24.2752">
        <ele>470.791701</ele>
        <time>2022-03-07T12:07:58.542Z</time>
      </trkpt>
      <trkpt lat="42.3677" lon="24.27517">
        <ele>471.088789</ele>
        <time>2022-03-07T12:08:01.538Z</time>
      </trkpt>
      <trkpt lat="42.36781" lon="24.27513">
        <ele>471.442351</ele>
        <time>2022-03-07T12:08:05.550Z</time>
      </trkpt>
      <trkpt lat="42.36792" lon="24.2751">
        <ele>471.799142</ele>
        <time>2022-03-07T12:08:09.541Z</time>
      </trkpt>
      <trkpt lat="42.36802" lon="24.27507">
        <ele>472.109412</ele>
        <time>2022-03-07T12:08:13.529Z</time>
      </trkpt>
      <trkpt lat="42.36812" lon="24.27503">
        <ele>472.411849</ele>
        <time>2022-03-07T12:08:17.541Z</time>
      </trkpt>
      <trkpt lat="42.36822" lon="24.275">
        <ele>472.75745</ele>
        <time>2022-03-07T12:08:22.575Z</time>
      </trkpt>
      <trkpt lat="42.36832" lon="24.27497">
        <ele>473.065614</ele>
        <time>2022-03-07T12:08:26.542Z</time>
      </trkpt>
      <trkpt lat="42.36842" lon="24.27494">
        <ele>473.371257</ele>
        <time>2022-03-07T12:08:30.520Z</time>
      </trkpt>
      <trkpt lat="42.36851" lon="24.27491">
        <ele>473.673878</ele>
        <time>2022-03-07T12:08:34.600Z</time>
      </trkpt>
      <trkpt lat="42.36862" lon="24.27486">
        <ele>474.016244</ele>
        <time>2022-03-07T12:08:39.545Z</time>
      </trkpt>
      <trkpt lat="42.36872" lon="24.27483">
        <ele>474.343832</ele>
        <time>2022-03-07T12:08:44.555Z</time>
      </trkpt>
      <trkpt lat="42.36882" lon="24.2748">
        <ele>474.651998</ele>
        <time>2022-03-07T12:08:49.543Z</time>
      </trkpt>
      <trkpt lat="42.36892" lon="24.27477">
        <ele>475.145843</ele>
        <time>2022-03-07T12:08:54.556Z</time>
      </trkpt>
      <trkpt lat="42.36901" lon="24.27474">
        <ele>475.607753</ele>
        <time>2022-03-07T12:08:59.542Z</time>
      </trkpt>
      <trkpt lat="42.3691" lon="24.27471">
        <ele>476.097144</ele>
        <time>2022-03-07T12:09:05.546Z</time>
      </trkpt>
      <trkpt lat="42.36919" lon="24.27468">
        <ele>476.563037</ele>
        <time>2022-03-07T12:09:10.552Z</time>
      </trkpt>
      <trkpt lat="42.36929" lon="24.27465">
        <ele>477.076862</ele>
        <time>2022-03-07T12:09:15.548Z</time>
      </trkpt>
      <trkpt lat="42.36939" lon="24.27461">
        <ele>477.560805</ele>
        <time>2022-03-07T12:09:20.561Z</time>
      </trkpt>
      <trkpt lat="42.36948" lon="24.27459">
        <ele>478.045325</ele>
        <time>2022-03-07T12:09:25.555Z</time>
      </trkpt>
      <trkpt lat="42.36958" lon="24.27456">
        <ele>478.54529</ele>
        <time>2022-03-07T12:09:30.530Z</time>
      </trkpt>
      <trkpt lat="42.36968" lon="24.27453">
        <ele>479.031134</ele>
        <time>2022-03-07T12:09:35.547Z</time>
      </trkpt>
      <trkpt lat="42.36977" lon="24.2745">
        <ele>479.518124</ele>
        <time>2022-03-07T12:09:40.539Z</time>
      </trkpt>
      <trkpt lat="42.36986" lon="24.27446">
        <ele>479.998192</ele>
        <time>2022-03-07T12:09:45.567Z</time>
      </trkpt>
      <trkpt lat="42.36995" lon="24.27443">
        <ele>480.466933</ele>
        <time>2022-03-07T12:09:50.522Z</time>
      </trkpt>
      <trkpt lat="42.37005" lon="24.2744">
        <ele>480.948221</ele>
        <time>2022-03-07T12:09:55.547Z</time>
      </trkpt>
      <trkpt lat="42.37015" lon="24.27437">
        <ele>481.466879</ele>
        <time>2022-03-07T12:10:01.545Z</time>
      </trkpt>
      <trkpt lat="42.37024" lon="24.27435">
        <ele>481.942914</ele>
        <time>2022-03-07T12:10:06.530Z</time>
      </trkpt>
      <trkpt lat="42.37035" lon="24.27432">
        <ele>482.476957</ele>
        <time>2022-03-07T12:10:11.541Z</time>
      </trkpt>
      <trkpt lat="42.37046" lon="24.27429">
        <ele>483.032808</ele>
        <time>2022-03-07T12:10:16.549Z</time>
      </trkpt>
      <trkpt lat="42.37056" lon="24.27427">
        <ele>483.563477</ele>
        <time>2022-03-07T12:10:21.545Z</time>
      </trkpt>
      <trkpt lat="42.37066" lon="24.27425">
        <ele>483.878815</ele>
        <time>2022-03-07T12:10:26.545Z</time>
      </trkpt>
      <trkpt lat="42.37076" lon="24.27424">
        <ele>484.140565</ele>
        <time>2022-03-07T12:10:31.538Z</time>
      </trkpt>
      <trkpt lat="42.37085" lon="24.27423">
        <ele>484.38901</ele>
        <time>2022-03-07T12:10:36.550Z</time>
      </trkpt>
      <trkpt lat="42.37095" lon="24.2742">
        <ele>484.667215</ele>
        <time>2022-03-07T12:10:42.574Z</time>
      </trkpt>
      <trkpt lat="42.37105" lon="24.27418">
        <ele>484.94215</ele>
        <time>2022-03-07T12:10:47.539Z</time>
      </trkpt>
      <trkpt lat="42.37116" lon="24.27417">
        <ele>485.227996</ele>
        <time>2022-03-07T12:10:52.539Z</time>
      </trkpt>
      <trkpt lat="42.37126" lon="24.27415">
        <ele>485.504346</ele>
        <time>2022-03-07T12:10:57.543Z</time>
      </trkpt>
      <trkpt lat="42.37136" lon="24.27414">
        <ele>485.774931</ele>
        <time>2022-03-07T12:11:02.575Z</time>
      </trkpt>
      <trkpt lat="42.37146" lon="24.27413">
        <ele>486.044872</ele>
        <time>2022-03-07T12:11:07.555Z</time>
      </trkpt>
      <trkpt lat="42.37156" lon="24.27412">
        <ele>486.314813</ele>
        <time>2022-03-07T12:11:12.539Z</time>
      </trkpt>
      <trkpt lat="42.37166" lon="24.27411">
        <ele>486.588275</ele>
        <time>2022-03-07T12:11:17.566Z</time>
      </trkpt>
      <trkpt lat="42.37177" lon="24.2741">
        <ele>486.888366</ele>
        <time>2022-03-07T12:11:22.538Z</time>
      </trkpt>
      <trkpt lat="42.37188" lon="24.27408">
        <ele>487.180408</ele>
        <time>2022-03-07T12:11:27.538Z</time>
      </trkpt>
      <trkpt lat="42.37199" lon="24.27407">
        <ele>487.467912</ele>
        <time>2022-03-07T12:11:32.531Z</time>
      </trkpt>
      <trkpt lat="42.37209" lon="24.27405">
        <ele>487.732191</ele>
        <time>2022-03-07T12:11:37.545Z</time>
      </trkpt>
      <trkpt lat="42.37218" lon="24.27403">
        <ele>487.98178</ele>
        <time>2022-03-07T12:11:42.568Z</time>
      </trkpt>
      <trkpt lat="42.37227" lon="24.27402">
        <ele>488.244135</ele>
        <time>2022-03-07T12:11:47.548Z</time>
      </trkpt>
      <trkpt lat="42.37238" lon="24.27401">
        <ele>488.550579</ele>
        <time>2022-03-07T12:11:52.552Z</time>
      </trkpt>
      <trkpt lat="42.37248" lon="24.274">
        <ele>488.983637</ele>
        <time>2022-03-07T12:11:57.583Z</time>
      </trkpt>
      <trkpt lat="42.37259" lon="24.27398">
        <ele>489.461819</ele>
        <time>2022-03-07T12:12:02.547Z</time>
      </trkpt>
      <trkpt lat="42.3727" lon="24.27397">
        <ele>489.90592</ele>
        <time>2022-03-07T12:12:07.557Z</time>
      </trkpt>
      <trkpt lat="42.37279" lon="24.27395">
        <ele>490.307158</ele>
        <time>2022-03-07T12:12:11.548Z</time>
      </trkpt>
      <trkpt lat="42.37289" lon="24.27394">
        <ele>490.71991</ele>
        <time>2022-03-07T12:12:15.540Z</time>
      </trkpt>
      <trkpt lat="42.37298" lon="24.27393">
        <ele>491.122285</ele>
        <time>2022-03-07T12:12:19.548Z</time>
      </trkpt>
      <trkpt lat="42.37309" lon="24.27392">
        <ele>491.57715</ele>
        <time>2022-03-07T12:12:24.563Z</time>
      </trkpt>
      <trkpt lat="42.37319" lon="24.27391">
        <ele>492.014448</ele>
        <time>2022-03-07T12:12:29.563Z</time>
      </trkpt>
      <trkpt lat="42.3733" lon="24.2739">
        <ele>492.488413</ele>
        <time>2022-03-07T12:12:34.533Z</time>
      </trkpt>
      <trkpt lat="42.37341" lon="24.27387">
        <ele>492.930837</ele>
        <time>2022-03-07T12:12:39.539Z</time>
      </trkpt>
      <trkpt lat="42.37351" lon="24.27386">
        <ele>493.36769</ele>
        <time>2022-03-07T12:12:44.538Z</time>
      </trkpt>
      <trkpt lat="42.3736" lon="24.27384">
        <ele>493.774271</ele>
        <time>2022-03-07T12:12:49.558Z</time>
      </trkpt>
      <trkpt lat="42.3737" lon="24.27382">
        <ele>494.183742</ele>
        <time>2022-03-07T12:12:54.542Z</time>
      </trkpt>
      <trkpt lat="42.3738" lon="24.2738">
        <ele>494.626602</ele>
        <time>2022-03-07T12:13:00.539Z</time>
      </trkpt>
      <trkpt lat="42.37391" lon="24.27378">
        <ele>495.080696</ele>
        <time>2022-03-07T12:13:06.543Z</time>
      </trkpt>
      <trkpt lat="42.37402" lon="24.27377">
        <ele>495.535992</ele>
        <time>2022-03-07T12:13:12.554Z</time>
      </trkpt>
      <trkpt lat="42.37412" lon="24.27376">
        <ele>495.973728</ele>
        <time>2022-03-07T12:13:18.551Z</time>
      </trkpt>
      <trkpt lat="42.37422" lon="24.27375">
        <ele>496.253262</ele>
        <time>2022-03-07T12:13:24.551Z</time>
      </trkpt>
      <trkpt lat="42.37431" lon="24.27373">
        <ele>496.449008</ele>
        <time>2022-03-07T12:13:30.539Z</time>
      </trkpt>
      <trkpt lat="42.37441" lon="24.27372">
        <ele>496.650823</ele>
        <time>2022-03-07T12:13:36.555Z</time>
      </trkpt>
      <trkpt lat="42.3745" lon="24.27371">
        <ele>496.844676</ele>
        <time>2022-03-07T12:13:41.565Z</time>
      </trkpt>
      <trkpt lat="42.3746" lon="24.27369">
        <ele>497.050806</ele>
        <time>2022-03-07T12:13:47.540Z</time>
      </trkpt>
      <trkpt lat="42.37469" lon="24.27367">
        <ele>497.243236</ele>
        <time>2022-03-07T12:13:53.543Z</time>
      </trkpt>
      <trkpt lat="42.37479" lon="24.27366">
        <ele>497.434013</ele>
        <time>2022-03-07T12:13:59.546Z</time>
      </trkpt>
      <trkpt lat="42.37488" lon="24.27363">
        <ele>497.620769</ele>
        <time>2022-03-07T12:14:04.534Z</time>
      </trkpt>
      <trkpt lat="42.37497" lon="24.27361">
        <ele>497.821348</ele>
        <time>2022-03-07T12:14:09.562Z</time>
      </trkpt>
      <trkpt lat="42.37506" lon="24.27357">
        <ele>498.010944</ele>
        <time>2022-03-07T12:14:13.563Z</time>
      </trkpt>
      <trkpt lat="42.37515" lon="24.27354">
        <ele>498.205103</ele>
        <time>2022-03-07T12:14:17.549Z</time>
      </trkpt>
      <trkpt lat="42.37525" lon="24.27349">
        <ele>498.414338</ele>
        <time>2022-03-07T12:14:21.547Z</time>
      </trkpt>
      <trkpt lat="42.37533" lon="24.27344">
        <ele>498.608486</ele>
        <time>2022-03-07T12:14:25.554Z</time>
      </trkpt>
      <trkpt lat="42.37542" lon="24.27337">
        <ele>498.826072</ele>
        <time>2022-03-07T12:14:29.539Z</time>
      </trkpt>
      <trkpt lat="42.37551" lon="24.2733">
        <ele>499.021902</ele>
        <time>2022-03-07T12:14:33.535Z</time>
      </trkpt>
      <trkpt lat="42.37559" lon="24.27324">
        <ele>499.219833</ele>
        <time>2022-03-07T12:14:37.538Z</time>
      </trkpt>
      <trkpt lat="42.37568" lon="24.27318">
        <ele>499.426186</ele>
        <time>2022-03-07T12:14:41.532Z</time>
      </trkpt>
      <trkpt lat="42.37578" lon="24.27311">
        <ele>499.646727</ele>
        <time>2022-03-07T12:14:45.551Z</time>
      </trkpt>
      <trkpt lat="42.37587" lon="24.27305">
        <ele>499.795767</ele>
        <time>2022-03-07T12:14:49.559Z</time>
      </trkpt>
      <trkpt lat="42.37596" lon="24.27297">
        <ele>499.646015</ele>
        <time>2022-03-07T12:14:53.546Z</time>
      </trkpt>
      <trkpt lat="42.37605" lon="24.27291">
        <ele>499.5001</ele>
        <time>2022-03-07T12:14:57.541Z</time>
      </trkpt>
      <trkpt lat="42.37615" lon="24.27284">
        <ele>499.348015</ele>
        <time>2022-03-07T12:15:01.532Z</time>
      </trkpt>
      <trkpt lat="42.37625" lon="24.27277">
        <ele>499.187977</ele>
        <time>2022-03-07T12:15:05.525Z</time>
      </trkpt>
      <trkpt lat="42.37633" lon="24.2727">
        <ele>499.054249</ele>
        <time>2022-03-07T12:15:08.547Z</time>
      </trkpt>
      <trkpt lat="42.37642" lon="24.27264">
        <ele>498.916533</ele>
        <time>2022-03-07T12:15:11.543Z</time>
      </trkpt>
      <trkpt lat="42.3765" lon="24.27257">
        <ele>498.778092</ele>
        <time>2022-03-07T12:15:14.545Z</time>
      </trkpt>
      <trkpt lat="42.3766" lon="24.2725">
        <ele>498.625012</ele>
        <time>2022-03-07T12:15:17.543Z</time>
      </trkpt>
      <trkpt lat="42.37669" lon="24.27244">
        <ele>498.473902</ele>
        <time>2022-03-07T12:15:20.530Z</time>
      </trkpt>
      <trkpt lat="42.37679" lon="24.27237">
        <ele>498.321817</ele>
        <time>2022-03-07T12:15:23.542Z</time>
      </trkpt>
      <trkpt lat="42.37689" lon="24.27229">
        <ele>498.157324</ele>
        <time>2022-03-07T12:15:26.553Z</time>
      </trkpt>
      <trkpt lat="42.377" lon="24.27222">
        <ele>497.984839</ele>
        <time>2022-03-07T12:15:29.596Z</time>
      </trkpt>
      <trkpt lat="42.37711" lon="24.27214">
        <ele>497.805711</ele>
        <time>2022-03-07T12:15:32.548Z</time>
      </trkpt>
      <trkpt lat="42.37722" lon="24.27206">
        <ele>497.637253</ele>
        <time>2022-03-07T12:15:35.540Z</time>
      </trkpt>
      <trkpt lat="42.37732" lon="24.27199">
        <ele>497.474778</ele>
        <time>2022-03-07T12:15:38.543Z</time>
      </trkpt>
      <trkpt lat="42.37743" lon="24.27191">
        <ele>497.291909</ele>
        <time>2022-03-07T12:15:41.554Z</time>
      </trkpt>
      <trkpt lat="42.37754" lon="24.27182">
        <ele>497.210615</ele>
        <time>2022-03-07T12:15:44.549Z</time>
      </trkpt>
      <trkpt lat="42.37762" lon="24.27176">
        <ele>497.155621</ele>
        <time>2022-03-07T12:15:46.537Z</time>
      </trkpt>
      <trkpt lat="42.3777" lon="24.27169">
        <ele>497.097414</ele>
        <time>2022-03-07T12:15:48.537Z</time>
      </trkpt>
      <trkpt lat="42.37779" lon="24.27163">
        <ele>497.040402</ele>
        <time>2022-03-07T12:15:50.553Z</time>
      </trkpt>
      <trkpt lat="42.37787" lon="24.27157">
        <ele>496.983294</ele>
        <time>2022-03-07T12:15:52.553Z</time>
      </trkpt>
      <trkpt lat="42.37795" lon="24.27151">
        <ele>496.928952</ele>
        <time>2022-03-07T12:15:54.539Z</time>
      </trkpt>
      <trkpt lat="42.37803" lon="24.27145">
        <ele>496.870779</ele>
        <time>2022-03-07T12:15:56.542Z</time>
      </trkpt>
      <trkpt lat="42.37812" lon="24.27138">
        <ele>496.809509</ele>
        <time>2022-03-07T12:15:58.544Z</time>
      </trkpt>
      <trkpt lat="42.37821" lon="24.27131">
        <ele>496.746339</ele>
        <time>2022-03-07T12:16:00.542Z</time>
      </trkpt>
      <trkpt lat="42.37831" lon="24.27124">
        <ele>496.67847</ele>
        <time>2022-03-07T12:16:02.581Z</time>
      </trkpt>
      <trkpt lat="42.37842" lon="24.27119">
        <ele>496.608697</ele>
        <time>2022-03-07T12:16:04.543Z</time>
      </trkpt>
      <trkpt lat="42.37853" lon="24.27115">
        <ele>496.539354</ele>
        <time>2022-03-07T12:16:06.535Z</time>
      </trkpt>
      <trkpt lat="42.37866" lon="24.27112">
        <ele>496.464146</ele>
        <time>2022-03-07T12:16:08.566Z</time>
      </trkpt>
      <trkpt lat="42.37878" lon="24.2711">
        <ele>496.386009</ele>
        <time>2022-03-07T12:16:10.550Z</time>
      </trkpt>
      <trkpt lat="42.37892" lon="24.27107">
        <ele>496.303425</ele>
        <time>2022-03-07T12:16:12.534Z</time>
      </trkpt>
      <trkpt lat="42.37906" lon="24.27105">
        <ele>496.215748</ele>
        <time>2022-03-07T12:16:14.597Z</time>
      </trkpt>
      <trkpt lat="42.37921" lon="24.27103">
        <ele>495.553239</ele>
        <time>2022-03-07T12:16:16.542Z</time>
      </trkpt>
      <trkpt lat="42.37937" lon="24.27101">
        <ele>494.709529</ele>
        <time>2022-03-07T12:16:18.546Z</time>
      </trkpt>
      <trkpt lat="42.37953" lon="24.27099">
        <ele>493.853582</ele>
        <time>2022-03-07T12:16:20.538Z</time>
      </trkpt>
      <trkpt lat="42.3797" lon="24.27096">
        <ele>492.942992</ele>
        <time>2022-03-07T12:16:22.523Z</time>
      </trkpt>
      <trkpt lat="42.37987" lon="24.27093">
        <ele>492.01918</ele>
        <time>2022-03-07T12:16:24.552Z</time>
      </trkpt>
      <trkpt lat="42.38003" lon="24.27091">
        <ele>491.157954</ele>
        <time>2022-03-07T12:16:26.547Z</time>
      </trkpt>
      <trkpt lat="42.38019" lon="24.27089">
        <ele>490.3252</ele>
        <time>2022-03-07T12:16:28.548Z</time>
      </trkpt>
      <trkpt lat="42.38035" lon="24.27087">
        <ele>489.450781</ele>
        <time>2022-03-07T12:16:30.540Z</time>
      </trkpt>
      <trkpt lat="42.38051" lon="24.27085">
        <ele>488.597214</ele>
        <time>2022-03-07T12:16:32.532Z</time>
      </trkpt>
      <trkpt lat="42.38068" lon="24.27083">
        <ele>487.715704</ele>
        <time>2022-03-07T12:16:34.560Z</time>
      </trkpt>
      <trkpt lat="42.38084" lon="24.27079">
        <ele>486.825566</ele>
        <time>2022-03-07T12:16:36.591Z</time>
      </trkpt>
      <trkpt lat="42.38097" lon="24.27071">
        <ele>486.00797</ele>
        <time>2022-03-07T12:16:38.556Z</time>
      </trkpt>
      <trkpt lat="42.38107" lon="24.27056">
        <ele>485.161434</ele>
        <time>2022-03-07T12:16:40.547Z</time>
      </trkpt>
      <trkpt lat="42.38116" lon="24.27038">
        <ele>484.21498</ele>
        <time>2022-03-07T12:16:42.542Z</time>
      </trkpt>
      <trkpt lat="42.38126" lon="24.27018">
        <ele>483.181792</ele>
        <time>2022-03-07T12:16:44.552Z</time>
      </trkpt>
      <trkpt lat="42.38135" lon="24.26998">
        <ele>482.175711</ele>
        <time>2022-03-07T12:16:46.566Z</time>
      </trkpt>
      <trkpt lat="42.38144" lon="24.2698">
        <ele>481.259494</ele>
        <time>2022-03-07T12:16:48.564Z</time>
      </trkpt>
      <trkpt lat="42.38152" lon="24.26962">
        <ele>480.353666</ele>
        <time>2022-03-07T12:16:50.564Z</time>
      </trkpt>
      <trkpt lat="42.3816" lon="24.26944">
        <ele>479.434327</ele>
        <time>2022-03-07T12:16:52.543Z</time>
      </trkpt>
      <trkpt lat="42.38169" lon="24.26927">
        <ele>478.530789</ele>
        <time>2022-03-07T12:16:54.525Z</time>
      </trkpt>
      <trkpt lat="42.38178" lon="24.26911">
        <ele>477.655023</ele>
        <time>2022-03-07T12:16:56.543Z</time>
      </trkpt>
      <trkpt lat="42.38189" lon="24.26895">
        <ele>476.731413</ele>
        <time>2022-03-07T12:16:58.585Z</time>
      </trkpt>
      <trkpt lat="42.38201" lon="24.26879">
        <ele>475.761231</ele>
        <time>2022-03-07T12:17:00.555Z</time>
      </trkpt>
      <trkpt lat="42.38213" lon="24.26866">
        <ele>474.823399</ele>
        <time>2022-03-07T12:17:02.551Z</time>
      </trkpt>
      <trkpt lat="42.38226" lon="24.26853">
        <ele>473.880621</ele>
        <time>2022-03-07T12:17:04.539Z</time>
      </trkpt>
      <trkpt lat="42.38241" lon="24.26838">
        <ele>472.799619</ele>
        <time>2022-03-07T12:17:06.554Z</time>
      </trkpt>
      <trkpt lat="42.38249" lon="24.26831">
        <ele>472.254853</ele>
        <time>2022-03-07T12:17:07.549Z</time>
      </trkpt>
      <trkpt lat="42.38263" lon="24.26816">
        <ele>471.23094</ele>
        <time>2022-03-07T12:17:09.567Z</time>
      </trkpt>
      <trkpt lat="42.38276" lon="24.26802">
        <ele>470.232894</ele>
        <time>2022-03-07T12:17:11.542Z</time>
      </trkpt>
      <trkpt lat="42.3829" lon="24.26789">
        <ele>469.21022</ele>
        <time>2022-03-07T12:17:13.561Z</time>
      </trkpt>
      <trkpt lat="42.38304" lon="24.26774">
        <ele>468.188924</ele>
        <time>2022-03-07T12:17:15.564Z</time>
      </trkpt>
      <trkpt lat="42.38318" lon="24.2676">
        <ele>467.165014</ele>
        <time>2022-03-07T12:17:17.621Z</time>
      </trkpt>
      <trkpt lat="42.38332" lon="24.26746">
        <ele>466.127761</ele>
        <time>2022-03-07T12:17:19.534Z</time>
      </trkpt>
      <trkpt lat="42.3834" lon="24.26739">
        <ele>465.605735</ele>
        <time>2022-03-07T12:17:20.551Z</time>
      </trkpt>
      <trkpt lat="42.38348" lon="24.26732">
        <ele>465.439689</ele>
        <time>2022-03-07T12:17:21.547Z</time>
      </trkpt>
      <trkpt lat="42.38355" lon="24.26725">
        <ele>465.276583</ele>
        <time>2022-03-07T12:17:22.539Z</time>
      </trkpt>
      <trkpt lat="42.3837" lon="24.26711">
        <ele>464.964993</ele>
        <time>2022-03-07T12:17:24.555Z</time>
      </trkpt>
      <trkpt lat="42.38383" lon="24.26702">
        <ele>464.696838</ele>
        <time>2022-03-07T12:17:26.553Z</time>
      </trkpt>
      <trkpt lat="42.38397" lon="24.26697">
        <ele>464.440338</ele>
        <time>2022-03-07T12:17:28.536Z</time>
      </trkpt>
      <trkpt lat="42.3841" lon="24.26702">
        <ele>464.206345</ele>
        <time>2022-03-07T12:17:30.532Z</time>
      </trkpt>
      <trkpt lat="42.38418" lon="24.26716">
        <ele>463.971103</ele>
        <time>2022-03-07T12:17:32.546Z</time>
      </trkpt>
      <trkpt lat="42.38423" lon="24.26734">
        <ele>463.730473</ele>
        <time>2022-03-07T12:17:34.537Z</time>
      </trkpt>
      <trkpt lat="42.38425" lon="24.26749">
        <ele>463.529313</ele>
        <time>2022-03-07T12:17:36.548Z</time>
      </trkpt>
      <trkpt lat="42.38428" lon="24.26761">
        <ele>463.364578</ele>
        <time>2022-03-07T12:17:38.534Z</time>
      </trkpt>
      <trkpt lat="42.38435" lon="24.26773">
        <ele>463.160737</ele>
        <time>2022-03-07T12:17:41.544Z</time>
      </trkpt>
      <trkpt lat="42.38444" lon="24.26779">
        <ele>462.98453</ele>
        <time>2022-03-07T12:17:44.556Z</time>
      </trkpt>
      <trkpt lat="42.38454" lon="24.26782">
        <ele>462.802405</ele>
        <time>2022-03-07T12:17:47.556Z</time>
      </trkpt>
      <trkpt lat="42.38464" lon="24.26783">
        <ele>462.629254</ele>
        <time>2022-03-07T12:17:50.545Z</time>
      </trkpt>
      <trkpt lat="42.38474" lon="24.26782">
        <ele>462.452133</ele>
        <time>2022-03-07T12:17:53.552Z</time>
      </trkpt>
      <trkpt lat="42.38484" lon="24.26779">
        <ele>462.872111</ele>
        <time>2022-03-07T12:17:56.554Z</time>
      </trkpt>
      <trkpt lat="42.38494" lon="24.26775">
        <ele>463.355126</ele>
        <time>2022-03-07T12:17:59.540Z</time>
      </trkpt>
      <trkpt lat="42.38503" lon="24.26769">
        <ele>463.801626</ele>
        <time>2022-03-07T12:18:02.545Z</time>
      </trkpt>
      <trkpt lat="42.38511" lon="24.26761">
        <ele>464.27019</ele>
        <time>2022-03-07T12:18:05.546Z</time>
      </trkpt>
      <trkpt lat="42.3852" lon="24.26752">
        <ele>464.78723</ele>
        <time>2022-03-07T12:18:09.549Z</time>
      </trkpt>
      <trkpt lat="42.38528" lon="24.26743">
        <ele>465.283491</ele>
        <time>2022-03-07T12:18:12.539Z</time>
      </trkpt>
      <trkpt lat="42.38537" lon="24.26736">
        <ele>465.753476</ele>
        <time>2022-03-07T12:18:15.525Z</time>
      </trkpt>
      <trkpt lat="42.38547" lon="24.2673">
        <ele>466.218776</ele>
        <time>2022-03-07T12:18:18.548Z</time>
      </trkpt>
      <trkpt lat="42.38557" lon="24.26725">
        <ele>466.716521</ele>
        <time>2022-03-07T12:18:21.554Z</time>
      </trkpt>
      <trkpt lat="42.38568" lon="24.26724">
        <ele>467.238691</ele>
        <time>2022-03-07T12:18:24.543Z</time>
      </trkpt>
      <trkpt lat="42.3858" lon="24.26724">
        <ele>467.79976</ele>
        <time>2022-03-07T12:18:27.546Z</time>
      </trkpt>
      <trkpt lat="42.38592" lon="24.26725">
        <ele>468.340572</ele>
        <time>2022-03-07T12:18:30.541Z</time>
      </trkpt>
      <trkpt lat="42.38602" lon="24.26729">
        <ele>468.804189</ele>
        <time>2022-03-07T12:18:33.526Z</time>
      </trkpt>
      <trkpt lat="42.38611" lon="24.26733">
        <ele>469.234446</ele>
        <time>2022-03-07T12:18:36.548Z</time>
      </trkpt>
      <trkpt lat="42.3862" lon="24.26737">
        <ele>469.666036</ele>
        <time>2022-03-07T12:18:40.540Z</time>
      </trkpt>
      <trkpt lat="42.38629" lon="24.2674">
        <ele>470.125184</ele>
        <time>2022-03-07T12:18:44.538Z</time>
      </trkpt>
      <trkpt lat="42.3864" lon="24.26742">
        <ele>470.621053</ele>
        <time>2022-03-07T12:18:48.542Z</time>
      </trkpt>
      <trkpt lat="42.3865" lon="24.26742">
        <ele>471.042362</ele>
        <time>2022-03-07T12:18:52.548Z</time>
      </trkpt>
      <trkpt lat="42.3866" lon="24.26741">
        <ele>471.438108</ele>
        <time>2022-03-07T12:18:56.543Z</time>
      </trkpt>
      <trkpt lat="42.3867" lon="24.26738">
        <ele>471.867348</ele>
        <time>2022-03-07T12:19:01.546Z</time>
      </trkpt>
      <trkpt lat="42.38679" lon="24.26735">
        <ele>472.237431</ele>
        <time>2022-03-07T12:19:07.558Z</time>
      </trkpt>
      <trkpt lat="42.38689" lon="24.26732">
        <ele>472.675141</ele>
        <time>2022-03-07T12:19:13.514Z</time>
      </trkpt>
      <trkpt lat="42.387" lon="24.26729">
        <ele>473.100411</ele>
        <time>2022-03-07T12:19:19.546Z</time>
      </trkpt>
      <trkpt lat="42.38709" lon="24.26726">
        <ele>473.514469</ele>
        <time>2022-03-07T12:19:25.539Z</time>
      </trkpt>
      <trkpt lat="42.38718" lon="24.26723">
        <ele>473.889077</ele>
        <time>2022-03-07T12:19:30.554Z</time>
      </trkpt>
      <trkpt lat="42.38729" lon="24.26718">
        <ele>474.332216</ele>
        <time>2022-03-07T12:19:36.561Z</time>
      </trkpt>
      <trkpt lat="42.38738" lon="24.26716">
        <ele>474.708266</ele>
        <time>2022-03-07T12:19:41.544Z</time>
      </trkpt>
      <trkpt lat="42.38747" lon="24.26713">
        <ele>475.092857</ele>
        <time>2022-03-07T12:19:46.542Z</time>
      </trkpt>
      <trkpt lat="42.38757" lon="24.26712">
        <ele>475.500773</ele>
        <time>2022-03-07T12:19:51.539Z</time>
      </trkpt>
      <trkpt lat="42.38767" lon="24.26713">
        <ele>475.919881</ele>
        <time>2022-03-07T12:19:56.549Z</time>
      </trkpt>
      <trkpt lat="42.38778" lon="24.26713">
        <ele>476.343345</ele>
        <time>2022-03-07T12:20:01.554Z</time>
      </trkpt>
      <trkpt lat="42.38787" lon="24.26714">
        <ele>476.72744</ele>
        <time>2022-03-07T12:20:05.555Z</time>
      </trkpt>
      <trkpt lat="42.38798" lon="24.26717">
        <ele>477.180233</ele>
        <time>2022-03-07T12:20:10.543Z</time>
      </trkpt>
      <trkpt lat="42.38808" lon="24.26719">
        <ele>477.600892</ele>
        <time>2022-03-07T12:20:14.546Z</time>
      </trkpt>
      <trkpt lat="42.38818" lon="24.26721">
        <ele>477.999184</ele>
        <time>2022-03-07T12:20:18.533Z</time>
      </trkpt>
      <trkpt lat="42.38827" lon="24.26724">
        <ele>478.254403</ele>
        <time>2022-03-07T12:20:22.589Z</time>
      </trkpt>
      <trkpt lat="42.38837" lon="24.26727">
        <ele>478.501317</ele>
        <time>2022-03-07T12:20:26.538Z</time>
      </trkpt>
      <trkpt lat="42.38846" lon="24.26729">
        <ele>478.738714</ele>
        <time>2022-03-07T12:20:30.541Z</time>
      </trkpt>
      <trkpt lat="42.38855" lon="24.26731">
        <ele>478.975744</ele>
        <time>2022-03-07T12:20:34.535Z</time>
      </trkpt>
      <trkpt lat="42.38864" lon="24.26733">
        <ele>479.213138</ele>
        <time>2022-03-07T12:20:38.531Z</time>
      </trkpt>
      <trkpt lat="42.38874" lon="24.26737">
        <ele>479.46587</ele>
        <time>2022-03-07T12:20:42.553Z</time>
      </trkpt>
      <trkpt lat="42.38884" lon="24.2674">
        <ele>479.729836</ele>
        <time>2022-03-07T12:20:46.551Z</time>
      </trkpt>
      <trkpt lat="42.38894" lon="24.26742">
        <ele>479.995867</ele>
        <time>2022-03-07T12:20:50.549Z</time>
      </trkpt>
      <trkpt lat="42.38904" lon="24.26745">
        <ele>480.24776</ele>
        <time>2022-03-07T12:20:54.553Z</time>
      </trkpt>
      <trkpt lat="42.38914" lon="24.26747">
        <ele>480.50961</ele>
        <time>2022-03-07T12:20:58.539Z</time>
      </trkpt>
      <trkpt lat="42.38923" lon="24.2675">
        <ele>480.757406</ele>
        <time>2022-03-07T12:21:02.552Z</time>
      </trkpt>
      <trkpt lat="42.38932" lon="24.26752">
        <ele>480.987292</ele>
        <time>2022-03-07T12:21:06.581Z</time>
      </trkpt>
      <trkpt lat="42.38943" lon="24.26754">
        <ele>481.268516</ele>
        <time>2022-03-07T12:21:10.546Z</time>
      </trkpt>
      <trkpt lat="42.38954" lon="24.26757">
        <ele>481.564402</ele>
        <time>2022-03-07T12:21:14.561Z</time>
      </trkpt>
      <trkpt lat="42.38964" lon="24.2676">
        <ele>481.805484</ele>
        <time>2022-03-07T12:21:17.544Z</time>
      </trkpt>
      <trkpt lat="42.38973" lon="24.26762">
        <ele>482.037496</ele>
        <time>2022-03-07T12:21:20.544Z</time>
      </trkpt>
      <trkpt lat="42.38984" lon="24.26766">
        <ele>482.332243</ele>
        <time>2022-03-07T12:21:24.546Z</time>
      </trkpt>
      <trkpt lat="42.38993" lon="24.26768">
        <ele>482.575819</ele>
        <time>2022-03-07T12:21:27.545Z</time>
      </trkpt>
      <trkpt lat="42.39002" lon="24.2677">
        <ele>482.553537</ele>
        <time>2022-03-07T12:21:30.546Z</time>
      </trkpt>
      <trkpt lat="42.39012" lon="24.26772">
        <ele>482.467907</ele>
        <time>2022-03-07T12:21:33.537Z</time>
      </trkpt>
      <trkpt lat="42.39021" lon="24.26774">
        <ele>482.382602</ele>
        <time>2022-03-07T12:21:36.549Z</time>
      </trkpt>
      <trkpt lat="42.3903" lon="24.26777">
        <ele>482.294186</ele>
        <time>2022-03-07T12:21:39.597Z</time>
      </trkpt>
      <trkpt lat="42.39039" lon="24.2678">
        <ele>482.209983</ele>
        <time>2022-03-07T12:21:42.541Z</time>
      </trkpt>
      <trkpt lat="42.39048" lon="24.26782">
        <ele>482.126614</ele>
        <time>2022-03-07T12:21:45.533Z</time>
      </trkpt>
      <trkpt lat="42.39057" lon="24.26784">
        <ele>482.043602</ele>
        <time>2022-03-07T12:21:48.546Z</time>
      </trkpt>
      <trkpt lat="42.39068" lon="24.26787">
        <ele>481.9336</ele>
        <time>2022-03-07T12:21:52.545Z</time>
      </trkpt>
      <trkpt lat="42.3908" lon="24.2679">
        <ele>481.827376</ele>
        <time>2022-03-07T12:21:56.532Z</time>
      </trkpt>
      <trkpt lat="42.3909" lon="24.26793">
        <ele>481.734455</ele>
        <time>2022-03-07T12:21:59.546Z</time>
      </trkpt>
      <trkpt lat="42.391" lon="24.26795">
        <ele>481.637144</ele>
        <time>2022-03-07T12:22:02.535Z</time>
      </trkpt>
      <trkpt lat="42.39113" lon="24.26798">
        <ele>481.517842</ele>
        <time>2022-03-07T12:22:05.558Z</time>
      </trkpt>
      <trkpt lat="42.39122" lon="24.26801">
        <ele>481.432537</ele>
        <time>2022-03-07T12:22:07.552Z</time>
      </trkpt>
      <trkpt lat="42.39132" lon="24.26803">
        <ele>481.341279</ele>
        <time>2022-03-07T12:22:09.573Z</time>
      </trkpt>
      <trkpt lat="42.39142" lon="24.26806">
        <ele>481.245517</ele>
        <time>2022-03-07T12:22:11.536Z</time>
      </trkpt>
      <trkpt lat="42.39154" lon="24.26809">
        <ele>481.134496</ele>
        <time>2022-03-07T12:22:13.532Z</time>
      </trkpt>
      <trkpt lat="42.39167" lon="24.26812">
        <ele>481.013573</ele>
        <time>2022-03-07T12:22:15.547Z</time>
      </trkpt>
      <trkpt lat="42.3918" lon="24.26816">
        <ele>480.987568</ele>
        <time>2022-03-07T12:22:17.572Z</time>
      </trkpt>
      <trkpt lat="42.39193" lon="24.2682">
        <ele>481.020799</ele>
        <time>2022-03-07T12:22:19.548Z</time>
      </trkpt>
      <trkpt lat="42.39206" lon="24.26823">
        <ele>481.054628</ele>
        <time>2022-03-07T12:22:21.541Z</time>
      </trkpt>
      <trkpt lat="42.39219" lon="24.26826">
        <ele>481.085951</ele>
        <time>2022-03-07T12:22:23.543Z</time>
      </trkpt>
      <trkpt lat="42.39233" lon="24.26829">
        <ele>481.119508</ele>
        <time>2022-03-07T12:22:25.540Z</time>
      </trkpt>
      <trkpt lat="42.39245" lon="24.26832">
        <ele>481.150137</ele>
        <time>2022-03-07T12:22:27.526Z</time>
      </trkpt>
      <trkpt lat="42.39257" lon="24.26836">
        <ele>481.180259</ele>
        <time>2022-03-07T12:22:29.544Z</time>
      </trkpt>
      <trkpt lat="42.39268" lon="24.26839">
        <ele>481.208312</ele>
        <time>2022-03-07T12:22:31.542Z</time>
      </trkpt>
      <trkpt lat="42.39279" lon="24.26842">
        <ele>481.236258</ele>
        <time>2022-03-07T12:22:33.533Z</time>
      </trkpt>
      <trkpt lat="42.3929" lon="24.26845">
        <ele>481.262595</ele>
        <time>2022-03-07T12:22:35.555Z</time>
      </trkpt>
      <trkpt lat="42.39299" lon="24.26849">
        <ele>481.286914</ele>
        <time>2022-03-07T12:22:37.544Z</time>
      </trkpt>
      <trkpt lat="42.39312" lon="24.26853">
        <ele>481.318477</ele>
        <time>2022-03-07T12:22:40.553Z</time>
      </trkpt>
      <trkpt lat="42.39325" lon="24.26856">
        <ele>481.351236</ele>
        <time>2022-03-07T12:22:43.533Z</time>
      </trkpt>
      <trkpt lat="42.39338" lon="24.2686">
        <ele>481.383073</ele>
        <time>2022-03-07T12:22:46.539Z</time>
      </trkpt>
      <trkpt lat="42.39347" lon="24.26862">
        <ele>481.405425</ele>
        <time>2022-03-07T12:22:48.545Z</time>
      </trkpt>
      <trkpt lat="42.39358" lon="24.26864">
        <ele>481.711635</ele>
        <time>2022-03-07T12:22:51.558Z</time>
      </trkpt>
      <trkpt lat="42.3937" lon="24.26867">
        <ele>482.059022</ele>
        <time>2022-03-07T12:22:54.554Z</time>
      </trkpt>
      <trkpt lat="42.3938" lon="24.2687">
        <ele>482.360152</ele>
        <time>2022-03-07T12:22:57.553Z</time>
      </trkpt>
      <trkpt lat="42.39389" lon="24.26873">
        <ele>482.626048</ele>
        <time>2022-03-07T12:23:00.537Z</time>
      </trkpt>
      <trkpt lat="42.394" lon="24.26876">
        <ele>482.941783</ele>
        <time>2022-03-07T12:23:04.532Z</time>
      </trkpt>
      <trkpt lat="42.3941" lon="24.26878">
        <ele>483.238859</ele>
        <time>2022-03-07T12:23:08.555Z</time>
      </trkpt>
      <trkpt lat="42.39419" lon="24.26881">
        <ele>483.517808</ele>
        <time>2022-03-07T12:23:12.566Z</time>
      </trkpt>
      <trkpt lat="42.39429" lon="24.26883">
        <ele>483.792494</ele>
        <time>2022-03-07T12:23:16.542Z</time>
      </trkpt>
      <trkpt lat="42.39438" lon="24.26885">
        <ele>484.072356</ele>
        <time>2022-03-07T12:23:20.535Z</time>
      </trkpt>
      <trkpt lat="42.39448" lon="24.26886">
        <ele>484.366342</ele>
        <time>2022-03-07T12:23:24.539Z</time>
      </trkpt>
      <trkpt lat="42.39458" lon="24.26888">
        <ele>484.643333</ele>
        <time>2022-03-07T12:23:28.555Z</time>
      </trkpt>
      <trkpt lat="42.39467" lon="24.26889">
        <ele>484.904797</ele>
        <time>2022-03-07T12:23:32.545Z</time>
      </trkpt>
      <trkpt lat="42.39476" lon="24.26889">
        <ele>485.17967</ele>
        <time>2022-03-07T12:23:36.546Z</time>
      </trkpt>
      <trkpt lat="42.39486" lon="24.26889">
        <ele>485.457436</ele>
        <time>2022-03-07T12:23:41.557Z</time>
      </trkpt>
      <trkpt lat="42.39496" lon="24.26888">
        <ele>485.756382</ele>
        <time>2022-03-07T12:23:46.537Z</time>
      </trkpt>
      <trkpt lat="42.39507" lon="24.26888">
        <ele>486.060196</ele>
        <time>2022-03-07T12:23:51.567Z</time>
      </trkpt>
      <trkpt lat="42.39517" lon="24.26887">
        <ele>486.349819</ele>
        <time>2022-03-07T12:23:56.544Z</time>
      </trkpt>
      <trkpt lat="42.39527" lon="24.26887">
        <ele>486.59956</ele>
        <time>2022-03-07T12:24:01.538Z</time>
      </trkpt>
      <trkpt lat="42.39538" lon="24.26886">
        <ele>486.404764</ele>
        <time>2022-03-07T12:24:06.557Z</time>
      </trkpt>
      <trkpt lat="42.39548" lon="24.26887">
        <ele>486.229198</ele>
        <time>2022-03-07T12:24:10.554Z</time>
      </trkpt>
      <trkpt lat="42.3956" lon="24.26886">
        <ele>486.013148</ele>
        <time>2022-03-07T12:24:14.542Z</time>
      </trkpt>
      <trkpt lat="42.39572" lon="24.26885">
        <ele>485.805693</ele>
        <time>2022-03-07T12:24:17.540Z</time>
      </trkpt>
      <trkpt lat="42.39585" lon="24.26884">
        <ele>485.572058</ele>
        <time>2022-03-07T12:24:20.557Z</time>
      </trkpt>
      <trkpt lat="42.39595" lon="24.26883">
        <ele>485.392987</ele>
        <time>2022-03-07T12:24:22.535Z</time>
      </trkpt>
      <trkpt lat="42.39606" lon="24.26883">
        <ele>485.200036</ele>
        <time>2022-03-07T12:24:24.565Z</time>
      </trkpt>
      <trkpt lat="42.39617" lon="24.26883">
        <ele>485.00359</ele>
        <time>2022-03-07T12:24:26.546Z</time>
      </trkpt>
      <trkpt lat="42.39629" lon="24.26882">
        <ele>484.806803</ele>
        <time>2022-03-07T12:24:28.569Z</time>
      </trkpt>
      <trkpt lat="42.39641" lon="24.26881">
        <ele>484.597826</ele>
        <time>2022-03-07T12:24:30.555Z</time>
      </trkpt>
      <trkpt lat="42.39653" lon="24.26881">
        <ele>484.378522</ele>
        <time>2022-03-07T12:24:32.543Z</time>
      </trkpt>
      <trkpt lat="42.39666" lon="24.2688">
        <ele>484.146639</ele>
        <time>2022-03-07T12:24:34.541Z</time>
      </trkpt>
      <trkpt lat="42.39679" lon="24.26879">
        <ele>483.923752</ele>
        <time>2022-03-07T12:24:36.544Z</time>
      </trkpt>
      <trkpt lat="42.39692" lon="24.26879">
        <ele>483.69042</ele>
        <time>2022-03-07T12:24:38.534Z</time>
      </trkpt>
      <trkpt lat="42.39705" lon="24.26878">
        <ele>483.471039</ele>
        <time>2022-03-07T12:24:40.543Z</time>
      </trkpt>
      <trkpt lat="42.39717" lon="24.26878">
        <ele>483.355136</ele>
        <time>2022-03-07T12:24:42.539Z</time>
      </trkpt>
      <trkpt lat="42.39728" lon="24.26877">
        <ele>483.251173</ele>
        <time>2022-03-07T12:24:44.547Z</time>
      </trkpt>
      <trkpt lat="42.39739" lon="24.26877">
        <ele>483.152585</ele>
        <time>2022-03-07T12:24:46.614Z</time>
      </trkpt>
      <trkpt lat="42.3975" lon="24.26876">
        <ele>483.0549</ele>
        <time>2022-03-07T12:24:48.545Z</time>
      </trkpt>
      <trkpt lat="42.39761" lon="24.26875">
        <ele>482.959859</ele>
        <time>2022-03-07T12:24:50.582Z</time>
      </trkpt>
      <trkpt lat="42.39771" lon="24.26876">
        <ele>482.867676</ele>
        <time>2022-03-07T12:24:52.597Z</time>
      </trkpt>
      <trkpt lat="42.3978" lon="24.26875">
        <ele>482.783606</ele>
        <time>2022-03-07T12:24:54.573Z</time>
      </trkpt>
      <trkpt lat="42.39793" lon="24.26875">
        <ele>482.664312</ele>
        <time>2022-03-07T12:24:57.546Z</time>
      </trkpt>
      <trkpt lat="42.39807" lon="24.26876">
        <ele>482.544049</ele>
        <time>2022-03-07T12:25:00.557Z</time>
      </trkpt>
      <trkpt lat="42.39816" lon="24.26876">
        <ele>482.458195</ele>
        <time>2022-03-07T12:25:02.539Z</time>
      </trkpt>
      <trkpt lat="42.3983" lon="24.26875">
        <ele>482.334296</ele>
        <time>2022-03-07T12:25:05.571Z</time>
      </trkpt>
      <trkpt lat="42.39839" lon="24.26874">
        <ele>482.25008</ele>
        <time>2022-03-07T12:25:07.575Z</time>
      </trkpt>
      <trkpt lat="42.39852" lon="24.26873">
        <ele>482.130637</ele>
        <time>2022-03-07T12:25:10.556Z</time>
      </trkpt>
      <trkpt lat="42.39865" lon="24.26872">
        <ele>482.014804</ele>
        <time>2022-03-07T12:25:13.554Z</time>
      </trkpt>
      <trkpt lat="42.39878" lon="24.26872">
        <ele>481.898101</ele>
        <time>2022-03-07T12:25:16.543Z</time>
      </trkpt>
      <trkpt lat="42.39891" lon="24.26871">
        <ele>482.055555</ele>
        <time>2022-03-07T12:25:19.556Z</time>
      </trkpt>
      <trkpt lat="42.39903" lon="24.26871">
        <ele>482.551425</ele>
        <time>2022-03-07T12:25:22.546Z</time>
      </trkpt>
      <trkpt lat="42.39914" lon="24.26871">
        <ele>483.01007</ele>
        <time>2022-03-07T12:25:25.563Z</time>
      </trkpt>
      <trkpt lat="42.39923" lon="24.26871">
        <ele>483.406783</ele>
        <time>2022-03-07T12:25:28.565Z</time>
      </trkpt>
      <trkpt lat="42.39933" lon="24.26871">
        <ele>483.786934</ele>
        <time>2022-03-07T12:25:31.547Z</time>
      </trkpt>
      <trkpt lat="42.39942" lon="24.2687">
        <ele>484.159421</ele>
        <time>2022-03-07T12:25:34.552Z</time>
      </trkpt>
      <trkpt lat="42.39953" lon="24.26869">
        <ele>484.623012</ele>
        <time>2022-03-07T12:25:38.558Z</time>
      </trkpt>
      <trkpt lat="42.39964" lon="24.26869">
        <ele>485.082306</ele>
        <time>2022-03-07T12:25:42.541Z</time>
      </trkpt>
      <trkpt lat="42.39975" lon="24.26868">
        <ele>485.541113</ele>
        <time>2022-03-07T12:25:46.544Z</time>
      </trkpt>
      <trkpt lat="42.39986" lon="24.26868">
        <ele>485.995995</ele>
        <time>2022-03-07T12:25:50.564Z</time>
      </trkpt>
      <trkpt lat="42.39996" lon="24.26867">
        <ele>486.417729</ele>
        <time>2022-03-07T12:25:54.553Z</time>
      </trkpt>
      <trkpt lat="42.40007" lon="24.26866">
        <ele>486.882764</ele>
        <time>2022-03-07T12:25:59.551Z</time>
      </trkpt>
      <trkpt lat="42.40017" lon="24.26865">
        <ele>487.263892</ele>
        <time>2022-03-07T12:26:03.558Z</time>
      </trkpt>
      <trkpt lat="42.40027" lon="24.26863">
        <ele>487.701208</ele>
        <time>2022-03-07T12:26:08.549Z</time>
      </trkpt>
      <trkpt lat="42.40036" lon="24.2686">
        <ele>488.09421</ele>
        <time>2022-03-07T12:26:13.541Z</time>
      </trkpt>
      <trkpt lat="42.40046" lon="24.26856">
        <ele>488.530769</ele>
        <time>2022-03-07T12:26:19.552Z</time>
      </trkpt>
      <trkpt lat="42.40056" lon="24.26851">
        <ele>488.947642</ele>
        <time>2022-03-07T12:26:24.563Z</time>
      </trkpt>
      <trkpt lat="42.40065" lon="24.26846">
        <ele>489.24199</ele>
        <time>2022-03-07T12:26:28.577Z</time>
      </trkpt>
      <trkpt lat="42.40074" lon="24.2684">
        <ele>489.123024</ele>
        <time>2022-03-07T12:26:32.561Z</time>
      </trkpt>
      <trkpt lat="42.40084" lon="24.26833">
        <ele>488.991513</ele>
        <time>2022-03-07T12:26:36.563Z</time>
      </trkpt>
      <trkpt lat="42.40093" lon="24.26827">
        <ele>488.869559</ele>
        <time>2022-03-07T12:26:40.547Z</time>
      </trkpt>
      <trkpt lat="42.40101" lon="24.26821">
        <ele>488.762167</ele>
        <time>2022-03-07T12:26:43.537Z</time>
      </trkpt>
      <trkpt lat="42.4011" lon="24.26816">
        <ele>488.651821</ele>
        <time>2022-03-07T12:26:46.576Z</time>
      </trkpt>
      <trkpt lat="42.40118" lon="24.26809">
        <ele>488.543518</ele>
        <time>2022-03-07T12:26:49.553Z</time>
      </trkpt>
      <trkpt lat="42.40128" lon="24.26802">
        <ele>488.403152</ele>
        <time>2022-03-07T12:26:52.559Z</time>
      </trkpt>
      <trkpt lat="42.4014" lon="24.26794">
        <ele>488.251584</ele>
        <time>2022-03-07T12:26:55.540Z</time>
      </trkpt>
      <trkpt lat="42.40152" lon="24.26786">
        <ele>488.093324</ele>
        <time>2022-03-07T12:26:58.548Z</time>
      </trkpt>
      <trkpt lat="42.40164" lon="24.26778">
        <ele>487.937312</ele>
        <time>2022-03-07T12:27:01.593Z</time>
      </trkpt>
      <trkpt lat="42.40172" lon="24.26772">
        <ele>487.831347</ele>
        <time>2022-03-07T12:27:03.598Z</time>
      </trkpt>
      <trkpt lat="42.40181" lon="24.26767">
        <ele>487.720409</ele>
        <time>2022-03-07T12:27:05.558Z</time>
      </trkpt>
      <trkpt lat="42.40189" lon="24.26761">
        <ele>487.610301</ele>
        <time>2022-03-07T12:27:07.570Z</time>
      </trkpt>
      <trkpt lat="42.40197" lon="24.26755">
        <ele>487.498754</ele>
        <time>2022-03-07T12:27:09.547Z</time>
      </trkpt>
      <trkpt lat="42.40205" lon="24.26749">
        <ele>487.392023</ele>
        <time>2022-03-07T12:27:11.552Z</time>
      </trkpt>
      <trkpt lat="42.40213" lon="24.26742">
        <ele>487.282008</ele>
        <time>2022-03-07T12:27:13.551Z</time>
      </trkpt>
      <trkpt lat="42.40221" lon="24.26734">
        <ele>487.170567</ele>
        <time>2022-03-07T12:27:15.568Z</time>
      </trkpt>
      <trkpt lat="42.40229" lon="24.26726">
        <ele>487.025607</ele>
        <time>2022-03-07T12:27:17.560Z</time>
      </trkpt>
      <trkpt lat="42.40236" lon="24.26717">
        <ele>486.873115</ele>
        <time>2022-03-07T12:27:19.589Z</time>
      </trkpt>
      <trkpt lat="42.40243" lon="24.26707">
        <ele>486.723284</ele>
        <time>2022-03-07T12:27:21.547Z</time>
      </trkpt>
      <trkpt lat="42.40249" lon="24.26697">
        <ele>486.579434</ele>
        <time>2022-03-07T12:27:23.580Z</time>
      </trkpt>
      <trkpt lat="42.40255" lon="24.26687">
        <ele>486.432757</ele>
        <time>2022-03-07T12:27:25.551Z</time>
      </trkpt>
      <trkpt lat="42.40261" lon="24.26677">
        <ele>486.289159</ele>
        <time>2022-03-07T12:27:27.552Z</time>
      </trkpt>
      <trkpt lat="42.40267" lon="24.26667">
        <ele>486.1447</ele>
        <time>2022-03-07T12:27:29.579Z</time>
      </trkpt>
      <trkpt lat="42.40272" lon="24.26656">
        <ele>485.996624</ele>
        <time>2022-03-07T12:27:31.542Z</time>
      </trkpt>
      <trkpt lat="42.40278" lon="24.26646">
        <ele>485.850354</ele>
        <time>2022-03-07T12:27:33.548Z</time>
      </trkpt>
      <trkpt lat="42.40284" lon="24.26636">
        <ele>485.709498</ele>
        <time>2022-03-07T12:27:35.542Z</time>
      </trkpt>
      <trkpt lat="42.40289" lon="24.26626">
        <ele>485.568654</ele>
        <time>2022-03-07T12:27:37.550Z</time>
      </trkpt>
      <trkpt lat="42.40297" lon="24.26611">
        <ele>485.368221</ele>
        <time>2022-03-07T12:27:40.593Z</time>
      </trkpt>
      <trkpt lat="42.40303" lon="24.26602">
        <ele>485.231711</ele>
        <time>2022-03-07T12:27:42.554Z</time>
      </trkpt>
      <trkpt lat="42.40309" lon="24.26592">
        <ele>485.086022</ele>
        <time>2022-03-07T12:27:44.544Z</time>
      </trkpt>
      <trkpt lat="42.40316" lon="24.26582">
        <ele>484.931663</ele>
        <time>2022-03-07T12:27:46.550Z</time>
      </trkpt>
      <trkpt lat="42.40325" lon="24.26573">
        <ele>484.755954</ele>
        <time>2022-03-07T12:27:48.625Z</time>
      </trkpt>
      <trkpt lat="42.40337" lon="24.26565">
        <ele>484.562693</ele>
        <time>2022-03-07T12:27:50.554Z</time>
      </trkpt>
      <trkpt lat="42.40349" lon="24.26559">
        <ele>484.310798</ele>
        <time>2022-03-07T12:27:52.553Z</time>
      </trkpt>
      <trkpt lat="42.40361" lon="24.26556">
        <ele>483.9311</ele>
        <time>2022-03-07T12:27:54.574Z</time>
      </trkpt>
      <trkpt lat="42.40374" lon="24.26556">
        <ele>483.548681</ele>
        <time>2022-03-07T12:27:56.571Z</time>
      </trkpt>
      <trkpt lat="42.40386" lon="24.26562">
        <ele>483.158451</ele>
        <time>2022-03-07T12:27:58.551Z</time>
      </trkpt>
      <trkpt lat="42.40395" lon="24.26572">
        <ele>482.790075</ele>
        <time>2022-03-07T12:28:00.550Z</time>
      </trkpt>
      <trkpt lat="42.40401" lon="24.26585">
        <ele>482.45734</ele>
        <time>2022-03-07T12:28:02.676Z</time>
      </trkpt>
      <trkpt lat="42.40406" lon="24.26598">
        <ele>482.113518</ele>
        <time>2022-03-07T12:28:04.567Z</time>
      </trkpt>
      <trkpt lat="42.40411" lon="24.26612">
        <ele>481.770886</ele>
        <time>2022-03-07T12:28:06.541Z</time>
      </trkpt>
      <trkpt lat="42.40418" lon="24.26626">
        <ele>481.398075</ele>
        <time>2022-03-07T12:28:08.552Z</time>
      </trkpt>
      <trkpt lat="42.40425" lon="24.26642">
        <ele>480.985161</ele>
        <time>2022-03-07T12:28:10.574Z</time>
      </trkpt>
      <trkpt lat="42.40432" lon="24.26657">
        <ele>480.579572</ele>
        <time>2022-03-07T12:28:12.558Z</time>
      </trkpt>
      <trkpt lat="42.40439" lon="24.26673">
        <ele>480.16</ele>
        <time>2022-03-07T12:28:14.563Z</time>
      </trkpt>
      <trkpt lat="42.40446" lon="24.26688">
        <ele>479.758834</ele>
        <time>2022-03-07T12:28:16.543Z</time>
      </trkpt>
      <trkpt lat="42.40452" lon="24.26704">
        <ele>479.360869</ele>
        <time>2022-03-07T12:28:18.582Z</time>
      </trkpt>
      <trkpt lat="42.40458" lon="24.26719">
        <ele>478.976836</ele>
        <time>2022-03-07T12:28:20.558Z</time>
      </trkpt>
      <trkpt lat="42.40463" lon="24.26734">
        <ele>478.806751</ele>
        <time>2022-03-07T12:28:22.543Z</time>
      </trkpt>
      <trkpt lat="42.40467" lon="24.26749">
        <ele>478.644892</ele>
        <time>2022-03-07T12:28:24.543Z</time>
      </trkpt>
      <trkpt lat="42.40471" lon="24.26764">
        <ele>478.486328</ele>
        <time>2022-03-07T12:28:26.565Z</time>
      </trkpt>
      <trkpt lat="42.40474" lon="24.26779">
        <ele>478.337727</ele>
        <time>2022-03-07T12:28:28.557Z</time>
      </trkpt>
      <trkpt lat="42.40477" lon="24.26793">
        <ele>478.192376</ele>
        <time>2022-03-07T12:28:30.547Z</time>
      </trkpt>
      <trkpt lat="42.4048" lon="24.26806">
        <ele>478.050369</ele>
        <time>2022-03-07T12:28:32.550Z</time>
      </trkpt>
      <trkpt lat="42.40483" lon="24.26819">
        <ele>477.918002</ele>
        <time>2022-03-07T12:28:34.542Z</time>
      </trkpt>
      <trkpt lat="42.40485" lon="24.26832">
        <ele>477.784048</ele>
        <time>2022-03-07T12:28:36.562Z</time>
      </trkpt>
      <trkpt lat="42.40487" lon="24.26846">
        <ele>477.64783</ele>
        <time>2022-03-07T12:28:38.567Z</time>
      </trkpt>
      <trkpt lat="42.4049" lon="24.26858">
        <ele>477.515187</ele>
        <time>2022-03-07T12:28:40.543Z</time>
      </trkpt>
      <trkpt lat="42.40492" lon="24.26871">
        <ele>477.390866</ele>
        <time>2022-03-07T12:28:42.566Z</time>
      </trkpt>
      <trkpt lat="42.40494" lon="24.26883">
        <ele>477.260946</ele>
        <time>2022-03-07T12:28:44.552Z</time>
      </trkpt>
      <trkpt lat="42.40496" lon="24.26897">
        <ele>477.123657</ele>
        <time>2022-03-07T12:28:46.545Z</time>
      </trkpt>
      <trkpt lat="42.40498" lon="24.26909">
        <ele>476.99553</ele>
        <time>2022-03-07T12:28:48.557Z</time>
      </trkpt>
      <trkpt lat="42.40501" lon="24.26927">
        <ele>476.817705</ele>
        <time>2022-03-07T12:28:51.595Z</time>
      </trkpt>
      <trkpt lat="42.40503" lon="24.26939">
        <ele>476.696018</ele>
        <time>2022-03-07T12:28:53.547Z</time>
      </trkpt>
      <trkpt lat="42.40505" lon="24.26951">
        <ele>476.572083</ele>
        <time>2022-03-07T12:28:55.539Z</time>
      </trkpt>
      <trkpt lat="42.40507" lon="24.26963">
        <ele>476.466916</ele>
        <time>2022-03-07T12:28:57.567Z</time>
      </trkpt>
      <trkpt lat="42.4051" lon="24.26975">
        <ele>476.369934</ele>
        <time>2022-03-07T12:28:59.537Z</time>
      </trkpt>
      <trkpt lat="42.40512" lon="24.26987">
        <ele>476.26862</ele>
        <time>2022-03-07T12:29:01.542Z</time>
      </trkpt>
      <trkpt lat="42.40514" lon="24.26999">
        <ele>476.170372</ele>
        <time>2022-03-07T12:29:03.551Z</time>
      </trkpt>
      <trkpt lat="42.40516" lon="24.27012">
        <ele>476.071297</ele>
        <time>2022-03-07T12:29:05.574Z</time>
      </trkpt>
      <trkpt lat="42.40518" lon="24.27024">
        <ele>475.971755</ele>
        <time>2022-03-07T12:29:07.536Z</time>
      </trkpt>
      <trkpt lat="42.40523" lon="24.27041">
        <ele>475.831216</ele>
        <time>2022-03-07T12:29:10.538Z</time>
      </trkpt>
      <trkpt lat="42.40529" lon="24.27055">
        <ele>475.699643</ele>
        <time>2022-03-07T12:29:13.581Z</time>
      </trkpt>
      <trkpt lat="42.40538" lon="24.27068">
        <ele>475.555798</ele>
        <time>2022-03-07T12:29:16.564Z</time>
      </trkpt>
      <trkpt lat="42.40547" lon="24.27075">
        <ele>475.451305</ele>
        <time>2022-03-07T12:29:18.567Z</time>
      </trkpt>
      <trkpt lat="42.40557" lon="24.2708">
        <ele>475.339028</ele>
        <time>2022-03-07T12:29:20.565Z</time>
      </trkpt>
      <trkpt lat="42.40568" lon="24.27083">
        <ele>475.215258</ele>
        <time>2022-03-07T12:29:22.546Z</time>
      </trkpt>
      <trkpt lat="42.40579" lon="24.27087">
        <ele>475.092348</ele>
        <time>2022-03-07T12:29:24.548Z</time>
      </trkpt>
      <trkpt lat="42.4059" lon="24.27091">
        <ele>474.969065</ele>
        <time>2022-03-07T12:29:26.541Z</time>
      </trkpt>
      <trkpt lat="42.40602" lon="24.27095">
        <ele>474.842672</ele>
        <time>2022-03-07T12:29:28.558Z</time>
      </trkpt>
      <trkpt lat="42.40613" lon="24.27098">
        <ele>474.718519</ele>
        <time>2022-03-07T12:29:30.551Z</time>
      </trkpt>
      <trkpt lat="42.40625" lon="24.271">
        <ele>474.46735</ele>
        <time>2022-03-07T12:29:32.562Z</time>
      </trkpt>
      <trkpt lat="42.40638" lon="24.27101">
        <ele>473.741872</ele>
        <time>2022-03-07T12:29:34.559Z</time>
      </trkpt>
      <trkpt lat="42.40653" lon="24.271">
        <ele>472.915367</ele>
        <time>2022-03-07T12:29:36.558Z</time>
      </trkpt>
      <trkpt lat="42.40667" lon="24.27098">
        <ele>472.077051</ele>
        <time>2022-03-07T12:29:38.568Z</time>
      </trkpt>
      <trkpt lat="42.40682" lon="24.27094">
        <ele>471.251658</ele>
        <time>2022-03-07T12:29:40.562Z</time>
      </trkpt>
      <trkpt lat="42.40695" lon="24.27089">
        <ele>470.447497</ele>
        <time>2022-03-07T12:29:42.552Z</time>
      </trkpt>
      <trkpt lat="42.4071" lon="24.27084">
        <ele>469.585395</ele>
        <time>2022-03-07T12:29:44.586Z</time>
      </trkpt>
      <trkpt lat="42.40726" lon="24.2708">
        <ele>468.653471</ele>
        <time>2022-03-07T12:29:46.518Z</time>
      </trkpt>
      <trkpt lat="42.40743" lon="24.27075">
        <ele>467.685705</ele>
        <time>2022-03-07T12:29:48.550Z</time>
      </trkpt>
      <trkpt lat="42.4076" lon="24.27069">
        <ele>466.693106</ele>
        <time>2022-03-07T12:29:50.540Z</time>
      </trkpt>
      <trkpt lat="42.40776" lon="24.27065">
        <ele>465.748342</ele>
        <time>2022-03-07T12:29:52.544Z</time>
      </trkpt>
      <trkpt lat="42.40793" lon="24.27059">
        <ele>464.800782</ele>
        <time>2022-03-07T12:29:54.541Z</time>
      </trkpt>
      <trkpt lat="42.4081" lon="24.27054">
        <ele>463.896574</ele>
        <time>2022-03-07T12:29:56.551Z</time>
      </trkpt>
      <trkpt lat="42.40819" lon="24.27051">
        <ele>463.443827</ele>
        <time>2022-03-07T12:29:57.547Z</time>
      </trkpt>
      <trkpt lat="42.40829" lon="24.27048">
        <ele>462.976448</ele>
        <time>2022-03-07T12:29:58.531Z</time>
      </trkpt>
      <trkpt lat="42.40838" lon="24.27045">
        <ele>462.522877</ele>
        <time>2022-03-07T12:29:59.545Z</time>
      </trkpt>
      <trkpt lat="42.40848" lon="24.27042">
        <ele>462.06091</ele>
        <time>2022-03-07T12:30:00.538Z</time>
      </trkpt>
      <trkpt lat="42.40857" lon="24.27039">
        <ele>461.600481</ele>
        <time>2022-03-07T12:30:01.535Z</time>
      </trkpt>
      <trkpt lat="42.40867" lon="24.27036">
        <ele>461.149302</ele>
        <time>2022-03-07T12:30:02.575Z</time>
      </trkpt>
      <trkpt lat="42.40876" lon="24.27033">
        <ele>460.701966</ele>
        <time>2022-03-07T12:30:03.541Z</time>
      </trkpt>
      <trkpt lat="42.40885" lon="24.2703">
        <ele>460.250015</ele>
        <time>2022-03-07T12:30:04.549Z</time>
      </trkpt>
      <trkpt lat="42.40894" lon="24.27028">
        <ele>459.798837</ele>
        <time>2022-03-07T12:30:05.548Z</time>
      </trkpt>
      <trkpt lat="42.40904" lon="24.27025">
        <ele>459.3515</ele>
        <time>2022-03-07T12:30:06.565Z</time>
      </trkpt>
      <trkpt lat="42.40913" lon="24.27022">
        <ele>458.904944</ele>
        <time>2022-03-07T12:30:07.535Z</time>
      </trkpt>
      <trkpt lat="42.40922" lon="24.27019">
        <ele>458.463768</ele>
        <time>2022-03-07T12:30:08.556Z</time>
      </trkpt>
      <trkpt lat="42.40931" lon="24.27016">
        <ele>458.017964</ele>
        <time>2022-03-07T12:30:09.556Z</time>
      </trkpt>
      <trkpt lat="42.4094" lon="24.27014">
        <ele>457.576788</ele>
        <time>2022-03-07T12:30:10.550Z</time>
      </trkpt>
      <trkpt lat="42.40949" lon="24.27011">
        <ele>457.130985</ele>
        <time>2022-03-07T12:30:11.586Z</time>
      </trkpt>
      <trkpt lat="42.40958" lon="24.27008">
        <ele>456.693665</ele>
        <time>2022-03-07T12:30:12.538Z</time>
      </trkpt>
      <trkpt lat="42.40968" lon="24.27006">
        <ele>456.247862</ele>
        <time>2022-03-07T12:30:13.568Z</time>
      </trkpt>
      <trkpt lat="42.40977" lon="24.27003">
        <ele>455.840217</ele>
        <time>2022-03-07T12:30:14.547Z</time>
      </trkpt>
      <trkpt lat="42.40986" lon="24.27">
        <ele>455.553023</ele>
        <time>2022-03-07T12:30:15.562Z</time>
      </trkpt>
      <trkpt lat="42.40995" lon="24.26997">
        <ele>455.264755</ele>
        <time>2022-03-07T12:30:16.534Z</time>
      </trkpt>
      <trkpt lat="42.41004" lon="24.26994">
        <ele>454.981066</ele>
        <time>2022-03-07T12:30:17.551Z</time>
      </trkpt>
      <trkpt lat="42.41013" lon="24.26991">
        <ele>454.698358</ele>
        <time>2022-03-07T12:30:18.543Z</time>
      </trkpt>
      <trkpt lat="42.41022" lon="24.26989">
        <ele>454.419124</ele>
        <time>2022-03-07T12:30:19.534Z</time>
      </trkpt>
      <trkpt lat="42.41031" lon="24.26986">
        <ele>454.142422</ele>
        <time>2022-03-07T12:30:20.548Z</time>
      </trkpt>
      <trkpt lat="42.41048" lon="24.26981">
        <ele>453.599495</ele>
        <time>2022-03-07T12:30:22.534Z</time>
      </trkpt>
      <trkpt lat="42.41065" lon="24.26975">
        <ele>453.076066</ele>
        <time>2022-03-07T12:30:24.570Z</time>
      </trkpt>
      <trkpt lat="42.4108" lon="24.26971">
        <ele>452.594595</ele>
        <time>2022-03-07T12:30:26.561Z</time>
      </trkpt>
      <trkpt lat="42.41094" lon="24.26968">
        <ele>452.146299</ele>
        <time>2022-03-07T12:30:28.539Z</time>
      </trkpt>
      <trkpt lat="42.41107" lon="24.26966">
        <ele>451.745667</ele>
        <time>2022-03-07T12:30:30.547Z</time>
      </trkpt>
      <trkpt lat="42.41122" lon="24.26969">
        <ele>451.282206</ele>
        <time>2022-03-07T12:30:32.542Z</time>
      </trkpt>
      <trkpt lat="42.41137" lon="24.26979">
        <ele>450.772612</ele>
        <time>2022-03-07T12:30:34.558Z</time>
      </trkpt>
      <trkpt lat="42.41149" lon="24.26992">
        <ele>450.310923</ele>
        <time>2022-03-07T12:30:36.555Z</time>
      </trkpt>
      <trkpt lat="42.41159" lon="24.27006">
        <ele>449.887367</ele>
        <time>2022-03-07T12:30:38.551Z</time>
      </trkpt>
      <trkpt lat="42.41168" lon="24.27022">
        <ele>449.455869</ele>
        <time>2022-03-07T12:30:40.539Z</time>
      </trkpt>
      <trkpt lat="42.41177" lon="24.27039">
        <ele>448.989548</ele>
        <time>2022-03-07T12:30:42.549Z</time>
      </trkpt>
      <trkpt lat="42.41184" lon="24.27059">
        <ele>448.513342</ele>
        <time>2022-03-07T12:30:44.550Z</time>
      </trkpt>
      <trkpt lat="42.41187" lon="24.27081">
        <ele>448.034276</ele>
        <time>2022-03-07T12:30:46.540Z</time>
      </trkpt>
      <trkpt lat="42.41186" lon="24.27103">
        <ele>447.551268</ele>
        <time>2022-03-07T12:30:48.547Z</time>
      </trkpt>
      <trkpt lat="42.41182" lon="24.27124">
        <ele>447.089842</ele>
        <time>2022-03-07T12:30:50.551Z</time>
      </trkpt>
      <trkpt lat="42.41178" lon="24.27144">
        <ele>446.643203</ele>
        <time>2022-03-07T12:30:52.565Z</time>
      </trkpt>
      <trkpt lat="42.41175" lon="24.27164">
        <ele>446.196389</ele>
        <time>2022-03-07T12:30:54.552Z</time>
      </trkpt>
      <trkpt lat="42.41171" lon="24.27185">
        <ele>445.740661</ele>
        <time>2022-03-07T12:30:56.553Z</time>
      </trkpt>
      <trkpt lat="42.41168" lon="24.27205">
        <ele>445.296796</ele>
        <time>2022-03-07T12:30:58.547Z</time>
      </trkpt>
      <trkpt lat="42.41165" lon="24.27223">
        <ele>444.682875</ele>
        <time>2022-03-07T12:31:00.545Z</time>
      </trkpt>
      <trkpt lat="42.41163" lon="24.27242">
        <ele>443.92962</ele>
        <time>2022-03-07T12:31:02.562Z</time>
      </trkpt>
      <trkpt lat="42.4116" lon="24.27262">
        <ele>443.122479</ele>
        <time>2022-03-07T12:31:04.542Z</time>
      </trkpt>
      <trkpt lat="42.41157" lon="24.27281">
        <ele>442.356139</ele>
        <time>2022-03-07T12:31:06.551Z</time>
      </trkpt>
      <trkpt lat="42.41155" lon="24.27296">
        <ele>441.742911</ele>
        <time>2022-03-07T12:31:08.556Z</time>
      </trkpt>
      <trkpt lat="42.41154" lon="24.27311">
        <ele>441.133101</ele>
        <time>2022-03-07T12:31:11.539Z</time>
      </trkpt>
      <trkpt lat="42.41159" lon="24.27323">
        <ele>440.598065</ele>
        <time>2022-03-07T12:31:14.546Z</time>
      </trkpt>
      <trkpt lat="42.41168" lon="24.27332">
        <ele>439.954603</ele>
        <time>2022-03-07T12:31:17.547Z</time>
      </trkpt>
      <trkpt lat="42.41182" lon="24.27331">
        <ele>439.235542</ele>
        <time>2022-03-07T12:31:20.553Z</time>
      </trkpt>
      <trkpt lat="42.41192" lon="24.27323">
        <ele>438.592077</ele>
        <time>2022-03-07T12:31:22.556Z</time>
      </trkpt>
      <trkpt lat="42.41203" lon="24.27313">
        <ele>437.89039</ele>
        <time>2022-03-07T12:31:24.575Z</time>
      </trkpt>
      <trkpt lat="42.41213" lon="24.27303">
        <ele>437.192772</ele>
        <time>2022-03-07T12:31:26.553Z</time>
      </trkpt>
      <trkpt lat="42.41224" lon="24.27293">
        <ele>436.506898</ele>
        <time>2022-03-07T12:31:28.541Z</time>
      </trkpt>
      <trkpt lat="42.41235" lon="24.27284">
        <ele>435.799918</ele>
        <time>2022-03-07T12:31:30.544Z</time>
      </trkpt>
      <trkpt lat="42.41248" lon="24.27278">
        <ele>435.094198</ele>
        <time>2022-03-07T12:31:32.548Z</time>
      </trkpt>
      <trkpt lat="42.41262" lon="24.27276">
        <ele>434.444213</ele>
        <time>2022-03-07T12:31:34.537Z</time>
      </trkpt>
      <trkpt lat="42.41276" lon="24.27279">
        <ele>433.738738</ele>
        <time>2022-03-07T12:31:36.546Z</time>
      </trkpt>
      <trkpt lat="42.41291" lon="24.27286">
        <ele>433.015962</ele>
        <time>2022-03-07T12:31:38.539Z</time>
      </trkpt>
      <trkpt lat="42.41305" lon="24.27295">
        <ele>432.251578</ele>
        <time>2022-03-07T12:31:40.556Z</time>
      </trkpt>
      <trkpt lat="42.4132" lon="24.27304">
        <ele>431.491712</ele>
        <time>2022-03-07T12:31:42.557Z</time>
      </trkpt>
      <trkpt lat="42.41333" lon="24.27313">
        <ele>430.780728</ele>
        <time>2022-03-07T12:31:44.539Z</time>
      </trkpt>
      <trkpt lat="42.41346" lon="24.27322">
        <ele>430.106915</ele>
        <time>2022-03-07T12:31:46.547Z</time>
      </trkpt>
      <trkpt lat="42.41358" lon="24.27331">
        <ele>429.459336</ele>
        <time>2022-03-07T12:31:48.554Z</time>
      </trkpt>
      <trkpt lat="42.4137" lon="24.27339">
        <ele>428.790797</ele>
        <time>2022-03-07T12:31:50.549Z</time>
      </trkpt>
      <trkpt lat="42.41384" lon="24.27349">
        <ele>428.056177</ele>
        <time>2022-03-07T12:31:52.581Z</time>
      </trkpt>
      <trkpt lat="42.41398" lon="24.27358">
        <ele>427.317732</ele>
        <time>2022-03-07T12:31:54.526Z</time>
      </trkpt>
      <trkpt lat="42.41412" lon="24.27366">
        <ele>426.565709</ele>
        <time>2022-03-07T12:31:56.545Z</time>
      </trkpt>
      <trkpt lat="42.41425" lon="24.27371">
        <ele>425.769657</ele>
        <time>2022-03-07T12:31:58.552Z</time>
      </trkpt>
      <trkpt lat="42.41437" lon="24.27371">
        <ele>425.05499</ele>
        <time>2022-03-07T12:32:00.559Z</time>
      </trkpt>
      <trkpt lat="42.41448" lon="24.27368">
        <ele>424.393124</ele>
        <time>2022-03-07T12:32:02.544Z</time>
      </trkpt>
      <trkpt lat="42.41459" lon="24.27361">
        <ele>423.667086</ele>
        <time>2022-03-07T12:32:04.548Z</time>
      </trkpt>
      <trkpt lat="42.4147" lon="24.27351">
        <ele>422.890159</ele>
        <time>2022-03-07T12:32:06.532Z</time>
      </trkpt>
      <trkpt lat="42.41481" lon="24.27341">
        <ele>422.098863</ele>
        <time>2022-03-07T12:32:08.545Z</time>
      </trkpt>
      <trkpt lat="42.41491" lon="24.27332">
        <ele>421.387768</ele>
        <time>2022-03-07T12:32:10.560Z</time>
      </trkpt>
      <trkpt lat="42.41501" lon="24.27323">
        <ele>420.711259</ele>
        <time>2022-03-07T12:32:12.556Z</time>
      </trkpt>
      <trkpt lat="42.4151" lon="24.27314">
        <ele>420.004708</ele>
        <time>2022-03-07T12:32:14.571Z</time>
      </trkpt>
      <trkpt lat="42.4152" lon="24.27304">
        <ele>419.269482</ele>
        <time>2022-03-07T12:32:16.544Z</time>
      </trkpt>
      <trkpt lat="42.41531" lon="24.27294">
        <ele>418.483063</ele>
        <time>2022-03-07T12:32:18.544Z</time>
      </trkpt>
      <trkpt lat="42.41543" lon="24.27283">
        <ele>417.66733</ele>
        <time>2022-03-07T12:32:20.557Z</time>
      </trkpt>
      <trkpt lat="42.41554" lon="24.27273">
        <ele>416.841844</ele>
        <time>2022-03-07T12:32:22.548Z</time>
      </trkpt>
      <trkpt lat="42.41566" lon="24.27262">
        <ele>416.001876</ele>
        <time>2022-03-07T12:32:24.554Z</time>
      </trkpt>
      <trkpt lat="42.41578" lon="24.27253">
        <ele>415.256359</ele>
        <time>2022-03-07T12:32:26.550Z</time>
      </trkpt>
      <trkpt lat="42.41588" lon="24.27244">
        <ele>414.573558</ele>
        <time>2022-03-07T12:32:28.560Z</time>
      </trkpt>
      <trkpt lat="42.41597" lon="24.27237">
        <ele>413.950984</ele>
        <time>2022-03-07T12:32:30.541Z</time>
      </trkpt>
      <trkpt lat="42.41606" lon="24.27229">
        <ele>413.335803</ele>
        <time>2022-03-07T12:32:32.551Z</time>
      </trkpt>
      <trkpt lat="42.41616" lon="24.27221">
        <ele>412.709965</ele>
        <time>2022-03-07T12:32:34.544Z</time>
      </trkpt>
      <trkpt lat="42.41626" lon="24.27215">
        <ele>412.049357</ele>
        <time>2022-03-07T12:32:36.561Z</time>
      </trkpt>
      <trkpt lat="42.41638" lon="24.27207">
        <ele>411.304093</ele>
        <time>2022-03-07T12:32:38.556Z</time>
      </trkpt>
      <trkpt lat="42.41651" lon="24.272">
        <ele>410.548342</ele>
        <time>2022-03-07T12:32:40.547Z</time>
      </trkpt>
      <trkpt lat="42.41662" lon="24.27193">
        <ele>409.825362</ele>
        <time>2022-03-07T12:32:42.578Z</time>
      </trkpt>
      <trkpt lat="42.41673" lon="24.27187">
        <ele>409.164832</ele>
        <time>2022-03-07T12:32:44.546Z</time>
      </trkpt>
      <trkpt lat="42.41683" lon="24.27181">
        <ele>408.519795</ele>
        <time>2022-03-07T12:32:46.554Z</time>
      </trkpt>
      <trkpt lat="42.41694" lon="24.27175">
        <ele>407.867537</ele>
        <time>2022-03-07T12:32:48.548Z</time>
      </trkpt>
      <trkpt lat="42.41705" lon="24.27168">
        <ele>407.177583</ele>
        <time>2022-03-07T12:32:50.557Z</time>
      </trkpt>
      <trkpt lat="42.41717" lon="24.27162">
        <ele>406.452565</ele>
        <time>2022-03-07T12:32:52.547Z</time>
      </trkpt>
      <trkpt lat="42.41729" lon="24.27157">
        <ele>405.799196</ele>
        <time>2022-03-07T12:32:54.540Z</time>
      </trkpt>
      <trkpt lat="42.41743" lon="24.27154">
        <ele>405.251479</ele>
        <time>2022-03-07T12:32:56.540Z</time>
      </trkpt>
      <trkpt lat="42.41756" lon="24.27154">
        <ele>404.752557</ele>
        <time>2022-03-07T12:32:58.550Z</time>
      </trkpt>
      <trkpt lat="42.41767" lon="24.27154">
        <ele>404.281317</ele>
        <time>2022-03-07T12:33:00.553Z</time>
      </trkpt>
      <trkpt lat="42.41779" lon="24.27156">
        <ele>403.804084</ele>
        <time>2022-03-07T12:33:02.536Z</time>
      </trkpt>
      <trkpt lat="42.4179" lon="24.27158">
        <ele>403.37811</ele>
        <time>2022-03-07T12:33:04.595Z</time>
      </trkpt>
      <trkpt lat="42.41799" lon="24.27159">
        <ele>402.992109</ele>
        <time>2022-03-07T12:33:06.553Z</time>
      </trkpt>
      <trkpt lat="42.4181" lon="24.27161">
        <ele>402.585944</ele>
        <time>2022-03-07T12:33:08.541Z</time>
      </trkpt>
      <trkpt lat="42.4182" lon="24.27162">
        <ele>402.176803</ele>
        <time>2022-03-07T12:33:10.547Z</time>
      </trkpt>
      <trkpt lat="42.4183" lon="24.27162">
        <ele>401.765239</ele>
        <time>2022-03-07T12:33:12.556Z</time>
      </trkpt>
      <trkpt lat="42.41839" lon="24.27158">
        <ele>401.376195</ele>
        <time>2022-03-07T12:33:14.551Z</time>
      </trkpt>
      <trkpt lat="42.41849" lon="24.27152">
        <ele>400.944549</ele>
        <time>2022-03-07T12:33:16.537Z</time>
      </trkpt>
      <trkpt lat="42.41859" lon="24.27145">
        <ele>400.496795</ele>
        <time>2022-03-07T12:33:18.538Z</time>
      </trkpt>
      <trkpt lat="42.41869" lon="24.27136">
        <ele>400.021938</ele>
        <time>2022-03-07T12:33:20.543Z</time>
      </trkpt>
      <trkpt lat="42.4188" lon="24.27128">
        <ele>399.537205</ele>
        <time>2022-03-07T12:33:22.540Z</time>
      </trkpt>
      <trkpt lat="42.4189" lon="24.27119">
        <ele>399.031175</ele>
        <time>2022-03-07T12:33:24.545Z</time>
      </trkpt>
      <trkpt lat="42.41901" lon="24.2711">
        <ele>398.557326</ele>
        <time>2022-03-07T12:33:26.550Z</time>
      </trkpt>
      <trkpt lat="42.41912" lon="24.27102">
        <ele>398.106206</ele>
        <time>2022-03-07T12:33:28.555Z</time>
      </trkpt>
      <trkpt lat="42.41921" lon="24.27093">
        <ele>397.686578</ele>
        <time>2022-03-07T12:33:30.579Z</time>
      </trkpt>
      <trkpt lat="42.41931" lon="24.27084">
        <ele>397.259198</ele>
        <time>2022-03-07T12:33:32.575Z</time>
      </trkpt>
      <trkpt lat="42.4194" lon="24.27076">
        <ele>396.851571</ele>
        <time>2022-03-07T12:33:34.546Z</time>
      </trkpt>
      <trkpt lat="42.4195" lon="24.27067">
        <ele>396.396651</ele>
        <time>2022-03-07T12:33:36.542Z</time>
      </trkpt>
      <trkpt lat="42.4196" lon="24.27058">
        <ele>395.948714</ele>
        <time>2022-03-07T12:33:38.549Z</time>
      </trkpt>
      <trkpt lat="42.41971" lon="24.27048">
        <ele>395.455459</ele>
        <time>2022-03-07T12:33:40.549Z</time>
      </trkpt>
      <trkpt lat="42.41983" lon="24.2704">
        <ele>394.97967</ele>
        <time>2022-03-07T12:33:42.555Z</time>
      </trkpt>
      <trkpt lat="42.41994" lon="24.27031">
        <ele>394.505675</ele>
        <time>2022-03-07T12:33:44.546Z</time>
      </trkpt>
      <trkpt lat="42.42005" lon="24.27021">
        <ele>394.013678</ele>
        <time>2022-03-07T12:33:46.537Z</time>
      </trkpt>
      <trkpt lat="42.42017" lon="24.27011">
        <ele>393.481207</ele>
        <time>2022-03-07T12:33:48.555Z</time>
      </trkpt>
      <trkpt lat="42.4203" lon="24.27">
        <ele>392.93273</ele>
        <time>2022-03-07T12:33:50.547Z</time>
      </trkpt>
      <trkpt lat="42.42042" lon="24.2699">
        <ele>392.388309</ele>
        <time>2022-03-07T12:33:52.545Z</time>
      </trkpt>
      <trkpt lat="42.42056" lon="24.2698">
        <ele>391.98942</ele>
        <time>2022-03-07T12:33:54.585Z</time>
      </trkpt>
      <trkpt lat="42.42069" lon="24.26969">
        <ele>391.674674</ele>
        <time>2022-03-07T12:33:56.535Z</time>
      </trkpt>
      <trkpt lat="42.42082" lon="24.26959">
        <ele>391.35735</ele>
        <time>2022-03-07T12:33:58.542Z</time>
      </trkpt>
      <trkpt lat="42.42095" lon="24.26948">
        <ele>391.037448</ele>
        <time>2022-03-07T12:34:00.552Z</time>
      </trkpt>
      <trkpt lat="42.42108" lon="24.26938">
        <ele>390.723074</ele>
        <time>2022-03-07T12:34:02.532Z</time>
      </trkpt>
      <trkpt lat="42.42121" lon="24.26926">
        <ele>390.406235</ele>
        <time>2022-03-07T12:34:04.554Z</time>
      </trkpt>
      <trkpt lat="42.42134" lon="24.26916">
        <ele>390.087333</ele>
        <time>2022-03-07T12:34:06.557Z</time>
      </trkpt>
      <trkpt lat="42.42146" lon="24.26905">
        <ele>389.780709</ele>
        <time>2022-03-07T12:34:08.561Z</time>
      </trkpt>
      <trkpt lat="42.42159" lon="24.26895">
        <ele>389.468919</ele>
        <time>2022-03-07T12:34:10.548Z</time>
      </trkpt>
      <trkpt lat="42.42171" lon="24.26884">
        <ele>389.170177</ele>
        <time>2022-03-07T12:34:12.555Z</time>
      </trkpt>
      <trkpt lat="42.42183" lon="24.26874">
        <ele>388.870325</ele>
        <time>2022-03-07T12:34:14.538Z</time>
      </trkpt>
      <trkpt lat="42.42195" lon="24.26865">
        <ele>388.583919</ele>
        <time>2022-03-07T12:34:16.575Z</time>
      </trkpt>
      <trkpt lat="42.42207" lon="24.26855">
        <ele>388.529618</ele>
        <time>2022-03-07T12:34:18.547Z</time>
      </trkpt>
      <trkpt lat="42.42218" lon="24.26845">
        <ele>388.65524</ele>
        <time>2022-03-07T12:34:20.556Z</time>
      </trkpt>
      <trkpt lat="42.42228" lon="24.26834">
        <ele>388.777353</ele>
        <time>2022-03-07T12:34:22.547Z</time>
      </trkpt>
      <trkpt lat="42.42237" lon="24.26821">
        <ele>388.897891</ele>
        <time>2022-03-07T12:34:24.549Z</time>
      </trkpt>
      <trkpt lat="42.42244" lon="24.26808">
        <ele>389.015797</ele>
        <time>2022-03-07T12:34:26.551Z</time>
      </trkpt>
      <trkpt lat="42.42252" lon="24.26793">
        <ele>389.139874</ele>
        <time>2022-03-07T12:34:28.560Z</time>
      </trkpt>
      <trkpt lat="42.4226" lon="24.2678">
        <ele>389.260034</ele>
        <time>2022-03-07T12:34:30.554Z</time>
      </trkpt>
      <trkpt lat="42.42267" lon="24.26767">
        <ele>389.376346</ele>
        <time>2022-03-07T12:34:32.533Z</time>
      </trkpt>
      <trkpt lat="42.42274" lon="24.26755">
        <ele>389.483121</ele>
        <time>2022-03-07T12:34:34.544Z</time>
      </trkpt>
      <trkpt lat="42.42281" lon="24.26744">
        <ele>389.583853</ele>
        <time>2022-03-07T12:34:36.557Z</time>
      </trkpt>
      <trkpt lat="42.42288" lon="24.26733">
        <ele>389.679326</ele>
        <time>2022-03-07T12:34:38.554Z</time>
      </trkpt>
      <trkpt lat="42.42293" lon="24.26723">
        <ele>389.766918</ele>
        <time>2022-03-07T12:34:40.548Z</time>
      </trkpt>
      <trkpt lat="42.423" lon="24.2671">
        <ele>389.879244</ele>
        <time>2022-03-07T12:34:43.585Z</time>
      </trkpt>
      <trkpt lat="42.42306" lon="24.26698">
        <ele>389.980918</ele>
        <time>2022-03-07T12:34:46.550Z</time>
      </trkpt>
      <trkpt lat="42.42313" lon="24.26687">
        <ele>390.080436</ele>
        <time>2022-03-07T12:34:49.539Z</time>
      </trkpt>
      <trkpt lat="42.42319" lon="24.26676">
        <ele>390.16186</ele>
        <time>2022-03-07T12:34:52.541Z</time>
      </trkpt>
      <trkpt lat="42.42325" lon="24.26665">
        <ele>390.187011</ele>
        <time>2022-03-07T12:34:55.550Z</time>
      </trkpt>
      <trkpt lat="42.42331" lon="24.26654">
        <ele>390.211581</ele>
        <time>2022-03-07T12:34:58.531Z</time>
      </trkpt>
      <trkpt lat="42.42338" lon="24.26642">
        <ele>390.237872</ele>
        <time>2022-03-07T12:35:01.556Z</time>
      </trkpt>
      <trkpt lat="42.42345" lon="24.2663">
        <ele>390.265776</ele>
        <time>2022-03-07T12:35:04.551Z</time>
      </trkpt>
      <trkpt lat="42.42353" lon="24.26617">
        <ele>390.295415</ele>
        <time>2022-03-07T12:35:07.560Z</time>
      </trkpt>
      <trkpt lat="42.4236" lon="24.26604">
        <ele>390.324728</ele>
        <time>2022-03-07T12:35:10.578Z</time>
      </trkpt>
      <trkpt lat="42.42368" lon="24.26589">
        <ele>390.357493</ele>
        <time>2022-03-07T12:35:13.562Z</time>
      </trkpt>
      <trkpt lat="42.42373" lon="24.26579">
        <ele>390.379628</ele>
        <time>2022-03-07T12:35:15.546Z</time>
      </trkpt>
      <trkpt lat="42.42378" lon="24.26569">
        <ele>390.401641</ele>
        <time>2022-03-07T12:35:17.547Z</time>
      </trkpt>
      <trkpt lat="42.42384" lon="24.26558">
        <ele>390.42523</ele>
        <time>2022-03-07T12:35:19.541Z</time>
      </trkpt>
      <trkpt lat="42.42389" lon="24.26547">
        <ele>390.448806</ele>
        <time>2022-03-07T12:35:21.634Z</time>
      </trkpt>
      <trkpt lat="42.42395" lon="24.26536">
        <ele>390.472814</ele>
        <time>2022-03-07T12:35:23.543Z</time>
      </trkpt>
      <trkpt lat="42.424" lon="24.26524">
        <ele>390.496744</ele>
        <time>2022-03-07T12:35:25.537Z</time>
      </trkpt>
      <trkpt lat="42.42406" lon="24.26513">
        <ele>390.521627</ele>
        <time>2022-03-07T12:35:27.551Z</time>
      </trkpt>
      <trkpt lat="42.42411" lon="24.265">
        <ele>390.546904</ele>
        <time>2022-03-07T12:35:29.554Z</time>
      </trkpt>
      <trkpt lat="42.42416" lon="24.26489">
        <ele>390.57065</ele>
        <time>2022-03-07T12:35:31.551Z</time>
      </trkpt>
      <trkpt lat="42.4242" lon="24.26478">
        <ele>390.598828</ele>
        <time>2022-03-07T12:35:33.558Z</time>
      </trkpt>
      <trkpt lat="42.42424" lon="24.26466">
        <ele>390.736762</ele>
        <time>2022-03-07T12:35:35.550Z</time>
      </trkpt>
      <trkpt lat="42.42426" lon="24.26454">
        <ele>390.877782</ele>
        <time>2022-03-07T12:35:37.563Z</time>
      </trkpt>
      <trkpt lat="42.42428" lon="24.26438">
        <ele>391.062932</ele>
        <time>2022-03-07T12:35:40.553Z</time>
      </trkpt>
      <trkpt lat="42.4243" lon="24.26424">
        <ele>391.222973</ele>
        <time>2022-03-07T12:35:43.586Z</time>
      </trkpt>
      <trkpt lat="42.42432" lon="24.2641">
        <ele>391.382211</ele>
        <time>2022-03-07T12:35:46.556Z</time>
      </trkpt>
      <trkpt lat="42.42434" lon="24.26396">
        <ele>391.540597</ele>
        <time>2022-03-07T12:35:49.568Z</time>
      </trkpt>
      <trkpt lat="42.42435" lon="24.26383">
        <ele>391.689522</ele>
        <time>2022-03-07T12:35:52.553Z</time>
      </trkpt>
      <trkpt lat="42.42436" lon="24.26367">
        <ele>391.864064</ele>
        <time>2022-03-07T12:35:56.562Z</time>
      </trkpt>
      <trkpt lat="42.42438" lon="24.26355">
        <ele>392.006999</ele>
        <time>2022-03-07T12:35:59.545Z</time>
      </trkpt>
      <trkpt lat="42.42439" lon="24.26343">
        <ele>392.144336</ele>
        <time>2022-03-07T12:36:02.546Z</time>
      </trkpt>
      <trkpt lat="42.4244" lon="24.26328">
        <ele>392.310685</ele>
        <time>2022-03-07T12:36:06.561Z</time>
      </trkpt>
      <trkpt lat="42.42441" lon="24.26315">
        <ele>392.456428</ele>
        <time>2022-03-07T12:36:10.543Z</time>
      </trkpt>
      <trkpt lat="42.42442" lon="24.263">
        <ele>392.621585</ele>
        <time>2022-03-07T12:36:16.557Z</time>
      </trkpt>
      <trkpt lat="42.42444" lon="24.26287">
        <ele>392.778364</ele>
        <time>2022-03-07T12:36:21.557Z</time>
      </trkpt>
      <trkpt lat="42.42445" lon="24.26274">
        <ele>392.923821</ele>
        <time>2022-03-07T12:36:26.553Z</time>
      </trkpt>
      <trkpt lat="42.42446" lon="24.26262">
        <ele>393.060842</ele>
        <time>2022-03-07T12:36:31.536Z</time>
      </trkpt>
      <trkpt lat="42.42446" lon="24.26249">
        <ele>393.2045</ele>
        <time>2022-03-07T12:36:36.558Z</time>
      </trkpt>
      <trkpt lat="42.42447" lon="24.26237">
        <ele>393.415246</ele>
        <time>2022-03-07T12:36:41.569Z</time>
      </trkpt>
      <trkpt lat="42.42447" lon="24.26224">
        <ele>394.1175</ele>
        <time>2022-03-07T12:36:46.559Z</time>
      </trkpt>
      <trkpt lat="42.42446" lon="24.2621">
        <ele>394.950319</ele>
        <time>2022-03-07T12:36:52.558Z</time>
      </trkpt>
      <trkpt lat="42.42446" lon="24.26196">
        <ele>395.750782</ele>
        <time>2022-03-07T12:36:58.537Z</time>
      </trkpt>
      <trkpt lat="42.42447" lon="24.26183">
        <ele>396.499377</ele>
        <time>2022-03-07T12:37:04.548Z</time>
      </trkpt>
      <trkpt lat="42.42447" lon="24.26171">
        <ele>397.235758</ele>
        <time>2022-03-07T12:37:10.563Z</time>
      </trkpt>
      <trkpt lat="42.42447" lon="24.26159">
        <ele>397.943282</ele>
        <time>2022-03-07T12:37:16.553Z</time>
      </trkpt>
      <trkpt lat="42.42446" lon="24.26146">
        <ele>398.669556</ele>
        <time>2022-03-07T12:37:22.548Z</time>
      </trkpt>
      <trkpt lat="42.42446" lon="24.26134">
        <ele>399.376905</ele>
        <time>2022-03-07T12:37:28.555Z</time>
      </trkpt>
      <trkpt lat="42.42446" lon="24.26121">
        <ele>400.102329</ele>
        <time>2022-03-07T12:37:34.543Z</time>
      </trkpt>
      <trkpt lat="42.42448" lon="24.26108">
        <ele>400.890899</ele>
        <time>2022-03-07T12:37:41.583Z</time>
      </trkpt>
      <trkpt lat="42.4245" lon="24.26095">
        <ele>401.644953</ele>
        <time>2022-03-07T12:37:48.546Z</time>
      </trkpt>
      <trkpt lat="42.42452" lon="24.26082">
        <ele>402.431976</ele>
        <time>2022-03-07T12:37:56.543Z</time>
      </trkpt>
      <trkpt lat="42.42453" lon="24.26069">
        <ele>403.168916</ele>
        <time>2022-03-07T12:38:03.569Z</time>
      </trkpt>
      <trkpt lat="42.42455" lon="24.26057">
        <ele>403.920225</ele>
        <time>2022-03-07T12:38:10.571Z</time>
      </trkpt>
      <trkpt lat="42.42457" lon="24.26043">
        <ele>404.725873</ele>
        <time>2022-03-07T12:38:18.553Z</time>
      </trkpt>
      <trkpt lat="42.42458" lon="24.26031">
        <ele>405.447447</ele>
        <time>2022-03-07T12:38:24.553Z</time>
      </trkpt>
      <trkpt lat="42.4246" lon="24.26017">
        <ele>406.254678</ele>
        <time>2022-03-07T12:38:31.555Z</time>
      </trkpt>
      <trkpt lat="42.42463" lon="24.26005">
        <ele>406.996488</ele>
        <time>2022-03-07T12:38:37.543Z</time>
      </trkpt>
      <trkpt lat="42.42465" lon="24.25992">
        <ele>407.55723</ele>
        <time>2022-03-07T12:38:43.592Z</time>
      </trkpt>
      <trkpt lat="42.42467" lon="24.25978">
        <ele>407.841995</ele>
        <time>2022-03-07T12:38:49.546Z</time>
      </trkpt>
      <trkpt lat="42.42469" lon="24.25964">
        <ele>408.11081</ele>
        <time>2022-03-07T12:38:55.549Z</time>
      </trkpt>
      <trkpt lat="42.42471" lon="24.25951">
        <ele>408.381419</ele>
        <time>2022-03-07T12:39:01.555Z</time>
      </trkpt>
      <trkpt lat="42.42474" lon="24.25937">
        <ele>408.668811</ele>
        <time>2022-03-07T12:39:07.554Z</time>
      </trkpt>
      <trkpt lat="42.42476" lon="24.25925">
        <ele>408.917029</ele>
        <time>2022-03-07T12:39:12.558Z</time>
      </trkpt>
      <trkpt lat="42.42478" lon="24.25912">
        <ele>409.172331</ele>
        <time>2022-03-07T12:39:17.554Z</time>
      </trkpt>
      <trkpt lat="42.42481" lon="24.25899">
        <ele>409.442351</ele>
        <time>2022-03-07T12:39:22.595Z</time>
      </trkpt>
      <trkpt lat="42.42483" lon="24.25885">
        <ele>409.718723</ele>
        <time>2022-03-07T12:39:27.564Z</time>
      </trkpt>
      <trkpt lat="42.42486" lon="24.25871">
        <ele>410.008018</ele>
        <time>2022-03-07T12:39:32.559Z</time>
      </trkpt>
      <trkpt lat="42.42488" lon="24.25858">
        <ele>410.285125</ele>
        <time>2022-03-07T12:39:37.547Z</time>
      </trkpt>
      <trkpt lat="42.42491" lon="24.25845">
        <ele>410.550881</ele>
        <time>2022-03-07T12:39:42.554Z</time>
      </trkpt>
      <trkpt lat="42.42494" lon="24.25831">
        <ele>410.826873</ele>
        <time>2022-03-07T12:39:47.601Z</time>
      </trkpt>
      <trkpt lat="42.42497" lon="24.25818">
        <ele>411.105798</ele>
        <time>2022-03-07T12:39:52.556Z</time>
      </trkpt>
      <trkpt lat="42.42498" lon="24.25803">
        <ele>411.395567</ele>
        <time>2022-03-07T12:39:57.538Z</time>
      </trkpt>
      <trkpt lat="42.42501" lon="24.25791">
        <ele>411.640104</ele>
        <time>2022-03-07T12:40:01.554Z</time>
      </trkpt>
      <trkpt lat="42.42503" lon="24.25778">
        <ele>411.915279</ele>
        <time>2022-03-07T12:40:06.538Z</time>
      </trkpt>
      <trkpt lat="42.42505" lon="24.25765">
        <ele>412.165052</ele>
        <time>2022-03-07T12:40:11.531Z</time>
      </trkpt>
      <trkpt lat="42.42507" lon="24.25751">
        <ele>412.37826</ele>
        <time>2022-03-07T12:40:16.565Z</time>
      </trkpt>
      <trkpt lat="42.42509" lon="24.25736">
        <ele>412.549709</ele>
        <time>2022-03-07T12:40:21.577Z</time>
      </trkpt>
      <trkpt lat="42.42511" lon="24.25722">
        <ele>412.713127</ele>
        <time>2022-03-07T12:40:26.538Z</time>
      </trkpt>
      <trkpt lat="42.42513" lon="24.25708">
        <ele>412.878444</ele>
        <time>2022-03-07T12:40:31.549Z</time>
      </trkpt>
      <trkpt lat="42.42516" lon="24.25695">
        <ele>413.042607</ele>
        <time>2022-03-07T12:40:35.538Z</time>
      </trkpt>
      <trkpt lat="42.42518" lon="24.2568">
        <ele>413.208719</ele>
        <time>2022-03-07T12:40:39.545Z</time>
      </trkpt>
      <trkpt lat="42.4252" lon="24.25666">
        <ele>413.375345</ele>
        <time>2022-03-07T12:40:43.564Z</time>
      </trkpt>
      <trkpt lat="42.42522" lon="24.25651">
        <ele>413.55193</ele>
        <time>2022-03-07T12:40:47.577Z</time>
      </trkpt>
      <trkpt lat="42.42524" lon="24.25639">
        <ele>413.698229</ele>
        <time>2022-03-07T12:40:50.563Z</time>
      </trkpt>
      <trkpt lat="42.42526" lon="24.25626">
        <ele>413.84533</ele>
        <time>2022-03-07T12:40:53.542Z</time>
      </trkpt>
      <trkpt lat="42.42528" lon="24.25613">
        <ele>413.997505</ele>
        <time>2022-03-07T12:40:56.559Z</time>
      </trkpt>
      <trkpt lat="42.4253" lon="24.256">
        <ele>414.150815</ele>
        <time>2022-03-07T12:40:59.578Z</time>
      </trkpt>
      <trkpt lat="42.42532" lon="24.25587">
        <ele>414.310356</ele>
        <time>2022-03-07T12:41:02.557Z</time>
      </trkpt>
      <trkpt lat="42.42534" lon="24.25571">
        <ele>414.48805</ele>
        <time>2022-03-07T12:41:05.544Z</time>
      </trkpt>
      <trkpt lat="42.42537" lon="24.25555">
        <ele>414.688397</ele>
        <time>2022-03-07T12:41:08.556Z</time>
      </trkpt>
      <trkpt lat="42.4254" lon="24.25537">
        <ele>414.892108</ele>
        <time>2022-03-07T12:41:11.566Z</time>
      </trkpt>
      <trkpt lat="42.42541" lon="24.25519">
        <ele>415.061577</ele>
        <time>2022-03-07T12:41:14.575Z</time>
      </trkpt>
      <trkpt lat="42.42543" lon="24.25507">
        <ele>414.96621</ele>
        <time>2022-03-07T12:41:16.544Z</time>
      </trkpt>
      <trkpt lat="42.42545" lon="24.2549">
        <ele>414.832004</ele>
        <time>2022-03-07T12:41:19.527Z</time>
      </trkpt>
      <trkpt lat="42.42549" lon="24.25473">
        <ele>414.696701</ele>
        <time>2022-03-07T12:41:22.545Z</time>
      </trkpt>
      <trkpt lat="42.42553" lon="24.25456">
        <ele>414.555467</ele>
        <time>2022-03-07T12:41:25.591Z</time>
      </trkpt>
      <trkpt lat="42.42556" lon="24.25439">
        <ele>414.418992</ele>
        <time>2022-03-07T12:41:28.555Z</time>
      </trkpt>
      <trkpt lat="42.42558" lon="24.25422">
        <ele>414.288312</ele>
        <time>2022-03-07T12:41:31.565Z</time>
      </trkpt>
      <trkpt lat="42.4256" lon="24.25407">
        <ele>414.166391</ele>
        <time>2022-03-07T12:41:34.546Z</time>
      </trkpt>
      <trkpt lat="42.42562" lon="24.25393">
        <ele>414.057985</ele>
        <time>2022-03-07T12:41:37.602Z</time>
      </trkpt>
      <trkpt lat="42.42563" lon="24.2538">
        <ele>413.957579</ele>
        <time>2022-03-07T12:41:40.547Z</time>
      </trkpt>
      <trkpt lat="42.42565" lon="24.25366">
        <ele>413.845178</ele>
        <time>2022-03-07T12:41:43.539Z</time>
      </trkpt>
      <trkpt lat="42.42567" lon="24.2535">
        <ele>413.722669</ele>
        <time>2022-03-07T12:41:46.548Z</time>
      </trkpt>
      <trkpt lat="42.42569" lon="24.25336">
        <ele>413.60874</ele>
        <time>2022-03-07T12:41:49.545Z</time>
      </trkpt>
      <trkpt lat="42.42571" lon="24.25322">
        <ele>413.49825</ele>
        <time>2022-03-07T12:41:52.565Z</time>
      </trkpt>
      <trkpt lat="42.42573" lon="24.25306">
        <ele>413.372143</ele>
        <time>2022-03-07T12:41:56.547Z</time>
      </trkpt>
      <trkpt lat="42.42575" lon="24.25293">
        <ele>413.272497</ele>
        <time>2022-03-07T12:41:59.546Z</time>
      </trkpt>
      <trkpt lat="42.42577" lon="24.25281">
        <ele>413.186776</ele>
        <time>2022-03-07T12:42:02.559Z</time>
      </trkpt>
      <trkpt lat="42.4258" lon="24.25265">
        <ele>413.16063</ele>
        <time>2022-03-07T12:42:06.563Z</time>
      </trkpt>
      <trkpt lat="42.42582" lon="24.25251">
        <ele>413.135832</ele>
        <time>2022-03-07T12:42:10.556Z</time>
      </trkpt>
      <trkpt lat="42.42586" lon="24.25236">
        <ele>413.110403</ele>
        <time>2022-03-07T12:42:14.538Z</time>
      </trkpt>
      <trkpt lat="42.42589" lon="24.25223">
        <ele>413.086653</ele>
        <time>2022-03-07T12:42:18.565Z</time>
      </trkpt>
      <trkpt lat="42.42593" lon="24.2521">
        <ele>413.063915</ele>
        <time>2022-03-07T12:42:22.551Z</time>
      </trkpt>
      <trkpt lat="42.42596" lon="24.25196">
        <ele>413.039825</ele>
        <time>2022-03-07T12:42:26.605Z</time>
      </trkpt>
      <trkpt lat="42.426" lon="24.25183">
        <ele>413.015682</ele>
        <time>2022-03-07T12:42:30.539Z</time>
      </trkpt>
      <trkpt lat="42.42605" lon="24.25168">
        <ele>412.988482</ele>
        <time>2022-03-07T12:42:34.542Z</time>
      </trkpt>
      <trkpt lat="42.4261" lon="24.25157">
        <ele>412.967013</ele>
        <time>2022-03-07T12:42:37.583Z</time>
      </trkpt>
      <trkpt lat="42.42615" lon="24.25144">
        <ele>412.941716</ele>
        <time>2022-03-07T12:42:40.537Z</time>
      </trkpt>
      <trkpt lat="42.4262" lon="24.25129">
        <ele>412.915515</ele>
        <time>2022-03-07T12:42:43.582Z</time>
      </trkpt>
      <trkpt lat="42.42626" lon="24.25113">
        <ele>412.885875</ele>
        <time>2022-03-07T12:42:46.549Z</time>
      </trkpt>
      <trkpt lat="42.4263" lon="24.25101">
        <ele>412.863859</ele>
        <time>2022-03-07T12:42:48.560Z</time>
      </trkpt>
      <trkpt lat="42.42635" lon="24.25089">
        <ele>412.839742</ele>
        <time>2022-03-07T12:42:50.553Z</time>
      </trkpt>
      <trkpt lat="42.4264" lon="24.25076">
        <ele>412.816082</ele>
        <time>2022-03-07T12:42:52.542Z</time>
      </trkpt>
      <trkpt lat="42.42646" lon="24.25061">
        <ele>412.788534</ele>
        <time>2022-03-07T12:42:54.583Z</time>
      </trkpt>
      <trkpt lat="42.42651" lon="24.25047">
        <ele>412.449326</ele>
        <time>2022-03-07T12:42:56.559Z</time>
      </trkpt>
      <trkpt lat="42.42657" lon="24.25032">
        <ele>412.056255</ele>
        <time>2022-03-07T12:42:58.550Z</time>
      </trkpt>
      <trkpt lat="42.42663" lon="24.25016">
        <ele>411.6485</ele>
        <time>2022-03-07T12:43:00.556Z</time>
      </trkpt>
      <trkpt lat="42.42668" lon="24.25001">
        <ele>411.246381</ele>
        <time>2022-03-07T12:43:02.586Z</time>
      </trkpt>
      <trkpt lat="42.42674" lon="24.24987">
        <ele>410.874027</ele>
        <time>2022-03-07T12:43:04.549Z</time>
      </trkpt>
      <trkpt lat="42.42679" lon="24.24973">
        <ele>410.500596</ele>
        <time>2022-03-07T12:43:06.575Z</time>
      </trkpt>
      <trkpt lat="42.42685" lon="24.24959">
        <ele>410.121715</ele>
        <time>2022-03-07T12:43:08.562Z</time>
      </trkpt>
      <trkpt lat="42.4269" lon="24.24944">
        <ele>409.7414</ele>
        <time>2022-03-07T12:43:10.539Z</time>
      </trkpt>
      <trkpt lat="42.42695" lon="24.2493">
        <ele>409.370924</ele>
        <time>2022-03-07T12:43:12.554Z</time>
      </trkpt>
      <trkpt lat="42.42701" lon="24.24916">
        <ele>408.99333</ele>
        <time>2022-03-07T12:43:14.559Z</time>
      </trkpt>
      <trkpt lat="42.42706" lon="24.24902">
        <ele>408.622195</ele>
        <time>2022-03-07T12:43:16.587Z</time>
      </trkpt>
      <trkpt lat="42.42712" lon="24.24888">
        <ele>408.248766</ele>
        <time>2022-03-07T12:43:18.555Z</time>
      </trkpt>
      <trkpt lat="42.42717" lon="24.24874">
        <ele>407.881159</ele>
        <time>2022-03-07T12:43:20.595Z</time>
      </trkpt>
      <trkpt lat="42.42722" lon="24.24861">
        <ele>407.525513</ele>
        <time>2022-03-07T12:43:22.581Z</time>
      </trkpt>
      <trkpt lat="42.42727" lon="24.24848">
        <ele>407.185356</ele>
        <time>2022-03-07T12:43:24.557Z</time>
      </trkpt>
      <trkpt lat="42.42731" lon="24.24835">
        <ele>406.986975</ele>
        <time>2022-03-07T12:43:26.562Z</time>
      </trkpt>
      <trkpt lat="42.42735" lon="24.24824">
        <ele>406.88635</ele>
        <time>2022-03-07T12:43:28.538Z</time>
      </trkpt>
      <trkpt lat="42.4274" lon="24.24812">
        <ele>406.789171</ele>
        <time>2022-03-07T12:43:30.543Z</time>
      </trkpt>
      <trkpt lat="42.42744" lon="24.24801">
        <ele>406.69291</ele>
        <time>2022-03-07T12:43:32.574Z</time>
      </trkpt>
      <trkpt lat="42.42747" lon="24.2479">
        <ele>406.59753</ele>
        <time>2022-03-07T12:43:34.561Z</time>
      </trkpt>
      <trkpt lat="42.42751" lon="24.24778">
        <ele>406.501451</ele>
        <time>2022-03-07T12:43:36.550Z</time>
      </trkpt>
      <trkpt lat="42.42755" lon="24.24767">
        <ele>406.402143</ele>
        <time>2022-03-07T12:43:38.559Z</time>
      </trkpt>
      <trkpt lat="42.42759" lon="24.24755">
        <ele>406.302134</ele>
        <time>2022-03-07T12:43:40.544Z</time>
      </trkpt>
      <trkpt lat="42.42763" lon="24.24743">
        <ele>406.202201</ele>
        <time>2022-03-07T12:43:42.543Z</time>
      </trkpt>
      <trkpt lat="42.42768" lon="24.24731">
        <ele>406.097177</ele>
        <time>2022-03-07T12:43:44.578Z</time>
      </trkpt>
      <trkpt lat="42.42772" lon="24.24719">
        <ele>405.99586</ele>
        <time>2022-03-07T12:43:46.548Z</time>
      </trkpt>
      <trkpt lat="42.42777" lon="24.24707">
        <ele>405.891515</ele>
        <time>2022-03-07T12:43:48.551Z</time>
      </trkpt>
      <trkpt lat="42.42782" lon="24.24694">
        <ele>405.78231</ele>
        <time>2022-03-07T12:43:50.564Z</time>
      </trkpt>
      <trkpt lat="42.42787" lon="24.24682">
        <ele>405.673598</ele>
        <time>2022-03-07T12:43:52.556Z</time>
      </trkpt>
      <trkpt lat="42.42791" lon="24.24669">
        <ele>405.564474</ele>
        <time>2022-03-07T12:43:54.558Z</time>
      </trkpt>
      <trkpt lat="42.42796" lon="24.24656">
        <ele>405.453039</ele>
        <time>2022-03-07T12:43:56.535Z</time>
      </trkpt>
      <trkpt lat="42.42801" lon="24.24643">
        <ele>405.334027</ele>
        <time>2022-03-07T12:43:58.540Z</time>
      </trkpt>
      <trkpt lat="42.42807" lon="24.24628">
        <ele>405.213421</ele>
        <time>2022-03-07T12:44:00.555Z</time>
      </trkpt>
      <trkpt lat="42.42812" lon="24.24614">
        <ele>405.059574</ele>
        <time>2022-03-07T12:44:02.558Z</time>
      </trkpt>
      <trkpt lat="42.42817" lon="24.24599">
        <ele>404.885774</ele>
        <time>2022-03-07T12:44:04.551Z</time>
      </trkpt>
      <trkpt lat="42.42823" lon="24.24584">
        <ele>404.70502</ele>
        <time>2022-03-07T12:44:06.559Z</time>
      </trkpt>
      <trkpt lat="42.42828" lon="24.24569">
        <ele>404.521414</ele>
        <time>2022-03-07T12:44:08.556Z</time>
      </trkpt>
      <trkpt lat="42.42834" lon="24.24553">
        <ele>404.337504</ele>
        <time>2022-03-07T12:44:10.555Z</time>
      </trkpt>
      <trkpt lat="42.4284" lon="24.24537">
        <ele>404.153246</ele>
        <time>2022-03-07T12:44:12.544Z</time>
      </trkpt>
      <trkpt lat="42.42846" lon="24.24522">
        <ele>403.9718</ele>
        <time>2022-03-07T12:44:14.546Z</time>
      </trkpt>
      <trkpt lat="42.42852" lon="24.24507">
        <ele>403.785008</ele>
        <time>2022-03-07T12:44:16.544Z</time>
      </trkpt>
      <trkpt lat="42.42858" lon="24.24492">
        <ele>403.606757</ele>
        <time>2022-03-07T12:44:18.585Z</time>
      </trkpt>
      <trkpt lat="42.42863" lon="24.24477">
        <ele>403.438262</ele>
        <time>2022-03-07T12:44:20.561Z</time>
      </trkpt>
      <trkpt lat="42.42869" lon="24.24464">
        <ele>403.273492</ele>
        <time>2022-03-07T12:44:22.596Z</time>
      </trkpt>
      <trkpt lat="42.42874" lon="24.2445">
        <ele>403.113542</ele>
        <time>2022-03-07T12:44:24.550Z</time>
      </trkpt>
      <trkpt lat="42.42878" lon="24.24438">
        <ele>402.965654</ele>
        <time>2022-03-07T12:44:26.535Z</time>
      </trkpt>
      <trkpt lat="42.42882" lon="24.24426">
        <ele>402.835045</ele>
        <time>2022-03-07T12:44:28.547Z</time>
      </trkpt>
      <trkpt lat="42.42889" lon="24.24411">
        <ele>402.643935</ele>
        <time>2022-03-07T12:44:31.545Z</time>
      </trkpt>
      <trkpt lat="42.42895" lon="24.24395">
        <ele>402.889838</ele>
        <time>2022-03-07T12:44:34.539Z</time>
      </trkpt>
      <trkpt lat="42.429" lon="24.24379">
        <ele>403.251043</ele>
        <time>2022-03-07T12:44:37.567Z</time>
      </trkpt>
      <trkpt lat="42.42906" lon="24.24364">
        <ele>403.599883</ele>
        <time>2022-03-07T12:44:40.539Z</time>
      </trkpt>
      <trkpt lat="42.42911" lon="24.2435">
        <ele>403.934933</ele>
        <time>2022-03-07T12:44:43.548Z</time>
      </trkpt>
      <trkpt lat="42.42916" lon="24.24335">
        <ele>404.269634</ele>
        <time>2022-03-07T12:44:46.605Z</time>
      </trkpt>
      <trkpt lat="42.42922" lon="24.2432">
        <ele>404.627182</ele>
        <time>2022-03-07T12:44:49.542Z</time>
      </trkpt>
      <trkpt lat="42.42927" lon="24.24305">
        <ele>404.974684</ele>
        <time>2022-03-07T12:44:52.552Z</time>
      </trkpt>
      <trkpt lat="42.42933" lon="24.2429">
        <ele>405.331763</ele>
        <time>2022-03-07T12:44:55.603Z</time>
      </trkpt>
      <trkpt lat="42.4294" lon="24.24276">
        <ele>405.67998</ele>
        <time>2022-03-07T12:44:58.554Z</time>
      </trkpt>
      <trkpt lat="42.42947" lon="24.24261">
        <ele>406.047042</ele>
        <time>2022-03-07T12:45:01.551Z</time>
      </trkpt>
      <trkpt lat="42.42953" lon="24.24251">
        <ele>406.311739</ele>
        <time>2022-03-07T12:45:03.563Z</time>
      </trkpt>
      <trkpt lat="42.42959" lon="24.24241">
        <ele>406.579791</ele>
        <time>2022-03-07T12:45:05.542Z</time>
      </trkpt>
      <trkpt lat="42.42965" lon="24.2423">
        <ele>406.853004</ele>
        <time>2022-03-07T12:45:07.549Z</time>
      </trkpt>
      <trkpt lat="42.4297" lon="24.2422">
        <ele>407.114371</ele>
        <time>2022-03-07T12:45:09.557Z</time>
      </trkpt>
      <trkpt lat="42.42976" lon="24.2421">
        <ele>407.375737</ele>
        <time>2022-03-07T12:45:11.557Z</time>
      </trkpt>
      <trkpt lat="42.42981" lon="24.242">
        <ele>407.640443</ele>
        <time>2022-03-07T12:45:13.558Z</time>
      </trkpt>
      <trkpt lat="42.42987" lon="24.24189">
        <ele>407.544231</ele>
        <time>2022-03-07T12:45:15.560Z</time>
      </trkpt>
      <trkpt lat="42.42992" lon="24.24178">
        <ele>407.396661</ele>
        <time>2022-03-07T12:45:17.591Z</time>
      </trkpt>
      <trkpt lat="42.42998" lon="24.24168">
        <ele>407.250083</ele>
        <time>2022-03-07T12:45:19.539Z</time>
      </trkpt>
      <trkpt lat="42.43003" lon="24.24157">
        <ele>407.098965</ele>
        <time>2022-03-07T12:45:21.535Z</time>
      </trkpt>
      <trkpt lat="42.43009" lon="24.24146">
        <ele>406.945143</ele>
        <time>2022-03-07T12:45:23.561Z</time>
      </trkpt>
      <trkpt lat="42.43016" lon="24.24135">
        <ele>406.791186</ele>
        <time>2022-03-07T12:45:25.542Z</time>
      </trkpt>
      <trkpt lat="42.43022" lon="24.24124">
        <ele>406.635545</ele>
        <time>2022-03-07T12:45:27.540Z</time>
      </trkpt>
      <trkpt lat="42.43028" lon="24.24113">
        <ele>406.478963</ele>
        <time>2022-03-07T12:45:29.549Z</time>
      </trkpt>
      <trkpt lat="42.43034" lon="24.24102">
        <ele>406.316935</ele>
        <time>2022-03-07T12:45:31.565Z</time>
      </trkpt>
      <trkpt lat="42.4304" lon="24.2409">
        <ele>406.159474</ele>
        <time>2022-03-07T12:45:33.558Z</time>
      </trkpt>
      <trkpt lat="42.43046" lon="24.2408">
        <ele>406.011089</ele>
        <time>2022-03-07T12:45:35.555Z</time>
      </trkpt>
      <trkpt lat="42.43051" lon="24.24069">
        <ele>405.865388</ele>
        <time>2022-03-07T12:45:37.562Z</time>
      </trkpt>
      <trkpt lat="42.43056" lon="24.24058">
        <ele>405.719516</ele>
        <time>2022-03-07T12:45:39.551Z</time>
      </trkpt>
      <trkpt lat="42.43062" lon="24.24048">
        <ele>405.581165</ele>
        <time>2022-03-07T12:45:41.550Z</time>
      </trkpt>
      <trkpt lat="42.43067" lon="24.24039">
        <ele>405.441695</ele>
        <time>2022-03-07T12:45:43.541Z</time>
      </trkpt>
      <trkpt lat="42.43073" lon="24.24029">
        <ele>405.296037</ele>
        <time>2022-03-07T12:45:45.548Z</time>
      </trkpt>
      <trkpt lat="42.43079" lon="24.24018">
        <ele>405.144945</ele>
        <time>2022-03-07T12:45:47.554Z</time>
      </trkpt>
      <trkpt lat="42.43085" lon="24.24007">
        <ele>404.994766</ele>
        <time>2022-03-07T12:45:49.550Z</time>
      </trkpt>
      <trkpt lat="42.4309" lon="24.23997">
        <ele>404.77026</ele>
        <time>2022-03-07T12:45:51.555Z</time>
      </trkpt>
      <trkpt lat="42.43096" lon="24.23987">
        <ele>404.475579</ele>
        <time>2022-03-07T12:45:53.544Z</time>
      </trkpt>
      <trkpt lat="42.431" lon="24.23975">
        <ele>404.149499</ele>
        <time>2022-03-07T12:45:55.566Z</time>
      </trkpt>
      <trkpt lat="42.43105" lon="24.23964">
        <ele>403.849518</ele>
        <time>2022-03-07T12:45:57.543Z</time>
      </trkpt>
      <trkpt lat="42.43109" lon="24.23952">
        <ele>403.533087</ele>
        <time>2022-03-07T12:45:59.562Z</time>
      </trkpt>
      <trkpt lat="42.43112" lon="24.2394">
        <ele>403.241077</ele>
        <time>2022-03-07T12:46:01.546Z</time>
      </trkpt>
      <trkpt lat="42.43117" lon="24.23923">
        <ele>402.808902</ele>
        <time>2022-03-07T12:46:04.554Z</time>
      </trkpt>
      <trkpt lat="42.43121" lon="24.23908">
        <ele>402.412658</ele>
        <time>2022-03-07T12:46:07.541Z</time>
      </trkpt>
      <trkpt lat="42.43125" lon="24.23893">
        <ele>402.04671</ele>
        <time>2022-03-07T12:46:10.527Z</time>
      </trkpt>
      <trkpt lat="42.43128" lon="24.23881">
        <ele>401.735782</ele>
        <time>2022-03-07T12:46:12.522Z</time>
      </trkpt>
      <trkpt lat="42.43132" lon="24.23866">
        <ele>401.337298</ele>
        <time>2022-03-07T12:46:15.542Z</time>
      </trkpt>
      <trkpt lat="42.43137" lon="24.23851">
        <ele>400.958687</ele>
        <time>2022-03-07T12:46:18.541Z</time>
      </trkpt>
      <trkpt lat="42.43141" lon="24.23835">
        <ele>400.55218</ele>
        <time>2022-03-07T12:46:21.559Z</time>
      </trkpt>
      <trkpt lat="42.43146" lon="24.23818">
        <ele>400.121094</ele>
        <time>2022-03-07T12:46:24.552Z</time>
      </trkpt>
      <trkpt lat="42.4315" lon="24.23803">
        <ele>399.728168</ele>
        <time>2022-03-07T12:46:27.547Z</time>
      </trkpt>
      <trkpt lat="42.43153" lon="24.23787">
        <ele>399.347441</ele>
        <time>2022-03-07T12:46:30.615Z</time>
      </trkpt>
      <trkpt lat="42.43157" lon="24.23774">
        <ele>399.151457</ele>
        <time>2022-03-07T12:46:33.557Z</time>
      </trkpt>
      <trkpt lat="42.43161" lon="24.23759">
        <ele>399.417425</ele>
        <time>2022-03-07T12:46:36.544Z</time>
      </trkpt>
      <trkpt lat="42.43165" lon="24.23744">
        <ele>399.704336</ele>
        <time>2022-03-07T12:46:39.545Z</time>
      </trkpt>
      <trkpt lat="42.43169" lon="24.2373">
        <ele>399.979472</ele>
        <time>2022-03-07T12:46:42.539Z</time>
      </trkpt>
      <trkpt lat="42.43174" lon="24.23715">
        <ele>400.255491</ele>
        <time>2022-03-07T12:46:45.541Z</time>
      </trkpt>
      <trkpt lat="42.43178" lon="24.23701">
        <ele>400.535566</ele>
        <time>2022-03-07T12:46:48.544Z</time>
      </trkpt>
      <trkpt lat="42.43182" lon="24.23686">
        <ele>400.819799</ele>
        <time>2022-03-07T12:46:51.571Z</time>
      </trkpt>
      <trkpt lat="42.43187" lon="24.23671">
        <ele>401.106959</ele>
        <time>2022-03-07T12:46:54.557Z</time>
      </trkpt>
      <trkpt lat="42.43191" lon="24.23656">
        <ele>401.384797</ele>
        <time>2022-03-07T12:46:57.550Z</time>
      </trkpt>
      <trkpt lat="42.43196" lon="24.23642">
        <ele>401.655196</ele>
        <time>2022-03-07T12:47:00.556Z</time>
      </trkpt>
      <trkpt lat="42.432" lon="24.23628">
        <ele>401.918673</ele>
        <time>2022-03-07T12:47:03.581Z</time>
      </trkpt>
      <trkpt lat="42.43203" lon="24.23614">
        <ele>402.190568</ele>
        <time>2022-03-07T12:47:06.560Z</time>
      </trkpt>
      <trkpt lat="42.43206" lon="24.236">
        <ele>402.442981</ele>
        <time>2022-03-07T12:47:09.554Z</time>
      </trkpt>
      <trkpt lat="42.4321" lon="24.23587">
        <ele>402.689148</ele>
        <time>2022-03-07T12:47:12.563Z</time>
      </trkpt>
      <trkpt lat="42.43213" lon="24.23573">
        <ele>402.946006</ele>
        <time>2022-03-07T12:47:15.567Z</time>
      </trkpt>
      <trkpt lat="42.43217" lon="24.23561">
        <ele>403.178001</ele>
        <time>2022-03-07T12:47:18.591Z</time>
      </trkpt>
      <trkpt lat="42.43221" lon="24.23548">
        <ele>403.441706</ele>
        <time>2022-03-07T12:47:21.570Z</time>
      </trkpt>
      <trkpt lat="42.43224" lon="24.23534">
        <ele>403.80971</ele>
        <time>2022-03-07T12:47:24.542Z</time>
      </trkpt>
      <trkpt lat="42.43228" lon="24.23522">
        <ele>404.1355</ele>
        <time>2022-03-07T12:47:27.555Z</time>
      </trkpt>
      <trkpt lat="42.43232" lon="24.23509">
        <ele>404.518097</ele>
        <time>2022-03-07T12:47:31.555Z</time>
      </trkpt>
      <trkpt lat="42.43236" lon="24.23495">
        <ele>404.909447</ele>
        <time>2022-03-07T12:47:36.544Z</time>
      </trkpt>
      <trkpt lat="42.4324" lon="24.23481">
        <ele>405.284299</ele>
        <time>2022-03-07T12:47:40.555Z</time>
      </trkpt>
      <trkpt lat="42.43244" lon="24.23469">
        <ele>405.620939</ele>
        <time>2022-03-07T12:47:44.549Z</time>
      </trkpt>
      <trkpt lat="42.43246" lon="24.23456">
        <ele>405.961472</ele>
        <time>2022-03-07T12:47:48.547Z</time>
      </trkpt>
      <trkpt lat="42.43249" lon="24.23444">
        <ele>406.291114</ele>
        <time>2022-03-07T12:47:52.589Z</time>
      </trkpt>
      <trkpt lat="42.43253" lon="24.23432">
        <ele>406.636425</ele>
        <time>2022-03-07T12:47:56.551Z</time>
      </trkpt>
      <trkpt lat="42.43258" lon="24.23417">
        <ele>407.039977</ele>
        <time>2022-03-07T12:48:00.604Z</time>
      </trkpt>
      <trkpt lat="42.43261" lon="24.23406">
        <ele>407.356065</ele>
        <time>2022-03-07T12:48:03.547Z</time>
      </trkpt>
      <trkpt lat="42.43265" lon="24.23391">
        <ele>407.767511</ele>
        <time>2022-03-07T12:48:07.573Z</time>
      </trkpt>
      <trkpt lat="42.43269" lon="24.23376">
        <ele>408.174187</ele>
        <time>2022-03-07T12:48:11.545Z</time>
      </trkpt>
      <trkpt lat="42.43273" lon="24.23362">
        <ele>408.560338</ele>
        <time>2022-03-07T12:48:15.593Z</time>
      </trkpt>
      <trkpt lat="42.43277" lon="24.23347">
        <ele>408.959668</ele>
        <time>2022-03-07T12:48:19.561Z</time>
      </trkpt>
      <trkpt lat="42.43282" lon="24.23333">
        <ele>409.365819</ele>
        <time>2022-03-07T12:48:23.538Z</time>
      </trkpt>
      <trkpt lat="42.43286" lon="24.23319">
        <ele>409.615906</ele>
        <time>2022-03-07T12:48:27.581Z</time>
      </trkpt>
      <trkpt lat="42.43291" lon="24.23304">
        <ele>409.447232</ele>
        <time>2022-03-07T12:48:31.552Z</time>
      </trkpt>
      <trkpt lat="42.43294" lon="24.2329">
        <ele>409.287168</ele>
        <time>2022-03-07T12:48:35.556Z</time>
      </trkpt>
      <trkpt lat="42.43298" lon="24.23277">
        <ele>409.132525</ele>
        <time>2022-03-07T12:48:39.559Z</time>
      </trkpt>
      <trkpt lat="42.43302" lon="24.23262">
        <ele>408.972361</ele>
        <time>2022-03-07T12:48:43.587Z</time>
      </trkpt>
      <trkpt lat="42.43306" lon="24.23248">
        <ele>408.80933</ele>
        <time>2022-03-07T12:48:47.551Z</time>
      </trkpt>
      <trkpt lat="42.43309" lon="24.23236">
        <ele>408.678293</ele>
        <time>2022-03-07T12:48:50.543Z</time>
      </trkpt>
      <trkpt lat="42.43312" lon="24.23223">
        <ele>408.531772</ele>
        <time>2022-03-07T12:48:53.557Z</time>
      </trkpt>
      <trkpt lat="42.43316" lon="24.23209">
        <ele>408.370746</ele>
        <time>2022-03-07T12:48:56.544Z</time>
      </trkpt>
      <trkpt lat="42.4332" lon="24.23193">
        <ele>408.190716</ele>
        <time>2022-03-07T12:48:59.562Z</time>
      </trkpt>
      <trkpt lat="42.43324" lon="24.23182">
        <ele>408.061055</ele>
        <time>2022-03-07T12:49:01.554Z</time>
      </trkpt>
      <trkpt lat="42.43328" lon="24.2317">
        <ele>407.913417</ele>
        <time>2022-03-07T12:49:03.545Z</time>
      </trkpt>
      <trkpt lat="42.43333" lon="24.23156">
        <ele>407.7549</ele>
        <time>2022-03-07T12:49:05.551Z</time>
      </trkpt>
      <trkpt lat="42.43338" lon="24.23144">
        <ele>407.603738</ele>
        <time>2022-03-07T12:49:07.555Z</time>
      </trkpt>
      <trkpt lat="42.43343" lon="24.23131">
        <ele>407.440135</ele>
        <time>2022-03-07T12:49:09.552Z</time>
      </trkpt>
      <trkpt lat="42.4335" lon="24.23117">
        <ele>407.270227</ele>
        <time>2022-03-07T12:49:11.597Z</time>
      </trkpt>
      <trkpt lat="42.43356" lon="24.23105">
        <ele>407.109742</ele>
        <time>2022-03-07T12:49:13.549Z</time>
      </trkpt>
      <trkpt lat="42.43362" lon="24.23093">
        <ele>407.011931</ele>
        <time>2022-03-07T12:49:15.563Z</time>
      </trkpt>
      <trkpt lat="42.43367" lon="24.23082">
        <ele>406.943787</ele>
        <time>2022-03-07T12:49:17.538Z</time>
      </trkpt>
      <trkpt lat="42.43372" lon="24.23071">
        <ele>406.877833</ele>
        <time>2022-03-07T12:49:19.535Z</time>
      </trkpt>
      <trkpt lat="42.43377" lon="24.23061">
        <ele>406.811818</ele>
        <time>2022-03-07T12:49:21.545Z</time>
      </trkpt>
      <trkpt lat="42.43382" lon="24.2305">
        <ele>406.746538</ele>
        <time>2022-03-07T12:49:23.555Z</time>
      </trkpt>
      <trkpt lat="42.43387" lon="24.23039">
        <ele>406.683024</ele>
        <time>2022-03-07T12:49:25.549Z</time>
      </trkpt>
      <trkpt lat="42.43393" lon="24.23025">
        <ele>406.598748</ele>
        <time>2022-03-07T12:49:28.565Z</time>
      </trkpt>
      <trkpt lat="42.43399" lon="24.23011">
        <ele>406.513223</ele>
        <time>2022-03-07T12:49:31.549Z</time>
      </trkpt>
      <trkpt lat="42.43405" lon="24.22995">
        <ele>406.422918</ele>
        <time>2022-03-07T12:49:34.539Z</time>
      </trkpt>
      <trkpt lat="42.43409" lon="24.22979">
        <ele>406.332785</ele>
        <time>2022-03-07T12:49:37.663Z</time>
      </trkpt>
      <trkpt lat="42.43414" lon="24.22962">
        <ele>406.240469</ele>
        <time>2022-03-07T12:49:40.560Z</time>
      </trkpt>
      <trkpt lat="42.43419" lon="24.22946">
        <ele>406.146615</ele>
        <time>2022-03-07T12:49:43.543Z</time>
      </trkpt>
      <trkpt lat="42.43424" lon="24.22929">
        <ele>406.05383</ele>
        <time>2022-03-07T12:49:46.560Z</time>
      </trkpt>
      <trkpt lat="42.43429" lon="24.22912">
        <ele>405.959422</ele>
        <time>2022-03-07T12:49:49.547Z</time>
      </trkpt>
      <trkpt lat="42.43434" lon="24.22896">
        <ele>405.867328</ele>
        <time>2022-03-07T12:49:52.586Z</time>
      </trkpt>
      <trkpt lat="42.43439" lon="24.22881">
        <ele>405.838329</ele>
        <time>2022-03-07T12:49:55.566Z</time>
      </trkpt>
      <trkpt lat="42.43443" lon="24.22866">
        <ele>406.055835</ele>
        <time>2022-03-07T12:49:58.554Z</time>
      </trkpt>
      <trkpt lat="42.43448" lon="24.2285">
        <ele>406.30109</ele>
        <time>2022-03-07T12:50:01.562Z</time>
      </trkpt>
      <trkpt lat="42.43454" lon="24.22833">
        <ele>406.557413</ele>
        <time>2022-03-07T12:50:04.563Z</time>
      </trkpt>
      <trkpt lat="42.43457" lon="24.22821">
        <ele>406.734651</ele>
        <time>2022-03-07T12:50:06.539Z</time>
      </trkpt>
      <trkpt lat="42.43463" lon="24.22805">
        <ele>406.980637</ele>
        <time>2022-03-07T12:50:09.552Z</time>
      </trkpt>
      <trkpt lat="42.43467" lon="24.2279">
        <ele>407.203779</ele>
        <time>2022-03-07T12:50:12.552Z</time>
      </trkpt>
      <trkpt lat="42.43471" lon="24.22774">
        <ele>407.429395</ele>
        <time>2022-03-07T12:50:15.559Z</time>
      </trkpt>
      <trkpt lat="42.43476" lon="24.22759">
        <ele>407.658257</ele>
        <time>2022-03-07T12:50:18.557Z</time>
      </trkpt>
      <trkpt lat="42.43481" lon="24.22744">
        <ele>407.888255</ele>
        <time>2022-03-07T12:50:21.546Z</time>
      </trkpt>
      <trkpt lat="42.43487" lon="24.22728">
        <ele>408.135427</ele>
        <time>2022-03-07T12:50:24.557Z</time>
      </trkpt>
      <trkpt lat="42.43491" lon="24.22717">
        <ele>408.305043</ele>
        <time>2022-03-07T12:50:26.547Z</time>
      </trkpt>
      <trkpt lat="42.43496" lon="24.22699">
        <ele>408.557802</ele>
        <time>2022-03-07T12:50:29.591Z</time>
      </trkpt>
      <trkpt lat="42.43498" lon="24.22687">
        <ele>408.734125</ele>
        <time>2022-03-07T12:50:31.555Z</time>
      </trkpt>
      <trkpt lat="42.43501" lon="24.22675">
        <ele>408.90612</ele>
        <time>2022-03-07T12:50:33.571Z</time>
      </trkpt>
      <trkpt lat="42.43504" lon="24.22663">
        <ele>409.08133</ele>
        <time>2022-03-07T12:50:35.571Z</time>
      </trkpt>
      <trkpt lat="42.43508" lon="24.22651">
        <ele>409.136647</ele>
        <time>2022-03-07T12:50:37.539Z</time>
      </trkpt>
      <trkpt lat="42.43511" lon="24.22639">
        <ele>409.100326</ele>
        <time>2022-03-07T12:50:39.552Z</time>
      </trkpt>
      <trkpt lat="42.43516" lon="24.22623">
        <ele>409.048703</ele>
        <time>2022-03-07T12:50:42.552Z</time>
      </trkpt>
      <trkpt lat="42.43519" lon="24.22611">
        <ele>409.013724</ele>
        <time>2022-03-07T12:50:44.555Z</time>
      </trkpt>
      <trkpt lat="42.43522" lon="24.22599">
        <ele>408.978745</ele>
        <time>2022-03-07T12:50:46.582Z</time>
      </trkpt>
      <trkpt lat="42.43526" lon="24.22588">
        <ele>408.943093</ele>
        <time>2022-03-07T12:50:48.547Z</time>
      </trkpt>
      <trkpt lat="42.43529" lon="24.22576">
        <ele>408.907299</ele>
        <time>2022-03-07T12:50:50.549Z</time>
      </trkpt>
      <trkpt lat="42.43533" lon="24.22564">
        <ele>408.87099</ele>
        <time>2022-03-07T12:50:52.601Z</time>
      </trkpt>
      <trkpt lat="42.43536" lon="24.22552">
        <ele>408.836007</ele>
        <time>2022-03-07T12:50:54.561Z</time>
      </trkpt>
      <trkpt lat="42.43539" lon="24.22541">
        <ele>408.799805</ele>
        <time>2022-03-07T12:50:56.562Z</time>
      </trkpt>
      <trkpt lat="42.43543" lon="24.22529">
        <ele>408.763895</ele>
        <time>2022-03-07T12:50:58.542Z</time>
      </trkpt>
      <trkpt lat="42.43546" lon="24.22517">
        <ele>408.727693</ele>
        <time>2022-03-07T12:51:00.546Z</time>
      </trkpt>
      <trkpt lat="42.4355" lon="24.22505">
        <ele>408.692275</ele>
        <time>2022-03-07T12:51:02.568Z</time>
      </trkpt>
      <trkpt lat="42.43553" lon="24.22494">
        <ele>408.657006</ele>
        <time>2022-03-07T12:51:04.553Z</time>
      </trkpt>
      <trkpt lat="42.43556" lon="24.22482">
        <ele>408.621475</ele>
        <time>2022-03-07T12:51:06.546Z</time>
      </trkpt>
      <trkpt lat="42.43559" lon="24.2247">
        <ele>408.586357</ele>
        <time>2022-03-07T12:51:08.547Z</time>
      </trkpt>
      <trkpt lat="42.43564" lon="24.22453">
        <ele>408.534327</ele>
        <time>2022-03-07T12:51:11.585Z</time>
      </trkpt>
      <trkpt lat="42.43569" lon="24.22437">
        <ele>408.483493</ele>
        <time>2022-03-07T12:51:14.588Z</time>
      </trkpt>
      <trkpt lat="42.43574" lon="24.22422">
        <ele>408.541636</ele>
        <time>2022-03-07T12:51:17.540Z</time>
      </trkpt>
      <trkpt lat="42.43579" lon="24.22406">
        <ele>408.657013</ele>
        <time>2022-03-07T12:51:20.597Z</time>
      </trkpt>
      <trkpt lat="42.43583" lon="24.22392">
        <ele>408.766755</ele>
        <time>2022-03-07T12:51:23.561Z</time>
      </trkpt>
      <trkpt lat="42.43587" lon="24.22378">
        <ele>408.871776</ele>
        <time>2022-03-07T12:51:26.540Z</time>
      </trkpt>
      <trkpt lat="42.43591" lon="24.22365">
        <ele>408.973486</ele>
        <time>2022-03-07T12:51:29.549Z</time>
      </trkpt>
      <trkpt lat="42.43594" lon="24.22351">
        <ele>409.074095</ele>
        <time>2022-03-07T12:51:32.587Z</time>
      </trkpt>
      <trkpt lat="42.43597" lon="24.22339">
        <ele>409.170455</ele>
        <time>2022-03-07T12:51:35.582Z</time>
      </trkpt>
      <trkpt lat="42.43601" lon="24.22326">
        <ele>409.268508</ele>
        <time>2022-03-07T12:51:38.542Z</time>
      </trkpt>
      <trkpt lat="42.43605" lon="24.22312">
        <ele>409.371974</ele>
        <time>2022-03-07T12:51:41.565Z</time>
      </trkpt>
      <trkpt lat="42.4361" lon="24.223">
        <ele>409.470816</ele>
        <time>2022-03-07T12:51:44.539Z</time>
      </trkpt>
      <trkpt lat="42.43614" lon="24.22286">
        <ele>409.578306</ele>
        <time>2022-03-07T12:51:47.552Z</time>
      </trkpt>
      <trkpt lat="42.43618" lon="24.22272">
        <ele>409.682001</ele>
        <time>2022-03-07T12:51:50.557Z</time>
      </trkpt>
      <trkpt lat="42.43621" lon="24.22259">
        <ele>409.780681</ele>
        <time>2022-03-07T12:51:53.592Z</time>
      </trkpt>
      <trkpt lat="42.43626" lon="24.22246">
        <ele>409.883492</ele>
        <time>2022-03-07T12:51:56.550Z</time>
      </trkpt>
      <trkpt lat="42.43629" lon="24.22233">
        <ele>409.979505</ele>
        <time>2022-03-07T12:51:59.557Z</time>
      </trkpt>
      <trkpt lat="42.43633" lon="24.22222">
        <ele>410.068938</ele>
        <time>2022-03-07T12:52:02.552Z</time>
      </trkpt>
      <trkpt lat="42.43636" lon="24.22208">
        <ele>410.17228</ele>
        <time>2022-03-07T12:52:06.542Z</time>
      </trkpt>
      <trkpt lat="42.43639" lon="24.22195">
        <ele>410.247719</ele>
        <time>2022-03-07T12:52:09.567Z</time>
      </trkpt>
      <trkpt lat="42.43644" lon="24.22182">
        <ele>410.320847</ele>
        <time>2022-03-07T12:52:12.550Z</time>
      </trkpt>
      <trkpt lat="42.43648" lon="24.22168">
        <ele>410.400216</ele>
        <time>2022-03-07T12:52:15.622Z</time>
      </trkpt>
      <trkpt lat="42.43651" lon="24.22151">
        <ele>410.486604</ele>
        <time>2022-03-07T12:52:18.582Z</time>
      </trkpt>
      <trkpt lat="42.43653" lon="24.22139">
        <ele>410.54953</ele>
        <time>2022-03-07T12:52:20.591Z</time>
      </trkpt>
      <trkpt lat="42.43656" lon="24.22126">
        <ele>410.617003</ele>
        <time>2022-03-07T12:52:22.536Z</time>
      </trkpt>
      <trkpt lat="42.43658" lon="24.22112">
        <ele>410.691497</ele>
        <time>2022-03-07T12:52:24.541Z</time>
      </trkpt>
      <trkpt lat="42.43662" lon="24.22097">
        <ele>410.768475</ele>
        <time>2022-03-07T12:52:26.597Z</time>
      </trkpt>
      <trkpt lat="42.43664" lon="24.22082">
        <ele>410.844432</ele>
        <time>2022-03-07T12:52:28.534Z</time>
      </trkpt>
      <trkpt lat="42.43666" lon="24.22069">
        <ele>410.913762</ele>
        <time>2022-03-07T12:52:30.549Z</time>
      </trkpt>
      <trkpt lat="42.43668" lon="24.22055">
        <ele>410.983373</ele>
        <time>2022-03-07T12:52:32.561Z</time>
      </trkpt>
      <trkpt lat="42.43671" lon="24.22041">
        <ele>411.054761</ele>
        <time>2022-03-07T12:52:34.595Z</time>
      </trkpt>
      <trkpt lat="42.43673" lon="24.22027">
        <ele>411.126435</ele>
        <time>2022-03-07T12:52:36.544Z</time>
      </trkpt>
      <trkpt lat="42.43674" lon="24.22014">
        <ele>411.192086</ele>
        <time>2022-03-07T12:52:38.566Z</time>
      </trkpt>
      <trkpt lat="42.43676" lon="24.22001">
        <ele>411.259242</ele>
        <time>2022-03-07T12:52:40.559Z</time>
      </trkpt>
      <trkpt lat="42.43678" lon="24.21989">
        <ele>411.321261</ele>
        <time>2022-03-07T12:52:42.538Z</time>
      </trkpt>
      <trkpt lat="42.43679" lon="24.21977">
        <ele>411.383232</ele>
        <time>2022-03-07T12:52:44.553Z</time>
      </trkpt>
      <trkpt lat="42.43681" lon="24.21964">
        <ele>411.466265</ele>
        <time>2022-03-07T12:52:46.546Z</time>
      </trkpt>
      <trkpt lat="42.43683" lon="24.21951">
        <ele>411.566728</ele>
        <time>2022-03-07T12:52:48.603Z</time>
      </trkpt>
      <trkpt lat="42.43683" lon="24.21939">
        <ele>411.667831</ele>
        <time>2022-03-07T12:52:50.557Z</time>
      </trkpt>
      <trkpt lat="42.43685" lon="24.21927">
        <ele>411.766529</ele>
        <time>2022-03-07T12:52:52.554Z</time>
      </trkpt>
      <trkpt lat="42.43685" lon="24.21908">
        <ele>411.91048</ele>
        <time>2022-03-07T12:52:55.551Z</time>
      </trkpt>
      <trkpt lat="42.43687" lon="24.21892">
        <ele>412.044217</ele>
        <time>2022-03-07T12:52:58.550Z</time>
      </trkpt>
      <trkpt lat="42.43688" lon="24.21876">
        <ele>412.16849</ele>
        <time>2022-03-07T12:53:01.542Z</time>
      </trkpt>
      <trkpt lat="42.4369" lon="24.2186">
        <ele>412.297781</ele>
        <time>2022-03-07T12:53:04.584Z</time>
      </trkpt>
      <trkpt lat="42.43693" lon="24.21844">
        <ele>412.426181</ele>
        <time>2022-03-07T12:53:07.546Z</time>
      </trkpt>
      <trkpt lat="42.43696" lon="24.21828">
        <ele>412.5569</ele>
        <time>2022-03-07T12:53:10.584Z</time>
      </trkpt>
      <trkpt lat="42.43699" lon="24.21814">
        <ele>412.680567</ele>
        <time>2022-03-07T12:53:13.542Z</time>
      </trkpt>
      <trkpt lat="42.43702" lon="24.21801">
        <ele>412.78647</ele>
        <time>2022-03-07T12:53:16.559Z</time>
      </trkpt>
      <trkpt lat="42.43706" lon="24.21789">
        <ele>412.888526</ele>
        <time>2022-03-07T12:53:19.555Z</time>
      </trkpt>
      <trkpt lat="42.43711" lon="24.21776">
        <ele>413.005844</ele>
        <time>2022-03-07T12:53:22.545Z</time>
      </trkpt>
      <trkpt lat="42.43716" lon="24.2176">
        <ele>413.140923</ele>
        <time>2022-03-07T12:53:25.558Z</time>
      </trkpt>
      <trkpt lat="42.43722" lon="24.21746">
        <ele>413.276374</ele>
        <time>2022-03-07T12:53:28.563Z</time>
      </trkpt>
      <trkpt lat="42.43727" lon="24.21732">
        <ele>413.351686</ele>
        <time>2022-03-07T12:53:31.550Z</time>
      </trkpt>
      <trkpt lat="42.43732" lon="24.21719">
        <ele>413.31595</ele>
        <time>2022-03-07T12:53:34.549Z</time>
      </trkpt>
      <trkpt lat="42.43737" lon="24.21706">
        <ele>413.281842</ele>
        <time>2022-03-07T12:53:37.573Z</time>
      </trkpt>
      <trkpt lat="42.43742" lon="24.21694">
        <ele>413.246999</ele>
        <time>2022-03-07T12:53:40.554Z</time>
      </trkpt>
      <trkpt lat="42.43747" lon="24.21681">
        <ele>413.212384</ele>
        <time>2022-03-07T12:53:43.546Z</time>
      </trkpt>
      <trkpt lat="42.43753" lon="24.21669">
        <ele>413.177124</ele>
        <time>2022-03-07T12:53:46.542Z</time>
      </trkpt>
      <trkpt lat="42.43758" lon="24.21657">
        <ele>413.142214</ele>
        <time>2022-03-07T12:53:49.563Z</time>
      </trkpt>
      <trkpt lat="42.43764" lon="24.21645">
        <ele>413.106596</ele>
        <time>2022-03-07T12:53:52.577Z</time>
      </trkpt>
      <trkpt lat="42.43769" lon="24.21633">
        <ele>413.073414</ele>
        <time>2022-03-07T12:53:55.571Z</time>
      </trkpt>
      <trkpt lat="42.43774" lon="24.21621">
        <ele>413.039808</ele>
        <time>2022-03-07T12:53:58.557Z</time>
      </trkpt>
      <trkpt lat="42.43779" lon="24.21608">
        <ele>413.003577</ele>
        <time>2022-03-07T12:54:01.535Z</time>
      </trkpt>
      <trkpt lat="42.43784" lon="24.21595">
        <ele>412.968962</ele>
        <time>2022-03-07T12:54:04.553Z</time>
      </trkpt>
      <trkpt lat="42.43789" lon="24.21583">
        <ele>412.93371</ele>
        <time>2022-03-07T12:54:07.548Z</time>
      </trkpt>
      <trkpt lat="42.43794" lon="24.21571">
        <ele>412.900434</ele>
        <time>2022-03-07T12:54:10.564Z</time>
      </trkpt>
      <trkpt lat="42.438" lon="24.21558">
        <ele>412.864897</ele>
        <time>2022-03-07T12:54:13.571Z</time>
      </trkpt>
      <trkpt lat="42.43805" lon="24.21545">
        <ele>412.828469</ele>
        <time>2022-03-07T12:54:16.549Z</time>
      </trkpt>
      <trkpt lat="42.43811" lon="24.21532">
        <ele>412.791454</ele>
        <time>2022-03-07T12:54:19.555Z</time>
      </trkpt>
      <trkpt lat="42.43816" lon="24.21519">
        <ele>412.756274</ele>
        <time>2022-03-07T12:54:22.584Z</time>
      </trkpt>
      <trkpt lat="42.43821" lon="24.21506">
        <ele>412.722366</ele>
        <time>2022-03-07T12:54:25.570Z</time>
      </trkpt>
      <trkpt lat="42.43827" lon="24.21492">
        <ele>412.686839</ele>
        <time>2022-03-07T12:54:28.587Z</time>
      </trkpt>
      <trkpt lat="42.43833" lon="24.21478">
        <ele>412.651119</ele>
        <time>2022-03-07T12:54:31.549Z</time>
      </trkpt>
      <trkpt lat="42.43839" lon="24.21464">
        <ele>412.614465</ele>
        <time>2022-03-07T12:54:34.556Z</time>
      </trkpt>
      <trkpt lat="42.43844" lon="24.21449">
        <ele>412.576934</ele>
        <time>2022-03-07T12:54:37.554Z</time>
      </trkpt>
      <trkpt lat="42.43851" lon="24.21433">
        <ele>412.536763</ele>
        <time>2022-03-07T12:54:40.555Z</time>
      </trkpt>
      <trkpt lat="42.43855" lon="24.21422">
        <ele>412.508594</ele>
        <time>2022-03-07T12:54:42.545Z</time>
      </trkpt>
      <trkpt lat="42.4386" lon="24.21411">
        <ele>412.47978</ele>
        <time>2022-03-07T12:54:44.602Z</time>
      </trkpt>
      <trkpt lat="42.43864" lon="24.214">
        <ele>412.451243</ele>
        <time>2022-03-07T12:54:46.559Z</time>
      </trkpt>
      <trkpt lat="42.43868" lon="24.21388">
        <ele>412.423041</ele>
        <time>2022-03-07T12:54:48.595Z</time>
      </trkpt>
      <trkpt lat="42.43873" lon="24.21372">
        <ele>412.383269</ele>
        <time>2022-03-07T12:54:51.560Z</time>
      </trkpt>
      <trkpt lat="42.43876" lon="24.21361">
        <ele>412.355842</ele>
        <time>2022-03-07T12:54:53.545Z</time>
      </trkpt>
      <trkpt lat="42.4388" lon="24.21349">
        <ele>412.327578</ele>
        <time>2022-03-07T12:54:55.583Z</time>
      </trkpt>
      <trkpt lat="42.43882" lon="24.21331">
        <ele>412.287158</ele>
        <time>2022-03-07T12:54:58.536Z</time>
      </trkpt>
      <trkpt lat="42.43884" lon="24.21314">
        <ele>412.248108</ele>
        <time>2022-03-07T12:55:01.557Z</time>
      </trkpt>
      <trkpt lat="42.43884" lon="24.21297">
        <ele>412.245835</ele>
        <time>2022-03-07T12:55:04.547Z</time>
      </trkpt>
      <trkpt lat="42.43884" lon="24.2128">
        <ele>412.317917</ele>
        <time>2022-03-07T12:55:07.551Z</time>
      </trkpt>
      <trkpt lat="42.43884" lon="24.21264">
        <ele>412.38823</ele>
        <time>2022-03-07T12:55:10.570Z</time>
      </trkpt>
      <trkpt lat="42.43884" lon="24.21249">
        <ele>412.458581</ele>
        <time>2022-03-07T12:55:13.553Z</time>
      </trkpt>
      <trkpt lat="42.43884" lon="24.21232">
        <ele>412.529776</ele>
        <time>2022-03-07T12:55:16.542Z</time>
      </trkpt>
      <trkpt lat="42.43884" lon="24.21217">
        <ele>412.59876</ele>
        <time>2022-03-07T12:55:19.553Z</time>
      </trkpt>
      <trkpt lat="42.43884" lon="24.21202">
        <ele>412.662879</ele>
        <time>2022-03-07T12:55:22.542Z</time>
      </trkpt>
      <trkpt lat="42.43884" lon="24.21188">
        <ele>412.724372</ele>
        <time>2022-03-07T12:55:25.566Z</time>
      </trkpt>
      <trkpt lat="42.43884" lon="24.21175">
        <ele>412.785841</ele>
        <time>2022-03-07T12:55:28.582Z</time>
      </trkpt>
      <trkpt lat="42.43884" lon="24.21161">
        <ele>412.84645</ele>
        <time>2022-03-07T12:55:31.556Z</time>
      </trkpt>
      <trkpt lat="42.43884" lon="24.21147">
        <ele>412.907079</ele>
        <time>2022-03-07T12:55:34.546Z</time>
      </trkpt>
      <trkpt lat="42.43885" lon="24.21133">
        <ele>412.969433</ele>
        <time>2022-03-07T12:55:37.554Z</time>
      </trkpt>
      <trkpt lat="42.43884" lon="24.2112">
        <ele>413.026085</ele>
        <time>2022-03-07T12:55:40.545Z</time>
      </trkpt>
      <trkpt lat="42.43884" lon="24.21104">
        <ele>413.097303</ele>
        <time>2022-03-07T12:55:44.558Z</time>
      </trkpt>
      <trkpt lat="42.43884" lon="24.21091">
        <ele>413.15526</ele>
        <time>2022-03-07T12:55:47.547Z</time>
      </trkpt>
      <trkpt lat="42.43884" lon="24.21078">
        <ele>413.21098</ele>
        <time>2022-03-07T12:55:50.592Z</time>
      </trkpt>
      <trkpt lat="42.43884" lon="24.21066">
        <ele>413.267143</ele>
        <time>2022-03-07T12:55:53.557Z</time>
      </trkpt>
      <trkpt lat="42.43884" lon="24.21053">
        <ele>413.446693</ele>
        <time>2022-03-07T12:55:56.584Z</time>
      </trkpt>
      <trkpt lat="42.43884" lon="24.2104">
        <ele>413.780352</ele>
        <time>2022-03-07T12:55:59.552Z</time>
      </trkpt>
      <trkpt lat="42.43885" lon="24.21024">
        <ele>414.214747</ele>
        <time>2022-03-07T12:56:03.546Z</time>
      </trkpt>
      <trkpt lat="42.43884" lon="24.21011">
        <ele>414.556407</ele>
        <time>2022-03-07T12:56:06.564Z</time>
      </trkpt>
      <trkpt lat="42.43884" lon="24.20999">
        <ele>414.882122</ele>
        <time>2022-03-07T12:56:09.566Z</time>
      </trkpt>
      <trkpt lat="42.43885" lon="24.20986">
        <ele>415.213134</ele>
        <time>2022-03-07T12:56:12.554Z</time>
      </trkpt>
      <trkpt lat="42.43884" lon="24.20971">
        <ele>415.626274</ele>
        <time>2022-03-07T12:56:16.572Z</time>
      </trkpt>
      <trkpt lat="42.43884" lon="24.20958">
        <ele>415.949323</ele>
        <time>2022-03-07T12:56:19.553Z</time>
      </trkpt>
      <trkpt lat="42.43884" lon="24.20943">
        <ele>416.357168</ele>
        <time>2022-03-07T12:56:23.543Z</time>
      </trkpt>
      <trkpt lat="42.43884" lon="24.20927">
        <ele>416.772956</ele>
        <time>2022-03-07T12:56:27.554Z</time>
      </trkpt>
      <trkpt lat="42.43885" lon="24.20912">
        <ele>417.186423</ele>
        <time>2022-03-07T12:56:31.553Z</time>
      </trkpt>
      <trkpt lat="42.43885" lon="24.20896">
        <ele>417.597418</ele>
        <time>2022-03-07T12:56:35.606Z</time>
      </trkpt>
      <trkpt lat="42.43887" lon="24.20884">
        <ele>417.923322</ele>
        <time>2022-03-07T12:56:38.551Z</time>
      </trkpt>
      <trkpt lat="42.43888" lon="24.20868">
        <ele>418.343554</ele>
        <time>2022-03-07T12:56:42.554Z</time>
      </trkpt>
      <trkpt lat="42.43889" lon="24.20856">
        <ele>418.678893</ele>
        <time>2022-03-07T12:56:45.556Z</time>
      </trkpt>
      <trkpt lat="42.43891" lon="24.20844">
        <ele>419.003142</ele>
        <time>2022-03-07T12:56:48.563Z</time>
      </trkpt>
      <trkpt lat="42.43893" lon="24.20828">
        <ele>419.41136</ele>
        <time>2022-03-07T12:56:52.544Z</time>
      </trkpt>
      <trkpt lat="42.43895" lon="24.20816">
        <ele>419.74153</ele>
        <time>2022-03-07T12:56:55.560Z</time>
      </trkpt>
      <trkpt lat="42.43899" lon="24.20804">
        <ele>419.957538</ele>
        <time>2022-03-07T12:56:58.542Z</time>
      </trkpt>
      <trkpt lat="42.43901" lon="24.20792">
        <ele>420.167748</ele>
        <time>2022-03-07T12:57:01.568Z</time>
      </trkpt>
      <trkpt lat="42.43903" lon="24.2078">
        <ele>420.369059</ele>
        <time>2022-03-07T12:57:04.580Z</time>
      </trkpt>
      <trkpt lat="42.43906" lon="24.20768">
        <ele>420.577287</ele>
        <time>2022-03-07T12:57:07.559Z</time>
      </trkpt>
      <trkpt lat="42.43908" lon="24.20756">
        <ele>420.78482</ele>
        <time>2022-03-07T12:57:10.555Z</time>
      </trkpt>
      <trkpt lat="42.43911" lon="24.20743">
        <ele>420.991298</ele>
        <time>2022-03-07T12:57:13.573Z</time>
      </trkpt>
      <trkpt lat="42.43913" lon="24.20732">
        <ele>421.193685</ele>
        <time>2022-03-07T12:57:16.561Z</time>
      </trkpt>
      <trkpt lat="42.43917" lon="24.20719">
        <ele>421.405999</ele>
        <time>2022-03-07T12:57:19.568Z</time>
      </trkpt>
      <trkpt lat="42.43921" lon="24.20707">
        <ele>421.623409</ele>
        <time>2022-03-07T12:57:22.560Z</time>
      </trkpt>
      <trkpt lat="42.43925" lon="24.20696">
        <ele>421.842916</ele>
        <time>2022-03-07T12:57:25.537Z</time>
      </trkpt>
      <trkpt lat="42.4393" lon="24.20684">
        <ele>422.061659</ele>
        <time>2022-03-07T12:57:28.568Z</time>
      </trkpt>
      <trkpt lat="42.43935" lon="24.20672">
        <ele>422.28307</ele>
        <time>2022-03-07T12:57:31.560Z</time>
      </trkpt>
      <trkpt lat="42.43941" lon="24.2066">
        <ele>422.516697</ele>
        <time>2022-03-07T12:57:34.573Z</time>
      </trkpt>
      <trkpt lat="42.43947" lon="24.20649">
        <ele>422.741008</ele>
        <time>2022-03-07T12:57:37.571Z</time>
      </trkpt>
      <trkpt lat="42.43954" lon="24.20639">
        <ele>422.972122</ele>
        <time>2022-03-07T12:57:40.572Z</time>
      </trkpt>
      <trkpt lat="42.43961" lon="24.20629">
        <ele>423.198487</ele>
        <time>2022-03-07T12:57:43.574Z</time>
      </trkpt>
      <trkpt lat="42.43969" lon="24.2062">
        <ele>423.423837</ele>
        <time>2022-03-07T12:57:46.573Z</time>
      </trkpt>
      <trkpt lat="42.43976" lon="24.20611">
        <ele>423.647978</ele>
        <time>2022-03-07T12:57:49.561Z</time>
      </trkpt>
      <trkpt lat="42.43984" lon="24.20603">
        <ele>423.736838</ele>
        <time>2022-03-07T12:57:52.553Z</time>
      </trkpt>
      <trkpt lat="42.43992" lon="24.20594">
        <ele>423.713782</ele>
        <time>2022-03-07T12:57:55.554Z</time>
      </trkpt>
      <trkpt lat="42.44" lon="24.20585">
        <ele>423.689974</ele>
        <time>2022-03-07T12:57:58.558Z</time>
      </trkpt>
      <trkpt lat="42.44008" lon="24.20576">
        <ele>423.666523</ele>
        <time>2022-03-07T12:58:01.545Z</time>
      </trkpt>
      <trkpt lat="42.44016" lon="24.20568">
        <ele>423.643216</ele>
        <time>2022-03-07T12:58:04.557Z</time>
      </trkpt>
      <trkpt lat="42.44023" lon="24.20559">
        <ele>423.620294</ele>
        <time>2022-03-07T12:58:07.559Z</time>
      </trkpt>
      <trkpt lat="42.44031" lon="24.2055">
        <ele>423.595983</ele>
        <time>2022-03-07T12:58:10.555Z</time>
      </trkpt>
      <trkpt lat="42.44039" lon="24.2054">
        <ele>423.571807</ele>
        <time>2022-03-07T12:58:13.586Z</time>
      </trkpt>
      <trkpt lat="42.44047" lon="24.20531">
        <ele>423.547453</ele>
        <time>2022-03-07T12:58:16.558Z</time>
      </trkpt>
      <trkpt lat="42.44054" lon="24.20522">
        <ele>423.525336</ele>
        <time>2022-03-07T12:58:19.537Z</time>
      </trkpt>
      <trkpt lat="42.44062" lon="24.20514">
        <ele>423.502602</ele>
        <time>2022-03-07T12:58:22.553Z</time>
      </trkpt>
      <trkpt lat="42.44069" lon="24.20506">
        <ele>423.481111</ele>
        <time>2022-03-07T12:58:25.565Z</time>
      </trkpt>
      <trkpt lat="42.44078" lon="24.20495">
        <ele>423.453273</ele>
        <time>2022-03-07T12:58:29.554Z</time>
      </trkpt>
      <trkpt lat="42.44085" lon="24.20486">
        <ele>423.430984</ele>
        <time>2022-03-07T12:58:32.555Z</time>
      </trkpt>
      <trkpt lat="42.44092" lon="24.20478">
        <ele>423.408808</ele>
        <time>2022-03-07T12:58:35.594Z</time>
      </trkpt>
      <trkpt lat="42.441" lon="24.2047">
        <ele>423.386936</ele>
        <time>2022-03-07T12:58:38.554Z</time>
      </trkpt>
      <trkpt lat="42.44107" lon="24.20462">
        <ele>423.365456</ele>
        <time>2022-03-07T12:58:41.549Z</time>
      </trkpt>
      <trkpt lat="42.44116" lon="24.20452">
        <ele>423.338959</ele>
        <time>2022-03-07T12:58:45.547Z</time>
      </trkpt>
      <trkpt lat="42.44124" lon="24.20444">
        <ele>423.470782</ele>
        <time>2022-03-07T12:58:49.553Z</time>
      </trkpt>
      <trkpt lat="42.44131" lon="24.20436">
        <ele>423.620039</ele>
        <time>2022-03-07T12:58:52.603Z</time>
      </trkpt>
      <trkpt lat="42.44139" lon="24.20429">
        <ele>423.77154</ele>
        <time>2022-03-07T12:58:55.554Z</time>
      </trkpt>
      <trkpt lat="42.44146" lon="24.20419">
        <ele>423.935385</ele>
        <time>2022-03-07T12:58:59.560Z</time>
      </trkpt>
      <trkpt lat="42.44153" lon="24.2041">
        <ele>424.097679</ele>
        <time>2022-03-07T12:59:03.593Z</time>
      </trkpt>
      <trkpt lat="42.4416" lon="24.20401">
        <ele>424.255819</ele>
        <time>2022-03-07T12:59:07.571Z</time>
      </trkpt>
      <trkpt lat="42.44168" lon="24.20393">
        <ele>424.415485</ele>
        <time>2022-03-07T12:59:11.557Z</time>
      </trkpt>
      <trkpt lat="42.44176" lon="24.20385">
        <ele>424.585902</ele>
        <time>2022-03-07T12:59:15.547Z</time>
      </trkpt>
      <trkpt lat="42.44184" lon="24.20376">
        <ele>424.75117</ele>
        <time>2022-03-07T12:59:19.542Z</time>
      </trkpt>
      <trkpt lat="42.44191" lon="24.20368">
        <ele>424.907318</ele>
        <time>2022-03-07T12:59:23.556Z</time>
      </trkpt>
      <trkpt lat="42.44199" lon="24.20358">
        <ele>425.084177</ele>
        <time>2022-03-07T12:59:27.558Z</time>
      </trkpt>
      <trkpt lat="42.44208" lon="24.20349">
        <ele>425.262763</ele>
        <time>2022-03-07T12:59:31.573Z</time>
      </trkpt>
      <trkpt lat="42.44216" lon="24.20338">
        <ele>425.452616</ele>
        <time>2022-03-07T12:59:35.543Z</time>
      </trkpt>
      <trkpt lat="42.44223" lon="24.2033">
        <ele>425.60469</ele>
        <time>2022-03-07T12:59:38.566Z</time>
      </trkpt>
      <trkpt lat="42.44231" lon="24.20322">
        <ele>425.765113</ele>
        <time>2022-03-07T12:59:41.563Z</time>
      </trkpt>
      <trkpt lat="42.44239" lon="24.20312">
        <ele>425.939139</ele>
        <time>2022-03-07T12:59:44.535Z</time>
      </trkpt>
      <trkpt lat="42.44247" lon="24.20302">
        <ele>426.124141</ele>
        <time>2022-03-07T12:59:47.565Z</time>
      </trkpt>
      <trkpt lat="42.44256" lon="24.20292">
        <ele>426.260754</ele>
        <time>2022-03-07T12:59:50.564Z</time>
      </trkpt>
      <trkpt lat="42.44266" lon="24.20281">
        <ele>426.073366</ele>
        <time>2022-03-07T12:59:53.561Z</time>
      </trkpt>
      <trkpt lat="42.44275" lon="24.2027">
        <ele>425.88976</ele>
        <time>2022-03-07T12:59:56.553Z</time>
      </trkpt>
      <trkpt lat="42.44285" lon="24.2026">
        <ele>425.709946</ele>
        <time>2022-03-07T12:59:59.552Z</time>
      </trkpt>
      <trkpt lat="42.44293" lon="24.20251">
        <ele>425.550507</ele>
        <time>2022-03-07T13:00:02.541Z</time>
      </trkpt>
      <trkpt lat="42.44302" lon="24.20241">
        <ele>425.378615</ele>
        <time>2022-03-07T13:00:06.547Z</time>
      </trkpt>
      <trkpt lat="42.44309" lon="24.2023">
        <ele>425.222752</ele>
        <time>2022-03-07T13:00:10.551Z</time>
      </trkpt>
      <trkpt lat="42.44314" lon="24.20219">
        <ele>425.081719</ele>
        <time>2022-03-07T13:00:13.551Z</time>
      </trkpt>
      <trkpt lat="42.44318" lon="24.20205">
        <ele>424.917375</ele>
        <time>2022-03-07T13:00:16.556Z</time>
      </trkpt>
      <trkpt lat="42.44322" lon="24.20191">
        <ele>424.751075</ele>
        <time>2022-03-07T13:00:19.548Z</time>
      </trkpt>
      <trkpt lat="42.44324" lon="24.20174">
        <ele>424.559615</ele>
        <time>2022-03-07T13:00:22.535Z</time>
      </trkpt>
      <trkpt lat="42.44325" lon="24.20161">
        <ele>424.414418</ele>
        <time>2022-03-07T13:00:24.536Z</time>
      </trkpt>
      <trkpt lat="42.44326" lon="24.20148">
        <ele>424.27121</ele>
        <time>2022-03-07T13:00:26.551Z</time>
      </trkpt>
      <trkpt lat="42.44327" lon="24.20134">
        <ele>424.121973</ele>
        <time>2022-03-07T13:00:28.556Z</time>
      </trkpt>
      <trkpt lat="42.44329" lon="24.20121">
        <ele>423.968544</ele>
        <time>2022-03-07T13:00:30.557Z</time>
      </trkpt>
      <trkpt lat="42.44331" lon="24.20107">
        <ele>423.813252</ele>
        <time>2022-03-07T13:00:32.548Z</time>
      </trkpt>
      <trkpt lat="42.44334" lon="24.20093">
        <ele>423.652479</ele>
        <time>2022-03-07T13:00:34.559Z</time>
      </trkpt>
      <trkpt lat="42.44338" lon="24.20079">
        <ele>423.703348</ele>
        <time>2022-03-07T13:00:36.590Z</time>
      </trkpt>
      <trkpt lat="42.44342" lon="24.20066">
        <ele>423.818905</ele>
        <time>2022-03-07T13:00:38.568Z</time>
      </trkpt>
      <trkpt lat="42.44345" lon="24.20055">
        <ele>423.924382</ele>
        <time>2022-03-07T13:00:40.554Z</time>
      </trkpt>
      <trkpt lat="42.4435" lon="24.2004">
        <ele>424.062939</ele>
        <time>2022-03-07T13:00:43.555Z</time>
      </trkpt>
      <trkpt lat="42.44356" lon="24.20022">
        <ele>424.224177</ele>
        <time>2022-03-07T13:00:46.555Z</time>
      </trkpt>
      <trkpt lat="42.4436" lon="24.20011">
        <ele>424.331202</ele>
        <time>2022-03-07T13:00:48.558Z</time>
      </trkpt>
      <trkpt lat="42.44364" lon="24.19999">
        <ele>424.44019</ele>
        <time>2022-03-07T13:00:50.554Z</time>
      </trkpt>
      <trkpt lat="42.44368" lon="24.19988">
        <ele>424.546143</ele>
        <time>2022-03-07T13:00:52.544Z</time>
      </trkpt>
      <trkpt lat="42.44372" lon="24.19977">
        <ele>424.652595</ele>
        <time>2022-03-07T13:00:54.557Z</time>
      </trkpt>
      <trkpt lat="42.44377" lon="24.19962">
        <ele>424.790688</ele>
        <time>2022-03-07T13:00:57.563Z</time>
      </trkpt>
      <trkpt lat="42.44381" lon="24.19949">
        <ele>424.914022</ele>
        <time>2022-03-07T13:01:00.556Z</time>
      </trkpt>
      <trkpt lat="42.44387" lon="24.19933">
        <ele>425.058353</ele>
        <time>2022-03-07T13:01:03.555Z</time>
      </trkpt>
      <trkpt lat="42.44393" lon="24.19919">
        <ele>425.200695</ele>
        <time>2022-03-07T13:01:06.537Z</time>
      </trkpt>
      <trkpt lat="42.44399" lon="24.19906">
        <ele>425.330581</ele>
        <time>2022-03-07T13:01:09.564Z</time>
      </trkpt>
      <trkpt lat="42.44407" lon="24.19895">
        <ele>425.459541</ele>
        <time>2022-03-07T13:01:12.557Z</time>
      </trkpt>
      <trkpt lat="42.44413" lon="24.19884">
        <ele>425.578201</ele>
        <time>2022-03-07T13:01:15.565Z</time>
      </trkpt>
      <trkpt lat="42.4442" lon="24.19875">
        <ele>425.68624</ele>
        <time>2022-03-07T13:01:18.547Z</time>
      </trkpt>
      <trkpt lat="42.44427" lon="24.19864">
        <ele>425.846524</ele>
        <time>2022-03-07T13:01:22.549Z</time>
      </trkpt>
      <trkpt lat="42.44435" lon="24.19852">
        <ele>426.010698</ele>
        <time>2022-03-07T13:01:26.558Z</time>
      </trkpt>
      <trkpt lat="42.44442" lon="24.19841">
        <ele>426.163233</ele>
        <time>2022-03-07T13:01:30.588Z</time>
      </trkpt>
      <trkpt lat="42.44448" lon="24.19831">
        <ele>426.299768</ele>
        <time>2022-03-07T13:01:33.564Z</time>
      </trkpt>
      <trkpt lat="42.44455" lon="24.19821">
        <ele>426.441217</ele>
        <time>2022-03-07T13:01:36.573Z</time>
      </trkpt>
      <trkpt lat="42.44462" lon="24.19811">
        <ele>426.585636</ele>
        <time>2022-03-07T13:01:39.563Z</time>
      </trkpt>
      <trkpt lat="42.44469" lon="24.19803">
        <ele>426.717184</ele>
        <time>2022-03-07T13:01:42.578Z</time>
      </trkpt>
      <trkpt lat="42.44477" lon="24.19791">
        <ele>426.884717</ele>
        <time>2022-03-07T13:01:46.553Z</time>
      </trkpt>
      <trkpt lat="42.44486" lon="24.19779">
        <ele>427.057222</ele>
        <time>2022-03-07T13:01:50.543Z</time>
      </trkpt>
      <trkpt lat="42.44493" lon="24.19769">
        <ele>427.202175</ele>
        <time>2022-03-07T13:01:53.589Z</time>
      </trkpt>
      <trkpt lat="42.445" lon="24.19757">
        <ele>427.370801</ele>
        <time>2022-03-07T13:01:57.554Z</time>
      </trkpt>
      <trkpt lat="42.44508" lon="24.19745">
        <ele>427.532473</ele>
        <time>2022-03-07T13:02:01.566Z</time>
      </trkpt>
      <trkpt lat="42.44515" lon="24.19734">
        <ele>427.692092</ele>
        <time>2022-03-07T13:02:05.557Z</time>
      </trkpt>
      <trkpt lat="42.44523" lon="24.19723">
        <ele>427.844739</ele>
        <time>2022-03-07T13:02:09.561Z</time>
      </trkpt>
      <trkpt lat="42.44529" lon="24.19714">
        <ele>427.979501</ele>
        <time>2022-03-07T13:02:12.556Z</time>
      </trkpt>
      <trkpt lat="42.44536" lon="24.19704">
        <ele>428.119695</ele>
        <time>2022-03-07T13:02:15.557Z</time>
      </trkpt>
      <trkpt lat="42.44542" lon="24.19693">
        <ele>428.212943</ele>
        <time>2022-03-07T13:02:18.536Z</time>
      </trkpt>
      <trkpt lat="42.44548" lon="24.19682">
        <ele>428.147536</ele>
        <time>2022-03-07T13:02:21.561Z</time>
      </trkpt>
      <trkpt lat="42.44553" lon="24.1967">
        <ele>428.08466</ele>
        <time>2022-03-07T13:02:24.557Z</time>
      </trkpt>
      <trkpt lat="42.44559" lon="24.19659">
        <ele>428.021098</ele>
        <time>2022-03-07T13:02:27.559Z</time>
      </trkpt>
      <trkpt lat="42.44564" lon="24.19648">
        <ele>427.955999</ele>
        <time>2022-03-07T13:02:30.554Z</time>
      </trkpt>
      <trkpt lat="42.4457" lon="24.19636">
        <ele>427.888271</ele>
        <time>2022-03-07T13:02:33.554Z</time>
      </trkpt>
      <trkpt lat="42.44576" lon="24.19623">
        <ele>427.820148</ele>
        <time>2022-03-07T13:02:36.548Z</time>
      </trkpt>
      <trkpt lat="42.44581" lon="24.19613">
        <ele>427.757804</ele>
        <time>2022-03-07T13:02:39.595Z</time>
      </trkpt>
      <trkpt lat="42.44587" lon="24.19601">
        <ele>427.692788</ele>
        <time>2022-03-07T13:02:42.542Z</time>
      </trkpt>
      <trkpt lat="42.44594" lon="24.19588">
        <ele>427.617939</ele>
        <time>2022-03-07T13:02:45.546Z</time>
      </trkpt>
      <trkpt lat="42.446" lon="24.19576">
        <ele>427.545719</ele>
        <time>2022-03-07T13:02:48.551Z</time>
      </trkpt>
      <trkpt lat="42.44607" lon="24.19563">
        <ele>427.47352</ele>
        <time>2022-03-07T13:02:51.567Z</time>
      </trkpt>
      <trkpt lat="42.44613" lon="24.19551">
        <ele>427.404373</ele>
        <time>2022-03-07T13:02:54.557Z</time>
      </trkpt>
      <trkpt lat="42.44619" lon="24.19539">
        <ele>427.332514</ele>
        <time>2022-03-07T13:02:57.565Z</time>
      </trkpt>
      <trkpt lat="42.44625" lon="24.19526">
        <ele>427.261011</ele>
        <time>2022-03-07T13:03:00.555Z</time>
      </trkpt>
      <trkpt lat="42.44632" lon="24.19513">
        <ele>427.186546</ele>
        <time>2022-03-07T13:03:03.559Z</time>
      </trkpt>
      <trkpt lat="42.4464" lon="24.19501">
        <ele>427.112755</ele>
        <time>2022-03-07T13:03:06.598Z</time>
      </trkpt>
      <trkpt lat="42.44647" lon="24.19489">
        <ele>427.243951</ele>
        <time>2022-03-07T13:03:09.558Z</time>
      </trkpt>
      <trkpt lat="42.44654" lon="24.19477">
        <ele>427.559381</ele>
        <time>2022-03-07T13:03:12.562Z</time>
      </trkpt>
      <trkpt lat="42.44662" lon="24.19466">
        <ele>427.875429</ele>
        <time>2022-03-07T13:03:15.561Z</time>
      </trkpt>
      <trkpt lat="42.4467" lon="24.19456">
        <ele>428.189928</ele>
        <time>2022-03-07T13:03:18.546Z</time>
      </trkpt>
      <trkpt lat="42.44679" lon="24.19446">
        <ele>428.496422</ele>
        <time>2022-03-07T13:03:21.548Z</time>
      </trkpt>
      <trkpt lat="42.44687" lon="24.19437">
        <ele>428.791212</ele>
        <time>2022-03-07T13:03:24.553Z</time>
      </trkpt>
      <trkpt lat="42.44696" lon="24.19428">
        <ele>429.080976</ele>
        <time>2022-03-07T13:03:27.551Z</time>
      </trkpt>
      <trkpt lat="42.44705" lon="24.1942">
        <ele>429.391567</ele>
        <time>2022-03-07T13:03:30.559Z</time>
      </trkpt>
      <trkpt lat="42.44714" lon="24.19411">
        <ele>429.705822</ele>
        <time>2022-03-07T13:03:33.551Z</time>
      </trkpt>
      <trkpt lat="42.44723" lon="24.19404">
        <ele>429.992034</ele>
        <time>2022-03-07T13:03:36.562Z</time>
      </trkpt>
      <trkpt lat="42.44733" lon="24.19399">
        <ele>430.264426</ele>
        <time>2022-03-07T13:03:39.582Z</time>
      </trkpt>
      <trkpt lat="42.44743" lon="24.19394">
        <ele>430.568739</ele>
        <time>2022-03-07T13:03:42.557Z</time>
      </trkpt>
      <trkpt lat="42.44752" lon="24.19389">
        <ele>430.853558</ele>
        <time>2022-03-07T13:03:45.570Z</time>
      </trkpt>
      <trkpt lat="42.44762" lon="24.19385">
        <ele>431.12132</ele>
        <time>2022-03-07T13:03:48.597Z</time>
      </trkpt>
      <trkpt lat="42.44773" lon="24.19382">
        <ele>431.446302</ele>
        <time>2022-03-07T13:03:52.554Z</time>
      </trkpt>
      <trkpt lat="42.44783" lon="24.19379">
        <ele>431.728795</ele>
        <time>2022-03-07T13:03:56.542Z</time>
      </trkpt>
      <trkpt lat="42.44793" lon="24.19376">
        <ele>432.005836</ele>
        <time>2022-03-07T13:04:00.554Z</time>
      </trkpt>
      <trkpt lat="42.44803" lon="24.19374">
        <ele>432.567092</ele>
        <time>2022-03-07T13:04:04.566Z</time>
      </trkpt>
      <trkpt lat="42.44812" lon="24.19374">
        <ele>433.145026</ele>
        <time>2022-03-07T13:04:08.542Z</time>
      </trkpt>
      <trkpt lat="42.44823" lon="24.19373">
        <ele>433.816903</ele>
        <time>2022-03-07T13:04:13.566Z</time>
      </trkpt>
      <trkpt lat="42.44834" lon="24.19374">
        <ele>434.507496</ele>
        <time>2022-03-07T13:04:18.539Z</time>
      </trkpt>
      <trkpt lat="42.44843" lon="24.19375">
        <ele>435.093461</ele>
        <time>2022-03-07T13:04:23.599Z</time>
      </trkpt>
      <trkpt lat="42.44852" lon="24.19376">
        <ele>435.674559</ele>
        <time>2022-03-07T13:04:29.540Z</time>
      </trkpt>
      <trkpt lat="42.44862" lon="24.19377">
        <ele>436.296587</ele>
        <time>2022-03-07T13:04:35.555Z</time>
      </trkpt>
      <trkpt lat="42.44872" lon="24.19379">
        <ele>436.935419</ele>
        <time>2022-03-07T13:04:41.551Z</time>
      </trkpt>
      <trkpt lat="42.44881" lon="24.1938">
        <ele>437.523285</ele>
        <time>2022-03-07T13:04:47.547Z</time>
      </trkpt>
      <trkpt lat="42.44891" lon="24.19381">
        <ele>438.135108</ele>
        <time>2022-03-07T13:04:54.543Z</time>
      </trkpt>
      <trkpt lat="42.449" lon="24.19382">
        <ele>438.708568</ele>
        <time>2022-03-07T13:05:00.556Z</time>
      </trkpt>
      <trkpt lat="42.4491" lon="24.19384">
        <ele>439.340085</ele>
        <time>2022-03-07T13:05:06.552Z</time>
      </trkpt>
      <trkpt lat="42.4492" lon="24.19386">
        <ele>439.95462</ele>
        <time>2022-03-07T13:05:13.582Z</time>
      </trkpt>
      <trkpt lat="42.44929" lon="24.19387">
        <ele>440.539541</ele>
        <time>2022-03-07T13:05:19.545Z</time>
      </trkpt>
      <trkpt lat="42.44938" lon="24.19388">
        <ele>441.120141</ele>
        <time>2022-03-07T13:05:26.549Z</time>
      </trkpt>
      <trkpt lat="42.44947" lon="24.1939">
        <ele>441.695888</ele>
        <time>2022-03-07T13:05:32.548Z</time>
      </trkpt>
      <trkpt lat="42.44957" lon="24.19392">
        <ele>442.308185</ele>
        <time>2022-03-07T13:05:38.543Z</time>
      </trkpt>
      <trkpt lat="42.44967" lon="24.19392">
        <ele>442.911207</ele>
        <time>2022-03-07T13:05:44.545Z</time>
      </trkpt>
      <trkpt lat="42.44976" lon="24.19392">
        <ele>443.531521</ele>
        <time>2022-03-07T13:05:50.547Z</time>
      </trkpt>
      <trkpt lat="42.44986" lon="24.19392">
        <ele>444.124145</ele>
        <time>2022-03-07T13:05:57.582Z</time>
      </trkpt>
      <trkpt lat="42.44996" lon="24.19392">
        <ele>444.81334</ele>
        <time>2022-03-07T13:06:04.566Z</time>
      </trkpt>
      <trkpt lat="42.45007" lon="24.19391">
        <ele>445.471031</ele>
        <time>2022-03-07T13:06:10.586Z</time>
      </trkpt>
      <trkpt lat="42.45016" lon="24.1939">
        <ele>446.065784</ele>
        <time>2022-03-07T13:06:16.578Z</time>
      </trkpt>
      <trkpt lat="42.45025" lon="24.19389">
        <ele>446.674259</ele>
        <time>2022-03-07T13:06:22.563Z</time>
      </trkpt>
      <trkpt lat="42.45035" lon="24.19388">
        <ele>447.295094</ele>
        <time>2022-03-07T13:06:29.555Z</time>
      </trkpt>
      <trkpt lat="42.45044" lon="24.19386">
        <ele>447.924354</ele>
        <time>2022-03-07T13:06:36.553Z</time>
      </trkpt>
      <trkpt lat="42.45054" lon="24.19382">
        <ele>448.545112</ele>
        <time>2022-03-07T13:06:42.556Z</time>
      </trkpt>
      <trkpt lat="42.45063" lon="24.19381">
        <ele>449.134888</ele>
        <time>2022-03-07T13:06:48.541Z</time>
      </trkpt>
      <trkpt lat="42.45071" lon="24.19377">
        <ele>449.722079</ele>
        <time>2022-03-07T13:06:54.572Z</time>
      </trkpt>
      <trkpt lat="42.4508" lon="24.19374">
        <ele>450.302599</ele>
        <time>2022-03-07T13:07:00.548Z</time>
      </trkpt>
      <trkpt lat="42.45089" lon="24.19371">
        <ele>450.893193</ele>
        <time>2022-03-07T13:07:06.537Z</time>
      </trkpt>
      <trkpt lat="42.45098" lon="24.19367">
        <ele>451.477608</ele>
        <time>2022-03-07T13:07:12.558Z</time>
      </trkpt>
      <trkpt lat="42.45106" lon="24.19362">
        <ele>452.082119</ele>
        <time>2022-03-07T13:07:18.574Z</time>
      </trkpt>
      <trkpt lat="42.45115" lon="24.19357">
        <ele>452.692535</ele>
        <time>2022-03-07T13:07:24.538Z</time>
      </trkpt>
      <trkpt lat="42.45124" lon="24.19352">
        <ele>453.338596</ele>
        <time>2022-03-07T13:07:31.581Z</time>
      </trkpt>
      <trkpt lat="42.45133" lon="24.19347">
        <ele>453.916054</ele>
        <time>2022-03-07T13:07:37.554Z</time>
      </trkpt>
      <trkpt lat="42.45142" lon="24.19341">
        <ele>454.570562</ele>
        <time>2022-03-07T13:07:44.543Z</time>
      </trkpt>
      <trkpt lat="42.4515" lon="24.19335">
        <ele>455.105376</ele>
        <time>2022-03-07T13:07:50.546Z</time>
      </trkpt>
      <trkpt lat="42.45158" lon="24.1933">
        <ele>455.564092</ele>
        <time>2022-03-07T13:07:56.554Z</time>
      </trkpt>
      <trkpt lat="42.45166" lon="24.19323">
        <ele>456.055718</ele>
        <time>2022-03-07T13:08:02.537Z</time>
      </trkpt>
      <trkpt lat="42.45175" lon="24.19318">
        <ele>456.534932</ele>
        <time>2022-03-07T13:08:08.558Z</time>
      </trkpt>
      <trkpt lat="42.45184" lon="24.19312">
        <ele>457.052764</ele>
        <time>2022-03-07T13:08:15.551Z</time>
      </trkpt>
      <trkpt lat="42.45192" lon="24.19305">
        <ele>457.523099</ele>
        <time>2022-03-07T13:08:21.568Z</time>
      </trkpt>
      <trkpt lat="42.452" lon="24.19299">
        <ele>458.002882</ele>
        <time>2022-03-07T13:08:27.557Z</time>
      </trkpt>
      <trkpt lat="42.45209" lon="24.19293">
        <ele>458.492839</ele>
        <time>2022-03-07T13:08:33.580Z</time>
      </trkpt>
      <trkpt lat="42.45217" lon="24.19286">
        <ele>458.983201</ele>
        <time>2022-03-07T13:08:39.563Z</time>
      </trkpt>
      <trkpt lat="42.45226" lon="24.1928">
        <ele>459.460577</ele>
        <time>2022-03-07T13:08:45.554Z</time>
      </trkpt>
      <trkpt lat="42.45234" lon="24.19275">
        <ele>459.918306</ele>
        <time>2022-03-07T13:08:51.560Z</time>
      </trkpt>
      <trkpt lat="42.45242" lon="24.19268">
        <ele>460.408064</ele>
        <time>2022-03-07T13:08:57.560Z</time>
      </trkpt>
      <trkpt lat="42.45251" lon="24.19262">
        <ele>460.901191</ele>
        <time>2022-03-07T13:09:03.583Z</time>
      </trkpt>
      <trkpt lat="42.4526" lon="24.19256">
        <ele>461.426524</ele>
        <time>2022-03-07T13:09:09.533Z</time>
      </trkpt>
      <trkpt lat="42.45269" lon="24.19251">
        <ele>461.904368</ele>
        <time>2022-03-07T13:09:15.566Z</time>
      </trkpt>
      <trkpt lat="42.45277" lon="24.19244">
        <ele>462.38279</ele>
        <time>2022-03-07T13:09:21.552Z</time>
      </trkpt>
      <trkpt lat="42.45286" lon="24.19238">
        <ele>462.883278</ele>
        <time>2022-03-07T13:09:27.561Z</time>
      </trkpt>
      <trkpt lat="42.45294" lon="24.19231">
        <ele>463.367381</ele>
        <time>2022-03-07T13:09:33.550Z</time>
      </trkpt>
      <trkpt lat="42.45302" lon="24.19226">
        <ele>463.831239</ele>
        <time>2022-03-07T13:09:39.588Z</time>
      </trkpt>
      <trkpt lat="42.45311" lon="24.1922">
        <ele>464.404194</ele>
        <time>2022-03-07T13:09:46.547Z</time>
      </trkpt>
      <trkpt lat="42.45319" lon="24.19212">
        <ele>464.942592</ele>
        <time>2022-03-07T13:09:52.559Z</time>
      </trkpt>
      <trkpt lat="42.45327" lon="24.19206">
        <ele>465.495126</ele>
        <time>2022-03-07T13:09:58.539Z</time>
      </trkpt>
      <trkpt lat="42.45336" lon="24.19199">
        <ele>466.071027</ele>
        <time>2022-03-07T13:10:05.543Z</time>
      </trkpt>
      <trkpt lat="42.45345" lon="24.19194">
        <ele>466.623541</ele>
        <time>2022-03-07T13:10:11.562Z</time>
      </trkpt>
      <trkpt lat="42.45353" lon="24.19189">
        <ele>467.148815</ele>
        <time>2022-03-07T13:10:16.565Z</time>
      </trkpt>
      <trkpt lat="42.45361" lon="24.19182">
        <ele>467.686306</ele>
        <time>2022-03-07T13:10:22.540Z</time>
      </trkpt>
      <trkpt lat="42.4537" lon="24.19177">
        <ele>468.273737</ele>
        <time>2022-03-07T13:10:28.565Z</time>
      </trkpt>
      <trkpt lat="42.45379" lon="24.19169">
        <ele>468.862642</ele>
        <time>2022-03-07T13:10:34.553Z</time>
      </trkpt>
      <trkpt lat="42.45387" lon="24.19163">
        <ele>469.398993</ele>
        <time>2022-03-07T13:10:40.583Z</time>
      </trkpt>
      <trkpt lat="42.45396" lon="24.19156">
        <ele>469.979904</ele>
        <time>2022-03-07T13:10:46.544Z</time>
      </trkpt>
      <trkpt lat="42.45405" lon="24.1915">
        <ele>470.562202</ele>
        <time>2022-03-07T13:10:52.569Z</time>
      </trkpt>
      <trkpt lat="42.45413" lon="24.19145">
        <ele>471.087475</ele>
        <time>2022-03-07T13:10:58.564Z</time>
      </trkpt>
      <trkpt lat="42.45422" lon="24.19138">
        <ele>471.647868</ele>
        <time>2022-03-07T13:11:04.546Z</time>
      </trkpt>
      <trkpt lat="42.45431" lon="24.19132">
        <ele>472.239202</ele>
        <time>2022-03-07T13:11:10.551Z</time>
      </trkpt>
      <trkpt lat="42.45439" lon="24.19126">
        <ele>472.78314</ele>
        <time>2022-03-07T13:11:16.558Z</time>
      </trkpt>
      <trkpt lat="42.45447" lon="24.19121">
        <ele>473.300805</ele>
        <time>2022-03-07T13:11:22.582Z</time>
      </trkpt>
      <trkpt lat="42.45455" lon="24.19115">
        <ele>473.830045</ele>
        <time>2022-03-07T13:11:28.543Z</time>
      </trkpt>
      <trkpt lat="42.45464" lon="24.19109">
        <ele>474.379863</ele>
        <time>2022-03-07T13:11:34.565Z</time>
      </trkpt>
      <trkpt lat="42.45473" lon="24.19102">
        <ele>474.870569</ele>
        <time>2022-03-07T13:11:40.560Z</time>
      </trkpt>
      <trkpt lat="42.45482" lon="24.19096">
        <ele>475.355643</ele>
        <time>2022-03-07T13:11:46.558Z</time>
      </trkpt>
      <trkpt lat="42.45492" lon="24.1909">
        <ele>475.841858</ele>
        <time>2022-03-07T13:11:53.563Z</time>
      </trkpt>
      <trkpt lat="42.45501" lon="24.19083">
        <ele>476.344931</ele>
        <time>2022-03-07T13:12:00.544Z</time>
      </trkpt>
      <trkpt lat="42.4551" lon="24.19075">
        <ele>476.830153</ele>
        <time>2022-03-07T13:12:07.552Z</time>
      </trkpt>
      <trkpt lat="42.45519" lon="24.19068">
        <ele>477.318475</ele>
        <time>2022-03-07T13:12:14.588Z</time>
      </trkpt>
      <trkpt lat="42.45528" lon="24.19061">
        <ele>477.812608</ele>
        <time>2022-03-07T13:12:21.552Z</time>
      </trkpt>
      <trkpt lat="42.45537" lon="24.19055">
        <ele>478.308807</ele>
        <time>2022-03-07T13:12:27.526Z</time>
      </trkpt>
      <trkpt lat="42.45546" lon="24.19049">
        <ele>478.775055</ele>
        <time>2022-03-07T13:12:33.590Z</time>
      </trkpt>
      <trkpt lat="42.45555" lon="24.19043">
        <ele>479.238445</ele>
        <time>2022-03-07T13:12:39.554Z</time>
      </trkpt>
      <trkpt lat="42.45563" lon="24.19037">
        <ele>479.670555</ele>
        <time>2022-03-07T13:12:45.563Z</time>
      </trkpt>
      <trkpt lat="42.45572" lon="24.19031">
        <ele>480.144099</ele>
        <time>2022-03-07T13:12:51.561Z</time>
      </trkpt>
      <trkpt lat="42.4558" lon="24.19025">
        <ele>480.586178</ele>
        <time>2022-03-07T13:12:57.559Z</time>
      </trkpt>
      <trkpt lat="42.45589" lon="24.19019">
        <ele>481.024712</ele>
        <time>2022-03-07T13:13:03.561Z</time>
      </trkpt>
      <trkpt lat="42.45598" lon="24.19013">
        <ele>481.507178</ele>
        <time>2022-03-07T13:13:09.565Z</time>
      </trkpt>
      <trkpt lat="42.45607" lon="24.19006">
        <ele>482.01115</ele>
        <time>2022-03-07T13:13:15.559Z</time>
      </trkpt>
      <trkpt lat="42.45616" lon="24.19">
        <ele>482.487841</ele>
        <time>2022-03-07T13:13:21.551Z</time>
      </trkpt>
      <trkpt lat="42.45626" lon="24.18993">
        <ele>483.063428</ele>
        <time>2022-03-07T13:13:28.598Z</time>
      </trkpt>
      <trkpt lat="42.45634" lon="24.18987">
        <ele>483.782168</ele>
        <time>2022-03-07T13:13:34.553Z</time>
      </trkpt>
      <trkpt lat="42.45643" lon="24.18981">
        <ele>484.43591</ele>
        <time>2022-03-07T13:13:40.554Z</time>
      </trkpt>
      <trkpt lat="42.45652" lon="24.18975">
        <ele>485.181021</ele>
        <time>2022-03-07T13:13:47.610Z</time>
      </trkpt>
      <trkpt lat="42.4566" lon="24.18969">
        <ele>485.842357</ele>
        <time>2022-03-07T13:13:53.553Z</time>
      </trkpt>
      <trkpt lat="42.45669" lon="24.18961">
        <ele>486.563761</ele>
        <time>2022-03-07T13:14:00.573Z</time>
      </trkpt>
      <trkpt lat="42.45678" lon="24.18955">
        <ele>487.277583</ele>
        <time>2022-03-07T13:14:06.554Z</time>
      </trkpt>
      <trkpt lat="42.45687" lon="24.18949">
        <ele>487.998946</ele>
        <time>2022-03-07T13:14:12.599Z</time>
      </trkpt>
      <trkpt lat="42.45695" lon="24.18944">
        <ele>488.666324</ele>
        <time>2022-03-07T13:14:18.598Z</time>
      </trkpt>
      <trkpt lat="42.45704" lon="24.18937">
        <ele>489.382941</ele>
        <time>2022-03-07T13:14:25.576Z</time>
      </trkpt>
      <trkpt lat="42.45712" lon="24.18931">
        <ele>490.061818</ele>
        <time>2022-03-07T13:14:31.552Z</time>
      </trkpt>
      <trkpt lat="42.4572" lon="24.18924">
        <ele>490.716129</ele>
        <time>2022-03-07T13:14:37.567Z</time>
      </trkpt>
      <trkpt lat="42.45728" lon="24.18919">
        <ele>491.362569</ele>
        <time>2022-03-07T13:14:43.560Z</time>
      </trkpt>
      <trkpt lat="42.45738" lon="24.18914">
        <ele>492.058699</ele>
        <time>2022-03-07T13:14:50.558Z</time>
      </trkpt>
      <trkpt lat="42.45746" lon="24.18907">
        <ele>492.777331</ele>
        <time>2022-03-07T13:14:56.553Z</time>
      </trkpt>
      <trkpt lat="42.45755" lon="24.189">
        <ele>493.479934</ele>
        <time>2022-03-07T13:15:02.563Z</time>
      </trkpt>
      <trkpt lat="42.45763" lon="24.18894">
        <ele>494.141267</ele>
        <time>2022-03-07T13:15:08.557Z</time>
      </trkpt>
      <trkpt lat="42.45772" lon="24.18888">
        <ele>494.841075</ele>
        <time>2022-03-07T13:15:15.562Z</time>
      </trkpt>
      <trkpt lat="42.4578" lon="24.18883">
        <ele>495.491134</ele>
        <time>2022-03-07T13:15:21.558Z</time>
      </trkpt>
      <trkpt lat="42.45788" lon="24.18877">
        <ele>495.87424</ele>
        <time>2022-03-07T13:15:27.549Z</time>
      </trkpt>
      <trkpt lat="42.45796" lon="24.18871">
        <ele>496.202883</ele>
        <time>2022-03-07T13:15:33.556Z</time>
      </trkpt>
      <trkpt lat="42.45805" lon="24.18864">
        <ele>496.539203</ele>
        <time>2022-03-07T13:15:40.549Z</time>
      </trkpt>
      <trkpt lat="42.45813" lon="24.18857">
        <ele>496.882471</ele>
        <time>2022-03-07T13:15:46.554Z</time>
      </trkpt>
      <trkpt lat="42.45821" lon="24.18851">
        <ele>497.196503</ele>
        <time>2022-03-07T13:15:52.547Z</time>
      </trkpt>
      <trkpt lat="42.4583" lon="24.18845">
        <ele>497.533691</ele>
        <time>2022-03-07T13:15:59.558Z</time>
      </trkpt>
      <trkpt lat="42.45837" lon="24.18837">
        <ele>497.853867</ele>
        <time>2022-03-07T13:16:05.542Z</time>
      </trkpt>
      <trkpt lat="42.45845" lon="24.18828">
        <ele>498.205526</ele>
        <time>2022-03-07T13:16:11.559Z</time>
      </trkpt>
      <trkpt lat="42.45854" lon="24.1882">
        <ele>498.574601</ele>
        <time>2022-03-07T13:16:17.561Z</time>
      </trkpt>
      <trkpt lat="42.45862" lon="24.18811">
        <ele>498.946048</ele>
        <time>2022-03-07T13:16:23.557Z</time>
      </trkpt>
      <trkpt lat="42.45869" lon="24.188">
        <ele>499.308564</ele>
        <time>2022-03-07T13:16:29.545Z</time>
      </trkpt>
      <trkpt lat="42.45876" lon="24.18789">
        <ele>499.682491</ele>
        <time>2022-03-07T13:16:35.554Z</time>
      </trkpt>
      <trkpt lat="42.45882" lon="24.18778">
        <ele>500.043255</ele>
        <time>2022-03-07T13:16:41.577Z</time>
      </trkpt>
      <trkpt lat="42.45889" lon="24.18768">
        <ele>500.381633</ele>
        <time>2022-03-07T13:16:47.546Z</time>
      </trkpt>
      <trkpt lat="42.45905" lon="24.18747">
        <ele>501.162276</ele>
        <time>2022-03-07T13:18:19.560Z</time>
      </trkpt>
      <trkpt lat="42.45912" lon="24.18735">
        <ele>501.553537</ele>
        <time>2022-03-07T13:18:24.561Z</time>
      </trkpt>
      <trkpt lat="42.45918" lon="24.18723">
        <ele>501.898846</ele>
        <time>2022-03-07T13:18:28.542Z</time>
      </trkpt>
      <trkpt lat="42.45925" lon="24.18712">
        <ele>502.096635</ele>
        <time>2022-03-07T13:18:32.559Z</time>
      </trkpt>
      <trkpt lat="42.45931" lon="24.18701">
        <ele>502.29179</ele>
        <time>2022-03-07T13:18:36.561Z</time>
      </trkpt>
      <trkpt lat="42.45937" lon="24.1869">
        <ele>502.499952</ele>
        <time>2022-03-07T13:18:40.562Z</time>
      </trkpt>
      <trkpt lat="42.45944" lon="24.18679">
        <ele>502.698755</ele>
        <time>2022-03-07T13:18:44.555Z</time>
      </trkpt>
      <trkpt lat="42.4595" lon="24.18668">
        <ele>502.912889</ele>
        <time>2022-03-07T13:18:48.565Z</time>
      </trkpt>
      <trkpt lat="42.45957" lon="24.18657">
        <ele>503.122411</ele>
        <time>2022-03-07T13:18:52.558Z</time>
      </trkpt>
      <trkpt lat="42.45963" lon="24.18647">
        <ele>503.309887</ele>
        <time>2022-03-07T13:18:56.559Z</time>
      </trkpt>
      <trkpt lat="42.45971" lon="24.18636">
        <ele>503.531488</ele>
        <time>2022-03-07T13:19:00.561Z</time>
      </trkpt>
      <trkpt lat="42.45977" lon="24.18626">
        <ele>503.712711</ele>
        <time>2022-03-07T13:19:03.556Z</time>
      </trkpt>
      <trkpt lat="42.45984" lon="24.18613">
        <ele>503.949192</ele>
        <time>2022-03-07T13:19:07.580Z</time>
      </trkpt>
      <trkpt lat="42.45992" lon="24.18601">
        <ele>504.178858</ele>
        <time>2022-03-07T13:19:11.631Z</time>
      </trkpt>
      <trkpt lat="42.45998" lon="24.18589">
        <ele>504.398573</ele>
        <time>2022-03-07T13:19:15.558Z</time>
      </trkpt>
      <trkpt lat="42.46006" lon="24.18577">
        <ele>504.627726</ele>
        <time>2022-03-07T13:19:19.555Z</time>
      </trkpt>
      <trkpt lat="42.46013" lon="24.18565">
        <ele>504.84988</ele>
        <time>2022-03-07T13:19:23.552Z</time>
      </trkpt>
      <trkpt lat="42.4602" lon="24.18553">
        <ele>505.073261</ele>
        <time>2022-03-07T13:19:27.541Z</time>
      </trkpt>
      <trkpt lat="42.46027" lon="24.18542">
        <ele>505.285724</ele>
        <time>2022-03-07T13:19:31.563Z</time>
      </trkpt>
      <trkpt lat="42.46034" lon="24.18531">
        <ele>505.568646</ele>
        <time>2022-03-07T13:19:35.543Z</time>
      </trkpt>
      <trkpt lat="42.46041" lon="24.18519">
        <ele>505.93097</ele>
        <time>2022-03-07T13:19:39.557Z</time>
      </trkpt>
      <trkpt lat="42.46047" lon="24.18509">
        <ele>506.262419</ele>
        <time>2022-03-07T13:19:43.552Z</time>
      </trkpt>
      <trkpt lat="42.46054" lon="24.18498">
        <ele>506.595583</ele>
        <time>2022-03-07T13:19:47.552Z</time>
      </trkpt>
      <trkpt lat="42.4606" lon="24.18487">
        <ele>506.938896</ele>
        <time>2022-03-07T13:19:51.543Z</time>
      </trkpt>
      <trkpt lat="42.46067" lon="24.18476">
        <ele>507.276167</ele>
        <time>2022-03-07T13:19:55.554Z</time>
      </trkpt>
      <trkpt lat="42.46073" lon="24.18464">
        <ele>507.646142</ele>
        <time>2022-03-07T13:20:00.545Z</time>
      </trkpt>
      <trkpt lat="42.46079" lon="24.18454">
        <ele>507.954101</ele>
        <time>2022-03-07T13:20:04.553Z</time>
      </trkpt>
      <trkpt lat="42.46085" lon="24.18444">
        <ele>508.271671</ele>
        <time>2022-03-07T13:20:08.544Z</time>
      </trkpt>
      <trkpt lat="42.46092" lon="24.18433">
        <ele>508.597533</ele>
        <time>2022-03-07T13:20:12.550Z</time>
      </trkpt>
      <trkpt lat="42.46099" lon="24.18422">
        <ele>508.964122</ele>
        <time>2022-03-07T13:20:17.594Z</time>
      </trkpt>
      <trkpt lat="42.46105" lon="24.18412">
        <ele>509.279018</ele>
        <time>2022-03-07T13:20:21.567Z</time>
      </trkpt>
      <trkpt lat="42.46111" lon="24.18402">
        <ele>509.587755</ele>
        <time>2022-03-07T13:20:25.573Z</time>
      </trkpt>
      <trkpt lat="42.46118" lon="24.18393">
        <ele>509.894675</ele>
        <time>2022-03-07T13:20:29.570Z</time>
      </trkpt>
      <trkpt lat="42.46125" lon="24.18382">
        <ele>510.264685</ele>
        <time>2022-03-07T13:20:34.555Z</time>
      </trkpt>
      <trkpt lat="42.46131" lon="24.18373">
        <ele>510.562651</ele>
        <time>2022-03-07T13:20:38.560Z</time>
      </trkpt>
      <trkpt lat="42.46138" lon="24.18361">
        <ele>510.913883</ele>
        <time>2022-03-07T13:20:43.560Z</time>
      </trkpt>
      <trkpt lat="42.46146" lon="24.1835">
        <ele>511.27916</ele>
        <time>2022-03-07T13:20:48.561Z</time>
      </trkpt>
      <trkpt lat="42.46151" lon="24.1834">
        <ele>511.677982</ele>
        <time>2022-03-07T13:20:52.561Z</time>
      </trkpt>
      <trkpt lat="42.46156" lon="24.1833">
        <ele>512.077519</ele>
        <time>2022-03-07T13:20:56.562Z</time>
      </trkpt>
      <trkpt lat="42.46162" lon="24.18318">
        <ele>512.540051</ele>
        <time>2022-03-07T13:21:01.612Z</time>
      </trkpt>
      <trkpt lat="42.46169" lon="24.18307">
        <ele>513.005405</ele>
        <time>2022-03-07T13:21:06.561Z</time>
      </trkpt>
      <trkpt lat="42.46175" lon="24.18298">
        <ele>513.411083</ele>
        <time>2022-03-07T13:21:10.553Z</time>
      </trkpt>
      <trkpt lat="42.46181" lon="24.18289">
        <ele>513.80711</ele>
        <time>2022-03-07T13:21:14.558Z</time>
      </trkpt>
      <trkpt lat="42.46187" lon="24.18278">
        <ele>514.258387</ele>
        <time>2022-03-07T13:21:19.548Z</time>
      </trkpt>
      <trkpt lat="42.46194" lon="24.18267">
        <ele>514.710958</ele>
        <time>2022-03-07T13:21:24.556Z</time>
      </trkpt>
      <trkpt lat="42.462" lon="24.18258">
        <ele>515.143534</ele>
        <time>2022-03-07T13:21:29.601Z</time>
      </trkpt>
      <trkpt lat="42.46206" lon="24.18248">
        <ele>515.548748</ele>
        <time>2022-03-07T13:21:34.555Z</time>
      </trkpt>
      <trkpt lat="42.46212" lon="24.18238">
        <ele>515.950117</ele>
        <time>2022-03-07T13:21:39.566Z</time>
      </trkpt>
      <trkpt lat="42.46217" lon="24.18228">
        <ele>516.365775</ele>
        <time>2022-03-07T13:21:44.580Z</time>
      </trkpt>
      <trkpt lat="42.46223" lon="24.18216">
        <ele>516.832778</ele>
        <time>2022-03-07T13:21:50.543Z</time>
      </trkpt>
      <trkpt lat="42.46229" lon="24.18204">
        <ele>517.287432</ele>
        <time>2022-03-07T13:21:56.558Z</time>
      </trkpt>
      <trkpt lat="42.46234" lon="24.18194">
        <ele>517.713004</ele>
        <time>2022-03-07T13:22:02.534Z</time>
      </trkpt>
      <trkpt lat="42.4624" lon="24.18183">
        <ele>518.13828</ele>
        <time>2022-03-07T13:22:08.557Z</time>
      </trkpt>
      <trkpt lat="42.46246" lon="24.18173">
        <ele>518.547556</ele>
        <time>2022-03-07T13:22:13.549Z</time>
      </trkpt>
      <trkpt lat="42.46252" lon="24.18163">
        <ele>518.977949</ele>
        <time>2022-03-07T13:22:19.548Z</time>
      </trkpt>
      <trkpt lat="42.46258" lon="24.18153">
        <ele>519.339686</ele>
        <time>2022-03-07T13:22:25.561Z</time>
      </trkpt>
      <trkpt lat="42.46265" lon="24.18144">
        <ele>519.571576</ele>
        <time>2022-03-07T13:22:30.543Z</time>
      </trkpt>
      <trkpt lat="42.46271" lon="24.18135">
        <ele>519.807269</ele>
        <time>2022-03-07T13:22:35.559Z</time>
      </trkpt>
      <trkpt lat="42.46277" lon="24.18124">
        <ele>520.062982</ele>
        <time>2022-03-07T13:22:40.564Z</time>
      </trkpt>
      <trkpt lat="42.46284" lon="24.18113">
        <ele>520.317511</ele>
        <time>2022-03-07T13:22:45.544Z</time>
      </trkpt>
      <trkpt lat="42.4629" lon="24.18103">
        <ele>520.559055</ele>
        <time>2022-03-07T13:22:50.596Z</time>
      </trkpt>
      <trkpt lat="42.46297" lon="24.18094">
        <ele>520.800603</ele>
        <time>2022-03-07T13:22:55.559Z</time>
      </trkpt>
      <trkpt lat="42.46303" lon="24.18084">
        <ele>521.053887</ele>
        <time>2022-03-07T13:23:01.556Z</time>
      </trkpt>
      <trkpt lat="42.46309" lon="24.18073">
        <ele>521.311087</ele>
        <time>2022-03-07T13:23:07.602Z</time>
      </trkpt>
      <trkpt lat="42.46316" lon="24.18062">
        <ele>521.568649</ele>
        <time>2022-03-07T13:23:12.565Z</time>
      </trkpt>
      <trkpt lat="42.46322" lon="24.18052">
        <ele>521.809501</ele>
        <time>2022-03-07T13:23:17.563Z</time>
      </trkpt>
      <trkpt lat="42.46328" lon="24.18041">
        <ele>522.057966</ele>
        <time>2022-03-07T13:23:23.561Z</time>
      </trkpt>
      <trkpt lat="42.46335" lon="24.18031">
        <ele>522.311747</ele>
        <time>2022-03-07T13:23:29.553Z</time>
      </trkpt>
      <trkpt lat="42.46341" lon="24.18021">
        <ele>522.563615</ele>
        <time>2022-03-07T13:23:35.553Z</time>
      </trkpt>
      <trkpt lat="42.46348" lon="24.18009">
        <ele>522.8373</ele>
        <time>2022-03-07T13:23:41.565Z</time>
      </trkpt>
      <trkpt lat="42.46354" lon="24.18">
        <ele>523.069685</ele>
        <time>2022-03-07T13:23:46.543Z</time>
      </trkpt>
      <trkpt lat="42.46361" lon="24.17989">
        <ele>523.339406</ele>
        <time>2022-03-07T13:23:52.556Z</time>
      </trkpt>
      <trkpt lat="42.46367" lon="24.17978">
        <ele>523.584991</ele>
        <time>2022-03-07T13:23:57.542Z</time>
      </trkpt>
      <trkpt lat="42.46373" lon="24.17969">
        <ele>523.806451</ele>
        <time>2022-03-07T13:24:02.592Z</time>
      </trkpt>
      <trkpt lat="42.46379" lon="24.17958">
        <ele>524.037092</ele>
        <time>2022-03-07T13:24:07.585Z</time>
      </trkpt>
      <trkpt lat="42.46385" lon="24.17948">
        <ele>524.266773</ele>
        <time>2022-03-07T13:24:12.599Z</time>
      </trkpt>
      <trkpt lat="42.46391" lon="24.17938">
        <ele>524.48669</ele>
        <time>2022-03-07T13:24:17.555Z</time>
      </trkpt>
      <trkpt lat="42.46397" lon="24.17928">
        <ele>524.692826</ele>
        <time>2022-03-07T13:24:22.562Z</time>
      </trkpt>
      <trkpt lat="42.46403" lon="24.17916">
        <ele>524.941226</ele>
        <time>2022-03-07T13:24:28.541Z</time>
      </trkpt>
      <trkpt lat="42.46409" lon="24.17906">
        <ele>525.170509</ele>
        <time>2022-03-07T13:24:33.541Z</time>
      </trkpt>
      <trkpt lat="42.46415" lon="24.17895">
        <ele>525.397164</ele>
        <time>2022-03-07T13:24:38.552Z</time>
      </trkpt>
      <trkpt lat="42.46422" lon="24.17884">
        <ele>525.641229</ele>
        <time>2022-03-07T13:24:43.559Z</time>
      </trkpt>
      <trkpt lat="42.46428" lon="24.17875">
        <ele>525.853543</ele>
        <time>2022-03-07T13:24:48.551Z</time>
      </trkpt>
      <trkpt lat="42.46434" lon="24.17865">
        <ele>526.069303</ele>
        <time>2022-03-07T13:24:52.562Z</time>
      </trkpt>
      <trkpt lat="42.4644" lon="24.17853">
        <ele>526.317756</ele>
        <time>2022-03-07T13:24:57.553Z</time>
      </trkpt>
      <trkpt lat="42.46447" lon="24.17842">
        <ele>526.560049</ele>
        <time>2022-03-07T13:25:02.591Z</time>
      </trkpt>
      <trkpt lat="42.46453" lon="24.17832">
        <ele>526.772136</ele>
        <time>2022-03-07T13:25:06.582Z</time>
      </trkpt>
      <trkpt lat="42.4646" lon="24.17822">
        <ele>527.003108</ele>
        <time>2022-03-07T13:25:10.533Z</time>
      </trkpt>
      <trkpt lat="42.46467" lon="24.17811">
        <ele>527.258903</ele>
        <time>2022-03-07T13:25:15.533Z</time>
      </trkpt>
      <trkpt lat="42.46473" lon="24.178">
        <ele>527.495013</ele>
        <time>2022-03-07T13:25:19.561Z</time>
      </trkpt>
      <trkpt lat="42.46479" lon="24.1779">
        <ele>527.719769</ele>
        <time>2022-03-07T13:25:23.571Z</time>
      </trkpt>
      <trkpt lat="42.46487" lon="24.17779">
        <ele>527.979389</ele>
        <time>2022-03-07T13:25:27.563Z</time>
      </trkpt>
      <trkpt lat="42.46493" lon="24.17769">
        <ele>528.228189</ele>
        <time>2022-03-07T13:25:31.565Z</time>
      </trkpt>
      <trkpt lat="42.46499" lon="24.17759">
        <ele>528.477477</ele>
        <time>2022-03-07T13:25:35.551Z</time>
      </trkpt>
      <trkpt lat="42.46505" lon="24.17749">
        <ele>528.721365</ele>
        <time>2022-03-07T13:25:39.552Z</time>
      </trkpt>
      <trkpt lat="42.46511" lon="24.17738">
        <ele>528.971205</ele>
        <time>2022-03-07T13:25:43.563Z</time>
      </trkpt>
      <trkpt lat="42.46517" lon="24.17727">
        <ele>529.238159</ele>
        <time>2022-03-07T13:25:47.584Z</time>
      </trkpt>
      <trkpt lat="42.46523" lon="24.17717">
        <ele>529.488252</ele>
        <time>2022-03-07T13:25:51.558Z</time>
      </trkpt>
      <trkpt lat="42.46529" lon="24.17708">
        <ele>529.719865</ele>
        <time>2022-03-07T13:25:55.562Z</time>
      </trkpt>
      <trkpt lat="42.46535" lon="24.17698">
        <ele>529.955914</ele>
        <time>2022-03-07T13:25:59.557Z</time>
      </trkpt>
      <trkpt lat="42.4654" lon="24.17688">
        <ele>530.189321</ele>
        <time>2022-03-07T13:26:03.599Z</time>
      </trkpt>
      <trkpt lat="42.46548" lon="24.17678">
        <ele>530.474984</ele>
        <time>2022-03-07T13:26:08.560Z</time>
      </trkpt>
      <trkpt lat="42.46554" lon="24.17668">
        <ele>530.714175</ele>
        <time>2022-03-07T13:26:12.566Z</time>
      </trkpt>
      <trkpt lat="42.46561" lon="24.17657">
        <ele>530.992559</ele>
        <time>2022-03-07T13:26:16.556Z</time>
      </trkpt>
      <trkpt lat="42.46566" lon="24.17646">
        <ele>531.239617</ele>
        <time>2022-03-07T13:26:20.550Z</time>
      </trkpt>
      <trkpt lat="42.46572" lon="24.17636">
        <ele>531.488232</ele>
        <time>2022-03-07T13:26:24.559Z</time>
      </trkpt>
      <trkpt lat="42.46578" lon="24.17626">
        <ele>531.730437</ele>
        <time>2022-03-07T13:26:28.554Z</time>
      </trkpt>
      <trkpt lat="42.46584" lon="24.17615">
        <ele>531.986492</ele>
        <time>2022-03-07T13:26:32.588Z</time>
      </trkpt>
      <trkpt lat="42.4659" lon="24.17604">
        <ele>532.236327</ele>
        <time>2022-03-07T13:26:36.563Z</time>
      </trkpt>
      <trkpt lat="42.46595" lon="24.17594">
        <ele>532.480108</ele>
        <time>2022-03-07T13:26:40.558Z</time>
      </trkpt>
      <trkpt lat="42.46602" lon="24.17584">
        <ele>532.686087</ele>
        <time>2022-03-07T13:26:44.551Z</time>
      </trkpt>
      <trkpt lat="42.46609" lon="24.17574">
        <ele>532.895447</ele>
        <time>2022-03-07T13:26:48.562Z</time>
      </trkpt>
      <trkpt lat="42.46616" lon="24.17563">
        <ele>533.109796</ele>
        <time>2022-03-07T13:26:52.554Z</time>
      </trkpt>
      <trkpt lat="42.46622" lon="24.17552">
        <ele>533.300145</ele>
        <time>2022-03-07T13:26:56.556Z</time>
      </trkpt>
      <trkpt lat="42.46628" lon="24.17542">
        <ele>533.489004</ele>
        <time>2022-03-07T13:27:00.542Z</time>
      </trkpt>
      <trkpt lat="42.46634" lon="24.17531">
        <ele>533.686202</ele>
        <time>2022-03-07T13:27:04.573Z</time>
      </trkpt>
      <trkpt lat="42.46641" lon="24.17521">
        <ele>533.87544</ele>
        <time>2022-03-07T13:27:08.562Z</time>
      </trkpt>
      <trkpt lat="42.46647" lon="24.17511">
        <ele>534.072215</ele>
        <time>2022-03-07T13:27:12.556Z</time>
      </trkpt>
      <trkpt lat="42.46653" lon="24.17502">
        <ele>534.252496</ele>
        <time>2022-03-07T13:27:16.573Z</time>
      </trkpt>
      <trkpt lat="42.4666" lon="24.1749">
        <ele>534.468486</ele>
        <time>2022-03-07T13:27:21.552Z</time>
      </trkpt>
      <trkpt lat="42.46667" lon="24.17479">
        <ele>534.67607</ele>
        <time>2022-03-07T13:27:26.581Z</time>
      </trkpt>
      <trkpt lat="42.46674" lon="24.17468">
        <ele>534.892059</ele>
        <time>2022-03-07T13:27:31.560Z</time>
      </trkpt>
      <trkpt lat="42.4668" lon="24.17458">
        <ele>535.075251</ele>
        <time>2022-03-07T13:27:35.578Z</time>
      </trkpt>
      <trkpt lat="42.46687" lon="24.17448">
        <ele>535.269237</ele>
        <time>2022-03-07T13:27:40.575Z</time>
      </trkpt>
      <trkpt lat="42.46694" lon="24.17438">
        <ele>535.475827</ele>
        <time>2022-03-07T13:27:46.562Z</time>
      </trkpt>
      <trkpt lat="42.46702" lon="24.1743">
        <ele>535.668397</ele>
        <time>2022-03-07T13:27:51.574Z</time>
      </trkpt>
      <trkpt lat="42.46709" lon="24.17422">
        <ele>535.848091</ele>
        <time>2022-03-07T13:27:56.579Z</time>
      </trkpt>
      <trkpt lat="42.46717" lon="24.17413">
        <ele>536.049502</ele>
        <time>2022-03-07T13:28:02.586Z</time>
      </trkpt>
      <trkpt lat="42.46724" lon="24.17406">
        <ele>536.373998</ele>
        <time>2022-03-07T13:28:07.568Z</time>
      </trkpt>
      <trkpt lat="42.46733" lon="24.17397">
        <ele>536.7631</ele>
        <time>2022-03-07T13:28:12.554Z</time>
      </trkpt>
      <trkpt lat="42.46741" lon="24.17391">
        <ele>537.12004</ele>
        <time>2022-03-07T13:28:17.566Z</time>
      </trkpt>
      <trkpt lat="42.4675" lon="24.17384">
        <ele>537.512484</ele>
        <time>2022-03-07T13:28:23.554Z</time>
      </trkpt>
      <trkpt lat="42.46759" lon="24.17379">
        <ele>537.876177</ele>
        <time>2022-03-07T13:28:28.597Z</time>
      </trkpt>
      <trkpt lat="42.46769" lon="24.17373">
        <ele>538.266741</ele>
        <time>2022-03-07T13:28:33.559Z</time>
      </trkpt>
      <trkpt lat="42.46778" lon="24.17367">
        <ele>538.651496</ele>
        <time>2022-03-07T13:28:38.574Z</time>
      </trkpt>
      <trkpt lat="42.46787" lon="24.17362">
        <ele>539.018076</ele>
        <time>2022-03-07T13:28:43.597Z</time>
      </trkpt>
      <trkpt lat="42.46795" lon="24.17357">
        <ele>539.356367</ele>
        <time>2022-03-07T13:28:48.548Z</time>
      </trkpt>
      <trkpt lat="42.46804" lon="24.17352">
        <ele>539.70599</ele>
        <time>2022-03-07T13:28:53.554Z</time>
      </trkpt>
      <trkpt lat="42.46813" lon="24.17347">
        <ele>540.069354</ele>
        <time>2022-03-07T13:28:58.562Z</time>
      </trkpt>
      <trkpt lat="42.46823" lon="24.17343">
        <ele>540.439998</ele>
        <time>2022-03-07T13:29:03.566Z</time>
      </trkpt>
      <trkpt lat="42.46831" lon="24.17338">
        <ele>540.773467</ele>
        <time>2022-03-07T13:29:08.552Z</time>
      </trkpt>
      <trkpt lat="42.46841" lon="24.17334">
        <ele>541.161572</ele>
        <time>2022-03-07T13:29:13.574Z</time>
      </trkpt>
      <trkpt lat="42.4685" lon="24.17329">
        <ele>541.523843</ele>
        <time>2022-03-07T13:29:18.563Z</time>
      </trkpt>
      <trkpt lat="42.46859" lon="24.17325">
        <ele>541.894834</ele>
        <time>2022-03-07T13:29:23.553Z</time>
      </trkpt>
      <trkpt lat="42.46869" lon="24.17321">
        <ele>542.268752</ele>
        <time>2022-03-07T13:29:28.561Z</time>
      </trkpt>
      <trkpt lat="42.46879" lon="24.17317">
        <ele>542.654122</ele>
        <time>2022-03-07T13:29:33.565Z</time>
      </trkpt>
      <trkpt lat="42.46888" lon="24.17311">
        <ele>543.230409</ele>
        <time>2022-03-07T13:29:38.603Z</time>
      </trkpt>
      <trkpt lat="42.46897" lon="24.17307">
        <ele>543.833966</ele>
        <time>2022-03-07T13:29:43.546Z</time>
      </trkpt>
      <trkpt lat="42.46907" lon="24.17302">
        <ele>544.534654</ele>
        <time>2022-03-07T13:29:48.552Z</time>
      </trkpt>
      <trkpt lat="42.46916" lon="24.17297">
        <ele>545.160055</ele>
        <time>2022-03-07T13:29:53.568Z</time>
      </trkpt>
      <trkpt lat="42.46926" lon="24.17293">
        <ele>545.825386</ele>
        <time>2022-03-07T13:29:58.562Z</time>
      </trkpt>
      <trkpt lat="42.46935" lon="24.17288">
        <ele>546.429682</ele>
        <time>2022-03-07T13:30:03.560Z</time>
      </trkpt>
      <trkpt lat="42.46944" lon="24.17284">
        <ele>547.084323</ele>
        <time>2022-03-07T13:30:09.559Z</time>
      </trkpt>
      <trkpt lat="42.46953" lon="24.1728">
        <ele>547.67754</ele>
        <time>2022-03-07T13:30:14.593Z</time>
      </trkpt>
      <trkpt lat="42.46962" lon="24.17276">
        <ele>548.2937</ele>
        <time>2022-03-07T13:30:19.557Z</time>
      </trkpt>
      <trkpt lat="42.46971" lon="24.17272">
        <ele>548.896032</ele>
        <time>2022-03-07T13:30:24.593Z</time>
      </trkpt>
      <trkpt lat="42.4698" lon="24.17269">
        <ele>549.509004</ele>
        <time>2022-03-07T13:30:29.587Z</time>
      </trkpt>
      <trkpt lat="42.46989" lon="24.17266">
        <ele>550.158015</ele>
        <time>2022-03-07T13:30:34.563Z</time>
      </trkpt>
      <trkpt lat="42.46999" lon="24.17262">
        <ele>550.829468</ele>
        <time>2022-03-07T13:30:40.576Z</time>
      </trkpt>
      <trkpt lat="42.47008" lon="24.17261">
        <ele>551.415903</ele>
        <time>2022-03-07T13:30:45.578Z</time>
      </trkpt>
      <trkpt lat="42.47019" lon="24.17258">
        <ele>552.118632</ele>
        <time>2022-03-07T13:30:50.562Z</time>
      </trkpt>
      <trkpt lat="42.47028" lon="24.17257">
        <ele>552.703952</ele>
        <time>2022-03-07T13:30:54.587Z</time>
      </trkpt>
      <trkpt lat="42.47039" lon="24.17259">
        <ele>553.397838</ele>
        <time>2022-03-07T13:30:59.557Z</time>
      </trkpt>
      <trkpt lat="42.47048" lon="24.17261">
        <ele>553.986301</ele>
        <time>2022-03-07T13:31:04.555Z</time>
      </trkpt>
      <trkpt lat="42.47057" lon="24.17264">
        <ele>554.497358</ele>
        <time>2022-03-07T13:31:09.561Z</time>
      </trkpt>
      <trkpt lat="42.47066" lon="24.17267">
        <ele>554.70716</ele>
        <time>2022-03-07T13:31:14.557Z</time>
      </trkpt>
      <trkpt lat="42.47075" lon="24.17271">
        <ele>554.922056</ele>
        <time>2022-03-07T13:31:19.578Z</time>
      </trkpt>
      <trkpt lat="42.47084" lon="24.17275">
        <ele>555.136271</ele>
        <time>2022-03-07T13:31:24.559Z</time>
      </trkpt>
      <trkpt lat="42.47093" lon="24.17281">
        <ele>555.354962</ele>
        <time>2022-03-07T13:31:29.576Z</time>
      </trkpt>
      <trkpt lat="42.47101" lon="24.17288">
        <ele>555.567488</ele>
        <time>2022-03-07T13:31:34.564Z</time>
      </trkpt>
      <trkpt lat="42.4711" lon="24.17294">
        <ele>555.784225</ele>
        <time>2022-03-07T13:31:40.561Z</time>
      </trkpt>
      <trkpt lat="42.47118" lon="24.17303">
        <ele>556.019877</ele>
        <time>2022-03-07T13:31:47.552Z</time>
      </trkpt>
      <trkpt lat="42.47123" lon="24.17314">
        <ele>556.230037</ele>
        <time>2022-03-07T13:31:52.566Z</time>
      </trkpt>
      <trkpt lat="42.47128" lon="24.17325">
        <ele>556.436251</ele>
        <time>2022-03-07T13:31:58.562Z</time>
      </trkpt>
      <trkpt lat="42.47133" lon="24.17337">
        <ele>556.655573</ele>
        <time>2022-03-07T13:32:05.547Z</time>
      </trkpt>
      <trkpt lat="42.47136" lon="24.1735">
        <ele>556.881901</ele>
        <time>2022-03-07T13:32:13.558Z</time>
      </trkpt>
      <trkpt lat="42.4714" lon="24.17361">
        <ele>557.085937</ele>
        <time>2022-03-07T13:32:19.562Z</time>
      </trkpt>
      <trkpt lat="42.47145" lon="24.17373">
        <ele>557.309609</ele>
        <time>2022-03-07T13:32:26.557Z</time>
      </trkpt>
      <trkpt lat="42.47148" lon="24.17385">
        <ele>557.519487</ele>
        <time>2022-03-07T13:32:32.564Z</time>
      </trkpt>
      <trkpt lat="42.4715" lon="24.17399">
        <ele>557.750298</ele>
        <time>2022-03-07T13:32:39.567Z</time>
      </trkpt>
      <trkpt lat="42.47153" lon="24.17412">
        <ele>557.976855</ele>
        <time>2022-03-07T13:32:46.553Z</time>
      </trkpt>
      <trkpt lat="42.47155" lon="24.17426">
        <ele>558.206862</ele>
        <time>2022-03-07T13:32:53.550Z</time>
      </trkpt>
      <trkpt lat="42.47158" lon="24.17438">
        <ele>558.418947</ele>
        <time>2022-03-07T13:32:59.556Z</time>
      </trkpt>
      <trkpt lat="42.4716" lon="24.17451">
        <ele>558.868137</ele>
        <time>2022-03-07T13:33:06.563Z</time>
      </trkpt>
      <trkpt lat="42.4716" lon="24.17465">
        <ele>559.357416</ele>
        <time>2022-03-07T13:33:13.559Z</time>
      </trkpt>
      <trkpt lat="42.47161" lon="24.17479">
        <ele>559.82718</ele>
        <time>2022-03-07T13:33:21.564Z</time>
      </trkpt>
      <trkpt lat="42.47164" lon="24.17492">
        <ele>560.324077</ele>
        <time>2022-03-07T13:33:27.573Z</time>
      </trkpt>
      <trkpt lat="42.47166" lon="24.17504">
        <ele>560.771572</ele>
        <time>2022-03-07T13:33:33.552Z</time>
      </trkpt>
      <trkpt lat="42.47169" lon="24.17518">
        <ele>561.253413</ele>
        <time>2022-03-07T13:33:41.561Z</time>
      </trkpt>
      <trkpt lat="42.47173" lon="24.17529">
        <ele>561.702676</ele>
        <time>2022-03-07T13:33:48.605Z</time>
      </trkpt>
      <trkpt lat="42.47175" lon="24.17542">
        <ele>562.168408</ele>
        <time>2022-03-07T13:33:55.555Z</time>
      </trkpt>
      <trkpt lat="42.47177" lon="24.17554">
        <ele>562.606158</ele>
        <time>2022-03-07T13:34:01.560Z</time>
      </trkpt>
      <trkpt lat="42.4718" lon="24.17566">
        <ele>563.05182</ele>
        <time>2022-03-07T13:34:07.560Z</time>
      </trkpt>
      <trkpt lat="42.47181" lon="24.17579">
        <ele>563.512636</ele>
        <time>2022-03-07T13:34:13.573Z</time>
      </trkpt>
      <trkpt lat="42.47184" lon="24.17592">
        <ele>563.98956</ele>
        <time>2022-03-07T13:34:20.558Z</time>
      </trkpt>
      <trkpt lat="42.47188" lon="24.17603">
        <ele>564.429693</ele>
        <time>2022-03-07T13:34:25.554Z</time>
      </trkpt>
      <trkpt lat="42.47192" lon="24.17616">
        <ele>564.912177</ele>
        <time>2022-03-07T13:34:32.597Z</time>
      </trkpt>
      <trkpt lat="42.47196" lon="24.17628">
        <ele>565.37474</ele>
        <time>2022-03-07T13:34:38.541Z</time>
      </trkpt>
      <trkpt lat="42.47201" lon="24.1764">
        <ele>565.851034</ele>
        <time>2022-03-07T13:34:45.577Z</time>
      </trkpt>
      <trkpt lat="42.47207" lon="24.17651">
        <ele>566.3379</ele>
        <time>2022-03-07T13:34:52.564Z</time>
      </trkpt>
      <trkpt lat="42.47215" lon="24.1766">
        <ele>566.833618</ele>
        <time>2022-03-07T13:34:59.566Z</time>
      </trkpt>
      <trkpt lat="42.47224" lon="24.17667">
        <ele>567.43651</ele>
        <time>2022-03-07T13:35:05.585Z</time>
      </trkpt>
      <trkpt lat="42.47232" lon="24.17674">
        <ele>568.143988</ele>
        <time>2022-03-07T13:35:12.569Z</time>
      </trkpt>
      <trkpt lat="42.47239" lon="24.17682">
        <ele>568.778641</ele>
        <time>2022-03-07T13:35:19.567Z</time>
      </trkpt>
      <trkpt lat="42.47246" lon="24.1769">
        <ele>569.416781</ele>
        <time>2022-03-07T13:35:26.555Z</time>
      </trkpt>
      <trkpt lat="42.47254" lon="24.17695">
        <ele>570.066122</ele>
        <time>2022-03-07T13:35:33.565Z</time>
      </trkpt>
      <trkpt lat="42.47263" lon="24.17699">
        <ele>570.720386</ele>
        <time>2022-03-07T13:35:39.566Z</time>
      </trkpt>
      <trkpt lat="42.47272" lon="24.17701">
        <ele>571.352572</ele>
        <time>2022-03-07T13:35:45.562Z</time>
      </trkpt>
      <trkpt lat="42.47281" lon="24.17702">
        <ele>571.994512</ele>
        <time>2022-03-07T13:35:54.561Z</time>
      </trkpt>
      <trkpt lat="42.47291" lon="24.17703">
        <ele>572.727596</ele>
        <time>2022-03-07T13:36:02.564Z</time>
      </trkpt>
      <trkpt lat="42.47301" lon="24.17702">
        <ele>573.404583</ele>
        <time>2022-03-07T13:36:09.556Z</time>
      </trkpt>
      <trkpt lat="42.47311" lon="24.17703">
        <ele>574.10345</ele>
        <time>2022-03-07T13:36:15.574Z</time>
      </trkpt>
      <trkpt lat="42.47321" lon="24.17704">
        <ele>574.834991</ele>
        <time>2022-03-07T13:36:22.611Z</time>
      </trkpt>
      <trkpt lat="42.47331" lon="24.17701">
        <ele>575.555122</ele>
        <time>2022-03-07T13:36:28.565Z</time>
      </trkpt>
      <trkpt lat="42.47341" lon="24.177">
        <ele>576.211509</ele>
        <time>2022-03-07T13:36:34.561Z</time>
      </trkpt>
      <trkpt lat="42.47351" lon="24.17698">
        <ele>576.927772</ele>
        <time>2022-03-07T13:36:41.561Z</time>
      </trkpt>
      <trkpt lat="42.4736" lon="24.17696">
        <ele>577.565999</ele>
        <time>2022-03-07T13:36:47.559Z</time>
      </trkpt>
      <trkpt lat="42.47369" lon="24.17693">
        <ele>578.24383</ele>
        <time>2022-03-07T13:36:54.574Z</time>
      </trkpt>
      <trkpt lat="42.47379" lon="24.17691">
        <ele>578.946973</ele>
        <time>2022-03-07T13:37:01.560Z</time>
      </trkpt>
      <trkpt lat="42.47389" lon="24.17689">
        <ele>579.672022</ele>
        <time>2022-03-07T13:37:08.579Z</time>
      </trkpt>
      <trkpt lat="42.47398" lon="24.17688">
        <ele>580.20894</ele>
        <time>2022-03-07T13:37:15.556Z</time>
      </trkpt>
      <trkpt lat="42.47407" lon="24.17688">
        <ele>580.756238</ele>
        <time>2022-03-07T13:37:22.601Z</time>
      </trkpt>
      <trkpt lat="42.47417" lon="24.17688">
        <ele>581.3092</ele>
        <time>2022-03-07T13:37:29.559Z</time>
      </trkpt>
      <trkpt lat="42.47426" lon="24.17688">
        <ele>581.85027</ele>
        <time>2022-03-07T13:37:35.573Z</time>
      </trkpt>
      <trkpt lat="42.47435" lon="24.17689">
        <ele>582.399042</ele>
        <time>2022-03-07T13:37:42.570Z</time>
      </trkpt>
      <trkpt lat="42.47445" lon="24.17692">
        <ele>583.005209</ele>
        <time>2022-03-07T13:37:49.561Z</time>
      </trkpt>
      <trkpt lat="42.47455" lon="24.17696">
        <ele>583.610652</ele>
        <time>2022-03-07T13:37:56.570Z</time>
      </trkpt>
      <trkpt lat="42.47464" lon="24.177">
        <ele>584.184522</ele>
        <time>2022-03-07T13:38:02.549Z</time>
      </trkpt>
      <trkpt lat="42.47474" lon="24.17704">
        <ele>584.790576</ele>
        <time>2022-03-07T13:38:09.563Z</time>
      </trkpt>
      <trkpt lat="42.47483" lon="24.17709">
        <ele>585.392115</ele>
        <time>2022-03-07T13:38:16.564Z</time>
      </trkpt>
      <trkpt lat="42.47492" lon="24.17715">
        <ele>585.986312</ele>
        <time>2022-03-07T13:38:23.603Z</time>
      </trkpt>
      <trkpt lat="42.47501" lon="24.17719">
        <ele>586.54249</ele>
        <time>2022-03-07T13:38:30.565Z</time>
      </trkpt>
      <trkpt lat="42.47508" lon="24.17728">
        <ele>587.120387</ele>
        <time>2022-03-07T13:38:37.567Z</time>
      </trkpt>
      <trkpt lat="42.47515" lon="24.17736">
        <ele>587.671113</ele>
        <time>2022-03-07T13:38:45.636Z</time>
      </trkpt>
      <trkpt lat="42.47523" lon="24.17744">
        <ele>588.259704</ele>
        <time>2022-03-07T13:38:53.562Z</time>
      </trkpt>
      <trkpt lat="42.4753" lon="24.17752">
        <ele>588.813817</ele>
        <time>2022-03-07T13:39:00.580Z</time>
      </trkpt>
      <trkpt lat="42.47538" lon="24.17759">
        <ele>589.367493</ele>
        <time>2022-03-07T13:39:08.577Z</time>
      </trkpt>
      <trkpt lat="42.47547" lon="24.17766">
        <ele>589.95605</ele>
        <time>2022-03-07T13:39:15.546Z</time>
      </trkpt>
      <trkpt lat="42.47555" lon="24.17772">
        <ele>590.519939</ele>
        <time>2022-03-07T13:39:21.562Z</time>
      </trkpt>
      <trkpt lat="42.47563" lon="24.17779">
        <ele>591.081221</ele>
        <time>2022-03-07T13:39:29.550Z</time>
      </trkpt>
      <trkpt lat="42.47571" lon="24.17786">
        <ele>591.602442</ele>
        <time>2022-03-07T13:39:35.545Z</time>
      </trkpt>
      <trkpt lat="42.47579" lon="24.17794">
        <ele>592.154707</ele>
        <time>2022-03-07T13:39:42.616Z</time>
      </trkpt>
      <trkpt lat="42.47587" lon="24.17801">
        <ele>592.715988</ele>
        <time>2022-03-07T13:39:50.556Z</time>
      </trkpt>
      <trkpt lat="42.47595" lon="24.17808">
        <ele>593.247421</ele>
        <time>2022-03-07T13:39:57.559Z</time>
      </trkpt>
      <trkpt lat="42.47602" lon="24.17815">
        <ele>593.775719</ele>
        <time>2022-03-07T13:40:05.567Z</time>
      </trkpt>
      <trkpt lat="42.4761" lon="24.17823">
        <ele>594.327673</ele>
        <time>2022-03-07T13:40:13.564Z</time>
      </trkpt>
      <trkpt lat="42.47618" lon="24.1783">
        <ele>594.867939</ele>
        <time>2022-03-07T13:40:20.555Z</time>
      </trkpt>
      <trkpt lat="42.47627" lon="24.17838">
        <ele>595.464582</ele>
        <time>2022-03-07T13:40:28.569Z</time>
      </trkpt>
      <trkpt lat="42.47635" lon="24.17844">
        <ele>595.977032</ele>
        <time>2022-03-07T13:40:34.549Z</time>
      </trkpt>
      <trkpt lat="42.47643" lon="24.17852">
        <ele>596.536375</ele>
        <time>2022-03-07T13:40:41.575Z</time>
      </trkpt>
      <trkpt lat="42.47651" lon="24.17859">
        <ele>597.103654</ele>
        <time>2022-03-07T13:40:49.566Z</time>
      </trkpt>
      <trkpt lat="42.4766" lon="24.17865">
        <ele>597.671899</ele>
        <time>2022-03-07T13:40:56.561Z</time>
      </trkpt>
      <trkpt lat="42.47668" lon="24.17872">
        <ele>598.212133</ele>
        <time>2022-03-07T13:41:03.555Z</time>
      </trkpt>
      <trkpt lat="42.47676" lon="24.17878">
        <ele>598.732256</ele>
        <time>2022-03-07T13:41:10.603Z</time>
      </trkpt>
      <trkpt lat="42.47685" lon="24.17885">
        <ele>599.318536</ele>
        <time>2022-03-07T13:41:17.557Z</time>
      </trkpt>
      <trkpt lat="42.47693" lon="24.17893">
        <ele>599.887058</ele>
        <time>2022-03-07T13:41:24.568Z</time>
      </trkpt>
      <trkpt lat="42.47701" lon="24.17901">
        <ele>600.448435</ele>
        <time>2022-03-07T13:41:32.598Z</time>
      </trkpt>
      <trkpt lat="42.47709" lon="24.17908">
        <ele>600.856466</ele>
        <time>2022-03-07T13:41:39.558Z</time>
      </trkpt>
      <trkpt lat="42.47717" lon="24.17916">
        <ele>601.209798</ele>
        <time>2022-03-07T13:41:48.557Z</time>
      </trkpt>
      <trkpt lat="42.47727" lon="24.1792">
        <ele>601.580863</ele>
        <time>2022-03-07T13:41:56.561Z</time>
      </trkpt>
      <trkpt lat="42.47736" lon="24.17923">
        <ele>601.907376</ele>
        <time>2022-03-07T13:42:01.567Z</time>
      </trkpt>
      <trkpt lat="42.47745" lon="24.17925">
        <ele>602.24037</ele>
        <time>2022-03-07T13:42:06.556Z</time>
      </trkpt>
      <trkpt lat="42.47755" lon="24.17927">
        <ele>602.628906</ele>
        <time>2022-03-07T13:42:12.561Z</time>
      </trkpt>
      <trkpt lat="42.47764" lon="24.17927">
        <ele>602.95531</ele>
        <time>2022-03-07T13:42:17.553Z</time>
      </trkpt>
      <trkpt lat="42.47775" lon="24.17927">
        <ele>603.32486</ele>
        <time>2022-03-07T13:42:22.558Z</time>
      </trkpt>
      <trkpt lat="42.47785" lon="24.17924">
        <ele>603.700605</ele>
        <time>2022-03-07T13:42:27.578Z</time>
      </trkpt>
      <trkpt lat="42.47796" lon="24.17921">
        <ele>604.088956</ele>
        <time>2022-03-07T13:42:32.562Z</time>
      </trkpt>
      <trkpt lat="42.47806" lon="24.17917">
        <ele>604.462136</ele>
        <time>2022-03-07T13:42:37.566Z</time>
      </trkpt>
      <trkpt lat="42.47815" lon="24.17911">
        <ele>604.82504</ele>
        <time>2022-03-07T13:42:42.541Z</time>
      </trkpt>
      <trkpt lat="42.47823" lon="24.17905">
        <ele>605.154208</ele>
        <time>2022-03-07T13:42:47.558Z</time>
      </trkpt>
      <trkpt lat="42.47831" lon="24.17897">
        <ele>605.515902</ele>
        <time>2022-03-07T13:42:52.581Z</time>
      </trkpt>
      <trkpt lat="42.47839" lon="24.17887">
        <ele>605.915874</ele>
        <time>2022-03-07T13:42:57.549Z</time>
      </trkpt>
      <trkpt lat="42.47847" lon="24.17877">
        <ele>606.300101</ele>
        <time>2022-03-07T13:43:01.560Z</time>
      </trkpt>
      <trkpt lat="42.47855" lon="24.17865">
        <ele>606.735156</ele>
        <time>2022-03-07T13:43:05.558Z</time>
      </trkpt>
      <trkpt lat="42.47861" lon="24.17855">
        <ele>607.049771</ele>
        <time>2022-03-07T13:43:08.554Z</time>
      </trkpt>
      <trkpt lat="42.47866" lon="24.17843">
        <ele>606.800411</ele>
        <time>2022-03-07T13:43:12.556Z</time>
      </trkpt>
      <trkpt lat="42.47873" lon="24.1783">
        <ele>606.542693</ele>
        <time>2022-03-07T13:43:16.553Z</time>
      </trkpt>
      <trkpt lat="42.47878" lon="24.17819">
        <ele>606.330782</ele>
        <time>2022-03-07T13:43:19.559Z</time>
      </trkpt>
      <trkpt lat="42.47883" lon="24.17809">
        <ele>606.125774</ele>
        <time>2022-03-07T13:43:22.565Z</time>
      </trkpt>
      <trkpt lat="42.47889" lon="24.17798">
        <ele>605.894519</ele>
        <time>2022-03-07T13:43:25.572Z</time>
      </trkpt>
      <trkpt lat="42.47893" lon="24.17785">
        <ele>605.655422</ele>
        <time>2022-03-07T13:43:28.573Z</time>
      </trkpt>
      <trkpt lat="42.47898" lon="24.17771">
        <ele>605.401817</ele>
        <time>2022-03-07T13:43:31.577Z</time>
      </trkpt>
      <trkpt lat="42.47904" lon="24.17757">
        <ele>605.126771</ele>
        <time>2022-03-07T13:43:34.562Z</time>
      </trkpt>
      <trkpt lat="42.47909" lon="24.17747">
        <ele>604.920167</ele>
        <time>2022-03-07T13:43:36.548Z</time>
      </trkpt>
      <trkpt lat="42.47915" lon="24.17736">
        <ele>604.705767</ele>
        <time>2022-03-07T13:43:38.560Z</time>
      </trkpt>
      <trkpt lat="42.4792" lon="24.17725">
        <ele>604.477523</ele>
        <time>2022-03-07T13:43:40.557Z</time>
      </trkpt>
      <trkpt lat="42.47926" lon="24.17713">
        <ele>604.239126</ele>
        <time>2022-03-07T13:43:42.549Z</time>
      </trkpt>
      <trkpt lat="42.47931" lon="24.177">
        <ele>603.996092</ele>
        <time>2022-03-07T13:43:44.587Z</time>
      </trkpt>
      <trkpt lat="42.47937" lon="24.17687">
        <ele>603.733438</ele>
        <time>2022-03-07T13:43:46.564Z</time>
      </trkpt>
      <trkpt lat="42.47943" lon="24.17673">
        <ele>603.462434</ele>
        <time>2022-03-07T13:43:48.546Z</time>
      </trkpt>
      <trkpt lat="42.4795" lon="24.1766">
        <ele>603.188701</ele>
        <time>2022-03-07T13:43:50.564Z</time>
      </trkpt>
      <trkpt lat="42.47958" lon="24.17647">
        <ele>602.872202</ele>
        <time>2022-03-07T13:43:52.570Z</time>
      </trkpt>
      <trkpt lat="42.47968" lon="24.17634">
        <ele>602.40025</ele>
        <time>2022-03-07T13:43:54.550Z</time>
      </trkpt>
      <trkpt lat="42.47978" lon="24.17622">
        <ele>601.913432</ele>
        <time>2022-03-07T13:43:56.591Z</time>
      </trkpt>
      <trkpt lat="42.47991" lon="24.17613">
        <ele>601.411977</ele>
        <time>2022-03-07T13:43:58.562Z</time>
      </trkpt>
      <trkpt lat="42.48004" lon="24.17606">
        <ele>600.907518</ele>
        <time>2022-03-07T13:44:00.551Z</time>
      </trkpt>
      <trkpt lat="42.48019" lon="24.17605">
        <ele>600.393044</ele>
        <time>2022-03-07T13:44:02.564Z</time>
      </trkpt>
      <trkpt lat="42.48034" lon="24.17606">
        <ele>599.851819</ele>
        <time>2022-03-07T13:44:04.558Z</time>
      </trkpt>
      <trkpt lat="42.4805" lon="24.17608">
        <ele>599.285303</ele>
        <time>2022-03-07T13:44:06.581Z</time>
      </trkpt>
      <trkpt lat="42.48066" lon="24.17614">
        <ele>598.697367</ele>
        <time>2022-03-07T13:44:08.577Z</time>
      </trkpt>
      <trkpt lat="42.48081" lon="24.17623">
        <ele>598.129601</ele>
        <time>2022-03-07T13:44:10.555Z</time>
      </trkpt>
      <trkpt lat="42.48094" lon="24.17635">
        <ele>597.566622</ele>
        <time>2022-03-07T13:44:12.601Z</time>
      </trkpt>
      <trkpt lat="42.48106" lon="24.1765">
        <ele>596.980259</ele>
        <time>2022-03-07T13:44:14.604Z</time>
      </trkpt>
      <trkpt lat="42.48117" lon="24.17668">
        <ele>596.357476</ele>
        <time>2022-03-07T13:44:16.565Z</time>
      </trkpt>
      <trkpt lat="42.48126" lon="24.17688">
        <ele>595.701569</ele>
        <time>2022-03-07T13:44:18.548Z</time>
      </trkpt>
      <trkpt lat="42.48134" lon="24.17707">
        <ele>595.06016</ele>
        <time>2022-03-07T13:44:20.566Z</time>
      </trkpt>
      <trkpt lat="42.48141" lon="24.17729">
        <ele>594.381533</ele>
        <time>2022-03-07T13:44:22.566Z</time>
      </trkpt>
      <trkpt lat="42.48145" lon="24.1774">
        <ele>594.030603</ele>
        <time>2022-03-07T13:44:23.590Z</time>
      </trkpt>
      <trkpt lat="42.48149" lon="24.17752">
        <ele>593.674512</ele>
        <time>2022-03-07T13:44:24.546Z</time>
      </trkpt>
      <trkpt lat="42.48152" lon="24.17763">
        <ele>593.326157</ele>
        <time>2022-03-07T13:44:25.601Z</time>
      </trkpt>
      <trkpt lat="42.48159" lon="24.17784">
        <ele>592.673099</ele>
        <time>2022-03-07T13:44:27.542Z</time>
      </trkpt>
      <trkpt lat="42.48166" lon="24.17804">
        <ele>592.028323</ele>
        <time>2022-03-07T13:44:29.571Z</time>
      </trkpt>
      <trkpt lat="42.48173" lon="24.17825">
        <ele>591.369932</ele>
        <time>2022-03-07T13:44:31.558Z</time>
      </trkpt>
      <trkpt lat="42.48181" lon="24.17846">
        <ele>590.704701</ele>
        <time>2022-03-07T13:44:33.569Z</time>
      </trkpt>
      <trkpt lat="42.48186" lon="24.17857">
        <ele>590.338807</ele>
        <time>2022-03-07T13:44:34.583Z</time>
      </trkpt>
      <trkpt lat="42.4819" lon="24.17868">
        <ele>589.984763</ele>
        <time>2022-03-07T13:44:35.562Z</time>
      </trkpt>
      <trkpt lat="42.48195" lon="24.17879">
        <ele>589.606636</ele>
        <time>2022-03-07T13:44:36.573Z</time>
      </trkpt>
      <trkpt lat="42.48202" lon="24.17901">
        <ele>588.771532</ele>
        <time>2022-03-07T13:44:38.562Z</time>
      </trkpt>
      <trkpt lat="42.48209" lon="24.17922">
        <ele>587.949974</ele>
        <time>2022-03-07T13:44:40.583Z</time>
      </trkpt>
      <trkpt lat="42.48216" lon="24.17944">
        <ele>587.122006</ele>
        <time>2022-03-07T13:44:42.547Z</time>
      </trkpt>
      <trkpt lat="42.4822" lon="24.17955">
        <ele>586.685673</ele>
        <time>2022-03-07T13:44:43.563Z</time>
      </trkpt>
      <trkpt lat="42.48225" lon="24.17966">
        <ele>586.24092</ele>
        <time>2022-03-07T13:44:44.557Z</time>
      </trkpt>
      <trkpt lat="42.48233" lon="24.17988">
        <ele>585.387983</ele>
        <time>2022-03-07T13:44:46.547Z</time>
      </trkpt>
      <trkpt lat="42.48237" lon="24.17998">
        <ele>584.949634</ele>
        <time>2022-03-07T13:44:47.565Z</time>
      </trkpt>
      <trkpt lat="42.48242" lon="24.18009">
        <ele>584.519047</ele>
        <time>2022-03-07T13:44:48.554Z</time>
      </trkpt>
      <trkpt lat="42.48251" lon="24.1803">
        <ele>583.662336</ele>
        <time>2022-03-07T13:44:50.557Z</time>
      </trkpt>
      <trkpt lat="42.48256" lon="24.18041">
        <ele>583.225612</ele>
        <time>2022-03-07T13:44:51.586Z</time>
      </trkpt>
      <trkpt lat="42.48261" lon="24.18051">
        <ele>582.786321</ele>
        <time>2022-03-07T13:44:52.557Z</time>
      </trkpt>
      <trkpt lat="42.48266" lon="24.18062">
        <ele>582.333661</ele>
        <time>2022-03-07T13:44:53.565Z</time>
      </trkpt>
      <trkpt lat="42.48272" lon="24.18072">
        <ele>581.881069</ele>
        <time>2022-03-07T13:44:54.595Z</time>
      </trkpt>
      <trkpt lat="42.48278" lon="24.18083">
        <ele>581.417165</ele>
        <time>2022-03-07T13:44:55.562Z</time>
      </trkpt>
      <trkpt lat="42.48284" lon="24.18093">
        <ele>580.973904</ele>
        <time>2022-03-07T13:44:56.555Z</time>
      </trkpt>
      <trkpt lat="42.48289" lon="24.18104">
        <ele>580.586226</ele>
        <time>2022-03-07T13:44:57.597Z</time>
      </trkpt>
      <trkpt lat="42.48295" lon="24.18114">
        <ele>580.198547</ele>
        <time>2022-03-07T13:44:58.567Z</time>
      </trkpt>
      <trkpt lat="42.48301" lon="24.18124">
        <ele>579.820358</ele>
        <time>2022-03-07T13:44:59.574Z</time>
      </trkpt>
      <trkpt lat="42.48307" lon="24.18134">
        <ele>579.453936</ele>
        <time>2022-03-07T13:45:00.564Z</time>
      </trkpt>
      <trkpt lat="42.48312" lon="24.18144">
        <ele>579.089839</ele>
        <time>2022-03-07T13:45:01.570Z</time>
      </trkpt>
      <trkpt lat="42.48318" lon="24.18154">
        <ele>578.728168</ele>
        <time>2022-03-07T13:45:02.557Z</time>
      </trkpt>
      <trkpt lat="42.48323" lon="24.18164">
        <ele>578.366212</ele>
        <time>2022-03-07T13:45:03.547Z</time>
      </trkpt>
      <trkpt lat="42.48329" lon="24.18173">
        <ele>578.00904</ele>
        <time>2022-03-07T13:45:04.556Z</time>
      </trkpt>
      <trkpt lat="42.48335" lon="24.18183">
        <ele>577.647085</ele>
        <time>2022-03-07T13:45:05.565Z</time>
      </trkpt>
      <trkpt lat="42.48341" lon="24.18192">
        <ele>577.282619</ele>
        <time>2022-03-07T13:45:06.551Z</time>
      </trkpt>
      <trkpt lat="42.48346" lon="24.18202">
        <ele>576.913761</ele>
        <time>2022-03-07T13:45:07.555Z</time>
      </trkpt>
      <trkpt lat="42.48352" lon="24.18212">
        <ele>576.545005</ele>
        <time>2022-03-07T13:45:08.561Z</time>
      </trkpt>
      <trkpt lat="42.48357" lon="24.18222">
        <ele>576.171554</ele>
        <time>2022-03-07T13:45:09.543Z</time>
      </trkpt>
      <trkpt lat="42.48363" lon="24.18233">
        <ele>575.795713</ele>
        <time>2022-03-07T13:45:10.551Z</time>
      </trkpt>
      <trkpt lat="42.48369" lon="24.18243">
        <ele>575.417526</ele>
        <time>2022-03-07T13:45:11.561Z</time>
      </trkpt>
      <trkpt lat="42.48375" lon="24.18253">
        <ele>575.03934</ele>
        <time>2022-03-07T13:45:12.731Z</time>
      </trkpt>
      <trkpt lat="42.48386" lon="24.18274">
        <ele>574.290056</ele>
        <time>2022-03-07T13:45:14.598Z</time>
      </trkpt>
      <trkpt lat="42.48391" lon="24.18283">
        <ele>573.925962</ele>
        <time>2022-03-07T13:45:15.552Z</time>
      </trkpt>
      <trkpt lat="42.48397" lon="24.18294">
        <ele>573.680044</ele>
        <time>2022-03-07T13:45:16.624Z</time>
      </trkpt>
      <trkpt lat="42.48402" lon="24.18304">
        <ele>573.435881</ele>
        <time>2022-03-07T13:45:17.531Z</time>
      </trkpt>
      <trkpt lat="42.48408" lon="24.18314">
        <ele>573.193236</ele>
        <time>2022-03-07T13:45:18.543Z</time>
      </trkpt>
      <trkpt lat="42.48413" lon="24.18324">
        <ele>572.950591</ele>
        <time>2022-03-07T13:45:19.534Z</time>
      </trkpt>
      <trkpt lat="42.48418" lon="24.18335">
        <ele>572.712387</ele>
        <time>2022-03-07T13:45:20.525Z</time>
      </trkpt>
      <trkpt lat="42.48423" lon="24.18345">
        <ele>572.475624</ele>
        <time>2022-03-07T13:45:21.571Z</time>
      </trkpt>
      <trkpt lat="42.48433" lon="24.18365">
        <ele>572.021655</ele>
        <time>2022-03-07T13:45:23.546Z</time>
      </trkpt>
      <trkpt lat="42.48441" lon="24.18385">
        <ele>571.571192</ele>
        <time>2022-03-07T13:45:25.566Z</time>
      </trkpt>
      <trkpt lat="42.48453" lon="24.18416">
        <ele>570.915192</ele>
        <time>2022-03-07T13:45:28.554Z</time>
      </trkpt>
      <trkpt lat="42.4846" lon="24.18436">
        <ele>570.485006</ele>
        <time>2022-03-07T13:45:30.548Z</time>
      </trkpt>
      <trkpt lat="42.48468" lon="24.18456">
        <ele>570.050225</ele>
        <time>2022-03-07T13:45:32.538Z</time>
      </trkpt>
      <trkpt lat="42.48475" lon="24.18476">
        <ele>569.628635</ele>
        <time>2022-03-07T13:45:34.544Z</time>
      </trkpt>
      <trkpt lat="42.48481" lon="24.18494">
        <ele>569.245453</ele>
        <time>2022-03-07T13:45:36.550Z</time>
      </trkpt>
      <trkpt lat="42.48487" lon="24.1851">
        <ele>569.459061</ele>
        <time>2022-03-07T13:45:38.545Z</time>
      </trkpt>
      <trkpt lat="42.48493" lon="24.18526">
        <ele>569.673653</ele>
        <time>2022-03-07T13:45:40.551Z</time>
      </trkpt>
      <trkpt lat="42.48498" lon="24.1854">
        <ele>569.875401</ele>
        <time>2022-03-07T13:45:42.555Z</time>
      </trkpt>
      <trkpt lat="42.48504" lon="24.18553">
        <ele>570.063329</ele>
        <time>2022-03-07T13:45:44.547Z</time>
      </trkpt>
      <trkpt lat="42.48508" lon="24.18566">
        <ele>570.245897</ele>
        <time>2022-03-07T13:45:46.558Z</time>
      </trkpt>
      <trkpt lat="42.48513" lon="24.18579">
        <ele>570.421384</ele>
        <time>2022-03-07T13:45:48.561Z</time>
      </trkpt>
      <trkpt lat="42.48517" lon="24.18591">
        <ele>570.589674</ele>
        <time>2022-03-07T13:45:50.546Z</time>
      </trkpt>
      <trkpt lat="42.48522" lon="24.18607">
        <ele>570.80789</ele>
        <time>2022-03-07T13:45:53.536Z</time>
      </trkpt>
      <trkpt lat="42.48526" lon="24.18622">
        <ele>571.007599</ele>
        <time>2022-03-07T13:45:56.564Z</time>
      </trkpt>
      <trkpt lat="42.4853" lon="24.18636">
        <ele>571.197928</ele>
        <time>2022-03-07T13:45:59.567Z</time>
      </trkpt>
      <trkpt lat="42.48535" lon="24.18648">
        <ele>571.378419</ele>
        <time>2022-03-07T13:46:02.547Z</time>
      </trkpt>
      <trkpt lat="42.4854" lon="24.18661">
        <ele>571.556486</ele>
        <time>2022-03-07T13:46:05.561Z</time>
      </trkpt>
      <trkpt lat="42.48545" lon="24.18674">
        <ele>571.734922</ele>
        <time>2022-03-07T13:46:08.547Z</time>
      </trkpt>
      <trkpt lat="42.4855" lon="24.18687">
        <ele>571.918434</ele>
        <time>2022-03-07T13:46:11.626Z</time>
      </trkpt>
      <trkpt lat="42.48555" lon="24.187">
        <ele>572.110807</ele>
        <time>2022-03-07T13:46:14.544Z</time>
      </trkpt>
      <trkpt lat="42.4856" lon="24.18714">
        <ele>572.293336</ele>
        <time>2022-03-07T13:46:17.562Z</time>
      </trkpt>
      <trkpt lat="42.48566" lon="24.18727">
        <ele>572.21777</ele>
        <time>2022-03-07T13:46:20.553Z</time>
      </trkpt>
      <trkpt lat="42.48571" lon="24.18741">
        <ele>572.140915</ele>
        <time>2022-03-07T13:46:23.554Z</time>
      </trkpt>
      <trkpt lat="42.48576" lon="24.18754">
        <ele>572.071351</ele>
        <time>2022-03-07T13:46:26.558Z</time>
      </trkpt>
      <trkpt lat="42.48582" lon="24.18767">
        <ele>571.996739</ele>
        <time>2022-03-07T13:46:29.549Z</time>
      </trkpt>
      <trkpt lat="42.48589" lon="24.1878">
        <ele>571.918661</ele>
        <time>2022-03-07T13:46:32.554Z</time>
      </trkpt>
      <trkpt lat="42.48596" lon="24.18792">
        <ele>571.839742</ele>
        <time>2022-03-07T13:46:35.560Z</time>
      </trkpt>
      <trkpt lat="42.48605" lon="24.18804">
        <ele>571.760438</ele>
        <time>2022-03-07T13:46:38.615Z</time>
      </trkpt>
      <trkpt lat="42.48613" lon="24.18814">
        <ele>571.686174</ele>
        <time>2022-03-07T13:46:41.557Z</time>
      </trkpt>
      <trkpt lat="42.48622" lon="24.18823">
        <ele>571.610762</ele>
        <time>2022-03-07T13:46:44.567Z</time>
      </trkpt>
      <trkpt lat="42.48632" lon="24.1883">
        <ele>571.53481</ele>
        <time>2022-03-07T13:46:47.548Z</time>
      </trkpt>
      <trkpt lat="42.48643" lon="24.18835">
        <ele>571.457541</ele>
        <time>2022-03-07T13:46:50.541Z</time>
      </trkpt>
      <trkpt lat="42.48654" lon="24.18839">
        <ele>571.385851</ele>
        <time>2022-03-07T13:46:53.553Z</time>
      </trkpt>
      <trkpt lat="42.48663" lon="24.18841">
        <ele>571.321702</ele>
        <time>2022-03-07T13:46:56.543Z</time>
      </trkpt>
      <trkpt lat="42.48674" lon="24.1884">
        <ele>571.251832</ele>
        <time>2022-03-07T13:46:59.548Z</time>
      </trkpt>
      <trkpt lat="42.48684" lon="24.18838">
        <ele>571.181167</ele>
        <time>2022-03-07T13:47:02.548Z</time>
      </trkpt>
      <trkpt lat="42.48695" lon="24.18833">
        <ele>571.107516</ele>
        <time>2022-03-07T13:47:05.551Z</time>
      </trkpt>
      <trkpt lat="42.48706" lon="24.18829">
        <ele>570.900326</ele>
        <time>2022-03-07T13:47:08.542Z</time>
      </trkpt>
      <trkpt lat="42.48717" lon="24.18825">
        <ele>570.685927</ele>
        <time>2022-03-07T13:47:11.609Z</time>
      </trkpt>
      <trkpt lat="42.48728" lon="24.18819">
        <ele>570.455362</ele>
        <time>2022-03-07T13:47:14.556Z</time>
      </trkpt>
      <trkpt lat="42.48739" lon="24.18813">
        <ele>570.235948</ele>
        <time>2022-03-07T13:47:17.544Z</time>
      </trkpt>
      <trkpt lat="42.4875" lon="24.18807">
        <ele>570.007431</ele>
        <time>2022-03-07T13:47:20.555Z</time>
      </trkpt>
      <trkpt lat="42.4876" lon="24.18801">
        <ele>569.798705</ele>
        <time>2022-03-07T13:47:23.543Z</time>
      </trkpt>
      <trkpt lat="42.48771" lon="24.18793">
        <ele>569.562744</ele>
        <time>2022-03-07T13:47:26.552Z</time>
      </trkpt>
      <trkpt lat="42.48779" lon="24.18787">
        <ele>569.388924</ele>
        <time>2022-03-07T13:47:28.555Z</time>
      </trkpt>
      <trkpt lat="42.48788" lon="24.18781">
        <ele>569.212113</ele>
        <time>2022-03-07T13:47:30.578Z</time>
      </trkpt>
      <trkpt lat="42.48797" lon="24.18775">
        <ele>569.019916</ele>
        <time>2022-03-07T13:47:32.538Z</time>
      </trkpt>
      <trkpt lat="42.48806" lon="24.1877">
        <ele>568.824446</ele>
        <time>2022-03-07T13:47:34.564Z</time>
      </trkpt>
      <trkpt lat="42.48816" lon="24.18764">
        <ele>568.621428</ele>
        <time>2022-03-07T13:47:36.568Z</time>
      </trkpt>
      <trkpt lat="42.48826" lon="24.1876">
        <ele>568.414082</ele>
        <time>2022-03-07T13:47:38.576Z</time>
      </trkpt>
      <trkpt lat="42.48838" lon="24.18756">
        <ele>568.184413</ele>
        <time>2022-03-07T13:47:40.563Z</time>
      </trkpt>
      <trkpt lat="42.48851" lon="24.18751">
        <ele>567.926134</ele>
        <time>2022-03-07T13:47:42.548Z</time>
      </trkpt>
      <trkpt lat="42.48865" lon="24.18747">
        <ele>567.652006</ele>
        <time>2022-03-07T13:47:44.603Z</time>
      </trkpt>
      <trkpt lat="42.48878" lon="24.18743">
        <ele>567.180421</ele>
        <time>2022-03-07T13:47:46.555Z</time>
      </trkpt>
      <trkpt lat="42.48893" lon="24.18739">
        <ele>566.693514</ele>
        <time>2022-03-07T13:47:48.569Z</time>
      </trkpt>
      <trkpt lat="42.48908" lon="24.18736">
        <ele>566.181298</ele>
        <time>2022-03-07T13:47:50.554Z</time>
      </trkpt>
      <trkpt lat="42.48923" lon="24.18732">
        <ele>565.676514</ele>
        <time>2022-03-07T13:47:52.567Z</time>
      </trkpt>
      <trkpt lat="42.48938" lon="24.18728">
        <ele>565.15444</ele>
        <time>2022-03-07T13:47:54.555Z</time>
      </trkpt>
      <trkpt lat="42.48953" lon="24.18724">
        <ele>564.631836</ele>
        <time>2022-03-07T13:47:56.551Z</time>
      </trkpt>
      <trkpt lat="42.48969" lon="24.1872">
        <ele>564.100443</ele>
        <time>2022-03-07T13:47:58.575Z</time>
      </trkpt>
      <trkpt lat="42.48985" lon="24.18715">
        <ele>563.551712</ele>
        <time>2022-03-07T13:48:00.559Z</time>
      </trkpt>
      <trkpt lat="42.49002" lon="24.18711">
        <ele>562.995038</ele>
        <time>2022-03-07T13:48:02.554Z</time>
      </trkpt>
      <trkpt lat="42.49019" lon="24.18707">
        <ele>562.419903</ele>
        <time>2022-03-07T13:48:04.559Z</time>
      </trkpt>
      <trkpt lat="42.49035" lon="24.18703">
        <ele>561.851541</ele>
        <time>2022-03-07T13:48:06.618Z</time>
      </trkpt>
      <trkpt lat="42.49052" lon="24.18698">
        <ele>561.332808</ele>
        <time>2022-03-07T13:48:08.574Z</time>
      </trkpt>
      <trkpt lat="42.49069" lon="24.18693">
        <ele>560.821533</ele>
        <time>2022-03-07T13:48:10.551Z</time>
      </trkpt>
      <trkpt lat="42.49086" lon="24.18689">
        <ele>560.323575</ele>
        <time>2022-03-07T13:48:12.577Z</time>
      </trkpt>
      <trkpt lat="42.49103" lon="24.18684">
        <ele>559.838283</ele>
        <time>2022-03-07T13:48:14.558Z</time>
      </trkpt>
      <trkpt lat="42.49119" lon="24.1868">
        <ele>559.356517</ele>
        <time>2022-03-07T13:48:16.556Z</time>
      </trkpt>
      <trkpt lat="42.49135" lon="24.18677">
        <ele>558.889038</ele>
        <time>2022-03-07T13:48:18.562Z</time>
      </trkpt>
      <trkpt lat="42.49151" lon="24.18673">
        <ele>558.415113</ele>
        <time>2022-03-07T13:48:20.596Z</time>
      </trkpt>
      <trkpt lat="42.49167" lon="24.18669">
        <ele>557.950121</ele>
        <time>2022-03-07T13:48:22.558Z</time>
      </trkpt>
      <trkpt lat="42.49182" lon="24.18665">
        <ele>557.489407</ele>
        <time>2022-03-07T13:48:24.580Z</time>
      </trkpt>
      <trkpt lat="42.49198" lon="24.18663">
        <ele>557.042029</ele>
        <time>2022-03-07T13:48:26.560Z</time>
      </trkpt>
      <trkpt lat="42.49213" lon="24.18661">
        <ele>556.608152</ele>
        <time>2022-03-07T13:48:28.564Z</time>
      </trkpt>
      <trkpt lat="42.49227" lon="24.1866">
        <ele>556.473111</ele>
        <time>2022-03-07T13:48:30.559Z</time>
      </trkpt>
      <trkpt lat="42.4924" lon="24.18661">
        <ele>556.474591</ele>
        <time>2022-03-07T13:48:32.552Z</time>
      </trkpt>
      <trkpt lat="42.49253" lon="24.18662">
        <ele>556.47603</ele>
        <time>2022-03-07T13:48:34.555Z</time>
      </trkpt>
      <trkpt lat="42.49266" lon="24.18664">
        <ele>556.477399</ele>
        <time>2022-03-07T13:48:36.548Z</time>
      </trkpt>
      <trkpt lat="42.49277" lon="24.18666">
        <ele>556.478655</ele>
        <time>2022-03-07T13:48:38.547Z</time>
      </trkpt>
      <trkpt lat="42.49288" lon="24.18668">
        <ele>556.479793</ele>
        <time>2022-03-07T13:48:40.567Z</time>
      </trkpt>
      <trkpt lat="42.49297" lon="24.1867">
        <ele>556.480886</ele>
        <time>2022-03-07T13:48:42.575Z</time>
      </trkpt>
      <trkpt lat="42.49307" lon="24.18671">
        <ele>556.481913</ele>
        <time>2022-03-07T13:48:44.623Z</time>
      </trkpt>
      <trkpt lat="42.49319" lon="24.18674">
        <ele>556.48323</ele>
        <time>2022-03-07T13:48:47.575Z</time>
      </trkpt>
      <trkpt lat="42.49329" lon="24.18675">
        <ele>556.484394</ele>
        <time>2022-03-07T13:48:50.565Z</time>
      </trkpt>
      <trkpt lat="42.49339" lon="24.18676">
        <ele>556.485513</ele>
        <time>2022-03-07T13:48:53.575Z</time>
      </trkpt>
      <trkpt lat="42.49352" lon="24.18677">
        <ele>556.486862</ele>
        <time>2022-03-07T13:48:57.564Z</time>
      </trkpt>
      <trkpt lat="42.49362" lon="24.18678">
        <ele>556.487972</ele>
        <time>2022-03-07T13:49:00.594Z</time>
      </trkpt>
      <trkpt lat="42.49372" lon="24.18681">
        <ele>556.489115</ele>
        <time>2022-03-07T13:49:03.567Z</time>
      </trkpt>
      <trkpt lat="42.49382" lon="24.18684">
        <ele>556.49019</ele>
        <time>2022-03-07T13:49:06.549Z</time>
      </trkpt>
      <trkpt lat="42.49391" lon="24.18686">
        <ele>556.491254</ele>
        <time>2022-03-07T13:49:09.562Z</time>
      </trkpt>
      <trkpt lat="42.49402" lon="24.18688">
        <ele>556.522226</ele>
        <time>2022-03-07T13:49:12.562Z</time>
      </trkpt>
      <trkpt lat="42.49412" lon="24.18689">
        <ele>556.577979</ele>
        <time>2022-03-07T13:49:15.570Z</time>
      </trkpt>
      <trkpt lat="42.49423" lon="24.18691">
        <ele>556.63579</ele>
        <time>2022-03-07T13:49:18.558Z</time>
      </trkpt>
      <trkpt lat="42.49434" lon="24.18693">
        <ele>556.697389</ele>
        <time>2022-03-07T13:49:21.563Z</time>
      </trkpt>
      <trkpt lat="42.49446" lon="24.18695">
        <ele>556.757884</ele>
        <time>2022-03-07T13:49:24.562Z</time>
      </trkpt>
      <trkpt lat="42.49457" lon="24.18697">
        <ele>556.818481</ele>
        <time>2022-03-07T13:49:27.589Z</time>
      </trkpt>
      <trkpt lat="42.49468" lon="24.18699">
        <ele>556.878804</ele>
        <time>2022-03-07T13:49:30.568Z</time>
      </trkpt>
      <trkpt lat="42.49481" lon="24.18701">
        <ele>556.94646</ele>
        <time>2022-03-07T13:49:33.596Z</time>
      </trkpt>
      <trkpt lat="42.49493" lon="24.18703">
        <ele>557.010647</ele>
        <time>2022-03-07T13:49:36.599Z</time>
      </trkpt>
      <trkpt lat="42.49505" lon="24.18705">
        <ele>557.075985</ele>
        <time>2022-03-07T13:49:39.546Z</time>
      </trkpt>
      <trkpt lat="42.49517" lon="24.18706">
        <ele>557.138269</ele>
        <time>2022-03-07T13:49:42.566Z</time>
      </trkpt>
      <trkpt lat="42.49529" lon="24.18707">
        <ele>557.201523</ele>
        <time>2022-03-07T13:49:45.565Z</time>
      </trkpt>
      <trkpt lat="42.4954" lon="24.18709">
        <ele>557.265184</ele>
        <time>2022-03-07T13:49:48.550Z</time>
      </trkpt>
      <trkpt lat="42.49552" lon="24.18711">
        <ele>557.328316</ele>
        <time>2022-03-07T13:49:51.575Z</time>
      </trkpt>
      <trkpt lat="42.49564" lon="24.18713">
        <ele>557.392024</ele>
        <time>2022-03-07T13:49:54.554Z</time>
      </trkpt>
      <trkpt lat="42.49575" lon="24.18715">
        <ele>557.467109</ele>
        <time>2022-03-07T13:49:57.568Z</time>
      </trkpt>
      <trkpt lat="42.49586" lon="24.18716">
        <ele>557.832391</ele>
        <time>2022-03-07T13:50:00.571Z</time>
      </trkpt>
      <trkpt lat="42.49598" lon="24.18716">
        <ele>558.208725</ele>
        <time>2022-03-07T13:50:03.567Z</time>
      </trkpt>
      <trkpt lat="42.49609" lon="24.18718">
        <ele>558.590533</ele>
        <time>2022-03-07T13:50:06.553Z</time>
      </trkpt>
      <trkpt lat="42.49621" lon="24.1872">
        <ele>558.965835</ele>
        <time>2022-03-07T13:50:09.600Z</time>
      </trkpt>
      <trkpt lat="42.49632" lon="24.18721">
        <ele>559.35325</ele>
        <time>2022-03-07T13:50:12.572Z</time>
      </trkpt>
      <trkpt lat="42.49644" lon="24.18722">
        <ele>559.726802</ele>
        <time>2022-03-07T13:50:15.529Z</time>
      </trkpt>
      <trkpt lat="42.49655" lon="24.18722">
        <ele>560.083502</ele>
        <time>2022-03-07T13:50:18.543Z</time>
      </trkpt>
      <trkpt lat="42.49666" lon="24.18722">
        <ele>560.453668</ele>
        <time>2022-03-07T13:50:21.539Z</time>
      </trkpt>
      <trkpt lat="42.49677" lon="24.18723">
        <ele>560.804114</ele>
        <time>2022-03-07T13:50:24.559Z</time>
      </trkpt>
      <trkpt lat="42.49687" lon="24.18723">
        <ele>561.141309</ele>
        <time>2022-03-07T13:50:27.558Z</time>
      </trkpt>
      <trkpt lat="42.49698" lon="24.18724">
        <ele>561.491531</ele>
        <time>2022-03-07T13:50:30.555Z</time>
      </trkpt>
      <trkpt lat="42.49708" lon="24.18724">
        <ele>561.81267</ele>
        <time>2022-03-07T13:50:33.563Z</time>
      </trkpt>
      <trkpt lat="42.49719" lon="24.18724">
        <ele>562.182577</ele>
        <time>2022-03-07T13:50:37.548Z</time>
      </trkpt>
      <trkpt lat="42.49731" lon="24.18724">
        <ele>562.578538</ele>
        <time>2022-03-07T13:50:41.563Z</time>
      </trkpt>
      <trkpt lat="42.4974" lon="24.18724">
        <ele>562.876336</ele>
        <time>2022-03-07T13:50:44.559Z</time>
      </trkpt>
      <trkpt lat="42.49751" lon="24.18724">
        <ele>563.223344</ele>
        <time>2022-03-07T13:50:48.560Z</time>
      </trkpt>
      <trkpt lat="42.4976" lon="24.18723">
        <ele>563.572561</ele>
        <time>2022-03-07T13:50:52.550Z</time>
      </trkpt>
      <trkpt lat="42.49772" lon="24.18722">
        <ele>564.003074</ele>
        <time>2022-03-07T13:50:56.551Z</time>
      </trkpt>
      <trkpt lat="42.49783" lon="24.18721">
        <ele>564.414933</ele>
        <time>2022-03-07T13:51:00.557Z</time>
      </trkpt>
      <trkpt lat="42.49794" lon="24.18721">
        <ele>564.82967</ele>
        <time>2022-03-07T13:51:04.553Z</time>
      </trkpt>
      <trkpt lat="42.49804" lon="24.18722">
        <ele>565.205032</ele>
        <time>2022-03-07T13:51:08.595Z</time>
      </trkpt>
      <trkpt lat="42.49815" lon="24.18721">
        <ele>565.612868</ele>
        <time>2022-03-07T13:51:12.574Z</time>
      </trkpt>
      <trkpt lat="42.49827" lon="24.18722">
        <ele>566.047074</ele>
        <time>2022-03-07T13:51:16.551Z</time>
      </trkpt>
      <trkpt lat="42.49839" lon="24.18724">
        <ele>566.475663</ele>
        <time>2022-03-07T13:51:20.565Z</time>
      </trkpt>
      <trkpt lat="42.4985" lon="24.18726">
        <ele>566.908583</ele>
        <time>2022-03-07T13:51:24.566Z</time>
      </trkpt>
      <trkpt lat="42.49861" lon="24.18729">
        <ele>567.306456</ele>
        <time>2022-03-07T13:51:28.569Z</time>
      </trkpt>
      <trkpt lat="42.49872" lon="24.18732">
        <ele>567.724763</ele>
        <time>2022-03-07T13:51:32.563Z</time>
      </trkpt>
      <trkpt lat="42.49882" lon="24.18736">
        <ele>568.125735</ele>
        <time>2022-03-07T13:51:36.599Z</time>
      </trkpt>
      <trkpt lat="42.49893" lon="24.18739">
        <ele>568.515857</ele>
        <time>2022-03-07T13:51:41.564Z</time>
      </trkpt>
      <trkpt lat="42.49903" lon="24.18739">
        <ele>568.916458</ele>
        <time>2022-03-07T13:51:45.554Z</time>
      </trkpt>
      <trkpt lat="42.49913" lon="24.18742">
        <ele>569.291097</ele>
        <time>2022-03-07T13:51:49.554Z</time>
      </trkpt>
      <trkpt lat="42.49923" lon="24.18742">
        <ele>569.653921</ele>
        <time>2022-03-07T13:51:52.582Z</time>
      </trkpt>
      <trkpt lat="42.49934" lon="24.18746">
        <ele>569.981436</ele>
        <time>2022-03-07T13:51:56.579Z</time>
      </trkpt>
      <trkpt lat="42.49943" lon="24.1875">
        <ele>569.937926</ele>
        <time>2022-03-07T13:51:59.575Z</time>
      </trkpt>
      <trkpt lat="42.49954" lon="24.18752">
        <ele>569.886875</ele>
        <time>2022-03-07T13:52:03.567Z</time>
      </trkpt>
      <trkpt lat="42.49963" lon="24.18753">
        <ele>569.842602</ele>
        <time>2022-03-07T13:52:07.570Z</time>
      </trkpt>
      <trkpt lat="42.49975" lon="24.18757">
        <ele>569.785774</ele>
        <time>2022-03-07T13:52:11.554Z</time>
      </trkpt>
      <trkpt lat="42.49987" lon="24.18759">
        <ele>569.730677</ele>
        <time>2022-03-07T13:52:15.572Z</time>
      </trkpt>
      <trkpt lat="42.49997" lon="24.18763">
        <ele>569.677746</ele>
        <time>2022-03-07T13:52:19.567Z</time>
      </trkpt>
      <trkpt lat="42.50006" lon="24.18768">
        <ele>569.634465</ele>
        <time>2022-03-07T13:52:22.589Z</time>
      </trkpt>
      <trkpt lat="42.50016" lon="24.18774">
        <ele>569.584687</ele>
        <time>2022-03-07T13:52:26.559Z</time>
      </trkpt>
      <trkpt lat="42.50025" lon="24.18779">
        <ele>569.535524</ele>
        <time>2022-03-07T13:52:31.559Z</time>
      </trkpt>
      <trkpt lat="42.50033" lon="24.18785">
        <ele>569.492601</ele>
        <time>2022-03-07T13:52:38.554Z</time>
      </trkpt>
      <trkpt lat="42.50051" lon="24.18793">
        <ele>569.403664</ele>
        <time>2022-03-07T13:53:03.569Z</time>
      </trkpt>
      <trkpt lat="42.50061" lon="24.18795">
        <ele>569.3598</ele>
        <time>2022-03-07T13:53:07.598Z</time>
      </trkpt>
      <trkpt lat="42.5007" lon="24.18796">
        <ele>569.315127</ele>
        <time>2022-03-07T13:53:11.583Z</time>
      </trkpt>
      <trkpt lat="42.50081" lon="24.18796">
        <ele>569.263467</ele>
        <time>2022-03-07T13:53:15.568Z</time>
      </trkpt>
      <trkpt lat="42.50093" lon="24.18798">
        <ele>569.209028</ele>
        <time>2022-03-07T13:53:19.560Z</time>
      </trkpt>
      <trkpt lat="42.50102" lon="24.18798">
        <ele>569.166231</ele>
        <time>2022-03-07T13:53:22.612Z</time>
      </trkpt>
      <trkpt lat="42.50111" lon="24.18799">
        <ele>569.467</ele>
        <time>2022-03-07T13:53:25.571Z</time>
      </trkpt>
      <trkpt lat="42.5012" lon="24.18801">
        <ele>570.04085</ele>
        <time>2022-03-07T13:53:28.576Z</time>
      </trkpt>
      <trkpt lat="42.50129" lon="24.18801">
        <ele>570.635488</ele>
        <time>2022-03-07T13:53:32.565Z</time>
      </trkpt>
      <trkpt lat="42.50139" lon="24.18802">
        <ele>571.279956</ele>
        <time>2022-03-07T13:53:36.564Z</time>
      </trkpt>
      <trkpt lat="42.50151" lon="24.18803">
        <ele>572.026187</ele>
        <time>2022-03-07T13:53:40.565Z</time>
      </trkpt>
      <trkpt lat="42.50163" lon="24.18802">
        <ele>572.727639</ele>
        <time>2022-03-07T13:53:45.595Z</time>
      </trkpt>
      <trkpt lat="42.50174" lon="24.18802">
        <ele>573.441234</ele>
        <time>2022-03-07T13:53:49.557Z</time>
      </trkpt>
      <trkpt lat="42.50185" lon="24.18804">
        <ele>574.122</ele>
        <time>2022-03-07T13:53:52.598Z</time>
      </trkpt>
      <trkpt lat="42.50194" lon="24.18805">
        <ele>574.710746</ele>
        <time>2022-03-07T13:53:55.597Z</time>
      </trkpt>
      <trkpt lat="42.50204" lon="24.18804">
        <ele>575.349159</ele>
        <time>2022-03-07T13:53:59.564Z</time>
      </trkpt>
      <trkpt lat="42.50214" lon="24.18806">
        <ele>575.949281</ele>
        <time>2022-03-07T13:54:02.560Z</time>
      </trkpt>
      <trkpt lat="42.50225" lon="24.18809">
        <ele>576.645119</ele>
        <time>2022-03-07T13:54:05.566Z</time>
      </trkpt>
      <trkpt lat="42.50237" lon="24.18814">
        <ele>577.418015</ele>
        <time>2022-03-07T13:54:08.551Z</time>
      </trkpt>
      <trkpt lat="42.50249" lon="24.18818">
        <ele>578.20546</ele>
        <time>2022-03-07T13:54:11.563Z</time>
      </trkpt>
      <trkpt lat="42.50258" lon="24.1882">
        <ele>578.77955</ele>
        <time>2022-03-07T13:54:14.569Z</time>
      </trkpt>
      <trkpt lat="42.50269" lon="24.1882">
        <ele>579.46149</ele>
        <time>2022-03-07T13:54:18.665Z</time>
      </trkpt>
      <trkpt lat="42.5028" lon="24.18819">
        <ele>580.176515</ele>
        <time>2022-03-07T13:54:21.584Z</time>
      </trkpt>
      <trkpt lat="42.50293" lon="24.18818">
        <ele>579.76717</ele>
        <time>2022-03-07T13:54:24.563Z</time>
      </trkpt>
      <trkpt lat="42.50303" lon="24.1881">
        <ele>578.904522</ele>
        <time>2022-03-07T13:54:27.561Z</time>
      </trkpt>
      <trkpt lat="42.50311" lon="24.18797">
        <ele>578.009355</ele>
        <time>2022-03-07T13:54:30.556Z</time>
      </trkpt>
      <trkpt lat="42.50317" lon="24.18787">
        <ele>577.319444</ele>
        <time>2022-03-07T13:54:32.570Z</time>
      </trkpt>
      <trkpt lat="42.50321" lon="24.18775">
        <ele>576.651835</ele>
        <time>2022-03-07T13:54:34.602Z</time>
      </trkpt>
      <trkpt lat="42.50325" lon="24.18764">
        <ele>575.962173</ele>
        <time>2022-03-07T13:54:36.570Z</time>
      </trkpt>
      <trkpt lat="42.50332" lon="24.18748">
        <ele>574.99635</ele>
        <time>2022-03-07T13:54:39.564Z</time>
      </trkpt>
      <trkpt lat="42.50338" lon="24.18733">
        <ele>574.126467</ele>
        <time>2022-03-07T13:54:42.564Z</time>
      </trkpt>
      <trkpt lat="42.50342" lon="24.18722">
        <ele>573.436782</ele>
        <time>2022-03-07T13:54:46.592Z</time>
      </trkpt>
      <trkpt lat="42.50351" lon="24.18715">
        <ele>572.693655</ele>
        <time>2022-03-07T13:54:49.543Z</time>
      </trkpt>
      <trkpt lat="42.50361" lon="24.18713">
        <ele>571.954594</ele>
        <time>2022-03-07T13:54:52.566Z</time>
      </trkpt>
      <trkpt lat="42.50372" lon="24.18714">
        <ele>571.156474</ele>
        <time>2022-03-07T13:54:56.543Z</time>
      </trkpt>
      <trkpt lat="42.50384" lon="24.18716">
        <ele>570.342502</ele>
        <time>2022-03-07T13:55:00.571Z</time>
      </trkpt>
      <trkpt lat="42.50393" lon="24.18717">
        <ele>569.639013</ele>
        <time>2022-03-07T13:55:04.565Z</time>
      </trkpt>
      <trkpt lat="42.50403" lon="24.18718">
        <ele>568.967397</ele>
        <time>2022-03-07T13:55:07.572Z</time>
      </trkpt>
      <trkpt lat="42.50413" lon="24.1872">
        <ele>568.244671</ele>
        <time>2022-03-07T13:55:10.577Z</time>
      </trkpt>
      <trkpt lat="42.50422" lon="24.18722">
        <ele>567.575649</ele>
        <time>2022-03-07T13:55:13.563Z</time>
      </trkpt>
      <trkpt lat="42.50433" lon="24.18724">
        <ele>567.265743</ele>
        <time>2022-03-07T13:55:16.573Z</time>
      </trkpt>
      <trkpt lat="42.50442" lon="24.18726">
        <ele>567.032399</ele>
        <time>2022-03-07T13:55:19.549Z</time>
      </trkpt>
      <trkpt lat="42.50451" lon="24.1873">
        <ele>566.808514</ele>
        <time>2022-03-07T13:55:22.547Z</time>
      </trkpt>
      <trkpt lat="42.50461" lon="24.18738">
        <ele>566.533304</ele>
        <time>2022-03-07T13:55:26.542Z</time>
      </trkpt>
      <trkpt lat="42.5047" lon="24.18745">
        <ele>566.282682</ele>
        <time>2022-03-07T13:55:29.598Z</time>
      </trkpt>
      <trkpt lat="42.50478" lon="24.18752">
        <ele>566.044928</ele>
        <time>2022-03-07T13:55:32.619Z</time>
      </trkpt>
      <trkpt lat="42.50485" lon="24.1876">
        <ele>565.805692</ele>
        <time>2022-03-07T13:55:35.570Z</time>
      </trkpt>
      <trkpt lat="42.50493" lon="24.18768">
        <ele>565.567548</ele>
        <time>2022-03-07T13:55:38.568Z</time>
      </trkpt>
      <trkpt lat="42.50502" lon="24.18778">
        <ele>565.287243</ele>
        <time>2022-03-07T13:55:42.579Z</time>
      </trkpt>
      <trkpt lat="42.50512" lon="24.18784">
        <ele>565.030255</ele>
        <time>2022-03-07T13:55:46.582Z</time>
      </trkpt>
      <trkpt lat="42.50523" lon="24.1879">
        <ele>564.739623</ele>
        <time>2022-03-07T13:55:50.578Z</time>
      </trkpt>
      <trkpt lat="42.50533" lon="24.18794">
        <ele>564.48475</ele>
        <time>2022-03-07T13:55:54.585Z</time>
      </trkpt>
      <trkpt lat="42.50542" lon="24.18799">
        <ele>564.251217</ele>
        <time>2022-03-07T13:55:58.558Z</time>
      </trkpt>
      <trkpt lat="42.50552" lon="24.18807">
        <ele>563.976933</ele>
        <time>2022-03-07T13:56:02.573Z</time>
      </trkpt>
      <trkpt lat="42.50562" lon="24.18802">
        <ele>563.709495</ele>
        <time>2022-03-07T13:56:07.555Z</time>
      </trkpt>
      <trkpt lat="42.50568" lon="24.18791">
        <ele>563.474882</ele>
        <time>2022-03-07T13:56:10.549Z</time>
      </trkpt>
      <trkpt lat="42.50575" lon="24.1878">
        <ele>563.207952</ele>
        <time>2022-03-07T13:56:14.569Z</time>
      </trkpt>
      <trkpt lat="42.50582" lon="24.18769">
        <ele>563.338036</ele>
        <time>2022-03-07T13:56:18.574Z</time>
      </trkpt>
      <trkpt lat="42.50588" lon="24.18756">
        <ele>563.604607</ele>
        <time>2022-03-07T13:56:22.606Z</time>
      </trkpt>
      <trkpt lat="42.50593" lon="24.18743">
        <ele>563.869899</ele>
        <time>2022-03-07T13:56:26.605Z</time>
      </trkpt>
      <trkpt lat="42.50598" lon="24.18731">
        <ele>564.137267</ele>
        <time>2022-03-07T13:56:31.578Z</time>
      </trkpt>
      <trkpt lat="42.50603" lon="24.18719">
        <ele>564.381656</ele>
        <time>2022-03-07T13:56:35.588Z</time>
      </trkpt>
      <trkpt lat="42.50608" lon="24.18707">
        <ele>564.625116</ele>
        <time>2022-03-07T13:56:39.577Z</time>
      </trkpt>
      <trkpt lat="42.50611" lon="24.18694">
        <ele>564.873175</ele>
        <time>2022-03-07T13:56:43.565Z</time>
      </trkpt>
      <trkpt lat="42.50616" lon="24.18681">
        <ele>565.144182</ele>
        <time>2022-03-07T13:56:48.602Z</time>
      </trkpt>
      <trkpt lat="42.50619" lon="24.18668">
        <ele>565.386938</ele>
        <time>2022-03-07T13:56:53.561Z</time>
      </trkpt>
      <trkpt lat="42.50622" lon="24.18654">
        <ele>565.640442</ele>
        <time>2022-03-07T13:56:58.573Z</time>
      </trkpt>
      <trkpt lat="42.50624" lon="24.18641">
        <ele>565.894445</ele>
        <time>2022-03-07T13:57:03.566Z</time>
      </trkpt>
      <trkpt lat="42.50626" lon="24.18628">
        <ele>566.134808</ele>
        <time>2022-03-07T13:57:08.596Z</time>
      </trkpt>
      <trkpt lat="42.5063" lon="24.18615">
        <ele>566.388586</ele>
        <time>2022-03-07T13:57:13.552Z</time>
      </trkpt>
      <trkpt lat="42.50635" lon="24.18603">
        <ele>566.63685</ele>
        <time>2022-03-07T13:57:18.556Z</time>
      </trkpt>
      <trkpt lat="42.50644" lon="24.18594">
        <ele>566.904821</ele>
        <time>2022-03-07T13:57:23.573Z</time>
      </trkpt>
      <trkpt lat="42.50651" lon="24.18587">
        <ele>567.13731</ele>
        <time>2022-03-07T13:57:27.587Z</time>
      </trkpt>
      <trkpt lat="42.50658" lon="24.18579">
        <ele>567.363863</ele>
        <time>2022-03-07T13:57:31.586Z</time>
      </trkpt>
      <trkpt lat="42.50666" lon="24.18569">
        <ele>567.655006</ele>
        <time>2022-03-07T13:57:36.603Z</time>
      </trkpt>
      <trkpt lat="42.50674" lon="24.1856">
        <ele>568.041084</ele>
        <time>2022-03-07T13:57:41.594Z</time>
      </trkpt>
      <trkpt lat="42.50682" lon="24.18553">
        <ele>568.394695</ele>
        <time>2022-03-07T13:57:45.589Z</time>
      </trkpt>
      <trkpt lat="42.50691" lon="24.18546">
        <ele>568.785936</ele>
        <time>2022-03-07T13:57:49.561Z</time>
      </trkpt>
      <trkpt lat="42.50701" lon="24.18541">
        <ele>569.19899</ele>
        <time>2022-03-07T13:57:53.560Z</time>
      </trkpt>
      <trkpt lat="42.50712" lon="24.18537">
        <ele>569.624671</ele>
        <time>2022-03-07T13:57:57.558Z</time>
      </trkpt>
      <trkpt lat="42.50722" lon="24.18533">
        <ele>570.003532</ele>
        <time>2022-03-07T13:58:01.605Z</time>
      </trkpt>
      <trkpt lat="42.50731" lon="24.18529">
        <ele>570.361602</ele>
        <time>2022-03-07T13:58:05.607Z</time>
      </trkpt>
      <trkpt lat="42.50742" lon="24.18523">
        <ele>570.780983</ele>
        <time>2022-03-07T13:58:10.579Z</time>
      </trkpt>
      <trkpt lat="42.50751" lon="24.1852">
        <ele>571.152229</ele>
        <time>2022-03-07T13:58:14.616Z</time>
      </trkpt>
      <trkpt lat="42.50762" lon="24.18518">
        <ele>571.564738</ele>
        <time>2022-03-07T13:58:19.554Z</time>
      </trkpt>
      <trkpt lat="42.50772" lon="24.18513">
        <ele>571.94286</ele>
        <time>2022-03-07T13:58:23.565Z</time>
      </trkpt>
      <trkpt lat="42.50783" lon="24.1851">
        <ele>572.354788</ele>
        <time>2022-03-07T13:58:27.567Z</time>
      </trkpt>
      <trkpt lat="42.50793" lon="24.18505">
        <ele>572.757656</ele>
        <time>2022-03-07T13:58:31.580Z</time>
      </trkpt>
      <trkpt lat="42.50801" lon="24.18501">
        <ele>573.095681</ele>
        <time>2022-03-07T13:58:35.586Z</time>
      </trkpt>
      <trkpt lat="42.50811" lon="24.18496">
        <ele>573.499782</ele>
        <time>2022-03-07T13:58:40.590Z</time>
      </trkpt>
      <trkpt lat="42.50821" lon="24.18492">
        <ele>573.861422</ele>
        <time>2022-03-07T13:58:44.597Z</time>
      </trkpt>
      <trkpt lat="42.5083" lon="24.1849">
        <ele>574.201731</ele>
        <time>2022-03-07T13:58:48.592Z</time>
      </trkpt>
      <trkpt lat="42.50839" lon="24.18486">
        <ele>574.442578</ele>
        <time>2022-03-07T13:58:52.615Z</time>
      </trkpt>
      <trkpt lat="42.50848" lon="24.18481">
        <ele>574.632221</ele>
        <time>2022-03-07T13:58:56.601Z</time>
      </trkpt>
      <trkpt lat="42.50858" lon="24.18476">
        <ele>574.86276</ele>
        <time>2022-03-07T13:59:01.567Z</time>
      </trkpt>
      <trkpt lat="42.50869" lon="24.18473">
        <ele>575.094933</ele>
        <time>2022-03-07T13:59:05.596Z</time>
      </trkpt>
      <trkpt lat="42.5088" lon="24.1847">
        <ele>575.313964</ele>
        <time>2022-03-07T13:59:09.568Z</time>
      </trkpt>
      <trkpt lat="42.5089" lon="24.18467">
        <ele>575.526322</ele>
        <time>2022-03-07T13:59:13.593Z</time>
      </trkpt>
      <trkpt lat="42.509" lon="24.18464">
        <ele>575.737006</ele>
        <time>2022-03-07T13:59:17.572Z</time>
      </trkpt>
      <trkpt lat="42.50909" lon="24.18461">
        <ele>575.935344</ele>
        <time>2022-03-07T13:59:21.577Z</time>
      </trkpt>
      <trkpt lat="42.50918" lon="24.18458">
        <ele>576.121725</ele>
        <time>2022-03-07T13:59:25.583Z</time>
      </trkpt>
      <trkpt lat="42.50928" lon="24.18453">
        <ele>576.336734</ele>
        <time>2022-03-07T13:59:30.587Z</time>
      </trkpt>
      <trkpt lat="42.50938" lon="24.18454">
        <ele>576.54021</ele>
        <time>2022-03-07T13:59:34.598Z</time>
      </trkpt>
      <trkpt lat="42.50947" lon="24.18458">
        <ele>576.733363</ele>
        <time>2022-03-07T13:59:38.580Z</time>
      </trkpt>
      <trkpt lat="42.50957" lon="24.1846">
        <ele>576.948828</ele>
        <time>2022-03-07T13:59:42.581Z</time>
      </trkpt>
      <trkpt lat="42.50966" lon="24.18465">
        <ele>577.141986</ele>
        <time>2022-03-07T13:59:46.585Z</time>
      </trkpt>
      <trkpt lat="42.50976" lon="24.18469">
        <ele>577.345845</ele>
        <time>2022-03-07T13:59:50.571Z</time>
      </trkpt>
      <trkpt lat="42.50984" lon="24.18478">
        <ele>577.571291</ele>
        <time>2022-03-07T13:59:55.558Z</time>
      </trkpt>
      <trkpt lat="42.50995" lon="24.18482">
        <ele>577.800073</ele>
        <time>2022-03-07T14:00:00.614Z</time>
      </trkpt>
      <trkpt lat="42.51004" lon="24.18487">
        <ele>578.011681</ele>
        <time>2022-03-07T14:00:04.606Z</time>
      </trkpt>
      <trkpt lat="42.51013" lon="24.18491">
        <ele>578.429092</ele>
        <time>2022-03-07T14:00:08.605Z</time>
      </trkpt>
      <trkpt lat="42.51023" lon="24.18497">
        <ele>578.904286</ele>
        <time>2022-03-07T14:00:13.628Z</time>
      </trkpt>
      <trkpt lat="42.51032" lon="24.185">
        <ele>579.291502</ele>
        <time>2022-03-07T14:00:17.577Z</time>
      </trkpt>
      <trkpt lat="42.51043" lon="24.18504">
        <ele>579.779415</ele>
        <time>2022-03-07T14:00:22.583Z</time>
      </trkpt>
      <trkpt lat="42.51053" lon="24.18506">
        <ele>580.205129</ele>
        <time>2022-03-07T14:00:26.575Z</time>
      </trkpt>
      <trkpt lat="42.51063" lon="24.18507">
        <ele>580.639537</ele>
        <time>2022-03-07T14:00:30.574Z</time>
      </trkpt>
      <trkpt lat="42.51072" lon="24.18506">
        <ele>581.027048</ele>
        <time>2022-03-07T14:00:34.578Z</time>
      </trkpt>
      <trkpt lat="42.5108" lon="24.18498">
        <ele>581.459643</ele>
        <time>2022-03-07T14:00:39.559Z</time>
      </trkpt>
      <trkpt lat="42.51083" lon="24.18485">
        <ele>581.881254</ele>
        <time>2022-03-07T14:00:45.581Z</time>
      </trkpt>
      <trkpt lat="42.51086" lon="24.18473">
        <ele>582.29643</ele>
        <time>2022-03-07T14:00:51.617Z</time>
      </trkpt>
      <trkpt lat="42.51088" lon="24.18459">
        <ele>582.735497</ele>
        <time>2022-03-07T14:00:57.571Z</time>
      </trkpt>
      <trkpt lat="42.51089" lon="24.18446">
        <ele>583.124853</ele>
        <time>2022-03-07T14:01:02.582Z</time>
      </trkpt>
      <trkpt lat="42.51091" lon="24.18434">
        <ele>583.529174</ele>
        <time>2022-03-07T14:01:07.603Z</time>
      </trkpt>
      <trkpt lat="42.51092" lon="24.18419">
        <ele>583.98444</ele>
        <time>2022-03-07T14:01:13.565Z</time>
      </trkpt>
      <trkpt lat="42.51093" lon="24.18406">
        <ele>584.391958</ele>
        <time>2022-03-07T14:01:18.586Z</time>
      </trkpt>
      <trkpt lat="42.51093" lon="24.18392">
        <ele>584.856576</ele>
        <time>2022-03-07T14:01:23.567Z</time>
      </trkpt>
      <trkpt lat="42.51094" lon="24.18379">
        <ele>585.245913</ele>
        <time>2022-03-07T14:01:27.572Z</time>
      </trkpt>
      <trkpt lat="42.51096" lon="24.18367">
        <ele>585.63368</ele>
        <time>2022-03-07T14:01:31.580Z</time>
      </trkpt>
      <trkpt lat="42.51098" lon="24.18354">
        <ele>585.63368</ele>
        <time>2022-03-07T14:01:35.620Z</time>
      </trkpt>
      <trkpt lat="42.51099" lon="24.18341">
        <ele>585.63368</ele>
        <time>2022-03-07T14:01:39.586Z</time>
      </trkpt>
      <trkpt lat="42.511" lon="24.18328">
        <ele>585.63368</ele>
        <time>2022-03-07T14:01:43.590Z</time>
      </trkpt>
      <trkpt lat="42.51102" lon="24.18314">
        <ele>585.63368</ele>
        <time>2022-03-07T14:01:47.592Z</time>
      </trkpt>
      <trkpt lat="42.51104" lon="24.183">
        <ele>585.63368</ele>
        <time>2022-03-07T14:01:52.586Z</time>
      </trkpt>
      <trkpt lat="42.51105" lon="24.18288">
        <ele>585.63368</ele>
        <time>2022-03-07T14:01:56.578Z</time>
      </trkpt>
      <trkpt lat="42.51106" lon="24.18273">
        <ele>585.63368</ele>
        <time>2022-03-07T14:02:01.572Z</time>
      </trkpt>
      <trkpt lat="42.51106" lon="24.1826">
        <ele>585.63368</ele>
        <time>2022-03-07T14:02:05.576Z</time>
      </trkpt>
      <trkpt lat="42.51107" lon="24.18248">
        <ele>585.63368</ele>
        <time>2022-03-07T14:02:09.611Z</time>
      </trkpt>
      <trkpt lat="42.5111" lon="24.18236">
        <ele>585.63368</ele>
        <time>2022-03-07T14:02:13.594Z</time>
      </trkpt>
      <trkpt lat="42.51111" lon="24.18223">
        <ele>585.63368</ele>
        <time>2022-03-07T14:02:17.591Z</time>
      </trkpt>
      <trkpt lat="42.51114" lon="24.18211">
        <ele>585.63368</ele>
        <time>2022-03-07T14:02:21.578Z</time>
      </trkpt>
      <trkpt lat="42.51122" lon="24.18205">
        <ele>585.63368</ele>
        <time>2022-03-07T14:02:26.547Z</time>
      </trkpt>
      <trkpt lat="42.51131" lon="24.18205">
        <ele>585.63368</ele>
        <time>2022-03-07T14:02:34.568Z</time>
      </trkpt>
      <trkpt lat="42.51138" lon="24.18223">
        <ele>585.63368</ele>
        <time>2022-03-07T14:04:33.571Z</time>
      </trkpt>
      <trkpt lat="42.51134" lon="24.18226">
        <ele>585.63368</ele>
        <time>2022-03-07T14:10:29.135Z</time>
      </trkpt>
    </trkseg>
  </trk>
</gpx>